<?xml version="1.0" encoding="UTF-8" standalone="no" ?>
<gpx xmlns="http://www.topografix.com/GPX/1/1" xmlns:xsi="http://www.w3.org/2001/XMLSchema-instance" xsi:schemaLocation="http://www.topografix.com/GPX/1/1 http://www.topografix.com/GPX/1/1/gpx.xsd" version="1.1" creator="VisuGPX - https://www.visugpx.com">
  <metadata>
    <name>pentecote 2021</name>
  </metadata>
  <wpt lat="47.78196" lon="-1.85208">
    <ele>14.21875</ele>
    <name><![CDATA[Etang Et Bois de Baron]]></name>
    <type><![CDATA[user]]></type>
  </wpt>
  <wpt lat="47.77541" lon="-1.83879">
    <ele>5.3</ele>
    <name><![CDATA[pont de Boeuvre]]></name>
    <type><![CDATA[user]]></type>
  </wpt>
  <trk>
    <name><![CDATA[Plechatel 2015]]></name>
    <trkseg>
      <trkpt lat="47.89483" lon="-1.74741">
        <ele>65</ele>
        <time>2015-06-07T05:56:22Z</time>
      </trkpt>
      <trkpt lat="47.89483" lon="-1.74741">
        <ele>65</ele>
        <time>2015-06-07T05:56:23Z</time>
      </trkpt>
      <trkpt lat="47.89484" lon="-1.74739">
        <ele>65</ele>
        <time>2015-06-07T05:56:24Z</time>
      </trkpt>
      <trkpt lat="47.89485" lon="-1.74737">
        <ele>66</ele>
        <time>2015-06-07T05:56:25Z</time>
      </trkpt>
      <trkpt lat="47.89486" lon="-1.74735">
        <ele>66</ele>
        <time>2015-06-07T05:56:26Z</time>
      </trkpt>
      <trkpt lat="47.89487" lon="-1.74733">
        <ele>66</ele>
        <time>2015-06-07T05:56:27Z</time>
      </trkpt>
      <trkpt lat="47.89489" lon="-1.74731">
        <ele>65</ele>
        <time>2015-06-07T05:56:28Z</time>
      </trkpt>
      <trkpt lat="47.89491" lon="-1.74729">
        <ele>65</ele>
        <time>2015-06-07T05:56:29Z</time>
      </trkpt>
      <trkpt lat="47.89493" lon="-1.74726">
        <ele>65</ele>
        <time>2015-06-07T05:56:30Z</time>
      </trkpt>
      <trkpt lat="47.89495" lon="-1.74723">
        <ele>65</ele>
        <time>2015-06-07T05:56:31Z</time>
      </trkpt>
      <trkpt lat="47.89497" lon="-1.7472">
        <ele>65</ele>
        <time>2015-06-07T05:56:32Z</time>
      </trkpt>
      <trkpt lat="47.89499" lon="-1.74717">
        <ele>65</ele>
        <time>2015-06-07T05:56:33Z</time>
      </trkpt>
      <trkpt lat="47.89501" lon="-1.74715">
        <ele>64</ele>
        <time>2015-06-07T05:56:34Z</time>
      </trkpt>
      <trkpt lat="47.89503" lon="-1.74712">
        <ele>64</ele>
        <time>2015-06-07T05:56:35Z</time>
      </trkpt>
      <trkpt lat="47.89505" lon="-1.74709">
        <ele>64</ele>
        <time>2015-06-07T05:56:36Z</time>
      </trkpt>
      <trkpt lat="47.89507" lon="-1.74706">
        <ele>64</ele>
        <time>2015-06-07T05:56:37Z</time>
      </trkpt>
      <trkpt lat="47.89509" lon="-1.74703">
        <ele>63</ele>
        <time>2015-06-07T05:56:38Z</time>
      </trkpt>
      <trkpt lat="47.89512" lon="-1.74701">
        <ele>63</ele>
        <time>2015-06-07T05:56:39Z</time>
      </trkpt>
      <trkpt lat="47.89514" lon="-1.74698">
        <ele>63</ele>
        <time>2015-06-07T05:56:40Z</time>
      </trkpt>
      <trkpt lat="47.89517" lon="-1.74695">
        <ele>62</ele>
        <time>2015-06-07T05:56:41Z</time>
      </trkpt>
      <trkpt lat="47.89519" lon="-1.74692">
        <ele>62</ele>
        <time>2015-06-07T05:56:42Z</time>
      </trkpt>
      <trkpt lat="47.8952" lon="-1.74688">
        <ele>62</ele>
        <time>2015-06-07T05:56:43Z</time>
      </trkpt>
      <trkpt lat="47.89523" lon="-1.74684">
        <ele>62</ele>
        <time>2015-06-07T05:56:44Z</time>
      </trkpt>
      <trkpt lat="47.89524" lon="-1.74682">
        <ele>62</ele>
        <time>2015-06-07T05:56:45Z</time>
      </trkpt>
      <trkpt lat="47.89527" lon="-1.74679">
        <ele>62</ele>
        <time>2015-06-07T05:56:46Z</time>
      </trkpt>
      <trkpt lat="47.89529" lon="-1.74678">
        <ele>62</ele>
        <time>2015-06-07T05:56:47Z</time>
      </trkpt>
      <trkpt lat="47.89532" lon="-1.74678">
        <ele>62</ele>
        <time>2015-06-07T05:56:48Z</time>
      </trkpt>
      <trkpt lat="47.89536" lon="-1.74678">
        <ele>62</ele>
        <time>2015-06-07T05:56:49Z</time>
      </trkpt>
      <trkpt lat="47.8954" lon="-1.74678">
        <ele>62</ele>
        <time>2015-06-07T05:56:50Z</time>
      </trkpt>
      <trkpt lat="47.89544" lon="-1.74678">
        <ele>62</ele>
        <time>2015-06-07T05:56:51Z</time>
      </trkpt>
      <trkpt lat="47.89548" lon="-1.74676">
        <ele>62</ele>
        <time>2015-06-07T05:56:52Z</time>
      </trkpt>
      <trkpt lat="47.89551" lon="-1.74673">
        <ele>62</ele>
        <time>2015-06-07T05:56:53Z</time>
      </trkpt>
      <trkpt lat="47.89554" lon="-1.74669">
        <ele>62</ele>
        <time>2015-06-07T05:56:54Z</time>
      </trkpt>
      <trkpt lat="47.89557" lon="-1.74663">
        <ele>62</ele>
        <time>2015-06-07T05:56:55Z</time>
      </trkpt>
      <trkpt lat="47.89559" lon="-1.74657">
        <ele>62</ele>
        <time>2015-06-07T05:56:56Z</time>
      </trkpt>
      <trkpt lat="47.89561" lon="-1.74651">
        <ele>62</ele>
        <time>2015-06-07T05:56:57Z</time>
      </trkpt>
      <trkpt lat="47.89561" lon="-1.74644">
        <ele>62</ele>
        <time>2015-06-07T05:56:58Z</time>
      </trkpt>
      <trkpt lat="47.8956" lon="-1.74638">
        <ele>61</ele>
        <time>2015-06-07T05:56:59Z</time>
      </trkpt>
      <trkpt lat="47.89559" lon="-1.74633">
        <ele>61</ele>
        <time>2015-06-07T05:57:00Z</time>
      </trkpt>
      <trkpt lat="47.89556" lon="-1.7463">
        <ele>61</ele>
        <time>2015-06-07T05:57:01Z</time>
      </trkpt>
      <trkpt lat="47.89554" lon="-1.74626">
        <ele>61</ele>
        <time>2015-06-07T05:57:02Z</time>
      </trkpt>
      <trkpt lat="47.89551" lon="-1.74624">
        <ele>61</ele>
        <time>2015-06-07T05:57:03Z</time>
      </trkpt>
      <trkpt lat="47.89548" lon="-1.74622">
        <ele>61</ele>
        <time>2015-06-07T05:57:04Z</time>
      </trkpt>
      <trkpt lat="47.89546" lon="-1.74619">
        <ele>60</ele>
        <time>2015-06-07T05:57:05Z</time>
      </trkpt>
      <trkpt lat="47.89544" lon="-1.74615">
        <ele>60</ele>
        <time>2015-06-07T05:57:06Z</time>
      </trkpt>
      <trkpt lat="47.89544" lon="-1.74611">
        <ele>60</ele>
        <time>2015-06-07T05:57:07Z</time>
      </trkpt>
      <trkpt lat="47.89544" lon="-1.74609">
        <ele>60</ele>
        <time>2015-06-07T05:57:08Z</time>
      </trkpt>
      <trkpt lat="47.89547" lon="-1.74609">
        <ele>59</ele>
        <time>2015-06-07T05:57:09Z</time>
      </trkpt>
      <trkpt lat="47.89552" lon="-1.74609">
        <ele>59</ele>
        <time>2015-06-07T05:57:10Z</time>
      </trkpt>
      <trkpt lat="47.89556" lon="-1.74609">
        <ele>59</ele>
        <time>2015-06-07T05:57:11Z</time>
      </trkpt>
      <trkpt lat="47.89561" lon="-1.74609">
        <ele>59</ele>
        <time>2015-06-07T05:57:12Z</time>
      </trkpt>
      <trkpt lat="47.89565" lon="-1.74608">
        <ele>59</ele>
        <time>2015-06-07T05:57:13Z</time>
      </trkpt>
      <trkpt lat="47.8957" lon="-1.74608">
        <ele>59</ele>
        <time>2015-06-07T05:57:14Z</time>
      </trkpt>
      <trkpt lat="47.89575" lon="-1.74608">
        <ele>60</ele>
        <time>2015-06-07T05:57:15Z</time>
      </trkpt>
      <trkpt lat="47.8958" lon="-1.74608">
        <ele>60</ele>
        <time>2015-06-07T05:57:16Z</time>
      </trkpt>
      <trkpt lat="47.89584" lon="-1.74608">
        <ele>60</ele>
        <time>2015-06-07T05:57:17Z</time>
      </trkpt>
      <trkpt lat="47.89589" lon="-1.74607">
        <ele>59</ele>
        <time>2015-06-07T05:57:18Z</time>
      </trkpt>
      <trkpt lat="47.89592" lon="-1.74607">
        <ele>59</ele>
        <time>2015-06-07T05:57:19Z</time>
      </trkpt>
      <trkpt lat="47.89596" lon="-1.74608">
        <ele>59</ele>
        <time>2015-06-07T05:57:20Z</time>
      </trkpt>
      <trkpt lat="47.89599" lon="-1.74609">
        <ele>59</ele>
        <time>2015-06-07T05:57:21Z</time>
      </trkpt>
      <trkpt lat="47.89602" lon="-1.74609">
        <ele>59</ele>
        <time>2015-06-07T05:57:22Z</time>
      </trkpt>
      <trkpt lat="47.89605" lon="-1.74607">
        <ele>59</ele>
        <time>2015-06-07T05:57:23Z</time>
      </trkpt>
      <trkpt lat="47.89607" lon="-1.74603">
        <ele>59</ele>
        <time>2015-06-07T05:57:24Z</time>
      </trkpt>
      <trkpt lat="47.8961" lon="-1.74599">
        <ele>59</ele>
        <time>2015-06-07T05:57:25Z</time>
      </trkpt>
      <trkpt lat="47.89612" lon="-1.74595">
        <ele>59</ele>
        <time>2015-06-07T05:57:26Z</time>
      </trkpt>
      <trkpt lat="47.89614" lon="-1.7459">
        <ele>59</ele>
        <time>2015-06-07T05:57:27Z</time>
      </trkpt>
      <trkpt lat="47.89616" lon="-1.74585">
        <ele>59</ele>
        <time>2015-06-07T05:57:28Z</time>
      </trkpt>
      <trkpt lat="47.89619" lon="-1.74579">
        <ele>59</ele>
        <time>2015-06-07T05:57:29Z</time>
      </trkpt>
      <trkpt lat="47.89621" lon="-1.74573">
        <ele>58</ele>
        <time>2015-06-07T05:57:30Z</time>
      </trkpt>
      <trkpt lat="47.89623" lon="-1.74567">
        <ele>58</ele>
        <time>2015-06-07T05:57:31Z</time>
      </trkpt>
      <trkpt lat="47.89625" lon="-1.74561">
        <ele>58</ele>
        <time>2015-06-07T05:57:32Z</time>
      </trkpt>
      <trkpt lat="47.89628" lon="-1.74554">
        <ele>58</ele>
        <time>2015-06-07T05:57:33Z</time>
      </trkpt>
      <trkpt lat="47.8963" lon="-1.74547">
        <ele>58</ele>
        <time>2015-06-07T05:57:34Z</time>
      </trkpt>
      <trkpt lat="47.89632" lon="-1.7454">
        <ele>57</ele>
        <time>2015-06-07T05:57:35Z</time>
      </trkpt>
      <trkpt lat="47.89635" lon="-1.74532">
        <ele>57</ele>
        <time>2015-06-07T05:57:36Z</time>
      </trkpt>
      <trkpt lat="47.89637" lon="-1.74525">
        <ele>57</ele>
        <time>2015-06-07T05:57:37Z</time>
      </trkpt>
      <trkpt lat="47.8964" lon="-1.74517">
        <ele>57</ele>
        <time>2015-06-07T05:57:38Z</time>
      </trkpt>
      <trkpt lat="47.89642" lon="-1.74509">
        <ele>56</ele>
        <time>2015-06-07T05:57:39Z</time>
      </trkpt>
      <trkpt lat="47.89645" lon="-1.74502">
        <ele>56</ele>
        <time>2015-06-07T05:57:40Z</time>
      </trkpt>
      <trkpt lat="47.89648" lon="-1.74494">
        <ele>56</ele>
        <time>2015-06-07T05:57:41Z</time>
      </trkpt>
      <trkpt lat="47.89651" lon="-1.74486">
        <ele>56</ele>
        <time>2015-06-07T05:57:42Z</time>
      </trkpt>
      <trkpt lat="47.89654" lon="-1.74478">
        <ele>55</ele>
        <time>2015-06-07T05:57:43Z</time>
      </trkpt>
      <trkpt lat="47.89656" lon="-1.74469">
        <ele>55</ele>
        <time>2015-06-07T05:57:44Z</time>
      </trkpt>
      <trkpt lat="47.89659" lon="-1.74461">
        <ele>55</ele>
        <time>2015-06-07T05:57:45Z</time>
      </trkpt>
      <trkpt lat="47.89663" lon="-1.74453">
        <ele>54</ele>
        <time>2015-06-07T05:57:46Z</time>
      </trkpt>
      <trkpt lat="47.89666" lon="-1.74446">
        <ele>54</ele>
        <time>2015-06-07T05:57:47Z</time>
      </trkpt>
      <trkpt lat="47.8967" lon="-1.74438">
        <ele>54</ele>
        <time>2015-06-07T05:57:48Z</time>
      </trkpt>
      <trkpt lat="47.89674" lon="-1.74431">
        <ele>54</ele>
        <time>2015-06-07T05:57:49Z</time>
      </trkpt>
      <trkpt lat="47.89678" lon="-1.74425">
        <ele>53</ele>
        <time>2015-06-07T05:57:50Z</time>
      </trkpt>
      <trkpt lat="47.89683" lon="-1.7442">
        <ele>53</ele>
        <time>2015-06-07T05:57:51Z</time>
      </trkpt>
      <trkpt lat="47.89688" lon="-1.74416">
        <ele>53</ele>
        <time>2015-06-07T05:57:52Z</time>
      </trkpt>
      <trkpt lat="47.89694" lon="-1.74412">
        <ele>52</ele>
        <time>2015-06-07T05:57:53Z</time>
      </trkpt>
      <trkpt lat="47.897" lon="-1.74408">
        <ele>52</ele>
        <time>2015-06-07T05:57:54Z</time>
      </trkpt>
      <trkpt lat="47.89706" lon="-1.74405">
        <ele>52</ele>
        <time>2015-06-07T05:57:55Z</time>
      </trkpt>
      <trkpt lat="47.89712" lon="-1.74402">
        <ele>51</ele>
        <time>2015-06-07T05:57:56Z</time>
      </trkpt>
      <trkpt lat="47.89718" lon="-1.74399">
        <ele>51</ele>
        <time>2015-06-07T05:57:57Z</time>
      </trkpt>
      <trkpt lat="47.89725" lon="-1.74396">
        <ele>50</ele>
        <time>2015-06-07T05:57:58Z</time>
      </trkpt>
      <trkpt lat="47.89732" lon="-1.74394">
        <ele>50</ele>
        <time>2015-06-07T05:57:59Z</time>
      </trkpt>
      <trkpt lat="47.89738" lon="-1.74391">
        <ele>49</ele>
        <time>2015-06-07T05:58:00Z</time>
      </trkpt>
      <trkpt lat="47.89745" lon="-1.74388">
        <ele>49</ele>
        <time>2015-06-07T05:58:01Z</time>
      </trkpt>
      <trkpt lat="47.89751" lon="-1.74386">
        <ele>49</ele>
        <time>2015-06-07T05:58:02Z</time>
      </trkpt>
      <trkpt lat="47.89758" lon="-1.74383">
        <ele>48</ele>
        <time>2015-06-07T05:58:03Z</time>
      </trkpt>
      <trkpt lat="47.89764" lon="-1.7438">
        <ele>48</ele>
        <time>2015-06-07T05:58:04Z</time>
      </trkpt>
      <trkpt lat="47.89771" lon="-1.74378">
        <ele>47</ele>
        <time>2015-06-07T05:58:05Z</time>
      </trkpt>
      <trkpt lat="47.89778" lon="-1.74375">
        <ele>47</ele>
        <time>2015-06-07T05:58:06Z</time>
      </trkpt>
      <trkpt lat="47.89784" lon="-1.74373">
        <ele>47</ele>
        <time>2015-06-07T05:58:07Z</time>
      </trkpt>
      <trkpt lat="47.89791" lon="-1.7437">
        <ele>46</ele>
        <time>2015-06-07T05:58:08Z</time>
      </trkpt>
      <trkpt lat="47.89798" lon="-1.74367">
        <ele>46</ele>
        <time>2015-06-07T05:58:09Z</time>
      </trkpt>
      <trkpt lat="47.89805" lon="-1.74364">
        <ele>45</ele>
        <time>2015-06-07T05:58:10Z</time>
      </trkpt>
      <trkpt lat="47.89812" lon="-1.74362">
        <ele>45</ele>
        <time>2015-06-07T05:58:11Z</time>
      </trkpt>
      <trkpt lat="47.89819" lon="-1.74359">
        <ele>44</ele>
        <time>2015-06-07T05:58:12Z</time>
      </trkpt>
      <trkpt lat="47.89827" lon="-1.74356">
        <ele>44</ele>
        <time>2015-06-07T05:58:13Z</time>
      </trkpt>
      <trkpt lat="47.89834" lon="-1.74353">
        <ele>43</ele>
        <time>2015-06-07T05:58:14Z</time>
      </trkpt>
      <trkpt lat="47.89842" lon="-1.7435">
        <ele>43</ele>
        <time>2015-06-07T05:58:15Z</time>
      </trkpt>
      <trkpt lat="47.8985" lon="-1.74346">
        <ele>42</ele>
        <time>2015-06-07T05:58:16Z</time>
      </trkpt>
      <trkpt lat="47.89858" lon="-1.74343">
        <ele>41</ele>
        <time>2015-06-07T05:58:17Z</time>
      </trkpt>
      <trkpt lat="47.89867" lon="-1.7434">
        <ele>40</ele>
        <time>2015-06-07T05:58:18Z</time>
      </trkpt>
      <trkpt lat="47.89875" lon="-1.74336">
        <ele>40</ele>
        <time>2015-06-07T05:58:19Z</time>
      </trkpt>
      <trkpt lat="47.89884" lon="-1.74332">
        <ele>39</ele>
        <time>2015-06-07T05:58:20Z</time>
      </trkpt>
      <trkpt lat="47.89893" lon="-1.74329">
        <ele>39</ele>
        <time>2015-06-07T05:58:21Z</time>
      </trkpt>
      <trkpt lat="47.89901" lon="-1.74326">
        <ele>38</ele>
        <time>2015-06-07T05:58:22Z</time>
      </trkpt>
      <trkpt lat="47.89911" lon="-1.74322">
        <ele>37</ele>
        <time>2015-06-07T05:58:23Z</time>
      </trkpt>
      <trkpt lat="47.8992" lon="-1.74319">
        <ele>37</ele>
        <time>2015-06-07T05:58:24Z</time>
      </trkpt>
      <trkpt lat="47.89929" lon="-1.74315">
        <ele>36</ele>
        <time>2015-06-07T05:58:25Z</time>
      </trkpt>
      <trkpt lat="47.89938" lon="-1.74312">
        <ele>35</ele>
        <time>2015-06-07T05:58:26Z</time>
      </trkpt>
      <trkpt lat="47.89948" lon="-1.74308">
        <ele>35</ele>
        <time>2015-06-07T05:58:27Z</time>
      </trkpt>
      <trkpt lat="47.89957" lon="-1.74304">
        <ele>34</ele>
        <time>2015-06-07T05:58:28Z</time>
      </trkpt>
      <trkpt lat="47.89967" lon="-1.743">
        <ele>33</ele>
        <time>2015-06-07T05:58:29Z</time>
      </trkpt>
      <trkpt lat="47.89976" lon="-1.74297">
        <ele>33</ele>
        <time>2015-06-07T05:58:30Z</time>
      </trkpt>
      <trkpt lat="47.89985" lon="-1.74293">
        <ele>32</ele>
        <time>2015-06-07T05:58:31Z</time>
      </trkpt>
      <trkpt lat="47.89994" lon="-1.7429">
        <ele>32</ele>
        <time>2015-06-07T05:58:32Z</time>
      </trkpt>
      <trkpt lat="47.90003" lon="-1.74286">
        <ele>31</ele>
        <time>2015-06-07T05:58:33Z</time>
      </trkpt>
      <trkpt lat="47.90013" lon="-1.74282">
        <ele>30</ele>
        <time>2015-06-07T05:58:34Z</time>
      </trkpt>
      <trkpt lat="47.90022" lon="-1.74279">
        <ele>30</ele>
        <time>2015-06-07T05:58:35Z</time>
      </trkpt>
      <trkpt lat="47.90031" lon="-1.74275">
        <ele>29</ele>
        <time>2015-06-07T05:58:36Z</time>
      </trkpt>
      <trkpt lat="47.90039" lon="-1.74271">
        <ele>29</ele>
        <time>2015-06-07T05:58:37Z</time>
      </trkpt>
      <trkpt lat="47.90049" lon="-1.74267">
        <ele>28</ele>
        <time>2015-06-07T05:58:38Z</time>
      </trkpt>
      <trkpt lat="47.90057" lon="-1.74264">
        <ele>27</ele>
        <time>2015-06-07T05:58:39Z</time>
      </trkpt>
      <trkpt lat="47.90066" lon="-1.7426">
        <ele>27</ele>
        <time>2015-06-07T05:58:40Z</time>
      </trkpt>
      <trkpt lat="47.90075" lon="-1.74256">
        <ele>26</ele>
        <time>2015-06-07T05:58:41Z</time>
      </trkpt>
      <trkpt lat="47.90083" lon="-1.74252">
        <ele>26</ele>
        <time>2015-06-07T05:58:42Z</time>
      </trkpt>
      <trkpt lat="47.90091" lon="-1.74249">
        <ele>25</ele>
        <time>2015-06-07T05:58:43Z</time>
      </trkpt>
      <trkpt lat="47.901" lon="-1.74244">
        <ele>25</ele>
        <time>2015-06-07T05:58:44Z</time>
      </trkpt>
      <trkpt lat="47.90107" lon="-1.74239">
        <ele>24</ele>
        <time>2015-06-07T05:58:45Z</time>
      </trkpt>
      <trkpt lat="47.90115" lon="-1.74234">
        <ele>24</ele>
        <time>2015-06-07T05:58:46Z</time>
      </trkpt>
      <trkpt lat="47.90122" lon="-1.74229">
        <ele>24</ele>
        <time>2015-06-07T05:58:47Z</time>
      </trkpt>
      <trkpt lat="47.90129" lon="-1.74223">
        <ele>23</ele>
        <time>2015-06-07T05:58:48Z</time>
      </trkpt>
      <trkpt lat="47.90136" lon="-1.74217">
        <ele>23</ele>
        <time>2015-06-07T05:58:49Z</time>
      </trkpt>
      <trkpt lat="47.90142" lon="-1.74212">
        <ele>23</ele>
        <time>2015-06-07T05:58:50Z</time>
      </trkpt>
      <trkpt lat="47.90148" lon="-1.74206">
        <ele>23</ele>
        <time>2015-06-07T05:58:51Z</time>
      </trkpt>
      <trkpt lat="47.90154" lon="-1.742">
        <ele>23</ele>
        <time>2015-06-07T05:58:52Z</time>
      </trkpt>
      <trkpt lat="47.9016" lon="-1.74194">
        <ele>22</ele>
        <time>2015-06-07T05:58:53Z</time>
      </trkpt>
      <trkpt lat="47.90166" lon="-1.74189">
        <ele>22</ele>
        <time>2015-06-07T05:58:54Z</time>
      </trkpt>
      <trkpt lat="47.90171" lon="-1.74183">
        <ele>22</ele>
        <time>2015-06-07T05:58:55Z</time>
      </trkpt>
      <trkpt lat="47.90177" lon="-1.74177">
        <ele>22</ele>
        <time>2015-06-07T05:58:56Z</time>
      </trkpt>
      <trkpt lat="47.90182" lon="-1.74172">
        <ele>22</ele>
        <time>2015-06-07T05:58:57Z</time>
      </trkpt>
      <trkpt lat="47.90187" lon="-1.74166">
        <ele>22</ele>
        <time>2015-06-07T05:58:58Z</time>
      </trkpt>
      <trkpt lat="47.90193" lon="-1.7416">
        <ele>22</ele>
        <time>2015-06-07T05:58:59Z</time>
      </trkpt>
      <trkpt lat="47.90198" lon="-1.74155">
        <ele>21</ele>
        <time>2015-06-07T05:59:00Z</time>
      </trkpt>
      <trkpt lat="47.90203" lon="-1.74149">
        <ele>21</ele>
        <time>2015-06-07T05:59:01Z</time>
      </trkpt>
      <trkpt lat="47.90208" lon="-1.74144">
        <ele>21</ele>
        <time>2015-06-07T05:59:02Z</time>
      </trkpt>
      <trkpt lat="47.90213" lon="-1.74138">
        <ele>21</ele>
        <time>2015-06-07T05:59:03Z</time>
      </trkpt>
      <trkpt lat="47.90217" lon="-1.74133">
        <ele>21</ele>
        <time>2015-06-07T05:59:04Z</time>
      </trkpt>
      <trkpt lat="47.90223" lon="-1.74128">
        <ele>21</ele>
        <time>2015-06-07T05:59:05Z</time>
      </trkpt>
      <trkpt lat="47.90227" lon="-1.74122">
        <ele>21</ele>
        <time>2015-06-07T05:59:06Z</time>
      </trkpt>
      <trkpt lat="47.90232" lon="-1.74117">
        <ele>21</ele>
        <time>2015-06-07T05:59:07Z</time>
      </trkpt>
      <trkpt lat="47.90237" lon="-1.74112">
        <ele>21</ele>
        <time>2015-06-07T05:59:08Z</time>
      </trkpt>
      <trkpt lat="47.90242" lon="-1.74106">
        <ele>21</ele>
        <time>2015-06-07T05:59:09Z</time>
      </trkpt>
      <trkpt lat="47.90247" lon="-1.74101">
        <ele>21</ele>
        <time>2015-06-07T05:59:10Z</time>
      </trkpt>
      <trkpt lat="47.90252" lon="-1.74095">
        <ele>21</ele>
        <time>2015-06-07T05:59:11Z</time>
      </trkpt>
      <trkpt lat="47.90257" lon="-1.7409">
        <ele>21</ele>
        <time>2015-06-07T05:59:12Z</time>
      </trkpt>
      <trkpt lat="47.90262" lon="-1.74084">
        <ele>21</ele>
        <time>2015-06-07T05:59:13Z</time>
      </trkpt>
      <trkpt lat="47.90268" lon="-1.74078">
        <ele>20</ele>
        <time>2015-06-07T05:59:14Z</time>
      </trkpt>
      <trkpt lat="47.90273" lon="-1.74073">
        <ele>20</ele>
        <time>2015-06-07T05:59:15Z</time>
      </trkpt>
      <trkpt lat="47.90278" lon="-1.74067">
        <ele>20</ele>
        <time>2015-06-07T05:59:16Z</time>
      </trkpt>
      <trkpt lat="47.90284" lon="-1.74061">
        <ele>20</ele>
        <time>2015-06-07T05:59:17Z</time>
      </trkpt>
      <trkpt lat="47.90289" lon="-1.74055">
        <ele>20</ele>
        <time>2015-06-07T05:59:18Z</time>
      </trkpt>
      <trkpt lat="47.90295" lon="-1.74049">
        <ele>20</ele>
        <time>2015-06-07T05:59:19Z</time>
      </trkpt>
      <trkpt lat="47.903" lon="-1.74043">
        <ele>20</ele>
        <time>2015-06-07T05:59:20Z</time>
      </trkpt>
      <trkpt lat="47.90306" lon="-1.74038">
        <ele>20</ele>
        <time>2015-06-07T05:59:21Z</time>
      </trkpt>
      <trkpt lat="47.90311" lon="-1.74032">
        <ele>19</ele>
        <time>2015-06-07T05:59:22Z</time>
      </trkpt>
      <trkpt lat="47.90317" lon="-1.74026">
        <ele>19</ele>
        <time>2015-06-07T05:59:23Z</time>
      </trkpt>
      <trkpt lat="47.90323" lon="-1.74019">
        <ele>19</ele>
        <time>2015-06-07T05:59:24Z</time>
      </trkpt>
      <trkpt lat="47.90328" lon="-1.74013">
        <ele>19</ele>
        <time>2015-06-07T05:59:25Z</time>
      </trkpt>
      <trkpt lat="47.90334" lon="-1.74007">
        <ele>19</ele>
        <time>2015-06-07T05:59:26Z</time>
      </trkpt>
      <trkpt lat="47.9034" lon="-1.74002">
        <ele>19</ele>
        <time>2015-06-07T05:59:27Z</time>
      </trkpt>
      <trkpt lat="47.90345" lon="-1.73996">
        <ele>19</ele>
        <time>2015-06-07T05:59:28Z</time>
      </trkpt>
      <trkpt lat="47.90351" lon="-1.73991">
        <ele>19</ele>
        <time>2015-06-07T05:59:29Z</time>
      </trkpt>
      <trkpt lat="47.90357" lon="-1.73986">
        <ele>18</ele>
        <time>2015-06-07T05:59:30Z</time>
      </trkpt>
      <trkpt lat="47.90363" lon="-1.73981">
        <ele>18</ele>
        <time>2015-06-07T05:59:31Z</time>
      </trkpt>
      <trkpt lat="47.90368" lon="-1.73977">
        <ele>18</ele>
        <time>2015-06-07T05:59:32Z</time>
      </trkpt>
      <trkpt lat="47.90374" lon="-1.73973">
        <ele>18</ele>
        <time>2015-06-07T05:59:33Z</time>
      </trkpt>
      <trkpt lat="47.9038" lon="-1.7397">
        <ele>18</ele>
        <time>2015-06-07T05:59:34Z</time>
      </trkpt>
      <trkpt lat="47.90387" lon="-1.73967">
        <ele>18</ele>
        <time>2015-06-07T05:59:35Z</time>
      </trkpt>
      <trkpt lat="47.90393" lon="-1.73965">
        <ele>18</ele>
        <time>2015-06-07T05:59:36Z</time>
      </trkpt>
      <trkpt lat="47.904" lon="-1.73963">
        <ele>18</ele>
        <time>2015-06-07T05:59:37Z</time>
      </trkpt>
      <trkpt lat="47.90406" lon="-1.73962">
        <ele>17</ele>
        <time>2015-06-07T05:59:38Z</time>
      </trkpt>
      <trkpt lat="47.90413" lon="-1.73961">
        <ele>17</ele>
        <time>2015-06-07T05:59:39Z</time>
      </trkpt>
      <trkpt lat="47.9042" lon="-1.7396">
        <ele>17</ele>
        <time>2015-06-07T05:59:40Z</time>
      </trkpt>
      <trkpt lat="47.90426" lon="-1.73961">
        <ele>17</ele>
        <time>2015-06-07T05:59:41Z</time>
      </trkpt>
      <trkpt lat="47.90433" lon="-1.73961">
        <ele>17</ele>
        <time>2015-06-07T05:59:42Z</time>
      </trkpt>
      <trkpt lat="47.90439" lon="-1.73963">
        <ele>17</ele>
        <time>2015-06-07T05:59:43Z</time>
      </trkpt>
      <trkpt lat="47.90446" lon="-1.73964">
        <ele>17</ele>
        <time>2015-06-07T05:59:44Z</time>
      </trkpt>
      <trkpt lat="47.90453" lon="-1.73965">
        <ele>17</ele>
        <time>2015-06-07T05:59:45Z</time>
      </trkpt>
      <trkpt lat="47.90459" lon="-1.73966">
        <ele>17</ele>
        <time>2015-06-07T05:59:46Z</time>
      </trkpt>
      <trkpt lat="47.90466" lon="-1.73967">
        <ele>16</ele>
        <time>2015-06-07T05:59:47Z</time>
      </trkpt>
      <trkpt lat="47.90472" lon="-1.73969">
        <ele>16</ele>
        <time>2015-06-07T05:59:48Z</time>
      </trkpt>
      <trkpt lat="47.90479" lon="-1.7397">
        <ele>16</ele>
        <time>2015-06-07T05:59:49Z</time>
      </trkpt>
      <trkpt lat="47.90486" lon="-1.73971">
        <ele>16</ele>
        <time>2015-06-07T05:59:50Z</time>
      </trkpt>
      <trkpt lat="47.90493" lon="-1.73972">
        <ele>16</ele>
        <time>2015-06-07T05:59:51Z</time>
      </trkpt>
      <trkpt lat="47.90501" lon="-1.73974">
        <ele>16</ele>
        <time>2015-06-07T05:59:52Z</time>
      </trkpt>
      <trkpt lat="47.90508" lon="-1.73975">
        <ele>16</ele>
        <time>2015-06-07T05:59:53Z</time>
      </trkpt>
      <trkpt lat="47.90515" lon="-1.73977">
        <ele>16</ele>
        <time>2015-06-07T05:59:54Z</time>
      </trkpt>
      <trkpt lat="47.90522" lon="-1.73978">
        <ele>16</ele>
        <time>2015-06-07T05:59:55Z</time>
      </trkpt>
      <trkpt lat="47.90529" lon="-1.73979">
        <ele>16</ele>
        <time>2015-06-07T05:59:56Z</time>
      </trkpt>
      <trkpt lat="47.90535" lon="-1.7398">
        <ele>16</ele>
        <time>2015-06-07T05:59:57Z</time>
      </trkpt>
      <trkpt lat="47.90542" lon="-1.73981">
        <ele>16</ele>
        <time>2015-06-07T05:59:58Z</time>
      </trkpt>
      <trkpt lat="47.90548" lon="-1.73983">
        <ele>16</ele>
        <time>2015-06-07T05:59:59Z</time>
      </trkpt>
      <trkpt lat="47.90554" lon="-1.73984">
        <ele>16</ele>
        <time>2015-06-07T06:00:00Z</time>
      </trkpt>
      <trkpt lat="47.9056" lon="-1.73985">
        <ele>16</ele>
        <time>2015-06-07T06:00:01Z</time>
      </trkpt>
      <trkpt lat="47.90566" lon="-1.73987">
        <ele>16</ele>
        <time>2015-06-07T06:00:02Z</time>
      </trkpt>
      <trkpt lat="47.90572" lon="-1.73987">
        <ele>16</ele>
        <time>2015-06-07T06:00:03Z</time>
      </trkpt>
      <trkpt lat="47.90577" lon="-1.73989">
        <ele>16</ele>
        <time>2015-06-07T06:00:04Z</time>
      </trkpt>
      <trkpt lat="47.90583" lon="-1.7399">
        <ele>16</ele>
        <time>2015-06-07T06:00:05Z</time>
      </trkpt>
      <trkpt lat="47.90589" lon="-1.73992">
        <ele>16</ele>
        <time>2015-06-07T06:00:06Z</time>
      </trkpt>
      <trkpt lat="47.90594" lon="-1.73993">
        <ele>16</ele>
        <time>2015-06-07T06:00:07Z</time>
      </trkpt>
      <trkpt lat="47.906" lon="-1.73995">
        <ele>17</ele>
        <time>2015-06-07T06:00:08Z</time>
      </trkpt>
      <trkpt lat="47.90606" lon="-1.73996">
        <ele>17</ele>
        <time>2015-06-07T06:00:09Z</time>
      </trkpt>
      <trkpt lat="47.90611" lon="-1.73997">
        <ele>17</ele>
        <time>2015-06-07T06:00:10Z</time>
      </trkpt>
      <trkpt lat="47.90617" lon="-1.73998">
        <ele>17</ele>
        <time>2015-06-07T06:00:11Z</time>
      </trkpt>
      <trkpt lat="47.90622" lon="-1.74">
        <ele>17</ele>
        <time>2015-06-07T06:00:12Z</time>
      </trkpt>
      <trkpt lat="47.90627" lon="-1.74003">
        <ele>17</ele>
        <time>2015-06-07T06:00:13Z</time>
      </trkpt>
      <trkpt lat="47.90632" lon="-1.74007">
        <ele>17</ele>
        <time>2015-06-07T06:00:14Z</time>
      </trkpt>
      <trkpt lat="47.90636" lon="-1.74013">
        <ele>17</ele>
        <time>2015-06-07T06:00:15Z</time>
      </trkpt>
      <trkpt lat="47.90638" lon="-1.74019">
        <ele>17</ele>
        <time>2015-06-07T06:00:16Z</time>
      </trkpt>
      <trkpt lat="47.9064" lon="-1.74025">
        <ele>17</ele>
        <time>2015-06-07T06:00:17Z</time>
      </trkpt>
      <trkpt lat="47.90643" lon="-1.74031">
        <ele>17</ele>
        <time>2015-06-07T06:00:18Z</time>
      </trkpt>
      <trkpt lat="47.90646" lon="-1.74036">
        <ele>18</ele>
        <time>2015-06-07T06:00:19Z</time>
      </trkpt>
      <trkpt lat="47.90648" lon="-1.74041">
        <ele>18</ele>
        <time>2015-06-07T06:00:20Z</time>
      </trkpt>
      <trkpt lat="47.90651" lon="-1.74047">
        <ele>18</ele>
        <time>2015-06-07T06:00:21Z</time>
      </trkpt>
      <trkpt lat="47.90653" lon="-1.74052">
        <ele>18</ele>
        <time>2015-06-07T06:00:22Z</time>
      </trkpt>
      <trkpt lat="47.90656" lon="-1.74057">
        <ele>18</ele>
        <time>2015-06-07T06:00:23Z</time>
      </trkpt>
      <trkpt lat="47.90658" lon="-1.74063">
        <ele>18</ele>
        <time>2015-06-07T06:00:24Z</time>
      </trkpt>
      <trkpt lat="47.90659" lon="-1.74069">
        <ele>18</ele>
        <time>2015-06-07T06:00:25Z</time>
      </trkpt>
      <trkpt lat="47.90661" lon="-1.74075">
        <ele>18</ele>
        <time>2015-06-07T06:00:26Z</time>
      </trkpt>
      <trkpt lat="47.90662" lon="-1.7408">
        <ele>18</ele>
        <time>2015-06-07T06:00:27Z</time>
      </trkpt>
      <trkpt lat="47.90663" lon="-1.74086">
        <ele>19</ele>
        <time>2015-06-07T06:00:28Z</time>
      </trkpt>
      <trkpt lat="47.90665" lon="-1.74091">
        <ele>19</ele>
        <time>2015-06-07T06:00:29Z</time>
      </trkpt>
      <trkpt lat="47.90667" lon="-1.74097">
        <ele>19</ele>
        <time>2015-06-07T06:00:30Z</time>
      </trkpt>
      <trkpt lat="47.90669" lon="-1.74103">
        <ele>19</ele>
        <time>2015-06-07T06:00:31Z</time>
      </trkpt>
      <trkpt lat="47.9067" lon="-1.74108">
        <ele>19</ele>
        <time>2015-06-07T06:00:32Z</time>
      </trkpt>
      <trkpt lat="47.90672" lon="-1.74115">
        <ele>19</ele>
        <time>2015-06-07T06:00:33Z</time>
      </trkpt>
      <trkpt lat="47.90674" lon="-1.74121">
        <ele>20</ele>
        <time>2015-06-07T06:00:34Z</time>
      </trkpt>
      <trkpt lat="47.90676" lon="-1.74126">
        <ele>20</ele>
        <time>2015-06-07T06:00:35Z</time>
      </trkpt>
      <trkpt lat="47.90678" lon="-1.74132">
        <ele>20</ele>
        <time>2015-06-07T06:00:36Z</time>
      </trkpt>
      <trkpt lat="47.9068" lon="-1.74138">
        <ele>20</ele>
        <time>2015-06-07T06:00:37Z</time>
      </trkpt>
      <trkpt lat="47.90682" lon="-1.74145">
        <ele>20</ele>
        <time>2015-06-07T06:00:38Z</time>
      </trkpt>
      <trkpt lat="47.90684" lon="-1.74151">
        <ele>20</ele>
        <time>2015-06-07T06:00:39Z</time>
      </trkpt>
      <trkpt lat="47.90685" lon="-1.74158">
        <ele>20</ele>
        <time>2015-06-07T06:00:40Z</time>
      </trkpt>
      <trkpt lat="47.90687" lon="-1.74164">
        <ele>20</ele>
        <time>2015-06-07T06:00:41Z</time>
      </trkpt>
      <trkpt lat="47.90688" lon="-1.74171">
        <ele>20</ele>
        <time>2015-06-07T06:00:42Z</time>
      </trkpt>
      <trkpt lat="47.90689" lon="-1.74178">
        <ele>20</ele>
        <time>2015-06-07T06:00:43Z</time>
      </trkpt>
      <trkpt lat="47.9069" lon="-1.74185">
        <ele>20</ele>
        <time>2015-06-07T06:00:44Z</time>
      </trkpt>
      <trkpt lat="47.90691" lon="-1.74192">
        <ele>20</ele>
        <time>2015-06-07T06:00:45Z</time>
      </trkpt>
      <trkpt lat="47.90692" lon="-1.74199">
        <ele>20</ele>
        <time>2015-06-07T06:00:46Z</time>
      </trkpt>
      <trkpt lat="47.90692" lon="-1.74206">
        <ele>21</ele>
        <time>2015-06-07T06:00:47Z</time>
      </trkpt>
      <trkpt lat="47.90693" lon="-1.74213">
        <ele>21</ele>
        <time>2015-06-07T06:00:48Z</time>
      </trkpt>
      <trkpt lat="47.90694" lon="-1.7422">
        <ele>21</ele>
        <time>2015-06-07T06:00:49Z</time>
      </trkpt>
      <trkpt lat="47.90695" lon="-1.74227">
        <ele>21</ele>
        <time>2015-06-07T06:00:50Z</time>
      </trkpt>
      <trkpt lat="47.90695" lon="-1.74233">
        <ele>21</ele>
        <time>2015-06-07T06:00:51Z</time>
      </trkpt>
      <trkpt lat="47.90696" lon="-1.7424">
        <ele>21</ele>
        <time>2015-06-07T06:00:52Z</time>
      </trkpt>
      <trkpt lat="47.90697" lon="-1.74247">
        <ele>21</ele>
        <time>2015-06-07T06:00:53Z</time>
      </trkpt>
      <trkpt lat="47.90698" lon="-1.74254">
        <ele>21</ele>
        <time>2015-06-07T06:00:54Z</time>
      </trkpt>
      <trkpt lat="47.90699" lon="-1.74261">
        <ele>21</ele>
        <time>2015-06-07T06:00:55Z</time>
      </trkpt>
      <trkpt lat="47.90699" lon="-1.74268">
        <ele>22</ele>
        <time>2015-06-07T06:00:56Z</time>
      </trkpt>
      <trkpt lat="47.907" lon="-1.74275">
        <ele>22</ele>
        <time>2015-06-07T06:00:57Z</time>
      </trkpt>
      <trkpt lat="47.90701" lon="-1.74282">
        <ele>22</ele>
        <time>2015-06-07T06:00:58Z</time>
      </trkpt>
      <trkpt lat="47.90701" lon="-1.74289">
        <ele>21</ele>
        <time>2015-06-07T06:00:59Z</time>
      </trkpt>
      <trkpt lat="47.90702" lon="-1.74296">
        <ele>21</ele>
        <time>2015-06-07T06:01:00Z</time>
      </trkpt>
      <trkpt lat="47.90702" lon="-1.74303">
        <ele>21</ele>
        <time>2015-06-07T06:01:01Z</time>
      </trkpt>
      <trkpt lat="47.90702" lon="-1.7431">
        <ele>21</ele>
        <time>2015-06-07T06:01:02Z</time>
      </trkpt>
      <trkpt lat="47.90702" lon="-1.74317">
        <ele>21</ele>
        <time>2015-06-07T06:01:03Z</time>
      </trkpt>
      <trkpt lat="47.90702" lon="-1.74323">
        <ele>21</ele>
        <time>2015-06-07T06:01:04Z</time>
      </trkpt>
      <trkpt lat="47.90702" lon="-1.7433">
        <ele>21</ele>
        <time>2015-06-07T06:01:05Z</time>
      </trkpt>
      <trkpt lat="47.90701" lon="-1.74337">
        <ele>20</ele>
        <time>2015-06-07T06:01:06Z</time>
      </trkpt>
      <trkpt lat="47.907" lon="-1.74345">
        <ele>20</ele>
        <time>2015-06-07T06:01:07Z</time>
      </trkpt>
      <trkpt lat="47.90701" lon="-1.74354">
        <ele>20</ele>
        <time>2015-06-07T06:01:08Z</time>
      </trkpt>
      <trkpt lat="47.90701" lon="-1.74363">
        <ele>20</ele>
        <time>2015-06-07T06:01:09Z</time>
      </trkpt>
      <trkpt lat="47.90702" lon="-1.74372">
        <ele>19</ele>
        <time>2015-06-07T06:01:10Z</time>
      </trkpt>
      <trkpt lat="47.90702" lon="-1.74382">
        <ele>19</ele>
        <time>2015-06-07T06:01:11Z</time>
      </trkpt>
      <trkpt lat="47.90702" lon="-1.74393">
        <ele>19</ele>
        <time>2015-06-07T06:01:12Z</time>
      </trkpt>
      <trkpt lat="47.90703" lon="-1.74403">
        <ele>18</ele>
        <time>2015-06-07T06:01:13Z</time>
      </trkpt>
      <trkpt lat="47.90705" lon="-1.74414">
        <ele>18</ele>
        <time>2015-06-07T06:01:14Z</time>
      </trkpt>
      <trkpt lat="47.90705" lon="-1.74424">
        <ele>17</ele>
        <time>2015-06-07T06:01:15Z</time>
      </trkpt>
      <trkpt lat="47.90705" lon="-1.74434">
        <ele>17</ele>
        <time>2015-06-07T06:01:16Z</time>
      </trkpt>
      <trkpt lat="47.90706" lon="-1.74444">
        <ele>17</ele>
        <time>2015-06-07T06:01:17Z</time>
      </trkpt>
      <trkpt lat="47.90707" lon="-1.74454">
        <ele>16</ele>
        <time>2015-06-07T06:01:18Z</time>
      </trkpt>
      <trkpt lat="47.90708" lon="-1.74463">
        <ele>16</ele>
        <time>2015-06-07T06:01:19Z</time>
      </trkpt>
      <trkpt lat="47.90708" lon="-1.74472">
        <ele>16</ele>
        <time>2015-06-07T06:01:20Z</time>
      </trkpt>
      <trkpt lat="47.90709" lon="-1.74482">
        <ele>15</ele>
        <time>2015-06-07T06:01:21Z</time>
      </trkpt>
      <trkpt lat="47.9071" lon="-1.74491">
        <ele>15</ele>
        <time>2015-06-07T06:01:22Z</time>
      </trkpt>
      <trkpt lat="47.90711" lon="-1.74501">
        <ele>14</ele>
        <time>2015-06-07T06:01:23Z</time>
      </trkpt>
      <trkpt lat="47.90711" lon="-1.7451">
        <ele>14</ele>
        <time>2015-06-07T06:01:24Z</time>
      </trkpt>
      <trkpt lat="47.90711" lon="-1.74519">
        <ele>14</ele>
        <time>2015-06-07T06:01:25Z</time>
      </trkpt>
      <trkpt lat="47.90711" lon="-1.74528">
        <ele>13</ele>
        <time>2015-06-07T06:01:26Z</time>
      </trkpt>
      <trkpt lat="47.90712" lon="-1.74538">
        <ele>13</ele>
        <time>2015-06-07T06:01:27Z</time>
      </trkpt>
      <trkpt lat="47.90712" lon="-1.74546">
        <ele>13</ele>
        <time>2015-06-07T06:01:28Z</time>
      </trkpt>
      <trkpt lat="47.90712" lon="-1.74555">
        <ele>12</ele>
        <time>2015-06-07T06:01:29Z</time>
      </trkpt>
      <trkpt lat="47.90713" lon="-1.74563">
        <ele>12</ele>
        <time>2015-06-07T06:01:30Z</time>
      </trkpt>
      <trkpt lat="47.90713" lon="-1.7457">
        <ele>12</ele>
        <time>2015-06-07T06:01:31Z</time>
      </trkpt>
      <trkpt lat="47.90714" lon="-1.74577">
        <ele>12</ele>
        <time>2015-06-07T06:01:32Z</time>
      </trkpt>
      <trkpt lat="47.90715" lon="-1.74584">
        <ele>12</ele>
        <time>2015-06-07T06:01:33Z</time>
      </trkpt>
      <trkpt lat="47.90717" lon="-1.7459">
        <ele>12</ele>
        <time>2015-06-07T06:01:34Z</time>
      </trkpt>
      <trkpt lat="47.90719" lon="-1.74594">
        <ele>12</ele>
        <time>2015-06-07T06:01:35Z</time>
      </trkpt>
      <trkpt lat="47.90721" lon="-1.74598">
        <ele>12</ele>
        <time>2015-06-07T06:01:36Z</time>
      </trkpt>
      <trkpt lat="47.90723" lon="-1.74602">
        <ele>12</ele>
        <time>2015-06-07T06:01:37Z</time>
      </trkpt>
      <trkpt lat="47.90725" lon="-1.74606">
        <ele>12</ele>
        <time>2015-06-07T06:01:38Z</time>
      </trkpt>
      <trkpt lat="47.90727" lon="-1.7461">
        <ele>12</ele>
        <time>2015-06-07T06:01:39Z</time>
      </trkpt>
      <trkpt lat="47.90728" lon="-1.74614">
        <ele>12</ele>
        <time>2015-06-07T06:01:40Z</time>
      </trkpt>
      <trkpt lat="47.9073" lon="-1.74617">
        <ele>12</ele>
        <time>2015-06-07T06:01:41Z</time>
      </trkpt>
      <trkpt lat="47.90732" lon="-1.74621">
        <ele>12</ele>
        <time>2015-06-07T06:01:42Z</time>
      </trkpt>
      <trkpt lat="47.90734" lon="-1.74626">
        <ele>12</ele>
        <time>2015-06-07T06:01:43Z</time>
      </trkpt>
      <trkpt lat="47.90736" lon="-1.7463">
        <ele>12</ele>
        <time>2015-06-07T06:01:44Z</time>
      </trkpt>
      <trkpt lat="47.90739" lon="-1.74636">
        <ele>13</ele>
        <time>2015-06-07T06:01:45Z</time>
      </trkpt>
      <trkpt lat="47.90741" lon="-1.7464">
        <ele>13</ele>
        <time>2015-06-07T06:01:46Z</time>
      </trkpt>
      <trkpt lat="47.90743" lon="-1.74645">
        <ele>13</ele>
        <time>2015-06-07T06:01:47Z</time>
      </trkpt>
      <trkpt lat="47.90745" lon="-1.7465">
        <ele>13</ele>
        <time>2015-06-07T06:01:48Z</time>
      </trkpt>
      <trkpt lat="47.90746" lon="-1.74655">
        <ele>13</ele>
        <time>2015-06-07T06:01:49Z</time>
      </trkpt>
      <trkpt lat="47.90748" lon="-1.7466">
        <ele>13</ele>
        <time>2015-06-07T06:01:50Z</time>
      </trkpt>
      <trkpt lat="47.9075" lon="-1.74665">
        <ele>13</ele>
        <time>2015-06-07T06:01:51Z</time>
      </trkpt>
      <trkpt lat="47.90751" lon="-1.74669">
        <ele>14</ele>
        <time>2015-06-07T06:01:52Z</time>
      </trkpt>
      <trkpt lat="47.90751" lon="-1.74673">
        <ele>14</ele>
        <time>2015-06-07T06:01:53Z</time>
      </trkpt>
      <trkpt lat="47.9075" lon="-1.74677">
        <ele>14</ele>
        <time>2015-06-07T06:01:54Z</time>
      </trkpt>
      <trkpt lat="47.90748" lon="-1.74681">
        <ele>14</ele>
        <time>2015-06-07T06:01:55Z</time>
      </trkpt>
      <trkpt lat="47.90746" lon="-1.74686">
        <ele>14</ele>
        <time>2015-06-07T06:01:56Z</time>
      </trkpt>
      <trkpt lat="47.90744" lon="-1.74691">
        <ele>14</ele>
        <time>2015-06-07T06:01:57Z</time>
      </trkpt>
      <trkpt lat="47.90742" lon="-1.74696">
        <ele>14</ele>
        <time>2015-06-07T06:01:58Z</time>
      </trkpt>
      <trkpt lat="47.9074" lon="-1.74702">
        <ele>14</ele>
        <time>2015-06-07T06:01:59Z</time>
      </trkpt>
      <trkpt lat="47.90739" lon="-1.74708">
        <ele>14</ele>
        <time>2015-06-07T06:02:00Z</time>
      </trkpt>
      <trkpt lat="47.90737" lon="-1.74714">
        <ele>14</ele>
        <time>2015-06-07T06:02:01Z</time>
      </trkpt>
      <trkpt lat="47.90735" lon="-1.7472">
        <ele>14</ele>
        <time>2015-06-07T06:02:02Z</time>
      </trkpt>
      <trkpt lat="47.90734" lon="-1.74726">
        <ele>14</ele>
        <time>2015-06-07T06:02:03Z</time>
      </trkpt>
      <trkpt lat="47.90732" lon="-1.74732">
        <ele>15</ele>
        <time>2015-06-07T06:02:04Z</time>
      </trkpt>
      <trkpt lat="47.90729" lon="-1.74738">
        <ele>15</ele>
        <time>2015-06-07T06:02:05Z</time>
      </trkpt>
      <trkpt lat="47.90728" lon="-1.74744">
        <ele>15</ele>
        <time>2015-06-07T06:02:06Z</time>
      </trkpt>
      <trkpt lat="47.90726" lon="-1.74749">
        <ele>15</ele>
        <time>2015-06-07T06:02:07Z</time>
      </trkpt>
      <trkpt lat="47.90724" lon="-1.74755">
        <ele>15</ele>
        <time>2015-06-07T06:02:08Z</time>
      </trkpt>
      <trkpt lat="47.90722" lon="-1.74762">
        <ele>15</ele>
        <time>2015-06-07T06:02:09Z</time>
      </trkpt>
      <trkpt lat="47.9072" lon="-1.74768">
        <ele>15</ele>
        <time>2015-06-07T06:02:10Z</time>
      </trkpt>
      <trkpt lat="47.90719" lon="-1.74774">
        <ele>16</ele>
        <time>2015-06-07T06:02:11Z</time>
      </trkpt>
      <trkpt lat="47.90717" lon="-1.7478">
        <ele>16</ele>
        <time>2015-06-07T06:02:12Z</time>
      </trkpt>
      <trkpt lat="47.90716" lon="-1.74787">
        <ele>16</ele>
        <time>2015-06-07T06:02:13Z</time>
      </trkpt>
      <trkpt lat="47.90714" lon="-1.74793">
        <ele>16</ele>
        <time>2015-06-07T06:02:14Z</time>
      </trkpt>
      <trkpt lat="47.90712" lon="-1.74799">
        <ele>16</ele>
        <time>2015-06-07T06:02:15Z</time>
      </trkpt>
      <trkpt lat="47.90711" lon="-1.74805">
        <ele>16</ele>
        <time>2015-06-07T06:02:16Z</time>
      </trkpt>
      <trkpt lat="47.90709" lon="-1.74811">
        <ele>16</ele>
        <time>2015-06-07T06:02:17Z</time>
      </trkpt>
      <trkpt lat="47.90708" lon="-1.74817">
        <ele>16</ele>
        <time>2015-06-07T06:02:18Z</time>
      </trkpt>
      <trkpt lat="47.90706" lon="-1.74823">
        <ele>16</ele>
        <time>2015-06-07T06:02:19Z</time>
      </trkpt>
      <trkpt lat="47.90704" lon="-1.74829">
        <ele>16</ele>
        <time>2015-06-07T06:02:20Z</time>
      </trkpt>
      <trkpt lat="47.90702" lon="-1.74835">
        <ele>16</ele>
        <time>2015-06-07T06:02:21Z</time>
      </trkpt>
      <trkpt lat="47.90699" lon="-1.7484">
        <ele>17</ele>
        <time>2015-06-07T06:02:22Z</time>
      </trkpt>
      <trkpt lat="47.90697" lon="-1.74846">
        <ele>17</ele>
        <time>2015-06-07T06:02:23Z</time>
      </trkpt>
      <trkpt lat="47.90695" lon="-1.74851">
        <ele>17</ele>
        <time>2015-06-07T06:02:24Z</time>
      </trkpt>
      <trkpt lat="47.90692" lon="-1.74856">
        <ele>17</ele>
        <time>2015-06-07T06:02:25Z</time>
      </trkpt>
      <trkpt lat="47.9069" lon="-1.74861">
        <ele>17</ele>
        <time>2015-06-07T06:02:26Z</time>
      </trkpt>
      <trkpt lat="47.90687" lon="-1.74866">
        <ele>17</ele>
        <time>2015-06-07T06:02:27Z</time>
      </trkpt>
      <trkpt lat="47.90685" lon="-1.74871">
        <ele>18</ele>
        <time>2015-06-07T06:02:28Z</time>
      </trkpt>
      <trkpt lat="47.90682" lon="-1.74876">
        <ele>18</ele>
        <time>2015-06-07T06:02:29Z</time>
      </trkpt>
      <trkpt lat="47.9068" lon="-1.74882">
        <ele>18</ele>
        <time>2015-06-07T06:02:30Z</time>
      </trkpt>
      <trkpt lat="47.90678" lon="-1.74887">
        <ele>18</ele>
        <time>2015-06-07T06:02:31Z</time>
      </trkpt>
      <trkpt lat="47.90676" lon="-1.74892">
        <ele>18</ele>
        <time>2015-06-07T06:02:32Z</time>
      </trkpt>
      <trkpt lat="47.90675" lon="-1.74898">
        <ele>18</ele>
        <time>2015-06-07T06:02:33Z</time>
      </trkpt>
      <trkpt lat="47.90673" lon="-1.74904">
        <ele>18</ele>
        <time>2015-06-07T06:02:34Z</time>
      </trkpt>
      <trkpt lat="47.90672" lon="-1.7491">
        <ele>18</ele>
        <time>2015-06-07T06:02:35Z</time>
      </trkpt>
      <trkpt lat="47.90671" lon="-1.74916">
        <ele>18</ele>
        <time>2015-06-07T06:02:36Z</time>
      </trkpt>
      <trkpt lat="47.9067" lon="-1.74923">
        <ele>19</ele>
        <time>2015-06-07T06:02:37Z</time>
      </trkpt>
      <trkpt lat="47.90669" lon="-1.74929">
        <ele>19</ele>
        <time>2015-06-07T06:02:38Z</time>
      </trkpt>
      <trkpt lat="47.90668" lon="-1.74936">
        <ele>19</ele>
        <time>2015-06-07T06:02:39Z</time>
      </trkpt>
      <trkpt lat="47.90668" lon="-1.74942">
        <ele>19</ele>
        <time>2015-06-07T06:02:40Z</time>
      </trkpt>
      <trkpt lat="47.90668" lon="-1.74949">
        <ele>19</ele>
        <time>2015-06-07T06:02:41Z</time>
      </trkpt>
      <trkpt lat="47.90667" lon="-1.74956">
        <ele>20</ele>
        <time>2015-06-07T06:02:42Z</time>
      </trkpt>
      <trkpt lat="47.90667" lon="-1.74963">
        <ele>20</ele>
        <time>2015-06-07T06:02:43Z</time>
      </trkpt>
      <trkpt lat="47.90666" lon="-1.7497">
        <ele>20</ele>
        <time>2015-06-07T06:02:44Z</time>
      </trkpt>
      <trkpt lat="47.90666" lon="-1.74976">
        <ele>20</ele>
        <time>2015-06-07T06:02:45Z</time>
      </trkpt>
      <trkpt lat="47.90666" lon="-1.74983">
        <ele>20</ele>
        <time>2015-06-07T06:02:46Z</time>
      </trkpt>
      <trkpt lat="47.90666" lon="-1.74989">
        <ele>20</ele>
        <time>2015-06-07T06:02:47Z</time>
      </trkpt>
      <trkpt lat="47.90665" lon="-1.74995">
        <ele>20</ele>
        <time>2015-06-07T06:02:48Z</time>
      </trkpt>
      <trkpt lat="47.90665" lon="-1.75002">
        <ele>21</ele>
        <time>2015-06-07T06:02:49Z</time>
      </trkpt>
      <trkpt lat="47.90665" lon="-1.75009">
        <ele>21</ele>
        <time>2015-06-07T06:02:50Z</time>
      </trkpt>
      <trkpt lat="47.90664" lon="-1.75016">
        <ele>21</ele>
        <time>2015-06-07T06:02:51Z</time>
      </trkpt>
      <trkpt lat="47.90664" lon="-1.75022">
        <ele>21</ele>
        <time>2015-06-07T06:02:52Z</time>
      </trkpt>
      <trkpt lat="47.90663" lon="-1.75029">
        <ele>21</ele>
        <time>2015-06-07T06:02:53Z</time>
      </trkpt>
      <trkpt lat="47.90662" lon="-1.75036">
        <ele>21</ele>
        <time>2015-06-07T06:02:54Z</time>
      </trkpt>
      <trkpt lat="47.90661" lon="-1.75043">
        <ele>21</ele>
        <time>2015-06-07T06:02:55Z</time>
      </trkpt>
      <trkpt lat="47.90659" lon="-1.75049">
        <ele>21</ele>
        <time>2015-06-07T06:02:56Z</time>
      </trkpt>
      <trkpt lat="47.90657" lon="-1.75055">
        <ele>21</ele>
        <time>2015-06-07T06:02:57Z</time>
      </trkpt>
      <trkpt lat="47.90655" lon="-1.75061">
        <ele>21</ele>
        <time>2015-06-07T06:02:58Z</time>
      </trkpt>
      <trkpt lat="47.90653" lon="-1.75068">
        <ele>21</ele>
        <time>2015-06-07T06:02:59Z</time>
      </trkpt>
      <trkpt lat="47.90651" lon="-1.75074">
        <ele>22</ele>
        <time>2015-06-07T06:03:00Z</time>
      </trkpt>
      <trkpt lat="47.90649" lon="-1.7508">
        <ele>22</ele>
        <time>2015-06-07T06:03:01Z</time>
      </trkpt>
      <trkpt lat="47.90646" lon="-1.75086">
        <ele>22</ele>
        <time>2015-06-07T06:03:02Z</time>
      </trkpt>
      <trkpt lat="47.90644" lon="-1.75093">
        <ele>22</ele>
        <time>2015-06-07T06:03:03Z</time>
      </trkpt>
      <trkpt lat="47.90642" lon="-1.75099">
        <ele>22</ele>
        <time>2015-06-07T06:03:04Z</time>
      </trkpt>
      <trkpt lat="47.90639" lon="-1.75105">
        <ele>22</ele>
        <time>2015-06-07T06:03:05Z</time>
      </trkpt>
      <trkpt lat="47.90637" lon="-1.75111">
        <ele>22</ele>
        <time>2015-06-07T06:03:06Z</time>
      </trkpt>
      <trkpt lat="47.90635" lon="-1.75117">
        <ele>22</ele>
        <time>2015-06-07T06:03:07Z</time>
      </trkpt>
      <trkpt lat="47.90633" lon="-1.75124">
        <ele>22</ele>
        <time>2015-06-07T06:03:08Z</time>
      </trkpt>
      <trkpt lat="47.90632" lon="-1.75131">
        <ele>22</ele>
        <time>2015-06-07T06:03:09Z</time>
      </trkpt>
      <trkpt lat="47.9063" lon="-1.75138">
        <ele>22</ele>
        <time>2015-06-07T06:03:10Z</time>
      </trkpt>
      <trkpt lat="47.90628" lon="-1.75145">
        <ele>22</ele>
        <time>2015-06-07T06:03:11Z</time>
      </trkpt>
      <trkpt lat="47.90626" lon="-1.75152">
        <ele>22</ele>
        <time>2015-06-07T06:03:12Z</time>
      </trkpt>
      <trkpt lat="47.90624" lon="-1.75159">
        <ele>22</ele>
        <time>2015-06-07T06:03:13Z</time>
      </trkpt>
      <trkpt lat="47.90623" lon="-1.75166">
        <ele>22</ele>
        <time>2015-06-07T06:03:14Z</time>
      </trkpt>
      <trkpt lat="47.90621" lon="-1.75172">
        <ele>22</ele>
        <time>2015-06-07T06:03:15Z</time>
      </trkpt>
      <trkpt lat="47.90619" lon="-1.75178">
        <ele>22</ele>
        <time>2015-06-07T06:03:16Z</time>
      </trkpt>
      <trkpt lat="47.90617" lon="-1.75184">
        <ele>22</ele>
        <time>2015-06-07T06:03:17Z</time>
      </trkpt>
      <trkpt lat="47.90615" lon="-1.7519">
        <ele>22</ele>
        <time>2015-06-07T06:03:18Z</time>
      </trkpt>
      <trkpt lat="47.90613" lon="-1.75195">
        <ele>22</ele>
        <time>2015-06-07T06:03:19Z</time>
      </trkpt>
      <trkpt lat="47.90611" lon="-1.752">
        <ele>22</ele>
        <time>2015-06-07T06:03:20Z</time>
      </trkpt>
      <trkpt lat="47.90609" lon="-1.75206">
        <ele>22</ele>
        <time>2015-06-07T06:03:21Z</time>
      </trkpt>
      <trkpt lat="47.90607" lon="-1.75212">
        <ele>22</ele>
        <time>2015-06-07T06:03:22Z</time>
      </trkpt>
      <trkpt lat="47.90604" lon="-1.75217">
        <ele>22</ele>
        <time>2015-06-07T06:03:23Z</time>
      </trkpt>
      <trkpt lat="47.90602" lon="-1.75224">
        <ele>22</ele>
        <time>2015-06-07T06:03:24Z</time>
      </trkpt>
      <trkpt lat="47.906" lon="-1.7523">
        <ele>22</ele>
        <time>2015-06-07T06:03:25Z</time>
      </trkpt>
      <trkpt lat="47.90597" lon="-1.75237">
        <ele>22</ele>
        <time>2015-06-07T06:03:26Z</time>
      </trkpt>
      <trkpt lat="47.90595" lon="-1.75243">
        <ele>22</ele>
        <time>2015-06-07T06:03:27Z</time>
      </trkpt>
      <trkpt lat="47.90592" lon="-1.7525">
        <ele>22</ele>
        <time>2015-06-07T06:03:28Z</time>
      </trkpt>
      <trkpt lat="47.9059" lon="-1.75256">
        <ele>22</ele>
        <time>2015-06-07T06:03:29Z</time>
      </trkpt>
      <trkpt lat="47.90587" lon="-1.75263">
        <ele>22</ele>
        <time>2015-06-07T06:03:30Z</time>
      </trkpt>
      <trkpt lat="47.90585" lon="-1.75269">
        <ele>22</ele>
        <time>2015-06-07T06:03:31Z</time>
      </trkpt>
      <trkpt lat="47.90583" lon="-1.75275">
        <ele>22</ele>
        <time>2015-06-07T06:03:32Z</time>
      </trkpt>
      <trkpt lat="47.9058" lon="-1.75282">
        <ele>22</ele>
        <time>2015-06-07T06:03:33Z</time>
      </trkpt>
      <trkpt lat="47.90578" lon="-1.75288">
        <ele>22</ele>
        <time>2015-06-07T06:03:34Z</time>
      </trkpt>
      <trkpt lat="47.90575" lon="-1.75294">
        <ele>22</ele>
        <time>2015-06-07T06:03:35Z</time>
      </trkpt>
      <trkpt lat="47.90573" lon="-1.75301">
        <ele>22</ele>
        <time>2015-06-07T06:03:36Z</time>
      </trkpt>
      <trkpt lat="47.9057" lon="-1.75308">
        <ele>22</ele>
        <time>2015-06-07T06:03:37Z</time>
      </trkpt>
      <trkpt lat="47.90568" lon="-1.75315">
        <ele>22</ele>
        <time>2015-06-07T06:03:38Z</time>
      </trkpt>
      <trkpt lat="47.90565" lon="-1.75322">
        <ele>22</ele>
        <time>2015-06-07T06:03:39Z</time>
      </trkpt>
      <trkpt lat="47.90563" lon="-1.75329">
        <ele>22</ele>
        <time>2015-06-07T06:03:40Z</time>
      </trkpt>
      <trkpt lat="47.90562" lon="-1.75336">
        <ele>22</ele>
        <time>2015-06-07T06:03:41Z</time>
      </trkpt>
      <trkpt lat="47.90563" lon="-1.75342">
        <ele>22</ele>
        <time>2015-06-07T06:03:42Z</time>
      </trkpt>
      <trkpt lat="47.90565" lon="-1.75346">
        <ele>22</ele>
        <time>2015-06-07T06:03:43Z</time>
      </trkpt>
      <trkpt lat="47.90568" lon="-1.75348">
        <ele>22</ele>
        <time>2015-06-07T06:03:44Z</time>
      </trkpt>
      <trkpt lat="47.90572" lon="-1.75348">
        <ele>22</ele>
        <time>2015-06-07T06:03:45Z</time>
      </trkpt>
      <trkpt lat="47.90576" lon="-1.75348">
        <ele>22</ele>
        <time>2015-06-07T06:03:46Z</time>
      </trkpt>
      <trkpt lat="47.9058" lon="-1.75347">
        <ele>22</ele>
        <time>2015-06-07T06:03:47Z</time>
      </trkpt>
      <trkpt lat="47.90584" lon="-1.75346">
        <ele>22</ele>
        <time>2015-06-07T06:03:48Z</time>
      </trkpt>
      <trkpt lat="47.90587" lon="-1.75346">
        <ele>22</ele>
        <time>2015-06-07T06:03:49Z</time>
      </trkpt>
      <trkpt lat="47.90591" lon="-1.75346">
        <ele>22</ele>
        <time>2015-06-07T06:03:50Z</time>
      </trkpt>
      <trkpt lat="47.90596" lon="-1.75346">
        <ele>22</ele>
        <time>2015-06-07T06:03:51Z</time>
      </trkpt>
      <trkpt lat="47.906" lon="-1.75346">
        <ele>22</ele>
        <time>2015-06-07T06:03:52Z</time>
      </trkpt>
      <trkpt lat="47.90604" lon="-1.75347">
        <ele>22</ele>
        <time>2015-06-07T06:03:53Z</time>
      </trkpt>
      <trkpt lat="47.90608" lon="-1.75347">
        <ele>23</ele>
        <time>2015-06-07T06:03:54Z</time>
      </trkpt>
      <trkpt lat="47.90612" lon="-1.75347">
        <ele>23</ele>
        <time>2015-06-07T06:03:55Z</time>
      </trkpt>
      <trkpt lat="47.90617" lon="-1.75348">
        <ele>23</ele>
        <time>2015-06-07T06:03:56Z</time>
      </trkpt>
      <trkpt lat="47.90621" lon="-1.75348">
        <ele>23</ele>
        <time>2015-06-07T06:03:57Z</time>
      </trkpt>
      <trkpt lat="47.90625" lon="-1.75348">
        <ele>23</ele>
        <time>2015-06-07T06:03:58Z</time>
      </trkpt>
      <trkpt lat="47.90629" lon="-1.75349">
        <ele>23</ele>
        <time>2015-06-07T06:03:59Z</time>
      </trkpt>
      <trkpt lat="47.90633" lon="-1.75349">
        <ele>23</ele>
        <time>2015-06-07T06:04:00Z</time>
      </trkpt>
      <trkpt lat="47.90636" lon="-1.7535">
        <ele>24</ele>
        <time>2015-06-07T06:04:01Z</time>
      </trkpt>
      <trkpt lat="47.9064" lon="-1.7535">
        <ele>24</ele>
        <time>2015-06-07T06:04:02Z</time>
      </trkpt>
      <trkpt lat="47.90644" lon="-1.75351">
        <ele>24</ele>
        <time>2015-06-07T06:04:03Z</time>
      </trkpt>
      <trkpt lat="47.90648" lon="-1.75351">
        <ele>24</ele>
        <time>2015-06-07T06:04:04Z</time>
      </trkpt>
      <trkpt lat="47.90652" lon="-1.75352">
        <ele>24</ele>
        <time>2015-06-07T06:04:05Z</time>
      </trkpt>
      <trkpt lat="47.90656" lon="-1.75352">
        <ele>24</ele>
        <time>2015-06-07T06:04:06Z</time>
      </trkpt>
      <trkpt lat="47.9066" lon="-1.75352">
        <ele>25</ele>
        <time>2015-06-07T06:04:07Z</time>
      </trkpt>
      <trkpt lat="47.90664" lon="-1.75352">
        <ele>25</ele>
        <time>2015-06-07T06:04:08Z</time>
      </trkpt>
      <trkpt lat="47.90668" lon="-1.75353">
        <ele>25</ele>
        <time>2015-06-07T06:04:09Z</time>
      </trkpt>
      <trkpt lat="47.90672" lon="-1.75353">
        <ele>25</ele>
        <time>2015-06-07T06:04:10Z</time>
      </trkpt>
      <trkpt lat="47.90676" lon="-1.75353">
        <ele>25</ele>
        <time>2015-06-07T06:04:11Z</time>
      </trkpt>
      <trkpt lat="47.90679" lon="-1.75354">
        <ele>26</ele>
        <time>2015-06-07T06:04:12Z</time>
      </trkpt>
      <trkpt lat="47.90683" lon="-1.75355">
        <ele>26</ele>
        <time>2015-06-07T06:04:13Z</time>
      </trkpt>
      <trkpt lat="47.90687" lon="-1.75355">
        <ele>26</ele>
        <time>2015-06-07T06:04:14Z</time>
      </trkpt>
      <trkpt lat="47.9069" lon="-1.75355">
        <ele>26</ele>
        <time>2015-06-07T06:04:15Z</time>
      </trkpt>
      <trkpt lat="47.90694" lon="-1.75356">
        <ele>27</ele>
        <time>2015-06-07T06:04:16Z</time>
      </trkpt>
      <trkpt lat="47.90698" lon="-1.75356">
        <ele>27</ele>
        <time>2015-06-07T06:04:17Z</time>
      </trkpt>
      <trkpt lat="47.90702" lon="-1.75356">
        <ele>27</ele>
        <time>2015-06-07T06:04:18Z</time>
      </trkpt>
      <trkpt lat="47.90705" lon="-1.75357">
        <ele>27</ele>
        <time>2015-06-07T06:04:19Z</time>
      </trkpt>
      <trkpt lat="47.90709" lon="-1.75357">
        <ele>28</ele>
        <time>2015-06-07T06:04:20Z</time>
      </trkpt>
      <trkpt lat="47.90713" lon="-1.75358">
        <ele>28</ele>
        <time>2015-06-07T06:04:21Z</time>
      </trkpt>
      <trkpt lat="47.90716" lon="-1.75358">
        <ele>28</ele>
        <time>2015-06-07T06:04:22Z</time>
      </trkpt>
      <trkpt lat="47.9072" lon="-1.75358">
        <ele>28</ele>
        <time>2015-06-07T06:04:23Z</time>
      </trkpt>
      <trkpt lat="47.90724" lon="-1.75358">
        <ele>29</ele>
        <time>2015-06-07T06:04:24Z</time>
      </trkpt>
      <trkpt lat="47.90728" lon="-1.75359">
        <ele>29</ele>
        <time>2015-06-07T06:04:25Z</time>
      </trkpt>
      <trkpt lat="47.90731" lon="-1.75359">
        <ele>29</ele>
        <time>2015-06-07T06:04:26Z</time>
      </trkpt>
      <trkpt lat="47.90735" lon="-1.75359">
        <ele>29</ele>
        <time>2015-06-07T06:04:27Z</time>
      </trkpt>
      <trkpt lat="47.90739" lon="-1.75359">
        <ele>30</ele>
        <time>2015-06-07T06:04:28Z</time>
      </trkpt>
      <trkpt lat="47.90743" lon="-1.7536">
        <ele>30</ele>
        <time>2015-06-07T06:04:29Z</time>
      </trkpt>
      <trkpt lat="47.90746" lon="-1.7536">
        <ele>30</ele>
        <time>2015-06-07T06:04:30Z</time>
      </trkpt>
      <trkpt lat="47.9075" lon="-1.7536">
        <ele>30</ele>
        <time>2015-06-07T06:04:31Z</time>
      </trkpt>
      <trkpt lat="47.90754" lon="-1.7536">
        <ele>30</ele>
        <time>2015-06-07T06:04:32Z</time>
      </trkpt>
      <trkpt lat="47.90758" lon="-1.75361">
        <ele>31</ele>
        <time>2015-06-07T06:04:33Z</time>
      </trkpt>
      <trkpt lat="47.90761" lon="-1.75361">
        <ele>31</ele>
        <time>2015-06-07T06:04:34Z</time>
      </trkpt>
      <trkpt lat="47.90765" lon="-1.75361">
        <ele>31</ele>
        <time>2015-06-07T06:04:35Z</time>
      </trkpt>
      <trkpt lat="47.90769" lon="-1.75362">
        <ele>31</ele>
        <time>2015-06-07T06:04:36Z</time>
      </trkpt>
      <trkpt lat="47.90773" lon="-1.75362">
        <ele>31</ele>
        <time>2015-06-07T06:04:37Z</time>
      </trkpt>
      <trkpt lat="47.90776" lon="-1.75362">
        <ele>31</ele>
        <time>2015-06-07T06:04:38Z</time>
      </trkpt>
      <trkpt lat="47.9078" lon="-1.75363">
        <ele>32</ele>
        <time>2015-06-07T06:04:39Z</time>
      </trkpt>
      <trkpt lat="47.90784" lon="-1.75363">
        <ele>32</ele>
        <time>2015-06-07T06:04:40Z</time>
      </trkpt>
      <trkpt lat="47.90787" lon="-1.75363">
        <ele>32</ele>
        <time>2015-06-07T06:04:41Z</time>
      </trkpt>
      <trkpt lat="47.90791" lon="-1.75364">
        <ele>32</ele>
        <time>2015-06-07T06:04:42Z</time>
      </trkpt>
      <trkpt lat="47.90795" lon="-1.75364">
        <ele>32</ele>
        <time>2015-06-07T06:04:43Z</time>
      </trkpt>
      <trkpt lat="47.90798" lon="-1.75365">
        <ele>32</ele>
        <time>2015-06-07T06:04:44Z</time>
      </trkpt>
      <trkpt lat="47.90802" lon="-1.75365">
        <ele>33</ele>
        <time>2015-06-07T06:04:45Z</time>
      </trkpt>
      <trkpt lat="47.90806" lon="-1.75365">
        <ele>33</ele>
        <time>2015-06-07T06:04:46Z</time>
      </trkpt>
      <trkpt lat="47.90809" lon="-1.75365">
        <ele>33</ele>
        <time>2015-06-07T06:04:47Z</time>
      </trkpt>
      <trkpt lat="47.90813" lon="-1.75365">
        <ele>33</ele>
        <time>2015-06-07T06:04:48Z</time>
      </trkpt>
      <trkpt lat="47.90816" lon="-1.75366">
        <ele>34</ele>
        <time>2015-06-07T06:04:49Z</time>
      </trkpt>
      <trkpt lat="47.9082" lon="-1.75366">
        <ele>34</ele>
        <time>2015-06-07T06:04:50Z</time>
      </trkpt>
      <trkpt lat="47.90823" lon="-1.75366">
        <ele>34</ele>
        <time>2015-06-07T06:04:51Z</time>
      </trkpt>
      <trkpt lat="47.90826" lon="-1.75366">
        <ele>34</ele>
        <time>2015-06-07T06:04:52Z</time>
      </trkpt>
      <trkpt lat="47.90829" lon="-1.75367">
        <ele>34</ele>
        <time>2015-06-07T06:04:53Z</time>
      </trkpt>
      <trkpt lat="47.90832" lon="-1.75368">
        <ele>35</ele>
        <time>2015-06-07T06:04:54Z</time>
      </trkpt>
      <trkpt lat="47.90835" lon="-1.75368">
        <ele>35</ele>
        <time>2015-06-07T06:04:55Z</time>
      </trkpt>
      <trkpt lat="47.90838" lon="-1.75369">
        <ele>35</ele>
        <time>2015-06-07T06:04:56Z</time>
      </trkpt>
      <trkpt lat="47.90841" lon="-1.7537">
        <ele>35</ele>
        <time>2015-06-07T06:04:57Z</time>
      </trkpt>
      <trkpt lat="47.90844" lon="-1.75373">
        <ele>36</ele>
        <time>2015-06-07T06:04:58Z</time>
      </trkpt>
      <trkpt lat="47.90845" lon="-1.75378">
        <ele>36</ele>
        <time>2015-06-07T06:04:59Z</time>
      </trkpt>
      <trkpt lat="47.90845" lon="-1.75382">
        <ele>36</ele>
        <time>2015-06-07T06:05:00Z</time>
      </trkpt>
      <trkpt lat="47.90843" lon="-1.75386">
        <ele>36</ele>
        <time>2015-06-07T06:05:01Z</time>
      </trkpt>
      <trkpt lat="47.90841" lon="-1.7539">
        <ele>36</ele>
        <time>2015-06-07T06:05:02Z</time>
      </trkpt>
      <trkpt lat="47.90838" lon="-1.75394">
        <ele>36</ele>
        <time>2015-06-07T06:05:03Z</time>
      </trkpt>
      <trkpt lat="47.90835" lon="-1.75398">
        <ele>36</ele>
        <time>2015-06-07T06:05:04Z</time>
      </trkpt>
      <trkpt lat="47.90832" lon="-1.75402">
        <ele>36</ele>
        <time>2015-06-07T06:05:05Z</time>
      </trkpt>
      <trkpt lat="47.90829" lon="-1.75406">
        <ele>36</ele>
        <time>2015-06-07T06:05:06Z</time>
      </trkpt>
      <trkpt lat="47.90827" lon="-1.7541">
        <ele>36</ele>
        <time>2015-06-07T06:05:07Z</time>
      </trkpt>
      <trkpt lat="47.90824" lon="-1.75415">
        <ele>36</ele>
        <time>2015-06-07T06:05:08Z</time>
      </trkpt>
      <trkpt lat="47.90822" lon="-1.75421">
        <ele>36</ele>
        <time>2015-06-07T06:05:09Z</time>
      </trkpt>
      <trkpt lat="47.9082" lon="-1.75426">
        <ele>36</ele>
        <time>2015-06-07T06:05:10Z</time>
      </trkpt>
      <trkpt lat="47.90818" lon="-1.75432">
        <ele>36</ele>
        <time>2015-06-07T06:05:11Z</time>
      </trkpt>
      <trkpt lat="47.90816" lon="-1.75438">
        <ele>36</ele>
        <time>2015-06-07T06:05:12Z</time>
      </trkpt>
      <trkpt lat="47.90814" lon="-1.75444">
        <ele>36</ele>
        <time>2015-06-07T06:05:13Z</time>
      </trkpt>
      <trkpt lat="47.90813" lon="-1.7545">
        <ele>36</ele>
        <time>2015-06-07T06:05:14Z</time>
      </trkpt>
      <trkpt lat="47.90811" lon="-1.75455">
        <ele>36</ele>
        <time>2015-06-07T06:05:15Z</time>
      </trkpt>
      <trkpt lat="47.9081" lon="-1.75461">
        <ele>36</ele>
        <time>2015-06-07T06:05:16Z</time>
      </trkpt>
      <trkpt lat="47.90809" lon="-1.75466">
        <ele>36</ele>
        <time>2015-06-07T06:05:17Z</time>
      </trkpt>
      <trkpt lat="47.90808" lon="-1.75471">
        <ele>37</ele>
        <time>2015-06-07T06:05:18Z</time>
      </trkpt>
      <trkpt lat="47.90806" lon="-1.75477">
        <ele>37</ele>
        <time>2015-06-07T06:05:19Z</time>
      </trkpt>
      <trkpt lat="47.90805" lon="-1.75482">
        <ele>37</ele>
        <time>2015-06-07T06:05:20Z</time>
      </trkpt>
      <trkpt lat="47.90804" lon="-1.75488">
        <ele>37</ele>
        <time>2015-06-07T06:05:21Z</time>
      </trkpt>
      <trkpt lat="47.90802" lon="-1.75494">
        <ele>37</ele>
        <time>2015-06-07T06:05:22Z</time>
      </trkpt>
      <trkpt lat="47.90801" lon="-1.755">
        <ele>37</ele>
        <time>2015-06-07T06:05:23Z</time>
      </trkpt>
      <trkpt lat="47.90799" lon="-1.75506">
        <ele>37</ele>
        <time>2015-06-07T06:05:24Z</time>
      </trkpt>
      <trkpt lat="47.90797" lon="-1.75512">
        <ele>36</ele>
        <time>2015-06-07T06:05:25Z</time>
      </trkpt>
      <trkpt lat="47.90795" lon="-1.75519">
        <ele>36</ele>
        <time>2015-06-07T06:05:26Z</time>
      </trkpt>
      <trkpt lat="47.90793" lon="-1.75526">
        <ele>36</ele>
        <time>2015-06-07T06:05:27Z</time>
      </trkpt>
      <trkpt lat="47.90791" lon="-1.75532">
        <ele>36</ele>
        <time>2015-06-07T06:05:28Z</time>
      </trkpt>
      <trkpt lat="47.90789" lon="-1.75539">
        <ele>36</ele>
        <time>2015-06-07T06:05:29Z</time>
      </trkpt>
      <trkpt lat="47.90786" lon="-1.75546">
        <ele>36</ele>
        <time>2015-06-07T06:05:30Z</time>
      </trkpt>
      <trkpt lat="47.90784" lon="-1.75552">
        <ele>36</ele>
        <time>2015-06-07T06:05:31Z</time>
      </trkpt>
      <trkpt lat="47.90781" lon="-1.75559">
        <ele>36</ele>
        <time>2015-06-07T06:05:32Z</time>
      </trkpt>
      <trkpt lat="47.90777" lon="-1.75566">
        <ele>35</ele>
        <time>2015-06-07T06:05:33Z</time>
      </trkpt>
      <trkpt lat="47.90774" lon="-1.75573">
        <ele>35</ele>
        <time>2015-06-07T06:05:34Z</time>
      </trkpt>
      <trkpt lat="47.90771" lon="-1.75581">
        <ele>35</ele>
        <time>2015-06-07T06:05:35Z</time>
      </trkpt>
      <trkpt lat="47.90768" lon="-1.7559">
        <ele>34</ele>
        <time>2015-06-07T06:05:36Z</time>
      </trkpt>
      <trkpt lat="47.90765" lon="-1.75598">
        <ele>34</ele>
        <time>2015-06-07T06:05:37Z</time>
      </trkpt>
      <trkpt lat="47.90763" lon="-1.75608">
        <ele>34</ele>
        <time>2015-06-07T06:05:38Z</time>
      </trkpt>
      <trkpt lat="47.9076" lon="-1.75617">
        <ele>33</ele>
        <time>2015-06-07T06:05:39Z</time>
      </trkpt>
      <trkpt lat="47.90757" lon="-1.75626">
        <ele>33</ele>
        <time>2015-06-07T06:05:40Z</time>
      </trkpt>
      <trkpt lat="47.90754" lon="-1.75636">
        <ele>33</ele>
        <time>2015-06-07T06:05:41Z</time>
      </trkpt>
      <trkpt lat="47.90751" lon="-1.75645">
        <ele>33</ele>
        <time>2015-06-07T06:05:42Z</time>
      </trkpt>
      <trkpt lat="47.90748" lon="-1.75654">
        <ele>32</ele>
        <time>2015-06-07T06:05:43Z</time>
      </trkpt>
      <trkpt lat="47.90746" lon="-1.75664">
        <ele>32</ele>
        <time>2015-06-07T06:05:44Z</time>
      </trkpt>
      <trkpt lat="47.90743" lon="-1.75674">
        <ele>32</ele>
        <time>2015-06-07T06:05:45Z</time>
      </trkpt>
      <trkpt lat="47.90741" lon="-1.75684">
        <ele>32</ele>
        <time>2015-06-07T06:05:46Z</time>
      </trkpt>
      <trkpt lat="47.9074" lon="-1.75693">
        <ele>32</ele>
        <time>2015-06-07T06:05:47Z</time>
      </trkpt>
      <trkpt lat="47.90739" lon="-1.75703">
        <ele>32</ele>
        <time>2015-06-07T06:05:48Z</time>
      </trkpt>
      <trkpt lat="47.90739" lon="-1.75712">
        <ele>32</ele>
        <time>2015-06-07T06:05:49Z</time>
      </trkpt>
      <trkpt lat="47.9074" lon="-1.7572">
        <ele>32</ele>
        <time>2015-06-07T06:05:50Z</time>
      </trkpt>
      <trkpt lat="47.9074" lon="-1.75728">
        <ele>32</ele>
        <time>2015-06-07T06:05:51Z</time>
      </trkpt>
      <trkpt lat="47.9074" lon="-1.75735">
        <ele>32</ele>
        <time>2015-06-07T06:05:52Z</time>
      </trkpt>
      <trkpt lat="47.9074" lon="-1.75743">
        <ele>32</ele>
        <time>2015-06-07T06:05:53Z</time>
      </trkpt>
      <trkpt lat="47.9074" lon="-1.7575">
        <ele>32</ele>
        <time>2015-06-07T06:05:54Z</time>
      </trkpt>
      <trkpt lat="47.9074" lon="-1.75758">
        <ele>32</ele>
        <time>2015-06-07T06:05:55Z</time>
      </trkpt>
      <trkpt lat="47.90739" lon="-1.75766">
        <ele>31</ele>
        <time>2015-06-07T06:05:56Z</time>
      </trkpt>
      <trkpt lat="47.90739" lon="-1.75773">
        <ele>31</ele>
        <time>2015-06-07T06:05:57Z</time>
      </trkpt>
      <trkpt lat="47.90739" lon="-1.75781">
        <ele>31</ele>
        <time>2015-06-07T06:05:58Z</time>
      </trkpt>
      <trkpt lat="47.90741" lon="-1.75788">
        <ele>31</ele>
        <time>2015-06-07T06:05:59Z</time>
      </trkpt>
      <trkpt lat="47.90742" lon="-1.75795">
        <ele>31</ele>
        <time>2015-06-07T06:06:00Z</time>
      </trkpt>
      <trkpt lat="47.90743" lon="-1.758">
        <ele>31</ele>
        <time>2015-06-07T06:06:01Z</time>
      </trkpt>
      <trkpt lat="47.90744" lon="-1.75806">
        <ele>31</ele>
        <time>2015-06-07T06:06:02Z</time>
      </trkpt>
      <trkpt lat="47.90746" lon="-1.75813">
        <ele>31</ele>
        <time>2015-06-07T06:06:03Z</time>
      </trkpt>
      <trkpt lat="47.90747" lon="-1.75821">
        <ele>31</ele>
        <time>2015-06-07T06:06:04Z</time>
      </trkpt>
      <trkpt lat="47.90749" lon="-1.75828">
        <ele>30</ele>
        <time>2015-06-07T06:06:05Z</time>
      </trkpt>
      <trkpt lat="47.90751" lon="-1.75836">
        <ele>30</ele>
        <time>2015-06-07T06:06:06Z</time>
      </trkpt>
      <trkpt lat="47.90752" lon="-1.75844">
        <ele>30</ele>
        <time>2015-06-07T06:06:07Z</time>
      </trkpt>
      <trkpt lat="47.90753" lon="-1.75852">
        <ele>30</ele>
        <time>2015-06-07T06:06:08Z</time>
      </trkpt>
      <trkpt lat="47.90754" lon="-1.75861">
        <ele>30</ele>
        <time>2015-06-07T06:06:09Z</time>
      </trkpt>
      <trkpt lat="47.90754" lon="-1.7587">
        <ele>30</ele>
        <time>2015-06-07T06:06:10Z</time>
      </trkpt>
      <trkpt lat="47.90754" lon="-1.7588">
        <ele>30</ele>
        <time>2015-06-07T06:06:11Z</time>
      </trkpt>
      <trkpt lat="47.90754" lon="-1.7589">
        <ele>29</ele>
        <time>2015-06-07T06:06:12Z</time>
      </trkpt>
      <trkpt lat="47.90753" lon="-1.75901">
        <ele>29</ele>
        <time>2015-06-07T06:06:13Z</time>
      </trkpt>
      <trkpt lat="47.90752" lon="-1.75912">
        <ele>29</ele>
        <time>2015-06-07T06:06:14Z</time>
      </trkpt>
      <trkpt lat="47.90753" lon="-1.75924">
        <ele>28</ele>
        <time>2015-06-07T06:06:15Z</time>
      </trkpt>
      <trkpt lat="47.90754" lon="-1.75935">
        <ele>28</ele>
        <time>2015-06-07T06:06:16Z</time>
      </trkpt>
      <trkpt lat="47.90756" lon="-1.75947">
        <ele>27</ele>
        <time>2015-06-07T06:06:17Z</time>
      </trkpt>
      <trkpt lat="47.90758" lon="-1.75959">
        <ele>27</ele>
        <time>2015-06-07T06:06:18Z</time>
      </trkpt>
      <trkpt lat="47.9076" lon="-1.7597">
        <ele>26</ele>
        <time>2015-06-07T06:06:19Z</time>
      </trkpt>
      <trkpt lat="47.90763" lon="-1.75981">
        <ele>26</ele>
        <time>2015-06-07T06:06:20Z</time>
      </trkpt>
      <trkpt lat="47.90767" lon="-1.75991">
        <ele>26</ele>
        <time>2015-06-07T06:06:21Z</time>
      </trkpt>
      <trkpt lat="47.90771" lon="-1.76001">
        <ele>25</ele>
        <time>2015-06-07T06:06:22Z</time>
      </trkpt>
      <trkpt lat="47.90775" lon="-1.76011">
        <ele>24</ele>
        <time>2015-06-07T06:06:23Z</time>
      </trkpt>
      <trkpt lat="47.90778" lon="-1.76022">
        <ele>24</ele>
        <time>2015-06-07T06:06:24Z</time>
      </trkpt>
      <trkpt lat="47.90781" lon="-1.76032">
        <ele>23</ele>
        <time>2015-06-07T06:06:25Z</time>
      </trkpt>
      <trkpt lat="47.90784" lon="-1.76042">
        <ele>23</ele>
        <time>2015-06-07T06:06:26Z</time>
      </trkpt>
      <trkpt lat="47.90788" lon="-1.76052">
        <ele>23</ele>
        <time>2015-06-07T06:06:27Z</time>
      </trkpt>
      <trkpt lat="47.90792" lon="-1.7606">
        <ele>22</ele>
        <time>2015-06-07T06:06:28Z</time>
      </trkpt>
      <trkpt lat="47.90798" lon="-1.76065">
        <ele>22</ele>
        <time>2015-06-07T06:06:29Z</time>
      </trkpt>
      <trkpt lat="47.90803" lon="-1.76071">
        <ele>22</ele>
        <time>2015-06-07T06:06:30Z</time>
      </trkpt>
      <trkpt lat="47.90808" lon="-1.76077">
        <ele>22</ele>
        <time>2015-06-07T06:06:31Z</time>
      </trkpt>
      <trkpt lat="47.90813" lon="-1.76083">
        <ele>22</ele>
        <time>2015-06-07T06:06:32Z</time>
      </trkpt>
      <trkpt lat="47.90818" lon="-1.76089">
        <ele>22</ele>
        <time>2015-06-07T06:06:33Z</time>
      </trkpt>
      <trkpt lat="47.90823" lon="-1.76094">
        <ele>22</ele>
        <time>2015-06-07T06:06:34Z</time>
      </trkpt>
      <trkpt lat="47.90828" lon="-1.76099">
        <ele>23</ele>
        <time>2015-06-07T06:06:35Z</time>
      </trkpt>
      <trkpt lat="47.90833" lon="-1.76104">
        <ele>23</ele>
        <time>2015-06-07T06:06:36Z</time>
      </trkpt>
      <trkpt lat="47.90837" lon="-1.76108">
        <ele>23</ele>
        <time>2015-06-07T06:06:37Z</time>
      </trkpt>
      <trkpt lat="47.90841" lon="-1.76112">
        <ele>23</ele>
        <time>2015-06-07T06:06:38Z</time>
      </trkpt>
      <trkpt lat="47.90844" lon="-1.76116">
        <ele>23</ele>
        <time>2015-06-07T06:06:39Z</time>
      </trkpt>
      <trkpt lat="47.90849" lon="-1.7612">
        <ele>23</ele>
        <time>2015-06-07T06:06:40Z</time>
      </trkpt>
      <trkpt lat="47.90852" lon="-1.76123">
        <ele>24</ele>
        <time>2015-06-07T06:06:41Z</time>
      </trkpt>
      <trkpt lat="47.90856" lon="-1.76127">
        <ele>24</ele>
        <time>2015-06-07T06:06:42Z</time>
      </trkpt>
      <trkpt lat="47.9086" lon="-1.7613">
        <ele>24</ele>
        <time>2015-06-07T06:06:43Z</time>
      </trkpt>
      <trkpt lat="47.90864" lon="-1.76132">
        <ele>24</ele>
        <time>2015-06-07T06:06:44Z</time>
      </trkpt>
      <trkpt lat="47.90868" lon="-1.76135">
        <ele>25</ele>
        <time>2015-06-07T06:06:45Z</time>
      </trkpt>
      <trkpt lat="47.90871" lon="-1.76137">
        <ele>25</ele>
        <time>2015-06-07T06:06:46Z</time>
      </trkpt>
      <trkpt lat="47.90875" lon="-1.7614">
        <ele>25</ele>
        <time>2015-06-07T06:06:47Z</time>
      </trkpt>
      <trkpt lat="47.90879" lon="-1.76142">
        <ele>25</ele>
        <time>2015-06-07T06:06:48Z</time>
      </trkpt>
      <trkpt lat="47.90882" lon="-1.76144">
        <ele>26</ele>
        <time>2015-06-07T06:06:49Z</time>
      </trkpt>
      <trkpt lat="47.90886" lon="-1.76146">
        <ele>26</ele>
        <time>2015-06-07T06:06:50Z</time>
      </trkpt>
      <trkpt lat="47.90889" lon="-1.76149">
        <ele>26</ele>
        <time>2015-06-07T06:06:51Z</time>
      </trkpt>
      <trkpt lat="47.90893" lon="-1.76151">
        <ele>27</ele>
        <time>2015-06-07T06:06:52Z</time>
      </trkpt>
      <trkpt lat="47.90897" lon="-1.76153">
        <ele>27</ele>
        <time>2015-06-07T06:06:53Z</time>
      </trkpt>
      <trkpt lat="47.909" lon="-1.76155">
        <ele>27</ele>
        <time>2015-06-07T06:06:54Z</time>
      </trkpt>
      <trkpt lat="47.90904" lon="-1.76157">
        <ele>28</ele>
        <time>2015-06-07T06:06:55Z</time>
      </trkpt>
      <trkpt lat="47.90907" lon="-1.7616">
        <ele>28</ele>
        <time>2015-06-07T06:06:56Z</time>
      </trkpt>
      <trkpt lat="47.90911" lon="-1.76162">
        <ele>28</ele>
        <time>2015-06-07T06:06:57Z</time>
      </trkpt>
      <trkpt lat="47.90914" lon="-1.76165">
        <ele>28</ele>
        <time>2015-06-07T06:06:58Z</time>
      </trkpt>
      <trkpt lat="47.90918" lon="-1.76167">
        <ele>29</ele>
        <time>2015-06-07T06:06:59Z</time>
      </trkpt>
      <trkpt lat="47.90921" lon="-1.7617">
        <ele>29</ele>
        <time>2015-06-07T06:07:00Z</time>
      </trkpt>
      <trkpt lat="47.90925" lon="-1.76173">
        <ele>29</ele>
        <time>2015-06-07T06:07:01Z</time>
      </trkpt>
      <trkpt lat="47.90928" lon="-1.76176">
        <ele>29</ele>
        <time>2015-06-07T06:07:02Z</time>
      </trkpt>
      <trkpt lat="47.90932" lon="-1.76179">
        <ele>29</ele>
        <time>2015-06-07T06:07:03Z</time>
      </trkpt>
      <trkpt lat="47.90935" lon="-1.76182">
        <ele>29</ele>
        <time>2015-06-07T06:07:04Z</time>
      </trkpt>
      <trkpt lat="47.90939" lon="-1.76185">
        <ele>29</ele>
        <time>2015-06-07T06:07:05Z</time>
      </trkpt>
      <trkpt lat="47.90943" lon="-1.76186">
        <ele>29</ele>
        <time>2015-06-07T06:07:06Z</time>
      </trkpt>
      <trkpt lat="47.90947" lon="-1.76188">
        <ele>29</ele>
        <time>2015-06-07T06:07:07Z</time>
      </trkpt>
      <trkpt lat="47.9095" lon="-1.76188">
        <ele>30</ele>
        <time>2015-06-07T06:07:08Z</time>
      </trkpt>
      <trkpt lat="47.90954" lon="-1.76189">
        <ele>30</ele>
        <time>2015-06-07T06:07:09Z</time>
      </trkpt>
      <trkpt lat="47.90958" lon="-1.76189">
        <ele>30</ele>
        <time>2015-06-07T06:07:10Z</time>
      </trkpt>
      <trkpt lat="47.90962" lon="-1.7619">
        <ele>30</ele>
        <time>2015-06-07T06:07:11Z</time>
      </trkpt>
      <trkpt lat="47.90965" lon="-1.7619">
        <ele>30</ele>
        <time>2015-06-07T06:07:12Z</time>
      </trkpt>
      <trkpt lat="47.9097" lon="-1.76192">
        <ele>30</ele>
        <time>2015-06-07T06:07:13Z</time>
      </trkpt>
      <trkpt lat="47.90973" lon="-1.76192">
        <ele>31</ele>
        <time>2015-06-07T06:07:14Z</time>
      </trkpt>
      <trkpt lat="47.90977" lon="-1.76193">
        <ele>31</ele>
        <time>2015-06-07T06:07:15Z</time>
      </trkpt>
      <trkpt lat="47.90981" lon="-1.76195">
        <ele>31</ele>
        <time>2015-06-07T06:07:16Z</time>
      </trkpt>
      <trkpt lat="47.90984" lon="-1.76196">
        <ele>31</ele>
        <time>2015-06-07T06:07:17Z</time>
      </trkpt>
      <trkpt lat="47.90988" lon="-1.76198">
        <ele>31</ele>
        <time>2015-06-07T06:07:18Z</time>
      </trkpt>
      <trkpt lat="47.90992" lon="-1.76199">
        <ele>32</ele>
        <time>2015-06-07T06:07:19Z</time>
      </trkpt>
      <trkpt lat="47.90996" lon="-1.76202">
        <ele>32</ele>
        <time>2015-06-07T06:07:20Z</time>
      </trkpt>
      <trkpt lat="47.91" lon="-1.76204">
        <ele>32</ele>
        <time>2015-06-07T06:07:21Z</time>
      </trkpt>
      <trkpt lat="47.91003" lon="-1.76206">
        <ele>32</ele>
        <time>2015-06-07T06:07:22Z</time>
      </trkpt>
      <trkpt lat="47.91007" lon="-1.76209">
        <ele>32</ele>
        <time>2015-06-07T06:07:23Z</time>
      </trkpt>
      <trkpt lat="47.91011" lon="-1.76212">
        <ele>32</ele>
        <time>2015-06-07T06:07:24Z</time>
      </trkpt>
      <trkpt lat="47.91014" lon="-1.76215">
        <ele>32</ele>
        <time>2015-06-07T06:07:25Z</time>
      </trkpt>
      <trkpt lat="47.91018" lon="-1.76218">
        <ele>32</ele>
        <time>2015-06-07T06:07:26Z</time>
      </trkpt>
      <trkpt lat="47.91022" lon="-1.76222">
        <ele>32</ele>
        <time>2015-06-07T06:07:27Z</time>
      </trkpt>
      <trkpt lat="47.91026" lon="-1.76225">
        <ele>32</ele>
        <time>2015-06-07T06:07:28Z</time>
      </trkpt>
      <trkpt lat="47.9103" lon="-1.76228">
        <ele>33</ele>
        <time>2015-06-07T06:07:29Z</time>
      </trkpt>
      <trkpt lat="47.91033" lon="-1.76232">
        <ele>33</ele>
        <time>2015-06-07T06:07:30Z</time>
      </trkpt>
      <trkpt lat="47.91037" lon="-1.76235">
        <ele>33</ele>
        <time>2015-06-07T06:07:31Z</time>
      </trkpt>
      <trkpt lat="47.91041" lon="-1.76239">
        <ele>33</ele>
        <time>2015-06-07T06:07:32Z</time>
      </trkpt>
      <trkpt lat="47.91045" lon="-1.76243">
        <ele>33</ele>
        <time>2015-06-07T06:07:33Z</time>
      </trkpt>
      <trkpt lat="47.91049" lon="-1.76247">
        <ele>33</ele>
        <time>2015-06-07T06:07:34Z</time>
      </trkpt>
      <trkpt lat="47.91052" lon="-1.76251">
        <ele>33</ele>
        <time>2015-06-07T06:07:35Z</time>
      </trkpt>
      <trkpt lat="47.91056" lon="-1.76254">
        <ele>33</ele>
        <time>2015-06-07T06:07:36Z</time>
      </trkpt>
      <trkpt lat="47.9106" lon="-1.76258">
        <ele>33</ele>
        <time>2015-06-07T06:07:37Z</time>
      </trkpt>
      <trkpt lat="47.91064" lon="-1.76262">
        <ele>33</ele>
        <time>2015-06-07T06:07:38Z</time>
      </trkpt>
      <trkpt lat="47.91068" lon="-1.76267">
        <ele>33</ele>
        <time>2015-06-07T06:07:39Z</time>
      </trkpt>
      <trkpt lat="47.91072" lon="-1.76271">
        <ele>33</ele>
        <time>2015-06-07T06:07:40Z</time>
      </trkpt>
      <trkpt lat="47.91076" lon="-1.76274">
        <ele>33</ele>
        <time>2015-06-07T06:07:41Z</time>
      </trkpt>
      <trkpt lat="47.91079" lon="-1.76278">
        <ele>32</ele>
        <time>2015-06-07T06:07:42Z</time>
      </trkpt>
      <trkpt lat="47.91083" lon="-1.76282">
        <ele>32</ele>
        <time>2015-06-07T06:07:43Z</time>
      </trkpt>
      <trkpt lat="47.91087" lon="-1.76286">
        <ele>32</ele>
        <time>2015-06-07T06:07:44Z</time>
      </trkpt>
      <trkpt lat="47.9109" lon="-1.76289">
        <ele>32</ele>
        <time>2015-06-07T06:07:45Z</time>
      </trkpt>
      <trkpt lat="47.91094" lon="-1.76293">
        <ele>32</ele>
        <time>2015-06-07T06:07:46Z</time>
      </trkpt>
      <trkpt lat="47.91098" lon="-1.76297">
        <ele>32</ele>
        <time>2015-06-07T06:07:47Z</time>
      </trkpt>
      <trkpt lat="47.91102" lon="-1.76301">
        <ele>32</ele>
        <time>2015-06-07T06:07:48Z</time>
      </trkpt>
      <trkpt lat="47.91106" lon="-1.76305">
        <ele>32</ele>
        <time>2015-06-07T06:07:49Z</time>
      </trkpt>
      <trkpt lat="47.9111" lon="-1.76308">
        <ele>32</ele>
        <time>2015-06-07T06:07:50Z</time>
      </trkpt>
      <trkpt lat="47.91115" lon="-1.76312">
        <ele>32</ele>
        <time>2015-06-07T06:07:51Z</time>
      </trkpt>
      <trkpt lat="47.91119" lon="-1.76315">
        <ele>32</ele>
        <time>2015-06-07T06:07:52Z</time>
      </trkpt>
      <trkpt lat="47.91122" lon="-1.76318">
        <ele>32</ele>
        <time>2015-06-07T06:07:53Z</time>
      </trkpt>
      <trkpt lat="47.91127" lon="-1.7632">
        <ele>32</ele>
        <time>2015-06-07T06:07:54Z</time>
      </trkpt>
      <trkpt lat="47.91131" lon="-1.76323">
        <ele>32</ele>
        <time>2015-06-07T06:07:55Z</time>
      </trkpt>
      <trkpt lat="47.91135" lon="-1.76325">
        <ele>32</ele>
        <time>2015-06-07T06:07:56Z</time>
      </trkpt>
      <trkpt lat="47.9114" lon="-1.76327">
        <ele>32</ele>
        <time>2015-06-07T06:07:57Z</time>
      </trkpt>
      <trkpt lat="47.91144" lon="-1.76329">
        <ele>32</ele>
        <time>2015-06-07T06:07:58Z</time>
      </trkpt>
      <trkpt lat="47.91149" lon="-1.7633">
        <ele>32</ele>
        <time>2015-06-07T06:07:59Z</time>
      </trkpt>
      <trkpt lat="47.91153" lon="-1.76332">
        <ele>32</ele>
        <time>2015-06-07T06:08:00Z</time>
      </trkpt>
      <trkpt lat="47.91158" lon="-1.76334">
        <ele>32</ele>
        <time>2015-06-07T06:08:01Z</time>
      </trkpt>
      <trkpt lat="47.91162" lon="-1.76336">
        <ele>31</ele>
        <time>2015-06-07T06:08:02Z</time>
      </trkpt>
      <trkpt lat="47.91167" lon="-1.76337">
        <ele>31</ele>
        <time>2015-06-07T06:08:03Z</time>
      </trkpt>
      <trkpt lat="47.91172" lon="-1.76338">
        <ele>31</ele>
        <time>2015-06-07T06:08:04Z</time>
      </trkpt>
      <trkpt lat="47.91176" lon="-1.76339">
        <ele>31</ele>
        <time>2015-06-07T06:08:05Z</time>
      </trkpt>
      <trkpt lat="47.91181" lon="-1.7634">
        <ele>31</ele>
        <time>2015-06-07T06:08:06Z</time>
      </trkpt>
      <trkpt lat="47.91185" lon="-1.7634">
        <ele>31</ele>
        <time>2015-06-07T06:08:07Z</time>
      </trkpt>
      <trkpt lat="47.91189" lon="-1.76341">
        <ele>31</ele>
        <time>2015-06-07T06:08:08Z</time>
      </trkpt>
      <trkpt lat="47.91194" lon="-1.76342">
        <ele>32</ele>
        <time>2015-06-07T06:08:09Z</time>
      </trkpt>
      <trkpt lat="47.91198" lon="-1.76343">
        <ele>32</ele>
        <time>2015-06-07T06:08:10Z</time>
      </trkpt>
      <trkpt lat="47.91203" lon="-1.76343">
        <ele>32</ele>
        <time>2015-06-07T06:08:11Z</time>
      </trkpt>
      <trkpt lat="47.91208" lon="-1.76345">
        <ele>32</ele>
        <time>2015-06-07T06:08:12Z</time>
      </trkpt>
      <trkpt lat="47.91212" lon="-1.76345">
        <ele>32</ele>
        <time>2015-06-07T06:08:13Z</time>
      </trkpt>
      <trkpt lat="47.91217" lon="-1.76346">
        <ele>32</ele>
        <time>2015-06-07T06:08:14Z</time>
      </trkpt>
      <trkpt lat="47.91221" lon="-1.76347">
        <ele>32</ele>
        <time>2015-06-07T06:08:15Z</time>
      </trkpt>
      <trkpt lat="47.91226" lon="-1.76348">
        <ele>32</ele>
        <time>2015-06-07T06:08:16Z</time>
      </trkpt>
      <trkpt lat="47.9123" lon="-1.76348">
        <ele>32</ele>
        <time>2015-06-07T06:08:17Z</time>
      </trkpt>
      <trkpt lat="47.91234" lon="-1.76349">
        <ele>32</ele>
        <time>2015-06-07T06:08:18Z</time>
      </trkpt>
      <trkpt lat="47.91238" lon="-1.7635">
        <ele>32</ele>
        <time>2015-06-07T06:08:19Z</time>
      </trkpt>
      <trkpt lat="47.91242" lon="-1.76351">
        <ele>32</ele>
        <time>2015-06-07T06:08:20Z</time>
      </trkpt>
      <trkpt lat="47.91247" lon="-1.76352">
        <ele>32</ele>
        <time>2015-06-07T06:08:21Z</time>
      </trkpt>
      <trkpt lat="47.91251" lon="-1.76352">
        <ele>32</ele>
        <time>2015-06-07T06:08:22Z</time>
      </trkpt>
      <trkpt lat="47.91255" lon="-1.76353">
        <ele>33</ele>
        <time>2015-06-07T06:08:23Z</time>
      </trkpt>
      <trkpt lat="47.91259" lon="-1.76351">
        <ele>33</ele>
        <time>2015-06-07T06:08:24Z</time>
      </trkpt>
      <trkpt lat="47.91261" lon="-1.76348">
        <ele>33</ele>
        <time>2015-06-07T06:08:25Z</time>
      </trkpt>
      <trkpt lat="47.91263" lon="-1.76343">
        <ele>33</ele>
        <time>2015-06-07T06:08:26Z</time>
      </trkpt>
      <trkpt lat="47.91264" lon="-1.76338">
        <ele>33</ele>
        <time>2015-06-07T06:08:27Z</time>
      </trkpt>
      <trkpt lat="47.91266" lon="-1.76332">
        <ele>33</ele>
        <time>2015-06-07T06:08:28Z</time>
      </trkpt>
      <trkpt lat="47.91267" lon="-1.76326">
        <ele>33</ele>
        <time>2015-06-07T06:08:29Z</time>
      </trkpt>
      <trkpt lat="47.91269" lon="-1.7632">
        <ele>33</ele>
        <time>2015-06-07T06:08:30Z</time>
      </trkpt>
      <trkpt lat="47.9127" lon="-1.76314">
        <ele>33</ele>
        <time>2015-06-07T06:08:31Z</time>
      </trkpt>
      <trkpt lat="47.91272" lon="-1.76308">
        <ele>33</ele>
        <time>2015-06-07T06:08:32Z</time>
      </trkpt>
      <trkpt lat="47.91273" lon="-1.76303">
        <ele>33</ele>
        <time>2015-06-07T06:08:33Z</time>
      </trkpt>
      <trkpt lat="47.91275" lon="-1.76297">
        <ele>33</ele>
        <time>2015-06-07T06:08:34Z</time>
      </trkpt>
      <trkpt lat="47.91277" lon="-1.76291">
        <ele>33</ele>
        <time>2015-06-07T06:08:35Z</time>
      </trkpt>
      <trkpt lat="47.91279" lon="-1.76287">
        <ele>33</ele>
        <time>2015-06-07T06:08:36Z</time>
      </trkpt>
      <trkpt lat="47.91281" lon="-1.76281">
        <ele>33</ele>
        <time>2015-06-07T06:08:37Z</time>
      </trkpt>
      <trkpt lat="47.91283" lon="-1.76277">
        <ele>33</ele>
        <time>2015-06-07T06:08:38Z</time>
      </trkpt>
      <trkpt lat="47.91285" lon="-1.76273">
        <ele>33</ele>
        <time>2015-06-07T06:08:39Z</time>
      </trkpt>
      <trkpt lat="47.91287" lon="-1.76269">
        <ele>33</ele>
        <time>2015-06-07T06:08:40Z</time>
      </trkpt>
      <trkpt lat="47.91289" lon="-1.76266">
        <ele>33</ele>
        <time>2015-06-07T06:08:41Z</time>
      </trkpt>
      <trkpt lat="47.91292" lon="-1.76262">
        <ele>34</ele>
        <time>2015-06-07T06:08:42Z</time>
      </trkpt>
      <trkpt lat="47.91294" lon="-1.76258">
        <ele>34</ele>
        <time>2015-06-07T06:08:43Z</time>
      </trkpt>
      <trkpt lat="47.91296" lon="-1.76254">
        <ele>34</ele>
        <time>2015-06-07T06:08:44Z</time>
      </trkpt>
      <trkpt lat="47.91299" lon="-1.7625">
        <ele>34</ele>
        <time>2015-06-07T06:08:45Z</time>
      </trkpt>
      <trkpt lat="47.91301" lon="-1.76246">
        <ele>35</ele>
        <time>2015-06-07T06:08:46Z</time>
      </trkpt>
      <trkpt lat="47.91303" lon="-1.76241">
        <ele>35</ele>
        <time>2015-06-07T06:08:47Z</time>
      </trkpt>
      <trkpt lat="47.91305" lon="-1.76236">
        <ele>35</ele>
        <time>2015-06-07T06:08:48Z</time>
      </trkpt>
      <trkpt lat="47.91306" lon="-1.76229">
        <ele>35</ele>
        <time>2015-06-07T06:08:49Z</time>
      </trkpt>
      <trkpt lat="47.91307" lon="-1.76223">
        <ele>35</ele>
        <time>2015-06-07T06:08:50Z</time>
      </trkpt>
      <trkpt lat="47.91308" lon="-1.76217">
        <ele>35</ele>
        <time>2015-06-07T06:08:51Z</time>
      </trkpt>
      <trkpt lat="47.91309" lon="-1.76211">
        <ele>35</ele>
        <time>2015-06-07T06:08:52Z</time>
      </trkpt>
      <trkpt lat="47.9131" lon="-1.76205">
        <ele>35</ele>
        <time>2015-06-07T06:08:53Z</time>
      </trkpt>
      <trkpt lat="47.91311" lon="-1.76199">
        <ele>36</ele>
        <time>2015-06-07T06:08:54Z</time>
      </trkpt>
      <trkpt lat="47.91312" lon="-1.76194">
        <ele>36</ele>
        <time>2015-06-07T06:08:55Z</time>
      </trkpt>
      <trkpt lat="47.91312" lon="-1.76188">
        <ele>36</ele>
        <time>2015-06-07T06:08:56Z</time>
      </trkpt>
      <trkpt lat="47.91312" lon="-1.76183">
        <ele>36</ele>
        <time>2015-06-07T06:08:57Z</time>
      </trkpt>
      <trkpt lat="47.91312" lon="-1.76177">
        <ele>36</ele>
        <time>2015-06-07T06:08:58Z</time>
      </trkpt>
      <trkpt lat="47.91311" lon="-1.76172">
        <ele>37</ele>
        <time>2015-06-07T06:08:59Z</time>
      </trkpt>
      <trkpt lat="47.9131" lon="-1.76166">
        <ele>37</ele>
        <time>2015-06-07T06:09:00Z</time>
      </trkpt>
      <trkpt lat="47.9131" lon="-1.76161">
        <ele>37</ele>
        <time>2015-06-07T06:09:01Z</time>
      </trkpt>
      <trkpt lat="47.91309" lon="-1.76156">
        <ele>37</ele>
        <time>2015-06-07T06:09:02Z</time>
      </trkpt>
      <trkpt lat="47.91308" lon="-1.7615">
        <ele>37</ele>
        <time>2015-06-07T06:09:03Z</time>
      </trkpt>
      <trkpt lat="47.91307" lon="-1.76145">
        <ele>37</ele>
        <time>2015-06-07T06:09:04Z</time>
      </trkpt>
      <trkpt lat="47.91306" lon="-1.7614">
        <ele>38</ele>
        <time>2015-06-07T06:09:05Z</time>
      </trkpt>
      <trkpt lat="47.91305" lon="-1.76134">
        <ele>38</ele>
        <time>2015-06-07T06:09:06Z</time>
      </trkpt>
      <trkpt lat="47.91305" lon="-1.76129">
        <ele>38</ele>
        <time>2015-06-07T06:09:07Z</time>
      </trkpt>
      <trkpt lat="47.91305" lon="-1.76123">
        <ele>38</ele>
        <time>2015-06-07T06:09:08Z</time>
      </trkpt>
      <trkpt lat="47.91305" lon="-1.76118">
        <ele>39</ele>
        <time>2015-06-07T06:09:09Z</time>
      </trkpt>
      <trkpt lat="47.91306" lon="-1.76112">
        <ele>39</ele>
        <time>2015-06-07T06:09:10Z</time>
      </trkpt>
      <trkpt lat="47.91306" lon="-1.76107">
        <ele>39</ele>
        <time>2015-06-07T06:09:11Z</time>
      </trkpt>
      <trkpt lat="47.91307" lon="-1.76102">
        <ele>39</ele>
        <time>2015-06-07T06:09:12Z</time>
      </trkpt>
      <trkpt lat="47.91307" lon="-1.76097">
        <ele>40</ele>
        <time>2015-06-07T06:09:13Z</time>
      </trkpt>
      <trkpt lat="47.91306" lon="-1.76092">
        <ele>40</ele>
        <time>2015-06-07T06:09:14Z</time>
      </trkpt>
      <trkpt lat="47.91306" lon="-1.76087">
        <ele>40</ele>
        <time>2015-06-07T06:09:15Z</time>
      </trkpt>
      <trkpt lat="47.91306" lon="-1.76081">
        <ele>40</ele>
        <time>2015-06-07T06:09:16Z</time>
      </trkpt>
      <trkpt lat="47.91306" lon="-1.76076">
        <ele>40</ele>
        <time>2015-06-07T06:09:17Z</time>
      </trkpt>
      <trkpt lat="47.91306" lon="-1.7607">
        <ele>40</ele>
        <time>2015-06-07T06:09:18Z</time>
      </trkpt>
      <trkpt lat="47.91306" lon="-1.76064">
        <ele>41</ele>
        <time>2015-06-07T06:09:19Z</time>
      </trkpt>
      <trkpt lat="47.91306" lon="-1.76059">
        <ele>41</ele>
        <time>2015-06-07T06:09:20Z</time>
      </trkpt>
      <trkpt lat="47.91306" lon="-1.76052">
        <ele>41</ele>
        <time>2015-06-07T06:09:21Z</time>
      </trkpt>
      <trkpt lat="47.91306" lon="-1.76046">
        <ele>41</ele>
        <time>2015-06-07T06:09:22Z</time>
      </trkpt>
      <trkpt lat="47.91306" lon="-1.7604">
        <ele>41</ele>
        <time>2015-06-07T06:09:23Z</time>
      </trkpt>
      <trkpt lat="47.91306" lon="-1.76034">
        <ele>41</ele>
        <time>2015-06-07T06:09:24Z</time>
      </trkpt>
      <trkpt lat="47.91307" lon="-1.76027">
        <ele>41</ele>
        <time>2015-06-07T06:09:25Z</time>
      </trkpt>
      <trkpt lat="47.91306" lon="-1.76021">
        <ele>41</ele>
        <time>2015-06-07T06:09:26Z</time>
      </trkpt>
      <trkpt lat="47.91306" lon="-1.76014">
        <ele>42</ele>
        <time>2015-06-07T06:09:27Z</time>
      </trkpt>
      <trkpt lat="47.91306" lon="-1.76006">
        <ele>42</ele>
        <time>2015-06-07T06:09:28Z</time>
      </trkpt>
      <trkpt lat="47.91306" lon="-1.76">
        <ele>41</ele>
        <time>2015-06-07T06:09:29Z</time>
      </trkpt>
      <trkpt lat="47.91305" lon="-1.75994">
        <ele>41</ele>
        <time>2015-06-07T06:09:30Z</time>
      </trkpt>
      <trkpt lat="47.91304" lon="-1.75987">
        <ele>41</ele>
        <time>2015-06-07T06:09:31Z</time>
      </trkpt>
      <trkpt lat="47.91303" lon="-1.7598">
        <ele>41</ele>
        <time>2015-06-07T06:09:32Z</time>
      </trkpt>
      <trkpt lat="47.91302" lon="-1.75973">
        <ele>41</ele>
        <time>2015-06-07T06:09:33Z</time>
      </trkpt>
      <trkpt lat="47.91301" lon="-1.75966">
        <ele>41</ele>
        <time>2015-06-07T06:09:34Z</time>
      </trkpt>
      <trkpt lat="47.913" lon="-1.75959">
        <ele>42</ele>
        <time>2015-06-07T06:09:35Z</time>
      </trkpt>
      <trkpt lat="47.91299" lon="-1.75952">
        <ele>42</ele>
        <time>2015-06-07T06:09:36Z</time>
      </trkpt>
      <trkpt lat="47.91298" lon="-1.75946">
        <ele>42</ele>
        <time>2015-06-07T06:09:37Z</time>
      </trkpt>
      <trkpt lat="47.91298" lon="-1.7594">
        <ele>42</ele>
        <time>2015-06-07T06:09:38Z</time>
      </trkpt>
      <trkpt lat="47.91297" lon="-1.75933">
        <ele>42</ele>
        <time>2015-06-07T06:09:39Z</time>
      </trkpt>
      <trkpt lat="47.91296" lon="-1.75927">
        <ele>42</ele>
        <time>2015-06-07T06:09:40Z</time>
      </trkpt>
      <trkpt lat="47.91295" lon="-1.7592">
        <ele>42</ele>
        <time>2015-06-07T06:09:41Z</time>
      </trkpt>
      <trkpt lat="47.91294" lon="-1.75912">
        <ele>42</ele>
        <time>2015-06-07T06:09:42Z</time>
      </trkpt>
      <trkpt lat="47.91293" lon="-1.75905">
        <ele>42</ele>
        <time>2015-06-07T06:09:43Z</time>
      </trkpt>
      <trkpt lat="47.91292" lon="-1.75898">
        <ele>43</ele>
        <time>2015-06-07T06:09:44Z</time>
      </trkpt>
      <trkpt lat="47.9129" lon="-1.75891">
        <ele>43</ele>
        <time>2015-06-07T06:09:45Z</time>
      </trkpt>
      <trkpt lat="47.91289" lon="-1.75884">
        <ele>43</ele>
        <time>2015-06-07T06:09:46Z</time>
      </trkpt>
      <trkpt lat="47.91289" lon="-1.75878">
        <ele>43</ele>
        <time>2015-06-07T06:09:47Z</time>
      </trkpt>
      <trkpt lat="47.91288" lon="-1.75871">
        <ele>43</ele>
        <time>2015-06-07T06:09:48Z</time>
      </trkpt>
      <trkpt lat="47.91287" lon="-1.75865">
        <ele>44</ele>
        <time>2015-06-07T06:09:49Z</time>
      </trkpt>
      <trkpt lat="47.91286" lon="-1.75859">
        <ele>44</ele>
        <time>2015-06-07T06:09:50Z</time>
      </trkpt>
      <trkpt lat="47.91286" lon="-1.75853">
        <ele>44</ele>
        <time>2015-06-07T06:09:51Z</time>
      </trkpt>
      <trkpt lat="47.91285" lon="-1.75848">
        <ele>44</ele>
        <time>2015-06-07T06:09:52Z</time>
      </trkpt>
      <trkpt lat="47.91284" lon="-1.75842">
        <ele>44</ele>
        <time>2015-06-07T06:09:53Z</time>
      </trkpt>
      <trkpt lat="47.91284" lon="-1.75836">
        <ele>44</ele>
        <time>2015-06-07T06:09:54Z</time>
      </trkpt>
      <trkpt lat="47.91283" lon="-1.7583">
        <ele>44</ele>
        <time>2015-06-07T06:09:55Z</time>
      </trkpt>
      <trkpt lat="47.91283" lon="-1.75825">
        <ele>45</ele>
        <time>2015-06-07T06:09:56Z</time>
      </trkpt>
      <trkpt lat="47.91283" lon="-1.7582">
        <ele>45</ele>
        <time>2015-06-07T06:09:57Z</time>
      </trkpt>
      <trkpt lat="47.91284" lon="-1.75815">
        <ele>45</ele>
        <time>2015-06-07T06:09:58Z</time>
      </trkpt>
      <trkpt lat="47.91285" lon="-1.7581">
        <ele>45</ele>
        <time>2015-06-07T06:09:59Z</time>
      </trkpt>
      <trkpt lat="47.91286" lon="-1.75807">
        <ele>46</ele>
        <time>2015-06-07T06:10:00Z</time>
      </trkpt>
      <trkpt lat="47.91289" lon="-1.75805">
        <ele>46</ele>
        <time>2015-06-07T06:10:01Z</time>
      </trkpt>
      <trkpt lat="47.91292" lon="-1.75805">
        <ele>46</ele>
        <time>2015-06-07T06:10:02Z</time>
      </trkpt>
      <trkpt lat="47.91295" lon="-1.75807">
        <ele>46</ele>
        <time>2015-06-07T06:10:03Z</time>
      </trkpt>
      <trkpt lat="47.91298" lon="-1.7581">
        <ele>46</ele>
        <time>2015-06-07T06:10:04Z</time>
      </trkpt>
      <trkpt lat="47.91303" lon="-1.75815">
        <ele>46</ele>
        <time>2015-06-07T06:10:05Z</time>
      </trkpt>
      <trkpt lat="47.91308" lon="-1.75819">
        <ele>45</ele>
        <time>2015-06-07T06:10:06Z</time>
      </trkpt>
      <trkpt lat="47.91313" lon="-1.75822">
        <ele>45</ele>
        <time>2015-06-07T06:10:07Z</time>
      </trkpt>
      <trkpt lat="47.91318" lon="-1.75824">
        <ele>44</ele>
        <time>2015-06-07T06:10:08Z</time>
      </trkpt>
      <trkpt lat="47.91323" lon="-1.75825">
        <ele>44</ele>
        <time>2015-06-07T06:10:09Z</time>
      </trkpt>
      <trkpt lat="47.91328" lon="-1.75826">
        <ele>43</ele>
        <time>2015-06-07T06:10:10Z</time>
      </trkpt>
      <trkpt lat="47.91335" lon="-1.75825">
        <ele>43</ele>
        <time>2015-06-07T06:10:11Z</time>
      </trkpt>
      <trkpt lat="47.91342" lon="-1.75823">
        <ele>42</ele>
        <time>2015-06-07T06:10:12Z</time>
      </trkpt>
      <trkpt lat="47.91349" lon="-1.75821">
        <ele>41</ele>
        <time>2015-06-07T06:10:13Z</time>
      </trkpt>
      <trkpt lat="47.91356" lon="-1.75819">
        <ele>41</ele>
        <time>2015-06-07T06:10:14Z</time>
      </trkpt>
      <trkpt lat="47.91364" lon="-1.75817">
        <ele>40</ele>
        <time>2015-06-07T06:10:15Z</time>
      </trkpt>
      <trkpt lat="47.91371" lon="-1.75815">
        <ele>39</ele>
        <time>2015-06-07T06:10:16Z</time>
      </trkpt>
      <trkpt lat="47.91379" lon="-1.75813">
        <ele>38</ele>
        <time>2015-06-07T06:10:17Z</time>
      </trkpt>
      <trkpt lat="47.91387" lon="-1.75811">
        <ele>38</ele>
        <time>2015-06-07T06:10:18Z</time>
      </trkpt>
      <trkpt lat="47.91394" lon="-1.75809">
        <ele>37</ele>
        <time>2015-06-07T06:10:19Z</time>
      </trkpt>
      <trkpt lat="47.91402" lon="-1.75808">
        <ele>37</ele>
        <time>2015-06-07T06:10:20Z</time>
      </trkpt>
      <trkpt lat="47.9141" lon="-1.75806">
        <ele>36</ele>
        <time>2015-06-07T06:10:21Z</time>
      </trkpt>
      <trkpt lat="47.91418" lon="-1.75804">
        <ele>36</ele>
        <time>2015-06-07T06:10:22Z</time>
      </trkpt>
      <trkpt lat="47.91426" lon="-1.75802">
        <ele>35</ele>
        <time>2015-06-07T06:10:23Z</time>
      </trkpt>
      <trkpt lat="47.91434" lon="-1.75801">
        <ele>34</ele>
        <time>2015-06-07T06:10:24Z</time>
      </trkpt>
      <trkpt lat="47.91442" lon="-1.758">
        <ele>34</ele>
        <time>2015-06-07T06:10:25Z</time>
      </trkpt>
      <trkpt lat="47.9145" lon="-1.75799">
        <ele>33</ele>
        <time>2015-06-07T06:10:26Z</time>
      </trkpt>
      <trkpt lat="47.91457" lon="-1.75797">
        <ele>33</ele>
        <time>2015-06-07T06:10:27Z</time>
      </trkpt>
      <trkpt lat="47.91463" lon="-1.75793">
        <ele>33</ele>
        <time>2015-06-07T06:10:28Z</time>
      </trkpt>
      <trkpt lat="47.91467" lon="-1.75786">
        <ele>33</ele>
        <time>2015-06-07T06:10:29Z</time>
      </trkpt>
      <trkpt lat="47.91469" lon="-1.75778">
        <ele>33</ele>
        <time>2015-06-07T06:10:30Z</time>
      </trkpt>
      <trkpt lat="47.9147" lon="-1.7577">
        <ele>33</ele>
        <time>2015-06-07T06:10:31Z</time>
      </trkpt>
      <trkpt lat="47.91471" lon="-1.75761">
        <ele>32</ele>
        <time>2015-06-07T06:10:32Z</time>
      </trkpt>
      <trkpt lat="47.91472" lon="-1.75753">
        <ele>32</ele>
        <time>2015-06-07T06:10:33Z</time>
      </trkpt>
      <trkpt lat="47.91473" lon="-1.75745">
        <ele>32</ele>
        <time>2015-06-07T06:10:34Z</time>
      </trkpt>
      <trkpt lat="47.91475" lon="-1.75737">
        <ele>32</ele>
        <time>2015-06-07T06:10:35Z</time>
      </trkpt>
      <trkpt lat="47.91477" lon="-1.7573">
        <ele>32</ele>
        <time>2015-06-07T06:10:36Z</time>
      </trkpt>
      <trkpt lat="47.91479" lon="-1.75722">
        <ele>32</ele>
        <time>2015-06-07T06:10:37Z</time>
      </trkpt>
      <trkpt lat="47.91482" lon="-1.75714">
        <ele>31</ele>
        <time>2015-06-07T06:10:38Z</time>
      </trkpt>
      <trkpt lat="47.91484" lon="-1.75707">
        <ele>31</ele>
        <time>2015-06-07T06:10:39Z</time>
      </trkpt>
      <trkpt lat="47.91486" lon="-1.75699">
        <ele>31</ele>
        <time>2015-06-07T06:10:40Z</time>
      </trkpt>
      <trkpt lat="47.91489" lon="-1.75692">
        <ele>31</ele>
        <time>2015-06-07T06:10:41Z</time>
      </trkpt>
      <trkpt lat="47.91491" lon="-1.75684">
        <ele>31</ele>
        <time>2015-06-07T06:10:42Z</time>
      </trkpt>
      <trkpt lat="47.91493" lon="-1.75677">
        <ele>30</ele>
        <time>2015-06-07T06:10:43Z</time>
      </trkpt>
      <trkpt lat="47.91495" lon="-1.75669">
        <ele>30</ele>
        <time>2015-06-07T06:10:44Z</time>
      </trkpt>
      <trkpt lat="47.91497" lon="-1.75662">
        <ele>30</ele>
        <time>2015-06-07T06:10:45Z</time>
      </trkpt>
      <trkpt lat="47.91499" lon="-1.75655">
        <ele>30</ele>
        <time>2015-06-07T06:10:46Z</time>
      </trkpt>
      <trkpt lat="47.91502" lon="-1.75647">
        <ele>30</ele>
        <time>2015-06-07T06:10:47Z</time>
      </trkpt>
      <trkpt lat="47.91504" lon="-1.7564">
        <ele>30</ele>
        <time>2015-06-07T06:10:48Z</time>
      </trkpt>
      <trkpt lat="47.91506" lon="-1.75633">
        <ele>29</ele>
        <time>2015-06-07T06:10:49Z</time>
      </trkpt>
      <trkpt lat="47.91508" lon="-1.75626">
        <ele>29</ele>
        <time>2015-06-07T06:10:50Z</time>
      </trkpt>
      <trkpt lat="47.9151" lon="-1.75619">
        <ele>29</ele>
        <time>2015-06-07T06:10:51Z</time>
      </trkpt>
      <trkpt lat="47.91513" lon="-1.75612">
        <ele>29</ele>
        <time>2015-06-07T06:10:52Z</time>
      </trkpt>
      <trkpt lat="47.91515" lon="-1.75605">
        <ele>28</ele>
        <time>2015-06-07T06:10:53Z</time>
      </trkpt>
      <trkpt lat="47.91517" lon="-1.75598">
        <ele>28</ele>
        <time>2015-06-07T06:10:54Z</time>
      </trkpt>
      <trkpt lat="47.91519" lon="-1.75591">
        <ele>28</ele>
        <time>2015-06-07T06:10:55Z</time>
      </trkpt>
      <trkpt lat="47.91522" lon="-1.75584">
        <ele>28</ele>
        <time>2015-06-07T06:10:56Z</time>
      </trkpt>
      <trkpt lat="47.91524" lon="-1.75576">
        <ele>28</ele>
        <time>2015-06-07T06:10:57Z</time>
      </trkpt>
      <trkpt lat="47.91526" lon="-1.75569">
        <ele>27</ele>
        <time>2015-06-07T06:10:58Z</time>
      </trkpt>
      <trkpt lat="47.91529" lon="-1.75561">
        <ele>27</ele>
        <time>2015-06-07T06:10:59Z</time>
      </trkpt>
      <trkpt lat="47.91531" lon="-1.75554">
        <ele>27</ele>
        <time>2015-06-07T06:11:00Z</time>
      </trkpt>
      <trkpt lat="47.91533" lon="-1.75546">
        <ele>27</ele>
        <time>2015-06-07T06:11:01Z</time>
      </trkpt>
      <trkpt lat="47.91535" lon="-1.75539">
        <ele>27</ele>
        <time>2015-06-07T06:11:02Z</time>
      </trkpt>
      <trkpt lat="47.91538" lon="-1.75532">
        <ele>27</ele>
        <time>2015-06-07T06:11:03Z</time>
      </trkpt>
      <trkpt lat="47.9154" lon="-1.75525">
        <ele>26</ele>
        <time>2015-06-07T06:11:04Z</time>
      </trkpt>
      <trkpt lat="47.91542" lon="-1.75519">
        <ele>26</ele>
        <time>2015-06-07T06:11:05Z</time>
      </trkpt>
      <trkpt lat="47.91544" lon="-1.75512">
        <ele>26</ele>
        <time>2015-06-07T06:11:06Z</time>
      </trkpt>
      <trkpt lat="47.91546" lon="-1.75505">
        <ele>26</ele>
        <time>2015-06-07T06:11:07Z</time>
      </trkpt>
      <trkpt lat="47.91548" lon="-1.75498">
        <ele>26</ele>
        <time>2015-06-07T06:11:08Z</time>
      </trkpt>
      <trkpt lat="47.91551" lon="-1.75491">
        <ele>26</ele>
        <time>2015-06-07T06:11:09Z</time>
      </trkpt>
      <trkpt lat="47.91552" lon="-1.75484">
        <ele>26</ele>
        <time>2015-06-07T06:11:10Z</time>
      </trkpt>
      <trkpt lat="47.91555" lon="-1.75477">
        <ele>26</ele>
        <time>2015-06-07T06:11:11Z</time>
      </trkpt>
      <trkpt lat="47.91557" lon="-1.7547">
        <ele>26</ele>
        <time>2015-06-07T06:11:12Z</time>
      </trkpt>
      <trkpt lat="47.91559" lon="-1.75463">
        <ele>26</ele>
        <time>2015-06-07T06:11:13Z</time>
      </trkpt>
      <trkpt lat="47.91561" lon="-1.75456">
        <ele>26</ele>
        <time>2015-06-07T06:11:14Z</time>
      </trkpt>
      <trkpt lat="47.91562" lon="-1.7545">
        <ele>27</ele>
        <time>2015-06-07T06:11:15Z</time>
      </trkpt>
      <trkpt lat="47.91565" lon="-1.75443">
        <ele>27</ele>
        <time>2015-06-07T06:11:16Z</time>
      </trkpt>
      <trkpt lat="47.91567" lon="-1.75436">
        <ele>27</ele>
        <time>2015-06-07T06:11:17Z</time>
      </trkpt>
      <trkpt lat="47.91569" lon="-1.7543">
        <ele>27</ele>
        <time>2015-06-07T06:11:18Z</time>
      </trkpt>
      <trkpt lat="47.91571" lon="-1.75424">
        <ele>27</ele>
        <time>2015-06-07T06:11:19Z</time>
      </trkpt>
      <trkpt lat="47.91572" lon="-1.75418">
        <ele>28</ele>
        <time>2015-06-07T06:11:20Z</time>
      </trkpt>
      <trkpt lat="47.91575" lon="-1.75411">
        <ele>28</ele>
        <time>2015-06-07T06:11:21Z</time>
      </trkpt>
      <trkpt lat="47.91576" lon="-1.75405">
        <ele>28</ele>
        <time>2015-06-07T06:11:22Z</time>
      </trkpt>
      <trkpt lat="47.91579" lon="-1.75398">
        <ele>28</ele>
        <time>2015-06-07T06:11:23Z</time>
      </trkpt>
      <trkpt lat="47.91581" lon="-1.75392">
        <ele>28</ele>
        <time>2015-06-07T06:11:24Z</time>
      </trkpt>
      <trkpt lat="47.91583" lon="-1.75385">
        <ele>28</ele>
        <time>2015-06-07T06:11:25Z</time>
      </trkpt>
      <trkpt lat="47.91585" lon="-1.75379">
        <ele>28</ele>
        <time>2015-06-07T06:11:26Z</time>
      </trkpt>
      <trkpt lat="47.91588" lon="-1.75372">
        <ele>28</ele>
        <time>2015-06-07T06:11:27Z</time>
      </trkpt>
      <trkpt lat="47.9159" lon="-1.75366">
        <ele>28</ele>
        <time>2015-06-07T06:11:28Z</time>
      </trkpt>
      <trkpt lat="47.91592" lon="-1.75359">
        <ele>28</ele>
        <time>2015-06-07T06:11:29Z</time>
      </trkpt>
      <trkpt lat="47.91595" lon="-1.75352">
        <ele>28</ele>
        <time>2015-06-07T06:11:30Z</time>
      </trkpt>
      <trkpt lat="47.91597" lon="-1.75345">
        <ele>28</ele>
        <time>2015-06-07T06:11:31Z</time>
      </trkpt>
      <trkpt lat="47.91599" lon="-1.75338">
        <ele>28</ele>
        <time>2015-06-07T06:11:32Z</time>
      </trkpt>
      <trkpt lat="47.91601" lon="-1.7533">
        <ele>29</ele>
        <time>2015-06-07T06:11:33Z</time>
      </trkpt>
      <trkpt lat="47.91604" lon="-1.75323">
        <ele>29</ele>
        <time>2015-06-07T06:11:34Z</time>
      </trkpt>
      <trkpt lat="47.91606" lon="-1.75315">
        <ele>29</ele>
        <time>2015-06-07T06:11:35Z</time>
      </trkpt>
      <trkpt lat="47.91608" lon="-1.75308">
        <ele>29</ele>
        <time>2015-06-07T06:11:36Z</time>
      </trkpt>
      <trkpt lat="47.9161" lon="-1.753">
        <ele>29</ele>
        <time>2015-06-07T06:11:37Z</time>
      </trkpt>
      <trkpt lat="47.91612" lon="-1.75293">
        <ele>29</ele>
        <time>2015-06-07T06:11:38Z</time>
      </trkpt>
      <trkpt lat="47.91614" lon="-1.75286">
        <ele>29</ele>
        <time>2015-06-07T06:11:39Z</time>
      </trkpt>
      <trkpt lat="47.91616" lon="-1.7528">
        <ele>29</ele>
        <time>2015-06-07T06:11:40Z</time>
      </trkpt>
      <trkpt lat="47.91618" lon="-1.75273">
        <ele>29</ele>
        <time>2015-06-07T06:11:41Z</time>
      </trkpt>
      <trkpt lat="47.9162" lon="-1.75267">
        <ele>29</ele>
        <time>2015-06-07T06:11:42Z</time>
      </trkpt>
      <trkpt lat="47.91622" lon="-1.75261">
        <ele>29</ele>
        <time>2015-06-07T06:11:43Z</time>
      </trkpt>
      <trkpt lat="47.91624" lon="-1.75254">
        <ele>29</ele>
        <time>2015-06-07T06:11:44Z</time>
      </trkpt>
      <trkpt lat="47.91626" lon="-1.75247">
        <ele>29</ele>
        <time>2015-06-07T06:11:45Z</time>
      </trkpt>
      <trkpt lat="47.91628" lon="-1.75241">
        <ele>29</ele>
        <time>2015-06-07T06:11:46Z</time>
      </trkpt>
      <trkpt lat="47.9163" lon="-1.75234">
        <ele>29</ele>
        <time>2015-06-07T06:11:47Z</time>
      </trkpt>
      <trkpt lat="47.91632" lon="-1.75228">
        <ele>29</ele>
        <time>2015-06-07T06:11:48Z</time>
      </trkpt>
      <trkpt lat="47.91634" lon="-1.75221">
        <ele>29</ele>
        <time>2015-06-07T06:11:49Z</time>
      </trkpt>
      <trkpt lat="47.91636" lon="-1.75215">
        <ele>29</ele>
        <time>2015-06-07T06:11:50Z</time>
      </trkpt>
      <trkpt lat="47.91638" lon="-1.75208">
        <ele>29</ele>
        <time>2015-06-07T06:11:51Z</time>
      </trkpt>
      <trkpt lat="47.91641" lon="-1.75201">
        <ele>29</ele>
        <time>2015-06-07T06:11:52Z</time>
      </trkpt>
      <trkpt lat="47.91643" lon="-1.75195">
        <ele>30</ele>
        <time>2015-06-07T06:11:53Z</time>
      </trkpt>
      <trkpt lat="47.91645" lon="-1.75188">
        <ele>30</ele>
        <time>2015-06-07T06:11:54Z</time>
      </trkpt>
      <trkpt lat="47.91647" lon="-1.75182">
        <ele>30</ele>
        <time>2015-06-07T06:11:55Z</time>
      </trkpt>
      <trkpt lat="47.91649" lon="-1.75176">
        <ele>30</ele>
        <time>2015-06-07T06:11:56Z</time>
      </trkpt>
      <trkpt lat="47.91651" lon="-1.7517">
        <ele>30</ele>
        <time>2015-06-07T06:11:57Z</time>
      </trkpt>
      <trkpt lat="47.91652" lon="-1.75164">
        <ele>30</ele>
        <time>2015-06-07T06:11:58Z</time>
      </trkpt>
      <trkpt lat="47.91654" lon="-1.75158">
        <ele>30</ele>
        <time>2015-06-07T06:11:59Z</time>
      </trkpt>
      <trkpt lat="47.91656" lon="-1.75153">
        <ele>30</ele>
        <time>2015-06-07T06:12:00Z</time>
      </trkpt>
      <trkpt lat="47.91658" lon="-1.75148">
        <ele>30</ele>
        <time>2015-06-07T06:12:01Z</time>
      </trkpt>
      <trkpt lat="47.91661" lon="-1.75143">
        <ele>30</ele>
        <time>2015-06-07T06:12:02Z</time>
      </trkpt>
      <trkpt lat="47.91664" lon="-1.75139">
        <ele>31</ele>
        <time>2015-06-07T06:12:03Z</time>
      </trkpt>
      <trkpt lat="47.91668" lon="-1.75137">
        <ele>31</ele>
        <time>2015-06-07T06:12:04Z</time>
      </trkpt>
      <trkpt lat="47.91672" lon="-1.75134">
        <ele>31</ele>
        <time>2015-06-07T06:12:05Z</time>
      </trkpt>
      <trkpt lat="47.91676" lon="-1.75132">
        <ele>31</ele>
        <time>2015-06-07T06:12:06Z</time>
      </trkpt>
      <trkpt lat="47.9168" lon="-1.75129">
        <ele>31</ele>
        <time>2015-06-07T06:12:07Z</time>
      </trkpt>
      <trkpt lat="47.91684" lon="-1.75128">
        <ele>31</ele>
        <time>2015-06-07T06:12:08Z</time>
      </trkpt>
      <trkpt lat="47.91689" lon="-1.75125">
        <ele>31</ele>
        <time>2015-06-07T06:12:09Z</time>
      </trkpt>
      <trkpt lat="47.91693" lon="-1.75123">
        <ele>31</ele>
        <time>2015-06-07T06:12:10Z</time>
      </trkpt>
      <trkpt lat="47.91697" lon="-1.75121">
        <ele>31</ele>
        <time>2015-06-07T06:12:11Z</time>
      </trkpt>
      <trkpt lat="47.91702" lon="-1.75119">
        <ele>32</ele>
        <time>2015-06-07T06:12:12Z</time>
      </trkpt>
      <trkpt lat="47.91706" lon="-1.75117">
        <ele>32</ele>
        <time>2015-06-07T06:12:13Z</time>
      </trkpt>
      <trkpt lat="47.9171" lon="-1.75115">
        <ele>32</ele>
        <time>2015-06-07T06:12:14Z</time>
      </trkpt>
      <trkpt lat="47.91713" lon="-1.75114">
        <ele>32</ele>
        <time>2015-06-07T06:12:15Z</time>
      </trkpt>
      <trkpt lat="47.91717" lon="-1.75112">
        <ele>33</ele>
        <time>2015-06-07T06:12:16Z</time>
      </trkpt>
      <trkpt lat="47.91721" lon="-1.7511">
        <ele>33</ele>
        <time>2015-06-07T06:12:17Z</time>
      </trkpt>
      <trkpt lat="47.91724" lon="-1.75109">
        <ele>33</ele>
        <time>2015-06-07T06:12:18Z</time>
      </trkpt>
      <trkpt lat="47.91727" lon="-1.75109">
        <ele>33</ele>
        <time>2015-06-07T06:12:19Z</time>
      </trkpt>
      <trkpt lat="47.91731" lon="-1.75106">
        <ele>33</ele>
        <time>2015-06-07T06:12:20Z</time>
      </trkpt>
      <trkpt lat="47.91734" lon="-1.75105">
        <ele>33</ele>
        <time>2015-06-07T06:12:21Z</time>
      </trkpt>
      <trkpt lat="47.91738" lon="-1.75104">
        <ele>34</ele>
        <time>2015-06-07T06:12:22Z</time>
      </trkpt>
      <trkpt lat="47.91741" lon="-1.75101">
        <ele>34</ele>
        <time>2015-06-07T06:12:23Z</time>
      </trkpt>
      <trkpt lat="47.91745" lon="-1.75099">
        <ele>34</ele>
        <time>2015-06-07T06:12:24Z</time>
      </trkpt>
      <trkpt lat="47.91748" lon="-1.75098">
        <ele>34</ele>
        <time>2015-06-07T06:12:25Z</time>
      </trkpt>
      <trkpt lat="47.91752" lon="-1.75097">
        <ele>35</ele>
        <time>2015-06-07T06:12:26Z</time>
      </trkpt>
      <trkpt lat="47.91755" lon="-1.75095">
        <ele>35</ele>
        <time>2015-06-07T06:12:27Z</time>
      </trkpt>
      <trkpt lat="47.91759" lon="-1.75093">
        <ele>35</ele>
        <time>2015-06-07T06:12:28Z</time>
      </trkpt>
      <trkpt lat="47.91763" lon="-1.75091">
        <ele>35</ele>
        <time>2015-06-07T06:12:29Z</time>
      </trkpt>
      <trkpt lat="47.91767" lon="-1.75089">
        <ele>36</ele>
        <time>2015-06-07T06:12:30Z</time>
      </trkpt>
      <trkpt lat="47.9177" lon="-1.75087">
        <ele>36</ele>
        <time>2015-06-07T06:12:31Z</time>
      </trkpt>
      <trkpt lat="47.91774" lon="-1.75085">
        <ele>36</ele>
        <time>2015-06-07T06:12:32Z</time>
      </trkpt>
      <trkpt lat="47.91778" lon="-1.75083">
        <ele>36</ele>
        <time>2015-06-07T06:12:33Z</time>
      </trkpt>
      <trkpt lat="47.91782" lon="-1.7508">
        <ele>36</ele>
        <time>2015-06-07T06:12:34Z</time>
      </trkpt>
      <trkpt lat="47.91786" lon="-1.75078">
        <ele>37</ele>
        <time>2015-06-07T06:12:35Z</time>
      </trkpt>
      <trkpt lat="47.91791" lon="-1.75076">
        <ele>37</ele>
        <time>2015-06-07T06:12:36Z</time>
      </trkpt>
      <trkpt lat="47.91795" lon="-1.75073">
        <ele>37</ele>
        <time>2015-06-07T06:12:37Z</time>
      </trkpt>
      <trkpt lat="47.91799" lon="-1.75071">
        <ele>37</ele>
        <time>2015-06-07T06:12:38Z</time>
      </trkpt>
      <trkpt lat="47.91803" lon="-1.75069">
        <ele>37</ele>
        <time>2015-06-07T06:12:39Z</time>
      </trkpt>
      <trkpt lat="47.91807" lon="-1.75066">
        <ele>38</ele>
        <time>2015-06-07T06:12:40Z</time>
      </trkpt>
      <trkpt lat="47.91811" lon="-1.75064">
        <ele>38</ele>
        <time>2015-06-07T06:12:41Z</time>
      </trkpt>
      <trkpt lat="47.91814" lon="-1.75062">
        <ele>38</ele>
        <time>2015-06-07T06:12:42Z</time>
      </trkpt>
      <trkpt lat="47.91818" lon="-1.7506">
        <ele>38</ele>
        <time>2015-06-07T06:12:43Z</time>
      </trkpt>
      <trkpt lat="47.91821" lon="-1.75059">
        <ele>39</ele>
        <time>2015-06-07T06:12:44Z</time>
      </trkpt>
      <trkpt lat="47.91825" lon="-1.75058">
        <ele>39</ele>
        <time>2015-06-07T06:12:45Z</time>
      </trkpt>
      <trkpt lat="47.91828" lon="-1.75058">
        <ele>39</ele>
        <time>2015-06-07T06:12:46Z</time>
      </trkpt>
      <trkpt lat="47.91831" lon="-1.75061">
        <ele>39</ele>
        <time>2015-06-07T06:12:47Z</time>
      </trkpt>
      <trkpt lat="47.91832" lon="-1.75065">
        <ele>39</ele>
        <time>2015-06-07T06:12:48Z</time>
      </trkpt>
      <trkpt lat="47.91832" lon="-1.7507">
        <ele>40</ele>
        <time>2015-06-07T06:12:49Z</time>
      </trkpt>
      <trkpt lat="47.91832" lon="-1.75076">
        <ele>40</ele>
        <time>2015-06-07T06:12:50Z</time>
      </trkpt>
      <trkpt lat="47.91831" lon="-1.75082">
        <ele>40</ele>
        <time>2015-06-07T06:12:51Z</time>
      </trkpt>
      <trkpt lat="47.91831" lon="-1.75089">
        <ele>40</ele>
        <time>2015-06-07T06:12:52Z</time>
      </trkpt>
      <trkpt lat="47.9183" lon="-1.75095">
        <ele>39</ele>
        <time>2015-06-07T06:12:53Z</time>
      </trkpt>
      <trkpt lat="47.91829" lon="-1.75101">
        <ele>39</ele>
        <time>2015-06-07T06:12:54Z</time>
      </trkpt>
      <trkpt lat="47.91828" lon="-1.75107">
        <ele>39</ele>
        <time>2015-06-07T06:12:55Z</time>
      </trkpt>
      <trkpt lat="47.91827" lon="-1.75114">
        <ele>39</ele>
        <time>2015-06-07T06:12:56Z</time>
      </trkpt>
      <trkpt lat="47.91826" lon="-1.75121">
        <ele>39</ele>
        <time>2015-06-07T06:12:57Z</time>
      </trkpt>
      <trkpt lat="47.91825" lon="-1.75128">
        <ele>39</ele>
        <time>2015-06-07T06:12:58Z</time>
      </trkpt>
      <trkpt lat="47.91824" lon="-1.75135">
        <ele>39</ele>
        <time>2015-06-07T06:12:59Z</time>
      </trkpt>
      <trkpt lat="47.91823" lon="-1.75142">
        <ele>39</ele>
        <time>2015-06-07T06:13:00Z</time>
      </trkpt>
      <trkpt lat="47.91822" lon="-1.75149">
        <ele>39</ele>
        <time>2015-06-07T06:13:01Z</time>
      </trkpt>
      <trkpt lat="47.91821" lon="-1.75156">
        <ele>39</ele>
        <time>2015-06-07T06:13:02Z</time>
      </trkpt>
      <trkpt lat="47.9182" lon="-1.75162">
        <ele>38</ele>
        <time>2015-06-07T06:13:03Z</time>
      </trkpt>
      <trkpt lat="47.91819" lon="-1.75169">
        <ele>38</ele>
        <time>2015-06-07T06:13:04Z</time>
      </trkpt>
      <trkpt lat="47.91818" lon="-1.75175">
        <ele>38</ele>
        <time>2015-06-07T06:13:05Z</time>
      </trkpt>
      <trkpt lat="47.91818" lon="-1.75182">
        <ele>38</ele>
        <time>2015-06-07T06:13:06Z</time>
      </trkpt>
      <trkpt lat="47.91818" lon="-1.75189">
        <ele>38</ele>
        <time>2015-06-07T06:13:07Z</time>
      </trkpt>
      <trkpt lat="47.91818" lon="-1.75196">
        <ele>37</ele>
        <time>2015-06-07T06:13:08Z</time>
      </trkpt>
      <trkpt lat="47.91817" lon="-1.75203">
        <ele>37</ele>
        <time>2015-06-07T06:13:09Z</time>
      </trkpt>
      <trkpt lat="47.91817" lon="-1.7521">
        <ele>37</ele>
        <time>2015-06-07T06:13:10Z</time>
      </trkpt>
      <trkpt lat="47.91817" lon="-1.75217">
        <ele>37</ele>
        <time>2015-06-07T06:13:11Z</time>
      </trkpt>
      <trkpt lat="47.91817" lon="-1.75224">
        <ele>37</ele>
        <time>2015-06-07T06:13:12Z</time>
      </trkpt>
      <trkpt lat="47.91817" lon="-1.75232">
        <ele>37</ele>
        <time>2015-06-07T06:13:13Z</time>
      </trkpt>
      <trkpt lat="47.91818" lon="-1.7524">
        <ele>37</ele>
        <time>2015-06-07T06:13:14Z</time>
      </trkpt>
      <trkpt lat="47.91819" lon="-1.75247">
        <ele>37</ele>
        <time>2015-06-07T06:13:15Z</time>
      </trkpt>
      <trkpt lat="47.9182" lon="-1.75254">
        <ele>37</ele>
        <time>2015-06-07T06:13:16Z</time>
      </trkpt>
      <trkpt lat="47.91821" lon="-1.75261">
        <ele>37</ele>
        <time>2015-06-07T06:13:17Z</time>
      </trkpt>
      <trkpt lat="47.91823" lon="-1.75269">
        <ele>38</ele>
        <time>2015-06-07T06:13:18Z</time>
      </trkpt>
      <trkpt lat="47.91825" lon="-1.75276">
        <ele>38</ele>
        <time>2015-06-07T06:13:19Z</time>
      </trkpt>
      <trkpt lat="47.91827" lon="-1.75283">
        <ele>38</ele>
        <time>2015-06-07T06:13:20Z</time>
      </trkpt>
      <trkpt lat="47.91829" lon="-1.75289">
        <ele>38</ele>
        <time>2015-06-07T06:13:21Z</time>
      </trkpt>
      <trkpt lat="47.91831" lon="-1.75296">
        <ele>38</ele>
        <time>2015-06-07T06:13:22Z</time>
      </trkpt>
      <trkpt lat="47.91833" lon="-1.75303">
        <ele>38</ele>
        <time>2015-06-07T06:13:23Z</time>
      </trkpt>
      <trkpt lat="47.91836" lon="-1.75309">
        <ele>39</ele>
        <time>2015-06-07T06:13:24Z</time>
      </trkpt>
      <trkpt lat="47.91838" lon="-1.75316">
        <ele>39</ele>
        <time>2015-06-07T06:13:25Z</time>
      </trkpt>
      <trkpt lat="47.91841" lon="-1.75322">
        <ele>39</ele>
        <time>2015-06-07T06:13:26Z</time>
      </trkpt>
      <trkpt lat="47.91844" lon="-1.75329">
        <ele>39</ele>
        <time>2015-06-07T06:13:27Z</time>
      </trkpt>
      <trkpt lat="47.91846" lon="-1.75335">
        <ele>39</ele>
        <time>2015-06-07T06:13:28Z</time>
      </trkpt>
      <trkpt lat="47.91848" lon="-1.75341">
        <ele>39</ele>
        <time>2015-06-07T06:13:29Z</time>
      </trkpt>
      <trkpt lat="47.91851" lon="-1.75348">
        <ele>39</ele>
        <time>2015-06-07T06:13:30Z</time>
      </trkpt>
      <trkpt lat="47.91854" lon="-1.75354">
        <ele>39</ele>
        <time>2015-06-07T06:13:31Z</time>
      </trkpt>
      <trkpt lat="47.91857" lon="-1.75361">
        <ele>39</ele>
        <time>2015-06-07T06:13:32Z</time>
      </trkpt>
      <trkpt lat="47.91859" lon="-1.75367">
        <ele>39</ele>
        <time>2015-06-07T06:13:33Z</time>
      </trkpt>
      <trkpt lat="47.91862" lon="-1.75374">
        <ele>40</ele>
        <time>2015-06-07T06:13:34Z</time>
      </trkpt>
      <trkpt lat="47.91864" lon="-1.75381">
        <ele>40</ele>
        <time>2015-06-07T06:13:35Z</time>
      </trkpt>
      <trkpt lat="47.91867" lon="-1.75387">
        <ele>40</ele>
        <time>2015-06-07T06:13:36Z</time>
      </trkpt>
      <trkpt lat="47.9187" lon="-1.75394">
        <ele>40</ele>
        <time>2015-06-07T06:13:37Z</time>
      </trkpt>
      <trkpt lat="47.91872" lon="-1.754">
        <ele>40</ele>
        <time>2015-06-07T06:13:38Z</time>
      </trkpt>
      <trkpt lat="47.91875" lon="-1.75407">
        <ele>40</ele>
        <time>2015-06-07T06:13:39Z</time>
      </trkpt>
      <trkpt lat="47.91877" lon="-1.75414">
        <ele>40</ele>
        <time>2015-06-07T06:13:40Z</time>
      </trkpt>
      <trkpt lat="47.91879" lon="-1.75421">
        <ele>40</ele>
        <time>2015-06-07T06:13:41Z</time>
      </trkpt>
      <trkpt lat="47.91881" lon="-1.75428">
        <ele>40</ele>
        <time>2015-06-07T06:13:42Z</time>
      </trkpt>
      <trkpt lat="47.91883" lon="-1.75435">
        <ele>40</ele>
        <time>2015-06-07T06:13:43Z</time>
      </trkpt>
      <trkpt lat="47.91884" lon="-1.75442">
        <ele>40</ele>
        <time>2015-06-07T06:13:44Z</time>
      </trkpt>
      <trkpt lat="47.91886" lon="-1.75449">
        <ele>40</ele>
        <time>2015-06-07T06:13:45Z</time>
      </trkpt>
      <trkpt lat="47.91887" lon="-1.75457">
        <ele>40</ele>
        <time>2015-06-07T06:13:46Z</time>
      </trkpt>
      <trkpt lat="47.91888" lon="-1.75464">
        <ele>40</ele>
        <time>2015-06-07T06:13:47Z</time>
      </trkpt>
      <trkpt lat="47.91889" lon="-1.75471">
        <ele>40</ele>
        <time>2015-06-07T06:13:48Z</time>
      </trkpt>
      <trkpt lat="47.9189" lon="-1.75479">
        <ele>40</ele>
        <time>2015-06-07T06:13:49Z</time>
      </trkpt>
      <trkpt lat="47.9189" lon="-1.75486">
        <ele>40</ele>
        <time>2015-06-07T06:13:50Z</time>
      </trkpt>
      <trkpt lat="47.9189" lon="-1.75493">
        <ele>40</ele>
        <time>2015-06-07T06:13:51Z</time>
      </trkpt>
      <trkpt lat="47.9189" lon="-1.755">
        <ele>40</ele>
        <time>2015-06-07T06:13:52Z</time>
      </trkpt>
      <trkpt lat="47.9189" lon="-1.75508">
        <ele>40</ele>
        <time>2015-06-07T06:13:53Z</time>
      </trkpt>
      <trkpt lat="47.9189" lon="-1.75516">
        <ele>40</ele>
        <time>2015-06-07T06:13:54Z</time>
      </trkpt>
      <trkpt lat="47.91889" lon="-1.75524">
        <ele>40</ele>
        <time>2015-06-07T06:13:55Z</time>
      </trkpt>
      <trkpt lat="47.91888" lon="-1.75532">
        <ele>40</ele>
        <time>2015-06-07T06:13:56Z</time>
      </trkpt>
      <trkpt lat="47.91888" lon="-1.7554">
        <ele>39</ele>
        <time>2015-06-07T06:13:57Z</time>
      </trkpt>
      <trkpt lat="47.91887" lon="-1.75548">
        <ele>39</ele>
        <time>2015-06-07T06:13:58Z</time>
      </trkpt>
      <trkpt lat="47.91887" lon="-1.75556">
        <ele>39</ele>
        <time>2015-06-07T06:13:59Z</time>
      </trkpt>
      <trkpt lat="47.91887" lon="-1.75564">
        <ele>39</ele>
        <time>2015-06-07T06:14:00Z</time>
      </trkpt>
      <trkpt lat="47.91887" lon="-1.75572">
        <ele>39</ele>
        <time>2015-06-07T06:14:01Z</time>
      </trkpt>
      <trkpt lat="47.91887" lon="-1.75579">
        <ele>38</ele>
        <time>2015-06-07T06:14:02Z</time>
      </trkpt>
      <trkpt lat="47.91888" lon="-1.75587">
        <ele>38</ele>
        <time>2015-06-07T06:14:03Z</time>
      </trkpt>
      <trkpt lat="47.91889" lon="-1.75596">
        <ele>38</ele>
        <time>2015-06-07T06:14:04Z</time>
      </trkpt>
      <trkpt lat="47.9189" lon="-1.75604">
        <ele>38</ele>
        <time>2015-06-07T06:14:05Z</time>
      </trkpt>
      <trkpt lat="47.91891" lon="-1.75612">
        <ele>37</ele>
        <time>2015-06-07T06:14:06Z</time>
      </trkpt>
      <trkpt lat="47.91893" lon="-1.75621">
        <ele>37</ele>
        <time>2015-06-07T06:14:07Z</time>
      </trkpt>
      <trkpt lat="47.91895" lon="-1.75629">
        <ele>37</ele>
        <time>2015-06-07T06:14:08Z</time>
      </trkpt>
      <trkpt lat="47.91897" lon="-1.75638">
        <ele>37</ele>
        <time>2015-06-07T06:14:09Z</time>
      </trkpt>
      <trkpt lat="47.91899" lon="-1.75647">
        <ele>36</ele>
        <time>2015-06-07T06:14:10Z</time>
      </trkpt>
      <trkpt lat="47.91901" lon="-1.75655">
        <ele>36</ele>
        <time>2015-06-07T06:14:11Z</time>
      </trkpt>
      <trkpt lat="47.91903" lon="-1.75664">
        <ele>36</ele>
        <time>2015-06-07T06:14:12Z</time>
      </trkpt>
      <trkpt lat="47.91905" lon="-1.75674">
        <ele>35</ele>
        <time>2015-06-07T06:14:13Z</time>
      </trkpt>
      <trkpt lat="47.91907" lon="-1.75683">
        <ele>35</ele>
        <time>2015-06-07T06:14:14Z</time>
      </trkpt>
      <trkpt lat="47.91909" lon="-1.75692">
        <ele>35</ele>
        <time>2015-06-07T06:14:15Z</time>
      </trkpt>
      <trkpt lat="47.91911" lon="-1.75701">
        <ele>35</ele>
        <time>2015-06-07T06:14:16Z</time>
      </trkpt>
      <trkpt lat="47.91913" lon="-1.7571">
        <ele>34</ele>
        <time>2015-06-07T06:14:17Z</time>
      </trkpt>
      <trkpt lat="47.91915" lon="-1.7572">
        <ele>34</ele>
        <time>2015-06-07T06:14:18Z</time>
      </trkpt>
      <trkpt lat="47.91917" lon="-1.75729">
        <ele>34</ele>
        <time>2015-06-07T06:14:19Z</time>
      </trkpt>
      <trkpt lat="47.9192" lon="-1.75739">
        <ele>33</ele>
        <time>2015-06-07T06:14:20Z</time>
      </trkpt>
      <trkpt lat="47.91922" lon="-1.75749">
        <ele>33</ele>
        <time>2015-06-07T06:14:21Z</time>
      </trkpt>
      <trkpt lat="47.91924" lon="-1.75759">
        <ele>32</ele>
        <time>2015-06-07T06:14:22Z</time>
      </trkpt>
      <trkpt lat="47.91927" lon="-1.7577">
        <ele>32</ele>
        <time>2015-06-07T06:14:23Z</time>
      </trkpt>
      <trkpt lat="47.9193" lon="-1.75781">
        <ele>31</ele>
        <time>2015-06-07T06:14:24Z</time>
      </trkpt>
      <trkpt lat="47.91933" lon="-1.75792">
        <ele>31</ele>
        <time>2015-06-07T06:14:25Z</time>
      </trkpt>
      <trkpt lat="47.91936" lon="-1.75803">
        <ele>31</ele>
        <time>2015-06-07T06:14:26Z</time>
      </trkpt>
      <trkpt lat="47.91939" lon="-1.75815">
        <ele>30</ele>
        <time>2015-06-07T06:14:27Z</time>
      </trkpt>
      <trkpt lat="47.91941" lon="-1.75827">
        <ele>29</ele>
        <time>2015-06-07T06:14:28Z</time>
      </trkpt>
      <trkpt lat="47.91944" lon="-1.75839">
        <ele>29</ele>
        <time>2015-06-07T06:14:29Z</time>
      </trkpt>
      <trkpt lat="47.91947" lon="-1.75851">
        <ele>28</ele>
        <time>2015-06-07T06:14:30Z</time>
      </trkpt>
      <trkpt lat="47.91949" lon="-1.75864">
        <ele>27</ele>
        <time>2015-06-07T06:14:31Z</time>
      </trkpt>
      <trkpt lat="47.91952" lon="-1.75877">
        <ele>27</ele>
        <time>2015-06-07T06:14:32Z</time>
      </trkpt>
      <trkpt lat="47.91953" lon="-1.75891">
        <ele>26</ele>
        <time>2015-06-07T06:14:33Z</time>
      </trkpt>
      <trkpt lat="47.91955" lon="-1.75904">
        <ele>25</ele>
        <time>2015-06-07T06:14:34Z</time>
      </trkpt>
      <trkpt lat="47.91956" lon="-1.75915">
        <ele>24</ele>
        <time>2015-06-07T06:14:35Z</time>
      </trkpt>
      <trkpt lat="47.91957" lon="-1.75923">
        <ele>24</ele>
        <time>2015-06-07T06:14:36Z</time>
      </trkpt>
      <trkpt lat="47.9196" lon="-1.75929">
        <ele>23</ele>
        <time>2015-06-07T06:14:37Z</time>
      </trkpt>
      <trkpt lat="47.91963" lon="-1.75931">
        <ele>23</ele>
        <time>2015-06-07T06:14:38Z</time>
      </trkpt>
      <trkpt lat="47.91967" lon="-1.75931">
        <ele>23</ele>
        <time>2015-06-07T06:14:39Z</time>
      </trkpt>
      <trkpt lat="47.91972" lon="-1.7593">
        <ele>22</ele>
        <time>2015-06-07T06:14:40Z</time>
      </trkpt>
      <trkpt lat="47.91976" lon="-1.75928">
        <ele>22</ele>
        <time>2015-06-07T06:14:41Z</time>
      </trkpt>
      <trkpt lat="47.9198" lon="-1.75926">
        <ele>22</ele>
        <time>2015-06-07T06:14:42Z</time>
      </trkpt>
      <trkpt lat="47.91985" lon="-1.75924">
        <ele>22</ele>
        <time>2015-06-07T06:14:43Z</time>
      </trkpt>
      <trkpt lat="47.9199" lon="-1.75921">
        <ele>22</ele>
        <time>2015-06-07T06:14:44Z</time>
      </trkpt>
      <trkpt lat="47.91995" lon="-1.75919">
        <ele>22</ele>
        <time>2015-06-07T06:14:45Z</time>
      </trkpt>
      <trkpt lat="47.92001" lon="-1.75916">
        <ele>21</ele>
        <time>2015-06-07T06:14:46Z</time>
      </trkpt>
      <trkpt lat="47.92006" lon="-1.75913">
        <ele>21</ele>
        <time>2015-06-07T06:14:47Z</time>
      </trkpt>
      <trkpt lat="47.92012" lon="-1.75912">
        <ele>21</ele>
        <time>2015-06-07T06:14:48Z</time>
      </trkpt>
      <trkpt lat="47.92018" lon="-1.7591">
        <ele>21</ele>
        <time>2015-06-07T06:14:49Z</time>
      </trkpt>
      <trkpt lat="47.92025" lon="-1.75907">
        <ele>21</ele>
        <time>2015-06-07T06:14:50Z</time>
      </trkpt>
      <trkpt lat="47.92031" lon="-1.75903">
        <ele>21</ele>
        <time>2015-06-07T06:14:51Z</time>
      </trkpt>
      <trkpt lat="47.92038" lon="-1.75899">
        <ele>21</ele>
        <time>2015-06-07T06:14:52Z</time>
      </trkpt>
      <trkpt lat="47.92044" lon="-1.75895">
        <ele>20</ele>
        <time>2015-06-07T06:14:53Z</time>
      </trkpt>
      <trkpt lat="47.9205" lon="-1.75891">
        <ele>20</ele>
        <time>2015-06-07T06:14:54Z</time>
      </trkpt>
      <trkpt lat="47.92056" lon="-1.75887">
        <ele>20</ele>
        <time>2015-06-07T06:14:55Z</time>
      </trkpt>
      <trkpt lat="47.92062" lon="-1.75883">
        <ele>20</ele>
        <time>2015-06-07T06:14:56Z</time>
      </trkpt>
      <trkpt lat="47.92068" lon="-1.75879">
        <ele>20</ele>
        <time>2015-06-07T06:14:57Z</time>
      </trkpt>
      <trkpt lat="47.92075" lon="-1.75875">
        <ele>19</ele>
        <time>2015-06-07T06:14:58Z</time>
      </trkpt>
      <trkpt lat="47.92082" lon="-1.75872">
        <ele>19</ele>
        <time>2015-06-07T06:14:59Z</time>
      </trkpt>
      <trkpt lat="47.92089" lon="-1.75868">
        <ele>19</ele>
        <time>2015-06-07T06:15:00Z</time>
      </trkpt>
      <trkpt lat="47.92097" lon="-1.75865">
        <ele>19</ele>
        <time>2015-06-07T06:15:01Z</time>
      </trkpt>
      <trkpt lat="47.92104" lon="-1.75862">
        <ele>18</ele>
        <time>2015-06-07T06:15:02Z</time>
      </trkpt>
      <trkpt lat="47.92111" lon="-1.75859">
        <ele>18</ele>
        <time>2015-06-07T06:15:03Z</time>
      </trkpt>
      <trkpt lat="47.92119" lon="-1.75855">
        <ele>18</ele>
        <time>2015-06-07T06:15:04Z</time>
      </trkpt>
      <trkpt lat="47.92127" lon="-1.75852">
        <ele>18</ele>
        <time>2015-06-07T06:15:05Z</time>
      </trkpt>
      <trkpt lat="47.92135" lon="-1.75849">
        <ele>17</ele>
        <time>2015-06-07T06:15:06Z</time>
      </trkpt>
      <trkpt lat="47.92143" lon="-1.75847">
        <ele>17</ele>
        <time>2015-06-07T06:15:07Z</time>
      </trkpt>
      <trkpt lat="47.92152" lon="-1.75844">
        <ele>17</ele>
        <time>2015-06-07T06:15:08Z</time>
      </trkpt>
      <trkpt lat="47.92159" lon="-1.75841">
        <ele>16</ele>
        <time>2015-06-07T06:15:09Z</time>
      </trkpt>
      <trkpt lat="47.92165" lon="-1.75839">
        <ele>16</ele>
        <time>2015-06-07T06:15:10Z</time>
      </trkpt>
      <trkpt lat="47.92169" lon="-1.75838">
        <ele>16</ele>
        <time>2015-06-07T06:15:11Z</time>
      </trkpt>
      <trkpt lat="47.92172" lon="-1.75838">
        <ele>16</ele>
        <time>2015-06-07T06:15:12Z</time>
      </trkpt>
      <trkpt lat="47.92173" lon="-1.75836">
        <ele>16</ele>
        <time>2015-06-07T06:15:13Z</time>
      </trkpt>
      <trkpt lat="47.92174" lon="-1.75833">
        <ele>16</ele>
        <time>2015-06-07T06:15:14Z</time>
      </trkpt>
      <trkpt lat="47.92175" lon="-1.75829">
        <ele>16</ele>
        <time>2015-06-07T06:15:15Z</time>
      </trkpt>
      <trkpt lat="47.92175" lon="-1.75825">
        <ele>15</ele>
        <time>2015-06-07T06:15:16Z</time>
      </trkpt>
      <trkpt lat="47.92175" lon="-1.7582">
        <ele>15</ele>
        <time>2015-06-07T06:15:17Z</time>
      </trkpt>
      <trkpt lat="47.92176" lon="-1.75814">
        <ele>15</ele>
        <time>2015-06-07T06:15:18Z</time>
      </trkpt>
      <trkpt lat="47.92176" lon="-1.75807">
        <ele>15</ele>
        <time>2015-06-07T06:15:19Z</time>
      </trkpt>
      <trkpt lat="47.92177" lon="-1.758">
        <ele>15</ele>
        <time>2015-06-07T06:15:20Z</time>
      </trkpt>
      <trkpt lat="47.92178" lon="-1.75793">
        <ele>15</ele>
        <time>2015-06-07T06:15:21Z</time>
      </trkpt>
      <trkpt lat="47.92178" lon="-1.75785">
        <ele>14</ele>
        <time>2015-06-07T06:15:22Z</time>
      </trkpt>
      <trkpt lat="47.92179" lon="-1.75777">
        <ele>14</ele>
        <time>2015-06-07T06:15:23Z</time>
      </trkpt>
      <trkpt lat="47.92179" lon="-1.75769">
        <ele>14</ele>
        <time>2015-06-07T06:15:24Z</time>
      </trkpt>
      <trkpt lat="47.92179" lon="-1.7576">
        <ele>14</ele>
        <time>2015-06-07T06:15:25Z</time>
      </trkpt>
      <trkpt lat="47.9218" lon="-1.75752">
        <ele>14</ele>
        <time>2015-06-07T06:15:26Z</time>
      </trkpt>
      <trkpt lat="47.9218" lon="-1.75743">
        <ele>13</ele>
        <time>2015-06-07T06:15:27Z</time>
      </trkpt>
      <trkpt lat="47.9218" lon="-1.75735">
        <ele>13</ele>
        <time>2015-06-07T06:15:28Z</time>
      </trkpt>
      <trkpt lat="47.9218" lon="-1.75727">
        <ele>13</ele>
        <time>2015-06-07T06:15:29Z</time>
      </trkpt>
      <trkpt lat="47.9218" lon="-1.75721">
        <ele>13</ele>
        <time>2015-06-07T06:15:30Z</time>
      </trkpt>
      <trkpt lat="47.92179" lon="-1.75717">
        <ele>13</ele>
        <time>2015-06-07T06:15:31Z</time>
      </trkpt>
      <trkpt lat="47.92178" lon="-1.75716">
        <ele>13</ele>
        <time>2015-06-07T06:15:32Z</time>
      </trkpt>
      <trkpt lat="47.92176" lon="-1.75716">
        <ele>13</ele>
        <time>2015-06-07T06:15:33Z</time>
      </trkpt>
      <trkpt lat="47.92173" lon="-1.75716">
        <ele>13</ele>
        <time>2015-06-07T06:15:34Z</time>
      </trkpt>
      <trkpt lat="47.92171" lon="-1.75715">
        <ele>13</ele>
        <time>2015-06-07T06:15:35Z</time>
      </trkpt>
      <trkpt lat="47.92168" lon="-1.75714">
        <ele>13</ele>
        <time>2015-06-07T06:15:36Z</time>
      </trkpt>
      <trkpt lat="47.92165" lon="-1.75713">
        <ele>13</ele>
        <time>2015-06-07T06:15:37Z</time>
      </trkpt>
      <trkpt lat="47.92163" lon="-1.75713">
        <ele>13</ele>
        <time>2015-06-07T06:15:38Z</time>
      </trkpt>
      <trkpt lat="47.9216" lon="-1.75713">
        <ele>13</ele>
        <time>2015-06-07T06:15:39Z</time>
      </trkpt>
      <trkpt lat="47.92158" lon="-1.75714">
        <ele>13</ele>
        <time>2015-06-07T06:15:40Z</time>
      </trkpt>
      <trkpt lat="47.92157" lon="-1.75715">
        <ele>13</ele>
        <time>2015-06-07T06:15:41Z</time>
      </trkpt>
      <trkpt lat="47.92156" lon="-1.75715">
        <ele>14</ele>
        <time>2015-06-07T06:15:42Z</time>
      </trkpt>
      <trkpt lat="47.92154" lon="-1.75715">
        <ele>14</ele>
        <time>2015-06-07T06:15:43Z</time>
      </trkpt>
      <trkpt lat="47.92153" lon="-1.75714">
        <ele>14</ele>
        <time>2015-06-07T06:15:44Z</time>
      </trkpt>
      <trkpt lat="47.92152" lon="-1.75714">
        <ele>15</ele>
        <time>2015-06-07T06:15:45Z</time>
      </trkpt>
      <trkpt lat="47.9215" lon="-1.75714">
        <ele>15</ele>
        <time>2015-06-07T06:15:46Z</time>
      </trkpt>
      <trkpt lat="47.92149" lon="-1.75714">
        <ele>15</ele>
        <time>2015-06-07T06:15:47Z</time>
      </trkpt>
      <trkpt lat="47.92148" lon="-1.75713">
        <ele>16</ele>
        <time>2015-06-07T06:15:48Z</time>
      </trkpt>
      <trkpt lat="47.92147" lon="-1.75712">
        <ele>16</ele>
        <time>2015-06-07T06:15:49Z</time>
      </trkpt>
      <trkpt lat="47.92146" lon="-1.75712">
        <ele>16</ele>
        <time>2015-06-07T06:15:50Z</time>
      </trkpt>
      <trkpt lat="47.92145" lon="-1.75712">
        <ele>17</ele>
        <time>2015-06-07T06:15:51Z</time>
      </trkpt>
      <trkpt lat="47.92145" lon="-1.75712">
        <ele>17</ele>
        <time>2015-06-07T06:15:52Z</time>
      </trkpt>
      <trkpt lat="47.92144" lon="-1.75712">
        <ele>18</ele>
        <time>2015-06-07T06:15:53Z</time>
      </trkpt>
      <trkpt lat="47.92144" lon="-1.75712">
        <ele>18</ele>
        <time>2015-06-07T06:15:54Z</time>
      </trkpt>
      <trkpt lat="47.92143" lon="-1.75713">
        <ele>18</ele>
        <time>2015-06-07T06:15:55Z</time>
      </trkpt>
      <trkpt lat="47.92142" lon="-1.75713">
        <ele>18</ele>
        <time>2015-06-07T06:15:56Z</time>
      </trkpt>
      <trkpt lat="47.92142" lon="-1.75714">
        <ele>19</ele>
        <time>2015-06-07T06:15:57Z</time>
      </trkpt>
      <trkpt lat="47.92141" lon="-1.75714">
        <ele>19</ele>
        <time>2015-06-07T06:15:58Z</time>
      </trkpt>
      <trkpt lat="47.92141" lon="-1.75715">
        <ele>19</ele>
        <time>2015-06-07T06:15:59Z</time>
      </trkpt>
      <trkpt lat="47.9214" lon="-1.75716">
        <ele>19</ele>
        <time>2015-06-07T06:16:00Z</time>
      </trkpt>
      <trkpt lat="47.92139" lon="-1.75717">
        <ele>20</ele>
        <time>2015-06-07T06:16:01Z</time>
      </trkpt>
      <trkpt lat="47.92138" lon="-1.75717">
        <ele>20</ele>
        <time>2015-06-07T06:16:02Z</time>
      </trkpt>
      <trkpt lat="47.92137" lon="-1.75717">
        <ele>20</ele>
        <time>2015-06-07T06:16:03Z</time>
      </trkpt>
      <trkpt lat="47.92136" lon="-1.75718">
        <ele>21</ele>
        <time>2015-06-07T06:16:04Z</time>
      </trkpt>
      <trkpt lat="47.92134" lon="-1.75718">
        <ele>21</ele>
        <time>2015-06-07T06:16:05Z</time>
      </trkpt>
      <trkpt lat="47.92133" lon="-1.75718">
        <ele>21</ele>
        <time>2015-06-07T06:16:06Z</time>
      </trkpt>
      <trkpt lat="47.92132" lon="-1.75719">
        <ele>22</ele>
        <time>2015-06-07T06:16:07Z</time>
      </trkpt>
      <trkpt lat="47.9213" lon="-1.75718">
        <ele>22</ele>
        <time>2015-06-07T06:16:08Z</time>
      </trkpt>
      <trkpt lat="47.92129" lon="-1.75718">
        <ele>23</ele>
        <time>2015-06-07T06:16:09Z</time>
      </trkpt>
      <trkpt lat="47.92127" lon="-1.75718">
        <ele>23</ele>
        <time>2015-06-07T06:16:10Z</time>
      </trkpt>
      <trkpt lat="47.92126" lon="-1.75719">
        <ele>23</ele>
        <time>2015-06-07T06:16:11Z</time>
      </trkpt>
      <trkpt lat="47.92124" lon="-1.75719">
        <ele>24</ele>
        <time>2015-06-07T06:16:12Z</time>
      </trkpt>
      <trkpt lat="47.92123" lon="-1.7572">
        <ele>24</ele>
        <time>2015-06-07T06:16:13Z</time>
      </trkpt>
      <trkpt lat="47.92121" lon="-1.7572">
        <ele>25</ele>
        <time>2015-06-07T06:16:14Z</time>
      </trkpt>
      <trkpt lat="47.9212" lon="-1.75721">
        <ele>25</ele>
        <time>2015-06-07T06:16:15Z</time>
      </trkpt>
      <trkpt lat="47.92118" lon="-1.75721">
        <ele>26</ele>
        <time>2015-06-07T06:16:16Z</time>
      </trkpt>
      <trkpt lat="47.92117" lon="-1.75722">
        <ele>26</ele>
        <time>2015-06-07T06:16:17Z</time>
      </trkpt>
      <trkpt lat="47.92116" lon="-1.75723">
        <ele>26</ele>
        <time>2015-06-07T06:16:18Z</time>
      </trkpt>
      <trkpt lat="47.92114" lon="-1.75722">
        <ele>27</ele>
        <time>2015-06-07T06:16:19Z</time>
      </trkpt>
      <trkpt lat="47.92112" lon="-1.75722">
        <ele>27</ele>
        <time>2015-06-07T06:16:20Z</time>
      </trkpt>
      <trkpt lat="47.92111" lon="-1.75721">
        <ele>27</ele>
        <time>2015-06-07T06:16:21Z</time>
      </trkpt>
      <trkpt lat="47.9211" lon="-1.7572">
        <ele>28</ele>
        <time>2015-06-07T06:16:22Z</time>
      </trkpt>
      <trkpt lat="47.92109" lon="-1.7572">
        <ele>28</ele>
        <time>2015-06-07T06:16:23Z</time>
      </trkpt>
      <trkpt lat="47.92107" lon="-1.7572">
        <ele>28</ele>
        <time>2015-06-07T06:16:24Z</time>
      </trkpt>
      <trkpt lat="47.92106" lon="-1.75719">
        <ele>29</ele>
        <time>2015-06-07T06:16:25Z</time>
      </trkpt>
      <trkpt lat="47.92105" lon="-1.7572">
        <ele>29</ele>
        <time>2015-06-07T06:16:26Z</time>
      </trkpt>
      <trkpt lat="47.92103" lon="-1.7572">
        <ele>29</ele>
        <time>2015-06-07T06:16:27Z</time>
      </trkpt>
      <trkpt lat="47.92101" lon="-1.7572">
        <ele>30</ele>
        <time>2015-06-07T06:16:28Z</time>
      </trkpt>
      <trkpt lat="47.92099" lon="-1.7572">
        <ele>30</ele>
        <time>2015-06-07T06:16:29Z</time>
      </trkpt>
      <trkpt lat="47.92098" lon="-1.7572">
        <ele>30</ele>
        <time>2015-06-07T06:16:30Z</time>
      </trkpt>
      <trkpt lat="47.92097" lon="-1.7572">
        <ele>31</ele>
        <time>2015-06-07T06:16:31Z</time>
      </trkpt>
      <trkpt lat="47.92095" lon="-1.7572">
        <ele>31</ele>
        <time>2015-06-07T06:16:32Z</time>
      </trkpt>
      <trkpt lat="47.92094" lon="-1.75719">
        <ele>31</ele>
        <time>2015-06-07T06:16:33Z</time>
      </trkpt>
      <trkpt lat="47.92093" lon="-1.75719">
        <ele>32</ele>
        <time>2015-06-07T06:16:34Z</time>
      </trkpt>
      <trkpt lat="47.92093" lon="-1.7572">
        <ele>32</ele>
        <time>2015-06-07T06:16:35Z</time>
      </trkpt>
      <trkpt lat="47.92091" lon="-1.7572">
        <ele>32</ele>
        <time>2015-06-07T06:16:36Z</time>
      </trkpt>
      <trkpt lat="47.9209" lon="-1.75721">
        <ele>33</ele>
        <time>2015-06-07T06:16:37Z</time>
      </trkpt>
      <trkpt lat="47.92088" lon="-1.75722">
        <ele>33</ele>
        <time>2015-06-07T06:16:38Z</time>
      </trkpt>
      <trkpt lat="47.92087" lon="-1.75721">
        <ele>33</ele>
        <time>2015-06-07T06:16:39Z</time>
      </trkpt>
      <trkpt lat="47.92085" lon="-1.75722">
        <ele>33</ele>
        <time>2015-06-07T06:16:40Z</time>
      </trkpt>
      <trkpt lat="47.92084" lon="-1.75722">
        <ele>33</ele>
        <time>2015-06-07T06:16:41Z</time>
      </trkpt>
      <trkpt lat="47.92082" lon="-1.75722">
        <ele>33</ele>
        <time>2015-06-07T06:16:42Z</time>
      </trkpt>
      <trkpt lat="47.9208" lon="-1.75722">
        <ele>34</ele>
        <time>2015-06-07T06:16:43Z</time>
      </trkpt>
      <trkpt lat="47.92078" lon="-1.75721">
        <ele>34</ele>
        <time>2015-06-07T06:16:44Z</time>
      </trkpt>
      <trkpt lat="47.92077" lon="-1.75721">
        <ele>34</ele>
        <time>2015-06-07T06:16:45Z</time>
      </trkpt>
      <trkpt lat="47.92075" lon="-1.75721">
        <ele>34</ele>
        <time>2015-06-07T06:16:46Z</time>
      </trkpt>
      <trkpt lat="47.92074" lon="-1.75721">
        <ele>34</ele>
        <time>2015-06-07T06:16:47Z</time>
      </trkpt>
      <trkpt lat="47.92073" lon="-1.7572">
        <ele>34</ele>
        <time>2015-06-07T06:16:48Z</time>
      </trkpt>
      <trkpt lat="47.92071" lon="-1.7572">
        <ele>35</ele>
        <time>2015-06-07T06:16:49Z</time>
      </trkpt>
      <trkpt lat="47.9207" lon="-1.75719">
        <ele>35</ele>
        <time>2015-06-07T06:16:50Z</time>
      </trkpt>
      <trkpt lat="47.92069" lon="-1.75718">
        <ele>35</ele>
        <time>2015-06-07T06:16:51Z</time>
      </trkpt>
      <trkpt lat="47.92068" lon="-1.75717">
        <ele>35</ele>
        <time>2015-06-07T06:16:52Z</time>
      </trkpt>
      <trkpt lat="47.92068" lon="-1.75716">
        <ele>35</ele>
        <time>2015-06-07T06:16:53Z</time>
      </trkpt>
      <trkpt lat="47.92068" lon="-1.75715">
        <ele>35</ele>
        <time>2015-06-07T06:16:54Z</time>
      </trkpt>
      <trkpt lat="47.92067" lon="-1.75714">
        <ele>35</ele>
        <time>2015-06-07T06:16:55Z</time>
      </trkpt>
      <trkpt lat="47.92067" lon="-1.75713">
        <ele>36</ele>
        <time>2015-06-07T06:16:56Z</time>
      </trkpt>
      <trkpt lat="47.92067" lon="-1.75712">
        <ele>36</ele>
        <time>2015-06-07T06:16:57Z</time>
      </trkpt>
      <trkpt lat="47.92066" lon="-1.75711">
        <ele>36</ele>
        <time>2015-06-07T06:16:58Z</time>
      </trkpt>
      <trkpt lat="47.92066" lon="-1.7571">
        <ele>36</ele>
        <time>2015-06-07T06:16:59Z</time>
      </trkpt>
      <trkpt lat="47.92066" lon="-1.75709">
        <ele>37</ele>
        <time>2015-06-07T06:17:00Z</time>
      </trkpt>
      <trkpt lat="47.92066" lon="-1.75708">
        <ele>37</ele>
        <time>2015-06-07T06:17:01Z</time>
      </trkpt>
      <trkpt lat="47.92066" lon="-1.75707">
        <ele>37</ele>
        <time>2015-06-07T06:17:02Z</time>
      </trkpt>
      <trkpt lat="47.92066" lon="-1.75706">
        <ele>38</ele>
        <time>2015-06-07T06:17:03Z</time>
      </trkpt>
      <trkpt lat="47.92066" lon="-1.75705">
        <ele>38</ele>
        <time>2015-06-07T06:17:04Z</time>
      </trkpt>
      <trkpt lat="47.92065" lon="-1.75705">
        <ele>39</ele>
        <time>2015-06-07T06:17:05Z</time>
      </trkpt>
      <trkpt lat="47.92065" lon="-1.75704">
        <ele>39</ele>
        <time>2015-06-07T06:17:06Z</time>
      </trkpt>
      <trkpt lat="47.92065" lon="-1.75704">
        <ele>39</ele>
        <time>2015-06-07T06:17:07Z</time>
      </trkpt>
      <trkpt lat="47.92065" lon="-1.75703">
        <ele>39</ele>
        <time>2015-06-07T06:17:08Z</time>
      </trkpt>
      <trkpt lat="47.92065" lon="-1.75703">
        <ele>39</ele>
        <time>2015-06-07T06:17:09Z</time>
      </trkpt>
      <trkpt lat="47.92065" lon="-1.75703">
        <ele>40</ele>
        <time>2015-06-07T06:17:10Z</time>
      </trkpt>
      <trkpt lat="47.92065" lon="-1.75703">
        <ele>40</ele>
        <time>2015-06-07T06:17:11Z</time>
      </trkpt>
      <trkpt lat="47.92065" lon="-1.75702">
        <ele>40</ele>
        <time>2015-06-07T06:17:12Z</time>
      </trkpt>
      <trkpt lat="47.92065" lon="-1.75702">
        <ele>40</ele>
        <time>2015-06-07T06:17:13Z</time>
      </trkpt>
      <trkpt lat="47.92065" lon="-1.75701">
        <ele>40</ele>
        <time>2015-06-07T06:17:14Z</time>
      </trkpt>
      <trkpt lat="47.92064" lon="-1.75701">
        <ele>40</ele>
        <time>2015-06-07T06:17:15Z</time>
      </trkpt>
      <trkpt lat="47.92064" lon="-1.75701">
        <ele>41</ele>
        <time>2015-06-07T06:17:16Z</time>
      </trkpt>
      <trkpt lat="47.92066" lon="-1.75697">
        <ele>41</ele>
        <time>2015-06-07T06:17:17Z</time>
      </trkpt>
      <trkpt lat="47.92066" lon="-1.75696">
        <ele>41</ele>
        <time>2015-06-07T06:17:18Z</time>
      </trkpt>
      <trkpt lat="47.92067" lon="-1.75695">
        <ele>41</ele>
        <time>2015-06-07T06:17:19Z</time>
      </trkpt>
      <trkpt lat="47.92067" lon="-1.75694">
        <ele>41</ele>
        <time>2015-06-07T06:17:20Z</time>
      </trkpt>
      <trkpt lat="47.92067" lon="-1.75694">
        <ele>42</ele>
        <time>2015-06-07T06:17:21Z</time>
      </trkpt>
      <trkpt lat="47.92067" lon="-1.75693">
        <ele>42</ele>
        <time>2015-06-07T06:17:22Z</time>
      </trkpt>
      <trkpt lat="47.92068" lon="-1.75691">
        <ele>42</ele>
        <time>2015-06-07T06:17:23Z</time>
      </trkpt>
      <trkpt lat="47.92068" lon="-1.7569">
        <ele>42</ele>
        <time>2015-06-07T06:17:24Z</time>
      </trkpt>
      <trkpt lat="47.92069" lon="-1.75689">
        <ele>42</ele>
        <time>2015-06-07T06:17:25Z</time>
      </trkpt>
      <trkpt lat="47.92069" lon="-1.75688">
        <ele>43</ele>
        <time>2015-06-07T06:17:26Z</time>
      </trkpt>
      <trkpt lat="47.92069" lon="-1.75687">
        <ele>43</ele>
        <time>2015-06-07T06:17:27Z</time>
      </trkpt>
      <trkpt lat="47.92068" lon="-1.75686">
        <ele>43</ele>
        <time>2015-06-07T06:17:28Z</time>
      </trkpt>
      <trkpt lat="47.92068" lon="-1.75684">
        <ele>43</ele>
        <time>2015-06-07T06:17:29Z</time>
      </trkpt>
      <trkpt lat="47.92068" lon="-1.75684">
        <ele>44</ele>
        <time>2015-06-07T06:17:30Z</time>
      </trkpt>
      <trkpt lat="47.92069" lon="-1.75683">
        <ele>44</ele>
        <time>2015-06-07T06:17:31Z</time>
      </trkpt>
      <trkpt lat="47.92069" lon="-1.75682">
        <ele>44</ele>
        <time>2015-06-07T06:17:32Z</time>
      </trkpt>
      <trkpt lat="47.92069" lon="-1.75681">
        <ele>44</ele>
        <time>2015-06-07T06:17:33Z</time>
      </trkpt>
      <trkpt lat="47.9207" lon="-1.75679">
        <ele>45</ele>
        <time>2015-06-07T06:17:34Z</time>
      </trkpt>
      <trkpt lat="47.9207" lon="-1.75678">
        <ele>45</ele>
        <time>2015-06-07T06:17:35Z</time>
      </trkpt>
      <trkpt lat="47.9207" lon="-1.75676">
        <ele>45</ele>
        <time>2015-06-07T06:17:36Z</time>
      </trkpt>
      <trkpt lat="47.9207" lon="-1.75675">
        <ele>46</ele>
        <time>2015-06-07T06:17:37Z</time>
      </trkpt>
      <trkpt lat="47.92071" lon="-1.75674">
        <ele>46</ele>
        <time>2015-06-07T06:17:38Z</time>
      </trkpt>
      <trkpt lat="47.92071" lon="-1.75673">
        <ele>47</ele>
        <time>2015-06-07T06:17:39Z</time>
      </trkpt>
      <trkpt lat="47.92071" lon="-1.75671">
        <ele>47</ele>
        <time>2015-06-07T06:17:40Z</time>
      </trkpt>
      <trkpt lat="47.92072" lon="-1.7567">
        <ele>48</ele>
        <time>2015-06-07T06:17:41Z</time>
      </trkpt>
      <trkpt lat="47.92073" lon="-1.75669">
        <ele>48</ele>
        <time>2015-06-07T06:17:42Z</time>
      </trkpt>
      <trkpt lat="47.92073" lon="-1.75668">
        <ele>49</ele>
        <time>2015-06-07T06:17:43Z</time>
      </trkpt>
      <trkpt lat="47.92073" lon="-1.75667">
        <ele>49</ele>
        <time>2015-06-07T06:17:44Z</time>
      </trkpt>
      <trkpt lat="47.92074" lon="-1.75666">
        <ele>49</ele>
        <time>2015-06-07T06:17:45Z</time>
      </trkpt>
      <trkpt lat="47.92074" lon="-1.75665">
        <ele>50</ele>
        <time>2015-06-07T06:17:46Z</time>
      </trkpt>
      <trkpt lat="47.92075" lon="-1.75664">
        <ele>50</ele>
        <time>2015-06-07T06:17:47Z</time>
      </trkpt>
      <trkpt lat="47.92075" lon="-1.75663">
        <ele>51</ele>
        <time>2015-06-07T06:17:48Z</time>
      </trkpt>
      <trkpt lat="47.92076" lon="-1.75661">
        <ele>51</ele>
        <time>2015-06-07T06:17:49Z</time>
      </trkpt>
      <trkpt lat="47.92077" lon="-1.7566">
        <ele>51</ele>
        <time>2015-06-07T06:17:50Z</time>
      </trkpt>
      <trkpt lat="47.92077" lon="-1.75659">
        <ele>52</ele>
        <time>2015-06-07T06:17:51Z</time>
      </trkpt>
      <trkpt lat="47.92077" lon="-1.75658">
        <ele>52</ele>
        <time>2015-06-07T06:17:52Z</time>
      </trkpt>
      <trkpt lat="47.92077" lon="-1.75656">
        <ele>53</ele>
        <time>2015-06-07T06:17:53Z</time>
      </trkpt>
      <trkpt lat="47.92078" lon="-1.75655">
        <ele>53</ele>
        <time>2015-06-07T06:17:54Z</time>
      </trkpt>
      <trkpt lat="47.92078" lon="-1.75654">
        <ele>53</ele>
        <time>2015-06-07T06:17:55Z</time>
      </trkpt>
      <trkpt lat="47.92078" lon="-1.75654">
        <ele>53</ele>
        <time>2015-06-07T06:17:56Z</time>
      </trkpt>
      <trkpt lat="47.92078" lon="-1.75653">
        <ele>54</ele>
        <time>2015-06-07T06:17:57Z</time>
      </trkpt>
      <trkpt lat="47.92079" lon="-1.75652">
        <ele>54</ele>
        <time>2015-06-07T06:17:58Z</time>
      </trkpt>
      <trkpt lat="47.9208" lon="-1.75651">
        <ele>54</ele>
        <time>2015-06-07T06:17:59Z</time>
      </trkpt>
      <trkpt lat="47.9208" lon="-1.7565">
        <ele>54</ele>
        <time>2015-06-07T06:18:00Z</time>
      </trkpt>
      <trkpt lat="47.92081" lon="-1.75649">
        <ele>54</ele>
        <time>2015-06-07T06:18:01Z</time>
      </trkpt>
      <trkpt lat="47.92082" lon="-1.75647">
        <ele>54</ele>
        <time>2015-06-07T06:18:02Z</time>
      </trkpt>
      <trkpt lat="47.92084" lon="-1.75644">
        <ele>55</ele>
        <time>2015-06-07T06:18:03Z</time>
      </trkpt>
      <trkpt lat="47.92085" lon="-1.75642">
        <ele>55</ele>
        <time>2015-06-07T06:18:04Z</time>
      </trkpt>
      <trkpt lat="47.92086" lon="-1.7564">
        <ele>55</ele>
        <time>2015-06-07T06:18:05Z</time>
      </trkpt>
      <trkpt lat="47.92087" lon="-1.75638">
        <ele>55</ele>
        <time>2015-06-07T06:18:06Z</time>
      </trkpt>
      <trkpt lat="47.92087" lon="-1.75635">
        <ele>55</ele>
        <time>2015-06-07T06:18:07Z</time>
      </trkpt>
      <trkpt lat="47.92088" lon="-1.75633">
        <ele>55</ele>
        <time>2015-06-07T06:18:08Z</time>
      </trkpt>
      <trkpt lat="47.92089" lon="-1.7563">
        <ele>56</ele>
        <time>2015-06-07T06:18:09Z</time>
      </trkpt>
      <trkpt lat="47.9209" lon="-1.75628">
        <ele>56</ele>
        <time>2015-06-07T06:18:10Z</time>
      </trkpt>
      <trkpt lat="47.92091" lon="-1.75624">
        <ele>56</ele>
        <time>2015-06-07T06:18:11Z</time>
      </trkpt>
      <trkpt lat="47.92091" lon="-1.75621">
        <ele>56</ele>
        <time>2015-06-07T06:18:12Z</time>
      </trkpt>
      <trkpt lat="47.92092" lon="-1.75618">
        <ele>56</ele>
        <time>2015-06-07T06:18:13Z</time>
      </trkpt>
      <trkpt lat="47.92093" lon="-1.75614">
        <ele>56</ele>
        <time>2015-06-07T06:18:14Z</time>
      </trkpt>
      <trkpt lat="47.92094" lon="-1.75611">
        <ele>56</ele>
        <time>2015-06-07T06:18:15Z</time>
      </trkpt>
      <trkpt lat="47.92095" lon="-1.75608">
        <ele>56</ele>
        <time>2015-06-07T06:18:16Z</time>
      </trkpt>
      <trkpt lat="47.92096" lon="-1.75605">
        <ele>56</ele>
        <time>2015-06-07T06:18:17Z</time>
      </trkpt>
      <trkpt lat="47.92096" lon="-1.75603">
        <ele>56</ele>
        <time>2015-06-07T06:18:18Z</time>
      </trkpt>
      <trkpt lat="47.92096" lon="-1.756">
        <ele>56</ele>
        <time>2015-06-07T06:18:19Z</time>
      </trkpt>
      <trkpt lat="47.92095" lon="-1.75596">
        <ele>56</ele>
        <time>2015-06-07T06:18:20Z</time>
      </trkpt>
      <trkpt lat="47.92094" lon="-1.75592">
        <ele>56</ele>
        <time>2015-06-07T06:18:21Z</time>
      </trkpt>
      <trkpt lat="47.92094" lon="-1.75588">
        <ele>56</ele>
        <time>2015-06-07T06:18:22Z</time>
      </trkpt>
      <trkpt lat="47.92094" lon="-1.75585">
        <ele>56</ele>
        <time>2015-06-07T06:18:23Z</time>
      </trkpt>
      <trkpt lat="47.92093" lon="-1.75582">
        <ele>55</ele>
        <time>2015-06-07T06:18:24Z</time>
      </trkpt>
      <trkpt lat="47.92092" lon="-1.75579">
        <ele>55</ele>
        <time>2015-06-07T06:18:25Z</time>
      </trkpt>
      <trkpt lat="47.92092" lon="-1.75576">
        <ele>55</ele>
        <time>2015-06-07T06:18:26Z</time>
      </trkpt>
      <trkpt lat="47.92091" lon="-1.75572">
        <ele>55</ele>
        <time>2015-06-07T06:18:27Z</time>
      </trkpt>
      <trkpt lat="47.9209" lon="-1.75569">
        <ele>55</ele>
        <time>2015-06-07T06:18:28Z</time>
      </trkpt>
      <trkpt lat="47.92088" lon="-1.75563">
        <ele>55</ele>
        <time>2015-06-07T06:18:29Z</time>
      </trkpt>
      <trkpt lat="47.92086" lon="-1.75558">
        <ele>54</ele>
        <time>2015-06-07T06:18:30Z</time>
      </trkpt>
      <trkpt lat="47.92085" lon="-1.75552">
        <ele>54</ele>
        <time>2015-06-07T06:18:31Z</time>
      </trkpt>
      <trkpt lat="47.92084" lon="-1.75547">
        <ele>54</ele>
        <time>2015-06-07T06:18:32Z</time>
      </trkpt>
      <trkpt lat="47.92083" lon="-1.75542">
        <ele>54</ele>
        <time>2015-06-07T06:18:33Z</time>
      </trkpt>
      <trkpt lat="47.92082" lon="-1.75536">
        <ele>53</ele>
        <time>2015-06-07T06:18:34Z</time>
      </trkpt>
      <trkpt lat="47.9208" lon="-1.75531">
        <ele>53</ele>
        <time>2015-06-07T06:18:35Z</time>
      </trkpt>
      <trkpt lat="47.92079" lon="-1.75526">
        <ele>53</ele>
        <time>2015-06-07T06:18:36Z</time>
      </trkpt>
      <trkpt lat="47.92077" lon="-1.75521">
        <ele>53</ele>
        <time>2015-06-07T06:18:37Z</time>
      </trkpt>
      <trkpt lat="47.92076" lon="-1.75515">
        <ele>52</ele>
        <time>2015-06-07T06:18:38Z</time>
      </trkpt>
      <trkpt lat="47.92075" lon="-1.75509">
        <ele>52</ele>
        <time>2015-06-07T06:18:39Z</time>
      </trkpt>
      <trkpt lat="47.92075" lon="-1.75502">
        <ele>52</ele>
        <time>2015-06-07T06:18:40Z</time>
      </trkpt>
      <trkpt lat="47.92074" lon="-1.75494">
        <ele>52</ele>
        <time>2015-06-07T06:18:41Z</time>
      </trkpt>
      <trkpt lat="47.92074" lon="-1.75488">
        <ele>51</ele>
        <time>2015-06-07T06:18:42Z</time>
      </trkpt>
      <trkpt lat="47.92073" lon="-1.75482">
        <ele>51</ele>
        <time>2015-06-07T06:18:43Z</time>
      </trkpt>
      <trkpt lat="47.92073" lon="-1.75476">
        <ele>51</ele>
        <time>2015-06-07T06:18:44Z</time>
      </trkpt>
      <trkpt lat="47.92071" lon="-1.75471">
        <ele>51</ele>
        <time>2015-06-07T06:18:45Z</time>
      </trkpt>
      <trkpt lat="47.92071" lon="-1.75464">
        <ele>50</ele>
        <time>2015-06-07T06:18:46Z</time>
      </trkpt>
      <trkpt lat="47.92069" lon="-1.75457">
        <ele>50</ele>
        <time>2015-06-07T06:18:47Z</time>
      </trkpt>
      <trkpt lat="47.92067" lon="-1.7545">
        <ele>50</ele>
        <time>2015-06-07T06:18:48Z</time>
      </trkpt>
      <trkpt lat="47.92067" lon="-1.75442">
        <ele>50</ele>
        <time>2015-06-07T06:18:49Z</time>
      </trkpt>
      <trkpt lat="47.92065" lon="-1.75433">
        <ele>50</ele>
        <time>2015-06-07T06:18:50Z</time>
      </trkpt>
      <trkpt lat="47.92063" lon="-1.75424">
        <ele>49</ele>
        <time>2015-06-07T06:18:51Z</time>
      </trkpt>
      <trkpt lat="47.92061" lon="-1.75415">
        <ele>49</ele>
        <time>2015-06-07T06:18:52Z</time>
      </trkpt>
      <trkpt lat="47.92058" lon="-1.75407">
        <ele>49</ele>
        <time>2015-06-07T06:18:53Z</time>
      </trkpt>
      <trkpt lat="47.92055" lon="-1.75398">
        <ele>49</ele>
        <time>2015-06-07T06:18:54Z</time>
      </trkpt>
      <trkpt lat="47.92053" lon="-1.7539">
        <ele>49</ele>
        <time>2015-06-07T06:18:55Z</time>
      </trkpt>
      <trkpt lat="47.92051" lon="-1.75385">
        <ele>49</ele>
        <time>2015-06-07T06:18:56Z</time>
      </trkpt>
      <trkpt lat="47.9205" lon="-1.75379">
        <ele>49</ele>
        <time>2015-06-07T06:18:57Z</time>
      </trkpt>
      <trkpt lat="47.92049" lon="-1.75374">
        <ele>49</ele>
        <time>2015-06-07T06:18:58Z</time>
      </trkpt>
      <trkpt lat="47.9205" lon="-1.75368">
        <ele>49</ele>
        <time>2015-06-07T06:18:59Z</time>
      </trkpt>
      <trkpt lat="47.92051" lon="-1.75361">
        <ele>49</ele>
        <time>2015-06-07T06:19:00Z</time>
      </trkpt>
      <trkpt lat="47.92052" lon="-1.75353">
        <ele>48</ele>
        <time>2015-06-07T06:19:01Z</time>
      </trkpt>
      <trkpt lat="47.92052" lon="-1.75348">
        <ele>48</ele>
        <time>2015-06-07T06:19:02Z</time>
      </trkpt>
      <trkpt lat="47.92052" lon="-1.75342">
        <ele>48</ele>
        <time>2015-06-07T06:19:03Z</time>
      </trkpt>
      <trkpt lat="47.92051" lon="-1.75336">
        <ele>48</ele>
        <time>2015-06-07T06:19:04Z</time>
      </trkpt>
      <trkpt lat="47.92049" lon="-1.7533">
        <ele>48</ele>
        <time>2015-06-07T06:19:05Z</time>
      </trkpt>
      <trkpt lat="47.92048" lon="-1.75324">
        <ele>47</ele>
        <time>2015-06-07T06:19:06Z</time>
      </trkpt>
      <trkpt lat="47.92046" lon="-1.75319">
        <ele>47</ele>
        <time>2015-06-07T06:19:07Z</time>
      </trkpt>
      <trkpt lat="47.92045" lon="-1.75315">
        <ele>47</ele>
        <time>2015-06-07T06:19:08Z</time>
      </trkpt>
      <trkpt lat="47.92044" lon="-1.7531">
        <ele>47</ele>
        <time>2015-06-07T06:19:09Z</time>
      </trkpt>
      <trkpt lat="47.92043" lon="-1.75306">
        <ele>47</ele>
        <time>2015-06-07T06:19:10Z</time>
      </trkpt>
      <trkpt lat="47.92042" lon="-1.753">
        <ele>46</ele>
        <time>2015-06-07T06:19:11Z</time>
      </trkpt>
      <trkpt lat="47.92041" lon="-1.75296">
        <ele>46</ele>
        <time>2015-06-07T06:19:12Z</time>
      </trkpt>
      <trkpt lat="47.9204" lon="-1.75291">
        <ele>46</ele>
        <time>2015-06-07T06:19:13Z</time>
      </trkpt>
      <trkpt lat="47.9204" lon="-1.75285">
        <ele>45</ele>
        <time>2015-06-07T06:19:14Z</time>
      </trkpt>
      <trkpt lat="47.9204" lon="-1.7528">
        <ele>45</ele>
        <time>2015-06-07T06:19:15Z</time>
      </trkpt>
      <trkpt lat="47.9204" lon="-1.75275">
        <ele>44</ele>
        <time>2015-06-07T06:19:16Z</time>
      </trkpt>
      <trkpt lat="47.9204" lon="-1.7527">
        <ele>44</ele>
        <time>2015-06-07T06:19:17Z</time>
      </trkpt>
      <trkpt lat="47.92041" lon="-1.75264">
        <ele>43</ele>
        <time>2015-06-07T06:19:18Z</time>
      </trkpt>
      <trkpt lat="47.92042" lon="-1.75259">
        <ele>43</ele>
        <time>2015-06-07T06:19:19Z</time>
      </trkpt>
      <trkpt lat="47.92042" lon="-1.75254">
        <ele>42</ele>
        <time>2015-06-07T06:19:20Z</time>
      </trkpt>
      <trkpt lat="47.92042" lon="-1.7525">
        <ele>42</ele>
        <time>2015-06-07T06:19:21Z</time>
      </trkpt>
      <trkpt lat="47.92042" lon="-1.75245">
        <ele>42</ele>
        <time>2015-06-07T06:19:22Z</time>
      </trkpt>
      <trkpt lat="47.92041" lon="-1.75241">
        <ele>41</ele>
        <time>2015-06-07T06:19:23Z</time>
      </trkpt>
      <trkpt lat="47.92042" lon="-1.75237">
        <ele>41</ele>
        <time>2015-06-07T06:19:24Z</time>
      </trkpt>
      <trkpt lat="47.92042" lon="-1.75232">
        <ele>40</ele>
        <time>2015-06-07T06:19:25Z</time>
      </trkpt>
      <trkpt lat="47.92042" lon="-1.75228">
        <ele>40</ele>
        <time>2015-06-07T06:19:26Z</time>
      </trkpt>
      <trkpt lat="47.92043" lon="-1.75223">
        <ele>40</ele>
        <time>2015-06-07T06:19:27Z</time>
      </trkpt>
      <trkpt lat="47.92043" lon="-1.75218">
        <ele>40</ele>
        <time>2015-06-07T06:19:28Z</time>
      </trkpt>
      <trkpt lat="47.92043" lon="-1.75213">
        <ele>39</ele>
        <time>2015-06-07T06:19:29Z</time>
      </trkpt>
      <trkpt lat="47.92043" lon="-1.75208">
        <ele>39</ele>
        <time>2015-06-07T06:19:30Z</time>
      </trkpt>
      <trkpt lat="47.92044" lon="-1.75204">
        <ele>39</ele>
        <time>2015-06-07T06:19:31Z</time>
      </trkpt>
      <trkpt lat="47.92044" lon="-1.75199">
        <ele>39</ele>
        <time>2015-06-07T06:19:32Z</time>
      </trkpt>
      <trkpt lat="47.92045" lon="-1.75195">
        <ele>38</ele>
        <time>2015-06-07T06:19:33Z</time>
      </trkpt>
      <trkpt lat="47.92045" lon="-1.75192">
        <ele>38</ele>
        <time>2015-06-07T06:19:34Z</time>
      </trkpt>
      <trkpt lat="47.92045" lon="-1.75189">
        <ele>38</ele>
        <time>2015-06-07T06:19:35Z</time>
      </trkpt>
      <trkpt lat="47.92045" lon="-1.75185">
        <ele>38</ele>
        <time>2015-06-07T06:19:36Z</time>
      </trkpt>
      <trkpt lat="47.92045" lon="-1.75183">
        <ele>38</ele>
        <time>2015-06-07T06:19:37Z</time>
      </trkpt>
      <trkpt lat="47.92046" lon="-1.7518">
        <ele>38</ele>
        <time>2015-06-07T06:19:38Z</time>
      </trkpt>
      <trkpt lat="47.92046" lon="-1.75177">
        <ele>38</ele>
        <time>2015-06-07T06:19:39Z</time>
      </trkpt>
      <trkpt lat="47.92045" lon="-1.75174">
        <ele>38</ele>
        <time>2015-06-07T06:19:40Z</time>
      </trkpt>
      <trkpt lat="47.92045" lon="-1.75171">
        <ele>38</ele>
        <time>2015-06-07T06:19:41Z</time>
      </trkpt>
      <trkpt lat="47.92045" lon="-1.75167">
        <ele>38</ele>
        <time>2015-06-07T06:19:42Z</time>
      </trkpt>
      <trkpt lat="47.92044" lon="-1.75164">
        <ele>38</ele>
        <time>2015-06-07T06:19:43Z</time>
      </trkpt>
      <trkpt lat="47.92044" lon="-1.75161">
        <ele>38</ele>
        <time>2015-06-07T06:19:44Z</time>
      </trkpt>
      <trkpt lat="47.92043" lon="-1.75158">
        <ele>38</ele>
        <time>2015-06-07T06:19:45Z</time>
      </trkpt>
      <trkpt lat="47.92043" lon="-1.75154">
        <ele>38</ele>
        <time>2015-06-07T06:19:46Z</time>
      </trkpt>
      <trkpt lat="47.92043" lon="-1.7515">
        <ele>38</ele>
        <time>2015-06-07T06:19:47Z</time>
      </trkpt>
      <trkpt lat="47.92043" lon="-1.75148">
        <ele>38</ele>
        <time>2015-06-07T06:19:48Z</time>
      </trkpt>
      <trkpt lat="47.92042" lon="-1.75145">
        <ele>38</ele>
        <time>2015-06-07T06:19:49Z</time>
      </trkpt>
      <trkpt lat="47.92042" lon="-1.75144">
        <ele>38</ele>
        <time>2015-06-07T06:19:50Z</time>
      </trkpt>
      <trkpt lat="47.92042" lon="-1.75142">
        <ele>38</ele>
        <time>2015-06-07T06:19:51Z</time>
      </trkpt>
      <trkpt lat="47.92041" lon="-1.75139">
        <ele>38</ele>
        <time>2015-06-07T06:19:52Z</time>
      </trkpt>
      <trkpt lat="47.9204" lon="-1.75136">
        <ele>38</ele>
        <time>2015-06-07T06:19:53Z</time>
      </trkpt>
      <trkpt lat="47.92039" lon="-1.75132">
        <ele>38</ele>
        <time>2015-06-07T06:19:54Z</time>
      </trkpt>
      <trkpt lat="47.92039" lon="-1.75129">
        <ele>38</ele>
        <time>2015-06-07T06:19:55Z</time>
      </trkpt>
      <trkpt lat="47.92039" lon="-1.75126">
        <ele>39</ele>
        <time>2015-06-07T06:19:56Z</time>
      </trkpt>
      <trkpt lat="47.92039" lon="-1.75122">
        <ele>39</ele>
        <time>2015-06-07T06:19:57Z</time>
      </trkpt>
      <trkpt lat="47.92038" lon="-1.75118">
        <ele>39</ele>
        <time>2015-06-07T06:19:58Z</time>
      </trkpt>
      <trkpt lat="47.92038" lon="-1.75115">
        <ele>39</ele>
        <time>2015-06-07T06:19:59Z</time>
      </trkpt>
      <trkpt lat="47.92037" lon="-1.75111">
        <ele>38</ele>
        <time>2015-06-07T06:20:00Z</time>
      </trkpt>
      <trkpt lat="47.92036" lon="-1.75107">
        <ele>38</ele>
        <time>2015-06-07T06:20:01Z</time>
      </trkpt>
      <trkpt lat="47.92036" lon="-1.75103">
        <ele>38</ele>
        <time>2015-06-07T06:20:02Z</time>
      </trkpt>
      <trkpt lat="47.92036" lon="-1.75099">
        <ele>38</ele>
        <time>2015-06-07T06:20:03Z</time>
      </trkpt>
      <trkpt lat="47.92037" lon="-1.75096">
        <ele>38</ele>
        <time>2015-06-07T06:20:04Z</time>
      </trkpt>
      <trkpt lat="47.92037" lon="-1.75092">
        <ele>38</ele>
        <time>2015-06-07T06:20:05Z</time>
      </trkpt>
      <trkpt lat="47.92037" lon="-1.75088">
        <ele>38</ele>
        <time>2015-06-07T06:20:06Z</time>
      </trkpt>
      <trkpt lat="47.92037" lon="-1.75085">
        <ele>38</ele>
        <time>2015-06-07T06:20:07Z</time>
      </trkpt>
      <trkpt lat="47.92036" lon="-1.75082">
        <ele>39</ele>
        <time>2015-06-07T06:20:08Z</time>
      </trkpt>
      <trkpt lat="47.92035" lon="-1.75079">
        <ele>39</ele>
        <time>2015-06-07T06:20:09Z</time>
      </trkpt>
      <trkpt lat="47.92034" lon="-1.75076">
        <ele>38</ele>
        <time>2015-06-07T06:20:10Z</time>
      </trkpt>
      <trkpt lat="47.92033" lon="-1.75074">
        <ele>38</ele>
        <time>2015-06-07T06:20:11Z</time>
      </trkpt>
      <trkpt lat="47.92032" lon="-1.75071">
        <ele>38</ele>
        <time>2015-06-07T06:20:12Z</time>
      </trkpt>
      <trkpt lat="47.92032" lon="-1.75067">
        <ele>38</ele>
        <time>2015-06-07T06:20:13Z</time>
      </trkpt>
      <trkpt lat="47.92031" lon="-1.75063">
        <ele>38</ele>
        <time>2015-06-07T06:20:14Z</time>
      </trkpt>
      <trkpt lat="47.9203" lon="-1.75059">
        <ele>38</ele>
        <time>2015-06-07T06:20:15Z</time>
      </trkpt>
      <trkpt lat="47.92029" lon="-1.75055">
        <ele>38</ele>
        <time>2015-06-07T06:20:16Z</time>
      </trkpt>
      <trkpt lat="47.92029" lon="-1.75052">
        <ele>38</ele>
        <time>2015-06-07T06:20:17Z</time>
      </trkpt>
      <trkpt lat="47.92028" lon="-1.75049">
        <ele>38</ele>
        <time>2015-06-07T06:20:18Z</time>
      </trkpt>
      <trkpt lat="47.92028" lon="-1.75047">
        <ele>38</ele>
        <time>2015-06-07T06:20:19Z</time>
      </trkpt>
      <trkpt lat="47.92028" lon="-1.75044">
        <ele>38</ele>
        <time>2015-06-07T06:20:20Z</time>
      </trkpt>
      <trkpt lat="47.92027" lon="-1.75042">
        <ele>38</ele>
        <time>2015-06-07T06:20:21Z</time>
      </trkpt>
      <trkpt lat="47.92027" lon="-1.75039">
        <ele>38</ele>
        <time>2015-06-07T06:20:22Z</time>
      </trkpt>
      <trkpt lat="47.92027" lon="-1.75037">
        <ele>39</ele>
        <time>2015-06-07T06:20:23Z</time>
      </trkpt>
      <trkpt lat="47.92026" lon="-1.75035">
        <ele>39</ele>
        <time>2015-06-07T06:20:24Z</time>
      </trkpt>
      <trkpt lat="47.92025" lon="-1.75033">
        <ele>39</ele>
        <time>2015-06-07T06:20:25Z</time>
      </trkpt>
      <trkpt lat="47.92025" lon="-1.7503">
        <ele>39</ele>
        <time>2015-06-07T06:20:26Z</time>
      </trkpt>
      <trkpt lat="47.92025" lon="-1.75027">
        <ele>39</ele>
        <time>2015-06-07T06:20:27Z</time>
      </trkpt>
      <trkpt lat="47.92024" lon="-1.75025">
        <ele>39</ele>
        <time>2015-06-07T06:20:28Z</time>
      </trkpt>
      <trkpt lat="47.92023" lon="-1.75022">
        <ele>40</ele>
        <time>2015-06-07T06:20:29Z</time>
      </trkpt>
      <trkpt lat="47.92022" lon="-1.75019">
        <ele>40</ele>
        <time>2015-06-07T06:20:30Z</time>
      </trkpt>
      <trkpt lat="47.92022" lon="-1.75017">
        <ele>40</ele>
        <time>2015-06-07T06:20:31Z</time>
      </trkpt>
      <trkpt lat="47.92021" lon="-1.75014">
        <ele>40</ele>
        <time>2015-06-07T06:20:32Z</time>
      </trkpt>
      <trkpt lat="47.92021" lon="-1.75012">
        <ele>41</ele>
        <time>2015-06-07T06:20:33Z</time>
      </trkpt>
      <trkpt lat="47.9202" lon="-1.7501">
        <ele>41</ele>
        <time>2015-06-07T06:20:34Z</time>
      </trkpt>
      <trkpt lat="47.92019" lon="-1.75008">
        <ele>41</ele>
        <time>2015-06-07T06:20:35Z</time>
      </trkpt>
      <trkpt lat="47.92019" lon="-1.75006">
        <ele>42</ele>
        <time>2015-06-07T06:20:36Z</time>
      </trkpt>
      <trkpt lat="47.92018" lon="-1.75004">
        <ele>42</ele>
        <time>2015-06-07T06:20:37Z</time>
      </trkpt>
      <trkpt lat="47.92018" lon="-1.75003">
        <ele>42</ele>
        <time>2015-06-07T06:20:38Z</time>
      </trkpt>
      <trkpt lat="47.92018" lon="-1.75001">
        <ele>42</ele>
        <time>2015-06-07T06:20:39Z</time>
      </trkpt>
      <trkpt lat="47.92017" lon="-1.75">
        <ele>42</ele>
        <time>2015-06-07T06:20:40Z</time>
      </trkpt>
      <trkpt lat="47.92017" lon="-1.74999">
        <ele>42</ele>
        <time>2015-06-07T06:20:41Z</time>
      </trkpt>
      <trkpt lat="47.92016" lon="-1.74998">
        <ele>42</ele>
        <time>2015-06-07T06:20:42Z</time>
      </trkpt>
      <trkpt lat="47.92015" lon="-1.74997">
        <ele>42</ele>
        <time>2015-06-07T06:20:43Z</time>
      </trkpt>
      <trkpt lat="47.92015" lon="-1.74995">
        <ele>42</ele>
        <time>2015-06-07T06:20:44Z</time>
      </trkpt>
      <trkpt lat="47.92014" lon="-1.74994">
        <ele>42</ele>
        <time>2015-06-07T06:20:45Z</time>
      </trkpt>
      <trkpt lat="47.92014" lon="-1.74992">
        <ele>43</ele>
        <time>2015-06-07T06:20:46Z</time>
      </trkpt>
      <trkpt lat="47.92015" lon="-1.7499">
        <ele>43</ele>
        <time>2015-06-07T06:20:47Z</time>
      </trkpt>
      <trkpt lat="47.92016" lon="-1.74989">
        <ele>43</ele>
        <time>2015-06-07T06:20:48Z</time>
      </trkpt>
      <trkpt lat="47.92016" lon="-1.74987">
        <ele>43</ele>
        <time>2015-06-07T06:20:49Z</time>
      </trkpt>
      <trkpt lat="47.92017" lon="-1.74985">
        <ele>43</ele>
        <time>2015-06-07T06:20:50Z</time>
      </trkpt>
      <trkpt lat="47.92017" lon="-1.74983">
        <ele>43</ele>
        <time>2015-06-07T06:20:51Z</time>
      </trkpt>
      <trkpt lat="47.92018" lon="-1.7498">
        <ele>43</ele>
        <time>2015-06-07T06:20:52Z</time>
      </trkpt>
      <trkpt lat="47.92018" lon="-1.74977">
        <ele>43</ele>
        <time>2015-06-07T06:20:53Z</time>
      </trkpt>
      <trkpt lat="47.92019" lon="-1.74973">
        <ele>43</ele>
        <time>2015-06-07T06:20:54Z</time>
      </trkpt>
      <trkpt lat="47.92019" lon="-1.7497">
        <ele>43</ele>
        <time>2015-06-07T06:20:55Z</time>
      </trkpt>
      <trkpt lat="47.9202" lon="-1.74967">
        <ele>43</ele>
        <time>2015-06-07T06:20:56Z</time>
      </trkpt>
      <trkpt lat="47.92019" lon="-1.74965">
        <ele>44</ele>
        <time>2015-06-07T06:20:57Z</time>
      </trkpt>
      <trkpt lat="47.9202" lon="-1.74963">
        <ele>44</ele>
        <time>2015-06-07T06:20:58Z</time>
      </trkpt>
      <trkpt lat="47.9202" lon="-1.7496">
        <ele>44</ele>
        <time>2015-06-07T06:20:59Z</time>
      </trkpt>
      <trkpt lat="47.9202" lon="-1.74957">
        <ele>44</ele>
        <time>2015-06-07T06:21:00Z</time>
      </trkpt>
      <trkpt lat="47.9202" lon="-1.74955">
        <ele>45</ele>
        <time>2015-06-07T06:21:01Z</time>
      </trkpt>
      <trkpt lat="47.9202" lon="-1.74952">
        <ele>45</ele>
        <time>2015-06-07T06:21:02Z</time>
      </trkpt>
      <trkpt lat="47.92021" lon="-1.74949">
        <ele>45</ele>
        <time>2015-06-07T06:21:03Z</time>
      </trkpt>
      <trkpt lat="47.92021" lon="-1.74945">
        <ele>46</ele>
        <time>2015-06-07T06:21:04Z</time>
      </trkpt>
      <trkpt lat="47.92022" lon="-1.74942">
        <ele>46</ele>
        <time>2015-06-07T06:21:05Z</time>
      </trkpt>
      <trkpt lat="47.92022" lon="-1.74939">
        <ele>46</ele>
        <time>2015-06-07T06:21:06Z</time>
      </trkpt>
      <trkpt lat="47.92023" lon="-1.74936">
        <ele>47</ele>
        <time>2015-06-07T06:21:07Z</time>
      </trkpt>
      <trkpt lat="47.92023" lon="-1.74933">
        <ele>47</ele>
        <time>2015-06-07T06:21:08Z</time>
      </trkpt>
      <trkpt lat="47.92023" lon="-1.7493">
        <ele>48</ele>
        <time>2015-06-07T06:21:09Z</time>
      </trkpt>
      <trkpt lat="47.92023" lon="-1.74926">
        <ele>48</ele>
        <time>2015-06-07T06:21:10Z</time>
      </trkpt>
      <trkpt lat="47.92024" lon="-1.74923">
        <ele>48</ele>
        <time>2015-06-07T06:21:11Z</time>
      </trkpt>
      <trkpt lat="47.92024" lon="-1.74919">
        <ele>49</ele>
        <time>2015-06-07T06:21:12Z</time>
      </trkpt>
      <trkpt lat="47.92024" lon="-1.74916">
        <ele>49</ele>
        <time>2015-06-07T06:21:13Z</time>
      </trkpt>
      <trkpt lat="47.92025" lon="-1.74912">
        <ele>49</ele>
        <time>2015-06-07T06:21:14Z</time>
      </trkpt>
      <trkpt lat="47.92025" lon="-1.74908">
        <ele>50</ele>
        <time>2015-06-07T06:21:15Z</time>
      </trkpt>
      <trkpt lat="47.92025" lon="-1.74905">
        <ele>50</ele>
        <time>2015-06-07T06:21:16Z</time>
      </trkpt>
      <trkpt lat="47.92026" lon="-1.74901">
        <ele>50</ele>
        <time>2015-06-07T06:21:17Z</time>
      </trkpt>
      <trkpt lat="47.92026" lon="-1.74897">
        <ele>50</ele>
        <time>2015-06-07T06:21:18Z</time>
      </trkpt>
      <trkpt lat="47.92026" lon="-1.74893">
        <ele>50</ele>
        <time>2015-06-07T06:21:19Z</time>
      </trkpt>
      <trkpt lat="47.92026" lon="-1.7489">
        <ele>51</ele>
        <time>2015-06-07T06:21:20Z</time>
      </trkpt>
      <trkpt lat="47.92025" lon="-1.74886">
        <ele>51</ele>
        <time>2015-06-07T06:21:21Z</time>
      </trkpt>
      <trkpt lat="47.92025" lon="-1.74883">
        <ele>51</ele>
        <time>2015-06-07T06:21:22Z</time>
      </trkpt>
      <trkpt lat="47.92025" lon="-1.74879">
        <ele>51</ele>
        <time>2015-06-07T06:21:23Z</time>
      </trkpt>
      <trkpt lat="47.92026" lon="-1.74875">
        <ele>51</ele>
        <time>2015-06-07T06:21:24Z</time>
      </trkpt>
      <trkpt lat="47.92026" lon="-1.74871">
        <ele>51</ele>
        <time>2015-06-07T06:21:25Z</time>
      </trkpt>
      <trkpt lat="47.92025" lon="-1.74867">
        <ele>51</ele>
        <time>2015-06-07T06:21:26Z</time>
      </trkpt>
      <trkpt lat="47.92025" lon="-1.74863">
        <ele>52</ele>
        <time>2015-06-07T06:21:27Z</time>
      </trkpt>
      <trkpt lat="47.92024" lon="-1.7486">
        <ele>52</ele>
        <time>2015-06-07T06:21:28Z</time>
      </trkpt>
      <trkpt lat="47.92024" lon="-1.74855">
        <ele>52</ele>
        <time>2015-06-07T06:21:29Z</time>
      </trkpt>
      <trkpt lat="47.92025" lon="-1.74851">
        <ele>52</ele>
        <time>2015-06-07T06:21:30Z</time>
      </trkpt>
      <trkpt lat="47.92025" lon="-1.74847">
        <ele>52</ele>
        <time>2015-06-07T06:21:31Z</time>
      </trkpt>
      <trkpt lat="47.92025" lon="-1.74843">
        <ele>52</ele>
        <time>2015-06-07T06:21:32Z</time>
      </trkpt>
      <trkpt lat="47.92025" lon="-1.74838">
        <ele>52</ele>
        <time>2015-06-07T06:21:33Z</time>
      </trkpt>
      <trkpt lat="47.92025" lon="-1.74833">
        <ele>52</ele>
        <time>2015-06-07T06:21:34Z</time>
      </trkpt>
      <trkpt lat="47.92025" lon="-1.7483">
        <ele>52</ele>
        <time>2015-06-07T06:21:35Z</time>
      </trkpt>
      <trkpt lat="47.92025" lon="-1.74825">
        <ele>52</ele>
        <time>2015-06-07T06:21:36Z</time>
      </trkpt>
      <trkpt lat="47.92025" lon="-1.74821">
        <ele>52</ele>
        <time>2015-06-07T06:21:37Z</time>
      </trkpt>
      <trkpt lat="47.92025" lon="-1.74817">
        <ele>52</ele>
        <time>2015-06-07T06:21:38Z</time>
      </trkpt>
      <trkpt lat="47.92025" lon="-1.74813">
        <ele>52</ele>
        <time>2015-06-07T06:21:39Z</time>
      </trkpt>
      <trkpt lat="47.92026" lon="-1.74809">
        <ele>52</ele>
        <time>2015-06-07T06:21:40Z</time>
      </trkpt>
      <trkpt lat="47.92027" lon="-1.74806">
        <ele>52</ele>
        <time>2015-06-07T06:21:41Z</time>
      </trkpt>
      <trkpt lat="47.92027" lon="-1.74802">
        <ele>52</ele>
        <time>2015-06-07T06:21:42Z</time>
      </trkpt>
      <trkpt lat="47.92027" lon="-1.74798">
        <ele>52</ele>
        <time>2015-06-07T06:21:43Z</time>
      </trkpt>
      <trkpt lat="47.92028" lon="-1.74794">
        <ele>52</ele>
        <time>2015-06-07T06:21:44Z</time>
      </trkpt>
      <trkpt lat="47.92029" lon="-1.74789">
        <ele>51</ele>
        <time>2015-06-07T06:21:45Z</time>
      </trkpt>
      <trkpt lat="47.9203" lon="-1.74784">
        <ele>51</ele>
        <time>2015-06-07T06:21:46Z</time>
      </trkpt>
      <trkpt lat="47.92031" lon="-1.74779">
        <ele>51</ele>
        <time>2015-06-07T06:21:47Z</time>
      </trkpt>
      <trkpt lat="47.92032" lon="-1.74774">
        <ele>51</ele>
        <time>2015-06-07T06:21:48Z</time>
      </trkpt>
      <trkpt lat="47.92033" lon="-1.74769">
        <ele>51</ele>
        <time>2015-06-07T06:21:49Z</time>
      </trkpt>
      <trkpt lat="47.92035" lon="-1.74764">
        <ele>51</ele>
        <time>2015-06-07T06:21:50Z</time>
      </trkpt>
      <trkpt lat="47.92036" lon="-1.74759">
        <ele>51</ele>
        <time>2015-06-07T06:21:51Z</time>
      </trkpt>
      <trkpt lat="47.92038" lon="-1.74754">
        <ele>51</ele>
        <time>2015-06-07T06:21:52Z</time>
      </trkpt>
      <trkpt lat="47.92039" lon="-1.74749">
        <ele>51</ele>
        <time>2015-06-07T06:21:53Z</time>
      </trkpt>
      <trkpt lat="47.92041" lon="-1.74745">
        <ele>51</ele>
        <time>2015-06-07T06:21:54Z</time>
      </trkpt>
      <trkpt lat="47.92042" lon="-1.74742">
        <ele>51</ele>
        <time>2015-06-07T06:21:55Z</time>
      </trkpt>
      <trkpt lat="47.92043" lon="-1.74737">
        <ele>51</ele>
        <time>2015-06-07T06:21:56Z</time>
      </trkpt>
      <trkpt lat="47.92044" lon="-1.74732">
        <ele>51</ele>
        <time>2015-06-07T06:21:57Z</time>
      </trkpt>
      <trkpt lat="47.92046" lon="-1.74728">
        <ele>51</ele>
        <time>2015-06-07T06:21:58Z</time>
      </trkpt>
      <trkpt lat="47.92047" lon="-1.74723">
        <ele>51</ele>
        <time>2015-06-07T06:21:59Z</time>
      </trkpt>
      <trkpt lat="47.92048" lon="-1.74718">
        <ele>51</ele>
        <time>2015-06-07T06:22:00Z</time>
      </trkpt>
      <trkpt lat="47.92049" lon="-1.74713">
        <ele>51</ele>
        <time>2015-06-07T06:22:01Z</time>
      </trkpt>
      <trkpt lat="47.92049" lon="-1.74709">
        <ele>52</ele>
        <time>2015-06-07T06:22:02Z</time>
      </trkpt>
      <trkpt lat="47.92051" lon="-1.74704">
        <ele>52</ele>
        <time>2015-06-07T06:22:03Z</time>
      </trkpt>
      <trkpt lat="47.92052" lon="-1.74699">
        <ele>52</ele>
        <time>2015-06-07T06:22:04Z</time>
      </trkpt>
      <trkpt lat="47.92054" lon="-1.74694">
        <ele>52</ele>
        <time>2015-06-07T06:22:05Z</time>
      </trkpt>
      <trkpt lat="47.92055" lon="-1.74689">
        <ele>52</ele>
        <time>2015-06-07T06:22:06Z</time>
      </trkpt>
      <trkpt lat="47.92057" lon="-1.74685">
        <ele>53</ele>
        <time>2015-06-07T06:22:07Z</time>
      </trkpt>
      <trkpt lat="47.92058" lon="-1.74681">
        <ele>53</ele>
        <time>2015-06-07T06:22:08Z</time>
      </trkpt>
      <trkpt lat="47.9206" lon="-1.74677">
        <ele>53</ele>
        <time>2015-06-07T06:22:09Z</time>
      </trkpt>
      <trkpt lat="47.92063" lon="-1.74672">
        <ele>53</ele>
        <time>2015-06-07T06:22:10Z</time>
      </trkpt>
      <trkpt lat="47.92066" lon="-1.74667">
        <ele>53</ele>
        <time>2015-06-07T06:22:11Z</time>
      </trkpt>
      <trkpt lat="47.9207" lon="-1.74662">
        <ele>53</ele>
        <time>2015-06-07T06:22:12Z</time>
      </trkpt>
      <trkpt lat="47.92074" lon="-1.74656">
        <ele>53</ele>
        <time>2015-06-07T06:22:13Z</time>
      </trkpt>
      <trkpt lat="47.92078" lon="-1.74652">
        <ele>53</ele>
        <time>2015-06-07T06:22:14Z</time>
      </trkpt>
      <trkpt lat="47.92082" lon="-1.74649">
        <ele>53</ele>
        <time>2015-06-07T06:22:15Z</time>
      </trkpt>
      <trkpt lat="47.92087" lon="-1.74644">
        <ele>53</ele>
        <time>2015-06-07T06:22:16Z</time>
      </trkpt>
      <trkpt lat="47.92092" lon="-1.74639">
        <ele>53</ele>
        <time>2015-06-07T06:22:17Z</time>
      </trkpt>
      <trkpt lat="47.92097" lon="-1.74634">
        <ele>53</ele>
        <time>2015-06-07T06:22:18Z</time>
      </trkpt>
      <trkpt lat="47.92104" lon="-1.74628">
        <ele>53</ele>
        <time>2015-06-07T06:22:19Z</time>
      </trkpt>
      <trkpt lat="47.9211" lon="-1.74622">
        <ele>52</ele>
        <time>2015-06-07T06:22:20Z</time>
      </trkpt>
      <trkpt lat="47.92117" lon="-1.74617">
        <ele>52</ele>
        <time>2015-06-07T06:22:21Z</time>
      </trkpt>
      <trkpt lat="47.92123" lon="-1.74611">
        <ele>52</ele>
        <time>2015-06-07T06:22:22Z</time>
      </trkpt>
      <trkpt lat="47.92129" lon="-1.74606">
        <ele>51</ele>
        <time>2015-06-07T06:22:23Z</time>
      </trkpt>
      <trkpt lat="47.92135" lon="-1.74601">
        <ele>51</ele>
        <time>2015-06-07T06:22:24Z</time>
      </trkpt>
      <trkpt lat="47.92142" lon="-1.74597">
        <ele>51</ele>
        <time>2015-06-07T06:22:25Z</time>
      </trkpt>
      <trkpt lat="47.92148" lon="-1.74593">
        <ele>50</ele>
        <time>2015-06-07T06:22:26Z</time>
      </trkpt>
      <trkpt lat="47.92154" lon="-1.7459">
        <ele>50</ele>
        <time>2015-06-07T06:22:27Z</time>
      </trkpt>
      <trkpt lat="47.92159" lon="-1.74587">
        <ele>50</ele>
        <time>2015-06-07T06:22:28Z</time>
      </trkpt>
      <trkpt lat="47.92165" lon="-1.74584">
        <ele>50</ele>
        <time>2015-06-07T06:22:29Z</time>
      </trkpt>
      <trkpt lat="47.92171" lon="-1.74579">
        <ele>49</ele>
        <time>2015-06-07T06:22:30Z</time>
      </trkpt>
      <trkpt lat="47.92176" lon="-1.74575">
        <ele>49</ele>
        <time>2015-06-07T06:22:31Z</time>
      </trkpt>
      <trkpt lat="47.92181" lon="-1.74572">
        <ele>49</ele>
        <time>2015-06-07T06:22:32Z</time>
      </trkpt>
      <trkpt lat="47.92186" lon="-1.74567">
        <ele>48</ele>
        <time>2015-06-07T06:22:33Z</time>
      </trkpt>
      <trkpt lat="47.92192" lon="-1.74562">
        <ele>48</ele>
        <time>2015-06-07T06:22:34Z</time>
      </trkpt>
      <trkpt lat="47.92199" lon="-1.74557">
        <ele>48</ele>
        <time>2015-06-07T06:22:35Z</time>
      </trkpt>
      <trkpt lat="47.92206" lon="-1.74552">
        <ele>48</ele>
        <time>2015-06-07T06:22:36Z</time>
      </trkpt>
      <trkpt lat="47.92213" lon="-1.74548">
        <ele>47</ele>
        <time>2015-06-07T06:22:37Z</time>
      </trkpt>
      <trkpt lat="47.9222" lon="-1.74543">
        <ele>47</ele>
        <time>2015-06-07T06:22:38Z</time>
      </trkpt>
      <trkpt lat="47.92228" lon="-1.74537">
        <ele>47</ele>
        <time>2015-06-07T06:22:39Z</time>
      </trkpt>
      <trkpt lat="47.92236" lon="-1.74531">
        <ele>46</ele>
        <time>2015-06-07T06:22:40Z</time>
      </trkpt>
      <trkpt lat="47.92243" lon="-1.74524">
        <ele>46</ele>
        <time>2015-06-07T06:22:41Z</time>
      </trkpt>
      <trkpt lat="47.92249" lon="-1.74515">
        <ele>45</ele>
        <time>2015-06-07T06:22:42Z</time>
      </trkpt>
      <trkpt lat="47.92253" lon="-1.74504">
        <ele>45</ele>
        <time>2015-06-07T06:22:43Z</time>
      </trkpt>
      <trkpt lat="47.92258" lon="-1.74494">
        <ele>44</ele>
        <time>2015-06-07T06:22:44Z</time>
      </trkpt>
      <trkpt lat="47.92262" lon="-1.74484">
        <ele>44</ele>
        <time>2015-06-07T06:22:45Z</time>
      </trkpt>
      <trkpt lat="47.92268" lon="-1.74476">
        <ele>43</ele>
        <time>2015-06-07T06:22:46Z</time>
      </trkpt>
      <trkpt lat="47.92273" lon="-1.74471">
        <ele>43</ele>
        <time>2015-06-07T06:22:47Z</time>
      </trkpt>
      <trkpt lat="47.92279" lon="-1.74467">
        <ele>42</ele>
        <time>2015-06-07T06:22:48Z</time>
      </trkpt>
      <trkpt lat="47.92284" lon="-1.74464">
        <ele>41</ele>
        <time>2015-06-07T06:22:49Z</time>
      </trkpt>
      <trkpt lat="47.9229" lon="-1.74459">
        <ele>40</ele>
        <time>2015-06-07T06:22:50Z</time>
      </trkpt>
      <trkpt lat="47.92296" lon="-1.74454">
        <ele>39</ele>
        <time>2015-06-07T06:22:51Z</time>
      </trkpt>
      <trkpt lat="47.92301" lon="-1.74448">
        <ele>39</ele>
        <time>2015-06-07T06:22:52Z</time>
      </trkpt>
      <trkpt lat="47.92306" lon="-1.74442">
        <ele>38</ele>
        <time>2015-06-07T06:22:53Z</time>
      </trkpt>
      <trkpt lat="47.9231" lon="-1.74436">
        <ele>37</ele>
        <time>2015-06-07T06:22:54Z</time>
      </trkpt>
      <trkpt lat="47.92314" lon="-1.74431">
        <ele>36</ele>
        <time>2015-06-07T06:22:55Z</time>
      </trkpt>
      <trkpt lat="47.92318" lon="-1.74426">
        <ele>36</ele>
        <time>2015-06-07T06:22:56Z</time>
      </trkpt>
      <trkpt lat="47.92322" lon="-1.74422">
        <ele>35</ele>
        <time>2015-06-07T06:22:57Z</time>
      </trkpt>
      <trkpt lat="47.92326" lon="-1.74419">
        <ele>35</ele>
        <time>2015-06-07T06:22:58Z</time>
      </trkpt>
      <trkpt lat="47.9233" lon="-1.74418">
        <ele>34</ele>
        <time>2015-06-07T06:22:59Z</time>
      </trkpt>
      <trkpt lat="47.92334" lon="-1.74417">
        <ele>34</ele>
        <time>2015-06-07T06:23:00Z</time>
      </trkpt>
      <trkpt lat="47.92339" lon="-1.74417">
        <ele>33</ele>
        <time>2015-06-07T06:23:01Z</time>
      </trkpt>
      <trkpt lat="47.92343" lon="-1.74417">
        <ele>33</ele>
        <time>2015-06-07T06:23:02Z</time>
      </trkpt>
      <trkpt lat="47.92348" lon="-1.74416">
        <ele>32</ele>
        <time>2015-06-07T06:23:03Z</time>
      </trkpt>
      <trkpt lat="47.92352" lon="-1.74417">
        <ele>32</ele>
        <time>2015-06-07T06:23:04Z</time>
      </trkpt>
      <trkpt lat="47.92356" lon="-1.74417">
        <ele>31</ele>
        <time>2015-06-07T06:23:05Z</time>
      </trkpt>
      <trkpt lat="47.9236" lon="-1.74417">
        <ele>31</ele>
        <time>2015-06-07T06:23:06Z</time>
      </trkpt>
      <trkpt lat="47.92364" lon="-1.74417">
        <ele>30</ele>
        <time>2015-06-07T06:23:07Z</time>
      </trkpt>
      <trkpt lat="47.92367" lon="-1.74417">
        <ele>30</ele>
        <time>2015-06-07T06:23:08Z</time>
      </trkpt>
      <trkpt lat="47.9237" lon="-1.74417">
        <ele>30</ele>
        <time>2015-06-07T06:23:09Z</time>
      </trkpt>
      <trkpt lat="47.92373" lon="-1.74417">
        <ele>30</ele>
        <time>2015-06-07T06:23:10Z</time>
      </trkpt>
      <trkpt lat="47.92376" lon="-1.74417">
        <ele>29</ele>
        <time>2015-06-07T06:23:11Z</time>
      </trkpt>
      <trkpt lat="47.9238" lon="-1.74416">
        <ele>29</ele>
        <time>2015-06-07T06:23:12Z</time>
      </trkpt>
      <trkpt lat="47.92384" lon="-1.74415">
        <ele>29</ele>
        <time>2015-06-07T06:23:13Z</time>
      </trkpt>
      <trkpt lat="47.92388" lon="-1.74414">
        <ele>29</ele>
        <time>2015-06-07T06:23:14Z</time>
      </trkpt>
      <trkpt lat="47.92392" lon="-1.74413">
        <ele>29</ele>
        <time>2015-06-07T06:23:15Z</time>
      </trkpt>
      <trkpt lat="47.92396" lon="-1.74413">
        <ele>29</ele>
        <time>2015-06-07T06:23:16Z</time>
      </trkpt>
      <trkpt lat="47.924" lon="-1.74412">
        <ele>28</ele>
        <time>2015-06-07T06:23:17Z</time>
      </trkpt>
      <trkpt lat="47.92404" lon="-1.74412">
        <ele>28</ele>
        <time>2015-06-07T06:23:18Z</time>
      </trkpt>
      <trkpt lat="47.92408" lon="-1.74413">
        <ele>28</ele>
        <time>2015-06-07T06:23:19Z</time>
      </trkpt>
      <trkpt lat="47.92413" lon="-1.74413">
        <ele>28</ele>
        <time>2015-06-07T06:23:20Z</time>
      </trkpt>
      <trkpt lat="47.92418" lon="-1.74413">
        <ele>28</ele>
        <time>2015-06-07T06:23:21Z</time>
      </trkpt>
      <trkpt lat="47.92422" lon="-1.74414">
        <ele>28</ele>
        <time>2015-06-07T06:23:22Z</time>
      </trkpt>
      <trkpt lat="47.92427" lon="-1.74415">
        <ele>28</ele>
        <time>2015-06-07T06:23:23Z</time>
      </trkpt>
      <trkpt lat="47.92432" lon="-1.74416">
        <ele>28</ele>
        <time>2015-06-07T06:23:24Z</time>
      </trkpt>
      <trkpt lat="47.92438" lon="-1.74417">
        <ele>28</ele>
        <time>2015-06-07T06:23:25Z</time>
      </trkpt>
      <trkpt lat="47.92443" lon="-1.74417">
        <ele>28</ele>
        <time>2015-06-07T06:23:26Z</time>
      </trkpt>
      <trkpt lat="47.92448" lon="-1.74418">
        <ele>28</ele>
        <time>2015-06-07T06:23:27Z</time>
      </trkpt>
      <trkpt lat="47.92453" lon="-1.74419">
        <ele>28</ele>
        <time>2015-06-07T06:23:28Z</time>
      </trkpt>
      <trkpt lat="47.92456" lon="-1.74419">
        <ele>28</ele>
        <time>2015-06-07T06:23:29Z</time>
      </trkpt>
      <trkpt lat="47.92458" lon="-1.74417">
        <ele>28</ele>
        <time>2015-06-07T06:23:30Z</time>
      </trkpt>
      <trkpt lat="47.92461" lon="-1.74416">
        <ele>28</ele>
        <time>2015-06-07T06:23:31Z</time>
      </trkpt>
      <trkpt lat="47.92464" lon="-1.74417">
        <ele>28</ele>
        <time>2015-06-07T06:23:32Z</time>
      </trkpt>
      <trkpt lat="47.92465" lon="-1.74418">
        <ele>28</ele>
        <time>2015-06-07T06:23:33Z</time>
      </trkpt>
      <trkpt lat="47.92468" lon="-1.74419">
        <ele>28</ele>
        <time>2015-06-07T06:23:34Z</time>
      </trkpt>
      <trkpt lat="47.92469" lon="-1.7442">
        <ele>28</ele>
        <time>2015-06-07T06:23:35Z</time>
      </trkpt>
      <trkpt lat="47.92471" lon="-1.7442">
        <ele>28</ele>
        <time>2015-06-07T06:23:36Z</time>
      </trkpt>
      <trkpt lat="47.92471" lon="-1.74421">
        <ele>28</ele>
        <time>2015-06-07T06:23:37Z</time>
      </trkpt>
      <trkpt lat="47.92472" lon="-1.74421">
        <ele>28</ele>
        <time>2015-06-07T06:23:38Z</time>
      </trkpt>
      <trkpt lat="47.92472" lon="-1.74421">
        <ele>28</ele>
        <time>2015-06-07T06:23:39Z</time>
      </trkpt>
      <trkpt lat="47.92473" lon="-1.74421">
        <ele>28</ele>
        <time>2015-06-07T06:23:40Z</time>
      </trkpt>
      <trkpt lat="47.92473" lon="-1.74421">
        <ele>28</ele>
        <time>2015-06-07T06:23:41Z</time>
      </trkpt>
      <trkpt lat="47.92474" lon="-1.74421">
        <ele>28</ele>
        <time>2015-06-07T06:23:42Z</time>
      </trkpt>
      <trkpt lat="47.92474" lon="-1.74421">
        <ele>28</ele>
        <time>2015-06-07T06:23:43Z</time>
      </trkpt>
      <trkpt lat="47.92469" lon="-1.74418">
        <ele>27</ele>
        <time>2015-06-07T06:23:44Z</time>
      </trkpt>
      <trkpt lat="47.92468" lon="-1.74416">
        <ele>27</ele>
        <time>2015-06-07T06:23:45Z</time>
      </trkpt>
      <trkpt lat="47.92466" lon="-1.74415">
        <ele>27</ele>
        <time>2015-06-07T06:23:46Z</time>
      </trkpt>
      <trkpt lat="47.92465" lon="-1.74415">
        <ele>27</ele>
        <time>2015-06-07T06:23:47Z</time>
      </trkpt>
      <trkpt lat="47.92463" lon="-1.74415">
        <ele>27</ele>
        <time>2015-06-07T06:23:48Z</time>
      </trkpt>
      <trkpt lat="47.9246" lon="-1.74415">
        <ele>26</ele>
        <time>2015-06-07T06:23:49Z</time>
      </trkpt>
      <trkpt lat="47.92457" lon="-1.74414">
        <ele>26</ele>
        <time>2015-06-07T06:23:50Z</time>
      </trkpt>
      <trkpt lat="47.92454" lon="-1.74413">
        <ele>26</ele>
        <time>2015-06-07T06:23:51Z</time>
      </trkpt>
      <trkpt lat="47.92451" lon="-1.74411">
        <ele>26</ele>
        <time>2015-06-07T06:23:52Z</time>
      </trkpt>
      <trkpt lat="47.92447" lon="-1.74409">
        <ele>25</ele>
        <time>2015-06-07T06:23:53Z</time>
      </trkpt>
      <trkpt lat="47.92444" lon="-1.74407">
        <ele>25</ele>
        <time>2015-06-07T06:23:54Z</time>
      </trkpt>
      <trkpt lat="47.9244" lon="-1.74406">
        <ele>25</ele>
        <time>2015-06-07T06:23:55Z</time>
      </trkpt>
      <trkpt lat="47.92436" lon="-1.74405">
        <ele>25</ele>
        <time>2015-06-07T06:23:56Z</time>
      </trkpt>
      <trkpt lat="47.92433" lon="-1.74404">
        <ele>25</ele>
        <time>2015-06-07T06:23:57Z</time>
      </trkpt>
      <trkpt lat="47.9243" lon="-1.74403">
        <ele>25</ele>
        <time>2015-06-07T06:23:58Z</time>
      </trkpt>
      <trkpt lat="47.92426" lon="-1.74403">
        <ele>25</ele>
        <time>2015-06-07T06:23:59Z</time>
      </trkpt>
      <trkpt lat="47.92423" lon="-1.74402">
        <ele>25</ele>
        <time>2015-06-07T06:24:00Z</time>
      </trkpt>
      <trkpt lat="47.92421" lon="-1.74401">
        <ele>25</ele>
        <time>2015-06-07T06:24:01Z</time>
      </trkpt>
      <trkpt lat="47.92418" lon="-1.74401">
        <ele>25</ele>
        <time>2015-06-07T06:24:02Z</time>
      </trkpt>
      <trkpt lat="47.92415" lon="-1.74401">
        <ele>25</ele>
        <time>2015-06-07T06:24:03Z</time>
      </trkpt>
      <trkpt lat="47.92413" lon="-1.74401">
        <ele>25</ele>
        <time>2015-06-07T06:24:04Z</time>
      </trkpt>
      <trkpt lat="47.92411" lon="-1.74401">
        <ele>25</ele>
        <time>2015-06-07T06:24:05Z</time>
      </trkpt>
      <trkpt lat="47.92408" lon="-1.744">
        <ele>25</ele>
        <time>2015-06-07T06:24:06Z</time>
      </trkpt>
      <trkpt lat="47.92406" lon="-1.74401">
        <ele>25</ele>
        <time>2015-06-07T06:24:07Z</time>
      </trkpt>
      <trkpt lat="47.92403" lon="-1.74401">
        <ele>25</ele>
        <time>2015-06-07T06:24:08Z</time>
      </trkpt>
      <trkpt lat="47.92401" lon="-1.74402">
        <ele>25</ele>
        <time>2015-06-07T06:24:09Z</time>
      </trkpt>
      <trkpt lat="47.92399" lon="-1.74403">
        <ele>25</ele>
        <time>2015-06-07T06:24:10Z</time>
      </trkpt>
      <trkpt lat="47.92398" lon="-1.74403">
        <ele>25</ele>
        <time>2015-06-07T06:24:11Z</time>
      </trkpt>
      <trkpt lat="47.92396" lon="-1.74403">
        <ele>25</ele>
        <time>2015-06-07T06:24:12Z</time>
      </trkpt>
      <trkpt lat="47.92396" lon="-1.74403">
        <ele>26</ele>
        <time>2015-06-07T06:24:13Z</time>
      </trkpt>
      <trkpt lat="47.92395" lon="-1.74401">
        <ele>26</ele>
        <time>2015-06-07T06:24:14Z</time>
      </trkpt>
      <trkpt lat="47.92396" lon="-1.744">
        <ele>26</ele>
        <time>2015-06-07T06:24:15Z</time>
      </trkpt>
      <trkpt lat="47.92396" lon="-1.744">
        <ele>26</ele>
        <time>2015-06-07T06:24:16Z</time>
      </trkpt>
      <trkpt lat="47.92397" lon="-1.74401">
        <ele>26</ele>
        <time>2015-06-07T06:24:17Z</time>
      </trkpt>
      <trkpt lat="47.92398" lon="-1.74401">
        <ele>26</ele>
        <time>2015-06-07T06:24:18Z</time>
      </trkpt>
      <trkpt lat="47.92399" lon="-1.74402">
        <ele>26</ele>
        <time>2015-06-07T06:24:19Z</time>
      </trkpt>
      <trkpt lat="47.924" lon="-1.74402">
        <ele>26</ele>
        <time>2015-06-07T06:24:20Z</time>
      </trkpt>
      <trkpt lat="47.92401" lon="-1.74402">
        <ele>26</ele>
        <time>2015-06-07T06:24:21Z</time>
      </trkpt>
      <trkpt lat="47.92401" lon="-1.74402">
        <ele>27</ele>
        <time>2015-06-07T06:24:22Z</time>
      </trkpt>
      <trkpt lat="47.92401" lon="-1.74403">
        <ele>27</ele>
        <time>2015-06-07T06:24:23Z</time>
      </trkpt>
      <trkpt lat="47.92401" lon="-1.74403">
        <ele>27</ele>
        <time>2015-06-07T06:24:24Z</time>
      </trkpt>
      <trkpt lat="47.92401" lon="-1.74403">
        <ele>27</ele>
        <time>2015-06-07T06:24:25Z</time>
      </trkpt>
      <trkpt lat="47.924" lon="-1.74404">
        <ele>27</ele>
        <time>2015-06-07T06:24:26Z</time>
      </trkpt>
      <trkpt lat="47.92399" lon="-1.74405">
        <ele>27</ele>
        <time>2015-06-07T06:24:27Z</time>
      </trkpt>
      <trkpt lat="47.92399" lon="-1.74405">
        <ele>27</ele>
        <time>2015-06-07T06:24:28Z</time>
      </trkpt>
      <trkpt lat="47.92398" lon="-1.74404">
        <ele>27</ele>
        <time>2015-06-07T06:24:29Z</time>
      </trkpt>
      <trkpt lat="47.92398" lon="-1.74405">
        <ele>27</ele>
        <time>2015-06-07T06:24:30Z</time>
      </trkpt>
      <trkpt lat="47.92398" lon="-1.74405">
        <ele>27</ele>
        <time>2015-06-07T06:24:31Z</time>
      </trkpt>
      <trkpt lat="47.92398" lon="-1.74405">
        <ele>27</ele>
        <time>2015-06-07T06:24:32Z</time>
      </trkpt>
      <trkpt lat="47.92398" lon="-1.74406">
        <ele>27</ele>
        <time>2015-06-07T06:24:33Z</time>
      </trkpt>
      <trkpt lat="47.92398" lon="-1.74406">
        <ele>27</ele>
        <time>2015-06-07T06:24:34Z</time>
      </trkpt>
      <trkpt lat="47.92398" lon="-1.74406">
        <ele>27</ele>
        <time>2015-06-07T06:24:35Z</time>
      </trkpt>
      <trkpt lat="47.92398" lon="-1.74406">
        <ele>27</ele>
        <time>2015-06-07T06:24:36Z</time>
      </trkpt>
      <trkpt lat="47.92389" lon="-1.74408">
        <ele>26</ele>
        <time>2015-06-07T06:24:37Z</time>
      </trkpt>
      <trkpt lat="47.92386" lon="-1.74409">
        <ele>26</ele>
        <time>2015-06-07T06:24:38Z</time>
      </trkpt>
      <trkpt lat="47.92383" lon="-1.74409">
        <ele>26</ele>
        <time>2015-06-07T06:24:39Z</time>
      </trkpt>
      <trkpt lat="47.9238" lon="-1.74409">
        <ele>26</ele>
        <time>2015-06-07T06:24:40Z</time>
      </trkpt>
      <trkpt lat="47.92377" lon="-1.74409">
        <ele>27</ele>
        <time>2015-06-07T06:24:41Z</time>
      </trkpt>
      <trkpt lat="47.92374" lon="-1.74409">
        <ele>27</ele>
        <time>2015-06-07T06:24:42Z</time>
      </trkpt>
      <trkpt lat="47.9237" lon="-1.7441">
        <ele>27</ele>
        <time>2015-06-07T06:24:43Z</time>
      </trkpt>
      <trkpt lat="47.92366" lon="-1.74409">
        <ele>27</ele>
        <time>2015-06-07T06:24:44Z</time>
      </trkpt>
      <trkpt lat="47.92362" lon="-1.74409">
        <ele>27</ele>
        <time>2015-06-07T06:24:45Z</time>
      </trkpt>
      <trkpt lat="47.92358" lon="-1.74408">
        <ele>27</ele>
        <time>2015-06-07T06:24:46Z</time>
      </trkpt>
      <trkpt lat="47.92354" lon="-1.74408">
        <ele>27</ele>
        <time>2015-06-07T06:24:47Z</time>
      </trkpt>
      <trkpt lat="47.9235" lon="-1.74407">
        <ele>27</ele>
        <time>2015-06-07T06:24:48Z</time>
      </trkpt>
      <trkpt lat="47.92346" lon="-1.74407">
        <ele>27</ele>
        <time>2015-06-07T06:24:49Z</time>
      </trkpt>
      <trkpt lat="47.92343" lon="-1.74406">
        <ele>27</ele>
        <time>2015-06-07T06:24:50Z</time>
      </trkpt>
      <trkpt lat="47.92339" lon="-1.74406">
        <ele>27</ele>
        <time>2015-06-07T06:24:51Z</time>
      </trkpt>
      <trkpt lat="47.92335" lon="-1.74407">
        <ele>27</ele>
        <time>2015-06-07T06:24:52Z</time>
      </trkpt>
      <trkpt lat="47.92331" lon="-1.74408">
        <ele>27</ele>
        <time>2015-06-07T06:24:53Z</time>
      </trkpt>
      <trkpt lat="47.92328" lon="-1.74411">
        <ele>27</ele>
        <time>2015-06-07T06:24:54Z</time>
      </trkpt>
      <trkpt lat="47.92324" lon="-1.74415">
        <ele>26</ele>
        <time>2015-06-07T06:24:55Z</time>
      </trkpt>
      <trkpt lat="47.9232" lon="-1.7442">
        <ele>26</ele>
        <time>2015-06-07T06:24:56Z</time>
      </trkpt>
      <trkpt lat="47.92316" lon="-1.74424">
        <ele>27</ele>
        <time>2015-06-07T06:24:57Z</time>
      </trkpt>
      <trkpt lat="47.92313" lon="-1.74429">
        <ele>27</ele>
        <time>2015-06-07T06:24:58Z</time>
      </trkpt>
      <trkpt lat="47.92308" lon="-1.74433">
        <ele>26</ele>
        <time>2015-06-07T06:24:59Z</time>
      </trkpt>
      <trkpt lat="47.92304" lon="-1.74437">
        <ele>26</ele>
        <time>2015-06-07T06:25:00Z</time>
      </trkpt>
      <trkpt lat="47.923" lon="-1.74441">
        <ele>26</ele>
        <time>2015-06-07T06:25:01Z</time>
      </trkpt>
      <trkpt lat="47.92296" lon="-1.74444">
        <ele>26</ele>
        <time>2015-06-07T06:25:02Z</time>
      </trkpt>
      <trkpt lat="47.92292" lon="-1.74446">
        <ele>26</ele>
        <time>2015-06-07T06:25:03Z</time>
      </trkpt>
      <trkpt lat="47.92289" lon="-1.74447">
        <ele>26</ele>
        <time>2015-06-07T06:25:04Z</time>
      </trkpt>
      <trkpt lat="47.92286" lon="-1.74446">
        <ele>26</ele>
        <time>2015-06-07T06:25:05Z</time>
      </trkpt>
      <trkpt lat="47.92283" lon="-1.74445">
        <ele>25</ele>
        <time>2015-06-07T06:25:06Z</time>
      </trkpt>
      <trkpt lat="47.9228" lon="-1.74445">
        <ele>25</ele>
        <time>2015-06-07T06:25:07Z</time>
      </trkpt>
      <trkpt lat="47.92277" lon="-1.74444">
        <ele>25</ele>
        <time>2015-06-07T06:25:08Z</time>
      </trkpt>
      <trkpt lat="47.92274" lon="-1.74442">
        <ele>25</ele>
        <time>2015-06-07T06:25:09Z</time>
      </trkpt>
      <trkpt lat="47.92271" lon="-1.7444">
        <ele>25</ele>
        <time>2015-06-07T06:25:10Z</time>
      </trkpt>
      <trkpt lat="47.92268" lon="-1.74437">
        <ele>25</ele>
        <time>2015-06-07T06:25:11Z</time>
      </trkpt>
      <trkpt lat="47.92264" lon="-1.74434">
        <ele>25</ele>
        <time>2015-06-07T06:25:12Z</time>
      </trkpt>
      <trkpt lat="47.92261" lon="-1.74433">
        <ele>25</ele>
        <time>2015-06-07T06:25:13Z</time>
      </trkpt>
      <trkpt lat="47.92257" lon="-1.7443">
        <ele>25</ele>
        <time>2015-06-07T06:25:14Z</time>
      </trkpt>
      <trkpt lat="47.92253" lon="-1.74428">
        <ele>25</ele>
        <time>2015-06-07T06:25:15Z</time>
      </trkpt>
      <trkpt lat="47.92249" lon="-1.74426">
        <ele>25</ele>
        <time>2015-06-07T06:25:16Z</time>
      </trkpt>
      <trkpt lat="47.92246" lon="-1.74424">
        <ele>25</ele>
        <time>2015-06-07T06:25:17Z</time>
      </trkpt>
      <trkpt lat="47.92243" lon="-1.74422">
        <ele>25</ele>
        <time>2015-06-07T06:25:18Z</time>
      </trkpt>
      <trkpt lat="47.9224" lon="-1.7442">
        <ele>24</ele>
        <time>2015-06-07T06:25:19Z</time>
      </trkpt>
      <trkpt lat="47.92238" lon="-1.74419">
        <ele>24</ele>
        <time>2015-06-07T06:25:20Z</time>
      </trkpt>
      <trkpt lat="47.92235" lon="-1.74417">
        <ele>25</ele>
        <time>2015-06-07T06:25:21Z</time>
      </trkpt>
      <trkpt lat="47.92232" lon="-1.74415">
        <ele>25</ele>
        <time>2015-06-07T06:25:22Z</time>
      </trkpt>
      <trkpt lat="47.92229" lon="-1.74413">
        <ele>25</ele>
        <time>2015-06-07T06:25:23Z</time>
      </trkpt>
      <trkpt lat="47.92226" lon="-1.74411">
        <ele>25</ele>
        <time>2015-06-07T06:25:24Z</time>
      </trkpt>
      <trkpt lat="47.92223" lon="-1.7441">
        <ele>25</ele>
        <time>2015-06-07T06:25:25Z</time>
      </trkpt>
      <trkpt lat="47.9222" lon="-1.74409">
        <ele>25</ele>
        <time>2015-06-07T06:25:26Z</time>
      </trkpt>
      <trkpt lat="47.92216" lon="-1.74407">
        <ele>25</ele>
        <time>2015-06-07T06:25:27Z</time>
      </trkpt>
      <trkpt lat="47.92213" lon="-1.74406">
        <ele>25</ele>
        <time>2015-06-07T06:25:28Z</time>
      </trkpt>
      <trkpt lat="47.92211" lon="-1.74405">
        <ele>25</ele>
        <time>2015-06-07T06:25:29Z</time>
      </trkpt>
      <trkpt lat="47.92208" lon="-1.74404">
        <ele>26</ele>
        <time>2015-06-07T06:25:30Z</time>
      </trkpt>
      <trkpt lat="47.92205" lon="-1.74403">
        <ele>26</ele>
        <time>2015-06-07T06:25:31Z</time>
      </trkpt>
      <trkpt lat="47.92202" lon="-1.74401">
        <ele>26</ele>
        <time>2015-06-07T06:25:32Z</time>
      </trkpt>
      <trkpt lat="47.92199" lon="-1.744">
        <ele>26</ele>
        <time>2015-06-07T06:25:33Z</time>
      </trkpt>
      <trkpt lat="47.92196" lon="-1.74399">
        <ele>26</ele>
        <time>2015-06-07T06:25:34Z</time>
      </trkpt>
      <trkpt lat="47.92193" lon="-1.74398">
        <ele>27</ele>
        <time>2015-06-07T06:25:35Z</time>
      </trkpt>
      <trkpt lat="47.92191" lon="-1.74397">
        <ele>27</ele>
        <time>2015-06-07T06:25:36Z</time>
      </trkpt>
      <trkpt lat="47.92188" lon="-1.74395">
        <ele>27</ele>
        <time>2015-06-07T06:25:37Z</time>
      </trkpt>
      <trkpt lat="47.92186" lon="-1.74393">
        <ele>27</ele>
        <time>2015-06-07T06:25:38Z</time>
      </trkpt>
      <trkpt lat="47.92184" lon="-1.74391">
        <ele>28</ele>
        <time>2015-06-07T06:25:39Z</time>
      </trkpt>
      <trkpt lat="47.92182" lon="-1.74388">
        <ele>28</ele>
        <time>2015-06-07T06:25:40Z</time>
      </trkpt>
      <trkpt lat="47.9218" lon="-1.74385">
        <ele>28</ele>
        <time>2015-06-07T06:25:41Z</time>
      </trkpt>
      <trkpt lat="47.92178" lon="-1.74383">
        <ele>28</ele>
        <time>2015-06-07T06:25:42Z</time>
      </trkpt>
      <trkpt lat="47.92176" lon="-1.7438">
        <ele>29</ele>
        <time>2015-06-07T06:25:43Z</time>
      </trkpt>
      <trkpt lat="47.92175" lon="-1.74377">
        <ele>29</ele>
        <time>2015-06-07T06:25:44Z</time>
      </trkpt>
      <trkpt lat="47.92173" lon="-1.74374">
        <ele>29</ele>
        <time>2015-06-07T06:25:45Z</time>
      </trkpt>
      <trkpt lat="47.92172" lon="-1.74371">
        <ele>29</ele>
        <time>2015-06-07T06:25:46Z</time>
      </trkpt>
      <trkpt lat="47.9217" lon="-1.74369">
        <ele>29</ele>
        <time>2015-06-07T06:25:47Z</time>
      </trkpt>
      <trkpt lat="47.92168" lon="-1.74366">
        <ele>30</ele>
        <time>2015-06-07T06:25:48Z</time>
      </trkpt>
      <trkpt lat="47.92167" lon="-1.74363">
        <ele>30</ele>
        <time>2015-06-07T06:25:49Z</time>
      </trkpt>
      <trkpt lat="47.92165" lon="-1.74361">
        <ele>30</ele>
        <time>2015-06-07T06:25:50Z</time>
      </trkpt>
      <trkpt lat="47.92163" lon="-1.74357">
        <ele>30</ele>
        <time>2015-06-07T06:25:51Z</time>
      </trkpt>
      <trkpt lat="47.9216" lon="-1.74354">
        <ele>31</ele>
        <time>2015-06-07T06:25:52Z</time>
      </trkpt>
      <trkpt lat="47.92158" lon="-1.74351">
        <ele>31</ele>
        <time>2015-06-07T06:25:53Z</time>
      </trkpt>
      <trkpt lat="47.92156" lon="-1.74349">
        <ele>31</ele>
        <time>2015-06-07T06:25:54Z</time>
      </trkpt>
      <trkpt lat="47.92154" lon="-1.74346">
        <ele>31</ele>
        <time>2015-06-07T06:25:55Z</time>
      </trkpt>
      <trkpt lat="47.92152" lon="-1.74343">
        <ele>31</ele>
        <time>2015-06-07T06:25:56Z</time>
      </trkpt>
      <trkpt lat="47.9215" lon="-1.7434">
        <ele>32</ele>
        <time>2015-06-07T06:25:57Z</time>
      </trkpt>
      <trkpt lat="47.92148" lon="-1.74338">
        <ele>32</ele>
        <time>2015-06-07T06:25:58Z</time>
      </trkpt>
      <trkpt lat="47.92146" lon="-1.74335">
        <ele>32</ele>
        <time>2015-06-07T06:25:59Z</time>
      </trkpt>
      <trkpt lat="47.92144" lon="-1.74331">
        <ele>32</ele>
        <time>2015-06-07T06:26:00Z</time>
      </trkpt>
      <trkpt lat="47.92142" lon="-1.74328">
        <ele>33</ele>
        <time>2015-06-07T06:26:01Z</time>
      </trkpt>
      <trkpt lat="47.92141" lon="-1.74324">
        <ele>33</ele>
        <time>2015-06-07T06:26:02Z</time>
      </trkpt>
      <trkpt lat="47.92139" lon="-1.7432">
        <ele>33</ele>
        <time>2015-06-07T06:26:03Z</time>
      </trkpt>
      <trkpt lat="47.92137" lon="-1.74316">
        <ele>33</ele>
        <time>2015-06-07T06:26:04Z</time>
      </trkpt>
      <trkpt lat="47.92135" lon="-1.74312">
        <ele>34</ele>
        <time>2015-06-07T06:26:05Z</time>
      </trkpt>
      <trkpt lat="47.92132" lon="-1.74309">
        <ele>34</ele>
        <time>2015-06-07T06:26:06Z</time>
      </trkpt>
      <trkpt lat="47.9213" lon="-1.74306">
        <ele>34</ele>
        <time>2015-06-07T06:26:07Z</time>
      </trkpt>
      <trkpt lat="47.92128" lon="-1.74304">
        <ele>35</ele>
        <time>2015-06-07T06:26:08Z</time>
      </trkpt>
      <trkpt lat="47.92125" lon="-1.74301">
        <ele>35</ele>
        <time>2015-06-07T06:26:09Z</time>
      </trkpt>
      <trkpt lat="47.92123" lon="-1.74299">
        <ele>36</ele>
        <time>2015-06-07T06:26:10Z</time>
      </trkpt>
      <trkpt lat="47.9212" lon="-1.74296">
        <ele>36</ele>
        <time>2015-06-07T06:26:11Z</time>
      </trkpt>
      <trkpt lat="47.92118" lon="-1.74294">
        <ele>36</ele>
        <time>2015-06-07T06:26:12Z</time>
      </trkpt>
      <trkpt lat="47.92116" lon="-1.74292">
        <ele>37</ele>
        <time>2015-06-07T06:26:13Z</time>
      </trkpt>
      <trkpt lat="47.92113" lon="-1.7429">
        <ele>37</ele>
        <time>2015-06-07T06:26:14Z</time>
      </trkpt>
      <trkpt lat="47.92111" lon="-1.74287">
        <ele>37</ele>
        <time>2015-06-07T06:26:15Z</time>
      </trkpt>
      <trkpt lat="47.9211" lon="-1.74285">
        <ele>38</ele>
        <time>2015-06-07T06:26:16Z</time>
      </trkpt>
      <trkpt lat="47.92108" lon="-1.74282">
        <ele>38</ele>
        <time>2015-06-07T06:26:17Z</time>
      </trkpt>
      <trkpt lat="47.92106" lon="-1.7428">
        <ele>38</ele>
        <time>2015-06-07T06:26:18Z</time>
      </trkpt>
      <trkpt lat="47.92103" lon="-1.74279">
        <ele>39</ele>
        <time>2015-06-07T06:26:19Z</time>
      </trkpt>
      <trkpt lat="47.921" lon="-1.74278">
        <ele>39</ele>
        <time>2015-06-07T06:26:20Z</time>
      </trkpt>
      <trkpt lat="47.92097" lon="-1.74277">
        <ele>39</ele>
        <time>2015-06-07T06:26:21Z</time>
      </trkpt>
      <trkpt lat="47.92095" lon="-1.74276">
        <ele>39</ele>
        <time>2015-06-07T06:26:22Z</time>
      </trkpt>
      <trkpt lat="47.92092" lon="-1.74276">
        <ele>40</ele>
        <time>2015-06-07T06:26:23Z</time>
      </trkpt>
      <trkpt lat="47.9209" lon="-1.74275">
        <ele>40</ele>
        <time>2015-06-07T06:26:24Z</time>
      </trkpt>
      <trkpt lat="47.92087" lon="-1.74274">
        <ele>40</ele>
        <time>2015-06-07T06:26:25Z</time>
      </trkpt>
      <trkpt lat="47.92084" lon="-1.74274">
        <ele>41</ele>
        <time>2015-06-07T06:26:26Z</time>
      </trkpt>
      <trkpt lat="47.92082" lon="-1.74273">
        <ele>41</ele>
        <time>2015-06-07T06:26:27Z</time>
      </trkpt>
      <trkpt lat="47.92079" lon="-1.74272">
        <ele>42</ele>
        <time>2015-06-07T06:26:28Z</time>
      </trkpt>
      <trkpt lat="47.92077" lon="-1.74271">
        <ele>42</ele>
        <time>2015-06-07T06:26:29Z</time>
      </trkpt>
      <trkpt lat="47.92074" lon="-1.7427">
        <ele>43</ele>
        <time>2015-06-07T06:26:30Z</time>
      </trkpt>
      <trkpt lat="47.92071" lon="-1.74268">
        <ele>43</ele>
        <time>2015-06-07T06:26:31Z</time>
      </trkpt>
      <trkpt lat="47.92068" lon="-1.74267">
        <ele>43</ele>
        <time>2015-06-07T06:26:32Z</time>
      </trkpt>
      <trkpt lat="47.92065" lon="-1.74267">
        <ele>44</ele>
        <time>2015-06-07T06:26:33Z</time>
      </trkpt>
      <trkpt lat="47.92062" lon="-1.74266">
        <ele>44</ele>
        <time>2015-06-07T06:26:34Z</time>
      </trkpt>
      <trkpt lat="47.92059" lon="-1.74266">
        <ele>44</ele>
        <time>2015-06-07T06:26:35Z</time>
      </trkpt>
      <trkpt lat="47.92056" lon="-1.74266">
        <ele>44</ele>
        <time>2015-06-07T06:26:36Z</time>
      </trkpt>
      <trkpt lat="47.92052" lon="-1.74266">
        <ele>45</ele>
        <time>2015-06-07T06:26:37Z</time>
      </trkpt>
      <trkpt lat="47.92049" lon="-1.74265">
        <ele>45</ele>
        <time>2015-06-07T06:26:38Z</time>
      </trkpt>
      <trkpt lat="47.92046" lon="-1.74265">
        <ele>45</ele>
        <time>2015-06-07T06:26:39Z</time>
      </trkpt>
      <trkpt lat="47.92042" lon="-1.74265">
        <ele>46</ele>
        <time>2015-06-07T06:26:40Z</time>
      </trkpt>
      <trkpt lat="47.92039" lon="-1.74264">
        <ele>46</ele>
        <time>2015-06-07T06:26:41Z</time>
      </trkpt>
      <trkpt lat="47.92036" lon="-1.74263">
        <ele>46</ele>
        <time>2015-06-07T06:26:42Z</time>
      </trkpt>
      <trkpt lat="47.92033" lon="-1.74263">
        <ele>46</ele>
        <time>2015-06-07T06:26:43Z</time>
      </trkpt>
      <trkpt lat="47.92029" lon="-1.74263">
        <ele>47</ele>
        <time>2015-06-07T06:26:44Z</time>
      </trkpt>
      <trkpt lat="47.92026" lon="-1.74262">
        <ele>47</ele>
        <time>2015-06-07T06:26:45Z</time>
      </trkpt>
      <trkpt lat="47.92022" lon="-1.74261">
        <ele>47</ele>
        <time>2015-06-07T06:26:46Z</time>
      </trkpt>
      <trkpt lat="47.92019" lon="-1.74261">
        <ele>47</ele>
        <time>2015-06-07T06:26:47Z</time>
      </trkpt>
      <trkpt lat="47.92016" lon="-1.7426">
        <ele>47</ele>
        <time>2015-06-07T06:26:48Z</time>
      </trkpt>
      <trkpt lat="47.92013" lon="-1.74259">
        <ele>48</ele>
        <time>2015-06-07T06:26:49Z</time>
      </trkpt>
      <trkpt lat="47.92009" lon="-1.74259">
        <ele>48</ele>
        <time>2015-06-07T06:26:50Z</time>
      </trkpt>
      <trkpt lat="47.92006" lon="-1.74258">
        <ele>48</ele>
        <time>2015-06-07T06:26:51Z</time>
      </trkpt>
      <trkpt lat="47.92003" lon="-1.74257">
        <ele>48</ele>
        <time>2015-06-07T06:26:52Z</time>
      </trkpt>
      <trkpt lat="47.92" lon="-1.74256">
        <ele>48</ele>
        <time>2015-06-07T06:26:53Z</time>
      </trkpt>
      <trkpt lat="47.91996" lon="-1.74255">
        <ele>48</ele>
        <time>2015-06-07T06:26:54Z</time>
      </trkpt>
      <trkpt lat="47.91993" lon="-1.74254">
        <ele>48</ele>
        <time>2015-06-07T06:26:55Z</time>
      </trkpt>
      <trkpt lat="47.91989" lon="-1.74254">
        <ele>48</ele>
        <time>2015-06-07T06:26:56Z</time>
      </trkpt>
      <trkpt lat="47.91985" lon="-1.74252">
        <ele>48</ele>
        <time>2015-06-07T06:26:57Z</time>
      </trkpt>
      <trkpt lat="47.91982" lon="-1.74252">
        <ele>48</ele>
        <time>2015-06-07T06:26:58Z</time>
      </trkpt>
      <trkpt lat="47.91978" lon="-1.74251">
        <ele>49</ele>
        <time>2015-06-07T06:26:59Z</time>
      </trkpt>
      <trkpt lat="47.91974" lon="-1.7425">
        <ele>49</ele>
        <time>2015-06-07T06:27:00Z</time>
      </trkpt>
      <trkpt lat="47.9197" lon="-1.74249">
        <ele>49</ele>
        <time>2015-06-07T06:27:01Z</time>
      </trkpt>
      <trkpt lat="47.91966" lon="-1.74249">
        <ele>49</ele>
        <time>2015-06-07T06:27:02Z</time>
      </trkpt>
      <trkpt lat="47.91962" lon="-1.74248">
        <ele>49</ele>
        <time>2015-06-07T06:27:03Z</time>
      </trkpt>
      <trkpt lat="47.91958" lon="-1.74247">
        <ele>49</ele>
        <time>2015-06-07T06:27:04Z</time>
      </trkpt>
      <trkpt lat="47.91953" lon="-1.74247">
        <ele>49</ele>
        <time>2015-06-07T06:27:05Z</time>
      </trkpt>
      <trkpt lat="47.91949" lon="-1.74246">
        <ele>49</ele>
        <time>2015-06-07T06:27:06Z</time>
      </trkpt>
      <trkpt lat="47.91944" lon="-1.74246">
        <ele>49</ele>
        <time>2015-06-07T06:27:07Z</time>
      </trkpt>
      <trkpt lat="47.91939" lon="-1.74246">
        <ele>49</ele>
        <time>2015-06-07T06:27:08Z</time>
      </trkpt>
      <trkpt lat="47.91935" lon="-1.74246">
        <ele>49</ele>
        <time>2015-06-07T06:27:09Z</time>
      </trkpt>
      <trkpt lat="47.9193" lon="-1.74246">
        <ele>49</ele>
        <time>2015-06-07T06:27:10Z</time>
      </trkpt>
      <trkpt lat="47.91924" lon="-1.74246">
        <ele>49</ele>
        <time>2015-06-07T06:27:11Z</time>
      </trkpt>
      <trkpt lat="47.91919" lon="-1.74245">
        <ele>49</ele>
        <time>2015-06-07T06:27:12Z</time>
      </trkpt>
      <trkpt lat="47.91914" lon="-1.74245">
        <ele>49</ele>
        <time>2015-06-07T06:27:13Z</time>
      </trkpt>
      <trkpt lat="47.91909" lon="-1.74245">
        <ele>49</ele>
        <time>2015-06-07T06:27:14Z</time>
      </trkpt>
      <trkpt lat="47.91903" lon="-1.74245">
        <ele>49</ele>
        <time>2015-06-07T06:27:15Z</time>
      </trkpt>
      <trkpt lat="47.91898" lon="-1.74245">
        <ele>49</ele>
        <time>2015-06-07T06:27:16Z</time>
      </trkpt>
      <trkpt lat="47.91893" lon="-1.74244">
        <ele>49</ele>
        <time>2015-06-07T06:27:17Z</time>
      </trkpt>
      <trkpt lat="47.91888" lon="-1.74243">
        <ele>49</ele>
        <time>2015-06-07T06:27:18Z</time>
      </trkpt>
      <trkpt lat="47.91884" lon="-1.7424">
        <ele>49</ele>
        <time>2015-06-07T06:27:19Z</time>
      </trkpt>
      <trkpt lat="47.9188" lon="-1.74235">
        <ele>49</ele>
        <time>2015-06-07T06:27:20Z</time>
      </trkpt>
      <trkpt lat="47.91878" lon="-1.7423">
        <ele>49</ele>
        <time>2015-06-07T06:27:21Z</time>
      </trkpt>
      <trkpt lat="47.91876" lon="-1.74224">
        <ele>49</ele>
        <time>2015-06-07T06:27:22Z</time>
      </trkpt>
      <trkpt lat="47.91874" lon="-1.74218">
        <ele>49</ele>
        <time>2015-06-07T06:27:23Z</time>
      </trkpt>
      <trkpt lat="47.91874" lon="-1.74211">
        <ele>49</ele>
        <time>2015-06-07T06:27:24Z</time>
      </trkpt>
      <trkpt lat="47.91873" lon="-1.74205">
        <ele>49</ele>
        <time>2015-06-07T06:27:25Z</time>
      </trkpt>
      <trkpt lat="47.91873" lon="-1.74198">
        <ele>49</ele>
        <time>2015-06-07T06:27:26Z</time>
      </trkpt>
      <trkpt lat="47.91873" lon="-1.74191">
        <ele>49</ele>
        <time>2015-06-07T06:27:27Z</time>
      </trkpt>
      <trkpt lat="47.91873" lon="-1.74185">
        <ele>49</ele>
        <time>2015-06-07T06:27:28Z</time>
      </trkpt>
      <trkpt lat="47.91873" lon="-1.74178">
        <ele>50</ele>
        <time>2015-06-07T06:27:29Z</time>
      </trkpt>
      <trkpt lat="47.91873" lon="-1.74171">
        <ele>50</ele>
        <time>2015-06-07T06:27:30Z</time>
      </trkpt>
      <trkpt lat="47.91873" lon="-1.74165">
        <ele>50</ele>
        <time>2015-06-07T06:27:31Z</time>
      </trkpt>
      <trkpt lat="47.91874" lon="-1.74158">
        <ele>50</ele>
        <time>2015-06-07T06:27:32Z</time>
      </trkpt>
      <trkpt lat="47.91874" lon="-1.74152">
        <ele>50</ele>
        <time>2015-06-07T06:27:33Z</time>
      </trkpt>
      <trkpt lat="47.91874" lon="-1.74145">
        <ele>50</ele>
        <time>2015-06-07T06:27:34Z</time>
      </trkpt>
      <trkpt lat="47.91873" lon="-1.74139">
        <ele>50</ele>
        <time>2015-06-07T06:27:35Z</time>
      </trkpt>
      <trkpt lat="47.91873" lon="-1.74132">
        <ele>50</ele>
        <time>2015-06-07T06:27:36Z</time>
      </trkpt>
      <trkpt lat="47.91874" lon="-1.74126">
        <ele>50</ele>
        <time>2015-06-07T06:27:37Z</time>
      </trkpt>
      <trkpt lat="47.91874" lon="-1.74119">
        <ele>51</ele>
        <time>2015-06-07T06:27:38Z</time>
      </trkpt>
      <trkpt lat="47.91874" lon="-1.74113">
        <ele>51</ele>
        <time>2015-06-07T06:27:39Z</time>
      </trkpt>
      <trkpt lat="47.91874" lon="-1.74106">
        <ele>51</ele>
        <time>2015-06-07T06:27:40Z</time>
      </trkpt>
      <trkpt lat="47.91875" lon="-1.74099">
        <ele>51</ele>
        <time>2015-06-07T06:27:41Z</time>
      </trkpt>
      <trkpt lat="47.91875" lon="-1.74093">
        <ele>51</ele>
        <time>2015-06-07T06:27:42Z</time>
      </trkpt>
      <trkpt lat="47.91875" lon="-1.74086">
        <ele>52</ele>
        <time>2015-06-07T06:27:43Z</time>
      </trkpt>
      <trkpt lat="47.91875" lon="-1.74079">
        <ele>52</ele>
        <time>2015-06-07T06:27:44Z</time>
      </trkpt>
      <trkpt lat="47.91875" lon="-1.74073">
        <ele>52</ele>
        <time>2015-06-07T06:27:45Z</time>
      </trkpt>
      <trkpt lat="47.91875" lon="-1.74066">
        <ele>52</ele>
        <time>2015-06-07T06:27:46Z</time>
      </trkpt>
      <trkpt lat="47.91875" lon="-1.7406">
        <ele>52</ele>
        <time>2015-06-07T06:27:47Z</time>
      </trkpt>
      <trkpt lat="47.91875" lon="-1.74053">
        <ele>52</ele>
        <time>2015-06-07T06:27:48Z</time>
      </trkpt>
      <trkpt lat="47.91875" lon="-1.74047">
        <ele>52</ele>
        <time>2015-06-07T06:27:49Z</time>
      </trkpt>
      <trkpt lat="47.91876" lon="-1.7404">
        <ele>53</ele>
        <time>2015-06-07T06:27:50Z</time>
      </trkpt>
      <trkpt lat="47.91876" lon="-1.74034">
        <ele>53</ele>
        <time>2015-06-07T06:27:51Z</time>
      </trkpt>
      <trkpt lat="47.91876" lon="-1.74028">
        <ele>53</ele>
        <time>2015-06-07T06:27:52Z</time>
      </trkpt>
      <trkpt lat="47.91876" lon="-1.74022">
        <ele>53</ele>
        <time>2015-06-07T06:27:53Z</time>
      </trkpt>
      <trkpt lat="47.91876" lon="-1.74015">
        <ele>53</ele>
        <time>2015-06-07T06:27:54Z</time>
      </trkpt>
      <trkpt lat="47.91876" lon="-1.74009">
        <ele>54</ele>
        <time>2015-06-07T06:27:55Z</time>
      </trkpt>
      <trkpt lat="47.91876" lon="-1.74002">
        <ele>54</ele>
        <time>2015-06-07T06:27:56Z</time>
      </trkpt>
      <trkpt lat="47.91875" lon="-1.73996">
        <ele>54</ele>
        <time>2015-06-07T06:27:57Z</time>
      </trkpt>
      <trkpt lat="47.91875" lon="-1.7399">
        <ele>54</ele>
        <time>2015-06-07T06:27:58Z</time>
      </trkpt>
      <trkpt lat="47.91874" lon="-1.73983">
        <ele>54</ele>
        <time>2015-06-07T06:27:59Z</time>
      </trkpt>
      <trkpt lat="47.91874" lon="-1.73977">
        <ele>54</ele>
        <time>2015-06-07T06:28:00Z</time>
      </trkpt>
      <trkpt lat="47.91874" lon="-1.7397">
        <ele>55</ele>
        <time>2015-06-07T06:28:01Z</time>
      </trkpt>
      <trkpt lat="47.91873" lon="-1.73964">
        <ele>55</ele>
        <time>2015-06-07T06:28:02Z</time>
      </trkpt>
      <trkpt lat="47.91873" lon="-1.73957">
        <ele>55</ele>
        <time>2015-06-07T06:28:03Z</time>
      </trkpt>
      <trkpt lat="47.91872" lon="-1.73951">
        <ele>55</ele>
        <time>2015-06-07T06:28:04Z</time>
      </trkpt>
      <trkpt lat="47.91871" lon="-1.73945">
        <ele>55</ele>
        <time>2015-06-07T06:28:05Z</time>
      </trkpt>
      <trkpt lat="47.9187" lon="-1.73939">
        <ele>56</ele>
        <time>2015-06-07T06:28:06Z</time>
      </trkpt>
      <trkpt lat="47.9187" lon="-1.73933">
        <ele>56</ele>
        <time>2015-06-07T06:28:07Z</time>
      </trkpt>
      <trkpt lat="47.91869" lon="-1.73926">
        <ele>56</ele>
        <time>2015-06-07T06:28:08Z</time>
      </trkpt>
      <trkpt lat="47.91869" lon="-1.7392">
        <ele>56</ele>
        <time>2015-06-07T06:28:09Z</time>
      </trkpt>
      <trkpt lat="47.91868" lon="-1.73913">
        <ele>56</ele>
        <time>2015-06-07T06:28:10Z</time>
      </trkpt>
      <trkpt lat="47.91867" lon="-1.73907">
        <ele>56</ele>
        <time>2015-06-07T06:28:11Z</time>
      </trkpt>
      <trkpt lat="47.91867" lon="-1.73901">
        <ele>57</ele>
        <time>2015-06-07T06:28:12Z</time>
      </trkpt>
      <trkpt lat="47.91866" lon="-1.73894">
        <ele>57</ele>
        <time>2015-06-07T06:28:13Z</time>
      </trkpt>
      <trkpt lat="47.91866" lon="-1.73888">
        <ele>57</ele>
        <time>2015-06-07T06:28:14Z</time>
      </trkpt>
      <trkpt lat="47.91865" lon="-1.73882">
        <ele>57</ele>
        <time>2015-06-07T06:28:15Z</time>
      </trkpt>
      <trkpt lat="47.91864" lon="-1.73876">
        <ele>57</ele>
        <time>2015-06-07T06:28:16Z</time>
      </trkpt>
      <trkpt lat="47.91864" lon="-1.73869">
        <ele>58</ele>
        <time>2015-06-07T06:28:17Z</time>
      </trkpt>
      <trkpt lat="47.91864" lon="-1.73863">
        <ele>58</ele>
        <time>2015-06-07T06:28:18Z</time>
      </trkpt>
      <trkpt lat="47.91863" lon="-1.73857">
        <ele>58</ele>
        <time>2015-06-07T06:28:19Z</time>
      </trkpt>
      <trkpt lat="47.91862" lon="-1.73851">
        <ele>58</ele>
        <time>2015-06-07T06:28:20Z</time>
      </trkpt>
      <trkpt lat="47.91861" lon="-1.73845">
        <ele>58</ele>
        <time>2015-06-07T06:28:21Z</time>
      </trkpt>
      <trkpt lat="47.91861" lon="-1.73838">
        <ele>59</ele>
        <time>2015-06-07T06:28:22Z</time>
      </trkpt>
      <trkpt lat="47.91861" lon="-1.73832">
        <ele>59</ele>
        <time>2015-06-07T06:28:23Z</time>
      </trkpt>
      <trkpt lat="47.9186" lon="-1.73826">
        <ele>59</ele>
        <time>2015-06-07T06:28:24Z</time>
      </trkpt>
      <trkpt lat="47.91859" lon="-1.73819">
        <ele>60</ele>
        <time>2015-06-07T06:28:25Z</time>
      </trkpt>
      <trkpt lat="47.91858" lon="-1.73813">
        <ele>60</ele>
        <time>2015-06-07T06:28:26Z</time>
      </trkpt>
      <trkpt lat="47.91858" lon="-1.73807">
        <ele>60</ele>
        <time>2015-06-07T06:28:27Z</time>
      </trkpt>
      <trkpt lat="47.91857" lon="-1.738">
        <ele>60</ele>
        <time>2015-06-07T06:28:28Z</time>
      </trkpt>
      <trkpt lat="47.91857" lon="-1.73794">
        <ele>61</ele>
        <time>2015-06-07T06:28:29Z</time>
      </trkpt>
      <trkpt lat="47.91856" lon="-1.73788">
        <ele>61</ele>
        <time>2015-06-07T06:28:30Z</time>
      </trkpt>
      <trkpt lat="47.91856" lon="-1.73782">
        <ele>61</ele>
        <time>2015-06-07T06:28:31Z</time>
      </trkpt>
      <trkpt lat="47.91856" lon="-1.73777">
        <ele>61</ele>
        <time>2015-06-07T06:28:32Z</time>
      </trkpt>
      <trkpt lat="47.91855" lon="-1.73771">
        <ele>62</ele>
        <time>2015-06-07T06:28:33Z</time>
      </trkpt>
      <trkpt lat="47.91854" lon="-1.73767">
        <ele>62</ele>
        <time>2015-06-07T06:28:34Z</time>
      </trkpt>
      <trkpt lat="47.91852" lon="-1.73767">
        <ele>62</ele>
        <time>2015-06-07T06:28:35Z</time>
      </trkpt>
      <trkpt lat="47.91849" lon="-1.73767">
        <ele>62</ele>
        <time>2015-06-07T06:28:36Z</time>
      </trkpt>
      <trkpt lat="47.91846" lon="-1.73768">
        <ele>62</ele>
        <time>2015-06-07T06:28:37Z</time>
      </trkpt>
      <trkpt lat="47.91843" lon="-1.73768">
        <ele>62</ele>
        <time>2015-06-07T06:28:38Z</time>
      </trkpt>
      <trkpt lat="47.91839" lon="-1.73768">
        <ele>62</ele>
        <time>2015-06-07T06:28:39Z</time>
      </trkpt>
      <trkpt lat="47.91835" lon="-1.73768">
        <ele>62</ele>
        <time>2015-06-07T06:28:40Z</time>
      </trkpt>
      <trkpt lat="47.91831" lon="-1.73769">
        <ele>62</ele>
        <time>2015-06-07T06:28:41Z</time>
      </trkpt>
      <trkpt lat="47.91827" lon="-1.7377">
        <ele>62</ele>
        <time>2015-06-07T06:28:42Z</time>
      </trkpt>
      <trkpt lat="47.91822" lon="-1.7377">
        <ele>62</ele>
        <time>2015-06-07T06:28:43Z</time>
      </trkpt>
      <trkpt lat="47.91817" lon="-1.73771">
        <ele>62</ele>
        <time>2015-06-07T06:28:44Z</time>
      </trkpt>
      <trkpt lat="47.91811" lon="-1.73772">
        <ele>62</ele>
        <time>2015-06-07T06:28:45Z</time>
      </trkpt>
      <trkpt lat="47.91805" lon="-1.73773">
        <ele>62</ele>
        <time>2015-06-07T06:28:46Z</time>
      </trkpt>
      <trkpt lat="47.91798" lon="-1.73773">
        <ele>62</ele>
        <time>2015-06-07T06:28:47Z</time>
      </trkpt>
      <trkpt lat="47.91791" lon="-1.73775">
        <ele>62</ele>
        <time>2015-06-07T06:28:48Z</time>
      </trkpt>
      <trkpt lat="47.91783" lon="-1.73777">
        <ele>62</ele>
        <time>2015-06-07T06:28:49Z</time>
      </trkpt>
      <trkpt lat="47.91775" lon="-1.73779">
        <ele>61</ele>
        <time>2015-06-07T06:28:50Z</time>
      </trkpt>
      <trkpt lat="47.91767" lon="-1.73782">
        <ele>61</ele>
        <time>2015-06-07T06:28:51Z</time>
      </trkpt>
      <trkpt lat="47.91759" lon="-1.73785">
        <ele>61</ele>
        <time>2015-06-07T06:28:52Z</time>
      </trkpt>
      <trkpt lat="47.91752" lon="-1.73786">
        <ele>60</ele>
        <time>2015-06-07T06:28:53Z</time>
      </trkpt>
      <trkpt lat="47.91744" lon="-1.73787">
        <ele>60</ele>
        <time>2015-06-07T06:28:54Z</time>
      </trkpt>
      <trkpt lat="47.91735" lon="-1.73787">
        <ele>60</ele>
        <time>2015-06-07T06:28:55Z</time>
      </trkpt>
      <trkpt lat="47.91728" lon="-1.73787">
        <ele>59</ele>
        <time>2015-06-07T06:28:56Z</time>
      </trkpt>
      <trkpt lat="47.9172" lon="-1.73788">
        <ele>58</ele>
        <time>2015-06-07T06:28:57Z</time>
      </trkpt>
      <trkpt lat="47.91714" lon="-1.73789">
        <ele>58</ele>
        <time>2015-06-07T06:28:58Z</time>
      </trkpt>
      <trkpt lat="47.91708" lon="-1.7379">
        <ele>57</ele>
        <time>2015-06-07T06:28:59Z</time>
      </trkpt>
      <trkpt lat="47.91702" lon="-1.73792">
        <ele>57</ele>
        <time>2015-06-07T06:29:00Z</time>
      </trkpt>
      <trkpt lat="47.91697" lon="-1.73794">
        <ele>56</ele>
        <time>2015-06-07T06:29:01Z</time>
      </trkpt>
      <trkpt lat="47.9169" lon="-1.73796">
        <ele>56</ele>
        <time>2015-06-07T06:29:02Z</time>
      </trkpt>
      <trkpt lat="47.91685" lon="-1.73799">
        <ele>55</ele>
        <time>2015-06-07T06:29:03Z</time>
      </trkpt>
      <trkpt lat="47.91679" lon="-1.73802">
        <ele>55</ele>
        <time>2015-06-07T06:29:04Z</time>
      </trkpt>
      <trkpt lat="47.91674" lon="-1.73806">
        <ele>54</ele>
        <time>2015-06-07T06:29:05Z</time>
      </trkpt>
      <trkpt lat="47.91668" lon="-1.73808">
        <ele>54</ele>
        <time>2015-06-07T06:29:06Z</time>
      </trkpt>
      <trkpt lat="47.91662" lon="-1.7381">
        <ele>53</ele>
        <time>2015-06-07T06:29:07Z</time>
      </trkpt>
      <trkpt lat="47.91655" lon="-1.73812">
        <ele>52</ele>
        <time>2015-06-07T06:29:08Z</time>
      </trkpt>
      <trkpt lat="47.91649" lon="-1.73814">
        <ele>52</ele>
        <time>2015-06-07T06:29:09Z</time>
      </trkpt>
      <trkpt lat="47.91642" lon="-1.73816">
        <ele>51</ele>
        <time>2015-06-07T06:29:10Z</time>
      </trkpt>
      <trkpt lat="47.91636" lon="-1.73818">
        <ele>50</ele>
        <time>2015-06-07T06:29:11Z</time>
      </trkpt>
      <trkpt lat="47.91629" lon="-1.7382">
        <ele>50</ele>
        <time>2015-06-07T06:29:12Z</time>
      </trkpt>
      <trkpt lat="47.91622" lon="-1.73822">
        <ele>49</ele>
        <time>2015-06-07T06:29:13Z</time>
      </trkpt>
      <trkpt lat="47.91615" lon="-1.73824">
        <ele>48</ele>
        <time>2015-06-07T06:29:14Z</time>
      </trkpt>
      <trkpt lat="47.91609" lon="-1.73826">
        <ele>48</ele>
        <time>2015-06-07T06:29:15Z</time>
      </trkpt>
      <trkpt lat="47.91603" lon="-1.73829">
        <ele>47</ele>
        <time>2015-06-07T06:29:16Z</time>
      </trkpt>
      <trkpt lat="47.91599" lon="-1.73835">
        <ele>46</ele>
        <time>2015-06-07T06:29:17Z</time>
      </trkpt>
      <trkpt lat="47.91595" lon="-1.7384">
        <ele>45</ele>
        <time>2015-06-07T06:29:18Z</time>
      </trkpt>
      <trkpt lat="47.91593" lon="-1.73845">
        <ele>45</ele>
        <time>2015-06-07T06:29:19Z</time>
      </trkpt>
      <trkpt lat="47.91592" lon="-1.7385">
        <ele>44</ele>
        <time>2015-06-07T06:29:20Z</time>
      </trkpt>
      <trkpt lat="47.91593" lon="-1.73855">
        <ele>44</ele>
        <time>2015-06-07T06:29:21Z</time>
      </trkpt>
      <trkpt lat="47.91594" lon="-1.73859">
        <ele>44</ele>
        <time>2015-06-07T06:29:22Z</time>
      </trkpt>
      <trkpt lat="47.91595" lon="-1.73864">
        <ele>43</ele>
        <time>2015-06-07T06:29:23Z</time>
      </trkpt>
      <trkpt lat="47.91596" lon="-1.73869">
        <ele>43</ele>
        <time>2015-06-07T06:29:24Z</time>
      </trkpt>
      <trkpt lat="47.91595" lon="-1.73875">
        <ele>43</ele>
        <time>2015-06-07T06:29:25Z</time>
      </trkpt>
      <trkpt lat="47.91594" lon="-1.73879">
        <ele>43</ele>
        <time>2015-06-07T06:29:26Z</time>
      </trkpt>
      <trkpt lat="47.9159" lon="-1.73883">
        <ele>42</ele>
        <time>2015-06-07T06:29:27Z</time>
      </trkpt>
      <trkpt lat="47.91586" lon="-1.73885">
        <ele>42</ele>
        <time>2015-06-07T06:29:28Z</time>
      </trkpt>
      <trkpt lat="47.91582" lon="-1.73886">
        <ele>42</ele>
        <time>2015-06-07T06:29:29Z</time>
      </trkpt>
      <trkpt lat="47.91578" lon="-1.73887">
        <ele>42</ele>
        <time>2015-06-07T06:29:30Z</time>
      </trkpt>
      <trkpt lat="47.91574" lon="-1.73888">
        <ele>42</ele>
        <time>2015-06-07T06:29:31Z</time>
      </trkpt>
      <trkpt lat="47.91569" lon="-1.73889">
        <ele>42</ele>
        <time>2015-06-07T06:29:32Z</time>
      </trkpt>
      <trkpt lat="47.91564" lon="-1.73889">
        <ele>42</ele>
        <time>2015-06-07T06:29:33Z</time>
      </trkpt>
      <trkpt lat="47.91559" lon="-1.73889">
        <ele>42</ele>
        <time>2015-06-07T06:29:34Z</time>
      </trkpt>
      <trkpt lat="47.91554" lon="-1.7389">
        <ele>42</ele>
        <time>2015-06-07T06:29:35Z</time>
      </trkpt>
      <trkpt lat="47.91549" lon="-1.7389">
        <ele>42</ele>
        <time>2015-06-07T06:29:36Z</time>
      </trkpt>
      <trkpt lat="47.91545" lon="-1.73891">
        <ele>41</ele>
        <time>2015-06-07T06:29:37Z</time>
      </trkpt>
      <trkpt lat="47.9154" lon="-1.73891">
        <ele>41</ele>
        <time>2015-06-07T06:29:38Z</time>
      </trkpt>
      <trkpt lat="47.91535" lon="-1.73892">
        <ele>41</ele>
        <time>2015-06-07T06:29:39Z</time>
      </trkpt>
      <trkpt lat="47.9153" lon="-1.73893">
        <ele>41</ele>
        <time>2015-06-07T06:29:40Z</time>
      </trkpt>
      <trkpt lat="47.91526" lon="-1.73893">
        <ele>41</ele>
        <time>2015-06-07T06:29:41Z</time>
      </trkpt>
      <trkpt lat="47.91521" lon="-1.73893">
        <ele>41</ele>
        <time>2015-06-07T06:29:42Z</time>
      </trkpt>
      <trkpt lat="47.91517" lon="-1.73894">
        <ele>41</ele>
        <time>2015-06-07T06:29:43Z</time>
      </trkpt>
      <trkpt lat="47.91513" lon="-1.73892">
        <ele>41</ele>
        <time>2015-06-07T06:29:44Z</time>
      </trkpt>
      <trkpt lat="47.9151" lon="-1.73889">
        <ele>41</ele>
        <time>2015-06-07T06:29:45Z</time>
      </trkpt>
      <trkpt lat="47.91506" lon="-1.73885">
        <ele>41</ele>
        <time>2015-06-07T06:29:46Z</time>
      </trkpt>
      <trkpt lat="47.91502" lon="-1.73881">
        <ele>41</ele>
        <time>2015-06-07T06:29:47Z</time>
      </trkpt>
      <trkpt lat="47.91498" lon="-1.73876">
        <ele>40</ele>
        <time>2015-06-07T06:29:48Z</time>
      </trkpt>
      <trkpt lat="47.91494" lon="-1.73869">
        <ele>40</ele>
        <time>2015-06-07T06:29:49Z</time>
      </trkpt>
      <trkpt lat="47.91491" lon="-1.73863">
        <ele>40</ele>
        <time>2015-06-07T06:29:50Z</time>
      </trkpt>
      <trkpt lat="47.91488" lon="-1.73856">
        <ele>39</ele>
        <time>2015-06-07T06:29:51Z</time>
      </trkpt>
      <trkpt lat="47.91485" lon="-1.7385">
        <ele>39</ele>
        <time>2015-06-07T06:29:52Z</time>
      </trkpt>
      <trkpt lat="47.91482" lon="-1.73844">
        <ele>39</ele>
        <time>2015-06-07T06:29:53Z</time>
      </trkpt>
      <trkpt lat="47.91479" lon="-1.73839">
        <ele>39</ele>
        <time>2015-06-07T06:29:54Z</time>
      </trkpt>
      <trkpt lat="47.91475" lon="-1.73835">
        <ele>39</ele>
        <time>2015-06-07T06:29:55Z</time>
      </trkpt>
      <trkpt lat="47.91471" lon="-1.7383">
        <ele>39</ele>
        <time>2015-06-07T06:29:56Z</time>
      </trkpt>
      <trkpt lat="47.91466" lon="-1.73826">
        <ele>38</ele>
        <time>2015-06-07T06:29:57Z</time>
      </trkpt>
      <trkpt lat="47.91461" lon="-1.73822">
        <ele>38</ele>
        <time>2015-06-07T06:29:58Z</time>
      </trkpt>
      <trkpt lat="47.91456" lon="-1.73819">
        <ele>38</ele>
        <time>2015-06-07T06:29:59Z</time>
      </trkpt>
      <trkpt lat="47.9145" lon="-1.73816">
        <ele>38</ele>
        <time>2015-06-07T06:30:00Z</time>
      </trkpt>
      <trkpt lat="47.91442" lon="-1.73815">
        <ele>38</ele>
        <time>2015-06-07T06:30:01Z</time>
      </trkpt>
      <trkpt lat="47.91434" lon="-1.73815">
        <ele>37</ele>
        <time>2015-06-07T06:30:02Z</time>
      </trkpt>
      <trkpt lat="47.91427" lon="-1.73816">
        <ele>37</ele>
        <time>2015-06-07T06:30:03Z</time>
      </trkpt>
      <trkpt lat="47.91419" lon="-1.73816">
        <ele>36</ele>
        <time>2015-06-07T06:30:04Z</time>
      </trkpt>
      <trkpt lat="47.91411" lon="-1.73814">
        <ele>36</ele>
        <time>2015-06-07T06:30:05Z</time>
      </trkpt>
      <trkpt lat="47.91404" lon="-1.73809">
        <ele>35</ele>
        <time>2015-06-07T06:30:06Z</time>
      </trkpt>
      <trkpt lat="47.91397" lon="-1.73803">
        <ele>35</ele>
        <time>2015-06-07T06:30:07Z</time>
      </trkpt>
      <trkpt lat="47.91391" lon="-1.73799">
        <ele>34</ele>
        <time>2015-06-07T06:30:08Z</time>
      </trkpt>
      <trkpt lat="47.91383" lon="-1.73796">
        <ele>33</ele>
        <time>2015-06-07T06:30:09Z</time>
      </trkpt>
      <trkpt lat="47.91376" lon="-1.73793">
        <ele>33</ele>
        <time>2015-06-07T06:30:10Z</time>
      </trkpt>
      <trkpt lat="47.91369" lon="-1.73791">
        <ele>32</ele>
        <time>2015-06-07T06:30:11Z</time>
      </trkpt>
      <trkpt lat="47.91362" lon="-1.73789">
        <ele>31</ele>
        <time>2015-06-07T06:30:12Z</time>
      </trkpt>
      <trkpt lat="47.91354" lon="-1.73787">
        <ele>31</ele>
        <time>2015-06-07T06:30:13Z</time>
      </trkpt>
      <trkpt lat="47.91347" lon="-1.73784">
        <ele>30</ele>
        <time>2015-06-07T06:30:14Z</time>
      </trkpt>
      <trkpt lat="47.91339" lon="-1.73782">
        <ele>29</ele>
        <time>2015-06-07T06:30:15Z</time>
      </trkpt>
      <trkpt lat="47.91332" lon="-1.7378">
        <ele>29</ele>
        <time>2015-06-07T06:30:16Z</time>
      </trkpt>
      <trkpt lat="47.91324" lon="-1.73777">
        <ele>28</ele>
        <time>2015-06-07T06:30:17Z</time>
      </trkpt>
      <trkpt lat="47.91317" lon="-1.73774">
        <ele>28</ele>
        <time>2015-06-07T06:30:18Z</time>
      </trkpt>
      <trkpt lat="47.91309" lon="-1.73772">
        <ele>27</ele>
        <time>2015-06-07T06:30:19Z</time>
      </trkpt>
      <trkpt lat="47.91302" lon="-1.73769">
        <ele>27</ele>
        <time>2015-06-07T06:30:20Z</time>
      </trkpt>
      <trkpt lat="47.91294" lon="-1.73767">
        <ele>26</ele>
        <time>2015-06-07T06:30:21Z</time>
      </trkpt>
      <trkpt lat="47.91287" lon="-1.73764">
        <ele>26</ele>
        <time>2015-06-07T06:30:22Z</time>
      </trkpt>
      <trkpt lat="47.9128" lon="-1.73761">
        <ele>25</ele>
        <time>2015-06-07T06:30:23Z</time>
      </trkpt>
      <trkpt lat="47.91273" lon="-1.73759">
        <ele>25</ele>
        <time>2015-06-07T06:30:24Z</time>
      </trkpt>
      <trkpt lat="47.91266" lon="-1.73757">
        <ele>24</ele>
        <time>2015-06-07T06:30:25Z</time>
      </trkpt>
      <trkpt lat="47.91259" lon="-1.73754">
        <ele>24</ele>
        <time>2015-06-07T06:30:26Z</time>
      </trkpt>
      <trkpt lat="47.91253" lon="-1.73753">
        <ele>24</ele>
        <time>2015-06-07T06:30:27Z</time>
      </trkpt>
      <trkpt lat="47.91246" lon="-1.7375">
        <ele>23</ele>
        <time>2015-06-07T06:30:28Z</time>
      </trkpt>
      <trkpt lat="47.91241" lon="-1.73747">
        <ele>23</ele>
        <time>2015-06-07T06:30:29Z</time>
      </trkpt>
      <trkpt lat="47.91236" lon="-1.73743">
        <ele>23</ele>
        <time>2015-06-07T06:30:30Z</time>
      </trkpt>
      <trkpt lat="47.91232" lon="-1.73738">
        <ele>22</ele>
        <time>2015-06-07T06:30:31Z</time>
      </trkpt>
      <trkpt lat="47.91229" lon="-1.73732">
        <ele>22</ele>
        <time>2015-06-07T06:30:32Z</time>
      </trkpt>
      <trkpt lat="47.91227" lon="-1.73726">
        <ele>22</ele>
        <time>2015-06-07T06:30:33Z</time>
      </trkpt>
      <trkpt lat="47.91225" lon="-1.73719">
        <ele>22</ele>
        <time>2015-06-07T06:30:34Z</time>
      </trkpt>
      <trkpt lat="47.91223" lon="-1.73713">
        <ele>22</ele>
        <time>2015-06-07T06:30:35Z</time>
      </trkpt>
      <trkpt lat="47.91223" lon="-1.73707">
        <ele>22</ele>
        <time>2015-06-07T06:30:36Z</time>
      </trkpt>
      <trkpt lat="47.91221" lon="-1.737">
        <ele>22</ele>
        <time>2015-06-07T06:30:37Z</time>
      </trkpt>
      <trkpt lat="47.91219" lon="-1.73692">
        <ele>22</ele>
        <time>2015-06-07T06:30:38Z</time>
      </trkpt>
      <trkpt lat="47.91216" lon="-1.73685">
        <ele>21</ele>
        <time>2015-06-07T06:30:39Z</time>
      </trkpt>
      <trkpt lat="47.91214" lon="-1.73677">
        <ele>21</ele>
        <time>2015-06-07T06:30:40Z</time>
      </trkpt>
      <trkpt lat="47.91211" lon="-1.73668">
        <ele>21</ele>
        <time>2015-06-07T06:30:41Z</time>
      </trkpt>
      <trkpt lat="47.91208" lon="-1.73661">
        <ele>21</ele>
        <time>2015-06-07T06:30:42Z</time>
      </trkpt>
      <trkpt lat="47.91205" lon="-1.73652">
        <ele>21</ele>
        <time>2015-06-07T06:30:43Z</time>
      </trkpt>
      <trkpt lat="47.91202" lon="-1.73644">
        <ele>21</ele>
        <time>2015-06-07T06:30:44Z</time>
      </trkpt>
      <trkpt lat="47.91199" lon="-1.73636">
        <ele>21</ele>
        <time>2015-06-07T06:30:45Z</time>
      </trkpt>
      <trkpt lat="47.91197" lon="-1.73627">
        <ele>21</ele>
        <time>2015-06-07T06:30:46Z</time>
      </trkpt>
      <trkpt lat="47.91194" lon="-1.73619">
        <ele>21</ele>
        <time>2015-06-07T06:30:47Z</time>
      </trkpt>
      <trkpt lat="47.91191" lon="-1.7361">
        <ele>20</ele>
        <time>2015-06-07T06:30:48Z</time>
      </trkpt>
      <trkpt lat="47.91188" lon="-1.73602">
        <ele>20</ele>
        <time>2015-06-07T06:30:49Z</time>
      </trkpt>
      <trkpt lat="47.91185" lon="-1.73594">
        <ele>20</ele>
        <time>2015-06-07T06:30:50Z</time>
      </trkpt>
      <trkpt lat="47.91182" lon="-1.73586">
        <ele>20</ele>
        <time>2015-06-07T06:30:51Z</time>
      </trkpt>
      <trkpt lat="47.9118" lon="-1.73578">
        <ele>20</ele>
        <time>2015-06-07T06:30:52Z</time>
      </trkpt>
      <trkpt lat="47.91177" lon="-1.7357">
        <ele>20</ele>
        <time>2015-06-07T06:30:53Z</time>
      </trkpt>
      <trkpt lat="47.91174" lon="-1.73561">
        <ele>20</ele>
        <time>2015-06-07T06:30:54Z</time>
      </trkpt>
      <trkpt lat="47.91171" lon="-1.73553">
        <ele>20</ele>
        <time>2015-06-07T06:30:55Z</time>
      </trkpt>
      <trkpt lat="47.91168" lon="-1.73545">
        <ele>19</ele>
        <time>2015-06-07T06:30:56Z</time>
      </trkpt>
      <trkpt lat="47.91165" lon="-1.73537">
        <ele>19</ele>
        <time>2015-06-07T06:30:57Z</time>
      </trkpt>
      <trkpt lat="47.91163" lon="-1.73529">
        <ele>19</ele>
        <time>2015-06-07T06:30:58Z</time>
      </trkpt>
      <trkpt lat="47.9116" lon="-1.73521">
        <ele>19</ele>
        <time>2015-06-07T06:30:59Z</time>
      </trkpt>
      <trkpt lat="47.91157" lon="-1.73513">
        <ele>19</ele>
        <time>2015-06-07T06:31:00Z</time>
      </trkpt>
      <trkpt lat="47.91154" lon="-1.73505">
        <ele>19</ele>
        <time>2015-06-07T06:31:01Z</time>
      </trkpt>
      <trkpt lat="47.91152" lon="-1.73497">
        <ele>19</ele>
        <time>2015-06-07T06:31:02Z</time>
      </trkpt>
      <trkpt lat="47.91149" lon="-1.7349">
        <ele>19</ele>
        <time>2015-06-07T06:31:03Z</time>
      </trkpt>
      <trkpt lat="47.91146" lon="-1.73482">
        <ele>19</ele>
        <time>2015-06-07T06:31:04Z</time>
      </trkpt>
      <trkpt lat="47.91144" lon="-1.73474">
        <ele>19</ele>
        <time>2015-06-07T06:31:05Z</time>
      </trkpt>
      <trkpt lat="47.91141" lon="-1.73466">
        <ele>19</ele>
        <time>2015-06-07T06:31:06Z</time>
      </trkpt>
      <trkpt lat="47.91138" lon="-1.73458">
        <ele>19</ele>
        <time>2015-06-07T06:31:07Z</time>
      </trkpt>
      <trkpt lat="47.91135" lon="-1.73451">
        <ele>19</ele>
        <time>2015-06-07T06:31:08Z</time>
      </trkpt>
      <trkpt lat="47.91133" lon="-1.73443">
        <ele>19</ele>
        <time>2015-06-07T06:31:09Z</time>
      </trkpt>
      <trkpt lat="47.9113" lon="-1.73435">
        <ele>19</ele>
        <time>2015-06-07T06:31:10Z</time>
      </trkpt>
      <trkpt lat="47.91128" lon="-1.73428">
        <ele>19</ele>
        <time>2015-06-07T06:31:11Z</time>
      </trkpt>
      <trkpt lat="47.91125" lon="-1.7342">
        <ele>19</ele>
        <time>2015-06-07T06:31:12Z</time>
      </trkpt>
      <trkpt lat="47.91122" lon="-1.73413">
        <ele>19</ele>
        <time>2015-06-07T06:31:13Z</time>
      </trkpt>
      <trkpt lat="47.91119" lon="-1.73405">
        <ele>19</ele>
        <time>2015-06-07T06:31:14Z</time>
      </trkpt>
      <trkpt lat="47.91117" lon="-1.73398">
        <ele>19</ele>
        <time>2015-06-07T06:31:15Z</time>
      </trkpt>
      <trkpt lat="47.91114" lon="-1.7339">
        <ele>19</ele>
        <time>2015-06-07T06:31:16Z</time>
      </trkpt>
      <trkpt lat="47.91112" lon="-1.73383">
        <ele>19</ele>
        <time>2015-06-07T06:31:17Z</time>
      </trkpt>
      <trkpt lat="47.91109" lon="-1.73375">
        <ele>19</ele>
        <time>2015-06-07T06:31:18Z</time>
      </trkpt>
      <trkpt lat="47.91107" lon="-1.73367">
        <ele>19</ele>
        <time>2015-06-07T06:31:19Z</time>
      </trkpt>
      <trkpt lat="47.91104" lon="-1.7336">
        <ele>19</ele>
        <time>2015-06-07T06:31:20Z</time>
      </trkpt>
      <trkpt lat="47.91102" lon="-1.73352">
        <ele>19</ele>
        <time>2015-06-07T06:31:21Z</time>
      </trkpt>
      <trkpt lat="47.911" lon="-1.73345">
        <ele>19</ele>
        <time>2015-06-07T06:31:22Z</time>
      </trkpt>
      <trkpt lat="47.91098" lon="-1.73337">
        <ele>20</ele>
        <time>2015-06-07T06:31:23Z</time>
      </trkpt>
      <trkpt lat="47.91096" lon="-1.73329">
        <ele>20</ele>
        <time>2015-06-07T06:31:24Z</time>
      </trkpt>
      <trkpt lat="47.91094" lon="-1.73321">
        <ele>20</ele>
        <time>2015-06-07T06:31:25Z</time>
      </trkpt>
      <trkpt lat="47.91093" lon="-1.73313">
        <ele>20</ele>
        <time>2015-06-07T06:31:26Z</time>
      </trkpt>
      <trkpt lat="47.91092" lon="-1.73306">
        <ele>20</ele>
        <time>2015-06-07T06:31:27Z</time>
      </trkpt>
      <trkpt lat="47.9109" lon="-1.73299">
        <ele>20</ele>
        <time>2015-06-07T06:31:28Z</time>
      </trkpt>
      <trkpt lat="47.9109" lon="-1.73292">
        <ele>21</ele>
        <time>2015-06-07T06:31:29Z</time>
      </trkpt>
      <trkpt lat="47.91089" lon="-1.73285">
        <ele>21</ele>
        <time>2015-06-07T06:31:30Z</time>
      </trkpt>
      <trkpt lat="47.91089" lon="-1.73278">
        <ele>21</ele>
        <time>2015-06-07T06:31:31Z</time>
      </trkpt>
      <trkpt lat="47.91088" lon="-1.73271">
        <ele>21</ele>
        <time>2015-06-07T06:31:32Z</time>
      </trkpt>
      <trkpt lat="47.91088" lon="-1.73264">
        <ele>22</ele>
        <time>2015-06-07T06:31:33Z</time>
      </trkpt>
      <trkpt lat="47.91088" lon="-1.73256">
        <ele>22</ele>
        <time>2015-06-07T06:31:34Z</time>
      </trkpt>
      <trkpt lat="47.91087" lon="-1.73249">
        <ele>22</ele>
        <time>2015-06-07T06:31:35Z</time>
      </trkpt>
      <trkpt lat="47.91087" lon="-1.73241">
        <ele>23</ele>
        <time>2015-06-07T06:31:36Z</time>
      </trkpt>
      <trkpt lat="47.91087" lon="-1.73234">
        <ele>23</ele>
        <time>2015-06-07T06:31:37Z</time>
      </trkpt>
      <trkpt lat="47.91087" lon="-1.73226">
        <ele>24</ele>
        <time>2015-06-07T06:31:38Z</time>
      </trkpt>
      <trkpt lat="47.91086" lon="-1.73219">
        <ele>24</ele>
        <time>2015-06-07T06:31:39Z</time>
      </trkpt>
      <trkpt lat="47.91086" lon="-1.73212">
        <ele>25</ele>
        <time>2015-06-07T06:31:40Z</time>
      </trkpt>
      <trkpt lat="47.91086" lon="-1.73205">
        <ele>25</ele>
        <time>2015-06-07T06:31:41Z</time>
      </trkpt>
      <trkpt lat="47.91085" lon="-1.73198">
        <ele>25</ele>
        <time>2015-06-07T06:31:42Z</time>
      </trkpt>
      <trkpt lat="47.91085" lon="-1.7319">
        <ele>26</ele>
        <time>2015-06-07T06:31:43Z</time>
      </trkpt>
      <trkpt lat="47.91084" lon="-1.73183">
        <ele>26</ele>
        <time>2015-06-07T06:31:44Z</time>
      </trkpt>
      <trkpt lat="47.91084" lon="-1.73177">
        <ele>27</ele>
        <time>2015-06-07T06:31:45Z</time>
      </trkpt>
      <trkpt lat="47.91083" lon="-1.7317">
        <ele>27</ele>
        <time>2015-06-07T06:31:46Z</time>
      </trkpt>
      <trkpt lat="47.91082" lon="-1.73163">
        <ele>27</ele>
        <time>2015-06-07T06:31:47Z</time>
      </trkpt>
      <trkpt lat="47.91082" lon="-1.73156">
        <ele>28</ele>
        <time>2015-06-07T06:31:48Z</time>
      </trkpt>
      <trkpt lat="47.91081" lon="-1.73149">
        <ele>28</ele>
        <time>2015-06-07T06:31:49Z</time>
      </trkpt>
      <trkpt lat="47.9108" lon="-1.73143">
        <ele>29</ele>
        <time>2015-06-07T06:31:50Z</time>
      </trkpt>
      <trkpt lat="47.91079" lon="-1.73136">
        <ele>29</ele>
        <time>2015-06-07T06:31:51Z</time>
      </trkpt>
      <trkpt lat="47.91078" lon="-1.73129">
        <ele>30</ele>
        <time>2015-06-07T06:31:52Z</time>
      </trkpt>
      <trkpt lat="47.91077" lon="-1.73123">
        <ele>30</ele>
        <time>2015-06-07T06:31:53Z</time>
      </trkpt>
      <trkpt lat="47.91076" lon="-1.73116">
        <ele>30</ele>
        <time>2015-06-07T06:31:54Z</time>
      </trkpt>
      <trkpt lat="47.91076" lon="-1.73109">
        <ele>31</ele>
        <time>2015-06-07T06:31:55Z</time>
      </trkpt>
      <trkpt lat="47.91075" lon="-1.73103">
        <ele>31</ele>
        <time>2015-06-07T06:31:56Z</time>
      </trkpt>
      <trkpt lat="47.91074" lon="-1.73096">
        <ele>32</ele>
        <time>2015-06-07T06:31:57Z</time>
      </trkpt>
      <trkpt lat="47.91073" lon="-1.7309">
        <ele>32</ele>
        <time>2015-06-07T06:31:58Z</time>
      </trkpt>
      <trkpt lat="47.91072" lon="-1.73083">
        <ele>32</ele>
        <time>2015-06-07T06:31:59Z</time>
      </trkpt>
      <trkpt lat="47.91071" lon="-1.73077">
        <ele>33</ele>
        <time>2015-06-07T06:32:00Z</time>
      </trkpt>
      <trkpt lat="47.9107" lon="-1.7307">
        <ele>33</ele>
        <time>2015-06-07T06:32:01Z</time>
      </trkpt>
      <trkpt lat="47.91069" lon="-1.73064">
        <ele>33</ele>
        <time>2015-06-07T06:32:02Z</time>
      </trkpt>
      <trkpt lat="47.91068" lon="-1.73057">
        <ele>34</ele>
        <time>2015-06-07T06:32:03Z</time>
      </trkpt>
      <trkpt lat="47.91067" lon="-1.73051">
        <ele>34</ele>
        <time>2015-06-07T06:32:04Z</time>
      </trkpt>
      <trkpt lat="47.91066" lon="-1.73044">
        <ele>35</ele>
        <time>2015-06-07T06:32:05Z</time>
      </trkpt>
      <trkpt lat="47.91066" lon="-1.73038">
        <ele>35</ele>
        <time>2015-06-07T06:32:06Z</time>
      </trkpt>
      <trkpt lat="47.91065" lon="-1.73031">
        <ele>36</ele>
        <time>2015-06-07T06:32:07Z</time>
      </trkpt>
      <trkpt lat="47.91064" lon="-1.73025">
        <ele>36</ele>
        <time>2015-06-07T06:32:08Z</time>
      </trkpt>
      <trkpt lat="47.91064" lon="-1.73019">
        <ele>36</ele>
        <time>2015-06-07T06:32:09Z</time>
      </trkpt>
      <trkpt lat="47.91064" lon="-1.73013">
        <ele>37</ele>
        <time>2015-06-07T06:32:10Z</time>
      </trkpt>
      <trkpt lat="47.91064" lon="-1.73008">
        <ele>37</ele>
        <time>2015-06-07T06:32:11Z</time>
      </trkpt>
      <trkpt lat="47.91065" lon="-1.73003">
        <ele>37</ele>
        <time>2015-06-07T06:32:12Z</time>
      </trkpt>
      <trkpt lat="47.91067" lon="-1.72999">
        <ele>38</ele>
        <time>2015-06-07T06:32:13Z</time>
      </trkpt>
      <trkpt lat="47.9107" lon="-1.72998">
        <ele>38</ele>
        <time>2015-06-07T06:32:14Z</time>
      </trkpt>
      <trkpt lat="47.91074" lon="-1.72998">
        <ele>38</ele>
        <time>2015-06-07T06:32:15Z</time>
      </trkpt>
      <trkpt lat="47.91077" lon="-1.72997">
        <ele>38</ele>
        <time>2015-06-07T06:32:16Z</time>
      </trkpt>
      <trkpt lat="47.91081" lon="-1.72997">
        <ele>38</ele>
        <time>2015-06-07T06:32:17Z</time>
      </trkpt>
      <trkpt lat="47.91085" lon="-1.72997">
        <ele>38</ele>
        <time>2015-06-07T06:32:18Z</time>
      </trkpt>
      <trkpt lat="47.91089" lon="-1.72996">
        <ele>38</ele>
        <time>2015-06-07T06:32:19Z</time>
      </trkpt>
      <trkpt lat="47.91093" lon="-1.72995">
        <ele>38</ele>
        <time>2015-06-07T06:32:20Z</time>
      </trkpt>
      <trkpt lat="47.91098" lon="-1.72993">
        <ele>38</ele>
        <time>2015-06-07T06:32:21Z</time>
      </trkpt>
      <trkpt lat="47.91102" lon="-1.72991">
        <ele>38</ele>
        <time>2015-06-07T06:32:22Z</time>
      </trkpt>
      <trkpt lat="47.91106" lon="-1.72989">
        <ele>38</ele>
        <time>2015-06-07T06:32:23Z</time>
      </trkpt>
      <trkpt lat="47.9111" lon="-1.72987">
        <ele>38</ele>
        <time>2015-06-07T06:32:24Z</time>
      </trkpt>
      <trkpt lat="47.91114" lon="-1.72985">
        <ele>39</ele>
        <time>2015-06-07T06:32:25Z</time>
      </trkpt>
      <trkpt lat="47.91119" lon="-1.72982">
        <ele>39</ele>
        <time>2015-06-07T06:32:26Z</time>
      </trkpt>
      <trkpt lat="47.91123" lon="-1.7298">
        <ele>39</ele>
        <time>2015-06-07T06:32:27Z</time>
      </trkpt>
      <trkpt lat="47.91127" lon="-1.72978">
        <ele>39</ele>
        <time>2015-06-07T06:32:28Z</time>
      </trkpt>
      <trkpt lat="47.91131" lon="-1.72976">
        <ele>39</ele>
        <time>2015-06-07T06:32:29Z</time>
      </trkpt>
      <trkpt lat="47.91135" lon="-1.72974">
        <ele>39</ele>
        <time>2015-06-07T06:32:30Z</time>
      </trkpt>
      <trkpt lat="47.91139" lon="-1.72972">
        <ele>39</ele>
        <time>2015-06-07T06:32:31Z</time>
      </trkpt>
      <trkpt lat="47.91143" lon="-1.7297">
        <ele>39</ele>
        <time>2015-06-07T06:32:32Z</time>
      </trkpt>
      <trkpt lat="47.91147" lon="-1.72968">
        <ele>39</ele>
        <time>2015-06-07T06:32:33Z</time>
      </trkpt>
      <trkpt lat="47.91151" lon="-1.72966">
        <ele>39</ele>
        <time>2015-06-07T06:32:34Z</time>
      </trkpt>
      <trkpt lat="47.91155" lon="-1.72964">
        <ele>39</ele>
        <time>2015-06-07T06:32:35Z</time>
      </trkpt>
      <trkpt lat="47.91159" lon="-1.72963">
        <ele>39</ele>
        <time>2015-06-07T06:32:36Z</time>
      </trkpt>
      <trkpt lat="47.91163" lon="-1.72961">
        <ele>40</ele>
        <time>2015-06-07T06:32:37Z</time>
      </trkpt>
      <trkpt lat="47.91167" lon="-1.72959">
        <ele>40</ele>
        <time>2015-06-07T06:32:38Z</time>
      </trkpt>
      <trkpt lat="47.91171" lon="-1.72957">
        <ele>40</ele>
        <time>2015-06-07T06:32:39Z</time>
      </trkpt>
      <trkpt lat="47.91175" lon="-1.72956">
        <ele>40</ele>
        <time>2015-06-07T06:32:40Z</time>
      </trkpt>
      <trkpt lat="47.91178" lon="-1.72954">
        <ele>41</ele>
        <time>2015-06-07T06:32:41Z</time>
      </trkpt>
      <trkpt lat="47.91182" lon="-1.72952">
        <ele>41</ele>
        <time>2015-06-07T06:32:42Z</time>
      </trkpt>
      <trkpt lat="47.91186" lon="-1.7295">
        <ele>41</ele>
        <time>2015-06-07T06:32:43Z</time>
      </trkpt>
      <trkpt lat="47.9119" lon="-1.72948">
        <ele>41</ele>
        <time>2015-06-07T06:32:44Z</time>
      </trkpt>
      <trkpt lat="47.91194" lon="-1.72946">
        <ele>42</ele>
        <time>2015-06-07T06:32:45Z</time>
      </trkpt>
      <trkpt lat="47.91197" lon="-1.72945">
        <ele>42</ele>
        <time>2015-06-07T06:32:46Z</time>
      </trkpt>
      <trkpt lat="47.91201" lon="-1.72943">
        <ele>42</ele>
        <time>2015-06-07T06:32:47Z</time>
      </trkpt>
      <trkpt lat="47.91205" lon="-1.72941">
        <ele>42</ele>
        <time>2015-06-07T06:32:48Z</time>
      </trkpt>
      <trkpt lat="47.91209" lon="-1.72939">
        <ele>43</ele>
        <time>2015-06-07T06:32:49Z</time>
      </trkpt>
      <trkpt lat="47.91213" lon="-1.72937">
        <ele>43</ele>
        <time>2015-06-07T06:32:50Z</time>
      </trkpt>
      <trkpt lat="47.91217" lon="-1.72935">
        <ele>43</ele>
        <time>2015-06-07T06:32:51Z</time>
      </trkpt>
      <trkpt lat="47.91221" lon="-1.72933">
        <ele>43</ele>
        <time>2015-06-07T06:32:52Z</time>
      </trkpt>
      <trkpt lat="47.91224" lon="-1.72931">
        <ele>43</ele>
        <time>2015-06-07T06:32:53Z</time>
      </trkpt>
      <trkpt lat="47.91228" lon="-1.72929">
        <ele>44</ele>
        <time>2015-06-07T06:32:54Z</time>
      </trkpt>
      <trkpt lat="47.91232" lon="-1.72927">
        <ele>44</ele>
        <time>2015-06-07T06:32:55Z</time>
      </trkpt>
      <trkpt lat="47.91236" lon="-1.72925">
        <ele>44</ele>
        <time>2015-06-07T06:32:56Z</time>
      </trkpt>
      <trkpt lat="47.9124" lon="-1.72923">
        <ele>44</ele>
        <time>2015-06-07T06:32:57Z</time>
      </trkpt>
      <trkpt lat="47.91244" lon="-1.72921">
        <ele>44</ele>
        <time>2015-06-07T06:32:58Z</time>
      </trkpt>
      <trkpt lat="47.91248" lon="-1.72919">
        <ele>44</ele>
        <time>2015-06-07T06:32:59Z</time>
      </trkpt>
      <trkpt lat="47.91252" lon="-1.72917">
        <ele>45</ele>
        <time>2015-06-07T06:33:00Z</time>
      </trkpt>
      <trkpt lat="47.91256" lon="-1.72914">
        <ele>45</ele>
        <time>2015-06-07T06:33:01Z</time>
      </trkpt>
      <trkpt lat="47.9126" lon="-1.72912">
        <ele>45</ele>
        <time>2015-06-07T06:33:02Z</time>
      </trkpt>
      <trkpt lat="47.91264" lon="-1.7291">
        <ele>45</ele>
        <time>2015-06-07T06:33:03Z</time>
      </trkpt>
      <trkpt lat="47.91268" lon="-1.72908">
        <ele>45</ele>
        <time>2015-06-07T06:33:04Z</time>
      </trkpt>
      <trkpt lat="47.91272" lon="-1.72906">
        <ele>45</ele>
        <time>2015-06-07T06:33:05Z</time>
      </trkpt>
      <trkpt lat="47.91276" lon="-1.72904">
        <ele>45</ele>
        <time>2015-06-07T06:33:06Z</time>
      </trkpt>
      <trkpt lat="47.9128" lon="-1.72902">
        <ele>46</ele>
        <time>2015-06-07T06:33:07Z</time>
      </trkpt>
      <trkpt lat="47.91284" lon="-1.729">
        <ele>46</ele>
        <time>2015-06-07T06:33:08Z</time>
      </trkpt>
      <trkpt lat="47.91289" lon="-1.72897">
        <ele>46</ele>
        <time>2015-06-07T06:33:09Z</time>
      </trkpt>
      <trkpt lat="47.91293" lon="-1.72895">
        <ele>46</ele>
        <time>2015-06-07T06:33:10Z</time>
      </trkpt>
      <trkpt lat="47.91297" lon="-1.72893">
        <ele>46</ele>
        <time>2015-06-07T06:33:11Z</time>
      </trkpt>
      <trkpt lat="47.91301" lon="-1.72891">
        <ele>46</ele>
        <time>2015-06-07T06:33:12Z</time>
      </trkpt>
      <trkpt lat="47.91305" lon="-1.72889">
        <ele>46</ele>
        <time>2015-06-07T06:33:13Z</time>
      </trkpt>
      <trkpt lat="47.91309" lon="-1.72887">
        <ele>47</ele>
        <time>2015-06-07T06:33:14Z</time>
      </trkpt>
      <trkpt lat="47.91313" lon="-1.72885">
        <ele>47</ele>
        <time>2015-06-07T06:33:15Z</time>
      </trkpt>
      <trkpt lat="47.91317" lon="-1.72883">
        <ele>47</ele>
        <time>2015-06-07T06:33:16Z</time>
      </trkpt>
      <trkpt lat="47.91322" lon="-1.72881">
        <ele>47</ele>
        <time>2015-06-07T06:33:17Z</time>
      </trkpt>
      <trkpt lat="47.91326" lon="-1.72879">
        <ele>47</ele>
        <time>2015-06-07T06:33:18Z</time>
      </trkpt>
      <trkpt lat="47.9133" lon="-1.72877">
        <ele>47</ele>
        <time>2015-06-07T06:33:19Z</time>
      </trkpt>
      <trkpt lat="47.91334" lon="-1.72875">
        <ele>48</ele>
        <time>2015-06-07T06:33:20Z</time>
      </trkpt>
      <trkpt lat="47.91338" lon="-1.72873">
        <ele>48</ele>
        <time>2015-06-07T06:33:21Z</time>
      </trkpt>
      <trkpt lat="47.91342" lon="-1.72871">
        <ele>48</ele>
        <time>2015-06-07T06:33:22Z</time>
      </trkpt>
      <trkpt lat="47.91346" lon="-1.7287">
        <ele>48</ele>
        <time>2015-06-07T06:33:23Z</time>
      </trkpt>
      <trkpt lat="47.9135" lon="-1.72868">
        <ele>49</ele>
        <time>2015-06-07T06:33:24Z</time>
      </trkpt>
      <trkpt lat="47.91354" lon="-1.72867">
        <ele>49</ele>
        <time>2015-06-07T06:33:25Z</time>
      </trkpt>
      <trkpt lat="47.91358" lon="-1.72866">
        <ele>49</ele>
        <time>2015-06-07T06:33:26Z</time>
      </trkpt>
      <trkpt lat="47.91361" lon="-1.72864">
        <ele>49</ele>
        <time>2015-06-07T06:33:27Z</time>
      </trkpt>
      <trkpt lat="47.91365" lon="-1.72863">
        <ele>50</ele>
        <time>2015-06-07T06:33:28Z</time>
      </trkpt>
      <trkpt lat="47.9137" lon="-1.72862">
        <ele>50</ele>
        <time>2015-06-07T06:33:29Z</time>
      </trkpt>
      <trkpt lat="47.91374" lon="-1.72861">
        <ele>50</ele>
        <time>2015-06-07T06:33:30Z</time>
      </trkpt>
      <trkpt lat="47.91378" lon="-1.7286">
        <ele>51</ele>
        <time>2015-06-07T06:33:31Z</time>
      </trkpt>
      <trkpt lat="47.91382" lon="-1.72859">
        <ele>51</ele>
        <time>2015-06-07T06:33:32Z</time>
      </trkpt>
      <trkpt lat="47.91386" lon="-1.72858">
        <ele>51</ele>
        <time>2015-06-07T06:33:33Z</time>
      </trkpt>
      <trkpt lat="47.9139" lon="-1.72857">
        <ele>52</ele>
        <time>2015-06-07T06:33:34Z</time>
      </trkpt>
      <trkpt lat="47.91394" lon="-1.72857">
        <ele>52</ele>
        <time>2015-06-07T06:33:35Z</time>
      </trkpt>
      <trkpt lat="47.91398" lon="-1.72856">
        <ele>52</ele>
        <time>2015-06-07T06:33:36Z</time>
      </trkpt>
      <trkpt lat="47.91402" lon="-1.72856">
        <ele>53</ele>
        <time>2015-06-07T06:33:37Z</time>
      </trkpt>
      <trkpt lat="47.91406" lon="-1.72855">
        <ele>53</ele>
        <time>2015-06-07T06:33:38Z</time>
      </trkpt>
      <trkpt lat="47.9141" lon="-1.72854">
        <ele>54</ele>
        <time>2015-06-07T06:33:39Z</time>
      </trkpt>
      <trkpt lat="47.91414" lon="-1.72854">
        <ele>54</ele>
        <time>2015-06-07T06:33:40Z</time>
      </trkpt>
      <trkpt lat="47.91418" lon="-1.72854">
        <ele>54</ele>
        <time>2015-06-07T06:33:41Z</time>
      </trkpt>
      <trkpt lat="47.91422" lon="-1.72853">
        <ele>55</ele>
        <time>2015-06-07T06:33:42Z</time>
      </trkpt>
      <trkpt lat="47.91426" lon="-1.72853">
        <ele>55</ele>
        <time>2015-06-07T06:33:43Z</time>
      </trkpt>
      <trkpt lat="47.9143" lon="-1.72853">
        <ele>55</ele>
        <time>2015-06-07T06:33:44Z</time>
      </trkpt>
      <trkpt lat="47.91433" lon="-1.72853">
        <ele>56</ele>
        <time>2015-06-07T06:33:45Z</time>
      </trkpt>
      <trkpt lat="47.91437" lon="-1.72852">
        <ele>56</ele>
        <time>2015-06-07T06:33:46Z</time>
      </trkpt>
      <trkpt lat="47.91441" lon="-1.72852">
        <ele>56</ele>
        <time>2015-06-07T06:33:47Z</time>
      </trkpt>
      <trkpt lat="47.91444" lon="-1.72852">
        <ele>57</ele>
        <time>2015-06-07T06:33:48Z</time>
      </trkpt>
      <trkpt lat="47.91448" lon="-1.72852">
        <ele>57</ele>
        <time>2015-06-07T06:33:49Z</time>
      </trkpt>
      <trkpt lat="47.91451" lon="-1.72851">
        <ele>58</ele>
        <time>2015-06-07T06:33:50Z</time>
      </trkpt>
      <trkpt lat="47.91455" lon="-1.72849">
        <ele>58</ele>
        <time>2015-06-07T06:33:51Z</time>
      </trkpt>
      <trkpt lat="47.91458" lon="-1.72847">
        <ele>58</ele>
        <time>2015-06-07T06:33:52Z</time>
      </trkpt>
      <trkpt lat="47.9146" lon="-1.72844">
        <ele>59</ele>
        <time>2015-06-07T06:33:53Z</time>
      </trkpt>
      <trkpt lat="47.91462" lon="-1.7284">
        <ele>59</ele>
        <time>2015-06-07T06:33:54Z</time>
      </trkpt>
      <trkpt lat="47.91464" lon="-1.72835">
        <ele>59</ele>
        <time>2015-06-07T06:33:55Z</time>
      </trkpt>
      <trkpt lat="47.91464" lon="-1.72831">
        <ele>59</ele>
        <time>2015-06-07T06:33:56Z</time>
      </trkpt>
      <trkpt lat="47.91466" lon="-1.72827">
        <ele>59</ele>
        <time>2015-06-07T06:33:57Z</time>
      </trkpt>
      <trkpt lat="47.91467" lon="-1.72823">
        <ele>59</ele>
        <time>2015-06-07T06:33:58Z</time>
      </trkpt>
      <trkpt lat="47.9147" lon="-1.72822">
        <ele>59</ele>
        <time>2015-06-07T06:33:59Z</time>
      </trkpt>
      <trkpt lat="47.91472" lon="-1.72823">
        <ele>59</ele>
        <time>2015-06-07T06:34:00Z</time>
      </trkpt>
      <trkpt lat="47.91475" lon="-1.72824">
        <ele>59</ele>
        <time>2015-06-07T06:34:01Z</time>
      </trkpt>
      <trkpt lat="47.91477" lon="-1.72824">
        <ele>60</ele>
        <time>2015-06-07T06:34:02Z</time>
      </trkpt>
      <trkpt lat="47.9148" lon="-1.72825">
        <ele>60</ele>
        <time>2015-06-07T06:34:03Z</time>
      </trkpt>
      <trkpt lat="47.91484" lon="-1.72825">
        <ele>60</ele>
        <time>2015-06-07T06:34:04Z</time>
      </trkpt>
      <trkpt lat="47.91487" lon="-1.72825">
        <ele>60</ele>
        <time>2015-06-07T06:34:05Z</time>
      </trkpt>
      <trkpt lat="47.9149" lon="-1.72825">
        <ele>59</ele>
        <time>2015-06-07T06:34:06Z</time>
      </trkpt>
      <trkpt lat="47.91493" lon="-1.72826">
        <ele>59</ele>
        <time>2015-06-07T06:34:07Z</time>
      </trkpt>
      <trkpt lat="47.91496" lon="-1.72826">
        <ele>59</ele>
        <time>2015-06-07T06:34:08Z</time>
      </trkpt>
      <trkpt lat="47.915" lon="-1.72826">
        <ele>59</ele>
        <time>2015-06-07T06:34:09Z</time>
      </trkpt>
      <trkpt lat="47.91503" lon="-1.72826">
        <ele>59</ele>
        <time>2015-06-07T06:34:10Z</time>
      </trkpt>
      <trkpt lat="47.91507" lon="-1.72826">
        <ele>60</ele>
        <time>2015-06-07T06:34:11Z</time>
      </trkpt>
      <trkpt lat="47.9151" lon="-1.72825">
        <ele>60</ele>
        <time>2015-06-07T06:34:12Z</time>
      </trkpt>
      <trkpt lat="47.91513" lon="-1.72826">
        <ele>60</ele>
        <time>2015-06-07T06:34:13Z</time>
      </trkpt>
      <trkpt lat="47.91516" lon="-1.72826">
        <ele>60</ele>
        <time>2015-06-07T06:34:14Z</time>
      </trkpt>
      <trkpt lat="47.91519" lon="-1.72825">
        <ele>60</ele>
        <time>2015-06-07T06:34:15Z</time>
      </trkpt>
      <trkpt lat="47.91522" lon="-1.72825">
        <ele>60</ele>
        <time>2015-06-07T06:34:16Z</time>
      </trkpt>
      <trkpt lat="47.91524" lon="-1.72825">
        <ele>60</ele>
        <time>2015-06-07T06:34:17Z</time>
      </trkpt>
      <trkpt lat="47.91527" lon="-1.72826">
        <ele>60</ele>
        <time>2015-06-07T06:34:18Z</time>
      </trkpt>
      <trkpt lat="47.91529" lon="-1.72826">
        <ele>60</ele>
        <time>2015-06-07T06:34:19Z</time>
      </trkpt>
      <trkpt lat="47.91532" lon="-1.72827">
        <ele>60</ele>
        <time>2015-06-07T06:34:20Z</time>
      </trkpt>
      <trkpt lat="47.91534" lon="-1.72828">
        <ele>60</ele>
        <time>2015-06-07T06:34:21Z</time>
      </trkpt>
      <trkpt lat="47.91536" lon="-1.72829">
        <ele>61</ele>
        <time>2015-06-07T06:34:22Z</time>
      </trkpt>
      <trkpt lat="47.91539" lon="-1.72831">
        <ele>61</ele>
        <time>2015-06-07T06:34:23Z</time>
      </trkpt>
      <trkpt lat="47.9154" lon="-1.72833">
        <ele>61</ele>
        <time>2015-06-07T06:34:24Z</time>
      </trkpt>
      <trkpt lat="47.9154" lon="-1.72836">
        <ele>61</ele>
        <time>2015-06-07T06:34:25Z</time>
      </trkpt>
      <trkpt lat="47.91541" lon="-1.7284">
        <ele>61</ele>
        <time>2015-06-07T06:34:26Z</time>
      </trkpt>
      <trkpt lat="47.91541" lon="-1.72843">
        <ele>61</ele>
        <time>2015-06-07T06:34:27Z</time>
      </trkpt>
      <trkpt lat="47.91541" lon="-1.72847">
        <ele>61</ele>
        <time>2015-06-07T06:34:28Z</time>
      </trkpt>
      <trkpt lat="47.91541" lon="-1.72851">
        <ele>62</ele>
        <time>2015-06-07T06:34:29Z</time>
      </trkpt>
      <trkpt lat="47.91541" lon="-1.72855">
        <ele>62</ele>
        <time>2015-06-07T06:34:30Z</time>
      </trkpt>
      <trkpt lat="47.91541" lon="-1.7286">
        <ele>62</ele>
        <time>2015-06-07T06:34:31Z</time>
      </trkpt>
      <trkpt lat="47.91541" lon="-1.72865">
        <ele>62</ele>
        <time>2015-06-07T06:34:32Z</time>
      </trkpt>
      <trkpt lat="47.91541" lon="-1.7287">
        <ele>62</ele>
        <time>2015-06-07T06:34:33Z</time>
      </trkpt>
      <trkpt lat="47.91541" lon="-1.72876">
        <ele>63</ele>
        <time>2015-06-07T06:34:34Z</time>
      </trkpt>
      <trkpt lat="47.91541" lon="-1.72881">
        <ele>63</ele>
        <time>2015-06-07T06:34:35Z</time>
      </trkpt>
      <trkpt lat="47.91542" lon="-1.72886">
        <ele>63</ele>
        <time>2015-06-07T06:34:36Z</time>
      </trkpt>
      <trkpt lat="47.91542" lon="-1.72891">
        <ele>64</ele>
        <time>2015-06-07T06:34:37Z</time>
      </trkpt>
      <trkpt lat="47.91542" lon="-1.72896">
        <ele>64</ele>
        <time>2015-06-07T06:34:38Z</time>
      </trkpt>
      <trkpt lat="47.91542" lon="-1.72901">
        <ele>64</ele>
        <time>2015-06-07T06:34:39Z</time>
      </trkpt>
      <trkpt lat="47.91542" lon="-1.72908">
        <ele>64</ele>
        <time>2015-06-07T06:34:40Z</time>
      </trkpt>
      <trkpt lat="47.91542" lon="-1.72914">
        <ele>64</ele>
        <time>2015-06-07T06:34:41Z</time>
      </trkpt>
      <trkpt lat="47.91543" lon="-1.7292">
        <ele>64</ele>
        <time>2015-06-07T06:34:42Z</time>
      </trkpt>
      <trkpt lat="47.91545" lon="-1.72926">
        <ele>64</ele>
        <time>2015-06-07T06:34:43Z</time>
      </trkpt>
      <trkpt lat="47.91547" lon="-1.72931">
        <ele>64</ele>
        <time>2015-06-07T06:34:44Z</time>
      </trkpt>
      <trkpt lat="47.91549" lon="-1.72932">
        <ele>64</ele>
        <time>2015-06-07T06:34:45Z</time>
      </trkpt>
      <trkpt lat="47.91552" lon="-1.72932">
        <ele>65</ele>
        <time>2015-06-07T06:34:46Z</time>
      </trkpt>
      <trkpt lat="47.91554" lon="-1.72932">
        <ele>65</ele>
        <time>2015-06-07T06:34:47Z</time>
      </trkpt>
      <trkpt lat="47.91556" lon="-1.72932">
        <ele>65</ele>
        <time>2015-06-07T06:34:48Z</time>
      </trkpt>
      <trkpt lat="47.91559" lon="-1.72932">
        <ele>65</ele>
        <time>2015-06-07T06:34:49Z</time>
      </trkpt>
      <trkpt lat="47.91562" lon="-1.7293">
        <ele>65</ele>
        <time>2015-06-07T06:34:50Z</time>
      </trkpt>
      <trkpt lat="47.91565" lon="-1.7293">
        <ele>65</ele>
        <time>2015-06-07T06:34:51Z</time>
      </trkpt>
      <trkpt lat="47.91568" lon="-1.7293">
        <ele>66</ele>
        <time>2015-06-07T06:34:52Z</time>
      </trkpt>
      <trkpt lat="47.91571" lon="-1.7293">
        <ele>66</ele>
        <time>2015-06-07T06:34:53Z</time>
      </trkpt>
      <trkpt lat="47.91574" lon="-1.72931">
        <ele>66</ele>
        <time>2015-06-07T06:34:54Z</time>
      </trkpt>
      <trkpt lat="47.91577" lon="-1.7293">
        <ele>67</ele>
        <time>2015-06-07T06:34:55Z</time>
      </trkpt>
      <trkpt lat="47.9158" lon="-1.7293">
        <ele>67</ele>
        <time>2015-06-07T06:34:56Z</time>
      </trkpt>
      <trkpt lat="47.91582" lon="-1.72931">
        <ele>67</ele>
        <time>2015-06-07T06:34:57Z</time>
      </trkpt>
      <trkpt lat="47.91585" lon="-1.72932">
        <ele>67</ele>
        <time>2015-06-07T06:34:58Z</time>
      </trkpt>
      <trkpt lat="47.91588" lon="-1.72933">
        <ele>67</ele>
        <time>2015-06-07T06:34:59Z</time>
      </trkpt>
      <trkpt lat="47.91591" lon="-1.72934">
        <ele>68</ele>
        <time>2015-06-07T06:35:00Z</time>
      </trkpt>
      <trkpt lat="47.91594" lon="-1.72934">
        <ele>68</ele>
        <time>2015-06-07T06:35:01Z</time>
      </trkpt>
      <trkpt lat="47.91597" lon="-1.72934">
        <ele>68</ele>
        <time>2015-06-07T06:35:02Z</time>
      </trkpt>
      <trkpt lat="47.916" lon="-1.72934">
        <ele>68</ele>
        <time>2015-06-07T06:35:03Z</time>
      </trkpt>
      <trkpt lat="47.91603" lon="-1.72933">
        <ele>68</ele>
        <time>2015-06-07T06:35:04Z</time>
      </trkpt>
      <trkpt lat="47.91607" lon="-1.72934">
        <ele>68</ele>
        <time>2015-06-07T06:35:05Z</time>
      </trkpt>
      <trkpt lat="47.91609" lon="-1.72934">
        <ele>69</ele>
        <time>2015-06-07T06:35:06Z</time>
      </trkpt>
      <trkpt lat="47.91611" lon="-1.72936">
        <ele>69</ele>
        <time>2015-06-07T06:35:07Z</time>
      </trkpt>
      <trkpt lat="47.91614" lon="-1.72936">
        <ele>69</ele>
        <time>2015-06-07T06:35:08Z</time>
      </trkpt>
      <trkpt lat="47.91617" lon="-1.72936">
        <ele>69</ele>
        <time>2015-06-07T06:35:09Z</time>
      </trkpt>
      <trkpt lat="47.9162" lon="-1.72937">
        <ele>69</ele>
        <time>2015-06-07T06:35:10Z</time>
      </trkpt>
      <trkpt lat="47.91623" lon="-1.72937">
        <ele>69</ele>
        <time>2015-06-07T06:35:11Z</time>
      </trkpt>
      <trkpt lat="47.91625" lon="-1.72938">
        <ele>70</ele>
        <time>2015-06-07T06:35:12Z</time>
      </trkpt>
      <trkpt lat="47.91628" lon="-1.72938">
        <ele>70</ele>
        <time>2015-06-07T06:35:13Z</time>
      </trkpt>
      <trkpt lat="47.91632" lon="-1.72937">
        <ele>70</ele>
        <time>2015-06-07T06:35:14Z</time>
      </trkpt>
      <trkpt lat="47.91635" lon="-1.72935">
        <ele>71</ele>
        <time>2015-06-07T06:35:15Z</time>
      </trkpt>
      <trkpt lat="47.91637" lon="-1.72931">
        <ele>71</ele>
        <time>2015-06-07T06:35:16Z</time>
      </trkpt>
      <trkpt lat="47.91639" lon="-1.72926">
        <ele>72</ele>
        <time>2015-06-07T06:35:17Z</time>
      </trkpt>
      <trkpt lat="47.91641" lon="-1.72922">
        <ele>72</ele>
        <time>2015-06-07T06:35:18Z</time>
      </trkpt>
      <trkpt lat="47.91642" lon="-1.72916">
        <ele>72</ele>
        <time>2015-06-07T06:35:19Z</time>
      </trkpt>
      <trkpt lat="47.91643" lon="-1.72911">
        <ele>72</ele>
        <time>2015-06-07T06:35:20Z</time>
      </trkpt>
      <trkpt lat="47.91644" lon="-1.72905">
        <ele>72</ele>
        <time>2015-06-07T06:35:21Z</time>
      </trkpt>
      <trkpt lat="47.91645" lon="-1.729">
        <ele>73</ele>
        <time>2015-06-07T06:35:22Z</time>
      </trkpt>
      <trkpt lat="47.91646" lon="-1.72894">
        <ele>73</ele>
        <time>2015-06-07T06:35:23Z</time>
      </trkpt>
      <trkpt lat="47.91645" lon="-1.72888">
        <ele>73</ele>
        <time>2015-06-07T06:35:24Z</time>
      </trkpt>
      <trkpt lat="47.91645" lon="-1.72882">
        <ele>73</ele>
        <time>2015-06-07T06:35:25Z</time>
      </trkpt>
      <trkpt lat="47.91643" lon="-1.72876">
        <ele>74</ele>
        <time>2015-06-07T06:35:26Z</time>
      </trkpt>
      <trkpt lat="47.9164" lon="-1.72869">
        <ele>74</ele>
        <time>2015-06-07T06:35:27Z</time>
      </trkpt>
      <trkpt lat="47.91638" lon="-1.72861">
        <ele>74</ele>
        <time>2015-06-07T06:35:28Z</time>
      </trkpt>
      <trkpt lat="47.91637" lon="-1.72853">
        <ele>74</ele>
        <time>2015-06-07T06:35:29Z</time>
      </trkpt>
      <trkpt lat="47.91638" lon="-1.72845">
        <ele>74</ele>
        <time>2015-06-07T06:35:30Z</time>
      </trkpt>
      <trkpt lat="47.9164" lon="-1.72837">
        <ele>74</ele>
        <time>2015-06-07T06:35:31Z</time>
      </trkpt>
      <trkpt lat="47.91642" lon="-1.7283">
        <ele>74</ele>
        <time>2015-06-07T06:35:32Z</time>
      </trkpt>
      <trkpt lat="47.91644" lon="-1.72823">
        <ele>74</ele>
        <time>2015-06-07T06:35:33Z</time>
      </trkpt>
      <trkpt lat="47.91647" lon="-1.72817">
        <ele>74</ele>
        <time>2015-06-07T06:35:34Z</time>
      </trkpt>
      <trkpt lat="47.91649" lon="-1.7281">
        <ele>74</ele>
        <time>2015-06-07T06:35:35Z</time>
      </trkpt>
      <trkpt lat="47.91652" lon="-1.72804">
        <ele>74</ele>
        <time>2015-06-07T06:35:36Z</time>
      </trkpt>
      <trkpt lat="47.91654" lon="-1.72798">
        <ele>74</ele>
        <time>2015-06-07T06:35:37Z</time>
      </trkpt>
      <trkpt lat="47.91656" lon="-1.72793">
        <ele>74</ele>
        <time>2015-06-07T06:35:38Z</time>
      </trkpt>
      <trkpt lat="47.91657" lon="-1.72786">
        <ele>74</ele>
        <time>2015-06-07T06:35:39Z</time>
      </trkpt>
      <trkpt lat="47.91658" lon="-1.72779">
        <ele>74</ele>
        <time>2015-06-07T06:35:40Z</time>
      </trkpt>
      <trkpt lat="47.91658" lon="-1.72772">
        <ele>74</ele>
        <time>2015-06-07T06:35:41Z</time>
      </trkpt>
      <trkpt lat="47.91658" lon="-1.72765">
        <ele>74</ele>
        <time>2015-06-07T06:35:42Z</time>
      </trkpt>
      <trkpt lat="47.91658" lon="-1.72758">
        <ele>75</ele>
        <time>2015-06-07T06:35:43Z</time>
      </trkpt>
      <trkpt lat="47.91658" lon="-1.72752">
        <ele>75</ele>
        <time>2015-06-07T06:35:44Z</time>
      </trkpt>
      <trkpt lat="47.91658" lon="-1.72745">
        <ele>75</ele>
        <time>2015-06-07T06:35:45Z</time>
      </trkpt>
      <trkpt lat="47.91658" lon="-1.72737">
        <ele>75</ele>
        <time>2015-06-07T06:35:46Z</time>
      </trkpt>
      <trkpt lat="47.91657" lon="-1.7273">
        <ele>75</ele>
        <time>2015-06-07T06:35:47Z</time>
      </trkpt>
      <trkpt lat="47.91657" lon="-1.72723">
        <ele>76</ele>
        <time>2015-06-07T06:35:48Z</time>
      </trkpt>
      <trkpt lat="47.91656" lon="-1.72715">
        <ele>76</ele>
        <time>2015-06-07T06:35:49Z</time>
      </trkpt>
      <trkpt lat="47.91654" lon="-1.72706">
        <ele>76</ele>
        <time>2015-06-07T06:35:50Z</time>
      </trkpt>
      <trkpt lat="47.91652" lon="-1.72699">
        <ele>76</ele>
        <time>2015-06-07T06:35:51Z</time>
      </trkpt>
      <trkpt lat="47.91651" lon="-1.72691">
        <ele>76</ele>
        <time>2015-06-07T06:35:52Z</time>
      </trkpt>
      <trkpt lat="47.91649" lon="-1.72683">
        <ele>76</ele>
        <time>2015-06-07T06:35:53Z</time>
      </trkpt>
      <trkpt lat="47.91648" lon="-1.72674">
        <ele>76</ele>
        <time>2015-06-07T06:35:54Z</time>
      </trkpt>
      <trkpt lat="47.91648" lon="-1.72666">
        <ele>76</ele>
        <time>2015-06-07T06:35:55Z</time>
      </trkpt>
      <trkpt lat="47.91648" lon="-1.72657">
        <ele>76</ele>
        <time>2015-06-07T06:35:56Z</time>
      </trkpt>
      <trkpt lat="47.91646" lon="-1.7265">
        <ele>76</ele>
        <time>2015-06-07T06:35:57Z</time>
      </trkpt>
      <trkpt lat="47.91644" lon="-1.72643">
        <ele>76</ele>
        <time>2015-06-07T06:35:58Z</time>
      </trkpt>
      <trkpt lat="47.91642" lon="-1.72635">
        <ele>76</ele>
        <time>2015-06-07T06:35:59Z</time>
      </trkpt>
      <trkpt lat="47.9164" lon="-1.72627">
        <ele>76</ele>
        <time>2015-06-07T06:36:00Z</time>
      </trkpt>
      <trkpt lat="47.91639" lon="-1.72619">
        <ele>76</ele>
        <time>2015-06-07T06:36:01Z</time>
      </trkpt>
      <trkpt lat="47.91638" lon="-1.72612">
        <ele>76</ele>
        <time>2015-06-07T06:36:02Z</time>
      </trkpt>
      <trkpt lat="47.91638" lon="-1.72605">
        <ele>75</ele>
        <time>2015-06-07T06:36:03Z</time>
      </trkpt>
      <trkpt lat="47.91637" lon="-1.72598">
        <ele>75</ele>
        <time>2015-06-07T06:36:04Z</time>
      </trkpt>
      <trkpt lat="47.91635" lon="-1.72589">
        <ele>75</ele>
        <time>2015-06-07T06:36:05Z</time>
      </trkpt>
      <trkpt lat="47.91632" lon="-1.7258">
        <ele>75</ele>
        <time>2015-06-07T06:36:06Z</time>
      </trkpt>
      <trkpt lat="47.9163" lon="-1.72571">
        <ele>75</ele>
        <time>2015-06-07T06:36:07Z</time>
      </trkpt>
      <trkpt lat="47.91627" lon="-1.72562">
        <ele>75</ele>
        <time>2015-06-07T06:36:08Z</time>
      </trkpt>
      <trkpt lat="47.91625" lon="-1.72553">
        <ele>75</ele>
        <time>2015-06-07T06:36:09Z</time>
      </trkpt>
      <trkpt lat="47.91624" lon="-1.72544">
        <ele>74</ele>
        <time>2015-06-07T06:36:10Z</time>
      </trkpt>
      <trkpt lat="47.91622" lon="-1.72535">
        <ele>74</ele>
        <time>2015-06-07T06:36:11Z</time>
      </trkpt>
      <trkpt lat="47.9162" lon="-1.72525">
        <ele>74</ele>
        <time>2015-06-07T06:36:12Z</time>
      </trkpt>
      <trkpt lat="47.91617" lon="-1.72517">
        <ele>74</ele>
        <time>2015-06-07T06:36:13Z</time>
      </trkpt>
      <trkpt lat="47.91614" lon="-1.72509">
        <ele>74</ele>
        <time>2015-06-07T06:36:14Z</time>
      </trkpt>
      <trkpt lat="47.91611" lon="-1.72501">
        <ele>74</ele>
        <time>2015-06-07T06:36:15Z</time>
      </trkpt>
      <trkpt lat="47.91607" lon="-1.72492">
        <ele>73</ele>
        <time>2015-06-07T06:36:16Z</time>
      </trkpt>
      <trkpt lat="47.91603" lon="-1.72486">
        <ele>73</ele>
        <time>2015-06-07T06:36:17Z</time>
      </trkpt>
      <trkpt lat="47.91599" lon="-1.72479">
        <ele>73</ele>
        <time>2015-06-07T06:36:18Z</time>
      </trkpt>
      <trkpt lat="47.91594" lon="-1.72473">
        <ele>73</ele>
        <time>2015-06-07T06:36:19Z</time>
      </trkpt>
      <trkpt lat="47.91589" lon="-1.72466">
        <ele>73</ele>
        <time>2015-06-07T06:36:20Z</time>
      </trkpt>
      <trkpt lat="47.91585" lon="-1.7246">
        <ele>73</ele>
        <time>2015-06-07T06:36:21Z</time>
      </trkpt>
      <trkpt lat="47.91582" lon="-1.72454">
        <ele>73</ele>
        <time>2015-06-07T06:36:22Z</time>
      </trkpt>
      <trkpt lat="47.9158" lon="-1.72446">
        <ele>73</ele>
        <time>2015-06-07T06:36:23Z</time>
      </trkpt>
      <trkpt lat="47.91578" lon="-1.72437">
        <ele>73</ele>
        <time>2015-06-07T06:36:24Z</time>
      </trkpt>
      <trkpt lat="47.91576" lon="-1.72429">
        <ele>73</ele>
        <time>2015-06-07T06:36:25Z</time>
      </trkpt>
      <trkpt lat="47.91575" lon="-1.7242">
        <ele>72</ele>
        <time>2015-06-07T06:36:26Z</time>
      </trkpt>
      <trkpt lat="47.91576" lon="-1.72412">
        <ele>72</ele>
        <time>2015-06-07T06:36:27Z</time>
      </trkpt>
      <trkpt lat="47.91577" lon="-1.72405">
        <ele>72</ele>
        <time>2015-06-07T06:36:28Z</time>
      </trkpt>
      <trkpt lat="47.91577" lon="-1.72397">
        <ele>72</ele>
        <time>2015-06-07T06:36:29Z</time>
      </trkpt>
      <trkpt lat="47.91578" lon="-1.72389">
        <ele>72</ele>
        <time>2015-06-07T06:36:30Z</time>
      </trkpt>
      <trkpt lat="47.91578" lon="-1.72381">
        <ele>71</ele>
        <time>2015-06-07T06:36:31Z</time>
      </trkpt>
      <trkpt lat="47.91578" lon="-1.72372">
        <ele>71</ele>
        <time>2015-06-07T06:36:32Z</time>
      </trkpt>
      <trkpt lat="47.91577" lon="-1.72363">
        <ele>71</ele>
        <time>2015-06-07T06:36:33Z</time>
      </trkpt>
      <trkpt lat="47.91576" lon="-1.72355">
        <ele>70</ele>
        <time>2015-06-07T06:36:34Z</time>
      </trkpt>
      <trkpt lat="47.91574" lon="-1.72348">
        <ele>70</ele>
        <time>2015-06-07T06:36:35Z</time>
      </trkpt>
      <trkpt lat="47.91571" lon="-1.7234">
        <ele>70</ele>
        <time>2015-06-07T06:36:36Z</time>
      </trkpt>
      <trkpt lat="47.91568" lon="-1.72332">
        <ele>69</ele>
        <time>2015-06-07T06:36:37Z</time>
      </trkpt>
      <trkpt lat="47.91564" lon="-1.72324">
        <ele>69</ele>
        <time>2015-06-07T06:36:38Z</time>
      </trkpt>
      <trkpt lat="47.91561" lon="-1.72317">
        <ele>68</ele>
        <time>2015-06-07T06:36:39Z</time>
      </trkpt>
      <trkpt lat="47.91557" lon="-1.72312">
        <ele>68</ele>
        <time>2015-06-07T06:36:40Z</time>
      </trkpt>
      <trkpt lat="47.91553" lon="-1.72307">
        <ele>68</ele>
        <time>2015-06-07T06:36:41Z</time>
      </trkpt>
      <trkpt lat="47.91548" lon="-1.72303">
        <ele>67</ele>
        <time>2015-06-07T06:36:42Z</time>
      </trkpt>
      <trkpt lat="47.91544" lon="-1.723">
        <ele>67</ele>
        <time>2015-06-07T06:36:43Z</time>
      </trkpt>
      <trkpt lat="47.9154" lon="-1.72298">
        <ele>67</ele>
        <time>2015-06-07T06:36:44Z</time>
      </trkpt>
      <trkpt lat="47.91535" lon="-1.72297">
        <ele>66</ele>
        <time>2015-06-07T06:36:45Z</time>
      </trkpt>
      <trkpt lat="47.9153" lon="-1.72296">
        <ele>66</ele>
        <time>2015-06-07T06:36:46Z</time>
      </trkpt>
      <trkpt lat="47.91526" lon="-1.72297">
        <ele>65</ele>
        <time>2015-06-07T06:36:47Z</time>
      </trkpt>
      <trkpt lat="47.91521" lon="-1.72298">
        <ele>65</ele>
        <time>2015-06-07T06:36:48Z</time>
      </trkpt>
      <trkpt lat="47.91517" lon="-1.723">
        <ele>65</ele>
        <time>2015-06-07T06:36:49Z</time>
      </trkpt>
      <trkpt lat="47.91513" lon="-1.72302">
        <ele>65</ele>
        <time>2015-06-07T06:36:50Z</time>
      </trkpt>
      <trkpt lat="47.91509" lon="-1.72305">
        <ele>65</ele>
        <time>2015-06-07T06:36:51Z</time>
      </trkpt>
      <trkpt lat="47.91505" lon="-1.72308">
        <ele>65</ele>
        <time>2015-06-07T06:36:52Z</time>
      </trkpt>
      <trkpt lat="47.91503" lon="-1.72312">
        <ele>64</ele>
        <time>2015-06-07T06:36:53Z</time>
      </trkpt>
      <trkpt lat="47.91501" lon="-1.72317">
        <ele>64</ele>
        <time>2015-06-07T06:36:54Z</time>
      </trkpt>
      <trkpt lat="47.91499" lon="-1.72322">
        <ele>64</ele>
        <time>2015-06-07T06:36:55Z</time>
      </trkpt>
      <trkpt lat="47.91497" lon="-1.72327">
        <ele>64</ele>
        <time>2015-06-07T06:36:56Z</time>
      </trkpt>
      <trkpt lat="47.91496" lon="-1.72332">
        <ele>65</ele>
        <time>2015-06-07T06:36:57Z</time>
      </trkpt>
      <trkpt lat="47.91495" lon="-1.72336">
        <ele>65</ele>
        <time>2015-06-07T06:36:58Z</time>
      </trkpt>
      <trkpt lat="47.91493" lon="-1.7234">
        <ele>65</ele>
        <time>2015-06-07T06:36:59Z</time>
      </trkpt>
      <trkpt lat="47.91493" lon="-1.72345">
        <ele>65</ele>
        <time>2015-06-07T06:37:00Z</time>
      </trkpt>
      <trkpt lat="47.91492" lon="-1.72351">
        <ele>65</ele>
        <time>2015-06-07T06:37:01Z</time>
      </trkpt>
      <trkpt lat="47.91491" lon="-1.72358">
        <ele>65</ele>
        <time>2015-06-07T06:37:02Z</time>
      </trkpt>
      <trkpt lat="47.9149" lon="-1.72364">
        <ele>65</ele>
        <time>2015-06-07T06:37:03Z</time>
      </trkpt>
      <trkpt lat="47.91489" lon="-1.72369">
        <ele>65</ele>
        <time>2015-06-07T06:37:04Z</time>
      </trkpt>
      <trkpt lat="47.91489" lon="-1.72375">
        <ele>65</ele>
        <time>2015-06-07T06:37:05Z</time>
      </trkpt>
      <trkpt lat="47.91488" lon="-1.72379">
        <ele>65</ele>
        <time>2015-06-07T06:37:06Z</time>
      </trkpt>
      <trkpt lat="47.91489" lon="-1.72384">
        <ele>65</ele>
        <time>2015-06-07T06:37:07Z</time>
      </trkpt>
      <trkpt lat="47.9149" lon="-1.72387">
        <ele>65</ele>
        <time>2015-06-07T06:37:08Z</time>
      </trkpt>
      <trkpt lat="47.91492" lon="-1.7239">
        <ele>65</ele>
        <time>2015-06-07T06:37:09Z</time>
      </trkpt>
      <trkpt lat="47.91494" lon="-1.72395">
        <ele>65</ele>
        <time>2015-06-07T06:37:10Z</time>
      </trkpt>
      <trkpt lat="47.91496" lon="-1.72399">
        <ele>65</ele>
        <time>2015-06-07T06:37:11Z</time>
      </trkpt>
      <trkpt lat="47.91498" lon="-1.72405">
        <ele>65</ele>
        <time>2015-06-07T06:37:12Z</time>
      </trkpt>
      <trkpt lat="47.91501" lon="-1.7241">
        <ele>65</ele>
        <time>2015-06-07T06:37:13Z</time>
      </trkpt>
      <trkpt lat="47.91503" lon="-1.72415">
        <ele>65</ele>
        <time>2015-06-07T06:37:14Z</time>
      </trkpt>
      <trkpt lat="47.91505" lon="-1.72421">
        <ele>65</ele>
        <time>2015-06-07T06:37:15Z</time>
      </trkpt>
      <trkpt lat="47.91506" lon="-1.72427">
        <ele>65</ele>
        <time>2015-06-07T06:37:16Z</time>
      </trkpt>
      <trkpt lat="47.91506" lon="-1.72432">
        <ele>65</ele>
        <time>2015-06-07T06:37:17Z</time>
      </trkpt>
      <trkpt lat="47.91506" lon="-1.72437">
        <ele>65</ele>
        <time>2015-06-07T06:37:18Z</time>
      </trkpt>
      <trkpt lat="47.91504" lon="-1.72443">
        <ele>65</ele>
        <time>2015-06-07T06:37:19Z</time>
      </trkpt>
      <trkpt lat="47.91503" lon="-1.7245">
        <ele>65</ele>
        <time>2015-06-07T06:37:20Z</time>
      </trkpt>
      <trkpt lat="47.91503" lon="-1.72456">
        <ele>65</ele>
        <time>2015-06-07T06:37:21Z</time>
      </trkpt>
      <trkpt lat="47.91504" lon="-1.72461">
        <ele>65</ele>
        <time>2015-06-07T06:37:22Z</time>
      </trkpt>
      <trkpt lat="47.91507" lon="-1.72465">
        <ele>66</ele>
        <time>2015-06-07T06:37:23Z</time>
      </trkpt>
      <trkpt lat="47.9151" lon="-1.72469">
        <ele>66</ele>
        <time>2015-06-07T06:37:24Z</time>
      </trkpt>
      <trkpt lat="47.91514" lon="-1.72473">
        <ele>66</ele>
        <time>2015-06-07T06:37:25Z</time>
      </trkpt>
      <trkpt lat="47.91517" lon="-1.72476">
        <ele>66</ele>
        <time>2015-06-07T06:37:26Z</time>
      </trkpt>
      <trkpt lat="47.91521" lon="-1.72478">
        <ele>66</ele>
        <time>2015-06-07T06:37:27Z</time>
      </trkpt>
      <trkpt lat="47.91525" lon="-1.72479">
        <ele>66</ele>
        <time>2015-06-07T06:37:28Z</time>
      </trkpt>
      <trkpt lat="47.91528" lon="-1.7248">
        <ele>66</ele>
        <time>2015-06-07T06:37:29Z</time>
      </trkpt>
      <trkpt lat="47.91531" lon="-1.72483">
        <ele>67</ele>
        <time>2015-06-07T06:37:30Z</time>
      </trkpt>
      <trkpt lat="47.91532" lon="-1.72486">
        <ele>67</ele>
        <time>2015-06-07T06:37:31Z</time>
      </trkpt>
      <trkpt lat="47.91532" lon="-1.72489">
        <ele>67</ele>
        <time>2015-06-07T06:37:32Z</time>
      </trkpt>
      <trkpt lat="47.91533" lon="-1.72495">
        <ele>67</ele>
        <time>2015-06-07T06:37:33Z</time>
      </trkpt>
      <trkpt lat="47.91534" lon="-1.72501">
        <ele>67</ele>
        <time>2015-06-07T06:37:34Z</time>
      </trkpt>
      <trkpt lat="47.91536" lon="-1.72506">
        <ele>67</ele>
        <time>2015-06-07T06:37:35Z</time>
      </trkpt>
      <trkpt lat="47.91538" lon="-1.72514">
        <ele>67</ele>
        <time>2015-06-07T06:37:36Z</time>
      </trkpt>
      <trkpt lat="47.91539" lon="-1.72519">
        <ele>67</ele>
        <time>2015-06-07T06:37:37Z</time>
      </trkpt>
      <trkpt lat="47.91539" lon="-1.72523">
        <ele>66</ele>
        <time>2015-06-07T06:37:38Z</time>
      </trkpt>
      <trkpt lat="47.91538" lon="-1.72524">
        <ele>66</ele>
        <time>2015-06-07T06:37:39Z</time>
      </trkpt>
      <trkpt lat="47.91537" lon="-1.72524">
        <ele>66</ele>
        <time>2015-06-07T06:37:40Z</time>
      </trkpt>
      <trkpt lat="47.91536" lon="-1.72522">
        <ele>66</ele>
        <time>2015-06-07T06:37:41Z</time>
      </trkpt>
      <trkpt lat="47.91534" lon="-1.72519">
        <ele>65</ele>
        <time>2015-06-07T06:37:42Z</time>
      </trkpt>
      <trkpt lat="47.91531" lon="-1.72516">
        <ele>65</ele>
        <time>2015-06-07T06:37:43Z</time>
      </trkpt>
      <trkpt lat="47.91529" lon="-1.72513">
        <ele>65</ele>
        <time>2015-06-07T06:37:44Z</time>
      </trkpt>
      <trkpt lat="47.91527" lon="-1.7251">
        <ele>65</ele>
        <time>2015-06-07T06:37:45Z</time>
      </trkpt>
      <trkpt lat="47.91525" lon="-1.72507">
        <ele>65</ele>
        <time>2015-06-07T06:37:46Z</time>
      </trkpt>
      <trkpt lat="47.91522" lon="-1.72504">
        <ele>64</ele>
        <time>2015-06-07T06:37:47Z</time>
      </trkpt>
      <trkpt lat="47.9152" lon="-1.72502">
        <ele>64</ele>
        <time>2015-06-07T06:37:48Z</time>
      </trkpt>
      <trkpt lat="47.91519" lon="-1.72499">
        <ele>64</ele>
        <time>2015-06-07T06:37:49Z</time>
      </trkpt>
      <trkpt lat="47.91517" lon="-1.72496">
        <ele>64</ele>
        <time>2015-06-07T06:37:50Z</time>
      </trkpt>
      <trkpt lat="47.91514" lon="-1.72492">
        <ele>64</ele>
        <time>2015-06-07T06:37:51Z</time>
      </trkpt>
      <trkpt lat="47.91512" lon="-1.7249">
        <ele>64</ele>
        <time>2015-06-07T06:37:52Z</time>
      </trkpt>
      <trkpt lat="47.9151" lon="-1.72488">
        <ele>65</ele>
        <time>2015-06-07T06:37:53Z</time>
      </trkpt>
      <trkpt lat="47.91507" lon="-1.72487">
        <ele>65</ele>
        <time>2015-06-07T06:37:54Z</time>
      </trkpt>
      <trkpt lat="47.91505" lon="-1.72488">
        <ele>64</ele>
        <time>2015-06-07T06:37:55Z</time>
      </trkpt>
      <trkpt lat="47.91503" lon="-1.72489">
        <ele>65</ele>
        <time>2015-06-07T06:37:56Z</time>
      </trkpt>
      <trkpt lat="47.91501" lon="-1.72491">
        <ele>65</ele>
        <time>2015-06-07T06:37:57Z</time>
      </trkpt>
      <trkpt lat="47.915" lon="-1.72494">
        <ele>65</ele>
        <time>2015-06-07T06:37:58Z</time>
      </trkpt>
      <trkpt lat="47.915" lon="-1.72496">
        <ele>65</ele>
        <time>2015-06-07T06:37:59Z</time>
      </trkpt>
      <trkpt lat="47.91502" lon="-1.72498">
        <ele>65</ele>
        <time>2015-06-07T06:38:00Z</time>
      </trkpt>
      <trkpt lat="47.91503" lon="-1.725">
        <ele>65</ele>
        <time>2015-06-07T06:38:01Z</time>
      </trkpt>
      <trkpt lat="47.91504" lon="-1.72503">
        <ele>65</ele>
        <time>2015-06-07T06:38:02Z</time>
      </trkpt>
      <trkpt lat="47.91506" lon="-1.72508">
        <ele>64</ele>
        <time>2015-06-07T06:38:03Z</time>
      </trkpt>
      <trkpt lat="47.91509" lon="-1.72513">
        <ele>64</ele>
        <time>2015-06-07T06:38:04Z</time>
      </trkpt>
      <trkpt lat="47.91511" lon="-1.72517">
        <ele>64</ele>
        <time>2015-06-07T06:38:05Z</time>
      </trkpt>
      <trkpt lat="47.91513" lon="-1.72523">
        <ele>64</ele>
        <time>2015-06-07T06:38:06Z</time>
      </trkpt>
      <trkpt lat="47.91513" lon="-1.72528">
        <ele>63</ele>
        <time>2015-06-07T06:38:07Z</time>
      </trkpt>
      <trkpt lat="47.91513" lon="-1.72532">
        <ele>63</ele>
        <time>2015-06-07T06:38:08Z</time>
      </trkpt>
      <trkpt lat="47.91513" lon="-1.72535">
        <ele>63</ele>
        <time>2015-06-07T06:38:09Z</time>
      </trkpt>
      <trkpt lat="47.91511" lon="-1.72537">
        <ele>63</ele>
        <time>2015-06-07T06:38:10Z</time>
      </trkpt>
      <trkpt lat="47.91509" lon="-1.72539">
        <ele>63</ele>
        <time>2015-06-07T06:38:11Z</time>
      </trkpt>
      <trkpt lat="47.91505" lon="-1.7254">
        <ele>62</ele>
        <time>2015-06-07T06:38:12Z</time>
      </trkpt>
      <trkpt lat="47.91502" lon="-1.7254">
        <ele>62</ele>
        <time>2015-06-07T06:38:13Z</time>
      </trkpt>
      <trkpt lat="47.91498" lon="-1.72542">
        <ele>62</ele>
        <time>2015-06-07T06:38:14Z</time>
      </trkpt>
      <trkpt lat="47.91494" lon="-1.72544">
        <ele>62</ele>
        <time>2015-06-07T06:38:15Z</time>
      </trkpt>
      <trkpt lat="47.9149" lon="-1.72546">
        <ele>62</ele>
        <time>2015-06-07T06:38:16Z</time>
      </trkpt>
      <trkpt lat="47.91486" lon="-1.72549">
        <ele>62</ele>
        <time>2015-06-07T06:38:17Z</time>
      </trkpt>
      <trkpt lat="47.91484" lon="-1.72551">
        <ele>62</ele>
        <time>2015-06-07T06:38:18Z</time>
      </trkpt>
      <trkpt lat="47.91481" lon="-1.72553">
        <ele>62</ele>
        <time>2015-06-07T06:38:19Z</time>
      </trkpt>
      <trkpt lat="47.91479" lon="-1.72558">
        <ele>62</ele>
        <time>2015-06-07T06:38:20Z</time>
      </trkpt>
      <trkpt lat="47.91476" lon="-1.72562">
        <ele>63</ele>
        <time>2015-06-07T06:38:21Z</time>
      </trkpt>
      <trkpt lat="47.91474" lon="-1.72567">
        <ele>63</ele>
        <time>2015-06-07T06:38:22Z</time>
      </trkpt>
      <trkpt lat="47.91473" lon="-1.72574">
        <ele>63</ele>
        <time>2015-06-07T06:38:23Z</time>
      </trkpt>
      <trkpt lat="47.9147" lon="-1.7258">
        <ele>63</ele>
        <time>2015-06-07T06:38:24Z</time>
      </trkpt>
      <trkpt lat="47.91468" lon="-1.72586">
        <ele>64</ele>
        <time>2015-06-07T06:38:25Z</time>
      </trkpt>
      <trkpt lat="47.91466" lon="-1.72592">
        <ele>64</ele>
        <time>2015-06-07T06:38:26Z</time>
      </trkpt>
      <trkpt lat="47.91464" lon="-1.72599">
        <ele>64</ele>
        <time>2015-06-07T06:38:27Z</time>
      </trkpt>
      <trkpt lat="47.91464" lon="-1.72605">
        <ele>64</ele>
        <time>2015-06-07T06:38:28Z</time>
      </trkpt>
      <trkpt lat="47.91464" lon="-1.72611">
        <ele>64</ele>
        <time>2015-06-07T06:38:29Z</time>
      </trkpt>
      <trkpt lat="47.91466" lon="-1.72615">
        <ele>64</ele>
        <time>2015-06-07T06:38:30Z</time>
      </trkpt>
      <trkpt lat="47.91469" lon="-1.72619">
        <ele>64</ele>
        <time>2015-06-07T06:38:31Z</time>
      </trkpt>
      <trkpt lat="47.91472" lon="-1.72623">
        <ele>64</ele>
        <time>2015-06-07T06:38:32Z</time>
      </trkpt>
      <trkpt lat="47.91476" lon="-1.72628">
        <ele>64</ele>
        <time>2015-06-07T06:38:33Z</time>
      </trkpt>
      <trkpt lat="47.9148" lon="-1.72632">
        <ele>64</ele>
        <time>2015-06-07T06:38:34Z</time>
      </trkpt>
      <trkpt lat="47.91484" lon="-1.72636">
        <ele>64</ele>
        <time>2015-06-07T06:38:35Z</time>
      </trkpt>
      <trkpt lat="47.91488" lon="-1.72638">
        <ele>64</ele>
        <time>2015-06-07T06:38:36Z</time>
      </trkpt>
      <trkpt lat="47.91491" lon="-1.72639">
        <ele>65</ele>
        <time>2015-06-07T06:38:37Z</time>
      </trkpt>
      <trkpt lat="47.91493" lon="-1.72639">
        <ele>65</ele>
        <time>2015-06-07T06:38:38Z</time>
      </trkpt>
      <trkpt lat="47.91496" lon="-1.72639">
        <ele>65</ele>
        <time>2015-06-07T06:38:39Z</time>
      </trkpt>
      <trkpt lat="47.915" lon="-1.72641">
        <ele>65</ele>
        <time>2015-06-07T06:38:40Z</time>
      </trkpt>
      <trkpt lat="47.91503" lon="-1.72643">
        <ele>65</ele>
        <time>2015-06-07T06:38:41Z</time>
      </trkpt>
      <trkpt lat="47.91507" lon="-1.72645">
        <ele>65</ele>
        <time>2015-06-07T06:38:42Z</time>
      </trkpt>
      <trkpt lat="47.91512" lon="-1.72647">
        <ele>65</ele>
        <time>2015-06-07T06:38:43Z</time>
      </trkpt>
      <trkpt lat="47.91515" lon="-1.72648">
        <ele>65</ele>
        <time>2015-06-07T06:38:44Z</time>
      </trkpt>
      <trkpt lat="47.91518" lon="-1.72649">
        <ele>65</ele>
        <time>2015-06-07T06:38:45Z</time>
      </trkpt>
      <trkpt lat="47.91521" lon="-1.7265">
        <ele>65</ele>
        <time>2015-06-07T06:38:46Z</time>
      </trkpt>
      <trkpt lat="47.91525" lon="-1.72652">
        <ele>65</ele>
        <time>2015-06-07T06:38:47Z</time>
      </trkpt>
      <trkpt lat="47.91528" lon="-1.72654">
        <ele>64</ele>
        <time>2015-06-07T06:38:48Z</time>
      </trkpt>
      <trkpt lat="47.9153" lon="-1.72657">
        <ele>64</ele>
        <time>2015-06-07T06:38:49Z</time>
      </trkpt>
      <trkpt lat="47.91532" lon="-1.7266">
        <ele>64</ele>
        <time>2015-06-07T06:38:50Z</time>
      </trkpt>
      <trkpt lat="47.91534" lon="-1.72663">
        <ele>64</ele>
        <time>2015-06-07T06:38:51Z</time>
      </trkpt>
      <trkpt lat="47.91534" lon="-1.72667">
        <ele>64</ele>
        <time>2015-06-07T06:38:52Z</time>
      </trkpt>
      <trkpt lat="47.91534" lon="-1.7267">
        <ele>64</ele>
        <time>2015-06-07T06:38:53Z</time>
      </trkpt>
      <trkpt lat="47.91533" lon="-1.72674">
        <ele>64</ele>
        <time>2015-06-07T06:38:54Z</time>
      </trkpt>
      <trkpt lat="47.91532" lon="-1.72678">
        <ele>64</ele>
        <time>2015-06-07T06:38:55Z</time>
      </trkpt>
      <trkpt lat="47.9153" lon="-1.7268">
        <ele>64</ele>
        <time>2015-06-07T06:38:56Z</time>
      </trkpt>
      <trkpt lat="47.91528" lon="-1.72681">
        <ele>64</ele>
        <time>2015-06-07T06:38:57Z</time>
      </trkpt>
      <trkpt lat="47.91525" lon="-1.72682">
        <ele>64</ele>
        <time>2015-06-07T06:38:58Z</time>
      </trkpt>
      <trkpt lat="47.91523" lon="-1.72683">
        <ele>63</ele>
        <time>2015-06-07T06:38:59Z</time>
      </trkpt>
      <trkpt lat="47.9152" lon="-1.72683">
        <ele>63</ele>
        <time>2015-06-07T06:39:00Z</time>
      </trkpt>
      <trkpt lat="47.91515" lon="-1.72681">
        <ele>63</ele>
        <time>2015-06-07T06:39:01Z</time>
      </trkpt>
      <trkpt lat="47.91509" lon="-1.7268">
        <ele>63</ele>
        <time>2015-06-07T06:39:02Z</time>
      </trkpt>
      <trkpt lat="47.91503" lon="-1.72678">
        <ele>63</ele>
        <time>2015-06-07T06:39:03Z</time>
      </trkpt>
      <trkpt lat="47.91497" lon="-1.72675">
        <ele>63</ele>
        <time>2015-06-07T06:39:04Z</time>
      </trkpt>
      <trkpt lat="47.91491" lon="-1.72673">
        <ele>63</ele>
        <time>2015-06-07T06:39:05Z</time>
      </trkpt>
      <trkpt lat="47.91486" lon="-1.72671">
        <ele>63</ele>
        <time>2015-06-07T06:39:06Z</time>
      </trkpt>
      <trkpt lat="47.91483" lon="-1.72667">
        <ele>63</ele>
        <time>2015-06-07T06:39:07Z</time>
      </trkpt>
      <trkpt lat="47.91481" lon="-1.72664">
        <ele>63</ele>
        <time>2015-06-07T06:39:08Z</time>
      </trkpt>
      <trkpt lat="47.91479" lon="-1.7266">
        <ele>63</ele>
        <time>2015-06-07T06:39:09Z</time>
      </trkpt>
      <trkpt lat="47.91476" lon="-1.72657">
        <ele>63</ele>
        <time>2015-06-07T06:39:10Z</time>
      </trkpt>
      <trkpt lat="47.91472" lon="-1.72653">
        <ele>63</ele>
        <time>2015-06-07T06:39:11Z</time>
      </trkpt>
      <trkpt lat="47.91469" lon="-1.7265">
        <ele>62</ele>
        <time>2015-06-07T06:39:12Z</time>
      </trkpt>
      <trkpt lat="47.91467" lon="-1.72646">
        <ele>62</ele>
        <time>2015-06-07T06:39:13Z</time>
      </trkpt>
      <trkpt lat="47.91465" lon="-1.72644">
        <ele>62</ele>
        <time>2015-06-07T06:39:14Z</time>
      </trkpt>
      <trkpt lat="47.91463" lon="-1.72641">
        <ele>62</ele>
        <time>2015-06-07T06:39:15Z</time>
      </trkpt>
      <trkpt lat="47.91461" lon="-1.72638">
        <ele>62</ele>
        <time>2015-06-07T06:39:16Z</time>
      </trkpt>
      <trkpt lat="47.91459" lon="-1.72635">
        <ele>62</ele>
        <time>2015-06-07T06:39:17Z</time>
      </trkpt>
      <trkpt lat="47.91457" lon="-1.72631">
        <ele>62</ele>
        <time>2015-06-07T06:39:18Z</time>
      </trkpt>
      <trkpt lat="47.91456" lon="-1.72628">
        <ele>62</ele>
        <time>2015-06-07T06:39:19Z</time>
      </trkpt>
      <trkpt lat="47.91456" lon="-1.72623">
        <ele>62</ele>
        <time>2015-06-07T06:39:20Z</time>
      </trkpt>
      <trkpt lat="47.91455" lon="-1.72618">
        <ele>62</ele>
        <time>2015-06-07T06:39:21Z</time>
      </trkpt>
      <trkpt lat="47.91455" lon="-1.72612">
        <ele>62</ele>
        <time>2015-06-07T06:39:22Z</time>
      </trkpt>
      <trkpt lat="47.91454" lon="-1.72605">
        <ele>62</ele>
        <time>2015-06-07T06:39:23Z</time>
      </trkpt>
      <trkpt lat="47.91453" lon="-1.72598">
        <ele>62</ele>
        <time>2015-06-07T06:39:24Z</time>
      </trkpt>
      <trkpt lat="47.91449" lon="-1.72592">
        <ele>62</ele>
        <time>2015-06-07T06:39:25Z</time>
      </trkpt>
      <trkpt lat="47.91445" lon="-1.72586">
        <ele>62</ele>
        <time>2015-06-07T06:39:26Z</time>
      </trkpt>
      <trkpt lat="47.91442" lon="-1.72579">
        <ele>62</ele>
        <time>2015-06-07T06:39:27Z</time>
      </trkpt>
      <trkpt lat="47.91438" lon="-1.72572">
        <ele>62</ele>
        <time>2015-06-07T06:39:28Z</time>
      </trkpt>
      <trkpt lat="47.91436" lon="-1.72565">
        <ele>61</ele>
        <time>2015-06-07T06:39:29Z</time>
      </trkpt>
      <trkpt lat="47.91434" lon="-1.72558">
        <ele>61</ele>
        <time>2015-06-07T06:39:30Z</time>
      </trkpt>
      <trkpt lat="47.91433" lon="-1.7255">
        <ele>61</ele>
        <time>2015-06-07T06:39:31Z</time>
      </trkpt>
      <trkpt lat="47.91433" lon="-1.72543">
        <ele>62</ele>
        <time>2015-06-07T06:39:32Z</time>
      </trkpt>
      <trkpt lat="47.91434" lon="-1.72537">
        <ele>62</ele>
        <time>2015-06-07T06:39:33Z</time>
      </trkpt>
      <trkpt lat="47.91435" lon="-1.72532">
        <ele>62</ele>
        <time>2015-06-07T06:39:34Z</time>
      </trkpt>
      <trkpt lat="47.91436" lon="-1.72527">
        <ele>62</ele>
        <time>2015-06-07T06:39:35Z</time>
      </trkpt>
      <trkpt lat="47.91438" lon="-1.72522">
        <ele>62</ele>
        <time>2015-06-07T06:39:36Z</time>
      </trkpt>
      <trkpt lat="47.9144" lon="-1.72518">
        <ele>62</ele>
        <time>2015-06-07T06:39:37Z</time>
      </trkpt>
      <trkpt lat="47.91441" lon="-1.72513">
        <ele>62</ele>
        <time>2015-06-07T06:39:38Z</time>
      </trkpt>
      <trkpt lat="47.91443" lon="-1.72508">
        <ele>62</ele>
        <time>2015-06-07T06:39:39Z</time>
      </trkpt>
      <trkpt lat="47.91444" lon="-1.72503">
        <ele>63</ele>
        <time>2015-06-07T06:39:40Z</time>
      </trkpt>
      <trkpt lat="47.91446" lon="-1.72497">
        <ele>63</ele>
        <time>2015-06-07T06:39:41Z</time>
      </trkpt>
      <trkpt lat="47.91447" lon="-1.72492">
        <ele>63</ele>
        <time>2015-06-07T06:39:42Z</time>
      </trkpt>
      <trkpt lat="47.91447" lon="-1.72486">
        <ele>63</ele>
        <time>2015-06-07T06:39:43Z</time>
      </trkpt>
      <trkpt lat="47.91448" lon="-1.7248">
        <ele>63</ele>
        <time>2015-06-07T06:39:44Z</time>
      </trkpt>
      <trkpt lat="47.91448" lon="-1.72475">
        <ele>64</ele>
        <time>2015-06-07T06:39:45Z</time>
      </trkpt>
      <trkpt lat="47.91447" lon="-1.7247">
        <ele>64</ele>
        <time>2015-06-07T06:39:46Z</time>
      </trkpt>
      <trkpt lat="47.91444" lon="-1.72466">
        <ele>64</ele>
        <time>2015-06-07T06:39:47Z</time>
      </trkpt>
      <trkpt lat="47.91441" lon="-1.72461">
        <ele>65</ele>
        <time>2015-06-07T06:39:48Z</time>
      </trkpt>
      <trkpt lat="47.91439" lon="-1.72457">
        <ele>65</ele>
        <time>2015-06-07T06:39:49Z</time>
      </trkpt>
      <trkpt lat="47.91436" lon="-1.72454">
        <ele>65</ele>
        <time>2015-06-07T06:39:50Z</time>
      </trkpt>
      <trkpt lat="47.91433" lon="-1.72449">
        <ele>65</ele>
        <time>2015-06-07T06:39:51Z</time>
      </trkpt>
      <trkpt lat="47.91431" lon="-1.72444">
        <ele>66</ele>
        <time>2015-06-07T06:39:52Z</time>
      </trkpt>
      <trkpt lat="47.91429" lon="-1.72439">
        <ele>66</ele>
        <time>2015-06-07T06:39:53Z</time>
      </trkpt>
      <trkpt lat="47.91427" lon="-1.72434">
        <ele>66</ele>
        <time>2015-06-07T06:39:54Z</time>
      </trkpt>
      <trkpt lat="47.91425" lon="-1.72428">
        <ele>66</ele>
        <time>2015-06-07T06:39:55Z</time>
      </trkpt>
      <trkpt lat="47.91423" lon="-1.72423">
        <ele>66</ele>
        <time>2015-06-07T06:39:56Z</time>
      </trkpt>
      <trkpt lat="47.91421" lon="-1.72417">
        <ele>66</ele>
        <time>2015-06-07T06:39:57Z</time>
      </trkpt>
      <trkpt lat="47.9142" lon="-1.72411">
        <ele>67</ele>
        <time>2015-06-07T06:39:58Z</time>
      </trkpt>
      <trkpt lat="47.91418" lon="-1.72405">
        <ele>67</ele>
        <time>2015-06-07T06:39:59Z</time>
      </trkpt>
      <trkpt lat="47.91416" lon="-1.72401">
        <ele>67</ele>
        <time>2015-06-07T06:40:00Z</time>
      </trkpt>
      <trkpt lat="47.91415" lon="-1.72398">
        <ele>67</ele>
        <time>2015-06-07T06:40:01Z</time>
      </trkpt>
      <trkpt lat="47.91414" lon="-1.72396">
        <ele>67</ele>
        <time>2015-06-07T06:40:02Z</time>
      </trkpt>
      <trkpt lat="47.91413" lon="-1.72395">
        <ele>67</ele>
        <time>2015-06-07T06:40:03Z</time>
      </trkpt>
      <trkpt lat="47.91412" lon="-1.72393">
        <ele>67</ele>
        <time>2015-06-07T06:40:04Z</time>
      </trkpt>
      <trkpt lat="47.91411" lon="-1.72392">
        <ele>67</ele>
        <time>2015-06-07T06:40:05Z</time>
      </trkpt>
      <trkpt lat="47.91411" lon="-1.72391">
        <ele>67</ele>
        <time>2015-06-07T06:40:06Z</time>
      </trkpt>
      <trkpt lat="47.9141" lon="-1.72391">
        <ele>68</ele>
        <time>2015-06-07T06:40:07Z</time>
      </trkpt>
      <trkpt lat="47.91409" lon="-1.7239">
        <ele>68</ele>
        <time>2015-06-07T06:40:08Z</time>
      </trkpt>
      <trkpt lat="47.91408" lon="-1.72389">
        <ele>68</ele>
        <time>2015-06-07T06:40:09Z</time>
      </trkpt>
      <trkpt lat="47.91407" lon="-1.72387">
        <ele>68</ele>
        <time>2015-06-07T06:40:10Z</time>
      </trkpt>
      <trkpt lat="47.91405" lon="-1.72385">
        <ele>68</ele>
        <time>2015-06-07T06:40:11Z</time>
      </trkpt>
      <trkpt lat="47.91404" lon="-1.72382">
        <ele>68</ele>
        <time>2015-06-07T06:40:12Z</time>
      </trkpt>
      <trkpt lat="47.91402" lon="-1.72379">
        <ele>68</ele>
        <time>2015-06-07T06:40:13Z</time>
      </trkpt>
      <trkpt lat="47.91401" lon="-1.72376">
        <ele>68</ele>
        <time>2015-06-07T06:40:14Z</time>
      </trkpt>
      <trkpt lat="47.91399" lon="-1.72372">
        <ele>68</ele>
        <time>2015-06-07T06:40:15Z</time>
      </trkpt>
      <trkpt lat="47.91397" lon="-1.72368">
        <ele>68</ele>
        <time>2015-06-07T06:40:16Z</time>
      </trkpt>
      <trkpt lat="47.91394" lon="-1.72363">
        <ele>68</ele>
        <time>2015-06-07T06:40:17Z</time>
      </trkpt>
      <trkpt lat="47.91392" lon="-1.72359">
        <ele>68</ele>
        <time>2015-06-07T06:40:18Z</time>
      </trkpt>
      <trkpt lat="47.9139" lon="-1.72354">
        <ele>68</ele>
        <time>2015-06-07T06:40:19Z</time>
      </trkpt>
      <trkpt lat="47.91388" lon="-1.7235">
        <ele>68</ele>
        <time>2015-06-07T06:40:20Z</time>
      </trkpt>
      <trkpt lat="47.91386" lon="-1.72345">
        <ele>68</ele>
        <time>2015-06-07T06:40:21Z</time>
      </trkpt>
      <trkpt lat="47.91383" lon="-1.7234">
        <ele>68</ele>
        <time>2015-06-07T06:40:22Z</time>
      </trkpt>
      <trkpt lat="47.91382" lon="-1.72336">
        <ele>68</ele>
        <time>2015-06-07T06:40:23Z</time>
      </trkpt>
      <trkpt lat="47.91379" lon="-1.72331">
        <ele>68</ele>
        <time>2015-06-07T06:40:24Z</time>
      </trkpt>
      <trkpt lat="47.91377" lon="-1.72326">
        <ele>68</ele>
        <time>2015-06-07T06:40:25Z</time>
      </trkpt>
      <trkpt lat="47.91374" lon="-1.72321">
        <ele>68</ele>
        <time>2015-06-07T06:40:26Z</time>
      </trkpt>
      <trkpt lat="47.91371" lon="-1.72317">
        <ele>68</ele>
        <time>2015-06-07T06:40:27Z</time>
      </trkpt>
      <trkpt lat="47.91368" lon="-1.72312">
        <ele>68</ele>
        <time>2015-06-07T06:40:28Z</time>
      </trkpt>
      <trkpt lat="47.91365" lon="-1.72309">
        <ele>67</ele>
        <time>2015-06-07T06:40:29Z</time>
      </trkpt>
      <trkpt lat="47.91361" lon="-1.72308">
        <ele>67</ele>
        <time>2015-06-07T06:40:30Z</time>
      </trkpt>
      <trkpt lat="47.91356" lon="-1.72307">
        <ele>67</ele>
        <time>2015-06-07T06:40:31Z</time>
      </trkpt>
      <trkpt lat="47.91352" lon="-1.72306">
        <ele>66</ele>
        <time>2015-06-07T06:40:32Z</time>
      </trkpt>
      <trkpt lat="47.91349" lon="-1.72307">
        <ele>66</ele>
        <time>2015-06-07T06:40:33Z</time>
      </trkpt>
      <trkpt lat="47.91346" lon="-1.72306">
        <ele>65</ele>
        <time>2015-06-07T06:40:34Z</time>
      </trkpt>
      <trkpt lat="47.91342" lon="-1.72305">
        <ele>65</ele>
        <time>2015-06-07T06:40:35Z</time>
      </trkpt>
      <trkpt lat="47.91339" lon="-1.72301">
        <ele>65</ele>
        <time>2015-06-07T06:40:36Z</time>
      </trkpt>
      <trkpt lat="47.91338" lon="-1.72296">
        <ele>64</ele>
        <time>2015-06-07T06:40:37Z</time>
      </trkpt>
      <trkpt lat="47.91335" lon="-1.7229">
        <ele>64</ele>
        <time>2015-06-07T06:40:38Z</time>
      </trkpt>
      <trkpt lat="47.91333" lon="-1.72283">
        <ele>63</ele>
        <time>2015-06-07T06:40:39Z</time>
      </trkpt>
      <trkpt lat="47.91331" lon="-1.72277">
        <ele>63</ele>
        <time>2015-06-07T06:40:40Z</time>
      </trkpt>
      <trkpt lat="47.91329" lon="-1.7227">
        <ele>63</ele>
        <time>2015-06-07T06:40:41Z</time>
      </trkpt>
      <trkpt lat="47.91327" lon="-1.72263">
        <ele>62</ele>
        <time>2015-06-07T06:40:42Z</time>
      </trkpt>
      <trkpt lat="47.91325" lon="-1.72256">
        <ele>62</ele>
        <time>2015-06-07T06:40:43Z</time>
      </trkpt>
      <trkpt lat="47.91323" lon="-1.72249">
        <ele>61</ele>
        <time>2015-06-07T06:40:44Z</time>
      </trkpt>
      <trkpt lat="47.91321" lon="-1.72242">
        <ele>61</ele>
        <time>2015-06-07T06:40:45Z</time>
      </trkpt>
      <trkpt lat="47.91319" lon="-1.72234">
        <ele>61</ele>
        <time>2015-06-07T06:40:46Z</time>
      </trkpt>
      <trkpt lat="47.91318" lon="-1.72227">
        <ele>60</ele>
        <time>2015-06-07T06:40:47Z</time>
      </trkpt>
      <trkpt lat="47.91316" lon="-1.72219">
        <ele>60</ele>
        <time>2015-06-07T06:40:48Z</time>
      </trkpt>
      <trkpt lat="47.91315" lon="-1.72211">
        <ele>60</ele>
        <time>2015-06-07T06:40:49Z</time>
      </trkpt>
      <trkpt lat="47.91312" lon="-1.72204">
        <ele>59</ele>
        <time>2015-06-07T06:40:50Z</time>
      </trkpt>
      <trkpt lat="47.91311" lon="-1.72196">
        <ele>59</ele>
        <time>2015-06-07T06:40:51Z</time>
      </trkpt>
      <trkpt lat="47.91309" lon="-1.72188">
        <ele>59</ele>
        <time>2015-06-07T06:40:52Z</time>
      </trkpt>
      <trkpt lat="47.91307" lon="-1.72181">
        <ele>58</ele>
        <time>2015-06-07T06:40:53Z</time>
      </trkpt>
      <trkpt lat="47.91306" lon="-1.72173">
        <ele>58</ele>
        <time>2015-06-07T06:40:54Z</time>
      </trkpt>
      <trkpt lat="47.91304" lon="-1.72165">
        <ele>58</ele>
        <time>2015-06-07T06:40:55Z</time>
      </trkpt>
      <trkpt lat="47.91303" lon="-1.72158">
        <ele>57</ele>
        <time>2015-06-07T06:40:56Z</time>
      </trkpt>
      <trkpt lat="47.91301" lon="-1.7215">
        <ele>57</ele>
        <time>2015-06-07T06:40:57Z</time>
      </trkpt>
      <trkpt lat="47.913" lon="-1.72142">
        <ele>57</ele>
        <time>2015-06-07T06:40:58Z</time>
      </trkpt>
      <trkpt lat="47.91299" lon="-1.72133">
        <ele>57</ele>
        <time>2015-06-07T06:40:59Z</time>
      </trkpt>
      <trkpt lat="47.91297" lon="-1.72125">
        <ele>56</ele>
        <time>2015-06-07T06:41:00Z</time>
      </trkpt>
      <trkpt lat="47.91296" lon="-1.72117">
        <ele>56</ele>
        <time>2015-06-07T06:41:01Z</time>
      </trkpt>
      <trkpt lat="47.91295" lon="-1.72109">
        <ele>56</ele>
        <time>2015-06-07T06:41:02Z</time>
      </trkpt>
      <trkpt lat="47.91294" lon="-1.72101">
        <ele>56</ele>
        <time>2015-06-07T06:41:03Z</time>
      </trkpt>
      <trkpt lat="47.91293" lon="-1.72093">
        <ele>55</ele>
        <time>2015-06-07T06:41:04Z</time>
      </trkpt>
      <trkpt lat="47.91292" lon="-1.72085">
        <ele>55</ele>
        <time>2015-06-07T06:41:05Z</time>
      </trkpt>
      <trkpt lat="47.91291" lon="-1.72076">
        <ele>55</ele>
        <time>2015-06-07T06:41:06Z</time>
      </trkpt>
      <trkpt lat="47.91289" lon="-1.72069">
        <ele>55</ele>
        <time>2015-06-07T06:41:07Z</time>
      </trkpt>
      <trkpt lat="47.91288" lon="-1.7206">
        <ele>55</ele>
        <time>2015-06-07T06:41:08Z</time>
      </trkpt>
      <trkpt lat="47.91287" lon="-1.72052">
        <ele>55</ele>
        <time>2015-06-07T06:41:09Z</time>
      </trkpt>
      <trkpt lat="47.91286" lon="-1.72044">
        <ele>55</ele>
        <time>2015-06-07T06:41:10Z</time>
      </trkpt>
      <trkpt lat="47.91286" lon="-1.72036">
        <ele>55</ele>
        <time>2015-06-07T06:41:11Z</time>
      </trkpt>
      <trkpt lat="47.91285" lon="-1.72027">
        <ele>54</ele>
        <time>2015-06-07T06:41:12Z</time>
      </trkpt>
      <trkpt lat="47.91284" lon="-1.72019">
        <ele>54</ele>
        <time>2015-06-07T06:41:13Z</time>
      </trkpt>
      <trkpt lat="47.91284" lon="-1.7201">
        <ele>54</ele>
        <time>2015-06-07T06:41:14Z</time>
      </trkpt>
      <trkpt lat="47.91284" lon="-1.72001">
        <ele>54</ele>
        <time>2015-06-07T06:41:15Z</time>
      </trkpt>
      <trkpt lat="47.91284" lon="-1.71993">
        <ele>54</ele>
        <time>2015-06-07T06:41:16Z</time>
      </trkpt>
      <trkpt lat="47.91285" lon="-1.71985">
        <ele>54</ele>
        <time>2015-06-07T06:41:17Z</time>
      </trkpt>
      <trkpt lat="47.91286" lon="-1.71976">
        <ele>54</ele>
        <time>2015-06-07T06:41:18Z</time>
      </trkpt>
      <trkpt lat="47.91286" lon="-1.71968">
        <ele>54</ele>
        <time>2015-06-07T06:41:19Z</time>
      </trkpt>
      <trkpt lat="47.91287" lon="-1.71959">
        <ele>54</ele>
        <time>2015-06-07T06:41:20Z</time>
      </trkpt>
      <trkpt lat="47.91287" lon="-1.71952">
        <ele>54</ele>
        <time>2015-06-07T06:41:21Z</time>
      </trkpt>
      <trkpt lat="47.91288" lon="-1.71944">
        <ele>54</ele>
        <time>2015-06-07T06:41:22Z</time>
      </trkpt>
      <trkpt lat="47.9129" lon="-1.71936">
        <ele>54</ele>
        <time>2015-06-07T06:41:23Z</time>
      </trkpt>
      <trkpt lat="47.91291" lon="-1.71928">
        <ele>54</ele>
        <time>2015-06-07T06:41:24Z</time>
      </trkpt>
      <trkpt lat="47.91292" lon="-1.71921">
        <ele>54</ele>
        <time>2015-06-07T06:41:25Z</time>
      </trkpt>
      <trkpt lat="47.91293" lon="-1.71913">
        <ele>54</ele>
        <time>2015-06-07T06:41:26Z</time>
      </trkpt>
      <trkpt lat="47.91294" lon="-1.71905">
        <ele>54</ele>
        <time>2015-06-07T06:41:27Z</time>
      </trkpt>
      <trkpt lat="47.91294" lon="-1.71897">
        <ele>54</ele>
        <time>2015-06-07T06:41:28Z</time>
      </trkpt>
      <trkpt lat="47.91294" lon="-1.71889">
        <ele>54</ele>
        <time>2015-06-07T06:41:29Z</time>
      </trkpt>
      <trkpt lat="47.91293" lon="-1.71881">
        <ele>54</ele>
        <time>2015-06-07T06:41:30Z</time>
      </trkpt>
      <trkpt lat="47.91293" lon="-1.71873">
        <ele>54</ele>
        <time>2015-06-07T06:41:31Z</time>
      </trkpt>
      <trkpt lat="47.91292" lon="-1.71865">
        <ele>54</ele>
        <time>2015-06-07T06:41:32Z</time>
      </trkpt>
      <trkpt lat="47.9129" lon="-1.71856">
        <ele>54</ele>
        <time>2015-06-07T06:41:33Z</time>
      </trkpt>
      <trkpt lat="47.91288" lon="-1.71848">
        <ele>54</ele>
        <time>2015-06-07T06:41:34Z</time>
      </trkpt>
      <trkpt lat="47.91286" lon="-1.7184">
        <ele>54</ele>
        <time>2015-06-07T06:41:35Z</time>
      </trkpt>
      <trkpt lat="47.91284" lon="-1.71832">
        <ele>54</ele>
        <time>2015-06-07T06:41:36Z</time>
      </trkpt>
      <trkpt lat="47.91281" lon="-1.71824">
        <ele>54</ele>
        <time>2015-06-07T06:41:37Z</time>
      </trkpt>
      <trkpt lat="47.91279" lon="-1.71815">
        <ele>54</ele>
        <time>2015-06-07T06:41:38Z</time>
      </trkpt>
      <trkpt lat="47.91277" lon="-1.71807">
        <ele>54</ele>
        <time>2015-06-07T06:41:39Z</time>
      </trkpt>
      <trkpt lat="47.91276" lon="-1.71798">
        <ele>54</ele>
        <time>2015-06-07T06:41:40Z</time>
      </trkpt>
      <trkpt lat="47.91276" lon="-1.71791">
        <ele>54</ele>
        <time>2015-06-07T06:41:41Z</time>
      </trkpt>
      <trkpt lat="47.91275" lon="-1.71783">
        <ele>53</ele>
        <time>2015-06-07T06:41:42Z</time>
      </trkpt>
      <trkpt lat="47.91274" lon="-1.71777">
        <ele>53</ele>
        <time>2015-06-07T06:41:43Z</time>
      </trkpt>
      <trkpt lat="47.91274" lon="-1.7177">
        <ele>53</ele>
        <time>2015-06-07T06:41:44Z</time>
      </trkpt>
      <trkpt lat="47.91274" lon="-1.71762">
        <ele>53</ele>
        <time>2015-06-07T06:41:45Z</time>
      </trkpt>
      <trkpt lat="47.91274" lon="-1.71754">
        <ele>53</ele>
        <time>2015-06-07T06:41:46Z</time>
      </trkpt>
      <trkpt lat="47.91274" lon="-1.71745">
        <ele>54</ele>
        <time>2015-06-07T06:41:47Z</time>
      </trkpt>
      <trkpt lat="47.91274" lon="-1.71736">
        <ele>54</ele>
        <time>2015-06-07T06:41:48Z</time>
      </trkpt>
      <trkpt lat="47.91273" lon="-1.71727">
        <ele>54</ele>
        <time>2015-06-07T06:41:49Z</time>
      </trkpt>
      <trkpt lat="47.91273" lon="-1.71718">
        <ele>54</ele>
        <time>2015-06-07T06:41:50Z</time>
      </trkpt>
      <trkpt lat="47.91273" lon="-1.71709">
        <ele>54</ele>
        <time>2015-06-07T06:41:51Z</time>
      </trkpt>
      <trkpt lat="47.91272" lon="-1.71701">
        <ele>54</ele>
        <time>2015-06-07T06:41:52Z</time>
      </trkpt>
      <trkpt lat="47.91272" lon="-1.71692">
        <ele>54</ele>
        <time>2015-06-07T06:41:53Z</time>
      </trkpt>
      <trkpt lat="47.91271" lon="-1.71684">
        <ele>54</ele>
        <time>2015-06-07T06:41:54Z</time>
      </trkpt>
      <trkpt lat="47.9127" lon="-1.71676">
        <ele>54</ele>
        <time>2015-06-07T06:41:55Z</time>
      </trkpt>
      <trkpt lat="47.91269" lon="-1.71668">
        <ele>54</ele>
        <time>2015-06-07T06:41:56Z</time>
      </trkpt>
      <trkpt lat="47.91268" lon="-1.71659">
        <ele>54</ele>
        <time>2015-06-07T06:41:57Z</time>
      </trkpt>
      <trkpt lat="47.91267" lon="-1.71651">
        <ele>54</ele>
        <time>2015-06-07T06:41:58Z</time>
      </trkpt>
      <trkpt lat="47.91266" lon="-1.71642">
        <ele>54</ele>
        <time>2015-06-07T06:41:59Z</time>
      </trkpt>
      <trkpt lat="47.91264" lon="-1.71634">
        <ele>54</ele>
        <time>2015-06-07T06:42:00Z</time>
      </trkpt>
      <trkpt lat="47.91263" lon="-1.71625">
        <ele>54</ele>
        <time>2015-06-07T06:42:01Z</time>
      </trkpt>
      <trkpt lat="47.91262" lon="-1.71617">
        <ele>54</ele>
        <time>2015-06-07T06:42:02Z</time>
      </trkpt>
      <trkpt lat="47.91261" lon="-1.71608">
        <ele>54</ele>
        <time>2015-06-07T06:42:03Z</time>
      </trkpt>
      <trkpt lat="47.9126" lon="-1.716">
        <ele>54</ele>
        <time>2015-06-07T06:42:04Z</time>
      </trkpt>
      <trkpt lat="47.91259" lon="-1.71592">
        <ele>54</ele>
        <time>2015-06-07T06:42:05Z</time>
      </trkpt>
      <trkpt lat="47.91258" lon="-1.71584">
        <ele>54</ele>
        <time>2015-06-07T06:42:06Z</time>
      </trkpt>
      <trkpt lat="47.91257" lon="-1.71577">
        <ele>54</ele>
        <time>2015-06-07T06:42:07Z</time>
      </trkpt>
      <trkpt lat="47.91256" lon="-1.71569">
        <ele>54</ele>
        <time>2015-06-07T06:42:08Z</time>
      </trkpt>
      <trkpt lat="47.91255" lon="-1.71561">
        <ele>54</ele>
        <time>2015-06-07T06:42:09Z</time>
      </trkpt>
      <trkpt lat="47.91254" lon="-1.71554">
        <ele>54</ele>
        <time>2015-06-07T06:42:10Z</time>
      </trkpt>
      <trkpt lat="47.91253" lon="-1.71546">
        <ele>54</ele>
        <time>2015-06-07T06:42:11Z</time>
      </trkpt>
      <trkpt lat="47.91252" lon="-1.71539">
        <ele>54</ele>
        <time>2015-06-07T06:42:12Z</time>
      </trkpt>
      <trkpt lat="47.91251" lon="-1.71531">
        <ele>54</ele>
        <time>2015-06-07T06:42:13Z</time>
      </trkpt>
      <trkpt lat="47.9125" lon="-1.71523">
        <ele>54</ele>
        <time>2015-06-07T06:42:14Z</time>
      </trkpt>
      <trkpt lat="47.91249" lon="-1.71515">
        <ele>54</ele>
        <time>2015-06-07T06:42:15Z</time>
      </trkpt>
      <trkpt lat="47.91248" lon="-1.71507">
        <ele>54</ele>
        <time>2015-06-07T06:42:16Z</time>
      </trkpt>
      <trkpt lat="47.91246" lon="-1.71499">
        <ele>54</ele>
        <time>2015-06-07T06:42:17Z</time>
      </trkpt>
      <trkpt lat="47.91244" lon="-1.71491">
        <ele>54</ele>
        <time>2015-06-07T06:42:18Z</time>
      </trkpt>
      <trkpt lat="47.91242" lon="-1.71484">
        <ele>54</ele>
        <time>2015-06-07T06:42:19Z</time>
      </trkpt>
      <trkpt lat="47.91239" lon="-1.71476">
        <ele>54</ele>
        <time>2015-06-07T06:42:20Z</time>
      </trkpt>
      <trkpt lat="47.91236" lon="-1.71469">
        <ele>54</ele>
        <time>2015-06-07T06:42:21Z</time>
      </trkpt>
      <trkpt lat="47.91232" lon="-1.71463">
        <ele>54</ele>
        <time>2015-06-07T06:42:22Z</time>
      </trkpt>
      <trkpt lat="47.91228" lon="-1.71458">
        <ele>54</ele>
        <time>2015-06-07T06:42:23Z</time>
      </trkpt>
      <trkpt lat="47.91223" lon="-1.71453">
        <ele>53</ele>
        <time>2015-06-07T06:42:24Z</time>
      </trkpt>
      <trkpt lat="47.91217" lon="-1.71451">
        <ele>53</ele>
        <time>2015-06-07T06:42:25Z</time>
      </trkpt>
      <trkpt lat="47.91212" lon="-1.7145">
        <ele>53</ele>
        <time>2015-06-07T06:42:26Z</time>
      </trkpt>
      <trkpt lat="47.91206" lon="-1.7145">
        <ele>53</ele>
        <time>2015-06-07T06:42:27Z</time>
      </trkpt>
      <trkpt lat="47.912" lon="-1.71451">
        <ele>53</ele>
        <time>2015-06-07T06:42:28Z</time>
      </trkpt>
      <trkpt lat="47.91194" lon="-1.71453">
        <ele>53</ele>
        <time>2015-06-07T06:42:29Z</time>
      </trkpt>
      <trkpt lat="47.91188" lon="-1.71454">
        <ele>53</ele>
        <time>2015-06-07T06:42:30Z</time>
      </trkpt>
      <trkpt lat="47.91182" lon="-1.71456">
        <ele>53</ele>
        <time>2015-06-07T06:42:31Z</time>
      </trkpt>
      <trkpt lat="47.91176" lon="-1.71458">
        <ele>52</ele>
        <time>2015-06-07T06:42:32Z</time>
      </trkpt>
      <trkpt lat="47.9117" lon="-1.71459">
        <ele>52</ele>
        <time>2015-06-07T06:42:33Z</time>
      </trkpt>
      <trkpt lat="47.91164" lon="-1.7146">
        <ele>52</ele>
        <time>2015-06-07T06:42:34Z</time>
      </trkpt>
      <trkpt lat="47.91157" lon="-1.71462">
        <ele>52</ele>
        <time>2015-06-07T06:42:35Z</time>
      </trkpt>
      <trkpt lat="47.91151" lon="-1.71464">
        <ele>52</ele>
        <time>2015-06-07T06:42:36Z</time>
      </trkpt>
      <trkpt lat="47.91145" lon="-1.71466">
        <ele>52</ele>
        <time>2015-06-07T06:42:37Z</time>
      </trkpt>
      <trkpt lat="47.91139" lon="-1.71468">
        <ele>52</ele>
        <time>2015-06-07T06:42:38Z</time>
      </trkpt>
      <trkpt lat="47.91133" lon="-1.71469">
        <ele>52</ele>
        <time>2015-06-07T06:42:39Z</time>
      </trkpt>
      <trkpt lat="47.91126" lon="-1.71471">
        <ele>52</ele>
        <time>2015-06-07T06:42:40Z</time>
      </trkpt>
      <trkpt lat="47.9112" lon="-1.71473">
        <ele>52</ele>
        <time>2015-06-07T06:42:41Z</time>
      </trkpt>
      <trkpt lat="47.91114" lon="-1.71475">
        <ele>52</ele>
        <time>2015-06-07T06:42:42Z</time>
      </trkpt>
      <trkpt lat="47.91108" lon="-1.71476">
        <ele>52</ele>
        <time>2015-06-07T06:42:43Z</time>
      </trkpt>
      <trkpt lat="47.91102" lon="-1.71478">
        <ele>52</ele>
        <time>2015-06-07T06:42:44Z</time>
      </trkpt>
      <trkpt lat="47.91096" lon="-1.71479">
        <ele>52</ele>
        <time>2015-06-07T06:42:45Z</time>
      </trkpt>
      <trkpt lat="47.91089" lon="-1.71481">
        <ele>52</ele>
        <time>2015-06-07T06:42:46Z</time>
      </trkpt>
      <trkpt lat="47.91083" lon="-1.71483">
        <ele>52</ele>
        <time>2015-06-07T06:42:47Z</time>
      </trkpt>
      <trkpt lat="47.91076" lon="-1.71485">
        <ele>53</ele>
        <time>2015-06-07T06:42:48Z</time>
      </trkpt>
      <trkpt lat="47.9107" lon="-1.71486">
        <ele>53</ele>
        <time>2015-06-07T06:42:49Z</time>
      </trkpt>
      <trkpt lat="47.91064" lon="-1.71488">
        <ele>53</ele>
        <time>2015-06-07T06:42:50Z</time>
      </trkpt>
      <trkpt lat="47.91058" lon="-1.7149">
        <ele>53</ele>
        <time>2015-06-07T06:42:51Z</time>
      </trkpt>
      <trkpt lat="47.91051" lon="-1.71492">
        <ele>53</ele>
        <time>2015-06-07T06:42:52Z</time>
      </trkpt>
      <trkpt lat="47.91045" lon="-1.71493">
        <ele>53</ele>
        <time>2015-06-07T06:42:53Z</time>
      </trkpt>
      <trkpt lat="47.91039" lon="-1.71495">
        <ele>53</ele>
        <time>2015-06-07T06:42:54Z</time>
      </trkpt>
      <trkpt lat="47.91032" lon="-1.71497">
        <ele>53</ele>
        <time>2015-06-07T06:42:55Z</time>
      </trkpt>
      <trkpt lat="47.91026" lon="-1.71499">
        <ele>53</ele>
        <time>2015-06-07T06:42:56Z</time>
      </trkpt>
      <trkpt lat="47.9102" lon="-1.71501">
        <ele>53</ele>
        <time>2015-06-07T06:42:57Z</time>
      </trkpt>
      <trkpt lat="47.91013" lon="-1.71503">
        <ele>53</ele>
        <time>2015-06-07T06:42:58Z</time>
      </trkpt>
      <trkpt lat="47.91007" lon="-1.71505">
        <ele>53</ele>
        <time>2015-06-07T06:42:59Z</time>
      </trkpt>
      <trkpt lat="47.91" lon="-1.71506">
        <ele>53</ele>
        <time>2015-06-07T06:43:00Z</time>
      </trkpt>
      <trkpt lat="47.90994" lon="-1.71508">
        <ele>53</ele>
        <time>2015-06-07T06:43:01Z</time>
      </trkpt>
      <trkpt lat="47.90987" lon="-1.7151">
        <ele>53</ele>
        <time>2015-06-07T06:43:02Z</time>
      </trkpt>
      <trkpt lat="47.90981" lon="-1.71512">
        <ele>52</ele>
        <time>2015-06-07T06:43:03Z</time>
      </trkpt>
      <trkpt lat="47.90974" lon="-1.71514">
        <ele>52</ele>
        <time>2015-06-07T06:43:04Z</time>
      </trkpt>
      <trkpt lat="47.90968" lon="-1.71516">
        <ele>52</ele>
        <time>2015-06-07T06:43:05Z</time>
      </trkpt>
      <trkpt lat="47.90962" lon="-1.71518">
        <ele>52</ele>
        <time>2015-06-07T06:43:06Z</time>
      </trkpt>
      <trkpt lat="47.90955" lon="-1.7152">
        <ele>52</ele>
        <time>2015-06-07T06:43:07Z</time>
      </trkpt>
      <trkpt lat="47.90949" lon="-1.71522">
        <ele>52</ele>
        <time>2015-06-07T06:43:08Z</time>
      </trkpt>
      <trkpt lat="47.90943" lon="-1.71524">
        <ele>52</ele>
        <time>2015-06-07T06:43:09Z</time>
      </trkpt>
      <trkpt lat="47.90937" lon="-1.71525">
        <ele>52</ele>
        <time>2015-06-07T06:43:10Z</time>
      </trkpt>
      <trkpt lat="47.9093" lon="-1.71528">
        <ele>52</ele>
        <time>2015-06-07T06:43:11Z</time>
      </trkpt>
      <trkpt lat="47.90924" lon="-1.71529">
        <ele>52</ele>
        <time>2015-06-07T06:43:12Z</time>
      </trkpt>
      <trkpt lat="47.90918" lon="-1.71531">
        <ele>52</ele>
        <time>2015-06-07T06:43:13Z</time>
      </trkpt>
      <trkpt lat="47.90912" lon="-1.71533">
        <ele>53</ele>
        <time>2015-06-07T06:43:14Z</time>
      </trkpt>
      <trkpt lat="47.90906" lon="-1.71535">
        <ele>53</ele>
        <time>2015-06-07T06:43:15Z</time>
      </trkpt>
      <trkpt lat="47.90899" lon="-1.71536">
        <ele>53</ele>
        <time>2015-06-07T06:43:16Z</time>
      </trkpt>
      <trkpt lat="47.90893" lon="-1.71538">
        <ele>53</ele>
        <time>2015-06-07T06:43:17Z</time>
      </trkpt>
      <trkpt lat="47.90888" lon="-1.7154">
        <ele>53</ele>
        <time>2015-06-07T06:43:18Z</time>
      </trkpt>
      <trkpt lat="47.90882" lon="-1.71541">
        <ele>53</ele>
        <time>2015-06-07T06:43:19Z</time>
      </trkpt>
      <trkpt lat="47.90876" lon="-1.71543">
        <ele>53</ele>
        <time>2015-06-07T06:43:20Z</time>
      </trkpt>
      <trkpt lat="47.9087" lon="-1.71545">
        <ele>53</ele>
        <time>2015-06-07T06:43:21Z</time>
      </trkpt>
      <trkpt lat="47.90864" lon="-1.71548">
        <ele>53</ele>
        <time>2015-06-07T06:43:22Z</time>
      </trkpt>
      <trkpt lat="47.90859" lon="-1.71552">
        <ele>53</ele>
        <time>2015-06-07T06:43:23Z</time>
      </trkpt>
      <trkpt lat="47.90855" lon="-1.71557">
        <ele>53</ele>
        <time>2015-06-07T06:43:24Z</time>
      </trkpt>
      <trkpt lat="47.90851" lon="-1.71564">
        <ele>53</ele>
        <time>2015-06-07T06:43:25Z</time>
      </trkpt>
      <trkpt lat="47.90848" lon="-1.71571">
        <ele>53</ele>
        <time>2015-06-07T06:43:26Z</time>
      </trkpt>
      <trkpt lat="47.90846" lon="-1.71578">
        <ele>53</ele>
        <time>2015-06-07T06:43:27Z</time>
      </trkpt>
      <trkpt lat="47.90843" lon="-1.71586">
        <ele>53</ele>
        <time>2015-06-07T06:43:28Z</time>
      </trkpt>
      <trkpt lat="47.9084" lon="-1.71594">
        <ele>53</ele>
        <time>2015-06-07T06:43:29Z</time>
      </trkpt>
      <trkpt lat="47.90838" lon="-1.71602">
        <ele>53</ele>
        <time>2015-06-07T06:43:30Z</time>
      </trkpt>
      <trkpt lat="47.90836" lon="-1.7161">
        <ele>52</ele>
        <time>2015-06-07T06:43:31Z</time>
      </trkpt>
      <trkpt lat="47.90834" lon="-1.71618">
        <ele>52</ele>
        <time>2015-06-07T06:43:32Z</time>
      </trkpt>
      <trkpt lat="47.90833" lon="-1.71627">
        <ele>52</ele>
        <time>2015-06-07T06:43:33Z</time>
      </trkpt>
      <trkpt lat="47.90831" lon="-1.71636">
        <ele>52</ele>
        <time>2015-06-07T06:43:34Z</time>
      </trkpt>
      <trkpt lat="47.90828" lon="-1.71644">
        <ele>52</ele>
        <time>2015-06-07T06:43:35Z</time>
      </trkpt>
      <trkpt lat="47.90824" lon="-1.71652">
        <ele>52</ele>
        <time>2015-06-07T06:43:36Z</time>
      </trkpt>
      <trkpt lat="47.90819" lon="-1.71657">
        <ele>51</ele>
        <time>2015-06-07T06:43:37Z</time>
      </trkpt>
      <trkpt lat="47.90813" lon="-1.71662">
        <ele>51</ele>
        <time>2015-06-07T06:43:38Z</time>
      </trkpt>
      <trkpt lat="47.90806" lon="-1.71666">
        <ele>51</ele>
        <time>2015-06-07T06:43:39Z</time>
      </trkpt>
      <trkpt lat="47.908" lon="-1.71669">
        <ele>51</ele>
        <time>2015-06-07T06:43:40Z</time>
      </trkpt>
      <trkpt lat="47.90794" lon="-1.71673">
        <ele>50</ele>
        <time>2015-06-07T06:43:41Z</time>
      </trkpt>
      <trkpt lat="47.90787" lon="-1.71676">
        <ele>50</ele>
        <time>2015-06-07T06:43:42Z</time>
      </trkpt>
      <trkpt lat="47.90781" lon="-1.71679">
        <ele>50</ele>
        <time>2015-06-07T06:43:43Z</time>
      </trkpt>
      <trkpt lat="47.90775" lon="-1.71683">
        <ele>49</ele>
        <time>2015-06-07T06:43:44Z</time>
      </trkpt>
      <trkpt lat="47.90768" lon="-1.71686">
        <ele>49</ele>
        <time>2015-06-07T06:43:45Z</time>
      </trkpt>
      <trkpt lat="47.90762" lon="-1.71689">
        <ele>49</ele>
        <time>2015-06-07T06:43:46Z</time>
      </trkpt>
      <trkpt lat="47.90757" lon="-1.71692">
        <ele>49</ele>
        <time>2015-06-07T06:43:47Z</time>
      </trkpt>
      <trkpt lat="47.90751" lon="-1.71694">
        <ele>48</ele>
        <time>2015-06-07T06:43:48Z</time>
      </trkpt>
      <trkpt lat="47.90747" lon="-1.71696">
        <ele>48</ele>
        <time>2015-06-07T06:43:49Z</time>
      </trkpt>
      <trkpt lat="47.90742" lon="-1.71698">
        <ele>48</ele>
        <time>2015-06-07T06:43:50Z</time>
      </trkpt>
      <trkpt lat="47.90738" lon="-1.71699">
        <ele>48</ele>
        <time>2015-06-07T06:43:51Z</time>
      </trkpt>
      <trkpt lat="47.90733" lon="-1.71701">
        <ele>48</ele>
        <time>2015-06-07T06:43:52Z</time>
      </trkpt>
      <trkpt lat="47.90728" lon="-1.71703">
        <ele>48</ele>
        <time>2015-06-07T06:43:53Z</time>
      </trkpt>
      <trkpt lat="47.90723" lon="-1.71704">
        <ele>48</ele>
        <time>2015-06-07T06:43:54Z</time>
      </trkpt>
      <trkpt lat="47.90718" lon="-1.71705">
        <ele>48</ele>
        <time>2015-06-07T06:43:55Z</time>
      </trkpt>
      <trkpt lat="47.90712" lon="-1.71705">
        <ele>48</ele>
        <time>2015-06-07T06:43:56Z</time>
      </trkpt>
      <trkpt lat="47.90706" lon="-1.71706">
        <ele>48</ele>
        <time>2015-06-07T06:43:57Z</time>
      </trkpt>
      <trkpt lat="47.90701" lon="-1.71707">
        <ele>48</ele>
        <time>2015-06-07T06:43:58Z</time>
      </trkpt>
      <trkpt lat="47.90695" lon="-1.71709">
        <ele>48</ele>
        <time>2015-06-07T06:43:59Z</time>
      </trkpt>
      <trkpt lat="47.9069" lon="-1.71711">
        <ele>48</ele>
        <time>2015-06-07T06:44:00Z</time>
      </trkpt>
      <trkpt lat="47.90684" lon="-1.71713">
        <ele>48</ele>
        <time>2015-06-07T06:44:01Z</time>
      </trkpt>
      <trkpt lat="47.90679" lon="-1.71716">
        <ele>47</ele>
        <time>2015-06-07T06:44:02Z</time>
      </trkpt>
      <trkpt lat="47.90674" lon="-1.71718">
        <ele>47</ele>
        <time>2015-06-07T06:44:03Z</time>
      </trkpt>
      <trkpt lat="47.90669" lon="-1.7172">
        <ele>47</ele>
        <time>2015-06-07T06:44:04Z</time>
      </trkpt>
      <trkpt lat="47.90664" lon="-1.71721">
        <ele>47</ele>
        <time>2015-06-07T06:44:05Z</time>
      </trkpt>
      <trkpt lat="47.90658" lon="-1.71722">
        <ele>47</ele>
        <time>2015-06-07T06:44:06Z</time>
      </trkpt>
      <trkpt lat="47.90653" lon="-1.71723">
        <ele>47</ele>
        <time>2015-06-07T06:44:07Z</time>
      </trkpt>
      <trkpt lat="47.90648" lon="-1.71723">
        <ele>47</ele>
        <time>2015-06-07T06:44:08Z</time>
      </trkpt>
      <trkpt lat="47.90642" lon="-1.71724">
        <ele>47</ele>
        <time>2015-06-07T06:44:09Z</time>
      </trkpt>
      <trkpt lat="47.90637" lon="-1.71724">
        <ele>47</ele>
        <time>2015-06-07T06:44:10Z</time>
      </trkpt>
      <trkpt lat="47.90631" lon="-1.71723">
        <ele>47</ele>
        <time>2015-06-07T06:44:11Z</time>
      </trkpt>
      <trkpt lat="47.90625" lon="-1.71723">
        <ele>47</ele>
        <time>2015-06-07T06:44:12Z</time>
      </trkpt>
      <trkpt lat="47.90619" lon="-1.71723">
        <ele>46</ele>
        <time>2015-06-07T06:44:13Z</time>
      </trkpt>
      <trkpt lat="47.90613" lon="-1.71722">
        <ele>46</ele>
        <time>2015-06-07T06:44:14Z</time>
      </trkpt>
      <trkpt lat="47.90607" lon="-1.71721">
        <ele>46</ele>
        <time>2015-06-07T06:44:15Z</time>
      </trkpt>
      <trkpt lat="47.906" lon="-1.71721">
        <ele>46</ele>
        <time>2015-06-07T06:44:16Z</time>
      </trkpt>
      <trkpt lat="47.90594" lon="-1.7172">
        <ele>45</ele>
        <time>2015-06-07T06:44:17Z</time>
      </trkpt>
      <trkpt lat="47.90588" lon="-1.71719">
        <ele>45</ele>
        <time>2015-06-07T06:44:18Z</time>
      </trkpt>
      <trkpt lat="47.90581" lon="-1.71718">
        <ele>45</ele>
        <time>2015-06-07T06:44:19Z</time>
      </trkpt>
      <trkpt lat="47.90574" lon="-1.71718">
        <ele>44</ele>
        <time>2015-06-07T06:44:20Z</time>
      </trkpt>
      <trkpt lat="47.90567" lon="-1.71717">
        <ele>44</ele>
        <time>2015-06-07T06:44:21Z</time>
      </trkpt>
      <trkpt lat="47.90561" lon="-1.71716">
        <ele>43</ele>
        <time>2015-06-07T06:44:22Z</time>
      </trkpt>
      <trkpt lat="47.90555" lon="-1.71717">
        <ele>43</ele>
        <time>2015-06-07T06:44:23Z</time>
      </trkpt>
      <trkpt lat="47.9055" lon="-1.71719">
        <ele>43</ele>
        <time>2015-06-07T06:44:24Z</time>
      </trkpt>
      <trkpt lat="47.90546" lon="-1.71723">
        <ele>42</ele>
        <time>2015-06-07T06:44:25Z</time>
      </trkpt>
      <trkpt lat="47.90543" lon="-1.7173">
        <ele>42</ele>
        <time>2015-06-07T06:44:26Z</time>
      </trkpt>
      <trkpt lat="47.90541" lon="-1.71738">
        <ele>42</ele>
        <time>2015-06-07T06:44:27Z</time>
      </trkpt>
      <trkpt lat="47.90541" lon="-1.71746">
        <ele>42</ele>
        <time>2015-06-07T06:44:28Z</time>
      </trkpt>
      <trkpt lat="47.90541" lon="-1.71754">
        <ele>42</ele>
        <time>2015-06-07T06:44:29Z</time>
      </trkpt>
      <trkpt lat="47.90541" lon="-1.71763">
        <ele>42</ele>
        <time>2015-06-07T06:44:30Z</time>
      </trkpt>
      <trkpt lat="47.90541" lon="-1.7177">
        <ele>42</ele>
        <time>2015-06-07T06:44:31Z</time>
      </trkpt>
      <trkpt lat="47.90541" lon="-1.71776">
        <ele>41</ele>
        <time>2015-06-07T06:44:32Z</time>
      </trkpt>
      <trkpt lat="47.9054" lon="-1.7178">
        <ele>41</ele>
        <time>2015-06-07T06:44:33Z</time>
      </trkpt>
      <trkpt lat="47.9054" lon="-1.71784">
        <ele>41</ele>
        <time>2015-06-07T06:44:34Z</time>
      </trkpt>
      <trkpt lat="47.9054" lon="-1.71787">
        <ele>41</ele>
        <time>2015-06-07T06:44:35Z</time>
      </trkpt>
      <trkpt lat="47.9054" lon="-1.7179">
        <ele>40</ele>
        <time>2015-06-07T06:44:36Z</time>
      </trkpt>
      <trkpt lat="47.90538" lon="-1.71793">
        <ele>40</ele>
        <time>2015-06-07T06:44:37Z</time>
      </trkpt>
      <trkpt lat="47.90537" lon="-1.71796">
        <ele>40</ele>
        <time>2015-06-07T06:44:38Z</time>
      </trkpt>
      <trkpt lat="47.90536" lon="-1.71797">
        <ele>40</ele>
        <time>2015-06-07T06:44:39Z</time>
      </trkpt>
      <trkpt lat="47.90536" lon="-1.71797">
        <ele>40</ele>
        <time>2015-06-07T06:44:40Z</time>
      </trkpt>
      <trkpt lat="47.90536" lon="-1.71798">
        <ele>39</ele>
        <time>2015-06-07T06:44:41Z</time>
      </trkpt>
      <trkpt lat="47.90536" lon="-1.71799">
        <ele>39</ele>
        <time>2015-06-07T06:44:42Z</time>
      </trkpt>
      <trkpt lat="47.90536" lon="-1.718">
        <ele>39</ele>
        <time>2015-06-07T06:44:43Z</time>
      </trkpt>
      <trkpt lat="47.90535" lon="-1.71801">
        <ele>39</ele>
        <time>2015-06-07T06:44:44Z</time>
      </trkpt>
      <trkpt lat="47.90535" lon="-1.71802">
        <ele>38</ele>
        <time>2015-06-07T06:44:45Z</time>
      </trkpt>
      <trkpt lat="47.90534" lon="-1.71803">
        <ele>38</ele>
        <time>2015-06-07T06:44:46Z</time>
      </trkpt>
      <trkpt lat="47.90533" lon="-1.71803">
        <ele>38</ele>
        <time>2015-06-07T06:44:47Z</time>
      </trkpt>
      <trkpt lat="47.90533" lon="-1.71803">
        <ele>38</ele>
        <time>2015-06-07T06:44:48Z</time>
      </trkpt>
      <trkpt lat="47.90533" lon="-1.71803">
        <ele>38</ele>
        <time>2015-06-07T06:44:49Z</time>
      </trkpt>
      <trkpt lat="47.90533" lon="-1.71804">
        <ele>37</ele>
        <time>2015-06-07T06:44:50Z</time>
      </trkpt>
      <trkpt lat="47.90533" lon="-1.71804">
        <ele>37</ele>
        <time>2015-06-07T06:44:51Z</time>
      </trkpt>
      <trkpt lat="47.90533" lon="-1.71804">
        <ele>37</ele>
        <time>2015-06-07T06:44:52Z</time>
      </trkpt>
      <trkpt lat="47.90533" lon="-1.71804">
        <ele>37</ele>
        <time>2015-06-07T06:44:53Z</time>
      </trkpt>
      <trkpt lat="47.90533" lon="-1.71804">
        <ele>37</ele>
        <time>2015-06-07T06:44:54Z</time>
      </trkpt>
      <trkpt lat="47.90533" lon="-1.71804">
        <ele>37</ele>
        <time>2015-06-07T06:44:55Z</time>
      </trkpt>
      <trkpt lat="47.90536" lon="-1.71808">
        <ele>37</ele>
        <time>2015-06-07T06:44:56Z</time>
      </trkpt>
      <trkpt lat="47.90536" lon="-1.71808">
        <ele>37</ele>
        <time>2015-06-07T06:44:57Z</time>
      </trkpt>
      <trkpt lat="47.90536" lon="-1.71808">
        <ele>37</ele>
        <time>2015-06-07T06:44:58Z</time>
      </trkpt>
      <trkpt lat="47.90536" lon="-1.71808">
        <ele>37</ele>
        <time>2015-06-07T06:44:59Z</time>
      </trkpt>
      <trkpt lat="47.90536" lon="-1.71808">
        <ele>37</ele>
        <time>2015-06-07T06:45:00Z</time>
      </trkpt>
      <trkpt lat="47.90536" lon="-1.71817">
        <ele>36</ele>
        <time>2015-06-07T06:45:01Z</time>
      </trkpt>
      <trkpt lat="47.90535" lon="-1.7182">
        <ele>36</ele>
        <time>2015-06-07T06:45:02Z</time>
      </trkpt>
      <trkpt lat="47.90536" lon="-1.71823">
        <ele>36</ele>
        <time>2015-06-07T06:45:03Z</time>
      </trkpt>
      <trkpt lat="47.90536" lon="-1.71825">
        <ele>36</ele>
        <time>2015-06-07T06:45:04Z</time>
      </trkpt>
      <trkpt lat="47.90535" lon="-1.71829">
        <ele>36</ele>
        <time>2015-06-07T06:45:05Z</time>
      </trkpt>
      <trkpt lat="47.90535" lon="-1.71833">
        <ele>36</ele>
        <time>2015-06-07T06:45:06Z</time>
      </trkpt>
      <trkpt lat="47.90534" lon="-1.71836">
        <ele>36</ele>
        <time>2015-06-07T06:45:07Z</time>
      </trkpt>
      <trkpt lat="47.90534" lon="-1.7184">
        <ele>36</ele>
        <time>2015-06-07T06:45:08Z</time>
      </trkpt>
      <trkpt lat="47.90532" lon="-1.71843">
        <ele>36</ele>
        <time>2015-06-07T06:45:09Z</time>
      </trkpt>
      <trkpt lat="47.90531" lon="-1.71845">
        <ele>36</ele>
        <time>2015-06-07T06:45:10Z</time>
      </trkpt>
      <trkpt lat="47.90529" lon="-1.71847">
        <ele>36</ele>
        <time>2015-06-07T06:45:11Z</time>
      </trkpt>
      <trkpt lat="47.90528" lon="-1.71849">
        <ele>36</ele>
        <time>2015-06-07T06:45:12Z</time>
      </trkpt>
      <trkpt lat="47.90525" lon="-1.71851">
        <ele>36</ele>
        <time>2015-06-07T06:45:13Z</time>
      </trkpt>
      <trkpt lat="47.90523" lon="-1.71852">
        <ele>36</ele>
        <time>2015-06-07T06:45:14Z</time>
      </trkpt>
      <trkpt lat="47.9052" lon="-1.71853">
        <ele>36</ele>
        <time>2015-06-07T06:45:15Z</time>
      </trkpt>
      <trkpt lat="47.90516" lon="-1.71853">
        <ele>36</ele>
        <time>2015-06-07T06:45:16Z</time>
      </trkpt>
      <trkpt lat="47.90513" lon="-1.71854">
        <ele>36</ele>
        <time>2015-06-07T06:45:17Z</time>
      </trkpt>
      <trkpt lat="47.90509" lon="-1.71855">
        <ele>36</ele>
        <time>2015-06-07T06:45:18Z</time>
      </trkpt>
      <trkpt lat="47.90505" lon="-1.71855">
        <ele>36</ele>
        <time>2015-06-07T06:45:19Z</time>
      </trkpt>
      <trkpt lat="47.90502" lon="-1.71856">
        <ele>36</ele>
        <time>2015-06-07T06:45:20Z</time>
      </trkpt>
      <trkpt lat="47.90497" lon="-1.71858">
        <ele>36</ele>
        <time>2015-06-07T06:45:21Z</time>
      </trkpt>
      <trkpt lat="47.90493" lon="-1.71858">
        <ele>36</ele>
        <time>2015-06-07T06:45:22Z</time>
      </trkpt>
      <trkpt lat="47.90488" lon="-1.71859">
        <ele>36</ele>
        <time>2015-06-07T06:45:23Z</time>
      </trkpt>
      <trkpt lat="47.90484" lon="-1.71859">
        <ele>36</ele>
        <time>2015-06-07T06:45:24Z</time>
      </trkpt>
      <trkpt lat="47.90479" lon="-1.71859">
        <ele>36</ele>
        <time>2015-06-07T06:45:25Z</time>
      </trkpt>
      <trkpt lat="47.90474" lon="-1.71859">
        <ele>36</ele>
        <time>2015-06-07T06:45:26Z</time>
      </trkpt>
      <trkpt lat="47.9047" lon="-1.7186">
        <ele>35</ele>
        <time>2015-06-07T06:45:27Z</time>
      </trkpt>
      <trkpt lat="47.90467" lon="-1.71862">
        <ele>35</ele>
        <time>2015-06-07T06:45:28Z</time>
      </trkpt>
      <trkpt lat="47.90466" lon="-1.71865">
        <ele>35</ele>
        <time>2015-06-07T06:45:29Z</time>
      </trkpt>
      <trkpt lat="47.90465" lon="-1.71869">
        <ele>35</ele>
        <time>2015-06-07T06:45:30Z</time>
      </trkpt>
      <trkpt lat="47.90463" lon="-1.71874">
        <ele>35</ele>
        <time>2015-06-07T06:45:31Z</time>
      </trkpt>
      <trkpt lat="47.90463" lon="-1.7188">
        <ele>35</ele>
        <time>2015-06-07T06:45:32Z</time>
      </trkpt>
      <trkpt lat="47.90462" lon="-1.71886">
        <ele>35</ele>
        <time>2015-06-07T06:45:33Z</time>
      </trkpt>
      <trkpt lat="47.90462" lon="-1.71894">
        <ele>35</ele>
        <time>2015-06-07T06:45:34Z</time>
      </trkpt>
      <trkpt lat="47.90461" lon="-1.71903">
        <ele>35</ele>
        <time>2015-06-07T06:45:35Z</time>
      </trkpt>
      <trkpt lat="47.90461" lon="-1.71912">
        <ele>35</ele>
        <time>2015-06-07T06:45:36Z</time>
      </trkpt>
      <trkpt lat="47.9046" lon="-1.71921">
        <ele>35</ele>
        <time>2015-06-07T06:45:37Z</time>
      </trkpt>
      <trkpt lat="47.9046" lon="-1.71929">
        <ele>35</ele>
        <time>2015-06-07T06:45:38Z</time>
      </trkpt>
      <trkpt lat="47.9046" lon="-1.71937">
        <ele>35</ele>
        <time>2015-06-07T06:45:39Z</time>
      </trkpt>
      <trkpt lat="47.9046" lon="-1.71946">
        <ele>34</ele>
        <time>2015-06-07T06:45:40Z</time>
      </trkpt>
      <trkpt lat="47.9046" lon="-1.71954">
        <ele>34</ele>
        <time>2015-06-07T06:45:41Z</time>
      </trkpt>
      <trkpt lat="47.9046" lon="-1.71961">
        <ele>34</ele>
        <time>2015-06-07T06:45:42Z</time>
      </trkpt>
      <trkpt lat="47.9046" lon="-1.71969">
        <ele>34</ele>
        <time>2015-06-07T06:45:43Z</time>
      </trkpt>
      <trkpt lat="47.9046" lon="-1.71976">
        <ele>34</ele>
        <time>2015-06-07T06:45:44Z</time>
      </trkpt>
      <trkpt lat="47.90459" lon="-1.71983">
        <ele>33</ele>
        <time>2015-06-07T06:45:45Z</time>
      </trkpt>
      <trkpt lat="47.90459" lon="-1.71991">
        <ele>33</ele>
        <time>2015-06-07T06:45:46Z</time>
      </trkpt>
      <trkpt lat="47.90458" lon="-1.71998">
        <ele>33</ele>
        <time>2015-06-07T06:45:47Z</time>
      </trkpt>
      <trkpt lat="47.90457" lon="-1.72006">
        <ele>33</ele>
        <time>2015-06-07T06:45:48Z</time>
      </trkpt>
      <trkpt lat="47.90456" lon="-1.72015">
        <ele>33</ele>
        <time>2015-06-07T06:45:49Z</time>
      </trkpt>
      <trkpt lat="47.90455" lon="-1.72024">
        <ele>33</ele>
        <time>2015-06-07T06:45:50Z</time>
      </trkpt>
      <trkpt lat="47.90454" lon="-1.72034">
        <ele>33</ele>
        <time>2015-06-07T06:45:51Z</time>
      </trkpt>
      <trkpt lat="47.90453" lon="-1.72045">
        <ele>32</ele>
        <time>2015-06-07T06:45:52Z</time>
      </trkpt>
      <trkpt lat="47.90453" lon="-1.72055">
        <ele>32</ele>
        <time>2015-06-07T06:45:53Z</time>
      </trkpt>
      <trkpt lat="47.90453" lon="-1.72065">
        <ele>32</ele>
        <time>2015-06-07T06:45:54Z</time>
      </trkpt>
      <trkpt lat="47.90455" lon="-1.72075">
        <ele>32</ele>
        <time>2015-06-07T06:45:55Z</time>
      </trkpt>
      <trkpt lat="47.90457" lon="-1.72085">
        <ele>31</ele>
        <time>2015-06-07T06:45:56Z</time>
      </trkpt>
      <trkpt lat="47.90459" lon="-1.72095">
        <ele>30</ele>
        <time>2015-06-07T06:45:57Z</time>
      </trkpt>
      <trkpt lat="47.90461" lon="-1.72105">
        <ele>30</ele>
        <time>2015-06-07T06:45:58Z</time>
      </trkpt>
      <trkpt lat="47.90462" lon="-1.72116">
        <ele>29</ele>
        <time>2015-06-07T06:45:59Z</time>
      </trkpt>
      <trkpt lat="47.90463" lon="-1.72125">
        <ele>28</ele>
        <time>2015-06-07T06:46:00Z</time>
      </trkpt>
      <trkpt lat="47.90463" lon="-1.72133">
        <ele>28</ele>
        <time>2015-06-07T06:46:01Z</time>
      </trkpt>
      <trkpt lat="47.90462" lon="-1.72138">
        <ele>27</ele>
        <time>2015-06-07T06:46:02Z</time>
      </trkpt>
      <trkpt lat="47.9046" lon="-1.7214">
        <ele>27</ele>
        <time>2015-06-07T06:46:03Z</time>
      </trkpt>
      <trkpt lat="47.90457" lon="-1.72138">
        <ele>27</ele>
        <time>2015-06-07T06:46:04Z</time>
      </trkpt>
      <trkpt lat="47.90455" lon="-1.72135">
        <ele>26</ele>
        <time>2015-06-07T06:46:05Z</time>
      </trkpt>
      <trkpt lat="47.90452" lon="-1.7213">
        <ele>26</ele>
        <time>2015-06-07T06:46:06Z</time>
      </trkpt>
      <trkpt lat="47.9045" lon="-1.72123">
        <ele>26</ele>
        <time>2015-06-07T06:46:07Z</time>
      </trkpt>
      <trkpt lat="47.90448" lon="-1.72116">
        <ele>25</ele>
        <time>2015-06-07T06:46:08Z</time>
      </trkpt>
      <trkpt lat="47.90447" lon="-1.72108">
        <ele>25</ele>
        <time>2015-06-07T06:46:09Z</time>
      </trkpt>
      <trkpt lat="47.90446" lon="-1.721">
        <ele>25</ele>
        <time>2015-06-07T06:46:10Z</time>
      </trkpt>
      <trkpt lat="47.90447" lon="-1.72091">
        <ele>25</ele>
        <time>2015-06-07T06:46:11Z</time>
      </trkpt>
      <trkpt lat="47.90448" lon="-1.72084">
        <ele>25</ele>
        <time>2015-06-07T06:46:12Z</time>
      </trkpt>
      <trkpt lat="47.90448" lon="-1.72077">
        <ele>25</ele>
        <time>2015-06-07T06:46:13Z</time>
      </trkpt>
      <trkpt lat="47.90449" lon="-1.72071">
        <ele>25</ele>
        <time>2015-06-07T06:46:14Z</time>
      </trkpt>
      <trkpt lat="47.90448" lon="-1.72065">
        <ele>25</ele>
        <time>2015-06-07T06:46:15Z</time>
      </trkpt>
      <trkpt lat="47.90447" lon="-1.72059">
        <ele>24</ele>
        <time>2015-06-07T06:46:16Z</time>
      </trkpt>
      <trkpt lat="47.90446" lon="-1.72052">
        <ele>24</ele>
        <time>2015-06-07T06:46:17Z</time>
      </trkpt>
      <trkpt lat="47.90445" lon="-1.72045">
        <ele>24</ele>
        <time>2015-06-07T06:46:18Z</time>
      </trkpt>
      <trkpt lat="47.90444" lon="-1.72038">
        <ele>24</ele>
        <time>2015-06-07T06:46:19Z</time>
      </trkpt>
      <trkpt lat="47.90443" lon="-1.72031">
        <ele>24</ele>
        <time>2015-06-07T06:46:20Z</time>
      </trkpt>
      <trkpt lat="47.90443" lon="-1.72026">
        <ele>24</ele>
        <time>2015-06-07T06:46:21Z</time>
      </trkpt>
      <trkpt lat="47.90441" lon="-1.7202">
        <ele>24</ele>
        <time>2015-06-07T06:46:22Z</time>
      </trkpt>
      <trkpt lat="47.9044" lon="-1.72013">
        <ele>24</ele>
        <time>2015-06-07T06:46:23Z</time>
      </trkpt>
      <trkpt lat="47.90439" lon="-1.72007">
        <ele>25</ele>
        <time>2015-06-07T06:46:24Z</time>
      </trkpt>
      <trkpt lat="47.90438" lon="-1.72003">
        <ele>25</ele>
        <time>2015-06-07T06:46:25Z</time>
      </trkpt>
      <trkpt lat="47.90439" lon="-1.71998">
        <ele>25</ele>
        <time>2015-06-07T06:46:26Z</time>
      </trkpt>
      <trkpt lat="47.9044" lon="-1.71995">
        <ele>25</ele>
        <time>2015-06-07T06:46:27Z</time>
      </trkpt>
      <trkpt lat="47.9044" lon="-1.7199">
        <ele>25</ele>
        <time>2015-06-07T06:46:28Z</time>
      </trkpt>
      <trkpt lat="47.90441" lon="-1.71985">
        <ele>25</ele>
        <time>2015-06-07T06:46:29Z</time>
      </trkpt>
      <trkpt lat="47.9044" lon="-1.7198">
        <ele>25</ele>
        <time>2015-06-07T06:46:30Z</time>
      </trkpt>
      <trkpt lat="47.9044" lon="-1.71975">
        <ele>25</ele>
        <time>2015-06-07T06:46:31Z</time>
      </trkpt>
      <trkpt lat="47.9044" lon="-1.7197">
        <ele>25</ele>
        <time>2015-06-07T06:46:32Z</time>
      </trkpt>
      <trkpt lat="47.90439" lon="-1.71964">
        <ele>25</ele>
        <time>2015-06-07T06:46:33Z</time>
      </trkpt>
      <trkpt lat="47.90439" lon="-1.71958">
        <ele>25</ele>
        <time>2015-06-07T06:46:34Z</time>
      </trkpt>
      <trkpt lat="47.90438" lon="-1.71952">
        <ele>25</ele>
        <time>2015-06-07T06:46:35Z</time>
      </trkpt>
      <trkpt lat="47.90438" lon="-1.71946">
        <ele>25</ele>
        <time>2015-06-07T06:46:36Z</time>
      </trkpt>
      <trkpt lat="47.90436" lon="-1.7194">
        <ele>25</ele>
        <time>2015-06-07T06:46:37Z</time>
      </trkpt>
      <trkpt lat="47.90435" lon="-1.71934">
        <ele>25</ele>
        <time>2015-06-07T06:46:38Z</time>
      </trkpt>
      <trkpt lat="47.90434" lon="-1.71928">
        <ele>25</ele>
        <time>2015-06-07T06:46:39Z</time>
      </trkpt>
      <trkpt lat="47.90434" lon="-1.71923">
        <ele>25</ele>
        <time>2015-06-07T06:46:40Z</time>
      </trkpt>
      <trkpt lat="47.90435" lon="-1.71916">
        <ele>26</ele>
        <time>2015-06-07T06:46:41Z</time>
      </trkpt>
      <trkpt lat="47.90435" lon="-1.7191">
        <ele>26</ele>
        <time>2015-06-07T06:46:42Z</time>
      </trkpt>
      <trkpt lat="47.90436" lon="-1.71904">
        <ele>25</ele>
        <time>2015-06-07T06:46:43Z</time>
      </trkpt>
      <trkpt lat="47.90435" lon="-1.71898">
        <ele>25</ele>
        <time>2015-06-07T06:46:44Z</time>
      </trkpt>
      <trkpt lat="47.90435" lon="-1.71891">
        <ele>25</ele>
        <time>2015-06-07T06:46:45Z</time>
      </trkpt>
      <trkpt lat="47.90435" lon="-1.71883">
        <ele>25</ele>
        <time>2015-06-07T06:46:46Z</time>
      </trkpt>
      <trkpt lat="47.90435" lon="-1.71876">
        <ele>25</ele>
        <time>2015-06-07T06:46:47Z</time>
      </trkpt>
      <trkpt lat="47.90435" lon="-1.71869">
        <ele>25</ele>
        <time>2015-06-07T06:46:48Z</time>
      </trkpt>
      <trkpt lat="47.90435" lon="-1.71863">
        <ele>25</ele>
        <time>2015-06-07T06:46:49Z</time>
      </trkpt>
      <trkpt lat="47.90435" lon="-1.71857">
        <ele>25</ele>
        <time>2015-06-07T06:46:50Z</time>
      </trkpt>
      <trkpt lat="47.90435" lon="-1.7185">
        <ele>25</ele>
        <time>2015-06-07T06:46:51Z</time>
      </trkpt>
      <trkpt lat="47.90436" lon="-1.71844">
        <ele>25</ele>
        <time>2015-06-07T06:46:52Z</time>
      </trkpt>
      <trkpt lat="47.90436" lon="-1.71837">
        <ele>25</ele>
        <time>2015-06-07T06:46:53Z</time>
      </trkpt>
      <trkpt lat="47.90436" lon="-1.71831">
        <ele>25</ele>
        <time>2015-06-07T06:46:54Z</time>
      </trkpt>
      <trkpt lat="47.90436" lon="-1.71825">
        <ele>25</ele>
        <time>2015-06-07T06:46:55Z</time>
      </trkpt>
      <trkpt lat="47.90435" lon="-1.71817">
        <ele>25</ele>
        <time>2015-06-07T06:46:56Z</time>
      </trkpt>
      <trkpt lat="47.90435" lon="-1.7181">
        <ele>25</ele>
        <time>2015-06-07T06:46:57Z</time>
      </trkpt>
      <trkpt lat="47.90435" lon="-1.71804">
        <ele>25</ele>
        <time>2015-06-07T06:46:58Z</time>
      </trkpt>
      <trkpt lat="47.90435" lon="-1.71797">
        <ele>25</ele>
        <time>2015-06-07T06:46:59Z</time>
      </trkpt>
      <trkpt lat="47.90434" lon="-1.7179">
        <ele>25</ele>
        <time>2015-06-07T06:47:00Z</time>
      </trkpt>
      <trkpt lat="47.90432" lon="-1.71784">
        <ele>25</ele>
        <time>2015-06-07T06:47:01Z</time>
      </trkpt>
      <trkpt lat="47.9043" lon="-1.71777">
        <ele>25</ele>
        <time>2015-06-07T06:47:02Z</time>
      </trkpt>
      <trkpt lat="47.90429" lon="-1.7177">
        <ele>25</ele>
        <time>2015-06-07T06:47:03Z</time>
      </trkpt>
      <trkpt lat="47.90428" lon="-1.71764">
        <ele>25</ele>
        <time>2015-06-07T06:47:04Z</time>
      </trkpt>
      <trkpt lat="47.90428" lon="-1.71759">
        <ele>25</ele>
        <time>2015-06-07T06:47:05Z</time>
      </trkpt>
      <trkpt lat="47.90428" lon="-1.71753">
        <ele>25</ele>
        <time>2015-06-07T06:47:06Z</time>
      </trkpt>
      <trkpt lat="47.90429" lon="-1.71748">
        <ele>25</ele>
        <time>2015-06-07T06:47:07Z</time>
      </trkpt>
      <trkpt lat="47.90429" lon="-1.71742">
        <ele>25</ele>
        <time>2015-06-07T06:47:08Z</time>
      </trkpt>
      <trkpt lat="47.90428" lon="-1.71736">
        <ele>26</ele>
        <time>2015-06-07T06:47:09Z</time>
      </trkpt>
      <trkpt lat="47.90428" lon="-1.7173">
        <ele>26</ele>
        <time>2015-06-07T06:47:10Z</time>
      </trkpt>
      <trkpt lat="47.90427" lon="-1.71724">
        <ele>26</ele>
        <time>2015-06-07T06:47:11Z</time>
      </trkpt>
      <trkpt lat="47.90425" lon="-1.71716">
        <ele>26</ele>
        <time>2015-06-07T06:47:12Z</time>
      </trkpt>
      <trkpt lat="47.90423" lon="-1.71708">
        <ele>26</ele>
        <time>2015-06-07T06:47:13Z</time>
      </trkpt>
      <trkpt lat="47.90422" lon="-1.717">
        <ele>26</ele>
        <time>2015-06-07T06:47:14Z</time>
      </trkpt>
      <trkpt lat="47.90421" lon="-1.71693">
        <ele>26</ele>
        <time>2015-06-07T06:47:15Z</time>
      </trkpt>
      <trkpt lat="47.9042" lon="-1.71686">
        <ele>26</ele>
        <time>2015-06-07T06:47:16Z</time>
      </trkpt>
      <trkpt lat="47.90419" lon="-1.7168">
        <ele>26</ele>
        <time>2015-06-07T06:47:17Z</time>
      </trkpt>
      <trkpt lat="47.90419" lon="-1.71676">
        <ele>26</ele>
        <time>2015-06-07T06:47:18Z</time>
      </trkpt>
      <trkpt lat="47.90418" lon="-1.71672">
        <ele>26</ele>
        <time>2015-06-07T06:47:19Z</time>
      </trkpt>
      <trkpt lat="47.90418" lon="-1.71668">
        <ele>26</ele>
        <time>2015-06-07T06:47:20Z</time>
      </trkpt>
      <trkpt lat="47.90417" lon="-1.71663">
        <ele>26</ele>
        <time>2015-06-07T06:47:21Z</time>
      </trkpt>
      <trkpt lat="47.90417" lon="-1.71657">
        <ele>26</ele>
        <time>2015-06-07T06:47:22Z</time>
      </trkpt>
      <trkpt lat="47.90416" lon="-1.71652">
        <ele>26</ele>
        <time>2015-06-07T06:47:23Z</time>
      </trkpt>
      <trkpt lat="47.90416" lon="-1.71647">
        <ele>27</ele>
        <time>2015-06-07T06:47:24Z</time>
      </trkpt>
      <trkpt lat="47.90415" lon="-1.71642">
        <ele>27</ele>
        <time>2015-06-07T06:47:25Z</time>
      </trkpt>
      <trkpt lat="47.90413" lon="-1.71637">
        <ele>27</ele>
        <time>2015-06-07T06:47:26Z</time>
      </trkpt>
      <trkpt lat="47.90412" lon="-1.71632">
        <ele>27</ele>
        <time>2015-06-07T06:47:27Z</time>
      </trkpt>
      <trkpt lat="47.90409" lon="-1.71626">
        <ele>27</ele>
        <time>2015-06-07T06:47:28Z</time>
      </trkpt>
      <trkpt lat="47.90406" lon="-1.71619">
        <ele>27</ele>
        <time>2015-06-07T06:47:29Z</time>
      </trkpt>
      <trkpt lat="47.90404" lon="-1.71611">
        <ele>27</ele>
        <time>2015-06-07T06:47:30Z</time>
      </trkpt>
      <trkpt lat="47.90402" lon="-1.71603">
        <ele>27</ele>
        <time>2015-06-07T06:47:31Z</time>
      </trkpt>
      <trkpt lat="47.90401" lon="-1.71597">
        <ele>28</ele>
        <time>2015-06-07T06:47:32Z</time>
      </trkpt>
      <trkpt lat="47.904" lon="-1.71591">
        <ele>28</ele>
        <time>2015-06-07T06:47:33Z</time>
      </trkpt>
      <trkpt lat="47.90399" lon="-1.71585">
        <ele>28</ele>
        <time>2015-06-07T06:47:34Z</time>
      </trkpt>
      <trkpt lat="47.90399" lon="-1.7158">
        <ele>28</ele>
        <time>2015-06-07T06:47:35Z</time>
      </trkpt>
      <trkpt lat="47.90398" lon="-1.71574">
        <ele>28</ele>
        <time>2015-06-07T06:47:36Z</time>
      </trkpt>
      <trkpt lat="47.90396" lon="-1.71568">
        <ele>28</ele>
        <time>2015-06-07T06:47:37Z</time>
      </trkpt>
      <trkpt lat="47.90395" lon="-1.71563">
        <ele>28</ele>
        <time>2015-06-07T06:47:38Z</time>
      </trkpt>
      <trkpt lat="47.90393" lon="-1.71558">
        <ele>28</ele>
        <time>2015-06-07T06:47:39Z</time>
      </trkpt>
      <trkpt lat="47.90391" lon="-1.71553">
        <ele>28</ele>
        <time>2015-06-07T06:47:40Z</time>
      </trkpt>
      <trkpt lat="47.90389" lon="-1.7155">
        <ele>27</ele>
        <time>2015-06-07T06:47:41Z</time>
      </trkpt>
      <trkpt lat="47.90388" lon="-1.71546">
        <ele>27</ele>
        <time>2015-06-07T06:47:42Z</time>
      </trkpt>
      <trkpt lat="47.90387" lon="-1.71542">
        <ele>27</ele>
        <time>2015-06-07T06:47:43Z</time>
      </trkpt>
      <trkpt lat="47.90385" lon="-1.71537">
        <ele>27</ele>
        <time>2015-06-07T06:47:44Z</time>
      </trkpt>
      <trkpt lat="47.90384" lon="-1.71532">
        <ele>27</ele>
        <time>2015-06-07T06:47:45Z</time>
      </trkpt>
      <trkpt lat="47.90381" lon="-1.71528">
        <ele>27</ele>
        <time>2015-06-07T06:47:46Z</time>
      </trkpt>
      <trkpt lat="47.9038" lon="-1.71523">
        <ele>26</ele>
        <time>2015-06-07T06:47:47Z</time>
      </trkpt>
      <trkpt lat="47.90377" lon="-1.71518">
        <ele>26</ele>
        <time>2015-06-07T06:47:48Z</time>
      </trkpt>
      <trkpt lat="47.90376" lon="-1.71514">
        <ele>26</ele>
        <time>2015-06-07T06:47:49Z</time>
      </trkpt>
      <trkpt lat="47.90374" lon="-1.71509">
        <ele>26</ele>
        <time>2015-06-07T06:47:50Z</time>
      </trkpt>
      <trkpt lat="47.90373" lon="-1.71505">
        <ele>26</ele>
        <time>2015-06-07T06:47:51Z</time>
      </trkpt>
      <trkpt lat="47.90371" lon="-1.71501">
        <ele>26</ele>
        <time>2015-06-07T06:47:52Z</time>
      </trkpt>
      <trkpt lat="47.9037" lon="-1.71498">
        <ele>26</ele>
        <time>2015-06-07T06:47:53Z</time>
      </trkpt>
      <trkpt lat="47.9037" lon="-1.71496">
        <ele>26</ele>
        <time>2015-06-07T06:47:54Z</time>
      </trkpt>
      <trkpt lat="47.9037" lon="-1.71495">
        <ele>26</ele>
        <time>2015-06-07T06:47:55Z</time>
      </trkpt>
      <trkpt lat="47.9037" lon="-1.71493">
        <ele>26</ele>
        <time>2015-06-07T06:47:56Z</time>
      </trkpt>
      <trkpt lat="47.9037" lon="-1.71492">
        <ele>26</ele>
        <time>2015-06-07T06:47:57Z</time>
      </trkpt>
      <trkpt lat="47.9037" lon="-1.71491">
        <ele>26</ele>
        <time>2015-06-07T06:47:58Z</time>
      </trkpt>
      <trkpt lat="47.9037" lon="-1.7149">
        <ele>26</ele>
        <time>2015-06-07T06:47:59Z</time>
      </trkpt>
      <trkpt lat="47.9037" lon="-1.71489">
        <ele>26</ele>
        <time>2015-06-07T06:48:00Z</time>
      </trkpt>
      <trkpt lat="47.90369" lon="-1.71488">
        <ele>26</ele>
        <time>2015-06-07T06:48:01Z</time>
      </trkpt>
      <trkpt lat="47.90369" lon="-1.71487">
        <ele>26</ele>
        <time>2015-06-07T06:48:02Z</time>
      </trkpt>
      <trkpt lat="47.90369" lon="-1.71486">
        <ele>26</ele>
        <time>2015-06-07T06:48:03Z</time>
      </trkpt>
      <trkpt lat="47.90369" lon="-1.71485">
        <ele>26</ele>
        <time>2015-06-07T06:48:04Z</time>
      </trkpt>
      <trkpt lat="47.90368" lon="-1.71483">
        <ele>26</ele>
        <time>2015-06-07T06:48:05Z</time>
      </trkpt>
      <trkpt lat="47.90367" lon="-1.71481">
        <ele>26</ele>
        <time>2015-06-07T06:48:06Z</time>
      </trkpt>
      <trkpt lat="47.90366" lon="-1.7148">
        <ele>26</ele>
        <time>2015-06-07T06:48:07Z</time>
      </trkpt>
      <trkpt lat="47.90366" lon="-1.71478">
        <ele>26</ele>
        <time>2015-06-07T06:48:08Z</time>
      </trkpt>
      <trkpt lat="47.90365" lon="-1.71475">
        <ele>26</ele>
        <time>2015-06-07T06:48:09Z</time>
      </trkpt>
      <trkpt lat="47.90364" lon="-1.71472">
        <ele>26</ele>
        <time>2015-06-07T06:48:10Z</time>
      </trkpt>
      <trkpt lat="47.90364" lon="-1.71469">
        <ele>26</ele>
        <time>2015-06-07T06:48:11Z</time>
      </trkpt>
      <trkpt lat="47.90363" lon="-1.71467">
        <ele>26</ele>
        <time>2015-06-07T06:48:12Z</time>
      </trkpt>
      <trkpt lat="47.90362" lon="-1.71465">
        <ele>26</ele>
        <time>2015-06-07T06:48:13Z</time>
      </trkpt>
      <trkpt lat="47.9036" lon="-1.71461">
        <ele>26</ele>
        <time>2015-06-07T06:48:14Z</time>
      </trkpt>
      <trkpt lat="47.90359" lon="-1.71458">
        <ele>26</ele>
        <time>2015-06-07T06:48:15Z</time>
      </trkpt>
      <trkpt lat="47.90358" lon="-1.71455">
        <ele>26</ele>
        <time>2015-06-07T06:48:16Z</time>
      </trkpt>
      <trkpt lat="47.90357" lon="-1.71452">
        <ele>26</ele>
        <time>2015-06-07T06:48:17Z</time>
      </trkpt>
      <trkpt lat="47.90355" lon="-1.71448">
        <ele>26</ele>
        <time>2015-06-07T06:48:18Z</time>
      </trkpt>
      <trkpt lat="47.90355" lon="-1.71446">
        <ele>26</ele>
        <time>2015-06-07T06:48:19Z</time>
      </trkpt>
      <trkpt lat="47.90354" lon="-1.71442">
        <ele>26</ele>
        <time>2015-06-07T06:48:20Z</time>
      </trkpt>
      <trkpt lat="47.90353" lon="-1.71439">
        <ele>26</ele>
        <time>2015-06-07T06:48:21Z</time>
      </trkpt>
      <trkpt lat="47.90352" lon="-1.71437">
        <ele>26</ele>
        <time>2015-06-07T06:48:22Z</time>
      </trkpt>
      <trkpt lat="47.90351" lon="-1.71434">
        <ele>26</ele>
        <time>2015-06-07T06:48:23Z</time>
      </trkpt>
      <trkpt lat="47.90349" lon="-1.71431">
        <ele>26</ele>
        <time>2015-06-07T06:48:24Z</time>
      </trkpt>
      <trkpt lat="47.90348" lon="-1.71427">
        <ele>26</ele>
        <time>2015-06-07T06:48:25Z</time>
      </trkpt>
      <trkpt lat="47.90347" lon="-1.71424">
        <ele>26</ele>
        <time>2015-06-07T06:48:26Z</time>
      </trkpt>
      <trkpt lat="47.90346" lon="-1.71422">
        <ele>26</ele>
        <time>2015-06-07T06:48:27Z</time>
      </trkpt>
      <trkpt lat="47.90344" lon="-1.71419">
        <ele>26</ele>
        <time>2015-06-07T06:48:28Z</time>
      </trkpt>
      <trkpt lat="47.90343" lon="-1.71417">
        <ele>25</ele>
        <time>2015-06-07T06:48:29Z</time>
      </trkpt>
      <trkpt lat="47.90342" lon="-1.71415">
        <ele>25</ele>
        <time>2015-06-07T06:48:30Z</time>
      </trkpt>
      <trkpt lat="47.9034" lon="-1.71413">
        <ele>25</ele>
        <time>2015-06-07T06:48:31Z</time>
      </trkpt>
      <trkpt lat="47.90339" lon="-1.71411">
        <ele>25</ele>
        <time>2015-06-07T06:48:32Z</time>
      </trkpt>
      <trkpt lat="47.90337" lon="-1.71409">
        <ele>25</ele>
        <time>2015-06-07T06:48:33Z</time>
      </trkpt>
      <trkpt lat="47.90337" lon="-1.71408">
        <ele>25</ele>
        <time>2015-06-07T06:48:34Z</time>
      </trkpt>
      <trkpt lat="47.90336" lon="-1.71407">
        <ele>25</ele>
        <time>2015-06-07T06:48:35Z</time>
      </trkpt>
      <trkpt lat="47.90335" lon="-1.71407">
        <ele>25</ele>
        <time>2015-06-07T06:48:36Z</time>
      </trkpt>
      <trkpt lat="47.90335" lon="-1.71406">
        <ele>25</ele>
        <time>2015-06-07T06:48:37Z</time>
      </trkpt>
      <trkpt lat="47.90334" lon="-1.71406">
        <ele>25</ele>
        <time>2015-06-07T06:48:38Z</time>
      </trkpt>
      <trkpt lat="47.90334" lon="-1.71405">
        <ele>25</ele>
        <time>2015-06-07T06:48:39Z</time>
      </trkpt>
      <trkpt lat="47.90333" lon="-1.71404">
        <ele>24</ele>
        <time>2015-06-07T06:48:40Z</time>
      </trkpt>
      <trkpt lat="47.90332" lon="-1.71403">
        <ele>24</ele>
        <time>2015-06-07T06:48:41Z</time>
      </trkpt>
      <trkpt lat="47.90331" lon="-1.71401">
        <ele>24</ele>
        <time>2015-06-07T06:48:42Z</time>
      </trkpt>
      <trkpt lat="47.9033" lon="-1.71399">
        <ele>24</ele>
        <time>2015-06-07T06:48:43Z</time>
      </trkpt>
      <trkpt lat="47.90329" lon="-1.71396">
        <ele>24</ele>
        <time>2015-06-07T06:48:44Z</time>
      </trkpt>
      <trkpt lat="47.90328" lon="-1.71393">
        <ele>24</ele>
        <time>2015-06-07T06:48:45Z</time>
      </trkpt>
      <trkpt lat="47.90327" lon="-1.7139">
        <ele>24</ele>
        <time>2015-06-07T06:48:46Z</time>
      </trkpt>
      <trkpt lat="47.90325" lon="-1.71386">
        <ele>24</ele>
        <time>2015-06-07T06:48:47Z</time>
      </trkpt>
      <trkpt lat="47.90324" lon="-1.71384">
        <ele>24</ele>
        <time>2015-06-07T06:48:48Z</time>
      </trkpt>
      <trkpt lat="47.90323" lon="-1.71381">
        <ele>24</ele>
        <time>2015-06-07T06:48:49Z</time>
      </trkpt>
      <trkpt lat="47.90322" lon="-1.7138">
        <ele>24</ele>
        <time>2015-06-07T06:48:50Z</time>
      </trkpt>
      <trkpt lat="47.90321" lon="-1.71377">
        <ele>24</ele>
        <time>2015-06-07T06:48:51Z</time>
      </trkpt>
      <trkpt lat="47.90319" lon="-1.71374">
        <ele>24</ele>
        <time>2015-06-07T06:48:52Z</time>
      </trkpt>
      <trkpt lat="47.90318" lon="-1.71371">
        <ele>24</ele>
        <time>2015-06-07T06:48:53Z</time>
      </trkpt>
      <trkpt lat="47.90316" lon="-1.71368">
        <ele>24</ele>
        <time>2015-06-07T06:48:54Z</time>
      </trkpt>
      <trkpt lat="47.90315" lon="-1.71366">
        <ele>24</ele>
        <time>2015-06-07T06:48:55Z</time>
      </trkpt>
      <trkpt lat="47.90314" lon="-1.71365">
        <ele>24</ele>
        <time>2015-06-07T06:48:56Z</time>
      </trkpt>
      <trkpt lat="47.90314" lon="-1.71365">
        <ele>24</ele>
        <time>2015-06-07T06:48:57Z</time>
      </trkpt>
      <trkpt lat="47.90313" lon="-1.71365">
        <ele>24</ele>
        <time>2015-06-07T06:48:58Z</time>
      </trkpt>
      <trkpt lat="47.90313" lon="-1.71364">
        <ele>24</ele>
        <time>2015-06-07T06:48:59Z</time>
      </trkpt>
      <trkpt lat="47.90312" lon="-1.71364">
        <ele>24</ele>
        <time>2015-06-07T06:49:00Z</time>
      </trkpt>
      <trkpt lat="47.90312" lon="-1.71363">
        <ele>24</ele>
        <time>2015-06-07T06:49:01Z</time>
      </trkpt>
      <trkpt lat="47.90311" lon="-1.71363">
        <ele>24</ele>
        <time>2015-06-07T06:49:02Z</time>
      </trkpt>
      <trkpt lat="47.90311" lon="-1.71362">
        <ele>24</ele>
        <time>2015-06-07T06:49:03Z</time>
      </trkpt>
      <trkpt lat="47.9031" lon="-1.71361">
        <ele>23</ele>
        <time>2015-06-07T06:49:04Z</time>
      </trkpt>
      <trkpt lat="47.9031" lon="-1.7136">
        <ele>23</ele>
        <time>2015-06-07T06:49:05Z</time>
      </trkpt>
      <trkpt lat="47.90309" lon="-1.71359">
        <ele>23</ele>
        <time>2015-06-07T06:49:06Z</time>
      </trkpt>
      <trkpt lat="47.90308" lon="-1.71358">
        <ele>23</ele>
        <time>2015-06-07T06:49:07Z</time>
      </trkpt>
      <trkpt lat="47.90308" lon="-1.71357">
        <ele>22</ele>
        <time>2015-06-07T06:49:08Z</time>
      </trkpt>
      <trkpt lat="47.90307" lon="-1.71355">
        <ele>22</ele>
        <time>2015-06-07T06:49:09Z</time>
      </trkpt>
      <trkpt lat="47.90307" lon="-1.71353">
        <ele>22</ele>
        <time>2015-06-07T06:49:10Z</time>
      </trkpt>
      <trkpt lat="47.90307" lon="-1.71352">
        <ele>22</ele>
        <time>2015-06-07T06:49:11Z</time>
      </trkpt>
      <trkpt lat="47.90306" lon="-1.71351">
        <ele>22</ele>
        <time>2015-06-07T06:49:12Z</time>
      </trkpt>
      <trkpt lat="47.90305" lon="-1.7135">
        <ele>22</ele>
        <time>2015-06-07T06:49:13Z</time>
      </trkpt>
      <trkpt lat="47.90305" lon="-1.71349">
        <ele>22</ele>
        <time>2015-06-07T06:49:14Z</time>
      </trkpt>
      <trkpt lat="47.90304" lon="-1.71349">
        <ele>22</ele>
        <time>2015-06-07T06:49:15Z</time>
      </trkpt>
      <trkpt lat="47.90303" lon="-1.71347">
        <ele>22</ele>
        <time>2015-06-07T06:49:16Z</time>
      </trkpt>
      <trkpt lat="47.90301" lon="-1.71344">
        <ele>22</ele>
        <time>2015-06-07T06:49:17Z</time>
      </trkpt>
      <trkpt lat="47.903" lon="-1.71342">
        <ele>21</ele>
        <time>2015-06-07T06:49:18Z</time>
      </trkpt>
      <trkpt lat="47.903" lon="-1.71339">
        <ele>21</ele>
        <time>2015-06-07T06:49:19Z</time>
      </trkpt>
      <trkpt lat="47.90299" lon="-1.71337">
        <ele>21</ele>
        <time>2015-06-07T06:49:20Z</time>
      </trkpt>
      <trkpt lat="47.90298" lon="-1.71334">
        <ele>21</ele>
        <time>2015-06-07T06:49:21Z</time>
      </trkpt>
      <trkpt lat="47.90296" lon="-1.71331">
        <ele>21</ele>
        <time>2015-06-07T06:49:22Z</time>
      </trkpt>
      <trkpt lat="47.90295" lon="-1.71327">
        <ele>21</ele>
        <time>2015-06-07T06:49:23Z</time>
      </trkpt>
      <trkpt lat="47.90293" lon="-1.71325">
        <ele>21</ele>
        <time>2015-06-07T06:49:24Z</time>
      </trkpt>
      <trkpt lat="47.90291" lon="-1.71322">
        <ele>21</ele>
        <time>2015-06-07T06:49:25Z</time>
      </trkpt>
      <trkpt lat="47.90289" lon="-1.71319">
        <ele>21</ele>
        <time>2015-06-07T06:49:26Z</time>
      </trkpt>
      <trkpt lat="47.90288" lon="-1.71316">
        <ele>21</ele>
        <time>2015-06-07T06:49:27Z</time>
      </trkpt>
      <trkpt lat="47.90286" lon="-1.71314">
        <ele>21</ele>
        <time>2015-06-07T06:49:28Z</time>
      </trkpt>
      <trkpt lat="47.90285" lon="-1.71311">
        <ele>21</ele>
        <time>2015-06-07T06:49:29Z</time>
      </trkpt>
      <trkpt lat="47.90284" lon="-1.71309">
        <ele>21</ele>
        <time>2015-06-07T06:49:30Z</time>
      </trkpt>
      <trkpt lat="47.90283" lon="-1.71308">
        <ele>21</ele>
        <time>2015-06-07T06:49:31Z</time>
      </trkpt>
      <trkpt lat="47.90282" lon="-1.71307">
        <ele>21</ele>
        <time>2015-06-07T06:49:32Z</time>
      </trkpt>
      <trkpt lat="47.90282" lon="-1.71305">
        <ele>21</ele>
        <time>2015-06-07T06:49:33Z</time>
      </trkpt>
      <trkpt lat="47.9028" lon="-1.71303">
        <ele>21</ele>
        <time>2015-06-07T06:49:34Z</time>
      </trkpt>
      <trkpt lat="47.90279" lon="-1.71301">
        <ele>21</ele>
        <time>2015-06-07T06:49:35Z</time>
      </trkpt>
      <trkpt lat="47.90279" lon="-1.71299">
        <ele>21</ele>
        <time>2015-06-07T06:49:36Z</time>
      </trkpt>
      <trkpt lat="47.90278" lon="-1.71297">
        <ele>21</ele>
        <time>2015-06-07T06:49:37Z</time>
      </trkpt>
      <trkpt lat="47.90276" lon="-1.71295">
        <ele>21</ele>
        <time>2015-06-07T06:49:38Z</time>
      </trkpt>
      <trkpt lat="47.90273" lon="-1.71293">
        <ele>21</ele>
        <time>2015-06-07T06:49:39Z</time>
      </trkpt>
      <trkpt lat="47.9027" lon="-1.71289">
        <ele>21</ele>
        <time>2015-06-07T06:49:40Z</time>
      </trkpt>
      <trkpt lat="47.90267" lon="-1.71284">
        <ele>21</ele>
        <time>2015-06-07T06:49:41Z</time>
      </trkpt>
      <trkpt lat="47.90265" lon="-1.71279">
        <ele>21</ele>
        <time>2015-06-07T06:49:42Z</time>
      </trkpt>
      <trkpt lat="47.90263" lon="-1.71276">
        <ele>21</ele>
        <time>2015-06-07T06:49:43Z</time>
      </trkpt>
      <trkpt lat="47.90262" lon="-1.71273">
        <ele>21</ele>
        <time>2015-06-07T06:49:44Z</time>
      </trkpt>
      <trkpt lat="47.9026" lon="-1.71272">
        <ele>21</ele>
        <time>2015-06-07T06:49:45Z</time>
      </trkpt>
      <trkpt lat="47.90258" lon="-1.71272">
        <ele>21</ele>
        <time>2015-06-07T06:49:46Z</time>
      </trkpt>
      <trkpt lat="47.90256" lon="-1.71272">
        <ele>21</ele>
        <time>2015-06-07T06:49:47Z</time>
      </trkpt>
      <trkpt lat="47.90254" lon="-1.71271">
        <ele>21</ele>
        <time>2015-06-07T06:49:48Z</time>
      </trkpt>
      <trkpt lat="47.90251" lon="-1.71271">
        <ele>21</ele>
        <time>2015-06-07T06:49:49Z</time>
      </trkpt>
      <trkpt lat="47.90248" lon="-1.71271">
        <ele>20</ele>
        <time>2015-06-07T06:49:50Z</time>
      </trkpt>
      <trkpt lat="47.90244" lon="-1.71271">
        <ele>20</ele>
        <time>2015-06-07T06:49:51Z</time>
      </trkpt>
      <trkpt lat="47.90241" lon="-1.71271">
        <ele>20</ele>
        <time>2015-06-07T06:49:52Z</time>
      </trkpt>
      <trkpt lat="47.90238" lon="-1.71271">
        <ele>20</ele>
        <time>2015-06-07T06:49:53Z</time>
      </trkpt>
      <trkpt lat="47.90234" lon="-1.71271">
        <ele>20</ele>
        <time>2015-06-07T06:49:54Z</time>
      </trkpt>
      <trkpt lat="47.90231" lon="-1.71269">
        <ele>20</ele>
        <time>2015-06-07T06:49:55Z</time>
      </trkpt>
      <trkpt lat="47.90228" lon="-1.71268">
        <ele>20</ele>
        <time>2015-06-07T06:49:56Z</time>
      </trkpt>
      <trkpt lat="47.90225" lon="-1.71266">
        <ele>20</ele>
        <time>2015-06-07T06:49:57Z</time>
      </trkpt>
      <trkpt lat="47.90222" lon="-1.71265">
        <ele>20</ele>
        <time>2015-06-07T06:49:58Z</time>
      </trkpt>
      <trkpt lat="47.90219" lon="-1.71263">
        <ele>20</ele>
        <time>2015-06-07T06:49:59Z</time>
      </trkpt>
      <trkpt lat="47.90215" lon="-1.71261">
        <ele>19</ele>
        <time>2015-06-07T06:50:00Z</time>
      </trkpt>
      <trkpt lat="47.90211" lon="-1.71259">
        <ele>19</ele>
        <time>2015-06-07T06:50:01Z</time>
      </trkpt>
      <trkpt lat="47.90207" lon="-1.71257">
        <ele>19</ele>
        <time>2015-06-07T06:50:02Z</time>
      </trkpt>
      <trkpt lat="47.90204" lon="-1.71256">
        <ele>19</ele>
        <time>2015-06-07T06:50:03Z</time>
      </trkpt>
      <trkpt lat="47.90202" lon="-1.71254">
        <ele>19</ele>
        <time>2015-06-07T06:50:04Z</time>
      </trkpt>
      <trkpt lat="47.90199" lon="-1.71252">
        <ele>19</ele>
        <time>2015-06-07T06:50:05Z</time>
      </trkpt>
      <trkpt lat="47.90196" lon="-1.71251">
        <ele>19</ele>
        <time>2015-06-07T06:50:06Z</time>
      </trkpt>
      <trkpt lat="47.90193" lon="-1.7125">
        <ele>19</ele>
        <time>2015-06-07T06:50:07Z</time>
      </trkpt>
      <trkpt lat="47.90189" lon="-1.71248">
        <ele>20</ele>
        <time>2015-06-07T06:50:08Z</time>
      </trkpt>
      <trkpt lat="47.90186" lon="-1.71246">
        <ele>20</ele>
        <time>2015-06-07T06:50:09Z</time>
      </trkpt>
      <trkpt lat="47.90183" lon="-1.71245">
        <ele>20</ele>
        <time>2015-06-07T06:50:10Z</time>
      </trkpt>
      <trkpt lat="47.9018" lon="-1.71244">
        <ele>20</ele>
        <time>2015-06-07T06:50:11Z</time>
      </trkpt>
      <trkpt lat="47.90176" lon="-1.71243">
        <ele>20</ele>
        <time>2015-06-07T06:50:12Z</time>
      </trkpt>
      <trkpt lat="47.90172" lon="-1.71242">
        <ele>20</ele>
        <time>2015-06-07T06:50:13Z</time>
      </trkpt>
      <trkpt lat="47.90168" lon="-1.71241">
        <ele>20</ele>
        <time>2015-06-07T06:50:14Z</time>
      </trkpt>
      <trkpt lat="47.90164" lon="-1.71239">
        <ele>20</ele>
        <time>2015-06-07T06:50:15Z</time>
      </trkpt>
      <trkpt lat="47.9016" lon="-1.71237">
        <ele>20</ele>
        <time>2015-06-07T06:50:16Z</time>
      </trkpt>
      <trkpt lat="47.90156" lon="-1.71234">
        <ele>20</ele>
        <time>2015-06-07T06:50:17Z</time>
      </trkpt>
      <trkpt lat="47.90152" lon="-1.7123">
        <ele>20</ele>
        <time>2015-06-07T06:50:18Z</time>
      </trkpt>
      <trkpt lat="47.90149" lon="-1.71227">
        <ele>20</ele>
        <time>2015-06-07T06:50:19Z</time>
      </trkpt>
      <trkpt lat="47.90147" lon="-1.71225">
        <ele>20</ele>
        <time>2015-06-07T06:50:20Z</time>
      </trkpt>
      <trkpt lat="47.90144" lon="-1.71223">
        <ele>20</ele>
        <time>2015-06-07T06:50:21Z</time>
      </trkpt>
      <trkpt lat="47.90142" lon="-1.7122">
        <ele>20</ele>
        <time>2015-06-07T06:50:22Z</time>
      </trkpt>
      <trkpt lat="47.90141" lon="-1.71219">
        <ele>20</ele>
        <time>2015-06-07T06:50:23Z</time>
      </trkpt>
      <trkpt lat="47.90139" lon="-1.71217">
        <ele>20</ele>
        <time>2015-06-07T06:50:24Z</time>
      </trkpt>
      <trkpt lat="47.90137" lon="-1.71216">
        <ele>20</ele>
        <time>2015-06-07T06:50:25Z</time>
      </trkpt>
      <trkpt lat="47.90136" lon="-1.71215">
        <ele>20</ele>
        <time>2015-06-07T06:50:26Z</time>
      </trkpt>
      <trkpt lat="47.90134" lon="-1.71213">
        <ele>21</ele>
        <time>2015-06-07T06:50:27Z</time>
      </trkpt>
      <trkpt lat="47.90133" lon="-1.71212">
        <ele>21</ele>
        <time>2015-06-07T06:50:28Z</time>
      </trkpt>
      <trkpt lat="47.90132" lon="-1.7121">
        <ele>21</ele>
        <time>2015-06-07T06:50:29Z</time>
      </trkpt>
      <trkpt lat="47.90131" lon="-1.71209">
        <ele>21</ele>
        <time>2015-06-07T06:50:30Z</time>
      </trkpt>
      <trkpt lat="47.90129" lon="-1.71208">
        <ele>22</ele>
        <time>2015-06-07T06:50:31Z</time>
      </trkpt>
      <trkpt lat="47.90128" lon="-1.71206">
        <ele>22</ele>
        <time>2015-06-07T06:50:32Z</time>
      </trkpt>
      <trkpt lat="47.90126" lon="-1.71204">
        <ele>22</ele>
        <time>2015-06-07T06:50:33Z</time>
      </trkpt>
      <trkpt lat="47.90125" lon="-1.71203">
        <ele>23</ele>
        <time>2015-06-07T06:50:34Z</time>
      </trkpt>
      <trkpt lat="47.90124" lon="-1.71202">
        <ele>23</ele>
        <time>2015-06-07T06:50:35Z</time>
      </trkpt>
      <trkpt lat="47.90122" lon="-1.712">
        <ele>23</ele>
        <time>2015-06-07T06:50:36Z</time>
      </trkpt>
      <trkpt lat="47.90121" lon="-1.71199">
        <ele>23</ele>
        <time>2015-06-07T06:50:37Z</time>
      </trkpt>
      <trkpt lat="47.90119" lon="-1.71197">
        <ele>24</ele>
        <time>2015-06-07T06:50:38Z</time>
      </trkpt>
      <trkpt lat="47.90117" lon="-1.71196">
        <ele>24</ele>
        <time>2015-06-07T06:50:39Z</time>
      </trkpt>
      <trkpt lat="47.90115" lon="-1.71194">
        <ele>24</ele>
        <time>2015-06-07T06:50:40Z</time>
      </trkpt>
      <trkpt lat="47.90114" lon="-1.71193">
        <ele>24</ele>
        <time>2015-06-07T06:50:41Z</time>
      </trkpt>
      <trkpt lat="47.90112" lon="-1.71192">
        <ele>25</ele>
        <time>2015-06-07T06:50:42Z</time>
      </trkpt>
      <trkpt lat="47.90111" lon="-1.7119">
        <ele>25</ele>
        <time>2015-06-07T06:50:43Z</time>
      </trkpt>
      <trkpt lat="47.9011" lon="-1.71189">
        <ele>25</ele>
        <time>2015-06-07T06:50:44Z</time>
      </trkpt>
      <trkpt lat="47.90109" lon="-1.71187">
        <ele>25</ele>
        <time>2015-06-07T06:50:45Z</time>
      </trkpt>
      <trkpt lat="47.90107" lon="-1.71185">
        <ele>26</ele>
        <time>2015-06-07T06:50:46Z</time>
      </trkpt>
      <trkpt lat="47.90106" lon="-1.71183">
        <ele>26</ele>
        <time>2015-06-07T06:50:47Z</time>
      </trkpt>
      <trkpt lat="47.90105" lon="-1.71182">
        <ele>26</ele>
        <time>2015-06-07T06:50:48Z</time>
      </trkpt>
      <trkpt lat="47.90103" lon="-1.7118">
        <ele>26</ele>
        <time>2015-06-07T06:50:49Z</time>
      </trkpt>
      <trkpt lat="47.90101" lon="-1.71179">
        <ele>27</ele>
        <time>2015-06-07T06:50:50Z</time>
      </trkpt>
      <trkpt lat="47.901" lon="-1.71177">
        <ele>27</ele>
        <time>2015-06-07T06:50:51Z</time>
      </trkpt>
      <trkpt lat="47.90099" lon="-1.71176">
        <ele>27</ele>
        <time>2015-06-07T06:50:52Z</time>
      </trkpt>
      <trkpt lat="47.90097" lon="-1.71175">
        <ele>28</ele>
        <time>2015-06-07T06:50:53Z</time>
      </trkpt>
      <trkpt lat="47.90095" lon="-1.71173">
        <ele>28</ele>
        <time>2015-06-07T06:50:54Z</time>
      </trkpt>
      <trkpt lat="47.90093" lon="-1.71172">
        <ele>28</ele>
        <time>2015-06-07T06:50:55Z</time>
      </trkpt>
      <trkpt lat="47.90091" lon="-1.71171">
        <ele>28</ele>
        <time>2015-06-07T06:50:56Z</time>
      </trkpt>
      <trkpt lat="47.90088" lon="-1.7117">
        <ele>28</ele>
        <time>2015-06-07T06:50:57Z</time>
      </trkpt>
      <trkpt lat="47.90086" lon="-1.71169">
        <ele>28</ele>
        <time>2015-06-07T06:50:58Z</time>
      </trkpt>
      <trkpt lat="47.90084" lon="-1.71168">
        <ele>28</ele>
        <time>2015-06-07T06:50:59Z</time>
      </trkpt>
      <trkpt lat="47.90082" lon="-1.71167">
        <ele>29</ele>
        <time>2015-06-07T06:51:00Z</time>
      </trkpt>
      <trkpt lat="47.9008" lon="-1.71167">
        <ele>29</ele>
        <time>2015-06-07T06:51:01Z</time>
      </trkpt>
      <trkpt lat="47.90078" lon="-1.71165">
        <ele>29</ele>
        <time>2015-06-07T06:51:02Z</time>
      </trkpt>
      <trkpt lat="47.90077" lon="-1.71164">
        <ele>29</ele>
        <time>2015-06-07T06:51:03Z</time>
      </trkpt>
      <trkpt lat="47.90075" lon="-1.71163">
        <ele>29</ele>
        <time>2015-06-07T06:51:04Z</time>
      </trkpt>
      <trkpt lat="47.90073" lon="-1.71162">
        <ele>29</ele>
        <time>2015-06-07T06:51:05Z</time>
      </trkpt>
      <trkpt lat="47.90071" lon="-1.71161">
        <ele>29</ele>
        <time>2015-06-07T06:51:06Z</time>
      </trkpt>
      <trkpt lat="47.90069" lon="-1.7116">
        <ele>29</ele>
        <time>2015-06-07T06:51:07Z</time>
      </trkpt>
      <trkpt lat="47.90068" lon="-1.71158">
        <ele>30</ele>
        <time>2015-06-07T06:51:08Z</time>
      </trkpt>
      <trkpt lat="47.90066" lon="-1.71155">
        <ele>30</ele>
        <time>2015-06-07T06:51:09Z</time>
      </trkpt>
      <trkpt lat="47.90065" lon="-1.71153">
        <ele>30</ele>
        <time>2015-06-07T06:51:10Z</time>
      </trkpt>
      <trkpt lat="47.90064" lon="-1.71151">
        <ele>30</ele>
        <time>2015-06-07T06:51:11Z</time>
      </trkpt>
      <trkpt lat="47.90063" lon="-1.71148">
        <ele>30</ele>
        <time>2015-06-07T06:51:12Z</time>
      </trkpt>
      <trkpt lat="47.90062" lon="-1.71146">
        <ele>31</ele>
        <time>2015-06-07T06:51:13Z</time>
      </trkpt>
      <trkpt lat="47.90061" lon="-1.71143">
        <ele>31</ele>
        <time>2015-06-07T06:51:14Z</time>
      </trkpt>
      <trkpt lat="47.9006" lon="-1.7114">
        <ele>31</ele>
        <time>2015-06-07T06:51:15Z</time>
      </trkpt>
      <trkpt lat="47.90059" lon="-1.71137">
        <ele>31</ele>
        <time>2015-06-07T06:51:16Z</time>
      </trkpt>
      <trkpt lat="47.90058" lon="-1.71134">
        <ele>32</ele>
        <time>2015-06-07T06:51:17Z</time>
      </trkpt>
      <trkpt lat="47.90058" lon="-1.71131">
        <ele>32</ele>
        <time>2015-06-07T06:51:18Z</time>
      </trkpt>
      <trkpt lat="47.90057" lon="-1.71128">
        <ele>32</ele>
        <time>2015-06-07T06:51:19Z</time>
      </trkpt>
      <trkpt lat="47.90056" lon="-1.71125">
        <ele>32</ele>
        <time>2015-06-07T06:51:20Z</time>
      </trkpt>
      <trkpt lat="47.90056" lon="-1.71122">
        <ele>32</ele>
        <time>2015-06-07T06:51:21Z</time>
      </trkpt>
      <trkpt lat="47.90055" lon="-1.7112">
        <ele>32</ele>
        <time>2015-06-07T06:51:22Z</time>
      </trkpt>
      <trkpt lat="47.90055" lon="-1.71118">
        <ele>33</ele>
        <time>2015-06-07T06:51:23Z</time>
      </trkpt>
      <trkpt lat="47.90054" lon="-1.71115">
        <ele>33</ele>
        <time>2015-06-07T06:51:24Z</time>
      </trkpt>
      <trkpt lat="47.90054" lon="-1.71112">
        <ele>33</ele>
        <time>2015-06-07T06:51:25Z</time>
      </trkpt>
      <trkpt lat="47.90053" lon="-1.71109">
        <ele>33</ele>
        <time>2015-06-07T06:51:26Z</time>
      </trkpt>
      <trkpt lat="47.90053" lon="-1.71106">
        <ele>33</ele>
        <time>2015-06-07T06:51:27Z</time>
      </trkpt>
      <trkpt lat="47.90052" lon="-1.71103">
        <ele>33</ele>
        <time>2015-06-07T06:51:28Z</time>
      </trkpt>
      <trkpt lat="47.90052" lon="-1.711">
        <ele>34</ele>
        <time>2015-06-07T06:51:29Z</time>
      </trkpt>
      <trkpt lat="47.90051" lon="-1.71097">
        <ele>34</ele>
        <time>2015-06-07T06:51:30Z</time>
      </trkpt>
      <trkpt lat="47.9005" lon="-1.71095">
        <ele>34</ele>
        <time>2015-06-07T06:51:31Z</time>
      </trkpt>
      <trkpt lat="47.90048" lon="-1.71093">
        <ele>34</ele>
        <time>2015-06-07T06:51:32Z</time>
      </trkpt>
      <trkpt lat="47.90046" lon="-1.71092">
        <ele>35</ele>
        <time>2015-06-07T06:51:33Z</time>
      </trkpt>
      <trkpt lat="47.90045" lon="-1.71092">
        <ele>35</ele>
        <time>2015-06-07T06:51:34Z</time>
      </trkpt>
      <trkpt lat="47.90042" lon="-1.71092">
        <ele>35</ele>
        <time>2015-06-07T06:51:35Z</time>
      </trkpt>
      <trkpt lat="47.90039" lon="-1.71093">
        <ele>35</ele>
        <time>2015-06-07T06:51:36Z</time>
      </trkpt>
      <trkpt lat="47.90036" lon="-1.71095">
        <ele>35</ele>
        <time>2015-06-07T06:51:37Z</time>
      </trkpt>
      <trkpt lat="47.90033" lon="-1.71096">
        <ele>36</ele>
        <time>2015-06-07T06:51:38Z</time>
      </trkpt>
      <trkpt lat="47.9003" lon="-1.71098">
        <ele>36</ele>
        <time>2015-06-07T06:51:39Z</time>
      </trkpt>
      <trkpt lat="47.90027" lon="-1.71099">
        <ele>36</ele>
        <time>2015-06-07T06:51:40Z</time>
      </trkpt>
      <trkpt lat="47.90024" lon="-1.71101">
        <ele>36</ele>
        <time>2015-06-07T06:51:41Z</time>
      </trkpt>
      <trkpt lat="47.9002" lon="-1.71102">
        <ele>36</ele>
        <time>2015-06-07T06:51:42Z</time>
      </trkpt>
      <trkpt lat="47.90017" lon="-1.71104">
        <ele>36</ele>
        <time>2015-06-07T06:51:43Z</time>
      </trkpt>
      <trkpt lat="47.90013" lon="-1.71105">
        <ele>36</ele>
        <time>2015-06-07T06:51:44Z</time>
      </trkpt>
      <trkpt lat="47.9001" lon="-1.71106">
        <ele>36</ele>
        <time>2015-06-07T06:51:45Z</time>
      </trkpt>
      <trkpt lat="47.90006" lon="-1.71108">
        <ele>36</ele>
        <time>2015-06-07T06:51:46Z</time>
      </trkpt>
      <trkpt lat="47.90003" lon="-1.71109">
        <ele>36</ele>
        <time>2015-06-07T06:51:47Z</time>
      </trkpt>
      <trkpt lat="47.9" lon="-1.7111">
        <ele>36</ele>
        <time>2015-06-07T06:51:48Z</time>
      </trkpt>
      <trkpt lat="47.89996" lon="-1.71111">
        <ele>36</ele>
        <time>2015-06-07T06:51:49Z</time>
      </trkpt>
      <trkpt lat="47.89993" lon="-1.71113">
        <ele>36</ele>
        <time>2015-06-07T06:51:50Z</time>
      </trkpt>
      <trkpt lat="47.89989" lon="-1.71114">
        <ele>36</ele>
        <time>2015-06-07T06:51:51Z</time>
      </trkpt>
      <trkpt lat="47.89986" lon="-1.71115">
        <ele>36</ele>
        <time>2015-06-07T06:51:52Z</time>
      </trkpt>
      <trkpt lat="47.89982" lon="-1.71117">
        <ele>36</ele>
        <time>2015-06-07T06:51:53Z</time>
      </trkpt>
      <trkpt lat="47.89977" lon="-1.71118">
        <ele>36</ele>
        <time>2015-06-07T06:51:54Z</time>
      </trkpt>
      <trkpt lat="47.89973" lon="-1.7112">
        <ele>36</ele>
        <time>2015-06-07T06:51:55Z</time>
      </trkpt>
      <trkpt lat="47.89968" lon="-1.71122">
        <ele>35</ele>
        <time>2015-06-07T06:51:56Z</time>
      </trkpt>
      <trkpt lat="47.89963" lon="-1.71124">
        <ele>35</ele>
        <time>2015-06-07T06:51:57Z</time>
      </trkpt>
      <trkpt lat="47.89957" lon="-1.71127">
        <ele>34</ele>
        <time>2015-06-07T06:51:58Z</time>
      </trkpt>
      <trkpt lat="47.89951" lon="-1.71129">
        <ele>34</ele>
        <time>2015-06-07T06:51:59Z</time>
      </trkpt>
      <trkpt lat="47.89944" lon="-1.71132">
        <ele>33</ele>
        <time>2015-06-07T06:52:00Z</time>
      </trkpt>
      <trkpt lat="47.89937" lon="-1.71134">
        <ele>32</ele>
        <time>2015-06-07T06:52:01Z</time>
      </trkpt>
      <trkpt lat="47.8993" lon="-1.71138">
        <ele>32</ele>
        <time>2015-06-07T06:52:02Z</time>
      </trkpt>
      <trkpt lat="47.89922" lon="-1.71141">
        <ele>31</ele>
        <time>2015-06-07T06:52:03Z</time>
      </trkpt>
      <trkpt lat="47.89913" lon="-1.71144">
        <ele>30</ele>
        <time>2015-06-07T06:52:04Z</time>
      </trkpt>
      <trkpt lat="47.89904" lon="-1.71147">
        <ele>29</ele>
        <time>2015-06-07T06:52:05Z</time>
      </trkpt>
      <trkpt lat="47.89895" lon="-1.71151">
        <ele>28</ele>
        <time>2015-06-07T06:52:06Z</time>
      </trkpt>
      <trkpt lat="47.89885" lon="-1.71155">
        <ele>27</ele>
        <time>2015-06-07T06:52:07Z</time>
      </trkpt>
      <trkpt lat="47.89875" lon="-1.71159">
        <ele>26</ele>
        <time>2015-06-07T06:52:08Z</time>
      </trkpt>
      <trkpt lat="47.89865" lon="-1.71163">
        <ele>25</ele>
        <time>2015-06-07T06:52:09Z</time>
      </trkpt>
      <trkpt lat="47.89855" lon="-1.71167">
        <ele>24</ele>
        <time>2015-06-07T06:52:10Z</time>
      </trkpt>
      <trkpt lat="47.89846" lon="-1.71171">
        <ele>23</ele>
        <time>2015-06-07T06:52:11Z</time>
      </trkpt>
      <trkpt lat="47.89838" lon="-1.71174">
        <ele>22</ele>
        <time>2015-06-07T06:52:12Z</time>
      </trkpt>
      <trkpt lat="47.89831" lon="-1.71177">
        <ele>22</ele>
        <time>2015-06-07T06:52:13Z</time>
      </trkpt>
      <trkpt lat="47.89825" lon="-1.7118">
        <ele>21</ele>
        <time>2015-06-07T06:52:14Z</time>
      </trkpt>
      <trkpt lat="47.89821" lon="-1.71184">
        <ele>20</ele>
        <time>2015-06-07T06:52:15Z</time>
      </trkpt>
      <trkpt lat="47.89818" lon="-1.7119">
        <ele>20</ele>
        <time>2015-06-07T06:52:16Z</time>
      </trkpt>
      <trkpt lat="47.89816" lon="-1.71198">
        <ele>19</ele>
        <time>2015-06-07T06:52:17Z</time>
      </trkpt>
      <trkpt lat="47.89817" lon="-1.71204">
        <ele>19</ele>
        <time>2015-06-07T06:52:18Z</time>
      </trkpt>
      <trkpt lat="47.89819" lon="-1.71211">
        <ele>18</ele>
        <time>2015-06-07T06:52:19Z</time>
      </trkpt>
      <trkpt lat="47.89822" lon="-1.71218">
        <ele>18</ele>
        <time>2015-06-07T06:52:20Z</time>
      </trkpt>
      <trkpt lat="47.89823" lon="-1.71226">
        <ele>18</ele>
        <time>2015-06-07T06:52:21Z</time>
      </trkpt>
      <trkpt lat="47.89824" lon="-1.71235">
        <ele>17</ele>
        <time>2015-06-07T06:52:22Z</time>
      </trkpt>
      <trkpt lat="47.89824" lon="-1.71243">
        <ele>17</ele>
        <time>2015-06-07T06:52:23Z</time>
      </trkpt>
      <trkpt lat="47.89824" lon="-1.71252">
        <ele>17</ele>
        <time>2015-06-07T06:52:24Z</time>
      </trkpt>
      <trkpt lat="47.89824" lon="-1.71262">
        <ele>17</ele>
        <time>2015-06-07T06:52:25Z</time>
      </trkpt>
      <trkpt lat="47.89824" lon="-1.71271">
        <ele>16</ele>
        <time>2015-06-07T06:52:26Z</time>
      </trkpt>
      <trkpt lat="47.89824" lon="-1.7128">
        <ele>16</ele>
        <time>2015-06-07T06:52:27Z</time>
      </trkpt>
      <trkpt lat="47.89824" lon="-1.7129">
        <ele>16</ele>
        <time>2015-06-07T06:52:28Z</time>
      </trkpt>
      <trkpt lat="47.89824" lon="-1.71299">
        <ele>16</ele>
        <time>2015-06-07T06:52:29Z</time>
      </trkpt>
      <trkpt lat="47.89825" lon="-1.71308">
        <ele>16</ele>
        <time>2015-06-07T06:52:30Z</time>
      </trkpt>
      <trkpt lat="47.89825" lon="-1.71318">
        <ele>15</ele>
        <time>2015-06-07T06:52:31Z</time>
      </trkpt>
      <trkpt lat="47.89825" lon="-1.71327">
        <ele>15</ele>
        <time>2015-06-07T06:52:32Z</time>
      </trkpt>
      <trkpt lat="47.89825" lon="-1.71337">
        <ele>15</ele>
        <time>2015-06-07T06:52:33Z</time>
      </trkpt>
      <trkpt lat="47.89825" lon="-1.71346">
        <ele>15</ele>
        <time>2015-06-07T06:52:34Z</time>
      </trkpt>
      <trkpt lat="47.89825" lon="-1.71354">
        <ele>15</ele>
        <time>2015-06-07T06:52:35Z</time>
      </trkpt>
      <trkpt lat="47.89825" lon="-1.7136">
        <ele>14</ele>
        <time>2015-06-07T06:52:36Z</time>
      </trkpt>
      <trkpt lat="47.89825" lon="-1.71365">
        <ele>14</ele>
        <time>2015-06-07T06:52:37Z</time>
      </trkpt>
      <trkpt lat="47.89826" lon="-1.71368">
        <ele>14</ele>
        <time>2015-06-07T06:52:38Z</time>
      </trkpt>
      <trkpt lat="47.89828" lon="-1.71372">
        <ele>14</ele>
        <time>2015-06-07T06:52:39Z</time>
      </trkpt>
      <trkpt lat="47.89829" lon="-1.71374">
        <ele>14</ele>
        <time>2015-06-07T06:52:40Z</time>
      </trkpt>
      <trkpt lat="47.89829" lon="-1.71375">
        <ele>13</ele>
        <time>2015-06-07T06:52:41Z</time>
      </trkpt>
      <trkpt lat="47.89831" lon="-1.71377">
        <ele>13</ele>
        <time>2015-06-07T06:52:42Z</time>
      </trkpt>
      <trkpt lat="47.89832" lon="-1.71377">
        <ele>13</ele>
        <time>2015-06-07T06:52:43Z</time>
      </trkpt>
      <trkpt lat="47.89833" lon="-1.71377">
        <ele>13</ele>
        <time>2015-06-07T06:52:44Z</time>
      </trkpt>
      <trkpt lat="47.89835" lon="-1.71377">
        <ele>13</ele>
        <time>2015-06-07T06:52:45Z</time>
      </trkpt>
      <trkpt lat="47.89836" lon="-1.71378">
        <ele>13</ele>
        <time>2015-06-07T06:52:46Z</time>
      </trkpt>
      <trkpt lat="47.89838" lon="-1.71378">
        <ele>13</ele>
        <time>2015-06-07T06:52:47Z</time>
      </trkpt>
      <trkpt lat="47.89838" lon="-1.71378">
        <ele>13</ele>
        <time>2015-06-07T06:52:48Z</time>
      </trkpt>
      <trkpt lat="47.89838" lon="-1.71379">
        <ele>13</ele>
        <time>2015-06-07T06:52:49Z</time>
      </trkpt>
      <trkpt lat="47.89839" lon="-1.7138">
        <ele>13</ele>
        <time>2015-06-07T06:52:50Z</time>
      </trkpt>
      <trkpt lat="47.89841" lon="-1.71381">
        <ele>13</ele>
        <time>2015-06-07T06:52:51Z</time>
      </trkpt>
      <trkpt lat="47.89842" lon="-1.71383">
        <ele>13</ele>
        <time>2015-06-07T06:52:52Z</time>
      </trkpt>
      <trkpt lat="47.89843" lon="-1.71384">
        <ele>13</ele>
        <time>2015-06-07T06:52:53Z</time>
      </trkpt>
      <trkpt lat="47.89845" lon="-1.71386">
        <ele>12</ele>
        <time>2015-06-07T06:52:54Z</time>
      </trkpt>
      <trkpt lat="47.89845" lon="-1.71388">
        <ele>12</ele>
        <time>2015-06-07T06:52:55Z</time>
      </trkpt>
      <trkpt lat="47.89846" lon="-1.71391">
        <ele>12</ele>
        <time>2015-06-07T06:52:56Z</time>
      </trkpt>
      <trkpt lat="47.89847" lon="-1.71393">
        <ele>12</ele>
        <time>2015-06-07T06:52:57Z</time>
      </trkpt>
      <trkpt lat="47.89848" lon="-1.71396">
        <ele>12</ele>
        <time>2015-06-07T06:52:58Z</time>
      </trkpt>
      <trkpt lat="47.89849" lon="-1.71398">
        <ele>12</ele>
        <time>2015-06-07T06:52:59Z</time>
      </trkpt>
      <trkpt lat="47.89849" lon="-1.714">
        <ele>12</ele>
        <time>2015-06-07T06:53:00Z</time>
      </trkpt>
      <trkpt lat="47.8985" lon="-1.71402">
        <ele>12</ele>
        <time>2015-06-07T06:53:01Z</time>
      </trkpt>
      <trkpt lat="47.89849" lon="-1.71405">
        <ele>13</ele>
        <time>2015-06-07T06:53:02Z</time>
      </trkpt>
      <trkpt lat="47.89849" lon="-1.71409">
        <ele>13</ele>
        <time>2015-06-07T06:53:03Z</time>
      </trkpt>
      <trkpt lat="47.89849" lon="-1.71412">
        <ele>13</ele>
        <time>2015-06-07T06:53:04Z</time>
      </trkpt>
      <trkpt lat="47.8985" lon="-1.71413">
        <ele>13</ele>
        <time>2015-06-07T06:53:05Z</time>
      </trkpt>
      <trkpt lat="47.89851" lon="-1.71414">
        <ele>14</ele>
        <time>2015-06-07T06:53:06Z</time>
      </trkpt>
      <trkpt lat="47.89853" lon="-1.71415">
        <ele>14</ele>
        <time>2015-06-07T06:53:07Z</time>
      </trkpt>
      <trkpt lat="47.89855" lon="-1.71416">
        <ele>14</ele>
        <time>2015-06-07T06:53:08Z</time>
      </trkpt>
      <trkpt lat="47.89858" lon="-1.71419">
        <ele>14</ele>
        <time>2015-06-07T06:53:09Z</time>
      </trkpt>
      <trkpt lat="47.8986" lon="-1.71421">
        <ele>14</ele>
        <time>2015-06-07T06:53:10Z</time>
      </trkpt>
      <trkpt lat="47.89862" lon="-1.71423">
        <ele>14</ele>
        <time>2015-06-07T06:53:11Z</time>
      </trkpt>
      <trkpt lat="47.89865" lon="-1.71424">
        <ele>14</ele>
        <time>2015-06-07T06:53:12Z</time>
      </trkpt>
      <trkpt lat="47.89867" lon="-1.71426">
        <ele>14</ele>
        <time>2015-06-07T06:53:13Z</time>
      </trkpt>
      <trkpt lat="47.89869" lon="-1.71427">
        <ele>14</ele>
        <time>2015-06-07T06:53:14Z</time>
      </trkpt>
      <trkpt lat="47.89872" lon="-1.71429">
        <ele>14</ele>
        <time>2015-06-07T06:53:15Z</time>
      </trkpt>
      <trkpt lat="47.89874" lon="-1.71431">
        <ele>14</ele>
        <time>2015-06-07T06:53:16Z</time>
      </trkpt>
      <trkpt lat="47.89876" lon="-1.71433">
        <ele>14</ele>
        <time>2015-06-07T06:53:17Z</time>
      </trkpt>
      <trkpt lat="47.89879" lon="-1.71434">
        <ele>14</ele>
        <time>2015-06-07T06:53:18Z</time>
      </trkpt>
      <trkpt lat="47.89881" lon="-1.71436">
        <ele>14</ele>
        <time>2015-06-07T06:53:19Z</time>
      </trkpt>
      <trkpt lat="47.89884" lon="-1.71438">
        <ele>14</ele>
        <time>2015-06-07T06:53:20Z</time>
      </trkpt>
      <trkpt lat="47.89886" lon="-1.7144">
        <ele>14</ele>
        <time>2015-06-07T06:53:21Z</time>
      </trkpt>
      <trkpt lat="47.89888" lon="-1.71442">
        <ele>14</ele>
        <time>2015-06-07T06:53:22Z</time>
      </trkpt>
      <trkpt lat="47.8989" lon="-1.71443">
        <ele>14</ele>
        <time>2015-06-07T06:53:23Z</time>
      </trkpt>
      <trkpt lat="47.89892" lon="-1.71446">
        <ele>14</ele>
        <time>2015-06-07T06:53:24Z</time>
      </trkpt>
      <trkpt lat="47.89895" lon="-1.71448">
        <ele>14</ele>
        <time>2015-06-07T06:53:25Z</time>
      </trkpt>
      <trkpt lat="47.89897" lon="-1.71451">
        <ele>14</ele>
        <time>2015-06-07T06:53:26Z</time>
      </trkpt>
      <trkpt lat="47.89898" lon="-1.71454">
        <ele>14</ele>
        <time>2015-06-07T06:53:27Z</time>
      </trkpt>
      <trkpt lat="47.89898" lon="-1.71458">
        <ele>14</ele>
        <time>2015-06-07T06:53:28Z</time>
      </trkpt>
      <trkpt lat="47.89899" lon="-1.71461">
        <ele>14</ele>
        <time>2015-06-07T06:53:29Z</time>
      </trkpt>
      <trkpt lat="47.89899" lon="-1.71465">
        <ele>14</ele>
        <time>2015-06-07T06:53:30Z</time>
      </trkpt>
      <trkpt lat="47.899" lon="-1.71469">
        <ele>14</ele>
        <time>2015-06-07T06:53:31Z</time>
      </trkpt>
      <trkpt lat="47.899" lon="-1.71472">
        <ele>14</ele>
        <time>2015-06-07T06:53:32Z</time>
      </trkpt>
      <trkpt lat="47.899" lon="-1.71475">
        <ele>14</ele>
        <time>2015-06-07T06:53:33Z</time>
      </trkpt>
      <trkpt lat="47.89899" lon="-1.71478">
        <ele>14</ele>
        <time>2015-06-07T06:53:34Z</time>
      </trkpt>
      <trkpt lat="47.89899" lon="-1.71481">
        <ele>15</ele>
        <time>2015-06-07T06:53:35Z</time>
      </trkpt>
      <trkpt lat="47.89899" lon="-1.71485">
        <ele>15</ele>
        <time>2015-06-07T06:53:36Z</time>
      </trkpt>
      <trkpt lat="47.89899" lon="-1.71488">
        <ele>15</ele>
        <time>2015-06-07T06:53:37Z</time>
      </trkpt>
      <trkpt lat="47.89899" lon="-1.71491">
        <ele>15</ele>
        <time>2015-06-07T06:53:38Z</time>
      </trkpt>
      <trkpt lat="47.89899" lon="-1.71494">
        <ele>15</ele>
        <time>2015-06-07T06:53:39Z</time>
      </trkpt>
      <trkpt lat="47.89899" lon="-1.71496">
        <ele>16</ele>
        <time>2015-06-07T06:53:40Z</time>
      </trkpt>
      <trkpt lat="47.89899" lon="-1.71498">
        <ele>16</ele>
        <time>2015-06-07T06:53:41Z</time>
      </trkpt>
      <trkpt lat="47.89898" lon="-1.71499">
        <ele>16</ele>
        <time>2015-06-07T06:53:42Z</time>
      </trkpt>
      <trkpt lat="47.89898" lon="-1.71498">
        <ele>16</ele>
        <time>2015-06-07T06:53:43Z</time>
      </trkpt>
      <trkpt lat="47.89897" lon="-1.71497">
        <ele>16</ele>
        <time>2015-06-07T06:53:44Z</time>
      </trkpt>
      <trkpt lat="47.89897" lon="-1.71496">
        <ele>17</ele>
        <time>2015-06-07T06:53:45Z</time>
      </trkpt>
      <trkpt lat="47.89897" lon="-1.71495">
        <ele>17</ele>
        <time>2015-06-07T06:53:46Z</time>
      </trkpt>
      <trkpt lat="47.89898" lon="-1.71494">
        <ele>17</ele>
        <time>2015-06-07T06:53:47Z</time>
      </trkpt>
      <trkpt lat="47.89899" lon="-1.71494">
        <ele>17</ele>
        <time>2015-06-07T06:53:48Z</time>
      </trkpt>
      <trkpt lat="47.899" lon="-1.71494">
        <ele>17</ele>
        <time>2015-06-07T06:53:49Z</time>
      </trkpt>
      <trkpt lat="47.89902" lon="-1.71495">
        <ele>17</ele>
        <time>2015-06-07T06:53:50Z</time>
      </trkpt>
      <trkpt lat="47.89904" lon="-1.71497">
        <ele>16</ele>
        <time>2015-06-07T06:53:51Z</time>
      </trkpt>
      <trkpt lat="47.89905" lon="-1.715">
        <ele>16</ele>
        <time>2015-06-07T06:53:52Z</time>
      </trkpt>
      <trkpt lat="47.89907" lon="-1.71502">
        <ele>16</ele>
        <time>2015-06-07T06:53:53Z</time>
      </trkpt>
      <trkpt lat="47.89908" lon="-1.71503">
        <ele>17</ele>
        <time>2015-06-07T06:53:54Z</time>
      </trkpt>
      <trkpt lat="47.8991" lon="-1.71504">
        <ele>17</ele>
        <time>2015-06-07T06:53:55Z</time>
      </trkpt>
      <trkpt lat="47.89911" lon="-1.71504">
        <ele>17</ele>
        <time>2015-06-07T06:53:56Z</time>
      </trkpt>
      <trkpt lat="47.89912" lon="-1.71505">
        <ele>17</ele>
        <time>2015-06-07T06:53:57Z</time>
      </trkpt>
      <trkpt lat="47.89913" lon="-1.71505">
        <ele>17</ele>
        <time>2015-06-07T06:53:58Z</time>
      </trkpt>
      <trkpt lat="47.89913" lon="-1.71506">
        <ele>17</ele>
        <time>2015-06-07T06:53:59Z</time>
      </trkpt>
      <trkpt lat="47.89913" lon="-1.71507">
        <ele>17</ele>
        <time>2015-06-07T06:54:00Z</time>
      </trkpt>
      <trkpt lat="47.89913" lon="-1.71508">
        <ele>17</ele>
        <time>2015-06-07T06:54:01Z</time>
      </trkpt>
      <trkpt lat="47.89914" lon="-1.7151">
        <ele>18</ele>
        <time>2015-06-07T06:54:02Z</time>
      </trkpt>
      <trkpt lat="47.89915" lon="-1.7151">
        <ele>18</ele>
        <time>2015-06-07T06:54:03Z</time>
      </trkpt>
      <trkpt lat="47.89916" lon="-1.71511">
        <ele>18</ele>
        <time>2015-06-07T06:54:04Z</time>
      </trkpt>
      <trkpt lat="47.89916" lon="-1.71511">
        <ele>18</ele>
        <time>2015-06-07T06:54:05Z</time>
      </trkpt>
      <trkpt lat="47.89916" lon="-1.71511">
        <ele>18</ele>
        <time>2015-06-07T06:54:06Z</time>
      </trkpt>
      <trkpt lat="47.89916" lon="-1.71511">
        <ele>18</ele>
        <time>2015-06-07T06:54:07Z</time>
      </trkpt>
      <trkpt lat="47.89917" lon="-1.71511">
        <ele>18</ele>
        <time>2015-06-07T06:54:08Z</time>
      </trkpt>
      <trkpt lat="47.89908" lon="-1.71506">
        <ele>19</ele>
        <time>2015-06-07T06:54:09Z</time>
      </trkpt>
      <trkpt lat="47.89905" lon="-1.71504">
        <ele>19</ele>
        <time>2015-06-07T06:54:10Z</time>
      </trkpt>
      <trkpt lat="47.89902" lon="-1.71502">
        <ele>19</ele>
        <time>2015-06-07T06:54:11Z</time>
      </trkpt>
      <trkpt lat="47.899" lon="-1.715">
        <ele>19</ele>
        <time>2015-06-07T06:54:12Z</time>
      </trkpt>
      <trkpt lat="47.89897" lon="-1.71498">
        <ele>20</ele>
        <time>2015-06-07T06:54:13Z</time>
      </trkpt>
      <trkpt lat="47.89894" lon="-1.71496">
        <ele>20</ele>
        <time>2015-06-07T06:54:14Z</time>
      </trkpt>
      <trkpt lat="47.89891" lon="-1.71495">
        <ele>20</ele>
        <time>2015-06-07T06:54:15Z</time>
      </trkpt>
      <trkpt lat="47.89887" lon="-1.71493">
        <ele>20</ele>
        <time>2015-06-07T06:54:16Z</time>
      </trkpt>
      <trkpt lat="47.89884" lon="-1.71492">
        <ele>20</ele>
        <time>2015-06-07T06:54:17Z</time>
      </trkpt>
      <trkpt lat="47.89881" lon="-1.71491">
        <ele>21</ele>
        <time>2015-06-07T06:54:18Z</time>
      </trkpt>
      <trkpt lat="47.89878" lon="-1.71491">
        <ele>21</ele>
        <time>2015-06-07T06:54:19Z</time>
      </trkpt>
      <trkpt lat="47.89874" lon="-1.71491">
        <ele>21</ele>
        <time>2015-06-07T06:54:20Z</time>
      </trkpt>
      <trkpt lat="47.89871" lon="-1.71492">
        <ele>21</ele>
        <time>2015-06-07T06:54:21Z</time>
      </trkpt>
      <trkpt lat="47.89868" lon="-1.71494">
        <ele>21</ele>
        <time>2015-06-07T06:54:22Z</time>
      </trkpt>
      <trkpt lat="47.89864" lon="-1.71496">
        <ele>22</ele>
        <time>2015-06-07T06:54:23Z</time>
      </trkpt>
      <trkpt lat="47.89861" lon="-1.71499">
        <ele>22</ele>
        <time>2015-06-07T06:54:24Z</time>
      </trkpt>
      <trkpt lat="47.89858" lon="-1.71502">
        <ele>22</ele>
        <time>2015-06-07T06:54:25Z</time>
      </trkpt>
      <trkpt lat="47.89855" lon="-1.71504">
        <ele>22</ele>
        <time>2015-06-07T06:54:26Z</time>
      </trkpt>
      <trkpt lat="47.89853" lon="-1.71506">
        <ele>23</ele>
        <time>2015-06-07T06:54:27Z</time>
      </trkpt>
      <trkpt lat="47.8985" lon="-1.71509">
        <ele>23</ele>
        <time>2015-06-07T06:54:28Z</time>
      </trkpt>
      <trkpt lat="47.89848" lon="-1.71512">
        <ele>23</ele>
        <time>2015-06-07T06:54:29Z</time>
      </trkpt>
      <trkpt lat="47.89845" lon="-1.71515">
        <ele>24</ele>
        <time>2015-06-07T06:54:30Z</time>
      </trkpt>
      <trkpt lat="47.89841" lon="-1.71518">
        <ele>24</ele>
        <time>2015-06-07T06:54:31Z</time>
      </trkpt>
      <trkpt lat="47.89838" lon="-1.7152">
        <ele>24</ele>
        <time>2015-06-07T06:54:32Z</time>
      </trkpt>
      <trkpt lat="47.89835" lon="-1.71523">
        <ele>25</ele>
        <time>2015-06-07T06:54:33Z</time>
      </trkpt>
      <trkpt lat="47.89832" lon="-1.71525">
        <ele>25</ele>
        <time>2015-06-07T06:54:34Z</time>
      </trkpt>
      <trkpt lat="47.8983" lon="-1.71527">
        <ele>25</ele>
        <time>2015-06-07T06:54:35Z</time>
      </trkpt>
      <trkpt lat="47.89827" lon="-1.71529">
        <ele>25</ele>
        <time>2015-06-07T06:54:36Z</time>
      </trkpt>
      <trkpt lat="47.89823" lon="-1.71532">
        <ele>26</ele>
        <time>2015-06-07T06:54:37Z</time>
      </trkpt>
      <trkpt lat="47.8982" lon="-1.71535">
        <ele>26</ele>
        <time>2015-06-07T06:54:38Z</time>
      </trkpt>
      <trkpt lat="47.89818" lon="-1.71538">
        <ele>26</ele>
        <time>2015-06-07T06:54:39Z</time>
      </trkpt>
      <trkpt lat="47.89814" lon="-1.71541">
        <ele>26</ele>
        <time>2015-06-07T06:54:40Z</time>
      </trkpt>
      <trkpt lat="47.89811" lon="-1.71544">
        <ele>26</ele>
        <time>2015-06-07T06:54:41Z</time>
      </trkpt>
      <trkpt lat="47.89808" lon="-1.71547">
        <ele>27</ele>
        <time>2015-06-07T06:54:42Z</time>
      </trkpt>
      <trkpt lat="47.89806" lon="-1.71549">
        <ele>27</ele>
        <time>2015-06-07T06:54:43Z</time>
      </trkpt>
      <trkpt lat="47.89803" lon="-1.71553">
        <ele>27</ele>
        <time>2015-06-07T06:54:44Z</time>
      </trkpt>
      <trkpt lat="47.898" lon="-1.71556">
        <ele>27</ele>
        <time>2015-06-07T06:54:45Z</time>
      </trkpt>
      <trkpt lat="47.89797" lon="-1.71558">
        <ele>28</ele>
        <time>2015-06-07T06:54:46Z</time>
      </trkpt>
      <trkpt lat="47.89795" lon="-1.71561">
        <ele>28</ele>
        <time>2015-06-07T06:54:47Z</time>
      </trkpt>
      <trkpt lat="47.89792" lon="-1.71564">
        <ele>28</ele>
        <time>2015-06-07T06:54:48Z</time>
      </trkpt>
      <trkpt lat="47.89789" lon="-1.71567">
        <ele>29</ele>
        <time>2015-06-07T06:54:49Z</time>
      </trkpt>
      <trkpt lat="47.89787" lon="-1.7157">
        <ele>29</ele>
        <time>2015-06-07T06:54:50Z</time>
      </trkpt>
      <trkpt lat="47.89785" lon="-1.71573">
        <ele>29</ele>
        <time>2015-06-07T06:54:51Z</time>
      </trkpt>
      <trkpt lat="47.89781" lon="-1.71577">
        <ele>29</ele>
        <time>2015-06-07T06:54:52Z</time>
      </trkpt>
      <trkpt lat="47.89777" lon="-1.71581">
        <ele>29</ele>
        <time>2015-06-07T06:54:53Z</time>
      </trkpt>
      <trkpt lat="47.89774" lon="-1.71584">
        <ele>29</ele>
        <time>2015-06-07T06:54:54Z</time>
      </trkpt>
      <trkpt lat="47.89769" lon="-1.71589">
        <ele>30</ele>
        <time>2015-06-07T06:54:55Z</time>
      </trkpt>
      <trkpt lat="47.89765" lon="-1.71592">
        <ele>30</ele>
        <time>2015-06-07T06:54:56Z</time>
      </trkpt>
      <trkpt lat="47.89762" lon="-1.71596">
        <ele>30</ele>
        <time>2015-06-07T06:54:57Z</time>
      </trkpt>
      <trkpt lat="47.89758" lon="-1.716">
        <ele>30</ele>
        <time>2015-06-07T06:54:58Z</time>
      </trkpt>
      <trkpt lat="47.89754" lon="-1.71603">
        <ele>30</ele>
        <time>2015-06-07T06:54:59Z</time>
      </trkpt>
      <trkpt lat="47.8975" lon="-1.71607">
        <ele>30</ele>
        <time>2015-06-07T06:55:00Z</time>
      </trkpt>
      <trkpt lat="47.89747" lon="-1.71611">
        <ele>30</ele>
        <time>2015-06-07T06:55:01Z</time>
      </trkpt>
      <trkpt lat="47.89743" lon="-1.71614">
        <ele>31</ele>
        <time>2015-06-07T06:55:02Z</time>
      </trkpt>
      <trkpt lat="47.8974" lon="-1.71618">
        <ele>31</ele>
        <time>2015-06-07T06:55:03Z</time>
      </trkpt>
      <trkpt lat="47.89736" lon="-1.71621">
        <ele>31</ele>
        <time>2015-06-07T06:55:04Z</time>
      </trkpt>
      <trkpt lat="47.89733" lon="-1.71625">
        <ele>31</ele>
        <time>2015-06-07T06:55:05Z</time>
      </trkpt>
      <trkpt lat="47.89729" lon="-1.71628">
        <ele>32</ele>
        <time>2015-06-07T06:55:06Z</time>
      </trkpt>
      <trkpt lat="47.89726" lon="-1.71632">
        <ele>32</ele>
        <time>2015-06-07T06:55:07Z</time>
      </trkpt>
      <trkpt lat="47.89722" lon="-1.71636">
        <ele>32</ele>
        <time>2015-06-07T06:55:08Z</time>
      </trkpt>
      <trkpt lat="47.89719" lon="-1.71639">
        <ele>32</ele>
        <time>2015-06-07T06:55:09Z</time>
      </trkpt>
      <trkpt lat="47.89717" lon="-1.71642">
        <ele>32</ele>
        <time>2015-06-07T06:55:10Z</time>
      </trkpt>
      <trkpt lat="47.89714" lon="-1.71646">
        <ele>33</ele>
        <time>2015-06-07T06:55:11Z</time>
      </trkpt>
      <trkpt lat="47.89712" lon="-1.71649">
        <ele>33</ele>
        <time>2015-06-07T06:55:12Z</time>
      </trkpt>
      <trkpt lat="47.8971" lon="-1.71652">
        <ele>33</ele>
        <time>2015-06-07T06:55:13Z</time>
      </trkpt>
      <trkpt lat="47.89708" lon="-1.71654">
        <ele>33</ele>
        <time>2015-06-07T06:55:14Z</time>
      </trkpt>
      <trkpt lat="47.89707" lon="-1.71655">
        <ele>33</ele>
        <time>2015-06-07T06:55:15Z</time>
      </trkpt>
      <trkpt lat="47.89706" lon="-1.71656">
        <ele>33</ele>
        <time>2015-06-07T06:55:16Z</time>
      </trkpt>
      <trkpt lat="47.89705" lon="-1.71657">
        <ele>33</ele>
        <time>2015-06-07T06:55:17Z</time>
      </trkpt>
      <trkpt lat="47.89704" lon="-1.71658">
        <ele>33</ele>
        <time>2015-06-07T06:55:18Z</time>
      </trkpt>
      <trkpt lat="47.89703" lon="-1.71657">
        <ele>34</ele>
        <time>2015-06-07T06:55:19Z</time>
      </trkpt>
      <trkpt lat="47.89703" lon="-1.71656">
        <ele>34</ele>
        <time>2015-06-07T06:55:20Z</time>
      </trkpt>
      <trkpt lat="47.89703" lon="-1.71655">
        <ele>34</ele>
        <time>2015-06-07T06:55:21Z</time>
      </trkpt>
      <trkpt lat="47.89702" lon="-1.71655">
        <ele>34</ele>
        <time>2015-06-07T06:55:22Z</time>
      </trkpt>
      <trkpt lat="47.89702" lon="-1.71653">
        <ele>34</ele>
        <time>2015-06-07T06:55:23Z</time>
      </trkpt>
      <trkpt lat="47.89702" lon="-1.71652">
        <ele>35</ele>
        <time>2015-06-07T06:55:24Z</time>
      </trkpt>
      <trkpt lat="47.89701" lon="-1.71649">
        <ele>35</ele>
        <time>2015-06-07T06:55:25Z</time>
      </trkpt>
      <trkpt lat="47.89701" lon="-1.71645">
        <ele>35</ele>
        <time>2015-06-07T06:55:26Z</time>
      </trkpt>
      <trkpt lat="47.89699" lon="-1.71641">
        <ele>35</ele>
        <time>2015-06-07T06:55:27Z</time>
      </trkpt>
      <trkpt lat="47.89697" lon="-1.71637">
        <ele>35</ele>
        <time>2015-06-07T06:55:28Z</time>
      </trkpt>
      <trkpt lat="47.89695" lon="-1.71632">
        <ele>35</ele>
        <time>2015-06-07T06:55:29Z</time>
      </trkpt>
      <trkpt lat="47.89693" lon="-1.71628">
        <ele>35</ele>
        <time>2015-06-07T06:55:30Z</time>
      </trkpt>
      <trkpt lat="47.89691" lon="-1.71624">
        <ele>35</ele>
        <time>2015-06-07T06:55:31Z</time>
      </trkpt>
      <trkpt lat="47.89689" lon="-1.7162">
        <ele>36</ele>
        <time>2015-06-07T06:55:32Z</time>
      </trkpt>
      <trkpt lat="47.89688" lon="-1.71617">
        <ele>36</ele>
        <time>2015-06-07T06:55:33Z</time>
      </trkpt>
      <trkpt lat="47.89686" lon="-1.71613">
        <ele>36</ele>
        <time>2015-06-07T06:55:34Z</time>
      </trkpt>
      <trkpt lat="47.89684" lon="-1.7161">
        <ele>36</ele>
        <time>2015-06-07T06:55:35Z</time>
      </trkpt>
      <trkpt lat="47.89681" lon="-1.71608">
        <ele>36</ele>
        <time>2015-06-07T06:55:36Z</time>
      </trkpt>
      <trkpt lat="47.89678" lon="-1.71606">
        <ele>36</ele>
        <time>2015-06-07T06:55:37Z</time>
      </trkpt>
      <trkpt lat="47.89675" lon="-1.71603">
        <ele>36</ele>
        <time>2015-06-07T06:55:38Z</time>
      </trkpt>
      <trkpt lat="47.89673" lon="-1.71601">
        <ele>36</ele>
        <time>2015-06-07T06:55:39Z</time>
      </trkpt>
      <trkpt lat="47.8967" lon="-1.716">
        <ele>36</ele>
        <time>2015-06-07T06:55:40Z</time>
      </trkpt>
      <trkpt lat="47.89667" lon="-1.71597">
        <ele>36</ele>
        <time>2015-06-07T06:55:41Z</time>
      </trkpt>
      <trkpt lat="47.89663" lon="-1.71595">
        <ele>37</ele>
        <time>2015-06-07T06:55:42Z</time>
      </trkpt>
      <trkpt lat="47.89659" lon="-1.71594">
        <ele>37</ele>
        <time>2015-06-07T06:55:43Z</time>
      </trkpt>
      <trkpt lat="47.89656" lon="-1.71593">
        <ele>37</ele>
        <time>2015-06-07T06:55:44Z</time>
      </trkpt>
      <trkpt lat="47.89652" lon="-1.71591">
        <ele>37</ele>
        <time>2015-06-07T06:55:45Z</time>
      </trkpt>
      <trkpt lat="47.89648" lon="-1.71589">
        <ele>37</ele>
        <time>2015-06-07T06:55:46Z</time>
      </trkpt>
      <trkpt lat="47.89644" lon="-1.71587">
        <ele>38</ele>
        <time>2015-06-07T06:55:47Z</time>
      </trkpt>
      <trkpt lat="47.8964" lon="-1.71584">
        <ele>38</ele>
        <time>2015-06-07T06:55:48Z</time>
      </trkpt>
      <trkpt lat="47.89636" lon="-1.71582">
        <ele>38</ele>
        <time>2015-06-07T06:55:49Z</time>
      </trkpt>
      <trkpt lat="47.89632" lon="-1.7158">
        <ele>38</ele>
        <time>2015-06-07T06:55:50Z</time>
      </trkpt>
      <trkpt lat="47.89628" lon="-1.71578">
        <ele>39</ele>
        <time>2015-06-07T06:55:51Z</time>
      </trkpt>
      <trkpt lat="47.89625" lon="-1.71576">
        <ele>39</ele>
        <time>2015-06-07T06:55:52Z</time>
      </trkpt>
      <trkpt lat="47.89623" lon="-1.71574">
        <ele>39</ele>
        <time>2015-06-07T06:55:53Z</time>
      </trkpt>
      <trkpt lat="47.89622" lon="-1.71571">
        <ele>39</ele>
        <time>2015-06-07T06:55:54Z</time>
      </trkpt>
      <trkpt lat="47.89622" lon="-1.71568">
        <ele>40</ele>
        <time>2015-06-07T06:55:55Z</time>
      </trkpt>
      <trkpt lat="47.89622" lon="-1.71565">
        <ele>40</ele>
        <time>2015-06-07T06:55:56Z</time>
      </trkpt>
      <trkpt lat="47.89623" lon="-1.71562">
        <ele>40</ele>
        <time>2015-06-07T06:55:57Z</time>
      </trkpt>
      <trkpt lat="47.89623" lon="-1.71559">
        <ele>40</ele>
        <time>2015-06-07T06:55:58Z</time>
      </trkpt>
      <trkpt lat="47.89623" lon="-1.71557">
        <ele>40</ele>
        <time>2015-06-07T06:55:59Z</time>
      </trkpt>
      <trkpt lat="47.89623" lon="-1.71555">
        <ele>40</ele>
        <time>2015-06-07T06:56:00Z</time>
      </trkpt>
      <trkpt lat="47.89623" lon="-1.71553">
        <ele>40</ele>
        <time>2015-06-07T06:56:01Z</time>
      </trkpt>
      <trkpt lat="47.89622" lon="-1.71551">
        <ele>40</ele>
        <time>2015-06-07T06:56:02Z</time>
      </trkpt>
      <trkpt lat="47.89621" lon="-1.71547">
        <ele>40</ele>
        <time>2015-06-07T06:56:03Z</time>
      </trkpt>
      <trkpt lat="47.8962" lon="-1.71544">
        <ele>40</ele>
        <time>2015-06-07T06:56:04Z</time>
      </trkpt>
      <trkpt lat="47.89619" lon="-1.7154">
        <ele>40</ele>
        <time>2015-06-07T06:56:05Z</time>
      </trkpt>
      <trkpt lat="47.89618" lon="-1.71535">
        <ele>40</ele>
        <time>2015-06-07T06:56:06Z</time>
      </trkpt>
      <trkpt lat="47.89617" lon="-1.71531">
        <ele>40</ele>
        <time>2015-06-07T06:56:07Z</time>
      </trkpt>
      <trkpt lat="47.89616" lon="-1.71525">
        <ele>39</ele>
        <time>2015-06-07T06:56:08Z</time>
      </trkpt>
      <trkpt lat="47.89615" lon="-1.7152">
        <ele>39</ele>
        <time>2015-06-07T06:56:09Z</time>
      </trkpt>
      <trkpt lat="47.89615" lon="-1.71514">
        <ele>39</ele>
        <time>2015-06-07T06:56:10Z</time>
      </trkpt>
      <trkpt lat="47.89614" lon="-1.7151">
        <ele>38</ele>
        <time>2015-06-07T06:56:11Z</time>
      </trkpt>
      <trkpt lat="47.89613" lon="-1.71508">
        <ele>38</ele>
        <time>2015-06-07T06:56:12Z</time>
      </trkpt>
      <trkpt lat="47.89611" lon="-1.71507">
        <ele>38</ele>
        <time>2015-06-07T06:56:13Z</time>
      </trkpt>
      <trkpt lat="47.89608" lon="-1.71506">
        <ele>38</ele>
        <time>2015-06-07T06:56:14Z</time>
      </trkpt>
      <trkpt lat="47.89605" lon="-1.71506">
        <ele>38</ele>
        <time>2015-06-07T06:56:15Z</time>
      </trkpt>
      <trkpt lat="47.89602" lon="-1.71506">
        <ele>37</ele>
        <time>2015-06-07T06:56:16Z</time>
      </trkpt>
      <trkpt lat="47.89598" lon="-1.71505">
        <ele>37</ele>
        <time>2015-06-07T06:56:17Z</time>
      </trkpt>
      <trkpt lat="47.89593" lon="-1.71505">
        <ele>37</ele>
        <time>2015-06-07T06:56:18Z</time>
      </trkpt>
      <trkpt lat="47.89589" lon="-1.71504">
        <ele>37</ele>
        <time>2015-06-07T06:56:19Z</time>
      </trkpt>
      <trkpt lat="47.89585" lon="-1.71503">
        <ele>36</ele>
        <time>2015-06-07T06:56:20Z</time>
      </trkpt>
      <trkpt lat="47.8958" lon="-1.71502">
        <ele>36</ele>
        <time>2015-06-07T06:56:21Z</time>
      </trkpt>
      <trkpt lat="47.89575" lon="-1.71501">
        <ele>36</ele>
        <time>2015-06-07T06:56:22Z</time>
      </trkpt>
      <trkpt lat="47.8957" lon="-1.71502">
        <ele>35</ele>
        <time>2015-06-07T06:56:23Z</time>
      </trkpt>
      <trkpt lat="47.89566" lon="-1.71503">
        <ele>35</ele>
        <time>2015-06-07T06:56:24Z</time>
      </trkpt>
      <trkpt lat="47.89562" lon="-1.71506">
        <ele>34</ele>
        <time>2015-06-07T06:56:25Z</time>
      </trkpt>
      <trkpt lat="47.89558" lon="-1.71509">
        <ele>34</ele>
        <time>2015-06-07T06:56:26Z</time>
      </trkpt>
      <trkpt lat="47.89555" lon="-1.71512">
        <ele>33</ele>
        <time>2015-06-07T06:56:27Z</time>
      </trkpt>
      <trkpt lat="47.89552" lon="-1.71515">
        <ele>33</ele>
        <time>2015-06-07T06:56:28Z</time>
      </trkpt>
      <trkpt lat="47.89549" lon="-1.71518">
        <ele>32</ele>
        <time>2015-06-07T06:56:29Z</time>
      </trkpt>
      <trkpt lat="47.89546" lon="-1.71521">
        <ele>32</ele>
        <time>2015-06-07T06:56:30Z</time>
      </trkpt>
      <trkpt lat="47.89544" lon="-1.71525">
        <ele>31</ele>
        <time>2015-06-07T06:56:31Z</time>
      </trkpt>
      <trkpt lat="47.89541" lon="-1.71528">
        <ele>31</ele>
        <time>2015-06-07T06:56:32Z</time>
      </trkpt>
      <trkpt lat="47.89539" lon="-1.71532">
        <ele>30</ele>
        <time>2015-06-07T06:56:33Z</time>
      </trkpt>
      <trkpt lat="47.89537" lon="-1.71535">
        <ele>30</ele>
        <time>2015-06-07T06:56:34Z</time>
      </trkpt>
      <trkpt lat="47.89534" lon="-1.71538">
        <ele>29</ele>
        <time>2015-06-07T06:56:35Z</time>
      </trkpt>
      <trkpt lat="47.89531" lon="-1.7154">
        <ele>29</ele>
        <time>2015-06-07T06:56:36Z</time>
      </trkpt>
      <trkpt lat="47.89529" lon="-1.71541">
        <ele>28</ele>
        <time>2015-06-07T06:56:37Z</time>
      </trkpt>
      <trkpt lat="47.89526" lon="-1.71543">
        <ele>28</ele>
        <time>2015-06-07T06:56:38Z</time>
      </trkpt>
      <trkpt lat="47.89524" lon="-1.71545">
        <ele>28</ele>
        <time>2015-06-07T06:56:39Z</time>
      </trkpt>
      <trkpt lat="47.89523" lon="-1.71545">
        <ele>27</ele>
        <time>2015-06-07T06:56:40Z</time>
      </trkpt>
      <trkpt lat="47.89521" lon="-1.71545">
        <ele>27</ele>
        <time>2015-06-07T06:56:41Z</time>
      </trkpt>
      <trkpt lat="47.8952" lon="-1.71544">
        <ele>27</ele>
        <time>2015-06-07T06:56:42Z</time>
      </trkpt>
      <trkpt lat="47.89518" lon="-1.71543">
        <ele>26</ele>
        <time>2015-06-07T06:56:43Z</time>
      </trkpt>
      <trkpt lat="47.89515" lon="-1.71543">
        <ele>26</ele>
        <time>2015-06-07T06:56:44Z</time>
      </trkpt>
      <trkpt lat="47.89512" lon="-1.71542">
        <ele>26</ele>
        <time>2015-06-07T06:56:45Z</time>
      </trkpt>
      <trkpt lat="47.89509" lon="-1.71541">
        <ele>26</ele>
        <time>2015-06-07T06:56:46Z</time>
      </trkpt>
      <trkpt lat="47.89507" lon="-1.7154">
        <ele>26</ele>
        <time>2015-06-07T06:56:47Z</time>
      </trkpt>
      <trkpt lat="47.89505" lon="-1.71536">
        <ele>25</ele>
        <time>2015-06-07T06:56:48Z</time>
      </trkpt>
      <trkpt lat="47.89503" lon="-1.71533">
        <ele>25</ele>
        <time>2015-06-07T06:56:49Z</time>
      </trkpt>
      <trkpt lat="47.89501" lon="-1.71533">
        <ele>25</ele>
        <time>2015-06-07T06:56:50Z</time>
      </trkpt>
      <trkpt lat="47.89498" lon="-1.71534">
        <ele>25</ele>
        <time>2015-06-07T06:56:51Z</time>
      </trkpt>
      <trkpt lat="47.89497" lon="-1.71535">
        <ele>25</ele>
        <time>2015-06-07T06:56:52Z</time>
      </trkpt>
      <trkpt lat="47.89495" lon="-1.71536">
        <ele>25</ele>
        <time>2015-06-07T06:56:53Z</time>
      </trkpt>
      <trkpt lat="47.89494" lon="-1.71536">
        <ele>25</ele>
        <time>2015-06-07T06:56:54Z</time>
      </trkpt>
      <trkpt lat="47.89494" lon="-1.71537">
        <ele>24</ele>
        <time>2015-06-07T06:56:55Z</time>
      </trkpt>
      <trkpt lat="47.89493" lon="-1.71537">
        <ele>24</ele>
        <time>2015-06-07T06:56:56Z</time>
      </trkpt>
      <trkpt lat="47.89492" lon="-1.71538">
        <ele>24</ele>
        <time>2015-06-07T06:56:57Z</time>
      </trkpt>
      <trkpt lat="47.89491" lon="-1.71538">
        <ele>24</ele>
        <time>2015-06-07T06:56:58Z</time>
      </trkpt>
      <trkpt lat="47.8949" lon="-1.71538">
        <ele>24</ele>
        <time>2015-06-07T06:56:59Z</time>
      </trkpt>
      <trkpt lat="47.89488" lon="-1.71538">
        <ele>24</ele>
        <time>2015-06-07T06:57:00Z</time>
      </trkpt>
      <trkpt lat="47.89487" lon="-1.71539">
        <ele>24</ele>
        <time>2015-06-07T06:57:01Z</time>
      </trkpt>
      <trkpt lat="47.89486" lon="-1.7154">
        <ele>24</ele>
        <time>2015-06-07T06:57:02Z</time>
      </trkpt>
      <trkpt lat="47.89485" lon="-1.71541">
        <ele>24</ele>
        <time>2015-06-07T06:57:03Z</time>
      </trkpt>
      <trkpt lat="47.89484" lon="-1.71542">
        <ele>24</ele>
        <time>2015-06-07T06:57:04Z</time>
      </trkpt>
      <trkpt lat="47.89483" lon="-1.71543">
        <ele>24</ele>
        <time>2015-06-07T06:57:05Z</time>
      </trkpt>
      <trkpt lat="47.89482" lon="-1.71544">
        <ele>24</ele>
        <time>2015-06-07T06:57:06Z</time>
      </trkpt>
      <trkpt lat="47.8948" lon="-1.71545">
        <ele>24</ele>
        <time>2015-06-07T06:57:07Z</time>
      </trkpt>
      <trkpt lat="47.89478" lon="-1.71545">
        <ele>24</ele>
        <time>2015-06-07T06:57:08Z</time>
      </trkpt>
      <trkpt lat="47.89475" lon="-1.71543">
        <ele>24</ele>
        <time>2015-06-07T06:57:09Z</time>
      </trkpt>
      <trkpt lat="47.89473" lon="-1.71541">
        <ele>24</ele>
        <time>2015-06-07T06:57:10Z</time>
      </trkpt>
      <trkpt lat="47.8947" lon="-1.7154">
        <ele>24</ele>
        <time>2015-06-07T06:57:11Z</time>
      </trkpt>
      <trkpt lat="47.89468" lon="-1.71537">
        <ele>24</ele>
        <time>2015-06-07T06:57:12Z</time>
      </trkpt>
      <trkpt lat="47.89465" lon="-1.71533">
        <ele>24</ele>
        <time>2015-06-07T06:57:13Z</time>
      </trkpt>
      <trkpt lat="47.89461" lon="-1.71531">
        <ele>24</ele>
        <time>2015-06-07T06:57:14Z</time>
      </trkpt>
      <trkpt lat="47.89458" lon="-1.71529">
        <ele>24</ele>
        <time>2015-06-07T06:57:15Z</time>
      </trkpt>
      <trkpt lat="47.89455" lon="-1.71527">
        <ele>24</ele>
        <time>2015-06-07T06:57:16Z</time>
      </trkpt>
      <trkpt lat="47.89451" lon="-1.71523">
        <ele>24</ele>
        <time>2015-06-07T06:57:17Z</time>
      </trkpt>
      <trkpt lat="47.89447" lon="-1.71518">
        <ele>24</ele>
        <time>2015-06-07T06:57:18Z</time>
      </trkpt>
      <trkpt lat="47.89442" lon="-1.71515">
        <ele>24</ele>
        <time>2015-06-07T06:57:19Z</time>
      </trkpt>
      <trkpt lat="47.89437" lon="-1.71514">
        <ele>24</ele>
        <time>2015-06-07T06:57:20Z</time>
      </trkpt>
      <trkpt lat="47.89431" lon="-1.71513">
        <ele>24</ele>
        <time>2015-06-07T06:57:21Z</time>
      </trkpt>
      <trkpt lat="47.89426" lon="-1.71514">
        <ele>24</ele>
        <time>2015-06-07T06:57:22Z</time>
      </trkpt>
      <trkpt lat="47.8942" lon="-1.71515">
        <ele>24</ele>
        <time>2015-06-07T06:57:23Z</time>
      </trkpt>
      <trkpt lat="47.89415" lon="-1.71516">
        <ele>24</ele>
        <time>2015-06-07T06:57:24Z</time>
      </trkpt>
      <trkpt lat="47.8941" lon="-1.71517">
        <ele>24</ele>
        <time>2015-06-07T06:57:25Z</time>
      </trkpt>
      <trkpt lat="47.89406" lon="-1.71518">
        <ele>24</ele>
        <time>2015-06-07T06:57:26Z</time>
      </trkpt>
      <trkpt lat="47.89402" lon="-1.71517">
        <ele>24</ele>
        <time>2015-06-07T06:57:27Z</time>
      </trkpt>
      <trkpt lat="47.894" lon="-1.71514">
        <ele>24</ele>
        <time>2015-06-07T06:57:28Z</time>
      </trkpt>
      <trkpt lat="47.89397" lon="-1.71512">
        <ele>24</ele>
        <time>2015-06-07T06:57:29Z</time>
      </trkpt>
      <trkpt lat="47.89393" lon="-1.7151">
        <ele>24</ele>
        <time>2015-06-07T06:57:30Z</time>
      </trkpt>
      <trkpt lat="47.89389" lon="-1.71509">
        <ele>24</ele>
        <time>2015-06-07T06:57:31Z</time>
      </trkpt>
      <trkpt lat="47.89385" lon="-1.71506">
        <ele>24</ele>
        <time>2015-06-07T06:57:32Z</time>
      </trkpt>
      <trkpt lat="47.89381" lon="-1.71503">
        <ele>24</ele>
        <time>2015-06-07T06:57:33Z</time>
      </trkpt>
      <trkpt lat="47.89378" lon="-1.71501">
        <ele>24</ele>
        <time>2015-06-07T06:57:34Z</time>
      </trkpt>
      <trkpt lat="47.89374" lon="-1.71501">
        <ele>24</ele>
        <time>2015-06-07T06:57:35Z</time>
      </trkpt>
      <trkpt lat="47.89371" lon="-1.71501">
        <ele>24</ele>
        <time>2015-06-07T06:57:36Z</time>
      </trkpt>
      <trkpt lat="47.89368" lon="-1.71502">
        <ele>24</ele>
        <time>2015-06-07T06:57:37Z</time>
      </trkpt>
      <trkpt lat="47.89365" lon="-1.71503">
        <ele>24</ele>
        <time>2015-06-07T06:57:38Z</time>
      </trkpt>
      <trkpt lat="47.89361" lon="-1.71504">
        <ele>24</ele>
        <time>2015-06-07T06:57:39Z</time>
      </trkpt>
      <trkpt lat="47.89358" lon="-1.71505">
        <ele>24</ele>
        <time>2015-06-07T06:57:40Z</time>
      </trkpt>
      <trkpt lat="47.89354" lon="-1.71505">
        <ele>24</ele>
        <time>2015-06-07T06:57:41Z</time>
      </trkpt>
      <trkpt lat="47.89349" lon="-1.71505">
        <ele>24</ele>
        <time>2015-06-07T06:57:42Z</time>
      </trkpt>
      <trkpt lat="47.89343" lon="-1.71505">
        <ele>24</ele>
        <time>2015-06-07T06:57:43Z</time>
      </trkpt>
      <trkpt lat="47.89339" lon="-1.71505">
        <ele>24</ele>
        <time>2015-06-07T06:57:44Z</time>
      </trkpt>
      <trkpt lat="47.89335" lon="-1.71505">
        <ele>24</ele>
        <time>2015-06-07T06:57:45Z</time>
      </trkpt>
      <trkpt lat="47.8933" lon="-1.71504">
        <ele>24</ele>
        <time>2015-06-07T06:57:46Z</time>
      </trkpt>
      <trkpt lat="47.89326" lon="-1.71502">
        <ele>24</ele>
        <time>2015-06-07T06:57:47Z</time>
      </trkpt>
      <trkpt lat="47.89322" lon="-1.71501">
        <ele>24</ele>
        <time>2015-06-07T06:57:48Z</time>
      </trkpt>
      <trkpt lat="47.89318" lon="-1.715">
        <ele>24</ele>
        <time>2015-06-07T06:57:49Z</time>
      </trkpt>
      <trkpt lat="47.89313" lon="-1.715">
        <ele>24</ele>
        <time>2015-06-07T06:57:50Z</time>
      </trkpt>
      <trkpt lat="47.89309" lon="-1.715">
        <ele>24</ele>
        <time>2015-06-07T06:57:51Z</time>
      </trkpt>
      <trkpt lat="47.89306" lon="-1.71501">
        <ele>24</ele>
        <time>2015-06-07T06:57:52Z</time>
      </trkpt>
      <trkpt lat="47.89302" lon="-1.715">
        <ele>24</ele>
        <time>2015-06-07T06:57:53Z</time>
      </trkpt>
      <trkpt lat="47.89298" lon="-1.71499">
        <ele>24</ele>
        <time>2015-06-07T06:57:54Z</time>
      </trkpt>
      <trkpt lat="47.89295" lon="-1.71499">
        <ele>23</ele>
        <time>2015-06-07T06:57:55Z</time>
      </trkpt>
      <trkpt lat="47.89293" lon="-1.71499">
        <ele>23</ele>
        <time>2015-06-07T06:57:56Z</time>
      </trkpt>
      <trkpt lat="47.89292" lon="-1.71499">
        <ele>24</ele>
        <time>2015-06-07T06:57:57Z</time>
      </trkpt>
      <trkpt lat="47.89291" lon="-1.715">
        <ele>24</ele>
        <time>2015-06-07T06:57:58Z</time>
      </trkpt>
      <trkpt lat="47.89289" lon="-1.71502">
        <ele>24</ele>
        <time>2015-06-07T06:57:59Z</time>
      </trkpt>
      <trkpt lat="47.89287" lon="-1.71503">
        <ele>24</ele>
        <time>2015-06-07T06:58:00Z</time>
      </trkpt>
      <trkpt lat="47.89285" lon="-1.71504">
        <ele>24</ele>
        <time>2015-06-07T06:58:01Z</time>
      </trkpt>
      <trkpt lat="47.89284" lon="-1.71505">
        <ele>24</ele>
        <time>2015-06-07T06:58:02Z</time>
      </trkpt>
      <trkpt lat="47.89282" lon="-1.71506">
        <ele>24</ele>
        <time>2015-06-07T06:58:03Z</time>
      </trkpt>
      <trkpt lat="47.8928" lon="-1.71506">
        <ele>24</ele>
        <time>2015-06-07T06:58:04Z</time>
      </trkpt>
      <trkpt lat="47.89278" lon="-1.71507">
        <ele>24</ele>
        <time>2015-06-07T06:58:05Z</time>
      </trkpt>
      <trkpt lat="47.89275" lon="-1.71508">
        <ele>24</ele>
        <time>2015-06-07T06:58:06Z</time>
      </trkpt>
      <trkpt lat="47.89274" lon="-1.71508">
        <ele>24</ele>
        <time>2015-06-07T06:58:07Z</time>
      </trkpt>
      <trkpt lat="47.89272" lon="-1.71508">
        <ele>23</ele>
        <time>2015-06-07T06:58:08Z</time>
      </trkpt>
      <trkpt lat="47.8927" lon="-1.71508">
        <ele>23</ele>
        <time>2015-06-07T06:58:09Z</time>
      </trkpt>
      <trkpt lat="47.89268" lon="-1.71507">
        <ele>23</ele>
        <time>2015-06-07T06:58:10Z</time>
      </trkpt>
      <trkpt lat="47.89266" lon="-1.71506">
        <ele>23</ele>
        <time>2015-06-07T06:58:11Z</time>
      </trkpt>
      <trkpt lat="47.89263" lon="-1.71505">
        <ele>23</ele>
        <time>2015-06-07T06:58:12Z</time>
      </trkpt>
      <trkpt lat="47.89261" lon="-1.71505">
        <ele>23</ele>
        <time>2015-06-07T06:58:13Z</time>
      </trkpt>
      <trkpt lat="47.89258" lon="-1.71504">
        <ele>23</ele>
        <time>2015-06-07T06:58:14Z</time>
      </trkpt>
      <trkpt lat="47.89255" lon="-1.71504">
        <ele>24</ele>
        <time>2015-06-07T06:58:15Z</time>
      </trkpt>
      <trkpt lat="47.89253" lon="-1.71503">
        <ele>24</ele>
        <time>2015-06-07T06:58:16Z</time>
      </trkpt>
      <trkpt lat="47.89251" lon="-1.71501">
        <ele>24</ele>
        <time>2015-06-07T06:58:17Z</time>
      </trkpt>
      <trkpt lat="47.89248" lon="-1.71499">
        <ele>24</ele>
        <time>2015-06-07T06:58:18Z</time>
      </trkpt>
      <trkpt lat="47.89245" lon="-1.71499">
        <ele>24</ele>
        <time>2015-06-07T06:58:19Z</time>
      </trkpt>
      <trkpt lat="47.89241" lon="-1.71498">
        <ele>24</ele>
        <time>2015-06-07T06:58:20Z</time>
      </trkpt>
      <trkpt lat="47.89238" lon="-1.71498">
        <ele>24</ele>
        <time>2015-06-07T06:58:21Z</time>
      </trkpt>
      <trkpt lat="47.89235" lon="-1.71499">
        <ele>24</ele>
        <time>2015-06-07T06:58:22Z</time>
      </trkpt>
      <trkpt lat="47.89231" lon="-1.71499">
        <ele>24</ele>
        <time>2015-06-07T06:58:23Z</time>
      </trkpt>
      <trkpt lat="47.89228" lon="-1.71499">
        <ele>24</ele>
        <time>2015-06-07T06:58:24Z</time>
      </trkpt>
      <trkpt lat="47.89225" lon="-1.71499">
        <ele>24</ele>
        <time>2015-06-07T06:58:25Z</time>
      </trkpt>
      <trkpt lat="47.89223" lon="-1.71499">
        <ele>23</ele>
        <time>2015-06-07T06:58:26Z</time>
      </trkpt>
      <trkpt lat="47.89221" lon="-1.71498">
        <ele>23</ele>
        <time>2015-06-07T06:58:27Z</time>
      </trkpt>
      <trkpt lat="47.89218" lon="-1.71498">
        <ele>23</ele>
        <time>2015-06-07T06:58:28Z</time>
      </trkpt>
      <trkpt lat="47.89215" lon="-1.71499">
        <ele>23</ele>
        <time>2015-06-07T06:58:29Z</time>
      </trkpt>
      <trkpt lat="47.89212" lon="-1.71499">
        <ele>23</ele>
        <time>2015-06-07T06:58:30Z</time>
      </trkpt>
      <trkpt lat="47.89209" lon="-1.71498">
        <ele>23</ele>
        <time>2015-06-07T06:58:31Z</time>
      </trkpt>
      <trkpt lat="47.89205" lon="-1.71497">
        <ele>23</ele>
        <time>2015-06-07T06:58:32Z</time>
      </trkpt>
      <trkpt lat="47.89202" lon="-1.71495">
        <ele>23</ele>
        <time>2015-06-07T06:58:33Z</time>
      </trkpt>
      <trkpt lat="47.89198" lon="-1.71494">
        <ele>23</ele>
        <time>2015-06-07T06:58:34Z</time>
      </trkpt>
      <trkpt lat="47.89194" lon="-1.71494">
        <ele>23</ele>
        <time>2015-06-07T06:58:35Z</time>
      </trkpt>
      <trkpt lat="47.89191" lon="-1.71495">
        <ele>23</ele>
        <time>2015-06-07T06:58:36Z</time>
      </trkpt>
      <trkpt lat="47.89188" lon="-1.71496">
        <ele>23</ele>
        <time>2015-06-07T06:58:37Z</time>
      </trkpt>
      <trkpt lat="47.89186" lon="-1.71497">
        <ele>23</ele>
        <time>2015-06-07T06:58:38Z</time>
      </trkpt>
      <trkpt lat="47.89184" lon="-1.71498">
        <ele>23</ele>
        <time>2015-06-07T06:58:39Z</time>
      </trkpt>
      <trkpt lat="47.89182" lon="-1.71497">
        <ele>23</ele>
        <time>2015-06-07T06:58:40Z</time>
      </trkpt>
      <trkpt lat="47.8918" lon="-1.71496">
        <ele>23</ele>
        <time>2015-06-07T06:58:41Z</time>
      </trkpt>
      <trkpt lat="47.89177" lon="-1.71495">
        <ele>22</ele>
        <time>2015-06-07T06:58:42Z</time>
      </trkpt>
      <trkpt lat="47.89173" lon="-1.71494">
        <ele>22</ele>
        <time>2015-06-07T06:58:43Z</time>
      </trkpt>
      <trkpt lat="47.8917" lon="-1.71492">
        <ele>22</ele>
        <time>2015-06-07T06:58:44Z</time>
      </trkpt>
      <trkpt lat="47.89167" lon="-1.7149">
        <ele>22</ele>
        <time>2015-06-07T06:58:45Z</time>
      </trkpt>
      <trkpt lat="47.89164" lon="-1.71488">
        <ele>22</ele>
        <time>2015-06-07T06:58:46Z</time>
      </trkpt>
      <trkpt lat="47.89161" lon="-1.71486">
        <ele>22</ele>
        <time>2015-06-07T06:58:47Z</time>
      </trkpt>
      <trkpt lat="47.89158" lon="-1.71484">
        <ele>23</ele>
        <time>2015-06-07T06:58:48Z</time>
      </trkpt>
      <trkpt lat="47.89155" lon="-1.71481">
        <ele>23</ele>
        <time>2015-06-07T06:58:49Z</time>
      </trkpt>
      <trkpt lat="47.89152" lon="-1.71479">
        <ele>23</ele>
        <time>2015-06-07T06:58:50Z</time>
      </trkpt>
      <trkpt lat="47.89149" lon="-1.71476">
        <ele>23</ele>
        <time>2015-06-07T06:58:51Z</time>
      </trkpt>
      <trkpt lat="47.89145" lon="-1.71473">
        <ele>23</ele>
        <time>2015-06-07T06:58:52Z</time>
      </trkpt>
      <trkpt lat="47.89142" lon="-1.7147">
        <ele>23</ele>
        <time>2015-06-07T06:58:53Z</time>
      </trkpt>
      <trkpt lat="47.89139" lon="-1.71467">
        <ele>23</ele>
        <time>2015-06-07T06:58:54Z</time>
      </trkpt>
      <trkpt lat="47.89135" lon="-1.71464">
        <ele>23</ele>
        <time>2015-06-07T06:58:55Z</time>
      </trkpt>
      <trkpt lat="47.89132" lon="-1.71461">
        <ele>23</ele>
        <time>2015-06-07T06:58:56Z</time>
      </trkpt>
      <trkpt lat="47.8913" lon="-1.71456">
        <ele>23</ele>
        <time>2015-06-07T06:58:57Z</time>
      </trkpt>
      <trkpt lat="47.89126" lon="-1.71451">
        <ele>23</ele>
        <time>2015-06-07T06:58:58Z</time>
      </trkpt>
      <trkpt lat="47.89121" lon="-1.71449">
        <ele>23</ele>
        <time>2015-06-07T06:58:59Z</time>
      </trkpt>
      <trkpt lat="47.89117" lon="-1.7145">
        <ele>23</ele>
        <time>2015-06-07T06:59:00Z</time>
      </trkpt>
      <trkpt lat="47.89113" lon="-1.71452">
        <ele>23</ele>
        <time>2015-06-07T06:59:01Z</time>
      </trkpt>
      <trkpt lat="47.8911" lon="-1.71453">
        <ele>23</ele>
        <time>2015-06-07T06:59:02Z</time>
      </trkpt>
      <trkpt lat="47.89108" lon="-1.71455">
        <ele>23</ele>
        <time>2015-06-07T06:59:03Z</time>
      </trkpt>
      <trkpt lat="47.89106" lon="-1.71457">
        <ele>23</ele>
        <time>2015-06-07T06:59:04Z</time>
      </trkpt>
      <trkpt lat="47.89103" lon="-1.7146">
        <ele>23</ele>
        <time>2015-06-07T06:59:05Z</time>
      </trkpt>
      <trkpt lat="47.891" lon="-1.71463">
        <ele>23</ele>
        <time>2015-06-07T06:59:06Z</time>
      </trkpt>
      <trkpt lat="47.89098" lon="-1.71465">
        <ele>23</ele>
        <time>2015-06-07T06:59:07Z</time>
      </trkpt>
      <trkpt lat="47.89095" lon="-1.71465">
        <ele>23</ele>
        <time>2015-06-07T06:59:08Z</time>
      </trkpt>
      <trkpt lat="47.89093" lon="-1.71464">
        <ele>23</ele>
        <time>2015-06-07T06:59:09Z</time>
      </trkpt>
      <trkpt lat="47.89092" lon="-1.71462">
        <ele>23</ele>
        <time>2015-06-07T06:59:10Z</time>
      </trkpt>
      <trkpt lat="47.89091" lon="-1.71459">
        <ele>22</ele>
        <time>2015-06-07T06:59:11Z</time>
      </trkpt>
      <trkpt lat="47.89089" lon="-1.71456">
        <ele>23</ele>
        <time>2015-06-07T06:59:12Z</time>
      </trkpt>
      <trkpt lat="47.89087" lon="-1.71452">
        <ele>23</ele>
        <time>2015-06-07T06:59:13Z</time>
      </trkpt>
      <trkpt lat="47.89085" lon="-1.7145">
        <ele>23</ele>
        <time>2015-06-07T06:59:14Z</time>
      </trkpt>
      <trkpt lat="47.89083" lon="-1.71448">
        <ele>23</ele>
        <time>2015-06-07T06:59:15Z</time>
      </trkpt>
      <trkpt lat="47.89081" lon="-1.71446">
        <ele>23</ele>
        <time>2015-06-07T06:59:16Z</time>
      </trkpt>
      <trkpt lat="47.89078" lon="-1.71445">
        <ele>23</ele>
        <time>2015-06-07T06:59:17Z</time>
      </trkpt>
      <trkpt lat="47.89076" lon="-1.71442">
        <ele>23</ele>
        <time>2015-06-07T06:59:18Z</time>
      </trkpt>
      <trkpt lat="47.89075" lon="-1.7144">
        <ele>23</ele>
        <time>2015-06-07T06:59:19Z</time>
      </trkpt>
      <trkpt lat="47.89072" lon="-1.71439">
        <ele>23</ele>
        <time>2015-06-07T06:59:20Z</time>
      </trkpt>
      <trkpt lat="47.8907" lon="-1.71437">
        <ele>24</ele>
        <time>2015-06-07T06:59:21Z</time>
      </trkpt>
      <trkpt lat="47.89068" lon="-1.71435">
        <ele>24</ele>
        <time>2015-06-07T06:59:22Z</time>
      </trkpt>
      <trkpt lat="47.89067" lon="-1.71433">
        <ele>24</ele>
        <time>2015-06-07T06:59:23Z</time>
      </trkpt>
      <trkpt lat="47.89064" lon="-1.7143">
        <ele>24</ele>
        <time>2015-06-07T06:59:24Z</time>
      </trkpt>
      <trkpt lat="47.89062" lon="-1.71427">
        <ele>24</ele>
        <time>2015-06-07T06:59:25Z</time>
      </trkpt>
      <trkpt lat="47.89059" lon="-1.71425">
        <ele>24</ele>
        <time>2015-06-07T06:59:26Z</time>
      </trkpt>
      <trkpt lat="47.89057" lon="-1.71424">
        <ele>24</ele>
        <time>2015-06-07T06:59:27Z</time>
      </trkpt>
      <trkpt lat="47.89054" lon="-1.71423">
        <ele>24</ele>
        <time>2015-06-07T06:59:28Z</time>
      </trkpt>
      <trkpt lat="47.89053" lon="-1.71421">
        <ele>24</ele>
        <time>2015-06-07T06:59:29Z</time>
      </trkpt>
      <trkpt lat="47.89052" lon="-1.71419">
        <ele>24</ele>
        <time>2015-06-07T06:59:30Z</time>
      </trkpt>
      <trkpt lat="47.89049" lon="-1.71417">
        <ele>24</ele>
        <time>2015-06-07T06:59:31Z</time>
      </trkpt>
      <trkpt lat="47.89047" lon="-1.71416">
        <ele>25</ele>
        <time>2015-06-07T06:59:32Z</time>
      </trkpt>
      <trkpt lat="47.89045" lon="-1.71414">
        <ele>25</ele>
        <time>2015-06-07T06:59:33Z</time>
      </trkpt>
      <trkpt lat="47.89042" lon="-1.71412">
        <ele>25</ele>
        <time>2015-06-07T06:59:34Z</time>
      </trkpt>
      <trkpt lat="47.8904" lon="-1.71409">
        <ele>25</ele>
        <time>2015-06-07T06:59:35Z</time>
      </trkpt>
      <trkpt lat="47.89037" lon="-1.71407">
        <ele>25</ele>
        <time>2015-06-07T06:59:36Z</time>
      </trkpt>
      <trkpt lat="47.89035" lon="-1.71403">
        <ele>25</ele>
        <time>2015-06-07T06:59:37Z</time>
      </trkpt>
      <trkpt lat="47.89033" lon="-1.71401">
        <ele>25</ele>
        <time>2015-06-07T06:59:38Z</time>
      </trkpt>
      <trkpt lat="47.89031" lon="-1.71399">
        <ele>25</ele>
        <time>2015-06-07T06:59:39Z</time>
      </trkpt>
      <trkpt lat="47.89029" lon="-1.71397">
        <ele>26</ele>
        <time>2015-06-07T06:59:40Z</time>
      </trkpt>
      <trkpt lat="47.89027" lon="-1.71394">
        <ele>26</ele>
        <time>2015-06-07T06:59:41Z</time>
      </trkpt>
      <trkpt lat="47.89025" lon="-1.71392">
        <ele>26</ele>
        <time>2015-06-07T06:59:42Z</time>
      </trkpt>
      <trkpt lat="47.89023" lon="-1.71389">
        <ele>26</ele>
        <time>2015-06-07T06:59:43Z</time>
      </trkpt>
      <trkpt lat="47.89021" lon="-1.71387">
        <ele>26</ele>
        <time>2015-06-07T06:59:44Z</time>
      </trkpt>
      <trkpt lat="47.89019" lon="-1.71385">
        <ele>26</ele>
        <time>2015-06-07T06:59:45Z</time>
      </trkpt>
      <trkpt lat="47.89017" lon="-1.71384">
        <ele>26</ele>
        <time>2015-06-07T06:59:46Z</time>
      </trkpt>
      <trkpt lat="47.89015" lon="-1.71384">
        <ele>26</ele>
        <time>2015-06-07T06:59:47Z</time>
      </trkpt>
      <trkpt lat="47.89014" lon="-1.71385">
        <ele>26</ele>
        <time>2015-06-07T06:59:48Z</time>
      </trkpt>
      <trkpt lat="47.89012" lon="-1.71387">
        <ele>26</ele>
        <time>2015-06-07T06:59:49Z</time>
      </trkpt>
      <trkpt lat="47.89009" lon="-1.71388">
        <ele>26</ele>
        <time>2015-06-07T06:59:50Z</time>
      </trkpt>
      <trkpt lat="47.89008" lon="-1.7139">
        <ele>26</ele>
        <time>2015-06-07T06:59:51Z</time>
      </trkpt>
      <trkpt lat="47.89007" lon="-1.71391">
        <ele>26</ele>
        <time>2015-06-07T06:59:52Z</time>
      </trkpt>
      <trkpt lat="47.89006" lon="-1.71393">
        <ele>26</ele>
        <time>2015-06-07T06:59:53Z</time>
      </trkpt>
      <trkpt lat="47.89005" lon="-1.71395">
        <ele>26</ele>
        <time>2015-06-07T06:59:54Z</time>
      </trkpt>
      <trkpt lat="47.89004" lon="-1.71396">
        <ele>26</ele>
        <time>2015-06-07T06:59:55Z</time>
      </trkpt>
      <trkpt lat="47.89003" lon="-1.71396">
        <ele>26</ele>
        <time>2015-06-07T06:59:56Z</time>
      </trkpt>
      <trkpt lat="47.89002" lon="-1.71397">
        <ele>26</ele>
        <time>2015-06-07T06:59:57Z</time>
      </trkpt>
      <trkpt lat="47.89001" lon="-1.71397">
        <ele>26</ele>
        <time>2015-06-07T06:59:58Z</time>
      </trkpt>
      <trkpt lat="47.89001" lon="-1.71399">
        <ele>26</ele>
        <time>2015-06-07T06:59:59Z</time>
      </trkpt>
      <trkpt lat="47.89" lon="-1.71401">
        <ele>25</ele>
        <time>2015-06-07T07:00:00Z</time>
      </trkpt>
      <trkpt lat="47.89" lon="-1.71403">
        <ele>25</ele>
        <time>2015-06-07T07:00:01Z</time>
      </trkpt>
      <trkpt lat="47.88999" lon="-1.71406">
        <ele>26</ele>
        <time>2015-06-07T07:00:02Z</time>
      </trkpt>
      <trkpt lat="47.88998" lon="-1.71407">
        <ele>26</ele>
        <time>2015-06-07T07:00:03Z</time>
      </trkpt>
      <trkpt lat="47.88996" lon="-1.71409">
        <ele>26</ele>
        <time>2015-06-07T07:00:04Z</time>
      </trkpt>
      <trkpt lat="47.88994" lon="-1.71411">
        <ele>26</ele>
        <time>2015-06-07T07:00:05Z</time>
      </trkpt>
      <trkpt lat="47.88992" lon="-1.71413">
        <ele>26</ele>
        <time>2015-06-07T07:00:06Z</time>
      </trkpt>
      <trkpt lat="47.88991" lon="-1.71416">
        <ele>26</ele>
        <time>2015-06-07T07:00:07Z</time>
      </trkpt>
      <trkpt lat="47.88989" lon="-1.71418">
        <ele>26</ele>
        <time>2015-06-07T07:00:08Z</time>
      </trkpt>
      <trkpt lat="47.88987" lon="-1.71419">
        <ele>26</ele>
        <time>2015-06-07T07:00:09Z</time>
      </trkpt>
      <trkpt lat="47.88985" lon="-1.71421">
        <ele>26</ele>
        <time>2015-06-07T07:00:10Z</time>
      </trkpt>
      <trkpt lat="47.88982" lon="-1.71423">
        <ele>26</ele>
        <time>2015-06-07T07:00:11Z</time>
      </trkpt>
      <trkpt lat="47.8898" lon="-1.71423">
        <ele>26</ele>
        <time>2015-06-07T07:00:12Z</time>
      </trkpt>
      <trkpt lat="47.88978" lon="-1.71423">
        <ele>26</ele>
        <time>2015-06-07T07:00:13Z</time>
      </trkpt>
      <trkpt lat="47.88976" lon="-1.71423">
        <ele>26</ele>
        <time>2015-06-07T07:00:14Z</time>
      </trkpt>
      <trkpt lat="47.88974" lon="-1.71424">
        <ele>26</ele>
        <time>2015-06-07T07:00:15Z</time>
      </trkpt>
      <trkpt lat="47.88972" lon="-1.71427">
        <ele>26</ele>
        <time>2015-06-07T07:00:16Z</time>
      </trkpt>
      <trkpt lat="47.88971" lon="-1.7143">
        <ele>26</ele>
        <time>2015-06-07T07:00:17Z</time>
      </trkpt>
      <trkpt lat="47.88969" lon="-1.71434">
        <ele>26</ele>
        <time>2015-06-07T07:00:18Z</time>
      </trkpt>
      <trkpt lat="47.88967" lon="-1.71437">
        <ele>26</ele>
        <time>2015-06-07T07:00:19Z</time>
      </trkpt>
      <trkpt lat="47.88966" lon="-1.71439">
        <ele>26</ele>
        <time>2015-06-07T07:00:20Z</time>
      </trkpt>
      <trkpt lat="47.88966" lon="-1.71441">
        <ele>26</ele>
        <time>2015-06-07T07:00:21Z</time>
      </trkpt>
      <trkpt lat="47.88965" lon="-1.71443">
        <ele>26</ele>
        <time>2015-06-07T07:00:22Z</time>
      </trkpt>
      <trkpt lat="47.88964" lon="-1.71443">
        <ele>26</ele>
        <time>2015-06-07T07:00:23Z</time>
      </trkpt>
      <trkpt lat="47.88963" lon="-1.71444">
        <ele>26</ele>
        <time>2015-06-07T07:00:24Z</time>
      </trkpt>
      <trkpt lat="47.88962" lon="-1.71445">
        <ele>26</ele>
        <time>2015-06-07T07:00:25Z</time>
      </trkpt>
      <trkpt lat="47.8896" lon="-1.71446">
        <ele>26</ele>
        <time>2015-06-07T07:00:26Z</time>
      </trkpt>
      <trkpt lat="47.88959" lon="-1.71449">
        <ele>26</ele>
        <time>2015-06-07T07:00:27Z</time>
      </trkpt>
      <trkpt lat="47.88958" lon="-1.71452">
        <ele>26</ele>
        <time>2015-06-07T07:00:28Z</time>
      </trkpt>
      <trkpt lat="47.88957" lon="-1.71455">
        <ele>26</ele>
        <time>2015-06-07T07:00:29Z</time>
      </trkpt>
      <trkpt lat="47.88959" lon="-1.71458">
        <ele>25</ele>
        <time>2015-06-07T07:00:30Z</time>
      </trkpt>
      <trkpt lat="47.8896" lon="-1.71461">
        <ele>25</ele>
        <time>2015-06-07T07:00:31Z</time>
      </trkpt>
      <trkpt lat="47.88962" lon="-1.71465">
        <ele>25</ele>
        <time>2015-06-07T07:00:32Z</time>
      </trkpt>
      <trkpt lat="47.88962" lon="-1.71468">
        <ele>25</ele>
        <time>2015-06-07T07:00:33Z</time>
      </trkpt>
      <trkpt lat="47.88961" lon="-1.71472">
        <ele>25</ele>
        <time>2015-06-07T07:00:34Z</time>
      </trkpt>
      <trkpt lat="47.88962" lon="-1.71475">
        <ele>25</ele>
        <time>2015-06-07T07:00:35Z</time>
      </trkpt>
      <trkpt lat="47.88961" lon="-1.71477">
        <ele>25</ele>
        <time>2015-06-07T07:00:36Z</time>
      </trkpt>
      <trkpt lat="47.8896" lon="-1.7148">
        <ele>25</ele>
        <time>2015-06-07T07:00:37Z</time>
      </trkpt>
      <trkpt lat="47.88958" lon="-1.71481">
        <ele>25</ele>
        <time>2015-06-07T07:00:38Z</time>
      </trkpt>
      <trkpt lat="47.88956" lon="-1.71483">
        <ele>25</ele>
        <time>2015-06-07T07:00:39Z</time>
      </trkpt>
      <trkpt lat="47.88953" lon="-1.71485">
        <ele>25</ele>
        <time>2015-06-07T07:00:40Z</time>
      </trkpt>
      <trkpt lat="47.8895" lon="-1.71488">
        <ele>25</ele>
        <time>2015-06-07T07:00:41Z</time>
      </trkpt>
      <trkpt lat="47.88948" lon="-1.71492">
        <ele>25</ele>
        <time>2015-06-07T07:00:42Z</time>
      </trkpt>
      <trkpt lat="47.88946" lon="-1.71495">
        <ele>25</ele>
        <time>2015-06-07T07:00:43Z</time>
      </trkpt>
      <trkpt lat="47.88944" lon="-1.71499">
        <ele>25</ele>
        <time>2015-06-07T07:00:44Z</time>
      </trkpt>
      <trkpt lat="47.88942" lon="-1.71502">
        <ele>25</ele>
        <time>2015-06-07T07:00:45Z</time>
      </trkpt>
      <trkpt lat="47.88939" lon="-1.71505">
        <ele>25</ele>
        <time>2015-06-07T07:00:46Z</time>
      </trkpt>
      <trkpt lat="47.88937" lon="-1.71508">
        <ele>25</ele>
        <time>2015-06-07T07:00:47Z</time>
      </trkpt>
      <trkpt lat="47.88935" lon="-1.71511">
        <ele>25</ele>
        <time>2015-06-07T07:00:48Z</time>
      </trkpt>
      <trkpt lat="47.88933" lon="-1.71514">
        <ele>25</ele>
        <time>2015-06-07T07:00:49Z</time>
      </trkpt>
      <trkpt lat="47.8893" lon="-1.71517">
        <ele>26</ele>
        <time>2015-06-07T07:00:50Z</time>
      </trkpt>
      <trkpt lat="47.88928" lon="-1.71519">
        <ele>26</ele>
        <time>2015-06-07T07:00:51Z</time>
      </trkpt>
      <trkpt lat="47.88926" lon="-1.71523">
        <ele>26</ele>
        <time>2015-06-07T07:00:52Z</time>
      </trkpt>
      <trkpt lat="47.88923" lon="-1.71526">
        <ele>26</ele>
        <time>2015-06-07T07:00:53Z</time>
      </trkpt>
      <trkpt lat="47.88921" lon="-1.71529">
        <ele>26</ele>
        <time>2015-06-07T07:00:54Z</time>
      </trkpt>
      <trkpt lat="47.88919" lon="-1.71533">
        <ele>27</ele>
        <time>2015-06-07T07:00:55Z</time>
      </trkpt>
      <trkpt lat="47.88917" lon="-1.71536">
        <ele>27</ele>
        <time>2015-06-07T07:00:56Z</time>
      </trkpt>
      <trkpt lat="47.88915" lon="-1.7154">
        <ele>27</ele>
        <time>2015-06-07T07:00:57Z</time>
      </trkpt>
      <trkpt lat="47.88913" lon="-1.71543">
        <ele>27</ele>
        <time>2015-06-07T07:00:58Z</time>
      </trkpt>
      <trkpt lat="47.88911" lon="-1.71546">
        <ele>28</ele>
        <time>2015-06-07T07:00:59Z</time>
      </trkpt>
      <trkpt lat="47.88909" lon="-1.71548">
        <ele>28</ele>
        <time>2015-06-07T07:01:00Z</time>
      </trkpt>
      <trkpt lat="47.88907" lon="-1.71549">
        <ele>28</ele>
        <time>2015-06-07T07:01:01Z</time>
      </trkpt>
      <trkpt lat="47.88906" lon="-1.7155">
        <ele>28</ele>
        <time>2015-06-07T07:01:02Z</time>
      </trkpt>
      <trkpt lat="47.88905" lon="-1.71551">
        <ele>29</ele>
        <time>2015-06-07T07:01:03Z</time>
      </trkpt>
      <trkpt lat="47.88904" lon="-1.71553">
        <ele>29</ele>
        <time>2015-06-07T07:01:04Z</time>
      </trkpt>
      <trkpt lat="47.88903" lon="-1.71555">
        <ele>29</ele>
        <time>2015-06-07T07:01:05Z</time>
      </trkpt>
      <trkpt lat="47.88902" lon="-1.71557">
        <ele>29</ele>
        <time>2015-06-07T07:01:06Z</time>
      </trkpt>
      <trkpt lat="47.88901" lon="-1.71558">
        <ele>29</ele>
        <time>2015-06-07T07:01:07Z</time>
      </trkpt>
      <trkpt lat="47.889" lon="-1.71558">
        <ele>30</ele>
        <time>2015-06-07T07:01:08Z</time>
      </trkpt>
      <trkpt lat="47.889" lon="-1.71558">
        <ele>30</ele>
        <time>2015-06-07T07:01:09Z</time>
      </trkpt>
      <trkpt lat="47.88899" lon="-1.71558">
        <ele>30</ele>
        <time>2015-06-07T07:01:10Z</time>
      </trkpt>
      <trkpt lat="47.88898" lon="-1.71559">
        <ele>30</ele>
        <time>2015-06-07T07:01:11Z</time>
      </trkpt>
      <trkpt lat="47.88897" lon="-1.7156">
        <ele>30</ele>
        <time>2015-06-07T07:01:12Z</time>
      </trkpt>
      <trkpt lat="47.88896" lon="-1.71561">
        <ele>30</ele>
        <time>2015-06-07T07:01:13Z</time>
      </trkpt>
      <trkpt lat="47.88895" lon="-1.71561">
        <ele>30</ele>
        <time>2015-06-07T07:01:14Z</time>
      </trkpt>
      <trkpt lat="47.88894" lon="-1.71562">
        <ele>31</ele>
        <time>2015-06-07T07:01:15Z</time>
      </trkpt>
      <trkpt lat="47.88893" lon="-1.71563">
        <ele>31</ele>
        <time>2015-06-07T07:01:16Z</time>
      </trkpt>
      <trkpt lat="47.88892" lon="-1.71564">
        <ele>31</ele>
        <time>2015-06-07T07:01:17Z</time>
      </trkpt>
      <trkpt lat="47.8889" lon="-1.71565">
        <ele>31</ele>
        <time>2015-06-07T07:01:18Z</time>
      </trkpt>
      <trkpt lat="47.88889" lon="-1.71566">
        <ele>31</ele>
        <time>2015-06-07T07:01:19Z</time>
      </trkpt>
      <trkpt lat="47.88887" lon="-1.71567">
        <ele>32</ele>
        <time>2015-06-07T07:01:20Z</time>
      </trkpt>
      <trkpt lat="47.88885" lon="-1.71567">
        <ele>32</ele>
        <time>2015-06-07T07:01:21Z</time>
      </trkpt>
      <trkpt lat="47.88883" lon="-1.71568">
        <ele>32</ele>
        <time>2015-06-07T07:01:22Z</time>
      </trkpt>
      <trkpt lat="47.88881" lon="-1.71569">
        <ele>32</ele>
        <time>2015-06-07T07:01:23Z</time>
      </trkpt>
      <trkpt lat="47.8888" lon="-1.7157">
        <ele>32</ele>
        <time>2015-06-07T07:01:24Z</time>
      </trkpt>
      <trkpt lat="47.88879" lon="-1.71572">
        <ele>33</ele>
        <time>2015-06-07T07:01:25Z</time>
      </trkpt>
      <trkpt lat="47.88878" lon="-1.71575">
        <ele>33</ele>
        <time>2015-06-07T07:01:26Z</time>
      </trkpt>
      <trkpt lat="47.88876" lon="-1.71579">
        <ele>33</ele>
        <time>2015-06-07T07:01:27Z</time>
      </trkpt>
      <trkpt lat="47.88875" lon="-1.71582">
        <ele>33</ele>
        <time>2015-06-07T07:01:28Z</time>
      </trkpt>
      <trkpt lat="47.88874" lon="-1.71585">
        <ele>34</ele>
        <time>2015-06-07T07:01:29Z</time>
      </trkpt>
      <trkpt lat="47.88874" lon="-1.71588">
        <ele>34</ele>
        <time>2015-06-07T07:01:30Z</time>
      </trkpt>
      <trkpt lat="47.88874" lon="-1.71591">
        <ele>34</ele>
        <time>2015-06-07T07:01:31Z</time>
      </trkpt>
      <trkpt lat="47.88873" lon="-1.71594">
        <ele>34</ele>
        <time>2015-06-07T07:01:32Z</time>
      </trkpt>
      <trkpt lat="47.88873" lon="-1.71596">
        <ele>34</ele>
        <time>2015-06-07T07:01:33Z</time>
      </trkpt>
      <trkpt lat="47.88872" lon="-1.71597">
        <ele>34</ele>
        <time>2015-06-07T07:01:34Z</time>
      </trkpt>
      <trkpt lat="47.88871" lon="-1.71598">
        <ele>34</ele>
        <time>2015-06-07T07:01:35Z</time>
      </trkpt>
      <trkpt lat="47.8887" lon="-1.71599">
        <ele>34</ele>
        <time>2015-06-07T07:01:36Z</time>
      </trkpt>
      <trkpt lat="47.88869" lon="-1.716">
        <ele>34</ele>
        <time>2015-06-07T07:01:37Z</time>
      </trkpt>
      <trkpt lat="47.88867" lon="-1.716">
        <ele>35</ele>
        <time>2015-06-07T07:01:38Z</time>
      </trkpt>
      <trkpt lat="47.88866" lon="-1.71601">
        <ele>35</ele>
        <time>2015-06-07T07:01:39Z</time>
      </trkpt>
      <trkpt lat="47.88864" lon="-1.71601">
        <ele>35</ele>
        <time>2015-06-07T07:01:40Z</time>
      </trkpt>
      <trkpt lat="47.88862" lon="-1.71602">
        <ele>35</ele>
        <time>2015-06-07T07:01:41Z</time>
      </trkpt>
      <trkpt lat="47.88861" lon="-1.71603">
        <ele>35</ele>
        <time>2015-06-07T07:01:42Z</time>
      </trkpt>
      <trkpt lat="47.88861" lon="-1.71604">
        <ele>35</ele>
        <time>2015-06-07T07:01:43Z</time>
      </trkpt>
      <trkpt lat="47.8886" lon="-1.71604">
        <ele>36</ele>
        <time>2015-06-07T07:01:44Z</time>
      </trkpt>
      <trkpt lat="47.88859" lon="-1.71605">
        <ele>36</ele>
        <time>2015-06-07T07:01:45Z</time>
      </trkpt>
      <trkpt lat="47.88858" lon="-1.71606">
        <ele>36</ele>
        <time>2015-06-07T07:01:46Z</time>
      </trkpt>
      <trkpt lat="47.88858" lon="-1.71607">
        <ele>36</ele>
        <time>2015-06-07T07:01:47Z</time>
      </trkpt>
      <trkpt lat="47.88857" lon="-1.71608">
        <ele>36</ele>
        <time>2015-06-07T07:01:48Z</time>
      </trkpt>
      <trkpt lat="47.88856" lon="-1.71609">
        <ele>36</ele>
        <time>2015-06-07T07:01:49Z</time>
      </trkpt>
      <trkpt lat="47.88855" lon="-1.7161">
        <ele>36</ele>
        <time>2015-06-07T07:01:50Z</time>
      </trkpt>
      <trkpt lat="47.88854" lon="-1.7161">
        <ele>36</ele>
        <time>2015-06-07T07:01:51Z</time>
      </trkpt>
      <trkpt lat="47.88853" lon="-1.7161">
        <ele>36</ele>
        <time>2015-06-07T07:01:52Z</time>
      </trkpt>
      <trkpt lat="47.88853" lon="-1.7161">
        <ele>36</ele>
        <time>2015-06-07T07:01:53Z</time>
      </trkpt>
      <trkpt lat="47.88851" lon="-1.7161">
        <ele>36</ele>
        <time>2015-06-07T07:01:54Z</time>
      </trkpt>
      <trkpt lat="47.8885" lon="-1.7161">
        <ele>36</ele>
        <time>2015-06-07T07:01:55Z</time>
      </trkpt>
      <trkpt lat="47.88848" lon="-1.71609">
        <ele>36</ele>
        <time>2015-06-07T07:01:56Z</time>
      </trkpt>
      <trkpt lat="47.88846" lon="-1.71608">
        <ele>36</ele>
        <time>2015-06-07T07:01:57Z</time>
      </trkpt>
      <trkpt lat="47.88844" lon="-1.71607">
        <ele>36</ele>
        <time>2015-06-07T07:01:58Z</time>
      </trkpt>
      <trkpt lat="47.88841" lon="-1.71607">
        <ele>36</ele>
        <time>2015-06-07T07:01:59Z</time>
      </trkpt>
      <trkpt lat="47.88839" lon="-1.71607">
        <ele>36</ele>
        <time>2015-06-07T07:02:00Z</time>
      </trkpt>
      <trkpt lat="47.88837" lon="-1.71607">
        <ele>36</ele>
        <time>2015-06-07T07:02:01Z</time>
      </trkpt>
      <trkpt lat="47.88835" lon="-1.71607">
        <ele>37</ele>
        <time>2015-06-07T07:02:02Z</time>
      </trkpt>
      <trkpt lat="47.88832" lon="-1.71607">
        <ele>37</ele>
        <time>2015-06-07T07:02:03Z</time>
      </trkpt>
      <trkpt lat="47.88829" lon="-1.71607">
        <ele>37</ele>
        <time>2015-06-07T07:02:04Z</time>
      </trkpt>
      <trkpt lat="47.88827" lon="-1.71606">
        <ele>37</ele>
        <time>2015-06-07T07:02:05Z</time>
      </trkpt>
      <trkpt lat="47.88824" lon="-1.71605">
        <ele>37</ele>
        <time>2015-06-07T07:02:06Z</time>
      </trkpt>
      <trkpt lat="47.88822" lon="-1.71604">
        <ele>37</ele>
        <time>2015-06-07T07:02:07Z</time>
      </trkpt>
      <trkpt lat="47.8882" lon="-1.71604">
        <ele>37</ele>
        <time>2015-06-07T07:02:08Z</time>
      </trkpt>
      <trkpt lat="47.88816" lon="-1.71603">
        <ele>37</ele>
        <time>2015-06-07T07:02:09Z</time>
      </trkpt>
      <trkpt lat="47.88813" lon="-1.71603">
        <ele>37</ele>
        <time>2015-06-07T07:02:10Z</time>
      </trkpt>
      <trkpt lat="47.8881" lon="-1.71603">
        <ele>37</ele>
        <time>2015-06-07T07:02:11Z</time>
      </trkpt>
      <trkpt lat="47.88807" lon="-1.71603">
        <ele>38</ele>
        <time>2015-06-07T07:02:12Z</time>
      </trkpt>
      <trkpt lat="47.88804" lon="-1.71605">
        <ele>38</ele>
        <time>2015-06-07T07:02:13Z</time>
      </trkpt>
      <trkpt lat="47.88802" lon="-1.71608">
        <ele>38</ele>
        <time>2015-06-07T07:02:14Z</time>
      </trkpt>
      <trkpt lat="47.88801" lon="-1.7161">
        <ele>38</ele>
        <time>2015-06-07T07:02:15Z</time>
      </trkpt>
      <trkpt lat="47.88799" lon="-1.71613">
        <ele>38</ele>
        <time>2015-06-07T07:02:16Z</time>
      </trkpt>
      <trkpt lat="47.88798" lon="-1.71615">
        <ele>39</ele>
        <time>2015-06-07T07:02:17Z</time>
      </trkpt>
      <trkpt lat="47.88796" lon="-1.71616">
        <ele>39</ele>
        <time>2015-06-07T07:02:18Z</time>
      </trkpt>
      <trkpt lat="47.88794" lon="-1.71617">
        <ele>39</ele>
        <time>2015-06-07T07:02:19Z</time>
      </trkpt>
      <trkpt lat="47.88792" lon="-1.71615">
        <ele>39</ele>
        <time>2015-06-07T07:02:20Z</time>
      </trkpt>
      <trkpt lat="47.88789" lon="-1.71613">
        <ele>39</ele>
        <time>2015-06-07T07:02:21Z</time>
      </trkpt>
      <trkpt lat="47.88787" lon="-1.71612">
        <ele>39</ele>
        <time>2015-06-07T07:02:22Z</time>
      </trkpt>
      <trkpt lat="47.88784" lon="-1.71612">
        <ele>39</ele>
        <time>2015-06-07T07:02:23Z</time>
      </trkpt>
      <trkpt lat="47.88782" lon="-1.71613">
        <ele>39</ele>
        <time>2015-06-07T07:02:24Z</time>
      </trkpt>
      <trkpt lat="47.88779" lon="-1.71613">
        <ele>39</ele>
        <time>2015-06-07T07:02:25Z</time>
      </trkpt>
      <trkpt lat="47.88776" lon="-1.71614">
        <ele>40</ele>
        <time>2015-06-07T07:02:26Z</time>
      </trkpt>
      <trkpt lat="47.88773" lon="-1.71614">
        <ele>40</ele>
        <time>2015-06-07T07:02:27Z</time>
      </trkpt>
      <trkpt lat="47.88769" lon="-1.71616">
        <ele>40</ele>
        <time>2015-06-07T07:02:28Z</time>
      </trkpt>
      <trkpt lat="47.88767" lon="-1.71617">
        <ele>40</ele>
        <time>2015-06-07T07:02:29Z</time>
      </trkpt>
      <trkpt lat="47.88765" lon="-1.71619">
        <ele>40</ele>
        <time>2015-06-07T07:02:30Z</time>
      </trkpt>
      <trkpt lat="47.88763" lon="-1.71621">
        <ele>40</ele>
        <time>2015-06-07T07:02:31Z</time>
      </trkpt>
      <trkpt lat="47.88761" lon="-1.71623">
        <ele>41</ele>
        <time>2015-06-07T07:02:32Z</time>
      </trkpt>
      <trkpt lat="47.88759" lon="-1.71624">
        <ele>41</ele>
        <time>2015-06-07T07:02:33Z</time>
      </trkpt>
      <trkpt lat="47.88758" lon="-1.71626">
        <ele>41</ele>
        <time>2015-06-07T07:02:34Z</time>
      </trkpt>
      <trkpt lat="47.88757" lon="-1.71628">
        <ele>42</ele>
        <time>2015-06-07T07:02:35Z</time>
      </trkpt>
      <trkpt lat="47.88755" lon="-1.7163">
        <ele>42</ele>
        <time>2015-06-07T07:02:36Z</time>
      </trkpt>
      <trkpt lat="47.88754" lon="-1.71632">
        <ele>42</ele>
        <time>2015-06-07T07:02:37Z</time>
      </trkpt>
      <trkpt lat="47.88752" lon="-1.71633">
        <ele>43</ele>
        <time>2015-06-07T07:02:38Z</time>
      </trkpt>
      <trkpt lat="47.88751" lon="-1.71634">
        <ele>43</ele>
        <time>2015-06-07T07:02:39Z</time>
      </trkpt>
      <trkpt lat="47.88751" lon="-1.71635">
        <ele>43</ele>
        <time>2015-06-07T07:02:40Z</time>
      </trkpt>
      <trkpt lat="47.88751" lon="-1.71635">
        <ele>43</ele>
        <time>2015-06-07T07:02:41Z</time>
      </trkpt>
      <trkpt lat="47.8875" lon="-1.71636">
        <ele>43</ele>
        <time>2015-06-07T07:02:42Z</time>
      </trkpt>
      <trkpt lat="47.8875" lon="-1.71636">
        <ele>43</ele>
        <time>2015-06-07T07:02:43Z</time>
      </trkpt>
      <trkpt lat="47.88749" lon="-1.71637">
        <ele>44</ele>
        <time>2015-06-07T07:02:44Z</time>
      </trkpt>
      <trkpt lat="47.88749" lon="-1.71637">
        <ele>44</ele>
        <time>2015-06-07T07:02:45Z</time>
      </trkpt>
      <trkpt lat="47.88748" lon="-1.71638">
        <ele>44</ele>
        <time>2015-06-07T07:02:46Z</time>
      </trkpt>
      <trkpt lat="47.88748" lon="-1.71639">
        <ele>44</ele>
        <time>2015-06-07T07:02:47Z</time>
      </trkpt>
      <trkpt lat="47.88747" lon="-1.7164">
        <ele>44</ele>
        <time>2015-06-07T07:02:48Z</time>
      </trkpt>
      <trkpt lat="47.88746" lon="-1.71641">
        <ele>44</ele>
        <time>2015-06-07T07:02:49Z</time>
      </trkpt>
      <trkpt lat="47.88746" lon="-1.71643">
        <ele>44</ele>
        <time>2015-06-07T07:02:50Z</time>
      </trkpt>
      <trkpt lat="47.88745" lon="-1.71644">
        <ele>44</ele>
        <time>2015-06-07T07:02:51Z</time>
      </trkpt>
      <trkpt lat="47.88743" lon="-1.71645">
        <ele>44</ele>
        <time>2015-06-07T07:02:52Z</time>
      </trkpt>
      <trkpt lat="47.88742" lon="-1.71646">
        <ele>44</ele>
        <time>2015-06-07T07:02:53Z</time>
      </trkpt>
      <trkpt lat="47.88741" lon="-1.71647">
        <ele>44</ele>
        <time>2015-06-07T07:02:54Z</time>
      </trkpt>
      <trkpt lat="47.88739" lon="-1.71649">
        <ele>44</ele>
        <time>2015-06-07T07:02:55Z</time>
      </trkpt>
      <trkpt lat="47.88739" lon="-1.71652">
        <ele>44</ele>
        <time>2015-06-07T07:02:56Z</time>
      </trkpt>
      <trkpt lat="47.88738" lon="-1.71654">
        <ele>44</ele>
        <time>2015-06-07T07:02:57Z</time>
      </trkpt>
      <trkpt lat="47.88738" lon="-1.71656">
        <ele>44</ele>
        <time>2015-06-07T07:02:58Z</time>
      </trkpt>
      <trkpt lat="47.88737" lon="-1.71659">
        <ele>44</ele>
        <time>2015-06-07T07:02:59Z</time>
      </trkpt>
      <trkpt lat="47.88736" lon="-1.71661">
        <ele>44</ele>
        <time>2015-06-07T07:03:00Z</time>
      </trkpt>
      <trkpt lat="47.88736" lon="-1.71663">
        <ele>44</ele>
        <time>2015-06-07T07:03:01Z</time>
      </trkpt>
      <trkpt lat="47.88734" lon="-1.71665">
        <ele>44</ele>
        <time>2015-06-07T07:03:02Z</time>
      </trkpt>
      <trkpt lat="47.88733" lon="-1.71667">
        <ele>45</ele>
        <time>2015-06-07T07:03:03Z</time>
      </trkpt>
      <trkpt lat="47.88732" lon="-1.71669">
        <ele>45</ele>
        <time>2015-06-07T07:03:04Z</time>
      </trkpt>
      <trkpt lat="47.88731" lon="-1.71671">
        <ele>45</ele>
        <time>2015-06-07T07:03:05Z</time>
      </trkpt>
      <trkpt lat="47.8873" lon="-1.71673">
        <ele>45</ele>
        <time>2015-06-07T07:03:06Z</time>
      </trkpt>
      <trkpt lat="47.88729" lon="-1.71675">
        <ele>45</ele>
        <time>2015-06-07T07:03:07Z</time>
      </trkpt>
      <trkpt lat="47.88728" lon="-1.71677">
        <ele>45</ele>
        <time>2015-06-07T07:03:08Z</time>
      </trkpt>
      <trkpt lat="47.88727" lon="-1.71678">
        <ele>46</ele>
        <time>2015-06-07T07:03:09Z</time>
      </trkpt>
      <trkpt lat="47.88727" lon="-1.71679">
        <ele>46</ele>
        <time>2015-06-07T07:03:10Z</time>
      </trkpt>
      <trkpt lat="47.88726" lon="-1.7168">
        <ele>46</ele>
        <time>2015-06-07T07:03:11Z</time>
      </trkpt>
      <trkpt lat="47.88724" lon="-1.71681">
        <ele>46</ele>
        <time>2015-06-07T07:03:12Z</time>
      </trkpt>
      <trkpt lat="47.88722" lon="-1.71682">
        <ele>47</ele>
        <time>2015-06-07T07:03:13Z</time>
      </trkpt>
      <trkpt lat="47.8872" lon="-1.71682">
        <ele>47</ele>
        <time>2015-06-07T07:03:14Z</time>
      </trkpt>
      <trkpt lat="47.88718" lon="-1.71682">
        <ele>47</ele>
        <time>2015-06-07T07:03:15Z</time>
      </trkpt>
      <trkpt lat="47.88716" lon="-1.71683">
        <ele>48</ele>
        <time>2015-06-07T07:03:16Z</time>
      </trkpt>
      <trkpt lat="47.88714" lon="-1.71684">
        <ele>48</ele>
        <time>2015-06-07T07:03:17Z</time>
      </trkpt>
      <trkpt lat="47.88712" lon="-1.71685">
        <ele>49</ele>
        <time>2015-06-07T07:03:18Z</time>
      </trkpt>
      <trkpt lat="47.8871" lon="-1.71687">
        <ele>49</ele>
        <time>2015-06-07T07:03:19Z</time>
      </trkpt>
      <trkpt lat="47.88708" lon="-1.71689">
        <ele>50</ele>
        <time>2015-06-07T07:03:20Z</time>
      </trkpt>
      <trkpt lat="47.88706" lon="-1.7169">
        <ele>50</ele>
        <time>2015-06-07T07:03:21Z</time>
      </trkpt>
      <trkpt lat="47.88705" lon="-1.71691">
        <ele>50</ele>
        <time>2015-06-07T07:03:22Z</time>
      </trkpt>
      <trkpt lat="47.88703" lon="-1.71692">
        <ele>51</ele>
        <time>2015-06-07T07:03:23Z</time>
      </trkpt>
      <trkpt lat="47.88702" lon="-1.71693">
        <ele>51</ele>
        <time>2015-06-07T07:03:24Z</time>
      </trkpt>
      <trkpt lat="47.88701" lon="-1.71695">
        <ele>52</ele>
        <time>2015-06-07T07:03:25Z</time>
      </trkpt>
      <trkpt lat="47.88699" lon="-1.71696">
        <ele>52</ele>
        <time>2015-06-07T07:03:26Z</time>
      </trkpt>
      <trkpt lat="47.88697" lon="-1.71698">
        <ele>52</ele>
        <time>2015-06-07T07:03:27Z</time>
      </trkpt>
      <trkpt lat="47.88696" lon="-1.71699">
        <ele>53</ele>
        <time>2015-06-07T07:03:28Z</time>
      </trkpt>
      <trkpt lat="47.88694" lon="-1.71699">
        <ele>53</ele>
        <time>2015-06-07T07:03:29Z</time>
      </trkpt>
      <trkpt lat="47.88692" lon="-1.71701">
        <ele>53</ele>
        <time>2015-06-07T07:03:30Z</time>
      </trkpt>
      <trkpt lat="47.8869" lon="-1.71702">
        <ele>54</ele>
        <time>2015-06-07T07:03:31Z</time>
      </trkpt>
      <trkpt lat="47.88688" lon="-1.71703">
        <ele>54</ele>
        <time>2015-06-07T07:03:32Z</time>
      </trkpt>
      <trkpt lat="47.88686" lon="-1.71704">
        <ele>55</ele>
        <time>2015-06-07T07:03:33Z</time>
      </trkpt>
      <trkpt lat="47.88684" lon="-1.71704">
        <ele>55</ele>
        <time>2015-06-07T07:03:34Z</time>
      </trkpt>
      <trkpt lat="47.88682" lon="-1.71703">
        <ele>55</ele>
        <time>2015-06-07T07:03:35Z</time>
      </trkpt>
      <trkpt lat="47.88681" lon="-1.71702">
        <ele>56</ele>
        <time>2015-06-07T07:03:36Z</time>
      </trkpt>
      <trkpt lat="47.88679" lon="-1.71701">
        <ele>56</ele>
        <time>2015-06-07T07:03:37Z</time>
      </trkpt>
      <trkpt lat="47.88678" lon="-1.717">
        <ele>56</ele>
        <time>2015-06-07T07:03:38Z</time>
      </trkpt>
      <trkpt lat="47.88676" lon="-1.71699">
        <ele>57</ele>
        <time>2015-06-07T07:03:39Z</time>
      </trkpt>
      <trkpt lat="47.88675" lon="-1.71699">
        <ele>57</ele>
        <time>2015-06-07T07:03:40Z</time>
      </trkpt>
      <trkpt lat="47.88673" lon="-1.71698">
        <ele>58</ele>
        <time>2015-06-07T07:03:41Z</time>
      </trkpt>
      <trkpt lat="47.88672" lon="-1.71696">
        <ele>58</ele>
        <time>2015-06-07T07:03:42Z</time>
      </trkpt>
      <trkpt lat="47.88671" lon="-1.71695">
        <ele>58</ele>
        <time>2015-06-07T07:03:43Z</time>
      </trkpt>
      <trkpt lat="47.8867" lon="-1.71694">
        <ele>58</ele>
        <time>2015-06-07T07:03:44Z</time>
      </trkpt>
      <trkpt lat="47.88669" lon="-1.71693">
        <ele>59</ele>
        <time>2015-06-07T07:03:45Z</time>
      </trkpt>
      <trkpt lat="47.88668" lon="-1.71693">
        <ele>59</ele>
        <time>2015-06-07T07:03:46Z</time>
      </trkpt>
      <trkpt lat="47.88668" lon="-1.71692">
        <ele>59</ele>
        <time>2015-06-07T07:03:47Z</time>
      </trkpt>
      <trkpt lat="47.88668" lon="-1.7169">
        <ele>60</ele>
        <time>2015-06-07T07:03:48Z</time>
      </trkpt>
      <trkpt lat="47.88668" lon="-1.71688">
        <ele>60</ele>
        <time>2015-06-07T07:03:49Z</time>
      </trkpt>
      <trkpt lat="47.88667" lon="-1.71686">
        <ele>60</ele>
        <time>2015-06-07T07:03:50Z</time>
      </trkpt>
      <trkpt lat="47.88667" lon="-1.71685">
        <ele>60</ele>
        <time>2015-06-07T07:03:51Z</time>
      </trkpt>
      <trkpt lat="47.88666" lon="-1.71682">
        <ele>60</ele>
        <time>2015-06-07T07:03:52Z</time>
      </trkpt>
      <trkpt lat="47.88665" lon="-1.7168">
        <ele>61</ele>
        <time>2015-06-07T07:03:53Z</time>
      </trkpt>
      <trkpt lat="47.88663" lon="-1.71679">
        <ele>61</ele>
        <time>2015-06-07T07:03:54Z</time>
      </trkpt>
      <trkpt lat="47.88662" lon="-1.71677">
        <ele>61</ele>
        <time>2015-06-07T07:03:55Z</time>
      </trkpt>
      <trkpt lat="47.88662" lon="-1.71675">
        <ele>62</ele>
        <time>2015-06-07T07:03:56Z</time>
      </trkpt>
      <trkpt lat="47.88663" lon="-1.71673">
        <ele>62</ele>
        <time>2015-06-07T07:03:57Z</time>
      </trkpt>
      <trkpt lat="47.88663" lon="-1.7167">
        <ele>62</ele>
        <time>2015-06-07T07:03:58Z</time>
      </trkpt>
      <trkpt lat="47.88663" lon="-1.71668">
        <ele>62</ele>
        <time>2015-06-07T07:03:59Z</time>
      </trkpt>
      <trkpt lat="47.88663" lon="-1.71666">
        <ele>63</ele>
        <time>2015-06-07T07:04:00Z</time>
      </trkpt>
      <trkpt lat="47.88662" lon="-1.71664">
        <ele>63</ele>
        <time>2015-06-07T07:04:01Z</time>
      </trkpt>
      <trkpt lat="47.88661" lon="-1.71662">
        <ele>63</ele>
        <time>2015-06-07T07:04:02Z</time>
      </trkpt>
      <trkpt lat="47.88662" lon="-1.71658">
        <ele>63</ele>
        <time>2015-06-07T07:04:03Z</time>
      </trkpt>
      <trkpt lat="47.88664" lon="-1.71652">
        <ele>63</ele>
        <time>2015-06-07T07:04:04Z</time>
      </trkpt>
      <trkpt lat="47.88665" lon="-1.71646">
        <ele>63</ele>
        <time>2015-06-07T07:04:05Z</time>
      </trkpt>
      <trkpt lat="47.88664" lon="-1.71641">
        <ele>63</ele>
        <time>2015-06-07T07:04:06Z</time>
      </trkpt>
      <trkpt lat="47.88664" lon="-1.71637">
        <ele>63</ele>
        <time>2015-06-07T07:04:07Z</time>
      </trkpt>
      <trkpt lat="47.88664" lon="-1.71633">
        <ele>63</ele>
        <time>2015-06-07T07:04:08Z</time>
      </trkpt>
      <trkpt lat="47.88665" lon="-1.7163">
        <ele>63</ele>
        <time>2015-06-07T07:04:09Z</time>
      </trkpt>
      <trkpt lat="47.88667" lon="-1.71626">
        <ele>63</ele>
        <time>2015-06-07T07:04:10Z</time>
      </trkpt>
      <trkpt lat="47.88671" lon="-1.71623">
        <ele>63</ele>
        <time>2015-06-07T07:04:11Z</time>
      </trkpt>
      <trkpt lat="47.88675" lon="-1.71619">
        <ele>62</ele>
        <time>2015-06-07T07:04:12Z</time>
      </trkpt>
      <trkpt lat="47.8868" lon="-1.71615">
        <ele>62</ele>
        <time>2015-06-07T07:04:13Z</time>
      </trkpt>
      <trkpt lat="47.88686" lon="-1.7161">
        <ele>61</ele>
        <time>2015-06-07T07:04:14Z</time>
      </trkpt>
      <trkpt lat="47.88692" lon="-1.71604">
        <ele>61</ele>
        <time>2015-06-07T07:04:15Z</time>
      </trkpt>
      <trkpt lat="47.88697" lon="-1.71599">
        <ele>60</ele>
        <time>2015-06-07T07:04:16Z</time>
      </trkpt>
      <trkpt lat="47.88703" lon="-1.71593">
        <ele>59</ele>
        <time>2015-06-07T07:04:17Z</time>
      </trkpt>
      <trkpt lat="47.88707" lon="-1.71588">
        <ele>58</ele>
        <time>2015-06-07T07:04:18Z</time>
      </trkpt>
      <trkpt lat="47.8871" lon="-1.7158">
        <ele>57</ele>
        <time>2015-06-07T07:04:19Z</time>
      </trkpt>
      <trkpt lat="47.88712" lon="-1.71573">
        <ele>56</ele>
        <time>2015-06-07T07:04:20Z</time>
      </trkpt>
      <trkpt lat="47.88713" lon="-1.71564">
        <ele>55</ele>
        <time>2015-06-07T07:04:21Z</time>
      </trkpt>
      <trkpt lat="47.88711" lon="-1.71556">
        <ele>55</ele>
        <time>2015-06-07T07:04:22Z</time>
      </trkpt>
      <trkpt lat="47.8871" lon="-1.71547">
        <ele>54</ele>
        <time>2015-06-07T07:04:23Z</time>
      </trkpt>
      <trkpt lat="47.88709" lon="-1.71538">
        <ele>54</ele>
        <time>2015-06-07T07:04:24Z</time>
      </trkpt>
      <trkpt lat="47.88707" lon="-1.7153">
        <ele>54</ele>
        <time>2015-06-07T07:04:25Z</time>
      </trkpt>
      <trkpt lat="47.88706" lon="-1.71521">
        <ele>54</ele>
        <time>2015-06-07T07:04:26Z</time>
      </trkpt>
      <trkpt lat="47.88704" lon="-1.71512">
        <ele>53</ele>
        <time>2015-06-07T07:04:27Z</time>
      </trkpt>
      <trkpt lat="47.88703" lon="-1.71503">
        <ele>53</ele>
        <time>2015-06-07T07:04:28Z</time>
      </trkpt>
      <trkpt lat="47.88702" lon="-1.71493">
        <ele>53</ele>
        <time>2015-06-07T07:04:29Z</time>
      </trkpt>
      <trkpt lat="47.88701" lon="-1.71485">
        <ele>53</ele>
        <time>2015-06-07T07:04:30Z</time>
      </trkpt>
      <trkpt lat="47.88699" lon="-1.71475">
        <ele>53</ele>
        <time>2015-06-07T07:04:31Z</time>
      </trkpt>
      <trkpt lat="47.88698" lon="-1.71466">
        <ele>52</ele>
        <time>2015-06-07T07:04:32Z</time>
      </trkpt>
      <trkpt lat="47.88696" lon="-1.71457">
        <ele>52</ele>
        <time>2015-06-07T07:04:33Z</time>
      </trkpt>
      <trkpt lat="47.88695" lon="-1.71448">
        <ele>52</ele>
        <time>2015-06-07T07:04:34Z</time>
      </trkpt>
      <trkpt lat="47.88694" lon="-1.71439">
        <ele>52</ele>
        <time>2015-06-07T07:04:35Z</time>
      </trkpt>
      <trkpt lat="47.88693" lon="-1.7143">
        <ele>52</ele>
        <time>2015-06-07T07:04:36Z</time>
      </trkpt>
      <trkpt lat="47.88691" lon="-1.7142">
        <ele>51</ele>
        <time>2015-06-07T07:04:37Z</time>
      </trkpt>
      <trkpt lat="47.8869" lon="-1.7141">
        <ele>51</ele>
        <time>2015-06-07T07:04:38Z</time>
      </trkpt>
      <trkpt lat="47.88689" lon="-1.714">
        <ele>51</ele>
        <time>2015-06-07T07:04:39Z</time>
      </trkpt>
      <trkpt lat="47.88687" lon="-1.7139">
        <ele>50</ele>
        <time>2015-06-07T07:04:40Z</time>
      </trkpt>
      <trkpt lat="47.88686" lon="-1.71378">
        <ele>49</ele>
        <time>2015-06-07T07:04:41Z</time>
      </trkpt>
      <trkpt lat="47.88685" lon="-1.71367">
        <ele>49</ele>
        <time>2015-06-07T07:04:42Z</time>
      </trkpt>
      <trkpt lat="47.88683" lon="-1.71354">
        <ele>48</ele>
        <time>2015-06-07T07:04:43Z</time>
      </trkpt>
      <trkpt lat="47.88681" lon="-1.71342">
        <ele>47</ele>
        <time>2015-06-07T07:04:44Z</time>
      </trkpt>
      <trkpt lat="47.8868" lon="-1.71329">
        <ele>46</ele>
        <time>2015-06-07T07:04:45Z</time>
      </trkpt>
      <trkpt lat="47.88679" lon="-1.71315">
        <ele>46</ele>
        <time>2015-06-07T07:04:46Z</time>
      </trkpt>
      <trkpt lat="47.88677" lon="-1.71302">
        <ele>45</ele>
        <time>2015-06-07T07:04:47Z</time>
      </trkpt>
      <trkpt lat="47.88675" lon="-1.71288">
        <ele>44</ele>
        <time>2015-06-07T07:04:48Z</time>
      </trkpt>
      <trkpt lat="47.88673" lon="-1.71274">
        <ele>43</ele>
        <time>2015-06-07T07:04:49Z</time>
      </trkpt>
      <trkpt lat="47.88671" lon="-1.7126">
        <ele>43</ele>
        <time>2015-06-07T07:04:50Z</time>
      </trkpt>
      <trkpt lat="47.88669" lon="-1.71246">
        <ele>42</ele>
        <time>2015-06-07T07:04:51Z</time>
      </trkpt>
      <trkpt lat="47.88667" lon="-1.71231">
        <ele>41</ele>
        <time>2015-06-07T07:04:52Z</time>
      </trkpt>
      <trkpt lat="47.88665" lon="-1.71217">
        <ele>41</ele>
        <time>2015-06-07T07:04:53Z</time>
      </trkpt>
      <trkpt lat="47.88664" lon="-1.71203">
        <ele>40</ele>
        <time>2015-06-07T07:04:54Z</time>
      </trkpt>
      <trkpt lat="47.88664" lon="-1.7119">
        <ele>40</ele>
        <time>2015-06-07T07:04:55Z</time>
      </trkpt>
      <trkpt lat="47.88665" lon="-1.71176">
        <ele>39</ele>
        <time>2015-06-07T07:04:56Z</time>
      </trkpt>
      <trkpt lat="47.88667" lon="-1.71162">
        <ele>38</ele>
        <time>2015-06-07T07:04:57Z</time>
      </trkpt>
      <trkpt lat="47.88669" lon="-1.71148">
        <ele>38</ele>
        <time>2015-06-07T07:04:58Z</time>
      </trkpt>
      <trkpt lat="47.88671" lon="-1.71134">
        <ele>37</ele>
        <time>2015-06-07T07:04:59Z</time>
      </trkpt>
      <trkpt lat="47.88673" lon="-1.7112">
        <ele>37</ele>
        <time>2015-06-07T07:05:00Z</time>
      </trkpt>
      <trkpt lat="47.88674" lon="-1.71109">
        <ele>36</ele>
        <time>2015-06-07T07:05:01Z</time>
      </trkpt>
      <trkpt lat="47.88675" lon="-1.711">
        <ele>36</ele>
        <time>2015-06-07T07:05:02Z</time>
      </trkpt>
      <trkpt lat="47.88677" lon="-1.71093">
        <ele>35</ele>
        <time>2015-06-07T07:05:03Z</time>
      </trkpt>
      <trkpt lat="47.88677" lon="-1.71088">
        <ele>35</ele>
        <time>2015-06-07T07:05:04Z</time>
      </trkpt>
      <trkpt lat="47.88677" lon="-1.71084">
        <ele>34</ele>
        <time>2015-06-07T07:05:05Z</time>
      </trkpt>
      <trkpt lat="47.88675" lon="-1.71082">
        <ele>34</ele>
        <time>2015-06-07T07:05:06Z</time>
      </trkpt>
      <trkpt lat="47.88673" lon="-1.71084">
        <ele>34</ele>
        <time>2015-06-07T07:05:07Z</time>
      </trkpt>
      <trkpt lat="47.88671" lon="-1.71086">
        <ele>35</ele>
        <time>2015-06-07T07:05:08Z</time>
      </trkpt>
      <trkpt lat="47.8867" lon="-1.71089">
        <ele>35</ele>
        <time>2015-06-07T07:05:09Z</time>
      </trkpt>
      <trkpt lat="47.88669" lon="-1.71091">
        <ele>35</ele>
        <time>2015-06-07T07:05:10Z</time>
      </trkpt>
      <trkpt lat="47.88667" lon="-1.71093">
        <ele>35</ele>
        <time>2015-06-07T07:05:11Z</time>
      </trkpt>
      <trkpt lat="47.88665" lon="-1.71095">
        <ele>35</ele>
        <time>2015-06-07T07:05:12Z</time>
      </trkpt>
      <trkpt lat="47.88663" lon="-1.71096">
        <ele>35</ele>
        <time>2015-06-07T07:05:13Z</time>
      </trkpt>
      <trkpt lat="47.88661" lon="-1.71097">
        <ele>35</ele>
        <time>2015-06-07T07:05:14Z</time>
      </trkpt>
      <trkpt lat="47.8866" lon="-1.71097">
        <ele>35</ele>
        <time>2015-06-07T07:05:15Z</time>
      </trkpt>
      <trkpt lat="47.88658" lon="-1.71098">
        <ele>35</ele>
        <time>2015-06-07T07:05:16Z</time>
      </trkpt>
      <trkpt lat="47.88657" lon="-1.71097">
        <ele>35</ele>
        <time>2015-06-07T07:05:17Z</time>
      </trkpt>
      <trkpt lat="47.88654" lon="-1.71097">
        <ele>35</ele>
        <time>2015-06-07T07:05:18Z</time>
      </trkpt>
      <trkpt lat="47.88652" lon="-1.71096">
        <ele>35</ele>
        <time>2015-06-07T07:05:19Z</time>
      </trkpt>
      <trkpt lat="47.8865" lon="-1.71097">
        <ele>35</ele>
        <time>2015-06-07T07:05:20Z</time>
      </trkpt>
      <trkpt lat="47.88647" lon="-1.71097">
        <ele>35</ele>
        <time>2015-06-07T07:05:21Z</time>
      </trkpt>
      <trkpt lat="47.88645" lon="-1.71098">
        <ele>34</ele>
        <time>2015-06-07T07:05:22Z</time>
      </trkpt>
      <trkpt lat="47.88642" lon="-1.71098">
        <ele>34</ele>
        <time>2015-06-07T07:05:23Z</time>
      </trkpt>
      <trkpt lat="47.8864" lon="-1.71098">
        <ele>35</ele>
        <time>2015-06-07T07:05:24Z</time>
      </trkpt>
      <trkpt lat="47.88637" lon="-1.71098">
        <ele>35</ele>
        <time>2015-06-07T07:05:25Z</time>
      </trkpt>
      <trkpt lat="47.88635" lon="-1.71098">
        <ele>35</ele>
        <time>2015-06-07T07:05:26Z</time>
      </trkpt>
      <trkpt lat="47.88633" lon="-1.71099">
        <ele>35</ele>
        <time>2015-06-07T07:05:27Z</time>
      </trkpt>
      <trkpt lat="47.8863" lon="-1.71099">
        <ele>35</ele>
        <time>2015-06-07T07:05:28Z</time>
      </trkpt>
      <trkpt lat="47.88628" lon="-1.71099">
        <ele>35</ele>
        <time>2015-06-07T07:05:29Z</time>
      </trkpt>
      <trkpt lat="47.88626" lon="-1.711">
        <ele>35</ele>
        <time>2015-06-07T07:05:30Z</time>
      </trkpt>
      <trkpt lat="47.88624" lon="-1.711">
        <ele>35</ele>
        <time>2015-06-07T07:05:31Z</time>
      </trkpt>
      <trkpt lat="47.88621" lon="-1.711">
        <ele>35</ele>
        <time>2015-06-07T07:05:32Z</time>
      </trkpt>
      <trkpt lat="47.88619" lon="-1.711">
        <ele>35</ele>
        <time>2015-06-07T07:05:33Z</time>
      </trkpt>
      <trkpt lat="47.88617" lon="-1.71099">
        <ele>35</ele>
        <time>2015-06-07T07:05:34Z</time>
      </trkpt>
      <trkpt lat="47.88615" lon="-1.71099">
        <ele>36</ele>
        <time>2015-06-07T07:05:35Z</time>
      </trkpt>
      <trkpt lat="47.88613" lon="-1.71099">
        <ele>36</ele>
        <time>2015-06-07T07:05:36Z</time>
      </trkpt>
      <trkpt lat="47.88611" lon="-1.71098">
        <ele>36</ele>
        <time>2015-06-07T07:05:37Z</time>
      </trkpt>
      <trkpt lat="47.88608" lon="-1.71098">
        <ele>36</ele>
        <time>2015-06-07T07:05:38Z</time>
      </trkpt>
      <trkpt lat="47.88606" lon="-1.71098">
        <ele>36</ele>
        <time>2015-06-07T07:05:39Z</time>
      </trkpt>
      <trkpt lat="47.88604" lon="-1.71098">
        <ele>37</ele>
        <time>2015-06-07T07:05:40Z</time>
      </trkpt>
      <trkpt lat="47.88602" lon="-1.71098">
        <ele>37</ele>
        <time>2015-06-07T07:05:41Z</time>
      </trkpt>
      <trkpt lat="47.886" lon="-1.71098">
        <ele>37</ele>
        <time>2015-06-07T07:05:42Z</time>
      </trkpt>
      <trkpt lat="47.88598" lon="-1.71099">
        <ele>37</ele>
        <time>2015-06-07T07:05:43Z</time>
      </trkpt>
      <trkpt lat="47.88596" lon="-1.71099">
        <ele>38</ele>
        <time>2015-06-07T07:05:44Z</time>
      </trkpt>
      <trkpt lat="47.88594" lon="-1.711">
        <ele>38</ele>
        <time>2015-06-07T07:05:45Z</time>
      </trkpt>
      <trkpt lat="47.88592" lon="-1.71101">
        <ele>38</ele>
        <time>2015-06-07T07:05:46Z</time>
      </trkpt>
      <trkpt lat="47.88591" lon="-1.71102">
        <ele>39</ele>
        <time>2015-06-07T07:05:47Z</time>
      </trkpt>
      <trkpt lat="47.88589" lon="-1.71104">
        <ele>39</ele>
        <time>2015-06-07T07:05:48Z</time>
      </trkpt>
      <trkpt lat="47.88587" lon="-1.71105">
        <ele>39</ele>
        <time>2015-06-07T07:05:49Z</time>
      </trkpt>
      <trkpt lat="47.88585" lon="-1.71106">
        <ele>39</ele>
        <time>2015-06-07T07:05:50Z</time>
      </trkpt>
      <trkpt lat="47.88584" lon="-1.71107">
        <ele>40</ele>
        <time>2015-06-07T07:05:51Z</time>
      </trkpt>
      <trkpt lat="47.88583" lon="-1.71108">
        <ele>40</ele>
        <time>2015-06-07T07:05:52Z</time>
      </trkpt>
      <trkpt lat="47.88582" lon="-1.7111">
        <ele>40</ele>
        <time>2015-06-07T07:05:53Z</time>
      </trkpt>
      <trkpt lat="47.88581" lon="-1.71111">
        <ele>40</ele>
        <time>2015-06-07T07:05:54Z</time>
      </trkpt>
      <trkpt lat="47.8858" lon="-1.71112">
        <ele>40</ele>
        <time>2015-06-07T07:05:55Z</time>
      </trkpt>
      <trkpt lat="47.88578" lon="-1.71112">
        <ele>41</ele>
        <time>2015-06-07T07:05:56Z</time>
      </trkpt>
      <trkpt lat="47.88577" lon="-1.71113">
        <ele>41</ele>
        <time>2015-06-07T07:05:57Z</time>
      </trkpt>
      <trkpt lat="47.88576" lon="-1.71113">
        <ele>41</ele>
        <time>2015-06-07T07:05:58Z</time>
      </trkpt>
      <trkpt lat="47.88575" lon="-1.71113">
        <ele>41</ele>
        <time>2015-06-07T07:05:59Z</time>
      </trkpt>
      <trkpt lat="47.88573" lon="-1.71114">
        <ele>41</ele>
        <time>2015-06-07T07:06:00Z</time>
      </trkpt>
      <trkpt lat="47.88572" lon="-1.71114">
        <ele>41</ele>
        <time>2015-06-07T07:06:01Z</time>
      </trkpt>
      <trkpt lat="47.8857" lon="-1.71114">
        <ele>42</ele>
        <time>2015-06-07T07:06:02Z</time>
      </trkpt>
      <trkpt lat="47.8857" lon="-1.71114">
        <ele>42</ele>
        <time>2015-06-07T07:06:03Z</time>
      </trkpt>
      <trkpt lat="47.88569" lon="-1.71114">
        <ele>42</ele>
        <time>2015-06-07T07:06:04Z</time>
      </trkpt>
      <trkpt lat="47.88567" lon="-1.71114">
        <ele>42</ele>
        <time>2015-06-07T07:06:05Z</time>
      </trkpt>
      <trkpt lat="47.88565" lon="-1.71115">
        <ele>43</ele>
        <time>2015-06-07T07:06:06Z</time>
      </trkpt>
      <trkpt lat="47.88564" lon="-1.71115">
        <ele>43</ele>
        <time>2015-06-07T07:06:07Z</time>
      </trkpt>
      <trkpt lat="47.88564" lon="-1.71115">
        <ele>43</ele>
        <time>2015-06-07T07:06:08Z</time>
      </trkpt>
      <trkpt lat="47.88562" lon="-1.71116">
        <ele>43</ele>
        <time>2015-06-07T07:06:09Z</time>
      </trkpt>
      <trkpt lat="47.88561" lon="-1.71117">
        <ele>43</ele>
        <time>2015-06-07T07:06:10Z</time>
      </trkpt>
      <trkpt lat="47.88559" lon="-1.71118">
        <ele>43</ele>
        <time>2015-06-07T07:06:11Z</time>
      </trkpt>
      <trkpt lat="47.88557" lon="-1.71119">
        <ele>44</ele>
        <time>2015-06-07T07:06:12Z</time>
      </trkpt>
      <trkpt lat="47.88555" lon="-1.71119">
        <ele>44</ele>
        <time>2015-06-07T07:06:13Z</time>
      </trkpt>
      <trkpt lat="47.88554" lon="-1.7112">
        <ele>44</ele>
        <time>2015-06-07T07:06:14Z</time>
      </trkpt>
      <trkpt lat="47.88552" lon="-1.7112">
        <ele>45</ele>
        <time>2015-06-07T07:06:15Z</time>
      </trkpt>
      <trkpt lat="47.88551" lon="-1.71121">
        <ele>45</ele>
        <time>2015-06-07T07:06:16Z</time>
      </trkpt>
      <trkpt lat="47.88549" lon="-1.71121">
        <ele>45</ele>
        <time>2015-06-07T07:06:17Z</time>
      </trkpt>
      <trkpt lat="47.88548" lon="-1.71121">
        <ele>46</ele>
        <time>2015-06-07T07:06:18Z</time>
      </trkpt>
      <trkpt lat="47.88546" lon="-1.71122">
        <ele>46</ele>
        <time>2015-06-07T07:06:19Z</time>
      </trkpt>
      <trkpt lat="47.88545" lon="-1.71122">
        <ele>47</ele>
        <time>2015-06-07T07:06:20Z</time>
      </trkpt>
      <trkpt lat="47.88543" lon="-1.71122">
        <ele>47</ele>
        <time>2015-06-07T07:06:21Z</time>
      </trkpt>
      <trkpt lat="47.88542" lon="-1.71122">
        <ele>47</ele>
        <time>2015-06-07T07:06:22Z</time>
      </trkpt>
      <trkpt lat="47.8854" lon="-1.71122">
        <ele>48</ele>
        <time>2015-06-07T07:06:23Z</time>
      </trkpt>
      <trkpt lat="47.88539" lon="-1.71123">
        <ele>48</ele>
        <time>2015-06-07T07:06:24Z</time>
      </trkpt>
      <trkpt lat="47.88537" lon="-1.71123">
        <ele>49</ele>
        <time>2015-06-07T07:06:25Z</time>
      </trkpt>
      <trkpt lat="47.88536" lon="-1.71123">
        <ele>49</ele>
        <time>2015-06-07T07:06:26Z</time>
      </trkpt>
      <trkpt lat="47.88534" lon="-1.71123">
        <ele>49</ele>
        <time>2015-06-07T07:06:27Z</time>
      </trkpt>
      <trkpt lat="47.88533" lon="-1.71123">
        <ele>50</ele>
        <time>2015-06-07T07:06:28Z</time>
      </trkpt>
      <trkpt lat="47.88531" lon="-1.71123">
        <ele>50</ele>
        <time>2015-06-07T07:06:29Z</time>
      </trkpt>
      <trkpt lat="47.88529" lon="-1.71123">
        <ele>51</ele>
        <time>2015-06-07T07:06:30Z</time>
      </trkpt>
      <trkpt lat="47.88528" lon="-1.71123">
        <ele>51</ele>
        <time>2015-06-07T07:06:31Z</time>
      </trkpt>
      <trkpt lat="47.88526" lon="-1.71123">
        <ele>52</ele>
        <time>2015-06-07T07:06:32Z</time>
      </trkpt>
      <trkpt lat="47.88525" lon="-1.71123">
        <ele>52</ele>
        <time>2015-06-07T07:06:33Z</time>
      </trkpt>
      <trkpt lat="47.88524" lon="-1.71123">
        <ele>53</ele>
        <time>2015-06-07T07:06:34Z</time>
      </trkpt>
      <trkpt lat="47.88522" lon="-1.71124">
        <ele>53</ele>
        <time>2015-06-07T07:06:35Z</time>
      </trkpt>
      <trkpt lat="47.88521" lon="-1.71124">
        <ele>54</ele>
        <time>2015-06-07T07:06:36Z</time>
      </trkpt>
      <trkpt lat="47.88519" lon="-1.71125">
        <ele>54</ele>
        <time>2015-06-07T07:06:37Z</time>
      </trkpt>
      <trkpt lat="47.88518" lon="-1.71125">
        <ele>55</ele>
        <time>2015-06-07T07:06:38Z</time>
      </trkpt>
      <trkpt lat="47.88517" lon="-1.71126">
        <ele>55</ele>
        <time>2015-06-07T07:06:39Z</time>
      </trkpt>
      <trkpt lat="47.88516" lon="-1.71127">
        <ele>55</ele>
        <time>2015-06-07T07:06:40Z</time>
      </trkpt>
      <trkpt lat="47.88515" lon="-1.71128">
        <ele>56</ele>
        <time>2015-06-07T07:06:41Z</time>
      </trkpt>
      <trkpt lat="47.88514" lon="-1.71129">
        <ele>56</ele>
        <time>2015-06-07T07:06:42Z</time>
      </trkpt>
      <trkpt lat="47.88514" lon="-1.71131">
        <ele>56</ele>
        <time>2015-06-07T07:06:43Z</time>
      </trkpt>
      <trkpt lat="47.88513" lon="-1.71132">
        <ele>57</ele>
        <time>2015-06-07T07:06:44Z</time>
      </trkpt>
      <trkpt lat="47.88512" lon="-1.71133">
        <ele>57</ele>
        <time>2015-06-07T07:06:45Z</time>
      </trkpt>
      <trkpt lat="47.88511" lon="-1.71135">
        <ele>57</ele>
        <time>2015-06-07T07:06:46Z</time>
      </trkpt>
      <trkpt lat="47.8851" lon="-1.71136">
        <ele>57</ele>
        <time>2015-06-07T07:06:47Z</time>
      </trkpt>
      <trkpt lat="47.88509" lon="-1.71137">
        <ele>57</ele>
        <time>2015-06-07T07:06:48Z</time>
      </trkpt>
      <trkpt lat="47.88508" lon="-1.71138">
        <ele>57</ele>
        <time>2015-06-07T07:06:49Z</time>
      </trkpt>
      <trkpt lat="47.88506" lon="-1.71138">
        <ele>58</ele>
        <time>2015-06-07T07:06:50Z</time>
      </trkpt>
      <trkpt lat="47.88505" lon="-1.71137">
        <ele>58</ele>
        <time>2015-06-07T07:06:51Z</time>
      </trkpt>
      <trkpt lat="47.88504" lon="-1.71136">
        <ele>58</ele>
        <time>2015-06-07T07:06:52Z</time>
      </trkpt>
      <trkpt lat="47.88503" lon="-1.71134">
        <ele>58</ele>
        <time>2015-06-07T07:06:53Z</time>
      </trkpt>
      <trkpt lat="47.88502" lon="-1.71131">
        <ele>58</ele>
        <time>2015-06-07T07:06:54Z</time>
      </trkpt>
      <trkpt lat="47.88501" lon="-1.71128">
        <ele>59</ele>
        <time>2015-06-07T07:06:55Z</time>
      </trkpt>
      <trkpt lat="47.885" lon="-1.71124">
        <ele>59</ele>
        <time>2015-06-07T07:06:56Z</time>
      </trkpt>
      <trkpt lat="47.88499" lon="-1.71121">
        <ele>59</ele>
        <time>2015-06-07T07:06:57Z</time>
      </trkpt>
      <trkpt lat="47.88498" lon="-1.71116">
        <ele>59</ele>
        <time>2015-06-07T07:06:58Z</time>
      </trkpt>
      <trkpt lat="47.88497" lon="-1.71111">
        <ele>59</ele>
        <time>2015-06-07T07:06:59Z</time>
      </trkpt>
      <trkpt lat="47.88496" lon="-1.71106">
        <ele>60</ele>
        <time>2015-06-07T07:07:00Z</time>
      </trkpt>
      <trkpt lat="47.88495" lon="-1.711">
        <ele>60</ele>
        <time>2015-06-07T07:07:01Z</time>
      </trkpt>
      <trkpt lat="47.88493" lon="-1.71093">
        <ele>60</ele>
        <time>2015-06-07T07:07:02Z</time>
      </trkpt>
      <trkpt lat="47.88492" lon="-1.71086">
        <ele>60</ele>
        <time>2015-06-07T07:07:03Z</time>
      </trkpt>
      <trkpt lat="47.8849" lon="-1.71079">
        <ele>60</ele>
        <time>2015-06-07T07:07:04Z</time>
      </trkpt>
      <trkpt lat="47.88488" lon="-1.7107">
        <ele>60</ele>
        <time>2015-06-07T07:07:05Z</time>
      </trkpt>
      <trkpt lat="47.88486" lon="-1.71062">
        <ele>60</ele>
        <time>2015-06-07T07:07:06Z</time>
      </trkpt>
      <trkpt lat="47.88484" lon="-1.71053">
        <ele>60</ele>
        <time>2015-06-07T07:07:07Z</time>
      </trkpt>
      <trkpt lat="47.88482" lon="-1.71044">
        <ele>60</ele>
        <time>2015-06-07T07:07:08Z</time>
      </trkpt>
      <trkpt lat="47.8848" lon="-1.71035">
        <ele>60</ele>
        <time>2015-06-07T07:07:09Z</time>
      </trkpt>
      <trkpt lat="47.88478" lon="-1.71026">
        <ele>59</ele>
        <time>2015-06-07T07:07:10Z</time>
      </trkpt>
      <trkpt lat="47.88476" lon="-1.71018">
        <ele>59</ele>
        <time>2015-06-07T07:07:11Z</time>
      </trkpt>
      <trkpt lat="47.88474" lon="-1.71009">
        <ele>59</ele>
        <time>2015-06-07T07:07:12Z</time>
      </trkpt>
      <trkpt lat="47.88472" lon="-1.71">
        <ele>59</ele>
        <time>2015-06-07T07:07:13Z</time>
      </trkpt>
      <trkpt lat="47.88469" lon="-1.70991">
        <ele>59</ele>
        <time>2015-06-07T07:07:14Z</time>
      </trkpt>
      <trkpt lat="47.88467" lon="-1.70982">
        <ele>58</ele>
        <time>2015-06-07T07:07:15Z</time>
      </trkpt>
      <trkpt lat="47.88464" lon="-1.70973">
        <ele>58</ele>
        <time>2015-06-07T07:07:16Z</time>
      </trkpt>
      <trkpt lat="47.88462" lon="-1.70963">
        <ele>58</ele>
        <time>2015-06-07T07:07:17Z</time>
      </trkpt>
      <trkpt lat="47.88459" lon="-1.70955">
        <ele>58</ele>
        <time>2015-06-07T07:07:18Z</time>
      </trkpt>
      <trkpt lat="47.88456" lon="-1.70946">
        <ele>58</ele>
        <time>2015-06-07T07:07:19Z</time>
      </trkpt>
      <trkpt lat="47.88452" lon="-1.70937">
        <ele>57</ele>
        <time>2015-06-07T07:07:20Z</time>
      </trkpt>
      <trkpt lat="47.88448" lon="-1.7093">
        <ele>57</ele>
        <time>2015-06-07T07:07:21Z</time>
      </trkpt>
      <trkpt lat="47.88444" lon="-1.70922">
        <ele>57</ele>
        <time>2015-06-07T07:07:22Z</time>
      </trkpt>
      <trkpt lat="47.8844" lon="-1.70915">
        <ele>57</ele>
        <time>2015-06-07T07:07:23Z</time>
      </trkpt>
      <trkpt lat="47.88436" lon="-1.70909">
        <ele>57</ele>
        <time>2015-06-07T07:07:24Z</time>
      </trkpt>
      <trkpt lat="47.88431" lon="-1.70902">
        <ele>57</ele>
        <time>2015-06-07T07:07:25Z</time>
      </trkpt>
      <trkpt lat="47.88427" lon="-1.70896">
        <ele>56</ele>
        <time>2015-06-07T07:07:26Z</time>
      </trkpt>
      <trkpt lat="47.88423" lon="-1.7089">
        <ele>56</ele>
        <time>2015-06-07T07:07:27Z</time>
      </trkpt>
      <trkpt lat="47.88419" lon="-1.70885">
        <ele>56</ele>
        <time>2015-06-07T07:07:28Z</time>
      </trkpt>
      <trkpt lat="47.88415" lon="-1.7088">
        <ele>56</ele>
        <time>2015-06-07T07:07:29Z</time>
      </trkpt>
      <trkpt lat="47.8841" lon="-1.70877">
        <ele>56</ele>
        <time>2015-06-07T07:07:30Z</time>
      </trkpt>
      <trkpt lat="47.88406" lon="-1.70876">
        <ele>56</ele>
        <time>2015-06-07T07:07:31Z</time>
      </trkpt>
      <trkpt lat="47.88401" lon="-1.70876">
        <ele>56</ele>
        <time>2015-06-07T07:07:32Z</time>
      </trkpt>
      <trkpt lat="47.88396" lon="-1.70877">
        <ele>57</ele>
        <time>2015-06-07T07:07:33Z</time>
      </trkpt>
      <trkpt lat="47.88392" lon="-1.70879">
        <ele>57</ele>
        <time>2015-06-07T07:07:34Z</time>
      </trkpt>
      <trkpt lat="47.88388" lon="-1.70882">
        <ele>57</ele>
        <time>2015-06-07T07:07:35Z</time>
      </trkpt>
      <trkpt lat="47.88384" lon="-1.70885">
        <ele>57</ele>
        <time>2015-06-07T07:07:36Z</time>
      </trkpt>
      <trkpt lat="47.8838" lon="-1.70888">
        <ele>57</ele>
        <time>2015-06-07T07:07:37Z</time>
      </trkpt>
      <trkpt lat="47.88377" lon="-1.70892">
        <ele>58</ele>
        <time>2015-06-07T07:07:38Z</time>
      </trkpt>
      <trkpt lat="47.88373" lon="-1.70895">
        <ele>58</ele>
        <time>2015-06-07T07:07:39Z</time>
      </trkpt>
      <trkpt lat="47.88369" lon="-1.70899">
        <ele>58</ele>
        <time>2015-06-07T07:07:40Z</time>
      </trkpt>
      <trkpt lat="47.88365" lon="-1.70902">
        <ele>58</ele>
        <time>2015-06-07T07:07:41Z</time>
      </trkpt>
      <trkpt lat="47.88361" lon="-1.70906">
        <ele>58</ele>
        <time>2015-06-07T07:07:42Z</time>
      </trkpt>
      <trkpt lat="47.88356" lon="-1.7091">
        <ele>58</ele>
        <time>2015-06-07T07:07:43Z</time>
      </trkpt>
      <trkpt lat="47.88352" lon="-1.70913">
        <ele>58</ele>
        <time>2015-06-07T07:07:44Z</time>
      </trkpt>
      <trkpt lat="47.88348" lon="-1.70917">
        <ele>58</ele>
        <time>2015-06-07T07:07:45Z</time>
      </trkpt>
      <trkpt lat="47.88343" lon="-1.70921">
        <ele>58</ele>
        <time>2015-06-07T07:07:46Z</time>
      </trkpt>
      <trkpt lat="47.88339" lon="-1.70925">
        <ele>57</ele>
        <time>2015-06-07T07:07:47Z</time>
      </trkpt>
      <trkpt lat="47.88334" lon="-1.70929">
        <ele>57</ele>
        <time>2015-06-07T07:07:48Z</time>
      </trkpt>
      <trkpt lat="47.88329" lon="-1.70933">
        <ele>57</ele>
        <time>2015-06-07T07:07:49Z</time>
      </trkpt>
      <trkpt lat="47.88325" lon="-1.70937">
        <ele>57</ele>
        <time>2015-06-07T07:07:50Z</time>
      </trkpt>
      <trkpt lat="47.88321" lon="-1.7094">
        <ele>57</ele>
        <time>2015-06-07T07:07:51Z</time>
      </trkpt>
      <trkpt lat="47.88317" lon="-1.70943">
        <ele>57</ele>
        <time>2015-06-07T07:07:52Z</time>
      </trkpt>
      <trkpt lat="47.88313" lon="-1.70947">
        <ele>57</ele>
        <time>2015-06-07T07:07:53Z</time>
      </trkpt>
      <trkpt lat="47.88309" lon="-1.7095">
        <ele>57</ele>
        <time>2015-06-07T07:07:54Z</time>
      </trkpt>
      <trkpt lat="47.88305" lon="-1.70952">
        <ele>57</ele>
        <time>2015-06-07T07:07:55Z</time>
      </trkpt>
      <trkpt lat="47.88301" lon="-1.70952">
        <ele>57</ele>
        <time>2015-06-07T07:07:56Z</time>
      </trkpt>
      <trkpt lat="47.88296" lon="-1.70953">
        <ele>57</ele>
        <time>2015-06-07T07:07:57Z</time>
      </trkpt>
      <trkpt lat="47.88292" lon="-1.70953">
        <ele>56</ele>
        <time>2015-06-07T07:07:58Z</time>
      </trkpt>
      <trkpt lat="47.88286" lon="-1.70955">
        <ele>56</ele>
        <time>2015-06-07T07:07:59Z</time>
      </trkpt>
      <trkpt lat="47.88282" lon="-1.70956">
        <ele>56</ele>
        <time>2015-06-07T07:08:00Z</time>
      </trkpt>
      <trkpt lat="47.88276" lon="-1.70953">
        <ele>56</ele>
        <time>2015-06-07T07:08:01Z</time>
      </trkpt>
      <trkpt lat="47.88272" lon="-1.70948">
        <ele>56</ele>
        <time>2015-06-07T07:08:02Z</time>
      </trkpt>
      <trkpt lat="47.88267" lon="-1.70941">
        <ele>56</ele>
        <time>2015-06-07T07:08:03Z</time>
      </trkpt>
      <trkpt lat="47.88264" lon="-1.70931">
        <ele>55</ele>
        <time>2015-06-07T07:08:04Z</time>
      </trkpt>
      <trkpt lat="47.8826" lon="-1.70921">
        <ele>55</ele>
        <time>2015-06-07T07:08:05Z</time>
      </trkpt>
      <trkpt lat="47.88256" lon="-1.7091">
        <ele>54</ele>
        <time>2015-06-07T07:08:06Z</time>
      </trkpt>
      <trkpt lat="47.88253" lon="-1.70898">
        <ele>54</ele>
        <time>2015-06-07T07:08:07Z</time>
      </trkpt>
      <trkpt lat="47.88249" lon="-1.70886">
        <ele>53</ele>
        <time>2015-06-07T07:08:08Z</time>
      </trkpt>
      <trkpt lat="47.88245" lon="-1.70874">
        <ele>53</ele>
        <time>2015-06-07T07:08:09Z</time>
      </trkpt>
      <trkpt lat="47.88241" lon="-1.70861">
        <ele>52</ele>
        <time>2015-06-07T07:08:10Z</time>
      </trkpt>
      <trkpt lat="47.88237" lon="-1.70849">
        <ele>52</ele>
        <time>2015-06-07T07:08:11Z</time>
      </trkpt>
      <trkpt lat="47.88233" lon="-1.70837">
        <ele>51</ele>
        <time>2015-06-07T07:08:12Z</time>
      </trkpt>
      <trkpt lat="47.88229" lon="-1.70826">
        <ele>51</ele>
        <time>2015-06-07T07:08:13Z</time>
      </trkpt>
      <trkpt lat="47.88225" lon="-1.70815">
        <ele>51</ele>
        <time>2015-06-07T07:08:14Z</time>
      </trkpt>
      <trkpt lat="47.88222" lon="-1.70803">
        <ele>51</ele>
        <time>2015-06-07T07:08:15Z</time>
      </trkpt>
      <trkpt lat="47.88218" lon="-1.70792">
        <ele>51</ele>
        <time>2015-06-07T07:08:16Z</time>
      </trkpt>
      <trkpt lat="47.88216" lon="-1.70781">
        <ele>50</ele>
        <time>2015-06-07T07:08:17Z</time>
      </trkpt>
      <trkpt lat="47.88214" lon="-1.7077">
        <ele>50</ele>
        <time>2015-06-07T07:08:18Z</time>
      </trkpt>
      <trkpt lat="47.88213" lon="-1.7076">
        <ele>50</ele>
        <time>2015-06-07T07:08:19Z</time>
      </trkpt>
      <trkpt lat="47.88212" lon="-1.70749">
        <ele>50</ele>
        <time>2015-06-07T07:08:20Z</time>
      </trkpt>
      <trkpt lat="47.88212" lon="-1.7074">
        <ele>50</ele>
        <time>2015-06-07T07:08:21Z</time>
      </trkpt>
      <trkpt lat="47.88211" lon="-1.7073">
        <ele>50</ele>
        <time>2015-06-07T07:08:22Z</time>
      </trkpt>
      <trkpt lat="47.88211" lon="-1.70721">
        <ele>50</ele>
        <time>2015-06-07T07:08:23Z</time>
      </trkpt>
      <trkpt lat="47.88211" lon="-1.70711">
        <ele>50</ele>
        <time>2015-06-07T07:08:24Z</time>
      </trkpt>
      <trkpt lat="47.8821" lon="-1.70702">
        <ele>50</ele>
        <time>2015-06-07T07:08:25Z</time>
      </trkpt>
      <trkpt lat="47.8821" lon="-1.70693">
        <ele>50</ele>
        <time>2015-06-07T07:08:26Z</time>
      </trkpt>
      <trkpt lat="47.8821" lon="-1.70683">
        <ele>50</ele>
        <time>2015-06-07T07:08:27Z</time>
      </trkpt>
      <trkpt lat="47.8821" lon="-1.70674">
        <ele>50</ele>
        <time>2015-06-07T07:08:28Z</time>
      </trkpt>
      <trkpt lat="47.88211" lon="-1.70665">
        <ele>50</ele>
        <time>2015-06-07T07:08:29Z</time>
      </trkpt>
      <trkpt lat="47.88211" lon="-1.70657">
        <ele>50</ele>
        <time>2015-06-07T07:08:30Z</time>
      </trkpt>
      <trkpt lat="47.88212" lon="-1.70648">
        <ele>50</ele>
        <time>2015-06-07T07:08:31Z</time>
      </trkpt>
      <trkpt lat="47.88214" lon="-1.70639">
        <ele>50</ele>
        <time>2015-06-07T07:08:32Z</time>
      </trkpt>
      <trkpt lat="47.88217" lon="-1.70631">
        <ele>50</ele>
        <time>2015-06-07T07:08:33Z</time>
      </trkpt>
      <trkpt lat="47.8822" lon="-1.70622">
        <ele>49</ele>
        <time>2015-06-07T07:08:34Z</time>
      </trkpt>
      <trkpt lat="47.88224" lon="-1.70613">
        <ele>49</ele>
        <time>2015-06-07T07:08:35Z</time>
      </trkpt>
      <trkpt lat="47.88227" lon="-1.70605">
        <ele>49</ele>
        <time>2015-06-07T07:08:36Z</time>
      </trkpt>
      <trkpt lat="47.88231" lon="-1.70596">
        <ele>49</ele>
        <time>2015-06-07T07:08:37Z</time>
      </trkpt>
      <trkpt lat="47.88234" lon="-1.70588">
        <ele>48</ele>
        <time>2015-06-07T07:08:38Z</time>
      </trkpt>
      <trkpt lat="47.88238" lon="-1.70579">
        <ele>48</ele>
        <time>2015-06-07T07:08:39Z</time>
      </trkpt>
      <trkpt lat="47.88242" lon="-1.70571">
        <ele>48</ele>
        <time>2015-06-07T07:08:40Z</time>
      </trkpt>
      <trkpt lat="47.88246" lon="-1.70563">
        <ele>48</ele>
        <time>2015-06-07T07:08:41Z</time>
      </trkpt>
      <trkpt lat="47.88249" lon="-1.70556">
        <ele>48</ele>
        <time>2015-06-07T07:08:42Z</time>
      </trkpt>
      <trkpt lat="47.88253" lon="-1.70548">
        <ele>47</ele>
        <time>2015-06-07T07:08:43Z</time>
      </trkpt>
      <trkpt lat="47.88256" lon="-1.7054">
        <ele>47</ele>
        <time>2015-06-07T07:08:44Z</time>
      </trkpt>
      <trkpt lat="47.8826" lon="-1.70533">
        <ele>47</ele>
        <time>2015-06-07T07:08:45Z</time>
      </trkpt>
      <trkpt lat="47.88264" lon="-1.70525">
        <ele>47</ele>
        <time>2015-06-07T07:08:46Z</time>
      </trkpt>
      <trkpt lat="47.88268" lon="-1.70518">
        <ele>46</ele>
        <time>2015-06-07T07:08:47Z</time>
      </trkpt>
      <trkpt lat="47.88273" lon="-1.7051">
        <ele>46</ele>
        <time>2015-06-07T07:08:48Z</time>
      </trkpt>
      <trkpt lat="47.88279" lon="-1.70504">
        <ele>46</ele>
        <time>2015-06-07T07:08:49Z</time>
      </trkpt>
      <trkpt lat="47.88284" lon="-1.70496">
        <ele>46</ele>
        <time>2015-06-07T07:08:50Z</time>
      </trkpt>
      <trkpt lat="47.8829" lon="-1.70489">
        <ele>45</ele>
        <time>2015-06-07T07:08:51Z</time>
      </trkpt>
      <trkpt lat="47.88296" lon="-1.70483">
        <ele>45</ele>
        <time>2015-06-07T07:08:52Z</time>
      </trkpt>
      <trkpt lat="47.88303" lon="-1.70476">
        <ele>44</ele>
        <time>2015-06-07T07:08:53Z</time>
      </trkpt>
      <trkpt lat="47.88309" lon="-1.70469">
        <ele>43</ele>
        <time>2015-06-07T07:08:54Z</time>
      </trkpt>
      <trkpt lat="47.88316" lon="-1.70463">
        <ele>43</ele>
        <time>2015-06-07T07:08:55Z</time>
      </trkpt>
      <trkpt lat="47.88324" lon="-1.70457">
        <ele>42</ele>
        <time>2015-06-07T07:08:56Z</time>
      </trkpt>
      <trkpt lat="47.88331" lon="-1.70451">
        <ele>41</ele>
        <time>2015-06-07T07:08:57Z</time>
      </trkpt>
      <trkpt lat="47.88339" lon="-1.70446">
        <ele>40</ele>
        <time>2015-06-07T07:08:58Z</time>
      </trkpt>
      <trkpt lat="47.88346" lon="-1.70441">
        <ele>39</ele>
        <time>2015-06-07T07:08:59Z</time>
      </trkpt>
      <trkpt lat="47.88354" lon="-1.70436">
        <ele>38</ele>
        <time>2015-06-07T07:09:00Z</time>
      </trkpt>
      <trkpt lat="47.88363" lon="-1.70432">
        <ele>37</ele>
        <time>2015-06-07T07:09:01Z</time>
      </trkpt>
      <trkpt lat="47.88371" lon="-1.70429">
        <ele>36</ele>
        <time>2015-06-07T07:09:02Z</time>
      </trkpt>
      <trkpt lat="47.8838" lon="-1.70428">
        <ele>35</ele>
        <time>2015-06-07T07:09:03Z</time>
      </trkpt>
      <trkpt lat="47.8839" lon="-1.70426">
        <ele>35</ele>
        <time>2015-06-07T07:09:04Z</time>
      </trkpt>
      <trkpt lat="47.88399" lon="-1.70425">
        <ele>34</ele>
        <time>2015-06-07T07:09:05Z</time>
      </trkpt>
      <trkpt lat="47.88408" lon="-1.70423">
        <ele>33</ele>
        <time>2015-06-07T07:09:06Z</time>
      </trkpt>
      <trkpt lat="47.88418" lon="-1.70421">
        <ele>32</ele>
        <time>2015-06-07T07:09:07Z</time>
      </trkpt>
      <trkpt lat="47.88428" lon="-1.7042">
        <ele>31</ele>
        <time>2015-06-07T07:09:08Z</time>
      </trkpt>
      <trkpt lat="47.88437" lon="-1.70418">
        <ele>30</ele>
        <time>2015-06-07T07:09:09Z</time>
      </trkpt>
      <trkpt lat="47.88447" lon="-1.70416">
        <ele>30</ele>
        <time>2015-06-07T07:09:10Z</time>
      </trkpt>
      <trkpt lat="47.88457" lon="-1.70415">
        <ele>29</ele>
        <time>2015-06-07T07:09:11Z</time>
      </trkpt>
      <trkpt lat="47.88467" lon="-1.70413">
        <ele>28</ele>
        <time>2015-06-07T07:09:12Z</time>
      </trkpt>
      <trkpt lat="47.88477" lon="-1.70412">
        <ele>27</ele>
        <time>2015-06-07T07:09:13Z</time>
      </trkpt>
      <trkpt lat="47.88487" lon="-1.70412">
        <ele>26</ele>
        <time>2015-06-07T07:09:14Z</time>
      </trkpt>
      <trkpt lat="47.88497" lon="-1.70412">
        <ele>25</ele>
        <time>2015-06-07T07:09:15Z</time>
      </trkpt>
      <trkpt lat="47.88507" lon="-1.70412">
        <ele>25</ele>
        <time>2015-06-07T07:09:16Z</time>
      </trkpt>
      <trkpt lat="47.88517" lon="-1.70413">
        <ele>24</ele>
        <time>2015-06-07T07:09:17Z</time>
      </trkpt>
      <trkpt lat="47.88527" lon="-1.70414">
        <ele>23</ele>
        <time>2015-06-07T07:09:18Z</time>
      </trkpt>
      <trkpt lat="47.88537" lon="-1.70415">
        <ele>23</ele>
        <time>2015-06-07T07:09:19Z</time>
      </trkpt>
      <trkpt lat="47.88547" lon="-1.70417">
        <ele>23</ele>
        <time>2015-06-07T07:09:20Z</time>
      </trkpt>
      <trkpt lat="47.88556" lon="-1.70421">
        <ele>22</ele>
        <time>2015-06-07T07:09:21Z</time>
      </trkpt>
      <trkpt lat="47.88564" lon="-1.70428">
        <ele>22</ele>
        <time>2015-06-07T07:09:22Z</time>
      </trkpt>
      <trkpt lat="47.88571" lon="-1.70435">
        <ele>22</ele>
        <time>2015-06-07T07:09:23Z</time>
      </trkpt>
      <trkpt lat="47.88577" lon="-1.70444">
        <ele>22</ele>
        <time>2015-06-07T07:09:24Z</time>
      </trkpt>
      <trkpt lat="47.88582" lon="-1.70454">
        <ele>22</ele>
        <time>2015-06-07T07:09:25Z</time>
      </trkpt>
      <trkpt lat="47.88586" lon="-1.70464">
        <ele>22</ele>
        <time>2015-06-07T07:09:26Z</time>
      </trkpt>
      <trkpt lat="47.88589" lon="-1.70474">
        <ele>22</ele>
        <time>2015-06-07T07:09:27Z</time>
      </trkpt>
      <trkpt lat="47.88591" lon="-1.70484">
        <ele>22</ele>
        <time>2015-06-07T07:09:28Z</time>
      </trkpt>
      <trkpt lat="47.88593" lon="-1.70495">
        <ele>22</ele>
        <time>2015-06-07T07:09:29Z</time>
      </trkpt>
      <trkpt lat="47.88594" lon="-1.70504">
        <ele>22</ele>
        <time>2015-06-07T07:09:30Z</time>
      </trkpt>
      <trkpt lat="47.88594" lon="-1.70513">
        <ele>22</ele>
        <time>2015-06-07T07:09:31Z</time>
      </trkpt>
      <trkpt lat="47.88594" lon="-1.70523">
        <ele>21</ele>
        <time>2015-06-07T07:09:32Z</time>
      </trkpt>
      <trkpt lat="47.88595" lon="-1.70531">
        <ele>21</ele>
        <time>2015-06-07T07:09:33Z</time>
      </trkpt>
      <trkpt lat="47.88595" lon="-1.7054">
        <ele>21</ele>
        <time>2015-06-07T07:09:34Z</time>
      </trkpt>
      <trkpt lat="47.88596" lon="-1.70549">
        <ele>22</ele>
        <time>2015-06-07T07:09:35Z</time>
      </trkpt>
      <trkpt lat="47.88596" lon="-1.70557">
        <ele>22</ele>
        <time>2015-06-07T07:09:36Z</time>
      </trkpt>
      <trkpt lat="47.88597" lon="-1.70565">
        <ele>22</ele>
        <time>2015-06-07T07:09:37Z</time>
      </trkpt>
      <trkpt lat="47.88599" lon="-1.70574">
        <ele>21</ele>
        <time>2015-06-07T07:09:38Z</time>
      </trkpt>
      <trkpt lat="47.88601" lon="-1.70582">
        <ele>21</ele>
        <time>2015-06-07T07:09:39Z</time>
      </trkpt>
      <trkpt lat="47.88604" lon="-1.7059">
        <ele>21</ele>
        <time>2015-06-07T07:09:40Z</time>
      </trkpt>
      <trkpt lat="47.88608" lon="-1.70598">
        <ele>21</ele>
        <time>2015-06-07T07:09:41Z</time>
      </trkpt>
      <trkpt lat="47.88612" lon="-1.70606">
        <ele>21</ele>
        <time>2015-06-07T07:09:42Z</time>
      </trkpt>
      <trkpt lat="47.88617" lon="-1.70614">
        <ele>21</ele>
        <time>2015-06-07T07:09:43Z</time>
      </trkpt>
      <trkpt lat="47.88622" lon="-1.70622">
        <ele>21</ele>
        <time>2015-06-07T07:09:44Z</time>
      </trkpt>
      <trkpt lat="47.88627" lon="-1.70629">
        <ele>21</ele>
        <time>2015-06-07T07:09:45Z</time>
      </trkpt>
      <trkpt lat="47.88632" lon="-1.70637">
        <ele>20</ele>
        <time>2015-06-07T07:09:46Z</time>
      </trkpt>
      <trkpt lat="47.88637" lon="-1.70643">
        <ele>20</ele>
        <time>2015-06-07T07:09:47Z</time>
      </trkpt>
      <trkpt lat="47.88641" lon="-1.70648">
        <ele>20</ele>
        <time>2015-06-07T07:09:48Z</time>
      </trkpt>
      <trkpt lat="47.88645" lon="-1.70651">
        <ele>20</ele>
        <time>2015-06-07T07:09:49Z</time>
      </trkpt>
      <trkpt lat="47.88649" lon="-1.70654">
        <ele>20</ele>
        <time>2015-06-07T07:09:50Z</time>
      </trkpt>
      <trkpt lat="47.88653" lon="-1.70655">
        <ele>20</ele>
        <time>2015-06-07T07:09:51Z</time>
      </trkpt>
      <trkpt lat="47.88657" lon="-1.70656">
        <ele>20</ele>
        <time>2015-06-07T07:09:52Z</time>
      </trkpt>
      <trkpt lat="47.88662" lon="-1.70657">
        <ele>20</ele>
        <time>2015-06-07T07:09:53Z</time>
      </trkpt>
      <trkpt lat="47.88666" lon="-1.70658">
        <ele>20</ele>
        <time>2015-06-07T07:09:54Z</time>
      </trkpt>
      <trkpt lat="47.8867" lon="-1.70657">
        <ele>21</ele>
        <time>2015-06-07T07:09:55Z</time>
      </trkpt>
      <trkpt lat="47.88674" lon="-1.70655">
        <ele>21</ele>
        <time>2015-06-07T07:09:56Z</time>
      </trkpt>
      <trkpt lat="47.88677" lon="-1.70654">
        <ele>21</ele>
        <time>2015-06-07T07:09:57Z</time>
      </trkpt>
      <trkpt lat="47.88681" lon="-1.70651">
        <ele>21</ele>
        <time>2015-06-07T07:09:58Z</time>
      </trkpt>
      <trkpt lat="47.88684" lon="-1.70649">
        <ele>21</ele>
        <time>2015-06-07T07:09:59Z</time>
      </trkpt>
      <trkpt lat="47.88689" lon="-1.70647">
        <ele>20</ele>
        <time>2015-06-07T07:10:00Z</time>
      </trkpt>
      <trkpt lat="47.88693" lon="-1.70643">
        <ele>20</ele>
        <time>2015-06-07T07:10:01Z</time>
      </trkpt>
      <trkpt lat="47.88697" lon="-1.70639">
        <ele>20</ele>
        <time>2015-06-07T07:10:02Z</time>
      </trkpt>
      <trkpt lat="47.88701" lon="-1.70634">
        <ele>20</ele>
        <time>2015-06-07T07:10:03Z</time>
      </trkpt>
      <trkpt lat="47.88705" lon="-1.7063">
        <ele>20</ele>
        <time>2015-06-07T07:10:04Z</time>
      </trkpt>
      <trkpt lat="47.88709" lon="-1.70625">
        <ele>20</ele>
        <time>2015-06-07T07:10:05Z</time>
      </trkpt>
      <trkpt lat="47.88713" lon="-1.70619">
        <ele>20</ele>
        <time>2015-06-07T07:10:06Z</time>
      </trkpt>
      <trkpt lat="47.88716" lon="-1.70614">
        <ele>20</ele>
        <time>2015-06-07T07:10:07Z</time>
      </trkpt>
      <trkpt lat="47.8872" lon="-1.7061">
        <ele>20</ele>
        <time>2015-06-07T07:10:08Z</time>
      </trkpt>
      <trkpt lat="47.88723" lon="-1.70606">
        <ele>20</ele>
        <time>2015-06-07T07:10:09Z</time>
      </trkpt>
      <trkpt lat="47.88726" lon="-1.70603">
        <ele>19</ele>
        <time>2015-06-07T07:10:10Z</time>
      </trkpt>
      <trkpt lat="47.88729" lon="-1.70598">
        <ele>19</ele>
        <time>2015-06-07T07:10:11Z</time>
      </trkpt>
      <trkpt lat="47.88732" lon="-1.70594">
        <ele>19</ele>
        <time>2015-06-07T07:10:12Z</time>
      </trkpt>
      <trkpt lat="47.88736" lon="-1.70591">
        <ele>19</ele>
        <time>2015-06-07T07:10:13Z</time>
      </trkpt>
      <trkpt lat="47.88739" lon="-1.70587">
        <ele>19</ele>
        <time>2015-06-07T07:10:14Z</time>
      </trkpt>
      <trkpt lat="47.88742" lon="-1.70581">
        <ele>20</ele>
        <time>2015-06-07T07:10:15Z</time>
      </trkpt>
      <trkpt lat="47.88743" lon="-1.70575">
        <ele>20</ele>
        <time>2015-06-07T07:10:16Z</time>
      </trkpt>
      <trkpt lat="47.88744" lon="-1.70568">
        <ele>19</ele>
        <time>2015-06-07T07:10:17Z</time>
      </trkpt>
      <trkpt lat="47.88745" lon="-1.7056">
        <ele>19</ele>
        <time>2015-06-07T07:10:18Z</time>
      </trkpt>
      <trkpt lat="47.88746" lon="-1.70552">
        <ele>19</ele>
        <time>2015-06-07T07:10:19Z</time>
      </trkpt>
      <trkpt lat="47.88746" lon="-1.70544">
        <ele>19</ele>
        <time>2015-06-07T07:10:20Z</time>
      </trkpt>
      <trkpt lat="47.88747" lon="-1.70536">
        <ele>19</ele>
        <time>2015-06-07T07:10:21Z</time>
      </trkpt>
      <trkpt lat="47.88748" lon="-1.70528">
        <ele>19</ele>
        <time>2015-06-07T07:10:22Z</time>
      </trkpt>
      <trkpt lat="47.88749" lon="-1.70519">
        <ele>20</ele>
        <time>2015-06-07T07:10:23Z</time>
      </trkpt>
      <trkpt lat="47.8875" lon="-1.70511">
        <ele>20</ele>
        <time>2015-06-07T07:10:24Z</time>
      </trkpt>
      <trkpt lat="47.88751" lon="-1.70503">
        <ele>20</ele>
        <time>2015-06-07T07:10:25Z</time>
      </trkpt>
      <trkpt lat="47.88752" lon="-1.70494">
        <ele>20</ele>
        <time>2015-06-07T07:10:26Z</time>
      </trkpt>
      <trkpt lat="47.88754" lon="-1.70486">
        <ele>20</ele>
        <time>2015-06-07T07:10:27Z</time>
      </trkpt>
      <trkpt lat="47.88755" lon="-1.70478">
        <ele>21</ele>
        <time>2015-06-07T07:10:28Z</time>
      </trkpt>
      <trkpt lat="47.88758" lon="-1.70471">
        <ele>21</ele>
        <time>2015-06-07T07:10:29Z</time>
      </trkpt>
      <trkpt lat="47.8876" lon="-1.70463">
        <ele>21</ele>
        <time>2015-06-07T07:10:30Z</time>
      </trkpt>
      <trkpt lat="47.88762" lon="-1.70456">
        <ele>21</ele>
        <time>2015-06-07T07:10:31Z</time>
      </trkpt>
      <trkpt lat="47.88764" lon="-1.70448">
        <ele>21</ele>
        <time>2015-06-07T07:10:32Z</time>
      </trkpt>
      <trkpt lat="47.88766" lon="-1.70441">
        <ele>21</ele>
        <time>2015-06-07T07:10:33Z</time>
      </trkpt>
      <trkpt lat="47.88769" lon="-1.70434">
        <ele>21</ele>
        <time>2015-06-07T07:10:34Z</time>
      </trkpt>
      <trkpt lat="47.88771" lon="-1.70427">
        <ele>20</ele>
        <time>2015-06-07T07:10:35Z</time>
      </trkpt>
      <trkpt lat="47.88773" lon="-1.7042">
        <ele>20</ele>
        <time>2015-06-07T07:10:36Z</time>
      </trkpt>
      <trkpt lat="47.88775" lon="-1.70413">
        <ele>20</ele>
        <time>2015-06-07T07:10:37Z</time>
      </trkpt>
      <trkpt lat="47.88777" lon="-1.70405">
        <ele>20</ele>
        <time>2015-06-07T07:10:38Z</time>
      </trkpt>
      <trkpt lat="47.88779" lon="-1.70398">
        <ele>20</ele>
        <time>2015-06-07T07:10:39Z</time>
      </trkpt>
      <trkpt lat="47.88781" lon="-1.7039">
        <ele>20</ele>
        <time>2015-06-07T07:10:40Z</time>
      </trkpt>
      <trkpt lat="47.88782" lon="-1.70383">
        <ele>20</ele>
        <time>2015-06-07T07:10:41Z</time>
      </trkpt>
      <trkpt lat="47.88784" lon="-1.70376">
        <ele>20</ele>
        <time>2015-06-07T07:10:42Z</time>
      </trkpt>
      <trkpt lat="47.88785" lon="-1.70369">
        <ele>19</ele>
        <time>2015-06-07T07:10:43Z</time>
      </trkpt>
      <trkpt lat="47.88787" lon="-1.70361">
        <ele>19</ele>
        <time>2015-06-07T07:10:44Z</time>
      </trkpt>
      <trkpt lat="47.88789" lon="-1.70355">
        <ele>19</ele>
        <time>2015-06-07T07:10:45Z</time>
      </trkpt>
      <trkpt lat="47.88791" lon="-1.70348">
        <ele>19</ele>
        <time>2015-06-07T07:10:46Z</time>
      </trkpt>
      <trkpt lat="47.88793" lon="-1.70342">
        <ele>19</ele>
        <time>2015-06-07T07:10:47Z</time>
      </trkpt>
      <trkpt lat="47.88796" lon="-1.70336">
        <ele>20</ele>
        <time>2015-06-07T07:10:48Z</time>
      </trkpt>
      <trkpt lat="47.88798" lon="-1.70331">
        <ele>20</ele>
        <time>2015-06-07T07:10:49Z</time>
      </trkpt>
      <trkpt lat="47.88801" lon="-1.70327">
        <ele>20</ele>
        <time>2015-06-07T07:10:50Z</time>
      </trkpt>
      <trkpt lat="47.88803" lon="-1.70324">
        <ele>20</ele>
        <time>2015-06-07T07:10:51Z</time>
      </trkpt>
      <trkpt lat="47.88806" lon="-1.70322">
        <ele>20</ele>
        <time>2015-06-07T07:10:52Z</time>
      </trkpt>
      <trkpt lat="47.88808" lon="-1.70318">
        <ele>20</ele>
        <time>2015-06-07T07:10:53Z</time>
      </trkpt>
      <trkpt lat="47.88809" lon="-1.70314">
        <ele>20</ele>
        <time>2015-06-07T07:10:54Z</time>
      </trkpt>
      <trkpt lat="47.88809" lon="-1.70311">
        <ele>20</ele>
        <time>2015-06-07T07:10:55Z</time>
      </trkpt>
      <trkpt lat="47.88809" lon="-1.70306">
        <ele>21</ele>
        <time>2015-06-07T07:10:56Z</time>
      </trkpt>
      <trkpt lat="47.88808" lon="-1.703">
        <ele>21</ele>
        <time>2015-06-07T07:10:57Z</time>
      </trkpt>
      <trkpt lat="47.88807" lon="-1.70295">
        <ele>21</ele>
        <time>2015-06-07T07:10:58Z</time>
      </trkpt>
      <trkpt lat="47.88806" lon="-1.70291">
        <ele>21</ele>
        <time>2015-06-07T07:10:59Z</time>
      </trkpt>
      <trkpt lat="47.88805" lon="-1.70288">
        <ele>21</ele>
        <time>2015-06-07T07:11:00Z</time>
      </trkpt>
      <trkpt lat="47.88805" lon="-1.70284">
        <ele>21</ele>
        <time>2015-06-07T07:11:01Z</time>
      </trkpt>
      <trkpt lat="47.88804" lon="-1.7028">
        <ele>21</ele>
        <time>2015-06-07T07:11:02Z</time>
      </trkpt>
      <trkpt lat="47.88803" lon="-1.70275">
        <ele>21</ele>
        <time>2015-06-07T07:11:03Z</time>
      </trkpt>
      <trkpt lat="47.88802" lon="-1.7027">
        <ele>22</ele>
        <time>2015-06-07T07:11:04Z</time>
      </trkpt>
      <trkpt lat="47.88801" lon="-1.70264">
        <ele>22</ele>
        <time>2015-06-07T07:11:05Z</time>
      </trkpt>
      <trkpt lat="47.88801" lon="-1.70259">
        <ele>22</ele>
        <time>2015-06-07T07:11:06Z</time>
      </trkpt>
      <trkpt lat="47.88802" lon="-1.70253">
        <ele>22</ele>
        <time>2015-06-07T07:11:07Z</time>
      </trkpt>
      <trkpt lat="47.88802" lon="-1.70247">
        <ele>22</ele>
        <time>2015-06-07T07:11:08Z</time>
      </trkpt>
      <trkpt lat="47.88803" lon="-1.70241">
        <ele>23</ele>
        <time>2015-06-07T07:11:09Z</time>
      </trkpt>
      <trkpt lat="47.88804" lon="-1.70235">
        <ele>23</ele>
        <time>2015-06-07T07:11:10Z</time>
      </trkpt>
      <trkpt lat="47.88805" lon="-1.70229">
        <ele>23</ele>
        <time>2015-06-07T07:11:11Z</time>
      </trkpt>
      <trkpt lat="47.88805" lon="-1.70223">
        <ele>24</ele>
        <time>2015-06-07T07:11:12Z</time>
      </trkpt>
      <trkpt lat="47.88806" lon="-1.70216">
        <ele>24</ele>
        <time>2015-06-07T07:11:13Z</time>
      </trkpt>
      <trkpt lat="47.88807" lon="-1.70209">
        <ele>24</ele>
        <time>2015-06-07T07:11:14Z</time>
      </trkpt>
      <trkpt lat="47.88807" lon="-1.70203">
        <ele>24</ele>
        <time>2015-06-07T07:11:15Z</time>
      </trkpt>
      <trkpt lat="47.88807" lon="-1.70196">
        <ele>25</ele>
        <time>2015-06-07T07:11:16Z</time>
      </trkpt>
      <trkpt lat="47.88807" lon="-1.7019">
        <ele>25</ele>
        <time>2015-06-07T07:11:17Z</time>
      </trkpt>
      <trkpt lat="47.88808" lon="-1.70184">
        <ele>25</ele>
        <time>2015-06-07T07:11:18Z</time>
      </trkpt>
      <trkpt lat="47.88807" lon="-1.70177">
        <ele>25</ele>
        <time>2015-06-07T07:11:19Z</time>
      </trkpt>
      <trkpt lat="47.88806" lon="-1.7017">
        <ele>25</ele>
        <time>2015-06-07T07:11:20Z</time>
      </trkpt>
      <trkpt lat="47.88805" lon="-1.70164">
        <ele>25</ele>
        <time>2015-06-07T07:11:21Z</time>
      </trkpt>
      <trkpt lat="47.88805" lon="-1.70158">
        <ele>25</ele>
        <time>2015-06-07T07:11:22Z</time>
      </trkpt>
      <trkpt lat="47.88806" lon="-1.70152">
        <ele>25</ele>
        <time>2015-06-07T07:11:23Z</time>
      </trkpt>
      <trkpt lat="47.88806" lon="-1.70146">
        <ele>26</ele>
        <time>2015-06-07T07:11:24Z</time>
      </trkpt>
      <trkpt lat="47.88806" lon="-1.70141">
        <ele>26</ele>
        <time>2015-06-07T07:11:25Z</time>
      </trkpt>
      <trkpt lat="47.88807" lon="-1.70136">
        <ele>26</ele>
        <time>2015-06-07T07:11:26Z</time>
      </trkpt>
      <trkpt lat="47.88807" lon="-1.7013">
        <ele>26</ele>
        <time>2015-06-07T07:11:27Z</time>
      </trkpt>
      <trkpt lat="47.88807" lon="-1.70125">
        <ele>26</ele>
        <time>2015-06-07T07:11:28Z</time>
      </trkpt>
      <trkpt lat="47.88807" lon="-1.7012">
        <ele>26</ele>
        <time>2015-06-07T07:11:29Z</time>
      </trkpt>
      <trkpt lat="47.88808" lon="-1.70115">
        <ele>26</ele>
        <time>2015-06-07T07:11:30Z</time>
      </trkpt>
      <trkpt lat="47.88809" lon="-1.7011">
        <ele>26</ele>
        <time>2015-06-07T07:11:31Z</time>
      </trkpt>
      <trkpt lat="47.8881" lon="-1.70107">
        <ele>26</ele>
        <time>2015-06-07T07:11:32Z</time>
      </trkpt>
      <trkpt lat="47.88811" lon="-1.70103">
        <ele>27</ele>
        <time>2015-06-07T07:11:33Z</time>
      </trkpt>
      <trkpt lat="47.88812" lon="-1.70099">
        <ele>27</ele>
        <time>2015-06-07T07:11:34Z</time>
      </trkpt>
      <trkpt lat="47.88812" lon="-1.70096">
        <ele>27</ele>
        <time>2015-06-07T07:11:35Z</time>
      </trkpt>
      <trkpt lat="47.88812" lon="-1.70092">
        <ele>27</ele>
        <time>2015-06-07T07:11:36Z</time>
      </trkpt>
      <trkpt lat="47.88812" lon="-1.70088">
        <ele>27</ele>
        <time>2015-06-07T07:11:37Z</time>
      </trkpt>
      <trkpt lat="47.88812" lon="-1.70082">
        <ele>27</ele>
        <time>2015-06-07T07:11:38Z</time>
      </trkpt>
      <trkpt lat="47.88812" lon="-1.70076">
        <ele>27</ele>
        <time>2015-06-07T07:11:39Z</time>
      </trkpt>
      <trkpt lat="47.88812" lon="-1.70071">
        <ele>27</ele>
        <time>2015-06-07T07:11:40Z</time>
      </trkpt>
      <trkpt lat="47.88814" lon="-1.70068">
        <ele>27</ele>
        <time>2015-06-07T07:11:41Z</time>
      </trkpt>
      <trkpt lat="47.88814" lon="-1.70065">
        <ele>27</ele>
        <time>2015-06-07T07:11:42Z</time>
      </trkpt>
      <trkpt lat="47.88814" lon="-1.70063">
        <ele>27</ele>
        <time>2015-06-07T07:11:43Z</time>
      </trkpt>
      <trkpt lat="47.88815" lon="-1.7006">
        <ele>27</ele>
        <time>2015-06-07T07:11:44Z</time>
      </trkpt>
      <trkpt lat="47.88817" lon="-1.70057">
        <ele>27</ele>
        <time>2015-06-07T07:11:45Z</time>
      </trkpt>
      <trkpt lat="47.88818" lon="-1.70055">
        <ele>27</ele>
        <time>2015-06-07T07:11:46Z</time>
      </trkpt>
      <trkpt lat="47.8882" lon="-1.70052">
        <ele>27</ele>
        <time>2015-06-07T07:11:47Z</time>
      </trkpt>
      <trkpt lat="47.88821" lon="-1.70049">
        <ele>27</ele>
        <time>2015-06-07T07:11:48Z</time>
      </trkpt>
      <trkpt lat="47.88822" lon="-1.70045">
        <ele>27</ele>
        <time>2015-06-07T07:11:49Z</time>
      </trkpt>
      <trkpt lat="47.88824" lon="-1.70041">
        <ele>27</ele>
        <time>2015-06-07T07:11:50Z</time>
      </trkpt>
      <trkpt lat="47.88826" lon="-1.70037">
        <ele>27</ele>
        <time>2015-06-07T07:11:51Z</time>
      </trkpt>
      <trkpt lat="47.88827" lon="-1.70034">
        <ele>27</ele>
        <time>2015-06-07T07:11:52Z</time>
      </trkpt>
      <trkpt lat="47.88828" lon="-1.7003">
        <ele>27</ele>
        <time>2015-06-07T07:11:53Z</time>
      </trkpt>
      <trkpt lat="47.8883" lon="-1.70026">
        <ele>27</ele>
        <time>2015-06-07T07:11:54Z</time>
      </trkpt>
      <trkpt lat="47.88831" lon="-1.70022">
        <ele>27</ele>
        <time>2015-06-07T07:11:55Z</time>
      </trkpt>
      <trkpt lat="47.88832" lon="-1.70019">
        <ele>27</ele>
        <time>2015-06-07T07:11:56Z</time>
      </trkpt>
      <trkpt lat="47.88833" lon="-1.70014">
        <ele>27</ele>
        <time>2015-06-07T07:11:57Z</time>
      </trkpt>
      <trkpt lat="47.88834" lon="-1.70009">
        <ele>27</ele>
        <time>2015-06-07T07:11:58Z</time>
      </trkpt>
      <trkpt lat="47.88836" lon="-1.70003">
        <ele>27</ele>
        <time>2015-06-07T07:11:59Z</time>
      </trkpt>
      <trkpt lat="47.88837" lon="-1.69996">
        <ele>27</ele>
        <time>2015-06-07T07:12:00Z</time>
      </trkpt>
      <trkpt lat="47.88839" lon="-1.69989">
        <ele>27</ele>
        <time>2015-06-07T07:12:01Z</time>
      </trkpt>
      <trkpt lat="47.88841" lon="-1.69983">
        <ele>27</ele>
        <time>2015-06-07T07:12:02Z</time>
      </trkpt>
      <trkpt lat="47.88844" lon="-1.69977">
        <ele>27</ele>
        <time>2015-06-07T07:12:03Z</time>
      </trkpt>
      <trkpt lat="47.88844" lon="-1.69971">
        <ele>26</ele>
        <time>2015-06-07T07:12:04Z</time>
      </trkpt>
      <trkpt lat="47.88845" lon="-1.69965">
        <ele>26</ele>
        <time>2015-06-07T07:12:05Z</time>
      </trkpt>
      <trkpt lat="47.88846" lon="-1.6996">
        <ele>26</ele>
        <time>2015-06-07T07:12:06Z</time>
      </trkpt>
      <trkpt lat="47.88846" lon="-1.69955">
        <ele>26</ele>
        <time>2015-06-07T07:12:07Z</time>
      </trkpt>
      <trkpt lat="47.88847" lon="-1.69949">
        <ele>26</ele>
        <time>2015-06-07T07:12:08Z</time>
      </trkpt>
      <trkpt lat="47.88847" lon="-1.69944">
        <ele>26</ele>
        <time>2015-06-07T07:12:09Z</time>
      </trkpt>
      <trkpt lat="47.88848" lon="-1.6994">
        <ele>26</ele>
        <time>2015-06-07T07:12:10Z</time>
      </trkpt>
      <trkpt lat="47.88847" lon="-1.69935">
        <ele>26</ele>
        <time>2015-06-07T07:12:11Z</time>
      </trkpt>
      <trkpt lat="47.88847" lon="-1.6993">
        <ele>26</ele>
        <time>2015-06-07T07:12:12Z</time>
      </trkpt>
      <trkpt lat="47.88847" lon="-1.69924">
        <ele>25</ele>
        <time>2015-06-07T07:12:13Z</time>
      </trkpt>
      <trkpt lat="47.88848" lon="-1.69919">
        <ele>25</ele>
        <time>2015-06-07T07:12:14Z</time>
      </trkpt>
      <trkpt lat="47.88848" lon="-1.69913">
        <ele>25</ele>
        <time>2015-06-07T07:12:15Z</time>
      </trkpt>
      <trkpt lat="47.88848" lon="-1.69907">
        <ele>25</ele>
        <time>2015-06-07T07:12:16Z</time>
      </trkpt>
      <trkpt lat="47.88849" lon="-1.69901">
        <ele>25</ele>
        <time>2015-06-07T07:12:17Z</time>
      </trkpt>
      <trkpt lat="47.88849" lon="-1.69894">
        <ele>25</ele>
        <time>2015-06-07T07:12:18Z</time>
      </trkpt>
      <trkpt lat="47.8885" lon="-1.69887">
        <ele>25</ele>
        <time>2015-06-07T07:12:19Z</time>
      </trkpt>
      <trkpt lat="47.8885" lon="-1.69883">
        <ele>25</ele>
        <time>2015-06-07T07:12:20Z</time>
      </trkpt>
      <trkpt lat="47.88851" lon="-1.69879">
        <ele>25</ele>
        <time>2015-06-07T07:12:21Z</time>
      </trkpt>
      <trkpt lat="47.88852" lon="-1.69877">
        <ele>25</ele>
        <time>2015-06-07T07:12:22Z</time>
      </trkpt>
      <trkpt lat="47.88853" lon="-1.69875">
        <ele>25</ele>
        <time>2015-06-07T07:12:23Z</time>
      </trkpt>
      <trkpt lat="47.88853" lon="-1.69873">
        <ele>25</ele>
        <time>2015-06-07T07:12:24Z</time>
      </trkpt>
      <trkpt lat="47.88854" lon="-1.69871">
        <ele>24</ele>
        <time>2015-06-07T07:12:25Z</time>
      </trkpt>
      <trkpt lat="47.88854" lon="-1.69867">
        <ele>24</ele>
        <time>2015-06-07T07:12:26Z</time>
      </trkpt>
      <trkpt lat="47.88854" lon="-1.69864">
        <ele>24</ele>
        <time>2015-06-07T07:12:27Z</time>
      </trkpt>
      <trkpt lat="47.88854" lon="-1.69861">
        <ele>24</ele>
        <time>2015-06-07T07:12:28Z</time>
      </trkpt>
      <trkpt lat="47.88854" lon="-1.69857">
        <ele>24</ele>
        <time>2015-06-07T07:12:29Z</time>
      </trkpt>
      <trkpt lat="47.88855" lon="-1.69854">
        <ele>24</ele>
        <time>2015-06-07T07:12:30Z</time>
      </trkpt>
      <trkpt lat="47.88856" lon="-1.69851">
        <ele>24</ele>
        <time>2015-06-07T07:12:31Z</time>
      </trkpt>
      <trkpt lat="47.88856" lon="-1.69847">
        <ele>24</ele>
        <time>2015-06-07T07:12:32Z</time>
      </trkpt>
      <trkpt lat="47.88856" lon="-1.69843">
        <ele>24</ele>
        <time>2015-06-07T07:12:33Z</time>
      </trkpt>
      <trkpt lat="47.88856" lon="-1.69839">
        <ele>24</ele>
        <time>2015-06-07T07:12:34Z</time>
      </trkpt>
      <trkpt lat="47.88856" lon="-1.69834">
        <ele>24</ele>
        <time>2015-06-07T07:12:35Z</time>
      </trkpt>
      <trkpt lat="47.88856" lon="-1.6983">
        <ele>24</ele>
        <time>2015-06-07T07:12:36Z</time>
      </trkpt>
      <trkpt lat="47.88856" lon="-1.69825">
        <ele>24</ele>
        <time>2015-06-07T07:12:37Z</time>
      </trkpt>
      <trkpt lat="47.88855" lon="-1.69821">
        <ele>24</ele>
        <time>2015-06-07T07:12:38Z</time>
      </trkpt>
      <trkpt lat="47.88855" lon="-1.69815">
        <ele>24</ele>
        <time>2015-06-07T07:12:39Z</time>
      </trkpt>
      <trkpt lat="47.88854" lon="-1.6981">
        <ele>24</ele>
        <time>2015-06-07T07:12:40Z</time>
      </trkpt>
      <trkpt lat="47.88854" lon="-1.69805">
        <ele>24</ele>
        <time>2015-06-07T07:12:41Z</time>
      </trkpt>
      <trkpt lat="47.88853" lon="-1.698">
        <ele>24</ele>
        <time>2015-06-07T07:12:42Z</time>
      </trkpt>
      <trkpt lat="47.88853" lon="-1.69794">
        <ele>24</ele>
        <time>2015-06-07T07:12:43Z</time>
      </trkpt>
      <trkpt lat="47.88852" lon="-1.6979">
        <ele>24</ele>
        <time>2015-06-07T07:12:44Z</time>
      </trkpt>
      <trkpt lat="47.88851" lon="-1.69786">
        <ele>24</ele>
        <time>2015-06-07T07:12:45Z</time>
      </trkpt>
      <trkpt lat="47.88851" lon="-1.69784">
        <ele>24</ele>
        <time>2015-06-07T07:12:46Z</time>
      </trkpt>
      <trkpt lat="47.8885" lon="-1.69782">
        <ele>24</ele>
        <time>2015-06-07T07:12:47Z</time>
      </trkpt>
      <trkpt lat="47.8885" lon="-1.69781">
        <ele>24</ele>
        <time>2015-06-07T07:12:48Z</time>
      </trkpt>
      <trkpt lat="47.8885" lon="-1.6978">
        <ele>24</ele>
        <time>2015-06-07T07:12:49Z</time>
      </trkpt>
      <trkpt lat="47.8885" lon="-1.69779">
        <ele>25</ele>
        <time>2015-06-07T07:12:50Z</time>
      </trkpt>
      <trkpt lat="47.8885" lon="-1.69778">
        <ele>25</ele>
        <time>2015-06-07T07:12:51Z</time>
      </trkpt>
      <trkpt lat="47.8885" lon="-1.69778">
        <ele>25</ele>
        <time>2015-06-07T07:12:52Z</time>
      </trkpt>
      <trkpt lat="47.8885" lon="-1.69777">
        <ele>25</ele>
        <time>2015-06-07T07:12:53Z</time>
      </trkpt>
      <trkpt lat="47.8885" lon="-1.69776">
        <ele>25</ele>
        <time>2015-06-07T07:12:54Z</time>
      </trkpt>
      <trkpt lat="47.8885" lon="-1.69776">
        <ele>25</ele>
        <time>2015-06-07T07:12:55Z</time>
      </trkpt>
      <trkpt lat="47.88846" lon="-1.69771">
        <ele>27</ele>
        <time>2015-06-07T07:12:56Z</time>
      </trkpt>
      <trkpt lat="47.88844" lon="-1.69771">
        <ele>27</ele>
        <time>2015-06-07T07:12:57Z</time>
      </trkpt>
      <trkpt lat="47.88843" lon="-1.69771">
        <ele>27</ele>
        <time>2015-06-07T07:12:58Z</time>
      </trkpt>
      <trkpt lat="47.88841" lon="-1.69771">
        <ele>27</ele>
        <time>2015-06-07T07:12:59Z</time>
      </trkpt>
      <trkpt lat="47.8884" lon="-1.69771">
        <ele>27</ele>
        <time>2015-06-07T07:13:00Z</time>
      </trkpt>
      <trkpt lat="47.88839" lon="-1.6977">
        <ele>27</ele>
        <time>2015-06-07T07:13:01Z</time>
      </trkpt>
      <trkpt lat="47.88837" lon="-1.6977">
        <ele>27</ele>
        <time>2015-06-07T07:13:02Z</time>
      </trkpt>
      <trkpt lat="47.88836" lon="-1.69771">
        <ele>28</ele>
        <time>2015-06-07T07:13:03Z</time>
      </trkpt>
      <trkpt lat="47.88833" lon="-1.69772">
        <ele>28</ele>
        <time>2015-06-07T07:13:04Z</time>
      </trkpt>
      <trkpt lat="47.8883" lon="-1.69774">
        <ele>28</ele>
        <time>2015-06-07T07:13:05Z</time>
      </trkpt>
      <trkpt lat="47.88824" lon="-1.69775">
        <ele>28</ele>
        <time>2015-06-07T07:13:06Z</time>
      </trkpt>
      <trkpt lat="47.88819" lon="-1.69776">
        <ele>28</ele>
        <time>2015-06-07T07:13:07Z</time>
      </trkpt>
      <trkpt lat="47.88814" lon="-1.69778">
        <ele>27</ele>
        <time>2015-06-07T07:13:08Z</time>
      </trkpt>
      <trkpt lat="47.88808" lon="-1.69778">
        <ele>27</ele>
        <time>2015-06-07T07:13:09Z</time>
      </trkpt>
      <trkpt lat="47.88802" lon="-1.69779">
        <ele>27</ele>
        <time>2015-06-07T07:13:10Z</time>
      </trkpt>
      <trkpt lat="47.88797" lon="-1.69781">
        <ele>27</ele>
        <time>2015-06-07T07:13:11Z</time>
      </trkpt>
      <trkpt lat="47.88793" lon="-1.69783">
        <ele>27</ele>
        <time>2015-06-07T07:13:12Z</time>
      </trkpt>
      <trkpt lat="47.88789" lon="-1.69785">
        <ele>27</ele>
        <time>2015-06-07T07:13:13Z</time>
      </trkpt>
      <trkpt lat="47.88785" lon="-1.69785">
        <ele>27</ele>
        <time>2015-06-07T07:13:14Z</time>
      </trkpt>
      <trkpt lat="47.88781" lon="-1.69785">
        <ele>26</ele>
        <time>2015-06-07T07:13:15Z</time>
      </trkpt>
      <trkpt lat="47.88776" lon="-1.69783">
        <ele>26</ele>
        <time>2015-06-07T07:13:16Z</time>
      </trkpt>
      <trkpt lat="47.88772" lon="-1.69781">
        <ele>26</ele>
        <time>2015-06-07T07:13:17Z</time>
      </trkpt>
      <trkpt lat="47.88768" lon="-1.69778">
        <ele>26</ele>
        <time>2015-06-07T07:13:18Z</time>
      </trkpt>
      <trkpt lat="47.88764" lon="-1.69775">
        <ele>26</ele>
        <time>2015-06-07T07:13:19Z</time>
      </trkpt>
      <trkpt lat="47.8876" lon="-1.6977">
        <ele>25</ele>
        <time>2015-06-07T07:13:20Z</time>
      </trkpt>
      <trkpt lat="47.88757" lon="-1.69766">
        <ele>25</ele>
        <time>2015-06-07T07:13:21Z</time>
      </trkpt>
      <trkpt lat="47.88754" lon="-1.69762">
        <ele>25</ele>
        <time>2015-06-07T07:13:22Z</time>
      </trkpt>
      <trkpt lat="47.8875" lon="-1.69759">
        <ele>25</ele>
        <time>2015-06-07T07:13:23Z</time>
      </trkpt>
      <trkpt lat="47.88745" lon="-1.69755">
        <ele>25</ele>
        <time>2015-06-07T07:13:24Z</time>
      </trkpt>
      <trkpt lat="47.8874" lon="-1.69751">
        <ele>25</ele>
        <time>2015-06-07T07:13:25Z</time>
      </trkpt>
      <trkpt lat="47.88735" lon="-1.69748">
        <ele>25</ele>
        <time>2015-06-07T07:13:26Z</time>
      </trkpt>
      <trkpt lat="47.8873" lon="-1.69744">
        <ele>25</ele>
        <time>2015-06-07T07:13:27Z</time>
      </trkpt>
      <trkpt lat="47.88726" lon="-1.6974">
        <ele>25</ele>
        <time>2015-06-07T07:13:28Z</time>
      </trkpt>
      <trkpt lat="47.88721" lon="-1.69737">
        <ele>24</ele>
        <time>2015-06-07T07:13:29Z</time>
      </trkpt>
      <trkpt lat="47.88717" lon="-1.69733">
        <ele>24</ele>
        <time>2015-06-07T07:13:30Z</time>
      </trkpt>
      <trkpt lat="47.88713" lon="-1.6973">
        <ele>24</ele>
        <time>2015-06-07T07:13:31Z</time>
      </trkpt>
      <trkpt lat="47.88709" lon="-1.69726">
        <ele>24</ele>
        <time>2015-06-07T07:13:32Z</time>
      </trkpt>
      <trkpt lat="47.88705" lon="-1.69723">
        <ele>23</ele>
        <time>2015-06-07T07:13:33Z</time>
      </trkpt>
      <trkpt lat="47.887" lon="-1.69719">
        <ele>23</ele>
        <time>2015-06-07T07:13:34Z</time>
      </trkpt>
      <trkpt lat="47.88696" lon="-1.69715">
        <ele>23</ele>
        <time>2015-06-07T07:13:35Z</time>
      </trkpt>
      <trkpt lat="47.88692" lon="-1.69713">
        <ele>23</ele>
        <time>2015-06-07T07:13:36Z</time>
      </trkpt>
      <trkpt lat="47.88687" lon="-1.6971">
        <ele>22</ele>
        <time>2015-06-07T07:13:37Z</time>
      </trkpt>
      <trkpt lat="47.88683" lon="-1.69706">
        <ele>22</ele>
        <time>2015-06-07T07:13:38Z</time>
      </trkpt>
      <trkpt lat="47.88679" lon="-1.69701">
        <ele>22</ele>
        <time>2015-06-07T07:13:39Z</time>
      </trkpt>
      <trkpt lat="47.88676" lon="-1.69696">
        <ele>22</ele>
        <time>2015-06-07T07:13:40Z</time>
      </trkpt>
      <trkpt lat="47.88673" lon="-1.69691">
        <ele>22</ele>
        <time>2015-06-07T07:13:41Z</time>
      </trkpt>
      <trkpt lat="47.88669" lon="-1.69685">
        <ele>21</ele>
        <time>2015-06-07T07:13:42Z</time>
      </trkpt>
      <trkpt lat="47.88665" lon="-1.6968">
        <ele>21</ele>
        <time>2015-06-07T07:13:43Z</time>
      </trkpt>
      <trkpt lat="47.88662" lon="-1.69675">
        <ele>21</ele>
        <time>2015-06-07T07:13:44Z</time>
      </trkpt>
      <trkpt lat="47.88659" lon="-1.6967">
        <ele>21</ele>
        <time>2015-06-07T07:13:45Z</time>
      </trkpt>
      <trkpt lat="47.88656" lon="-1.69665">
        <ele>20</ele>
        <time>2015-06-07T07:13:46Z</time>
      </trkpt>
      <trkpt lat="47.88654" lon="-1.6966">
        <ele>20</ele>
        <time>2015-06-07T07:13:47Z</time>
      </trkpt>
      <trkpt lat="47.88653" lon="-1.69654">
        <ele>20</ele>
        <time>2015-06-07T07:13:48Z</time>
      </trkpt>
      <trkpt lat="47.88653" lon="-1.6965">
        <ele>20</ele>
        <time>2015-06-07T07:13:49Z</time>
      </trkpt>
      <trkpt lat="47.88654" lon="-1.69646">
        <ele>20</ele>
        <time>2015-06-07T07:13:50Z</time>
      </trkpt>
      <trkpt lat="47.88656" lon="-1.6964">
        <ele>20</ele>
        <time>2015-06-07T07:13:51Z</time>
      </trkpt>
      <trkpt lat="47.88657" lon="-1.69634">
        <ele>20</ele>
        <time>2015-06-07T07:13:52Z</time>
      </trkpt>
      <trkpt lat="47.88659" lon="-1.69627">
        <ele>19</ele>
        <time>2015-06-07T07:13:53Z</time>
      </trkpt>
      <trkpt lat="47.8866" lon="-1.69621">
        <ele>19</ele>
        <time>2015-06-07T07:13:54Z</time>
      </trkpt>
      <trkpt lat="47.8866" lon="-1.69615">
        <ele>19</ele>
        <time>2015-06-07T07:13:55Z</time>
      </trkpt>
      <trkpt lat="47.88659" lon="-1.69609">
        <ele>19</ele>
        <time>2015-06-07T07:13:56Z</time>
      </trkpt>
      <trkpt lat="47.88659" lon="-1.69602">
        <ele>19</ele>
        <time>2015-06-07T07:13:57Z</time>
      </trkpt>
      <trkpt lat="47.88658" lon="-1.69595">
        <ele>19</ele>
        <time>2015-06-07T07:13:58Z</time>
      </trkpt>
      <trkpt lat="47.88658" lon="-1.69588">
        <ele>19</ele>
        <time>2015-06-07T07:13:59Z</time>
      </trkpt>
      <trkpt lat="47.88657" lon="-1.69581">
        <ele>19</ele>
        <time>2015-06-07T07:14:00Z</time>
      </trkpt>
      <trkpt lat="47.88657" lon="-1.69574">
        <ele>19</ele>
        <time>2015-06-07T07:14:01Z</time>
      </trkpt>
      <trkpt lat="47.88657" lon="-1.69567">
        <ele>19</ele>
        <time>2015-06-07T07:14:02Z</time>
      </trkpt>
      <trkpt lat="47.88656" lon="-1.69559">
        <ele>19</ele>
        <time>2015-06-07T07:14:03Z</time>
      </trkpt>
      <trkpt lat="47.88654" lon="-1.69552">
        <ele>19</ele>
        <time>2015-06-07T07:14:04Z</time>
      </trkpt>
      <trkpt lat="47.88653" lon="-1.69545">
        <ele>20</ele>
        <time>2015-06-07T07:14:05Z</time>
      </trkpt>
      <trkpt lat="47.88652" lon="-1.69537">
        <ele>20</ele>
        <time>2015-06-07T07:14:06Z</time>
      </trkpt>
      <trkpt lat="47.88651" lon="-1.69529">
        <ele>20</ele>
        <time>2015-06-07T07:14:07Z</time>
      </trkpt>
      <trkpt lat="47.8865" lon="-1.69522">
        <ele>20</ele>
        <time>2015-06-07T07:14:08Z</time>
      </trkpt>
      <trkpt lat="47.88648" lon="-1.69515">
        <ele>20</ele>
        <time>2015-06-07T07:14:09Z</time>
      </trkpt>
      <trkpt lat="47.88646" lon="-1.69507">
        <ele>20</ele>
        <time>2015-06-07T07:14:10Z</time>
      </trkpt>
      <trkpt lat="47.88644" lon="-1.695">
        <ele>20</ele>
        <time>2015-06-07T07:14:11Z</time>
      </trkpt>
      <trkpt lat="47.88642" lon="-1.69493">
        <ele>20</ele>
        <time>2015-06-07T07:14:12Z</time>
      </trkpt>
      <trkpt lat="47.8864" lon="-1.69486">
        <ele>21</ele>
        <time>2015-06-07T07:14:13Z</time>
      </trkpt>
      <trkpt lat="47.88637" lon="-1.69478">
        <ele>21</ele>
        <time>2015-06-07T07:14:14Z</time>
      </trkpt>
      <trkpt lat="47.88635" lon="-1.69471">
        <ele>21</ele>
        <time>2015-06-07T07:14:15Z</time>
      </trkpt>
      <trkpt lat="47.88633" lon="-1.69464">
        <ele>21</ele>
        <time>2015-06-07T07:14:16Z</time>
      </trkpt>
      <trkpt lat="47.88631" lon="-1.69458">
        <ele>22</ele>
        <time>2015-06-07T07:14:17Z</time>
      </trkpt>
      <trkpt lat="47.88627" lon="-1.69452">
        <ele>22</ele>
        <time>2015-06-07T07:14:18Z</time>
      </trkpt>
      <trkpt lat="47.88624" lon="-1.69445">
        <ele>22</ele>
        <time>2015-06-07T07:14:19Z</time>
      </trkpt>
      <trkpt lat="47.8862" lon="-1.69439">
        <ele>22</ele>
        <time>2015-06-07T07:14:20Z</time>
      </trkpt>
      <trkpt lat="47.88618" lon="-1.69433">
        <ele>22</ele>
        <time>2015-06-07T07:14:21Z</time>
      </trkpt>
      <trkpt lat="47.88616" lon="-1.69427">
        <ele>22</ele>
        <time>2015-06-07T07:14:22Z</time>
      </trkpt>
      <trkpt lat="47.88614" lon="-1.69421">
        <ele>21</ele>
        <time>2015-06-07T07:14:23Z</time>
      </trkpt>
      <trkpt lat="47.88613" lon="-1.69416">
        <ele>21</ele>
        <time>2015-06-07T07:14:24Z</time>
      </trkpt>
      <trkpt lat="47.8861" lon="-1.69411">
        <ele>21</ele>
        <time>2015-06-07T07:14:25Z</time>
      </trkpt>
      <trkpt lat="47.88607" lon="-1.69406">
        <ele>21</ele>
        <time>2015-06-07T07:14:26Z</time>
      </trkpt>
      <trkpt lat="47.88603" lon="-1.69404">
        <ele>22</ele>
        <time>2015-06-07T07:14:27Z</time>
      </trkpt>
      <trkpt lat="47.88597" lon="-1.69401">
        <ele>22</ele>
        <time>2015-06-07T07:14:28Z</time>
      </trkpt>
      <trkpt lat="47.88592" lon="-1.69397">
        <ele>22</ele>
        <time>2015-06-07T07:14:29Z</time>
      </trkpt>
      <trkpt lat="47.88588" lon="-1.69392">
        <ele>22</ele>
        <time>2015-06-07T07:14:30Z</time>
      </trkpt>
      <trkpt lat="47.88584" lon="-1.69387">
        <ele>22</ele>
        <time>2015-06-07T07:14:31Z</time>
      </trkpt>
      <trkpt lat="47.8858" lon="-1.69381">
        <ele>22</ele>
        <time>2015-06-07T07:14:32Z</time>
      </trkpt>
      <trkpt lat="47.88577" lon="-1.69375">
        <ele>22</ele>
        <time>2015-06-07T07:14:33Z</time>
      </trkpt>
      <trkpt lat="47.88573" lon="-1.69369">
        <ele>22</ele>
        <time>2015-06-07T07:14:34Z</time>
      </trkpt>
      <trkpt lat="47.8857" lon="-1.69362">
        <ele>22</ele>
        <time>2015-06-07T07:14:35Z</time>
      </trkpt>
      <trkpt lat="47.88566" lon="-1.69356">
        <ele>22</ele>
        <time>2015-06-07T07:14:36Z</time>
      </trkpt>
      <trkpt lat="47.88562" lon="-1.6935">
        <ele>22</ele>
        <time>2015-06-07T07:14:37Z</time>
      </trkpt>
      <trkpt lat="47.88558" lon="-1.69345">
        <ele>23</ele>
        <time>2015-06-07T07:14:38Z</time>
      </trkpt>
      <trkpt lat="47.88553" lon="-1.6934">
        <ele>23</ele>
        <time>2015-06-07T07:14:39Z</time>
      </trkpt>
      <trkpt lat="47.88549" lon="-1.69336">
        <ele>23</ele>
        <time>2015-06-07T07:14:40Z</time>
      </trkpt>
      <trkpt lat="47.88544" lon="-1.69333">
        <ele>23</ele>
        <time>2015-06-07T07:14:41Z</time>
      </trkpt>
      <trkpt lat="47.88539" lon="-1.69332">
        <ele>23</ele>
        <time>2015-06-07T07:14:42Z</time>
      </trkpt>
      <trkpt lat="47.88533" lon="-1.69332">
        <ele>23</ele>
        <time>2015-06-07T07:14:43Z</time>
      </trkpt>
      <trkpt lat="47.88527" lon="-1.69332">
        <ele>23</ele>
        <time>2015-06-07T07:14:44Z</time>
      </trkpt>
      <trkpt lat="47.88522" lon="-1.69333">
        <ele>23</ele>
        <time>2015-06-07T07:14:45Z</time>
      </trkpt>
      <trkpt lat="47.88516" lon="-1.69334">
        <ele>23</ele>
        <time>2015-06-07T07:14:46Z</time>
      </trkpt>
      <trkpt lat="47.88511" lon="-1.69334">
        <ele>23</ele>
        <time>2015-06-07T07:14:47Z</time>
      </trkpt>
      <trkpt lat="47.88506" lon="-1.69333">
        <ele>23</ele>
        <time>2015-06-07T07:14:48Z</time>
      </trkpt>
      <trkpt lat="47.88501" lon="-1.6933">
        <ele>23</ele>
        <time>2015-06-07T07:14:49Z</time>
      </trkpt>
      <trkpt lat="47.88496" lon="-1.69327">
        <ele>23</ele>
        <time>2015-06-07T07:14:50Z</time>
      </trkpt>
      <trkpt lat="47.88491" lon="-1.69323">
        <ele>23</ele>
        <time>2015-06-07T07:14:51Z</time>
      </trkpt>
      <trkpt lat="47.88487" lon="-1.69317">
        <ele>23</ele>
        <time>2015-06-07T07:14:52Z</time>
      </trkpt>
      <trkpt lat="47.88483" lon="-1.69311">
        <ele>23</ele>
        <time>2015-06-07T07:14:53Z</time>
      </trkpt>
      <trkpt lat="47.8848" lon="-1.69304">
        <ele>22</ele>
        <time>2015-06-07T07:14:54Z</time>
      </trkpt>
      <trkpt lat="47.88478" lon="-1.69296">
        <ele>22</ele>
        <time>2015-06-07T07:14:55Z</time>
      </trkpt>
      <trkpt lat="47.88477" lon="-1.69288">
        <ele>22</ele>
        <time>2015-06-07T07:14:56Z</time>
      </trkpt>
      <trkpt lat="47.88476" lon="-1.6928">
        <ele>22</ele>
        <time>2015-06-07T07:14:57Z</time>
      </trkpt>
      <trkpt lat="47.88475" lon="-1.69272">
        <ele>21</ele>
        <time>2015-06-07T07:14:58Z</time>
      </trkpt>
      <trkpt lat="47.88474" lon="-1.69264">
        <ele>21</ele>
        <time>2015-06-07T07:14:59Z</time>
      </trkpt>
      <trkpt lat="47.88473" lon="-1.69256">
        <ele>21</ele>
        <time>2015-06-07T07:15:00Z</time>
      </trkpt>
      <trkpt lat="47.88472" lon="-1.69248">
        <ele>21</ele>
        <time>2015-06-07T07:15:01Z</time>
      </trkpt>
      <trkpt lat="47.88471" lon="-1.6924">
        <ele>21</ele>
        <time>2015-06-07T07:15:02Z</time>
      </trkpt>
      <trkpt lat="47.8847" lon="-1.69233">
        <ele>21</ele>
        <time>2015-06-07T07:15:03Z</time>
      </trkpt>
      <trkpt lat="47.88468" lon="-1.69225">
        <ele>20</ele>
        <time>2015-06-07T07:15:04Z</time>
      </trkpt>
      <trkpt lat="47.88467" lon="-1.69217">
        <ele>20</ele>
        <time>2015-06-07T07:15:05Z</time>
      </trkpt>
      <trkpt lat="47.88465" lon="-1.69209">
        <ele>20</ele>
        <time>2015-06-07T07:15:06Z</time>
      </trkpt>
      <trkpt lat="47.88464" lon="-1.69202">
        <ele>20</ele>
        <time>2015-06-07T07:15:07Z</time>
      </trkpt>
      <trkpt lat="47.88463" lon="-1.69194">
        <ele>20</ele>
        <time>2015-06-07T07:15:08Z</time>
      </trkpt>
      <trkpt lat="47.88462" lon="-1.69188">
        <ele>20</ele>
        <time>2015-06-07T07:15:09Z</time>
      </trkpt>
      <trkpt lat="47.88461" lon="-1.69181">
        <ele>20</ele>
        <time>2015-06-07T07:15:10Z</time>
      </trkpt>
      <trkpt lat="47.8846" lon="-1.69174">
        <ele>20</ele>
        <time>2015-06-07T07:15:11Z</time>
      </trkpt>
      <trkpt lat="47.88458" lon="-1.69168">
        <ele>19</ele>
        <time>2015-06-07T07:15:12Z</time>
      </trkpt>
      <trkpt lat="47.88456" lon="-1.69161">
        <ele>19</ele>
        <time>2015-06-07T07:15:13Z</time>
      </trkpt>
      <trkpt lat="47.88454" lon="-1.69155">
        <ele>19</ele>
        <time>2015-06-07T07:15:14Z</time>
      </trkpt>
      <trkpt lat="47.88452" lon="-1.69148">
        <ele>19</ele>
        <time>2015-06-07T07:15:15Z</time>
      </trkpt>
      <trkpt lat="47.88451" lon="-1.69142">
        <ele>19</ele>
        <time>2015-06-07T07:15:16Z</time>
      </trkpt>
      <trkpt lat="47.88449" lon="-1.69136">
        <ele>19</ele>
        <time>2015-06-07T07:15:17Z</time>
      </trkpt>
      <trkpt lat="47.88446" lon="-1.69129">
        <ele>19</ele>
        <time>2015-06-07T07:15:18Z</time>
      </trkpt>
      <trkpt lat="47.88444" lon="-1.69124">
        <ele>19</ele>
        <time>2015-06-07T07:15:19Z</time>
      </trkpt>
      <trkpt lat="47.88441" lon="-1.69119">
        <ele>19</ele>
        <time>2015-06-07T07:15:20Z</time>
      </trkpt>
      <trkpt lat="47.88439" lon="-1.69113">
        <ele>19</ele>
        <time>2015-06-07T07:15:21Z</time>
      </trkpt>
      <trkpt lat="47.88436" lon="-1.69108">
        <ele>19</ele>
        <time>2015-06-07T07:15:22Z</time>
      </trkpt>
      <trkpt lat="47.88432" lon="-1.69103">
        <ele>19</ele>
        <time>2015-06-07T07:15:23Z</time>
      </trkpt>
      <trkpt lat="47.88427" lon="-1.69099">
        <ele>19</ele>
        <time>2015-06-07T07:15:24Z</time>
      </trkpt>
      <trkpt lat="47.88423" lon="-1.69094">
        <ele>19</ele>
        <time>2015-06-07T07:15:25Z</time>
      </trkpt>
      <trkpt lat="47.88418" lon="-1.6909">
        <ele>19</ele>
        <time>2015-06-07T07:15:26Z</time>
      </trkpt>
      <trkpt lat="47.88414" lon="-1.69086">
        <ele>19</ele>
        <time>2015-06-07T07:15:27Z</time>
      </trkpt>
      <trkpt lat="47.88408" lon="-1.69081">
        <ele>19</ele>
        <time>2015-06-07T07:15:28Z</time>
      </trkpt>
      <trkpt lat="47.88404" lon="-1.69077">
        <ele>19</ele>
        <time>2015-06-07T07:15:29Z</time>
      </trkpt>
      <trkpt lat="47.88398" lon="-1.69073">
        <ele>19</ele>
        <time>2015-06-07T07:15:30Z</time>
      </trkpt>
      <trkpt lat="47.88394" lon="-1.69071">
        <ele>19</ele>
        <time>2015-06-07T07:15:31Z</time>
      </trkpt>
      <trkpt lat="47.88388" lon="-1.69069">
        <ele>19</ele>
        <time>2015-06-07T07:15:32Z</time>
      </trkpt>
      <trkpt lat="47.88382" lon="-1.69067">
        <ele>19</ele>
        <time>2015-06-07T07:15:33Z</time>
      </trkpt>
      <trkpt lat="47.88375" lon="-1.69066">
        <ele>19</ele>
        <time>2015-06-07T07:15:34Z</time>
      </trkpt>
      <trkpt lat="47.88369" lon="-1.69066">
        <ele>19</ele>
        <time>2015-06-07T07:15:35Z</time>
      </trkpt>
      <trkpt lat="47.88363" lon="-1.69064">
        <ele>20</ele>
        <time>2015-06-07T07:15:36Z</time>
      </trkpt>
      <trkpt lat="47.88357" lon="-1.69063">
        <ele>20</ele>
        <time>2015-06-07T07:15:37Z</time>
      </trkpt>
      <trkpt lat="47.88351" lon="-1.69061">
        <ele>20</ele>
        <time>2015-06-07T07:15:38Z</time>
      </trkpt>
      <trkpt lat="47.88345" lon="-1.69061">
        <ele>20</ele>
        <time>2015-06-07T07:15:39Z</time>
      </trkpt>
      <trkpt lat="47.8834" lon="-1.69062">
        <ele>20</ele>
        <time>2015-06-07T07:15:40Z</time>
      </trkpt>
      <trkpt lat="47.88335" lon="-1.69065">
        <ele>20</ele>
        <time>2015-06-07T07:15:41Z</time>
      </trkpt>
      <trkpt lat="47.8833" lon="-1.69067">
        <ele>20</ele>
        <time>2015-06-07T07:15:42Z</time>
      </trkpt>
      <trkpt lat="47.88325" lon="-1.69068">
        <ele>20</ele>
        <time>2015-06-07T07:15:43Z</time>
      </trkpt>
      <trkpt lat="47.8832" lon="-1.69067">
        <ele>20</ele>
        <time>2015-06-07T07:15:44Z</time>
      </trkpt>
      <trkpt lat="47.88315" lon="-1.69066">
        <ele>20</ele>
        <time>2015-06-07T07:15:45Z</time>
      </trkpt>
      <trkpt lat="47.8831" lon="-1.69065">
        <ele>20</ele>
        <time>2015-06-07T07:15:46Z</time>
      </trkpt>
      <trkpt lat="47.88305" lon="-1.69064">
        <ele>20</ele>
        <time>2015-06-07T07:15:47Z</time>
      </trkpt>
      <trkpt lat="47.883" lon="-1.69064">
        <ele>20</ele>
        <time>2015-06-07T07:15:48Z</time>
      </trkpt>
      <trkpt lat="47.88296" lon="-1.69062">
        <ele>20</ele>
        <time>2015-06-07T07:15:49Z</time>
      </trkpt>
      <trkpt lat="47.88292" lon="-1.69059">
        <ele>20</ele>
        <time>2015-06-07T07:15:50Z</time>
      </trkpt>
      <trkpt lat="47.88289" lon="-1.69055">
        <ele>20</ele>
        <time>2015-06-07T07:15:51Z</time>
      </trkpt>
      <trkpt lat="47.88286" lon="-1.69049">
        <ele>20</ele>
        <time>2015-06-07T07:15:52Z</time>
      </trkpt>
      <trkpt lat="47.88283" lon="-1.69044">
        <ele>20</ele>
        <time>2015-06-07T07:15:53Z</time>
      </trkpt>
      <trkpt lat="47.8828" lon="-1.69039">
        <ele>20</ele>
        <time>2015-06-07T07:15:54Z</time>
      </trkpt>
      <trkpt lat="47.88277" lon="-1.69033">
        <ele>20</ele>
        <time>2015-06-07T07:15:55Z</time>
      </trkpt>
      <trkpt lat="47.88275" lon="-1.69028">
        <ele>20</ele>
        <time>2015-06-07T07:15:56Z</time>
      </trkpt>
      <trkpt lat="47.88272" lon="-1.69022">
        <ele>20</ele>
        <time>2015-06-07T07:15:57Z</time>
      </trkpt>
      <trkpt lat="47.88268" lon="-1.69018">
        <ele>20</ele>
        <time>2015-06-07T07:15:58Z</time>
      </trkpt>
      <trkpt lat="47.88264" lon="-1.69014">
        <ele>20</ele>
        <time>2015-06-07T07:15:59Z</time>
      </trkpt>
      <trkpt lat="47.88261" lon="-1.6901">
        <ele>20</ele>
        <time>2015-06-07T07:16:00Z</time>
      </trkpt>
      <trkpt lat="47.88258" lon="-1.69006">
        <ele>20</ele>
        <time>2015-06-07T07:16:01Z</time>
      </trkpt>
      <trkpt lat="47.88255" lon="-1.69001">
        <ele>20</ele>
        <time>2015-06-07T07:16:02Z</time>
      </trkpt>
      <trkpt lat="47.88252" lon="-1.68996">
        <ele>20</ele>
        <time>2015-06-07T07:16:03Z</time>
      </trkpt>
      <trkpt lat="47.8825" lon="-1.68991">
        <ele>20</ele>
        <time>2015-06-07T07:16:04Z</time>
      </trkpt>
      <trkpt lat="47.88247" lon="-1.68985">
        <ele>19</ele>
        <time>2015-06-07T07:16:05Z</time>
      </trkpt>
      <trkpt lat="47.88244" lon="-1.68981">
        <ele>19</ele>
        <time>2015-06-07T07:16:06Z</time>
      </trkpt>
      <trkpt lat="47.88243" lon="-1.68977">
        <ele>19</ele>
        <time>2015-06-07T07:16:07Z</time>
      </trkpt>
      <trkpt lat="47.88241" lon="-1.68973">
        <ele>19</ele>
        <time>2015-06-07T07:16:08Z</time>
      </trkpt>
      <trkpt lat="47.8824" lon="-1.6897">
        <ele>19</ele>
        <time>2015-06-07T07:16:09Z</time>
      </trkpt>
      <trkpt lat="47.8824" lon="-1.68966">
        <ele>19</ele>
        <time>2015-06-07T07:16:10Z</time>
      </trkpt>
      <trkpt lat="47.88241" lon="-1.68962">
        <ele>19</ele>
        <time>2015-06-07T07:16:11Z</time>
      </trkpt>
      <trkpt lat="47.88242" lon="-1.6896">
        <ele>19</ele>
        <time>2015-06-07T07:16:12Z</time>
      </trkpt>
      <trkpt lat="47.88245" lon="-1.68957">
        <ele>19</ele>
        <time>2015-06-07T07:16:13Z</time>
      </trkpt>
      <trkpt lat="47.88247" lon="-1.68955">
        <ele>19</ele>
        <time>2015-06-07T07:16:14Z</time>
      </trkpt>
      <trkpt lat="47.88249" lon="-1.68953">
        <ele>18</ele>
        <time>2015-06-07T07:16:15Z</time>
      </trkpt>
      <trkpt lat="47.88249" lon="-1.68951">
        <ele>18</ele>
        <time>2015-06-07T07:16:16Z</time>
      </trkpt>
      <trkpt lat="47.88248" lon="-1.68947">
        <ele>18</ele>
        <time>2015-06-07T07:16:17Z</time>
      </trkpt>
      <trkpt lat="47.88246" lon="-1.68941">
        <ele>18</ele>
        <time>2015-06-07T07:16:18Z</time>
      </trkpt>
      <trkpt lat="47.88245" lon="-1.68936">
        <ele>18</ele>
        <time>2015-06-07T07:16:19Z</time>
      </trkpt>
      <trkpt lat="47.88244" lon="-1.68931">
        <ele>17</ele>
        <time>2015-06-07T07:16:20Z</time>
      </trkpt>
      <trkpt lat="47.88243" lon="-1.68926">
        <ele>17</ele>
        <time>2015-06-07T07:16:21Z</time>
      </trkpt>
      <trkpt lat="47.88241" lon="-1.68921">
        <ele>17</ele>
        <time>2015-06-07T07:16:22Z</time>
      </trkpt>
      <trkpt lat="47.88239" lon="-1.68915">
        <ele>16</ele>
        <time>2015-06-07T07:16:23Z</time>
      </trkpt>
      <trkpt lat="47.88237" lon="-1.68909">
        <ele>16</ele>
        <time>2015-06-07T07:16:24Z</time>
      </trkpt>
      <trkpt lat="47.88233" lon="-1.68902">
        <ele>16</ele>
        <time>2015-06-07T07:16:25Z</time>
      </trkpt>
      <trkpt lat="47.8823" lon="-1.68894">
        <ele>16</ele>
        <time>2015-06-07T07:16:26Z</time>
      </trkpt>
      <trkpt lat="47.88226" lon="-1.68886">
        <ele>15</ele>
        <time>2015-06-07T07:16:27Z</time>
      </trkpt>
      <trkpt lat="47.88222" lon="-1.68879">
        <ele>15</ele>
        <time>2015-06-07T07:16:28Z</time>
      </trkpt>
      <trkpt lat="47.88218" lon="-1.6887">
        <ele>15</ele>
        <time>2015-06-07T07:16:29Z</time>
      </trkpt>
      <trkpt lat="47.88215" lon="-1.68863">
        <ele>15</ele>
        <time>2015-06-07T07:16:30Z</time>
      </trkpt>
      <trkpt lat="47.88211" lon="-1.68854">
        <ele>15</ele>
        <time>2015-06-07T07:16:31Z</time>
      </trkpt>
      <trkpt lat="47.88207" lon="-1.68846">
        <ele>16</ele>
        <time>2015-06-07T07:16:32Z</time>
      </trkpt>
      <trkpt lat="47.88203" lon="-1.68839">
        <ele>16</ele>
        <time>2015-06-07T07:16:33Z</time>
      </trkpt>
      <trkpt lat="47.88198" lon="-1.68831">
        <ele>16</ele>
        <time>2015-06-07T07:16:34Z</time>
      </trkpt>
      <trkpt lat="47.88194" lon="-1.68823">
        <ele>16</ele>
        <time>2015-06-07T07:16:35Z</time>
      </trkpt>
      <trkpt lat="47.88189" lon="-1.68817">
        <ele>16</ele>
        <time>2015-06-07T07:16:36Z</time>
      </trkpt>
      <trkpt lat="47.88184" lon="-1.6881">
        <ele>16</ele>
        <time>2015-06-07T07:16:37Z</time>
      </trkpt>
      <trkpt lat="47.88179" lon="-1.68805">
        <ele>16</ele>
        <time>2015-06-07T07:16:38Z</time>
      </trkpt>
      <trkpt lat="47.88174" lon="-1.68798">
        <ele>16</ele>
        <time>2015-06-07T07:16:39Z</time>
      </trkpt>
      <trkpt lat="47.88169" lon="-1.68792">
        <ele>16</ele>
        <time>2015-06-07T07:16:40Z</time>
      </trkpt>
      <trkpt lat="47.88164" lon="-1.68786">
        <ele>16</ele>
        <time>2015-06-07T07:16:41Z</time>
      </trkpt>
      <trkpt lat="47.88158" lon="-1.68779">
        <ele>17</ele>
        <time>2015-06-07T07:16:42Z</time>
      </trkpt>
      <trkpt lat="47.88153" lon="-1.68773">
        <ele>17</ele>
        <time>2015-06-07T07:16:43Z</time>
      </trkpt>
      <trkpt lat="47.88148" lon="-1.68766">
        <ele>17</ele>
        <time>2015-06-07T07:16:44Z</time>
      </trkpt>
      <trkpt lat="47.88143" lon="-1.68759">
        <ele>17</ele>
        <time>2015-06-07T07:16:45Z</time>
      </trkpt>
      <trkpt lat="47.88138" lon="-1.68753">
        <ele>17</ele>
        <time>2015-06-07T07:16:46Z</time>
      </trkpt>
      <trkpt lat="47.88134" lon="-1.68746">
        <ele>18</ele>
        <time>2015-06-07T07:16:47Z</time>
      </trkpt>
      <trkpt lat="47.88129" lon="-1.6874">
        <ele>18</ele>
        <time>2015-06-07T07:16:48Z</time>
      </trkpt>
      <trkpt lat="47.88125" lon="-1.68733">
        <ele>18</ele>
        <time>2015-06-07T07:16:49Z</time>
      </trkpt>
      <trkpt lat="47.88121" lon="-1.68726">
        <ele>18</ele>
        <time>2015-06-07T07:16:50Z</time>
      </trkpt>
      <trkpt lat="47.88117" lon="-1.68719">
        <ele>18</ele>
        <time>2015-06-07T07:16:51Z</time>
      </trkpt>
      <trkpt lat="47.88113" lon="-1.68712">
        <ele>18</ele>
        <time>2015-06-07T07:16:52Z</time>
      </trkpt>
      <trkpt lat="47.88109" lon="-1.68705">
        <ele>19</ele>
        <time>2015-06-07T07:16:53Z</time>
      </trkpt>
      <trkpt lat="47.88105" lon="-1.68698">
        <ele>19</ele>
        <time>2015-06-07T07:16:54Z</time>
      </trkpt>
      <trkpt lat="47.88102" lon="-1.6869">
        <ele>19</ele>
        <time>2015-06-07T07:16:55Z</time>
      </trkpt>
      <trkpt lat="47.88099" lon="-1.68682">
        <ele>19</ele>
        <time>2015-06-07T07:16:56Z</time>
      </trkpt>
      <trkpt lat="47.88096" lon="-1.68675">
        <ele>19</ele>
        <time>2015-06-07T07:16:57Z</time>
      </trkpt>
      <trkpt lat="47.88092" lon="-1.68668">
        <ele>19</ele>
        <time>2015-06-07T07:16:58Z</time>
      </trkpt>
      <trkpt lat="47.88089" lon="-1.6866">
        <ele>19</ele>
        <time>2015-06-07T07:16:59Z</time>
      </trkpt>
      <trkpt lat="47.88087" lon="-1.68652">
        <ele>18</ele>
        <time>2015-06-07T07:17:00Z</time>
      </trkpt>
      <trkpt lat="47.88085" lon="-1.68644">
        <ele>18</ele>
        <time>2015-06-07T07:17:01Z</time>
      </trkpt>
      <trkpt lat="47.88084" lon="-1.68636">
        <ele>18</ele>
        <time>2015-06-07T07:17:02Z</time>
      </trkpt>
      <trkpt lat="47.88083" lon="-1.68627">
        <ele>19</ele>
        <time>2015-06-07T07:17:03Z</time>
      </trkpt>
      <trkpt lat="47.88083" lon="-1.68619">
        <ele>18</ele>
        <time>2015-06-07T07:17:04Z</time>
      </trkpt>
      <trkpt lat="47.88083" lon="-1.6861">
        <ele>18</ele>
        <time>2015-06-07T07:17:05Z</time>
      </trkpt>
      <trkpt lat="47.88083" lon="-1.68601">
        <ele>18</ele>
        <time>2015-06-07T07:17:06Z</time>
      </trkpt>
      <trkpt lat="47.88084" lon="-1.68593">
        <ele>18</ele>
        <time>2015-06-07T07:17:07Z</time>
      </trkpt>
      <trkpt lat="47.88085" lon="-1.68584">
        <ele>18</ele>
        <time>2015-06-07T07:17:08Z</time>
      </trkpt>
      <trkpt lat="47.88085" lon="-1.68575">
        <ele>18</ele>
        <time>2015-06-07T07:17:09Z</time>
      </trkpt>
      <trkpt lat="47.88085" lon="-1.68567">
        <ele>18</ele>
        <time>2015-06-07T07:17:10Z</time>
      </trkpt>
      <trkpt lat="47.88086" lon="-1.68558">
        <ele>18</ele>
        <time>2015-06-07T07:17:11Z</time>
      </trkpt>
      <trkpt lat="47.88085" lon="-1.6855">
        <ele>18</ele>
        <time>2015-06-07T07:17:12Z</time>
      </trkpt>
      <trkpt lat="47.88085" lon="-1.68542">
        <ele>18</ele>
        <time>2015-06-07T07:17:13Z</time>
      </trkpt>
      <trkpt lat="47.88085" lon="-1.68534">
        <ele>18</ele>
        <time>2015-06-07T07:17:14Z</time>
      </trkpt>
      <trkpt lat="47.88085" lon="-1.68526">
        <ele>18</ele>
        <time>2015-06-07T07:17:15Z</time>
      </trkpt>
      <trkpt lat="47.88085" lon="-1.68518">
        <ele>18</ele>
        <time>2015-06-07T07:17:16Z</time>
      </trkpt>
      <trkpt lat="47.88085" lon="-1.6851">
        <ele>18</ele>
        <time>2015-06-07T07:17:17Z</time>
      </trkpt>
      <trkpt lat="47.88085" lon="-1.68502">
        <ele>19</ele>
        <time>2015-06-07T07:17:18Z</time>
      </trkpt>
      <trkpt lat="47.88086" lon="-1.68495">
        <ele>19</ele>
        <time>2015-06-07T07:17:19Z</time>
      </trkpt>
      <trkpt lat="47.88088" lon="-1.68487">
        <ele>18</ele>
        <time>2015-06-07T07:17:20Z</time>
      </trkpt>
      <trkpt lat="47.8809" lon="-1.6848">
        <ele>18</ele>
        <time>2015-06-07T07:17:21Z</time>
      </trkpt>
      <trkpt lat="47.88093" lon="-1.68473">
        <ele>18</ele>
        <time>2015-06-07T07:17:22Z</time>
      </trkpt>
      <trkpt lat="47.88096" lon="-1.68467">
        <ele>18</ele>
        <time>2015-06-07T07:17:23Z</time>
      </trkpt>
      <trkpt lat="47.88099" lon="-1.68461">
        <ele>19</ele>
        <time>2015-06-07T07:17:24Z</time>
      </trkpt>
      <trkpt lat="47.88102" lon="-1.68455">
        <ele>19</ele>
        <time>2015-06-07T07:17:25Z</time>
      </trkpt>
      <trkpt lat="47.88104" lon="-1.68449">
        <ele>19</ele>
        <time>2015-06-07T07:17:26Z</time>
      </trkpt>
      <trkpt lat="47.88107" lon="-1.68442">
        <ele>19</ele>
        <time>2015-06-07T07:17:27Z</time>
      </trkpt>
      <trkpt lat="47.88109" lon="-1.68434">
        <ele>18</ele>
        <time>2015-06-07T07:17:28Z</time>
      </trkpt>
      <trkpt lat="47.88111" lon="-1.68426">
        <ele>18</ele>
        <time>2015-06-07T07:17:29Z</time>
      </trkpt>
      <trkpt lat="47.88113" lon="-1.68418">
        <ele>18</ele>
        <time>2015-06-07T07:17:30Z</time>
      </trkpt>
      <trkpt lat="47.88114" lon="-1.6841">
        <ele>18</ele>
        <time>2015-06-07T07:17:31Z</time>
      </trkpt>
      <trkpt lat="47.88116" lon="-1.68403">
        <ele>18</ele>
        <time>2015-06-07T07:17:32Z</time>
      </trkpt>
      <trkpt lat="47.88118" lon="-1.68396">
        <ele>18</ele>
        <time>2015-06-07T07:17:33Z</time>
      </trkpt>
      <trkpt lat="47.8812" lon="-1.6839">
        <ele>18</ele>
        <time>2015-06-07T07:17:34Z</time>
      </trkpt>
      <trkpt lat="47.88124" lon="-1.68387">
        <ele>17</ele>
        <time>2015-06-07T07:17:35Z</time>
      </trkpt>
      <trkpt lat="47.88128" lon="-1.68385">
        <ele>17</ele>
        <time>2015-06-07T07:17:36Z</time>
      </trkpt>
      <trkpt lat="47.88132" lon="-1.68386">
        <ele>18</ele>
        <time>2015-06-07T07:17:37Z</time>
      </trkpt>
      <trkpt lat="47.88136" lon="-1.68387">
        <ele>18</ele>
        <time>2015-06-07T07:17:38Z</time>
      </trkpt>
      <trkpt lat="47.88141" lon="-1.68389">
        <ele>18</ele>
        <time>2015-06-07T07:17:39Z</time>
      </trkpt>
      <trkpt lat="47.88146" lon="-1.68391">
        <ele>18</ele>
        <time>2015-06-07T07:17:40Z</time>
      </trkpt>
      <trkpt lat="47.88151" lon="-1.68393">
        <ele>18</ele>
        <time>2015-06-07T07:17:41Z</time>
      </trkpt>
      <trkpt lat="47.88155" lon="-1.68394">
        <ele>18</ele>
        <time>2015-06-07T07:17:42Z</time>
      </trkpt>
      <trkpt lat="47.88159" lon="-1.68396">
        <ele>18</ele>
        <time>2015-06-07T07:17:43Z</time>
      </trkpt>
      <trkpt lat="47.88164" lon="-1.68397">
        <ele>19</ele>
        <time>2015-06-07T07:17:44Z</time>
      </trkpt>
      <trkpt lat="47.88168" lon="-1.68398">
        <ele>19</ele>
        <time>2015-06-07T07:17:45Z</time>
      </trkpt>
      <trkpt lat="47.88173" lon="-1.68399">
        <ele>19</ele>
        <time>2015-06-07T07:17:46Z</time>
      </trkpt>
      <trkpt lat="47.88177" lon="-1.68401">
        <ele>19</ele>
        <time>2015-06-07T07:17:47Z</time>
      </trkpt>
      <trkpt lat="47.88181" lon="-1.68402">
        <ele>19</ele>
        <time>2015-06-07T07:17:48Z</time>
      </trkpt>
      <trkpt lat="47.88183" lon="-1.68403">
        <ele>20</ele>
        <time>2015-06-07T07:17:49Z</time>
      </trkpt>
      <trkpt lat="47.88185" lon="-1.68404">
        <ele>20</ele>
        <time>2015-06-07T07:17:50Z</time>
      </trkpt>
      <trkpt lat="47.88187" lon="-1.68403">
        <ele>20</ele>
        <time>2015-06-07T07:17:51Z</time>
      </trkpt>
      <trkpt lat="47.88188" lon="-1.68401">
        <ele>20</ele>
        <time>2015-06-07T07:17:52Z</time>
      </trkpt>
      <trkpt lat="47.88188" lon="-1.68397">
        <ele>20</ele>
        <time>2015-06-07T07:17:53Z</time>
      </trkpt>
      <trkpt lat="47.88188" lon="-1.68394">
        <ele>20</ele>
        <time>2015-06-07T07:17:54Z</time>
      </trkpt>
      <trkpt lat="47.88189" lon="-1.6839">
        <ele>20</ele>
        <time>2015-06-07T07:17:55Z</time>
      </trkpt>
      <trkpt lat="47.8819" lon="-1.68385">
        <ele>20</ele>
        <time>2015-06-07T07:17:56Z</time>
      </trkpt>
      <trkpt lat="47.88191" lon="-1.68379">
        <ele>20</ele>
        <time>2015-06-07T07:17:57Z</time>
      </trkpt>
      <trkpt lat="47.88193" lon="-1.68373">
        <ele>20</ele>
        <time>2015-06-07T07:17:58Z</time>
      </trkpt>
      <trkpt lat="47.88194" lon="-1.68366">
        <ele>20</ele>
        <time>2015-06-07T07:17:59Z</time>
      </trkpt>
      <trkpt lat="47.88194" lon="-1.68359">
        <ele>20</ele>
        <time>2015-06-07T07:18:00Z</time>
      </trkpt>
      <trkpt lat="47.88196" lon="-1.68352">
        <ele>20</ele>
        <time>2015-06-07T07:18:01Z</time>
      </trkpt>
      <trkpt lat="47.88198" lon="-1.68346">
        <ele>20</ele>
        <time>2015-06-07T07:18:02Z</time>
      </trkpt>
      <trkpt lat="47.882" lon="-1.68339">
        <ele>20</ele>
        <time>2015-06-07T07:18:03Z</time>
      </trkpt>
      <trkpt lat="47.88202" lon="-1.68332">
        <ele>20</ele>
        <time>2015-06-07T07:18:04Z</time>
      </trkpt>
      <trkpt lat="47.88204" lon="-1.68325">
        <ele>20</ele>
        <time>2015-06-07T07:18:05Z</time>
      </trkpt>
      <trkpt lat="47.88206" lon="-1.68318">
        <ele>20</ele>
        <time>2015-06-07T07:18:06Z</time>
      </trkpt>
      <trkpt lat="47.88208" lon="-1.68311">
        <ele>19</ele>
        <time>2015-06-07T07:18:07Z</time>
      </trkpt>
      <trkpt lat="47.88209" lon="-1.68303">
        <ele>19</ele>
        <time>2015-06-07T07:18:08Z</time>
      </trkpt>
      <trkpt lat="47.88211" lon="-1.68296">
        <ele>19</ele>
        <time>2015-06-07T07:18:09Z</time>
      </trkpt>
      <trkpt lat="47.88213" lon="-1.68288">
        <ele>19</ele>
        <time>2015-06-07T07:18:10Z</time>
      </trkpt>
      <trkpt lat="47.88214" lon="-1.68281">
        <ele>19</ele>
        <time>2015-06-07T07:18:11Z</time>
      </trkpt>
      <trkpt lat="47.88217" lon="-1.68273">
        <ele>19</ele>
        <time>2015-06-07T07:18:12Z</time>
      </trkpt>
      <trkpt lat="47.8822" lon="-1.68267">
        <ele>19</ele>
        <time>2015-06-07T07:18:13Z</time>
      </trkpt>
      <trkpt lat="47.88224" lon="-1.68263">
        <ele>19</ele>
        <time>2015-06-07T07:18:14Z</time>
      </trkpt>
      <trkpt lat="47.88228" lon="-1.68261">
        <ele>19</ele>
        <time>2015-06-07T07:18:15Z</time>
      </trkpt>
      <trkpt lat="47.88233" lon="-1.68259">
        <ele>19</ele>
        <time>2015-06-07T07:18:16Z</time>
      </trkpt>
      <trkpt lat="47.88238" lon="-1.68258">
        <ele>19</ele>
        <time>2015-06-07T07:18:17Z</time>
      </trkpt>
      <trkpt lat="47.88243" lon="-1.68257">
        <ele>19</ele>
        <time>2015-06-07T07:18:18Z</time>
      </trkpt>
      <trkpt lat="47.88247" lon="-1.68255">
        <ele>19</ele>
        <time>2015-06-07T07:18:19Z</time>
      </trkpt>
      <trkpt lat="47.88252" lon="-1.68254">
        <ele>19</ele>
        <time>2015-06-07T07:18:20Z</time>
      </trkpt>
      <trkpt lat="47.88256" lon="-1.68253">
        <ele>19</ele>
        <time>2015-06-07T07:18:21Z</time>
      </trkpt>
      <trkpt lat="47.8826" lon="-1.68253">
        <ele>19</ele>
        <time>2015-06-07T07:18:22Z</time>
      </trkpt>
      <trkpt lat="47.88264" lon="-1.68252">
        <ele>19</ele>
        <time>2015-06-07T07:18:23Z</time>
      </trkpt>
      <trkpt lat="47.88267" lon="-1.6825">
        <ele>20</ele>
        <time>2015-06-07T07:18:24Z</time>
      </trkpt>
      <trkpt lat="47.88267" lon="-1.68246">
        <ele>20</ele>
        <time>2015-06-07T07:18:25Z</time>
      </trkpt>
      <trkpt lat="47.88266" lon="-1.68242">
        <ele>20</ele>
        <time>2015-06-07T07:18:26Z</time>
      </trkpt>
      <trkpt lat="47.88264" lon="-1.68237">
        <ele>20</ele>
        <time>2015-06-07T07:18:27Z</time>
      </trkpt>
      <trkpt lat="47.88261" lon="-1.68233">
        <ele>20</ele>
        <time>2015-06-07T07:18:28Z</time>
      </trkpt>
      <trkpt lat="47.88257" lon="-1.68228">
        <ele>20</ele>
        <time>2015-06-07T07:18:29Z</time>
      </trkpt>
      <trkpt lat="47.88253" lon="-1.68223">
        <ele>20</ele>
        <time>2015-06-07T07:18:30Z</time>
      </trkpt>
      <trkpt lat="47.88248" lon="-1.68217">
        <ele>20</ele>
        <time>2015-06-07T07:18:31Z</time>
      </trkpt>
      <trkpt lat="47.88244" lon="-1.68212">
        <ele>20</ele>
        <time>2015-06-07T07:18:32Z</time>
      </trkpt>
      <trkpt lat="47.88239" lon="-1.68206">
        <ele>20</ele>
        <time>2015-06-07T07:18:33Z</time>
      </trkpt>
      <trkpt lat="47.88235" lon="-1.68201">
        <ele>20</ele>
        <time>2015-06-07T07:18:34Z</time>
      </trkpt>
      <trkpt lat="47.88231" lon="-1.68195">
        <ele>20</ele>
        <time>2015-06-07T07:18:35Z</time>
      </trkpt>
      <trkpt lat="47.88226" lon="-1.6819">
        <ele>20</ele>
        <time>2015-06-07T07:18:36Z</time>
      </trkpt>
      <trkpt lat="47.88222" lon="-1.68185">
        <ele>20</ele>
        <time>2015-06-07T07:18:37Z</time>
      </trkpt>
      <trkpt lat="47.88217" lon="-1.6818">
        <ele>20</ele>
        <time>2015-06-07T07:18:38Z</time>
      </trkpt>
      <trkpt lat="47.88212" lon="-1.68174">
        <ele>20</ele>
        <time>2015-06-07T07:18:39Z</time>
      </trkpt>
      <trkpt lat="47.88207" lon="-1.68169">
        <ele>20</ele>
        <time>2015-06-07T07:18:40Z</time>
      </trkpt>
      <trkpt lat="47.88203" lon="-1.68164">
        <ele>20</ele>
        <time>2015-06-07T07:18:41Z</time>
      </trkpt>
      <trkpt lat="47.88198" lon="-1.68159">
        <ele>20</ele>
        <time>2015-06-07T07:18:42Z</time>
      </trkpt>
      <trkpt lat="47.88194" lon="-1.68154">
        <ele>20</ele>
        <time>2015-06-07T07:18:43Z</time>
      </trkpt>
      <trkpt lat="47.88189" lon="-1.68148">
        <ele>20</ele>
        <time>2015-06-07T07:18:44Z</time>
      </trkpt>
      <trkpt lat="47.88185" lon="-1.68144">
        <ele>19</ele>
        <time>2015-06-07T07:18:45Z</time>
      </trkpt>
      <trkpt lat="47.88181" lon="-1.68139">
        <ele>20</ele>
        <time>2015-06-07T07:18:46Z</time>
      </trkpt>
      <trkpt lat="47.88176" lon="-1.68134">
        <ele>20</ele>
        <time>2015-06-07T07:18:47Z</time>
      </trkpt>
      <trkpt lat="47.88172" lon="-1.68129">
        <ele>20</ele>
        <time>2015-06-07T07:18:48Z</time>
      </trkpt>
      <trkpt lat="47.88168" lon="-1.68124">
        <ele>20</ele>
        <time>2015-06-07T07:18:49Z</time>
      </trkpt>
      <trkpt lat="47.88164" lon="-1.68118">
        <ele>20</ele>
        <time>2015-06-07T07:18:50Z</time>
      </trkpt>
      <trkpt lat="47.88159" lon="-1.68112">
        <ele>20</ele>
        <time>2015-06-07T07:18:51Z</time>
      </trkpt>
      <trkpt lat="47.88154" lon="-1.68106">
        <ele>20</ele>
        <time>2015-06-07T07:18:52Z</time>
      </trkpt>
      <trkpt lat="47.88149" lon="-1.68101">
        <ele>20</ele>
        <time>2015-06-07T07:18:53Z</time>
      </trkpt>
      <trkpt lat="47.88144" lon="-1.68095">
        <ele>20</ele>
        <time>2015-06-07T07:18:54Z</time>
      </trkpt>
      <trkpt lat="47.88139" lon="-1.68089">
        <ele>20</ele>
        <time>2015-06-07T07:18:55Z</time>
      </trkpt>
      <trkpt lat="47.88134" lon="-1.68083">
        <ele>20</ele>
        <time>2015-06-07T07:18:56Z</time>
      </trkpt>
      <trkpt lat="47.8813" lon="-1.68077">
        <ele>20</ele>
        <time>2015-06-07T07:18:57Z</time>
      </trkpt>
      <trkpt lat="47.88125" lon="-1.68071">
        <ele>20</ele>
        <time>2015-06-07T07:18:58Z</time>
      </trkpt>
      <trkpt lat="47.88122" lon="-1.68064">
        <ele>20</ele>
        <time>2015-06-07T07:18:59Z</time>
      </trkpt>
      <trkpt lat="47.88117" lon="-1.68058">
        <ele>20</ele>
        <time>2015-06-07T07:19:00Z</time>
      </trkpt>
      <trkpt lat="47.88112" lon="-1.68052">
        <ele>20</ele>
        <time>2015-06-07T07:19:01Z</time>
      </trkpt>
      <trkpt lat="47.88106" lon="-1.68046">
        <ele>20</ele>
        <time>2015-06-07T07:19:02Z</time>
      </trkpt>
      <trkpt lat="47.88101" lon="-1.68039">
        <ele>20</ele>
        <time>2015-06-07T07:19:03Z</time>
      </trkpt>
      <trkpt lat="47.88096" lon="-1.68033">
        <ele>20</ele>
        <time>2015-06-07T07:19:04Z</time>
      </trkpt>
      <trkpt lat="47.88091" lon="-1.68029">
        <ele>20</ele>
        <time>2015-06-07T07:19:05Z</time>
      </trkpt>
      <trkpt lat="47.88085" lon="-1.68023">
        <ele>20</ele>
        <time>2015-06-07T07:19:06Z</time>
      </trkpt>
      <trkpt lat="47.8808" lon="-1.68017">
        <ele>20</ele>
        <time>2015-06-07T07:19:07Z</time>
      </trkpt>
      <trkpt lat="47.88075" lon="-1.68011">
        <ele>20</ele>
        <time>2015-06-07T07:19:08Z</time>
      </trkpt>
      <trkpt lat="47.88069" lon="-1.68006">
        <ele>20</ele>
        <time>2015-06-07T07:19:09Z</time>
      </trkpt>
      <trkpt lat="47.88064" lon="-1.68">
        <ele>20</ele>
        <time>2015-06-07T07:19:10Z</time>
      </trkpt>
      <trkpt lat="47.88059" lon="-1.67994">
        <ele>19</ele>
        <time>2015-06-07T07:19:11Z</time>
      </trkpt>
      <trkpt lat="47.88054" lon="-1.67988">
        <ele>19</ele>
        <time>2015-06-07T07:19:12Z</time>
      </trkpt>
      <trkpt lat="47.88049" lon="-1.67982">
        <ele>19</ele>
        <time>2015-06-07T07:19:13Z</time>
      </trkpt>
      <trkpt lat="47.88043" lon="-1.67976">
        <ele>19</ele>
        <time>2015-06-07T07:19:14Z</time>
      </trkpt>
      <trkpt lat="47.88038" lon="-1.67971">
        <ele>19</ele>
        <time>2015-06-07T07:19:15Z</time>
      </trkpt>
      <trkpt lat="47.88033" lon="-1.67966">
        <ele>19</ele>
        <time>2015-06-07T07:19:16Z</time>
      </trkpt>
      <trkpt lat="47.88027" lon="-1.6796">
        <ele>19</ele>
        <time>2015-06-07T07:19:17Z</time>
      </trkpt>
      <trkpt lat="47.88022" lon="-1.67955">
        <ele>19</ele>
        <time>2015-06-07T07:19:18Z</time>
      </trkpt>
      <trkpt lat="47.88017" lon="-1.67949">
        <ele>19</ele>
        <time>2015-06-07T07:19:19Z</time>
      </trkpt>
      <trkpt lat="47.88012" lon="-1.67944">
        <ele>19</ele>
        <time>2015-06-07T07:19:20Z</time>
      </trkpt>
      <trkpt lat="47.88007" lon="-1.67938">
        <ele>19</ele>
        <time>2015-06-07T07:19:21Z</time>
      </trkpt>
      <trkpt lat="47.88002" lon="-1.67932">
        <ele>19</ele>
        <time>2015-06-07T07:19:22Z</time>
      </trkpt>
      <trkpt lat="47.87997" lon="-1.67927">
        <ele>19</ele>
        <time>2015-06-07T07:19:23Z</time>
      </trkpt>
      <trkpt lat="47.87991" lon="-1.67921">
        <ele>19</ele>
        <time>2015-06-07T07:19:24Z</time>
      </trkpt>
      <trkpt lat="47.87987" lon="-1.67916">
        <ele>19</ele>
        <time>2015-06-07T07:19:25Z</time>
      </trkpt>
      <trkpt lat="47.87981" lon="-1.67911">
        <ele>19</ele>
        <time>2015-06-07T07:19:26Z</time>
      </trkpt>
      <trkpt lat="47.87977" lon="-1.67906">
        <ele>19</ele>
        <time>2015-06-07T07:19:27Z</time>
      </trkpt>
      <trkpt lat="47.87972" lon="-1.67901">
        <ele>19</ele>
        <time>2015-06-07T07:19:28Z</time>
      </trkpt>
      <trkpt lat="47.87967" lon="-1.67897">
        <ele>19</ele>
        <time>2015-06-07T07:19:29Z</time>
      </trkpt>
      <trkpt lat="47.87962" lon="-1.67893">
        <ele>19</ele>
        <time>2015-06-07T07:19:30Z</time>
      </trkpt>
      <trkpt lat="47.87957" lon="-1.67889">
        <ele>19</ele>
        <time>2015-06-07T07:19:31Z</time>
      </trkpt>
      <trkpt lat="47.87951" lon="-1.67885">
        <ele>19</ele>
        <time>2015-06-07T07:19:32Z</time>
      </trkpt>
      <trkpt lat="47.87946" lon="-1.67882">
        <ele>19</ele>
        <time>2015-06-07T07:19:33Z</time>
      </trkpt>
      <trkpt lat="47.8794" lon="-1.67879">
        <ele>19</ele>
        <time>2015-06-07T07:19:34Z</time>
      </trkpt>
      <trkpt lat="47.87935" lon="-1.67876">
        <ele>19</ele>
        <time>2015-06-07T07:19:35Z</time>
      </trkpt>
      <trkpt lat="47.87929" lon="-1.67874">
        <ele>19</ele>
        <time>2015-06-07T07:19:36Z</time>
      </trkpt>
      <trkpt lat="47.87924" lon="-1.67872">
        <ele>19</ele>
        <time>2015-06-07T07:19:37Z</time>
      </trkpt>
      <trkpt lat="47.87918" lon="-1.67871">
        <ele>19</ele>
        <time>2015-06-07T07:19:38Z</time>
      </trkpt>
      <trkpt lat="47.87913" lon="-1.67869">
        <ele>19</ele>
        <time>2015-06-07T07:19:39Z</time>
      </trkpt>
      <trkpt lat="47.87907" lon="-1.67868">
        <ele>20</ele>
        <time>2015-06-07T07:19:40Z</time>
      </trkpt>
      <trkpt lat="47.87901" lon="-1.67868">
        <ele>20</ele>
        <time>2015-06-07T07:19:41Z</time>
      </trkpt>
      <trkpt lat="47.87895" lon="-1.67867">
        <ele>20</ele>
        <time>2015-06-07T07:19:42Z</time>
      </trkpt>
      <trkpt lat="47.8789" lon="-1.67866">
        <ele>20</ele>
        <time>2015-06-07T07:19:43Z</time>
      </trkpt>
      <trkpt lat="47.87884" lon="-1.67865">
        <ele>20</ele>
        <time>2015-06-07T07:19:44Z</time>
      </trkpt>
      <trkpt lat="47.87879" lon="-1.67865">
        <ele>20</ele>
        <time>2015-06-07T07:19:45Z</time>
      </trkpt>
      <trkpt lat="47.87873" lon="-1.67865">
        <ele>20</ele>
        <time>2015-06-07T07:19:46Z</time>
      </trkpt>
      <trkpt lat="47.87868" lon="-1.67865">
        <ele>20</ele>
        <time>2015-06-07T07:19:47Z</time>
      </trkpt>
      <trkpt lat="47.87863" lon="-1.67865">
        <ele>21</ele>
        <time>2015-06-07T07:19:48Z</time>
      </trkpt>
      <trkpt lat="47.87857" lon="-1.67864">
        <ele>21</ele>
        <time>2015-06-07T07:19:49Z</time>
      </trkpt>
      <trkpt lat="47.87852" lon="-1.67864">
        <ele>21</ele>
        <time>2015-06-07T07:19:50Z</time>
      </trkpt>
      <trkpt lat="47.87847" lon="-1.67863">
        <ele>21</ele>
        <time>2015-06-07T07:19:51Z</time>
      </trkpt>
      <trkpt lat="47.87842" lon="-1.67863">
        <ele>21</ele>
        <time>2015-06-07T07:19:52Z</time>
      </trkpt>
      <trkpt lat="47.87837" lon="-1.67863">
        <ele>22</ele>
        <time>2015-06-07T07:19:53Z</time>
      </trkpt>
      <trkpt lat="47.87833" lon="-1.67863">
        <ele>22</ele>
        <time>2015-06-07T07:19:54Z</time>
      </trkpt>
      <trkpt lat="47.87828" lon="-1.67862">
        <ele>22</ele>
        <time>2015-06-07T07:19:55Z</time>
      </trkpt>
      <trkpt lat="47.87823" lon="-1.67862">
        <ele>22</ele>
        <time>2015-06-07T07:19:56Z</time>
      </trkpt>
      <trkpt lat="47.87818" lon="-1.67862">
        <ele>22</ele>
        <time>2015-06-07T07:19:57Z</time>
      </trkpt>
      <trkpt lat="47.87813" lon="-1.67862">
        <ele>23</ele>
        <time>2015-06-07T07:19:58Z</time>
      </trkpt>
      <trkpt lat="47.87809" lon="-1.67862">
        <ele>23</ele>
        <time>2015-06-07T07:19:59Z</time>
      </trkpt>
      <trkpt lat="47.87804" lon="-1.67862">
        <ele>23</ele>
        <time>2015-06-07T07:20:00Z</time>
      </trkpt>
      <trkpt lat="47.878" lon="-1.67862">
        <ele>24</ele>
        <time>2015-06-07T07:20:01Z</time>
      </trkpt>
      <trkpt lat="47.87795" lon="-1.67862">
        <ele>24</ele>
        <time>2015-06-07T07:20:02Z</time>
      </trkpt>
      <trkpt lat="47.87791" lon="-1.67861">
        <ele>24</ele>
        <time>2015-06-07T07:20:03Z</time>
      </trkpt>
      <trkpt lat="47.87786" lon="-1.67861">
        <ele>25</ele>
        <time>2015-06-07T07:20:04Z</time>
      </trkpt>
      <trkpt lat="47.87782" lon="-1.67861">
        <ele>25</ele>
        <time>2015-06-07T07:20:05Z</time>
      </trkpt>
      <trkpt lat="47.87777" lon="-1.67861">
        <ele>25</ele>
        <time>2015-06-07T07:20:06Z</time>
      </trkpt>
      <trkpt lat="47.87773" lon="-1.6786">
        <ele>26</ele>
        <time>2015-06-07T07:20:07Z</time>
      </trkpt>
      <trkpt lat="47.87768" lon="-1.6786">
        <ele>26</ele>
        <time>2015-06-07T07:20:08Z</time>
      </trkpt>
      <trkpt lat="47.87764" lon="-1.6786">
        <ele>27</ele>
        <time>2015-06-07T07:20:09Z</time>
      </trkpt>
      <trkpt lat="47.8776" lon="-1.6786">
        <ele>27</ele>
        <time>2015-06-07T07:20:10Z</time>
      </trkpt>
      <trkpt lat="47.87755" lon="-1.67859">
        <ele>27</ele>
        <time>2015-06-07T07:20:11Z</time>
      </trkpt>
      <trkpt lat="47.87751" lon="-1.67859">
        <ele>28</ele>
        <time>2015-06-07T07:20:12Z</time>
      </trkpt>
      <trkpt lat="47.87747" lon="-1.6786">
        <ele>28</ele>
        <time>2015-06-07T07:20:13Z</time>
      </trkpt>
      <trkpt lat="47.87743" lon="-1.6786">
        <ele>28</ele>
        <time>2015-06-07T07:20:14Z</time>
      </trkpt>
      <trkpt lat="47.87738" lon="-1.6786">
        <ele>29</ele>
        <time>2015-06-07T07:20:15Z</time>
      </trkpt>
      <trkpt lat="47.87734" lon="-1.6786">
        <ele>29</ele>
        <time>2015-06-07T07:20:16Z</time>
      </trkpt>
      <trkpt lat="47.8773" lon="-1.6786">
        <ele>29</ele>
        <time>2015-06-07T07:20:17Z</time>
      </trkpt>
      <trkpt lat="47.87726" lon="-1.67859">
        <ele>30</ele>
        <time>2015-06-07T07:20:18Z</time>
      </trkpt>
      <trkpt lat="47.87722" lon="-1.67859">
        <ele>30</ele>
        <time>2015-06-07T07:20:19Z</time>
      </trkpt>
      <trkpt lat="47.87718" lon="-1.6786">
        <ele>31</ele>
        <time>2015-06-07T07:20:20Z</time>
      </trkpt>
      <trkpt lat="47.87714" lon="-1.6786">
        <ele>31</ele>
        <time>2015-06-07T07:20:21Z</time>
      </trkpt>
      <trkpt lat="47.8771" lon="-1.67861">
        <ele>31</ele>
        <time>2015-06-07T07:20:22Z</time>
      </trkpt>
      <trkpt lat="47.87705" lon="-1.6786">
        <ele>32</ele>
        <time>2015-06-07T07:20:23Z</time>
      </trkpt>
      <trkpt lat="47.87701" lon="-1.6786">
        <ele>32</ele>
        <time>2015-06-07T07:20:24Z</time>
      </trkpt>
      <trkpt lat="47.87696" lon="-1.6786">
        <ele>32</ele>
        <time>2015-06-07T07:20:25Z</time>
      </trkpt>
      <trkpt lat="47.87692" lon="-1.6786">
        <ele>33</ele>
        <time>2015-06-07T07:20:26Z</time>
      </trkpt>
      <trkpt lat="47.87687" lon="-1.6786">
        <ele>33</ele>
        <time>2015-06-07T07:20:27Z</time>
      </trkpt>
      <trkpt lat="47.87682" lon="-1.6786">
        <ele>33</ele>
        <time>2015-06-07T07:20:28Z</time>
      </trkpt>
      <trkpt lat="47.87678" lon="-1.6786">
        <ele>33</ele>
        <time>2015-06-07T07:20:29Z</time>
      </trkpt>
      <trkpt lat="47.87673" lon="-1.67859">
        <ele>34</ele>
        <time>2015-06-07T07:20:30Z</time>
      </trkpt>
      <trkpt lat="47.87668" lon="-1.67859">
        <ele>34</ele>
        <time>2015-06-07T07:20:31Z</time>
      </trkpt>
      <trkpt lat="47.87664" lon="-1.67859">
        <ele>34</ele>
        <time>2015-06-07T07:20:32Z</time>
      </trkpt>
      <trkpt lat="47.87659" lon="-1.67859">
        <ele>34</ele>
        <time>2015-06-07T07:20:33Z</time>
      </trkpt>
      <trkpt lat="47.87654" lon="-1.67859">
        <ele>35</ele>
        <time>2015-06-07T07:20:34Z</time>
      </trkpt>
      <trkpt lat="47.8765" lon="-1.67858">
        <ele>35</ele>
        <time>2015-06-07T07:20:35Z</time>
      </trkpt>
      <trkpt lat="47.87645" lon="-1.67858">
        <ele>35</ele>
        <time>2015-06-07T07:20:36Z</time>
      </trkpt>
      <trkpt lat="47.87641" lon="-1.67858">
        <ele>35</ele>
        <time>2015-06-07T07:20:37Z</time>
      </trkpt>
      <trkpt lat="47.87636" lon="-1.67858">
        <ele>36</ele>
        <time>2015-06-07T07:20:38Z</time>
      </trkpt>
      <trkpt lat="47.87632" lon="-1.67858">
        <ele>36</ele>
        <time>2015-06-07T07:20:39Z</time>
      </trkpt>
      <trkpt lat="47.87627" lon="-1.67857">
        <ele>36</ele>
        <time>2015-06-07T07:20:40Z</time>
      </trkpt>
      <trkpt lat="47.87623" lon="-1.67857">
        <ele>36</ele>
        <time>2015-06-07T07:20:41Z</time>
      </trkpt>
      <trkpt lat="47.87618" lon="-1.67856">
        <ele>37</ele>
        <time>2015-06-07T07:20:42Z</time>
      </trkpt>
      <trkpt lat="47.87614" lon="-1.67856">
        <ele>37</ele>
        <time>2015-06-07T07:20:43Z</time>
      </trkpt>
      <trkpt lat="47.8761" lon="-1.67857">
        <ele>37</ele>
        <time>2015-06-07T07:20:44Z</time>
      </trkpt>
      <trkpt lat="47.87606" lon="-1.67859">
        <ele>37</ele>
        <time>2015-06-07T07:20:45Z</time>
      </trkpt>
      <trkpt lat="47.87602" lon="-1.67861">
        <ele>38</ele>
        <time>2015-06-07T07:20:46Z</time>
      </trkpt>
      <trkpt lat="47.87598" lon="-1.6786">
        <ele>38</ele>
        <time>2015-06-07T07:20:47Z</time>
      </trkpt>
      <trkpt lat="47.87594" lon="-1.67859">
        <ele>38</ele>
        <time>2015-06-07T07:20:48Z</time>
      </trkpt>
      <trkpt lat="47.8759" lon="-1.67859">
        <ele>38</ele>
        <time>2015-06-07T07:20:49Z</time>
      </trkpt>
      <trkpt lat="47.87586" lon="-1.67858">
        <ele>39</ele>
        <time>2015-06-07T07:20:50Z</time>
      </trkpt>
      <trkpt lat="47.87583" lon="-1.67858">
        <ele>39</ele>
        <time>2015-06-07T07:20:51Z</time>
      </trkpt>
      <trkpt lat="47.8758" lon="-1.67858">
        <ele>39</ele>
        <time>2015-06-07T07:20:52Z</time>
      </trkpt>
      <trkpt lat="47.87577" lon="-1.67859">
        <ele>39</ele>
        <time>2015-06-07T07:20:53Z</time>
      </trkpt>
      <trkpt lat="47.87575" lon="-1.67863">
        <ele>40</ele>
        <time>2015-06-07T07:20:54Z</time>
      </trkpt>
      <trkpt lat="47.87574" lon="-1.67868">
        <ele>40</ele>
        <time>2015-06-07T07:20:55Z</time>
      </trkpt>
      <trkpt lat="47.87574" lon="-1.67873">
        <ele>40</ele>
        <time>2015-06-07T07:20:56Z</time>
      </trkpt>
      <trkpt lat="47.87575" lon="-1.67879">
        <ele>40</ele>
        <time>2015-06-07T07:20:57Z</time>
      </trkpt>
      <trkpt lat="47.87576" lon="-1.67885">
        <ele>41</ele>
        <time>2015-06-07T07:20:58Z</time>
      </trkpt>
      <trkpt lat="47.87576" lon="-1.67892">
        <ele>41</ele>
        <time>2015-06-07T07:20:59Z</time>
      </trkpt>
      <trkpt lat="47.87576" lon="-1.67899">
        <ele>41</ele>
        <time>2015-06-07T07:21:00Z</time>
      </trkpt>
      <trkpt lat="47.87577" lon="-1.67906">
        <ele>41</ele>
        <time>2015-06-07T07:21:01Z</time>
      </trkpt>
      <trkpt lat="47.87578" lon="-1.67914">
        <ele>41</ele>
        <time>2015-06-07T07:21:02Z</time>
      </trkpt>
      <trkpt lat="47.87579" lon="-1.67921">
        <ele>41</ele>
        <time>2015-06-07T07:21:03Z</time>
      </trkpt>
      <trkpt lat="47.8758" lon="-1.6793">
        <ele>41</ele>
        <time>2015-06-07T07:21:04Z</time>
      </trkpt>
      <trkpt lat="47.87581" lon="-1.67939">
        <ele>41</ele>
        <time>2015-06-07T07:21:05Z</time>
      </trkpt>
      <trkpt lat="47.87583" lon="-1.67949">
        <ele>41</ele>
        <time>2015-06-07T07:21:06Z</time>
      </trkpt>
      <trkpt lat="47.87584" lon="-1.67959">
        <ele>41</ele>
        <time>2015-06-07T07:21:07Z</time>
      </trkpt>
      <trkpt lat="47.87586" lon="-1.6797">
        <ele>40</ele>
        <time>2015-06-07T07:21:08Z</time>
      </trkpt>
      <trkpt lat="47.87588" lon="-1.6798">
        <ele>40</ele>
        <time>2015-06-07T07:21:09Z</time>
      </trkpt>
      <trkpt lat="47.8759" lon="-1.67989">
        <ele>40</ele>
        <time>2015-06-07T07:21:10Z</time>
      </trkpt>
      <trkpt lat="47.87592" lon="-1.67999">
        <ele>40</ele>
        <time>2015-06-07T07:21:11Z</time>
      </trkpt>
      <trkpt lat="47.87595" lon="-1.68007">
        <ele>40</ele>
        <time>2015-06-07T07:21:12Z</time>
      </trkpt>
      <trkpt lat="47.876" lon="-1.68013">
        <ele>39</ele>
        <time>2015-06-07T07:21:13Z</time>
      </trkpt>
      <trkpt lat="47.87605" lon="-1.68017">
        <ele>39</ele>
        <time>2015-06-07T07:21:14Z</time>
      </trkpt>
      <trkpt lat="47.8761" lon="-1.68019">
        <ele>39</ele>
        <time>2015-06-07T07:21:15Z</time>
      </trkpt>
      <trkpt lat="47.87615" lon="-1.68019">
        <ele>39</ele>
        <time>2015-06-07T07:21:16Z</time>
      </trkpt>
      <trkpt lat="47.8762" lon="-1.6802">
        <ele>39</ele>
        <time>2015-06-07T07:21:17Z</time>
      </trkpt>
      <trkpt lat="47.87624" lon="-1.6802">
        <ele>39</ele>
        <time>2015-06-07T07:21:18Z</time>
      </trkpt>
      <trkpt lat="47.87626" lon="-1.68021">
        <ele>39</ele>
        <time>2015-06-07T07:21:19Z</time>
      </trkpt>
      <trkpt lat="47.87628" lon="-1.68024">
        <ele>39</ele>
        <time>2015-06-07T07:21:20Z</time>
      </trkpt>
      <trkpt lat="47.8763" lon="-1.68028">
        <ele>40</ele>
        <time>2015-06-07T07:21:21Z</time>
      </trkpt>
      <trkpt lat="47.87631" lon="-1.68031">
        <ele>40</ele>
        <time>2015-06-07T07:21:22Z</time>
      </trkpt>
      <trkpt lat="47.87632" lon="-1.68034">
        <ele>40</ele>
        <time>2015-06-07T07:21:23Z</time>
      </trkpt>
      <trkpt lat="47.87631" lon="-1.68037">
        <ele>40</ele>
        <time>2015-06-07T07:21:24Z</time>
      </trkpt>
      <trkpt lat="47.8763" lon="-1.68039">
        <ele>40</ele>
        <time>2015-06-07T07:21:25Z</time>
      </trkpt>
      <trkpt lat="47.87629" lon="-1.68042">
        <ele>40</ele>
        <time>2015-06-07T07:21:26Z</time>
      </trkpt>
      <trkpt lat="47.87629" lon="-1.68045">
        <ele>40</ele>
        <time>2015-06-07T07:21:27Z</time>
      </trkpt>
      <trkpt lat="47.8763" lon="-1.68049">
        <ele>40</ele>
        <time>2015-06-07T07:21:28Z</time>
      </trkpt>
      <trkpt lat="47.8763" lon="-1.68054">
        <ele>40</ele>
        <time>2015-06-07T07:21:29Z</time>
      </trkpt>
      <trkpt lat="47.87631" lon="-1.68059">
        <ele>40</ele>
        <time>2015-06-07T07:21:30Z</time>
      </trkpt>
      <trkpt lat="47.87633" lon="-1.68064">
        <ele>40</ele>
        <time>2015-06-07T07:21:31Z</time>
      </trkpt>
      <trkpt lat="47.87635" lon="-1.68071">
        <ele>40</ele>
        <time>2015-06-07T07:21:32Z</time>
      </trkpt>
      <trkpt lat="47.87636" lon="-1.68077">
        <ele>40</ele>
        <time>2015-06-07T07:21:33Z</time>
      </trkpt>
      <trkpt lat="47.87637" lon="-1.68084">
        <ele>40</ele>
        <time>2015-06-07T07:21:34Z</time>
      </trkpt>
      <trkpt lat="47.87638" lon="-1.68089">
        <ele>40</ele>
        <time>2015-06-07T07:21:35Z</time>
      </trkpt>
      <trkpt lat="47.87637" lon="-1.68094">
        <ele>40</ele>
        <time>2015-06-07T07:21:36Z</time>
      </trkpt>
      <trkpt lat="47.87635" lon="-1.68097">
        <ele>40</ele>
        <time>2015-06-07T07:21:37Z</time>
      </trkpt>
      <trkpt lat="47.87634" lon="-1.68099">
        <ele>40</ele>
        <time>2015-06-07T07:21:38Z</time>
      </trkpt>
      <trkpt lat="47.87632" lon="-1.68101">
        <ele>39</ele>
        <time>2015-06-07T07:21:39Z</time>
      </trkpt>
      <trkpt lat="47.8763" lon="-1.68102">
        <ele>39</ele>
        <time>2015-06-07T07:21:40Z</time>
      </trkpt>
      <trkpt lat="47.87629" lon="-1.68104">
        <ele>39</ele>
        <time>2015-06-07T07:21:41Z</time>
      </trkpt>
      <trkpt lat="47.87627" lon="-1.68106">
        <ele>39</ele>
        <time>2015-06-07T07:21:42Z</time>
      </trkpt>
      <trkpt lat="47.87625" lon="-1.68108">
        <ele>39</ele>
        <time>2015-06-07T07:21:43Z</time>
      </trkpt>
      <trkpt lat="47.87623" lon="-1.68111">
        <ele>39</ele>
        <time>2015-06-07T07:21:44Z</time>
      </trkpt>
      <trkpt lat="47.87621" lon="-1.68114">
        <ele>39</ele>
        <time>2015-06-07T07:21:45Z</time>
      </trkpt>
      <trkpt lat="47.8762" lon="-1.68117">
        <ele>38</ele>
        <time>2015-06-07T07:21:46Z</time>
      </trkpt>
      <trkpt lat="47.87618" lon="-1.68119">
        <ele>38</ele>
        <time>2015-06-07T07:21:47Z</time>
      </trkpt>
      <trkpt lat="47.87617" lon="-1.6812">
        <ele>38</ele>
        <time>2015-06-07T07:21:48Z</time>
      </trkpt>
      <trkpt lat="47.87617" lon="-1.6812">
        <ele>38</ele>
        <time>2015-06-07T07:21:49Z</time>
      </trkpt>
      <trkpt lat="47.87616" lon="-1.68119">
        <ele>38</ele>
        <time>2015-06-07T07:21:50Z</time>
      </trkpt>
      <trkpt lat="47.87616" lon="-1.68118">
        <ele>38</ele>
        <time>2015-06-07T07:21:51Z</time>
      </trkpt>
      <trkpt lat="47.87616" lon="-1.68118">
        <ele>38</ele>
        <time>2015-06-07T07:21:52Z</time>
      </trkpt>
      <trkpt lat="47.87616" lon="-1.68117">
        <ele>38</ele>
        <time>2015-06-07T07:21:53Z</time>
      </trkpt>
      <trkpt lat="47.87614" lon="-1.68117">
        <ele>37</ele>
        <time>2015-06-07T07:21:54Z</time>
      </trkpt>
      <trkpt lat="47.87612" lon="-1.68117">
        <ele>37</ele>
        <time>2015-06-07T07:21:55Z</time>
      </trkpt>
      <trkpt lat="47.87609" lon="-1.68115">
        <ele>37</ele>
        <time>2015-06-07T07:21:56Z</time>
      </trkpt>
      <trkpt lat="47.87607" lon="-1.68115">
        <ele>37</ele>
        <time>2015-06-07T07:21:57Z</time>
      </trkpt>
      <trkpt lat="47.87605" lon="-1.68114">
        <ele>37</ele>
        <time>2015-06-07T07:21:58Z</time>
      </trkpt>
      <trkpt lat="47.87603" lon="-1.68114">
        <ele>37</ele>
        <time>2015-06-07T07:21:59Z</time>
      </trkpt>
      <trkpt lat="47.87601" lon="-1.68114">
        <ele>37</ele>
        <time>2015-06-07T07:22:00Z</time>
      </trkpt>
      <trkpt lat="47.87599" lon="-1.68112">
        <ele>37</ele>
        <time>2015-06-07T07:22:01Z</time>
      </trkpt>
      <trkpt lat="47.87597" lon="-1.68111">
        <ele>37</ele>
        <time>2015-06-07T07:22:02Z</time>
      </trkpt>
      <trkpt lat="47.87596" lon="-1.6811">
        <ele>37</ele>
        <time>2015-06-07T07:22:03Z</time>
      </trkpt>
      <trkpt lat="47.87595" lon="-1.68109">
        <ele>37</ele>
        <time>2015-06-07T07:22:04Z</time>
      </trkpt>
      <trkpt lat="47.87594" lon="-1.68109">
        <ele>37</ele>
        <time>2015-06-07T07:22:05Z</time>
      </trkpt>
      <trkpt lat="47.87593" lon="-1.68109">
        <ele>37</ele>
        <time>2015-06-07T07:22:06Z</time>
      </trkpt>
      <trkpt lat="47.87591" lon="-1.6811">
        <ele>37</ele>
        <time>2015-06-07T07:22:07Z</time>
      </trkpt>
      <trkpt lat="47.8759" lon="-1.6811">
        <ele>37</ele>
        <time>2015-06-07T07:22:08Z</time>
      </trkpt>
      <trkpt lat="47.87588" lon="-1.68109">
        <ele>37</ele>
        <time>2015-06-07T07:22:09Z</time>
      </trkpt>
      <trkpt lat="47.87586" lon="-1.68108">
        <ele>37</ele>
        <time>2015-06-07T07:22:10Z</time>
      </trkpt>
      <trkpt lat="47.87583" lon="-1.68109">
        <ele>37</ele>
        <time>2015-06-07T07:22:11Z</time>
      </trkpt>
      <trkpt lat="47.8758" lon="-1.6811">
        <ele>37</ele>
        <time>2015-06-07T07:22:12Z</time>
      </trkpt>
      <trkpt lat="47.87577" lon="-1.6811">
        <ele>38</ele>
        <time>2015-06-07T07:22:13Z</time>
      </trkpt>
      <trkpt lat="47.87574" lon="-1.68111">
        <ele>38</ele>
        <time>2015-06-07T07:22:14Z</time>
      </trkpt>
      <trkpt lat="47.87571" lon="-1.68114">
        <ele>38</ele>
        <time>2015-06-07T07:22:15Z</time>
      </trkpt>
      <trkpt lat="47.87567" lon="-1.68116">
        <ele>38</ele>
        <time>2015-06-07T07:22:16Z</time>
      </trkpt>
      <trkpt lat="47.87562" lon="-1.68119">
        <ele>38</ele>
        <time>2015-06-07T07:22:17Z</time>
      </trkpt>
      <trkpt lat="47.87557" lon="-1.68122">
        <ele>38</ele>
        <time>2015-06-07T07:22:18Z</time>
      </trkpt>
      <trkpt lat="47.87552" lon="-1.68124">
        <ele>37</ele>
        <time>2015-06-07T07:22:19Z</time>
      </trkpt>
      <trkpt lat="47.87548" lon="-1.68125">
        <ele>37</ele>
        <time>2015-06-07T07:22:20Z</time>
      </trkpt>
      <trkpt lat="47.87545" lon="-1.68125">
        <ele>37</ele>
        <time>2015-06-07T07:22:21Z</time>
      </trkpt>
      <trkpt lat="47.87543" lon="-1.68124">
        <ele>37</ele>
        <time>2015-06-07T07:22:22Z</time>
      </trkpt>
      <trkpt lat="47.87542" lon="-1.68123">
        <ele>37</ele>
        <time>2015-06-07T07:22:23Z</time>
      </trkpt>
      <trkpt lat="47.8754" lon="-1.68121">
        <ele>36</ele>
        <time>2015-06-07T07:22:24Z</time>
      </trkpt>
      <trkpt lat="47.87538" lon="-1.68119">
        <ele>36</ele>
        <time>2015-06-07T07:22:25Z</time>
      </trkpt>
      <trkpt lat="47.87536" lon="-1.68117">
        <ele>36</ele>
        <time>2015-06-07T07:22:26Z</time>
      </trkpt>
      <trkpt lat="47.87534" lon="-1.68115">
        <ele>36</ele>
        <time>2015-06-07T07:22:27Z</time>
      </trkpt>
      <trkpt lat="47.87531" lon="-1.68113">
        <ele>35</ele>
        <time>2015-06-07T07:22:28Z</time>
      </trkpt>
      <trkpt lat="47.87529" lon="-1.68111">
        <ele>35</ele>
        <time>2015-06-07T07:22:29Z</time>
      </trkpt>
      <trkpt lat="47.87527" lon="-1.68108">
        <ele>35</ele>
        <time>2015-06-07T07:22:30Z</time>
      </trkpt>
      <trkpt lat="47.87524" lon="-1.68105">
        <ele>34</ele>
        <time>2015-06-07T07:22:31Z</time>
      </trkpt>
      <trkpt lat="47.87521" lon="-1.68101">
        <ele>34</ele>
        <time>2015-06-07T07:22:32Z</time>
      </trkpt>
      <trkpt lat="47.87519" lon="-1.68097">
        <ele>34</ele>
        <time>2015-06-07T07:22:33Z</time>
      </trkpt>
      <trkpt lat="47.87518" lon="-1.68093">
        <ele>33</ele>
        <time>2015-06-07T07:22:34Z</time>
      </trkpt>
      <trkpt lat="47.87516" lon="-1.68088">
        <ele>33</ele>
        <time>2015-06-07T07:22:35Z</time>
      </trkpt>
      <trkpt lat="47.87515" lon="-1.68084">
        <ele>33</ele>
        <time>2015-06-07T07:22:36Z</time>
      </trkpt>
      <trkpt lat="47.87513" lon="-1.6808">
        <ele>32</ele>
        <time>2015-06-07T07:22:37Z</time>
      </trkpt>
      <trkpt lat="47.87511" lon="-1.68076">
        <ele>32</ele>
        <time>2015-06-07T07:22:38Z</time>
      </trkpt>
      <trkpt lat="47.87509" lon="-1.68072">
        <ele>32</ele>
        <time>2015-06-07T07:22:39Z</time>
      </trkpt>
      <trkpt lat="47.87507" lon="-1.68068">
        <ele>32</ele>
        <time>2015-06-07T07:22:40Z</time>
      </trkpt>
      <trkpt lat="47.87505" lon="-1.68064">
        <ele>32</ele>
        <time>2015-06-07T07:22:41Z</time>
      </trkpt>
      <trkpt lat="47.87503" lon="-1.6806">
        <ele>32</ele>
        <time>2015-06-07T07:22:42Z</time>
      </trkpt>
      <trkpt lat="47.87501" lon="-1.68056">
        <ele>32</ele>
        <time>2015-06-07T07:22:43Z</time>
      </trkpt>
      <trkpt lat="47.87499" lon="-1.68052">
        <ele>32</ele>
        <time>2015-06-07T07:22:44Z</time>
      </trkpt>
      <trkpt lat="47.87497" lon="-1.68048">
        <ele>32</ele>
        <time>2015-06-07T07:22:45Z</time>
      </trkpt>
      <trkpt lat="47.87495" lon="-1.68044">
        <ele>32</ele>
        <time>2015-06-07T07:22:46Z</time>
      </trkpt>
      <trkpt lat="47.87492" lon="-1.68041">
        <ele>32</ele>
        <time>2015-06-07T07:22:47Z</time>
      </trkpt>
      <trkpt lat="47.8749" lon="-1.68037">
        <ele>32</ele>
        <time>2015-06-07T07:22:48Z</time>
      </trkpt>
      <trkpt lat="47.87488" lon="-1.68033">
        <ele>32</ele>
        <time>2015-06-07T07:22:49Z</time>
      </trkpt>
      <trkpt lat="47.87486" lon="-1.68029">
        <ele>32</ele>
        <time>2015-06-07T07:22:50Z</time>
      </trkpt>
      <trkpt lat="47.87484" lon="-1.68025">
        <ele>32</ele>
        <time>2015-06-07T07:22:51Z</time>
      </trkpt>
      <trkpt lat="47.87482" lon="-1.68021">
        <ele>32</ele>
        <time>2015-06-07T07:22:52Z</time>
      </trkpt>
      <trkpt lat="47.8748" lon="-1.68017">
        <ele>32</ele>
        <time>2015-06-07T07:22:53Z</time>
      </trkpt>
      <trkpt lat="47.87478" lon="-1.68013">
        <ele>32</ele>
        <time>2015-06-07T07:22:54Z</time>
      </trkpt>
      <trkpt lat="47.87476" lon="-1.68009">
        <ele>32</ele>
        <time>2015-06-07T07:22:55Z</time>
      </trkpt>
      <trkpt lat="47.87474" lon="-1.68005">
        <ele>32</ele>
        <time>2015-06-07T07:22:56Z</time>
      </trkpt>
      <trkpt lat="47.87472" lon="-1.68">
        <ele>32</ele>
        <time>2015-06-07T07:22:57Z</time>
      </trkpt>
      <trkpt lat="47.87471" lon="-1.67996">
        <ele>32</ele>
        <time>2015-06-07T07:22:58Z</time>
      </trkpt>
      <trkpt lat="47.87469" lon="-1.67991">
        <ele>33</ele>
        <time>2015-06-07T07:22:59Z</time>
      </trkpt>
      <trkpt lat="47.87468" lon="-1.67987">
        <ele>33</ele>
        <time>2015-06-07T07:23:00Z</time>
      </trkpt>
      <trkpt lat="47.87466" lon="-1.67982">
        <ele>33</ele>
        <time>2015-06-07T07:23:01Z</time>
      </trkpt>
      <trkpt lat="47.87465" lon="-1.67978">
        <ele>33</ele>
        <time>2015-06-07T07:23:02Z</time>
      </trkpt>
      <trkpt lat="47.87464" lon="-1.67973">
        <ele>33</ele>
        <time>2015-06-07T07:23:03Z</time>
      </trkpt>
      <trkpt lat="47.87463" lon="-1.67969">
        <ele>33</ele>
        <time>2015-06-07T07:23:04Z</time>
      </trkpt>
      <trkpt lat="47.87462" lon="-1.67965">
        <ele>34</ele>
        <time>2015-06-07T07:23:05Z</time>
      </trkpt>
      <trkpt lat="47.87461" lon="-1.6796">
        <ele>34</ele>
        <time>2015-06-07T07:23:06Z</time>
      </trkpt>
      <trkpt lat="47.8746" lon="-1.67956">
        <ele>34</ele>
        <time>2015-06-07T07:23:07Z</time>
      </trkpt>
      <trkpt lat="47.87459" lon="-1.67951">
        <ele>34</ele>
        <time>2015-06-07T07:23:08Z</time>
      </trkpt>
      <trkpt lat="47.87458" lon="-1.67947">
        <ele>35</ele>
        <time>2015-06-07T07:23:09Z</time>
      </trkpt>
      <trkpt lat="47.87456" lon="-1.67943">
        <ele>35</ele>
        <time>2015-06-07T07:23:10Z</time>
      </trkpt>
      <trkpt lat="47.87455" lon="-1.67939">
        <ele>35</ele>
        <time>2015-06-07T07:23:11Z</time>
      </trkpt>
      <trkpt lat="47.87454" lon="-1.67935">
        <ele>35</ele>
        <time>2015-06-07T07:23:12Z</time>
      </trkpt>
      <trkpt lat="47.87453" lon="-1.67931">
        <ele>36</ele>
        <time>2015-06-07T07:23:13Z</time>
      </trkpt>
      <trkpt lat="47.87452" lon="-1.67927">
        <ele>36</ele>
        <time>2015-06-07T07:23:14Z</time>
      </trkpt>
      <trkpt lat="47.87451" lon="-1.67922">
        <ele>36</ele>
        <time>2015-06-07T07:23:15Z</time>
      </trkpt>
      <trkpt lat="47.8745" lon="-1.67918">
        <ele>36</ele>
        <time>2015-06-07T07:23:16Z</time>
      </trkpt>
      <trkpt lat="47.87449" lon="-1.67914">
        <ele>36</ele>
        <time>2015-06-07T07:23:17Z</time>
      </trkpt>
      <trkpt lat="47.87448" lon="-1.6791">
        <ele>37</ele>
        <time>2015-06-07T07:23:18Z</time>
      </trkpt>
      <trkpt lat="47.87447" lon="-1.67906">
        <ele>37</ele>
        <time>2015-06-07T07:23:19Z</time>
      </trkpt>
      <trkpt lat="47.87446" lon="-1.67902">
        <ele>37</ele>
        <time>2015-06-07T07:23:20Z</time>
      </trkpt>
      <trkpt lat="47.87445" lon="-1.67898">
        <ele>37</ele>
        <time>2015-06-07T07:23:21Z</time>
      </trkpt>
      <trkpt lat="47.87443" lon="-1.67894">
        <ele>38</ele>
        <time>2015-06-07T07:23:22Z</time>
      </trkpt>
      <trkpt lat="47.87443" lon="-1.6789">
        <ele>38</ele>
        <time>2015-06-07T07:23:23Z</time>
      </trkpt>
      <trkpt lat="47.87442" lon="-1.67886">
        <ele>38</ele>
        <time>2015-06-07T07:23:24Z</time>
      </trkpt>
      <trkpt lat="47.87441" lon="-1.67881">
        <ele>38</ele>
        <time>2015-06-07T07:23:25Z</time>
      </trkpt>
      <trkpt lat="47.8744" lon="-1.67877">
        <ele>39</ele>
        <time>2015-06-07T07:23:26Z</time>
      </trkpt>
      <trkpt lat="47.87439" lon="-1.67873">
        <ele>39</ele>
        <time>2015-06-07T07:23:27Z</time>
      </trkpt>
      <trkpt lat="47.87438" lon="-1.67869">
        <ele>39</ele>
        <time>2015-06-07T07:23:28Z</time>
      </trkpt>
      <trkpt lat="47.87436" lon="-1.67865">
        <ele>39</ele>
        <time>2015-06-07T07:23:29Z</time>
      </trkpt>
      <trkpt lat="47.87436" lon="-1.67861">
        <ele>40</ele>
        <time>2015-06-07T07:23:30Z</time>
      </trkpt>
      <trkpt lat="47.87434" lon="-1.67857">
        <ele>40</ele>
        <time>2015-06-07T07:23:31Z</time>
      </trkpt>
      <trkpt lat="47.87433" lon="-1.67854">
        <ele>40</ele>
        <time>2015-06-07T07:23:32Z</time>
      </trkpt>
      <trkpt lat="47.87432" lon="-1.6785">
        <ele>40</ele>
        <time>2015-06-07T07:23:33Z</time>
      </trkpt>
      <trkpt lat="47.87431" lon="-1.67846">
        <ele>40</ele>
        <time>2015-06-07T07:23:34Z</time>
      </trkpt>
      <trkpt lat="47.8743" lon="-1.67844">
        <ele>41</ele>
        <time>2015-06-07T07:23:35Z</time>
      </trkpt>
      <trkpt lat="47.87429" lon="-1.67841">
        <ele>41</ele>
        <time>2015-06-07T07:23:36Z</time>
      </trkpt>
      <trkpt lat="47.87427" lon="-1.67838">
        <ele>41</ele>
        <time>2015-06-07T07:23:37Z</time>
      </trkpt>
      <trkpt lat="47.87426" lon="-1.67834">
        <ele>41</ele>
        <time>2015-06-07T07:23:38Z</time>
      </trkpt>
      <trkpt lat="47.87424" lon="-1.6783">
        <ele>41</ele>
        <time>2015-06-07T07:23:39Z</time>
      </trkpt>
      <trkpt lat="47.87422" lon="-1.67826">
        <ele>41</ele>
        <time>2015-06-07T07:23:40Z</time>
      </trkpt>
      <trkpt lat="47.87421" lon="-1.67821">
        <ele>41</ele>
        <time>2015-06-07T07:23:41Z</time>
      </trkpt>
      <trkpt lat="47.8742" lon="-1.67816">
        <ele>42</ele>
        <time>2015-06-07T07:23:42Z</time>
      </trkpt>
      <trkpt lat="47.87419" lon="-1.67812">
        <ele>42</ele>
        <time>2015-06-07T07:23:43Z</time>
      </trkpt>
      <trkpt lat="47.87418" lon="-1.67807">
        <ele>42</ele>
        <time>2015-06-07T07:23:44Z</time>
      </trkpt>
      <trkpt lat="47.87417" lon="-1.67802">
        <ele>42</ele>
        <time>2015-06-07T07:23:45Z</time>
      </trkpt>
      <trkpt lat="47.87416" lon="-1.67797">
        <ele>42</ele>
        <time>2015-06-07T07:23:46Z</time>
      </trkpt>
      <trkpt lat="47.87416" lon="-1.67792">
        <ele>43</ele>
        <time>2015-06-07T07:23:47Z</time>
      </trkpt>
      <trkpt lat="47.87415" lon="-1.67786">
        <ele>43</ele>
        <time>2015-06-07T07:23:48Z</time>
      </trkpt>
      <trkpt lat="47.87414" lon="-1.67781">
        <ele>43</ele>
        <time>2015-06-07T07:23:49Z</time>
      </trkpt>
      <trkpt lat="47.87413" lon="-1.67776">
        <ele>44</ele>
        <time>2015-06-07T07:23:50Z</time>
      </trkpt>
      <trkpt lat="47.87412" lon="-1.67772">
        <ele>44</ele>
        <time>2015-06-07T07:23:51Z</time>
      </trkpt>
      <trkpt lat="47.8741" lon="-1.67766">
        <ele>44</ele>
        <time>2015-06-07T07:23:52Z</time>
      </trkpt>
      <trkpt lat="47.87409" lon="-1.67761">
        <ele>44</ele>
        <time>2015-06-07T07:23:53Z</time>
      </trkpt>
      <trkpt lat="47.87408" lon="-1.67756">
        <ele>44</ele>
        <time>2015-06-07T07:23:54Z</time>
      </trkpt>
      <trkpt lat="47.87407" lon="-1.6775">
        <ele>44</ele>
        <time>2015-06-07T07:23:55Z</time>
      </trkpt>
      <trkpt lat="47.87406" lon="-1.67745">
        <ele>44</ele>
        <time>2015-06-07T07:23:56Z</time>
      </trkpt>
      <trkpt lat="47.87404" lon="-1.6774">
        <ele>45</ele>
        <time>2015-06-07T07:23:57Z</time>
      </trkpt>
      <trkpt lat="47.87403" lon="-1.67734">
        <ele>45</ele>
        <time>2015-06-07T07:23:58Z</time>
      </trkpt>
      <trkpt lat="47.87402" lon="-1.67728">
        <ele>45</ele>
        <time>2015-06-07T07:23:59Z</time>
      </trkpt>
      <trkpt lat="47.87401" lon="-1.67722">
        <ele>45</ele>
        <time>2015-06-07T07:24:00Z</time>
      </trkpt>
      <trkpt lat="47.874" lon="-1.67716">
        <ele>45</ele>
        <time>2015-06-07T07:24:01Z</time>
      </trkpt>
      <trkpt lat="47.87399" lon="-1.6771">
        <ele>45</ele>
        <time>2015-06-07T07:24:02Z</time>
      </trkpt>
      <trkpt lat="47.87397" lon="-1.67703">
        <ele>45</ele>
        <time>2015-06-07T07:24:03Z</time>
      </trkpt>
      <trkpt lat="47.87396" lon="-1.67697">
        <ele>45</ele>
        <time>2015-06-07T07:24:04Z</time>
      </trkpt>
      <trkpt lat="47.87394" lon="-1.6769">
        <ele>45</ele>
        <time>2015-06-07T07:24:05Z</time>
      </trkpt>
      <trkpt lat="47.87393" lon="-1.67684">
        <ele>45</ele>
        <time>2015-06-07T07:24:06Z</time>
      </trkpt>
      <trkpt lat="47.87391" lon="-1.67678">
        <ele>46</ele>
        <time>2015-06-07T07:24:07Z</time>
      </trkpt>
      <trkpt lat="47.87389" lon="-1.67671">
        <ele>46</ele>
        <time>2015-06-07T07:24:08Z</time>
      </trkpt>
      <trkpt lat="47.87388" lon="-1.67665">
        <ele>45</ele>
        <time>2015-06-07T07:24:09Z</time>
      </trkpt>
      <trkpt lat="47.87386" lon="-1.67659">
        <ele>45</ele>
        <time>2015-06-07T07:24:10Z</time>
      </trkpt>
      <trkpt lat="47.87384" lon="-1.67653">
        <ele>45</ele>
        <time>2015-06-07T07:24:11Z</time>
      </trkpt>
      <trkpt lat="47.87383" lon="-1.67647">
        <ele>45</ele>
        <time>2015-06-07T07:24:12Z</time>
      </trkpt>
      <trkpt lat="47.87381" lon="-1.67641">
        <ele>45</ele>
        <time>2015-06-07T07:24:13Z</time>
      </trkpt>
      <trkpt lat="47.87379" lon="-1.67634">
        <ele>45</ele>
        <time>2015-06-07T07:24:14Z</time>
      </trkpt>
      <trkpt lat="47.87377" lon="-1.67629">
        <ele>45</ele>
        <time>2015-06-07T07:24:15Z</time>
      </trkpt>
      <trkpt lat="47.87375" lon="-1.67624">
        <ele>45</ele>
        <time>2015-06-07T07:24:16Z</time>
      </trkpt>
      <trkpt lat="47.87373" lon="-1.67619">
        <ele>45</ele>
        <time>2015-06-07T07:24:17Z</time>
      </trkpt>
      <trkpt lat="47.8737" lon="-1.67613">
        <ele>45</ele>
        <time>2015-06-07T07:24:18Z</time>
      </trkpt>
      <trkpt lat="47.87367" lon="-1.67607">
        <ele>45</ele>
        <time>2015-06-07T07:24:19Z</time>
      </trkpt>
      <trkpt lat="47.87365" lon="-1.67601">
        <ele>44</ele>
        <time>2015-06-07T07:24:20Z</time>
      </trkpt>
      <trkpt lat="47.87363" lon="-1.67593">
        <ele>44</ele>
        <time>2015-06-07T07:24:21Z</time>
      </trkpt>
      <trkpt lat="47.8736" lon="-1.67586">
        <ele>44</ele>
        <time>2015-06-07T07:24:22Z</time>
      </trkpt>
      <trkpt lat="47.87358" lon="-1.67578">
        <ele>43</ele>
        <time>2015-06-07T07:24:23Z</time>
      </trkpt>
      <trkpt lat="47.87356" lon="-1.67569">
        <ele>43</ele>
        <time>2015-06-07T07:24:24Z</time>
      </trkpt>
      <trkpt lat="47.87354" lon="-1.6756">
        <ele>43</ele>
        <time>2015-06-07T07:24:25Z</time>
      </trkpt>
      <trkpt lat="47.87351" lon="-1.67552">
        <ele>42</ele>
        <time>2015-06-07T07:24:26Z</time>
      </trkpt>
      <trkpt lat="47.8735" lon="-1.67544">
        <ele>42</ele>
        <time>2015-06-07T07:24:27Z</time>
      </trkpt>
      <trkpt lat="47.87348" lon="-1.67538">
        <ele>41</ele>
        <time>2015-06-07T07:24:28Z</time>
      </trkpt>
      <trkpt lat="47.87346" lon="-1.67532">
        <ele>41</ele>
        <time>2015-06-07T07:24:29Z</time>
      </trkpt>
      <trkpt lat="47.87344" lon="-1.67527">
        <ele>41</ele>
        <time>2015-06-07T07:24:30Z</time>
      </trkpt>
      <trkpt lat="47.87342" lon="-1.6752">
        <ele>41</ele>
        <time>2015-06-07T07:24:31Z</time>
      </trkpt>
      <trkpt lat="47.8734" lon="-1.67515">
        <ele>40</ele>
        <time>2015-06-07T07:24:32Z</time>
      </trkpt>
      <trkpt lat="47.87337" lon="-1.67511">
        <ele>40</ele>
        <time>2015-06-07T07:24:33Z</time>
      </trkpt>
      <trkpt lat="47.87335" lon="-1.67508">
        <ele>40</ele>
        <time>2015-06-07T07:24:34Z</time>
      </trkpt>
      <trkpt lat="47.87334" lon="-1.67506">
        <ele>40</ele>
        <time>2015-06-07T07:24:35Z</time>
      </trkpt>
      <trkpt lat="47.87333" lon="-1.67504">
        <ele>40</ele>
        <time>2015-06-07T07:24:36Z</time>
      </trkpt>
      <trkpt lat="47.8733" lon="-1.67504">
        <ele>40</ele>
        <time>2015-06-07T07:24:37Z</time>
      </trkpt>
      <trkpt lat="47.87328" lon="-1.67501">
        <ele>40</ele>
        <time>2015-06-07T07:24:38Z</time>
      </trkpt>
      <trkpt lat="47.87326" lon="-1.67497">
        <ele>40</ele>
        <time>2015-06-07T07:24:39Z</time>
      </trkpt>
      <trkpt lat="47.87326" lon="-1.67493">
        <ele>40</ele>
        <time>2015-06-07T07:24:40Z</time>
      </trkpt>
      <trkpt lat="47.87326" lon="-1.67488">
        <ele>40</ele>
        <time>2015-06-07T07:24:41Z</time>
      </trkpt>
      <trkpt lat="47.87327" lon="-1.67483">
        <ele>41</ele>
        <time>2015-06-07T07:24:42Z</time>
      </trkpt>
      <trkpt lat="47.87328" lon="-1.67478">
        <ele>41</ele>
        <time>2015-06-07T07:24:43Z</time>
      </trkpt>
      <trkpt lat="47.87329" lon="-1.67474">
        <ele>41</ele>
        <time>2015-06-07T07:24:44Z</time>
      </trkpt>
      <trkpt lat="47.87331" lon="-1.6747">
        <ele>41</ele>
        <time>2015-06-07T07:24:45Z</time>
      </trkpt>
      <trkpt lat="47.87332" lon="-1.67467">
        <ele>41</ele>
        <time>2015-06-07T07:24:46Z</time>
      </trkpt>
      <trkpt lat="47.87332" lon="-1.67464">
        <ele>41</ele>
        <time>2015-06-07T07:24:47Z</time>
      </trkpt>
      <trkpt lat="47.87332" lon="-1.6746">
        <ele>40</ele>
        <time>2015-06-07T07:24:48Z</time>
      </trkpt>
      <trkpt lat="47.8733" lon="-1.67456">
        <ele>40</ele>
        <time>2015-06-07T07:24:49Z</time>
      </trkpt>
      <trkpt lat="47.87328" lon="-1.67451">
        <ele>40</ele>
        <time>2015-06-07T07:24:50Z</time>
      </trkpt>
      <trkpt lat="47.87327" lon="-1.67446">
        <ele>40</ele>
        <time>2015-06-07T07:24:51Z</time>
      </trkpt>
      <trkpt lat="47.87327" lon="-1.6744">
        <ele>40</ele>
        <time>2015-06-07T07:24:52Z</time>
      </trkpt>
      <trkpt lat="47.87326" lon="-1.67434">
        <ele>39</ele>
        <time>2015-06-07T07:24:53Z</time>
      </trkpt>
      <trkpt lat="47.87325" lon="-1.67428">
        <ele>39</ele>
        <time>2015-06-07T07:24:54Z</time>
      </trkpt>
      <trkpt lat="47.87325" lon="-1.67421">
        <ele>39</ele>
        <time>2015-06-07T07:24:55Z</time>
      </trkpt>
      <trkpt lat="47.87325" lon="-1.67414">
        <ele>39</ele>
        <time>2015-06-07T07:24:56Z</time>
      </trkpt>
      <trkpt lat="47.87326" lon="-1.67408">
        <ele>38</ele>
        <time>2015-06-07T07:24:57Z</time>
      </trkpt>
      <trkpt lat="47.87326" lon="-1.67402">
        <ele>38</ele>
        <time>2015-06-07T07:24:58Z</time>
      </trkpt>
      <trkpt lat="47.87326" lon="-1.67396">
        <ele>38</ele>
        <time>2015-06-07T07:24:59Z</time>
      </trkpt>
      <trkpt lat="47.87326" lon="-1.6739">
        <ele>38</ele>
        <time>2015-06-07T07:25:00Z</time>
      </trkpt>
      <trkpt lat="47.87325" lon="-1.67385">
        <ele>38</ele>
        <time>2015-06-07T07:25:01Z</time>
      </trkpt>
      <trkpt lat="47.87324" lon="-1.67381">
        <ele>37</ele>
        <time>2015-06-07T07:25:02Z</time>
      </trkpt>
      <trkpt lat="47.87324" lon="-1.67378">
        <ele>37</ele>
        <time>2015-06-07T07:25:03Z</time>
      </trkpt>
      <trkpt lat="47.87323" lon="-1.67376">
        <ele>37</ele>
        <time>2015-06-07T07:25:04Z</time>
      </trkpt>
      <trkpt lat="47.87321" lon="-1.67374">
        <ele>37</ele>
        <time>2015-06-07T07:25:05Z</time>
      </trkpt>
      <trkpt lat="47.87318" lon="-1.67373">
        <ele>37</ele>
        <time>2015-06-07T07:25:06Z</time>
      </trkpt>
      <trkpt lat="47.87316" lon="-1.67373">
        <ele>37</ele>
        <time>2015-06-07T07:25:07Z</time>
      </trkpt>
      <trkpt lat="47.87314" lon="-1.67375">
        <ele>38</ele>
        <time>2015-06-07T07:25:08Z</time>
      </trkpt>
      <trkpt lat="47.87312" lon="-1.67376">
        <ele>38</ele>
        <time>2015-06-07T07:25:09Z</time>
      </trkpt>
      <trkpt lat="47.87311" lon="-1.67377">
        <ele>38</ele>
        <time>2015-06-07T07:25:10Z</time>
      </trkpt>
      <trkpt lat="47.87308" lon="-1.67377">
        <ele>38</ele>
        <time>2015-06-07T07:25:11Z</time>
      </trkpt>
      <trkpt lat="47.87305" lon="-1.67376">
        <ele>38</ele>
        <time>2015-06-07T07:25:12Z</time>
      </trkpt>
      <trkpt lat="47.87303" lon="-1.67375">
        <ele>38</ele>
        <time>2015-06-07T07:25:13Z</time>
      </trkpt>
      <trkpt lat="47.873" lon="-1.67375">
        <ele>38</ele>
        <time>2015-06-07T07:25:14Z</time>
      </trkpt>
      <trkpt lat="47.87298" lon="-1.67376">
        <ele>38</ele>
        <time>2015-06-07T07:25:15Z</time>
      </trkpt>
      <trkpt lat="47.87294" lon="-1.67377">
        <ele>38</ele>
        <time>2015-06-07T07:25:16Z</time>
      </trkpt>
      <trkpt lat="47.87291" lon="-1.67378">
        <ele>38</ele>
        <time>2015-06-07T07:25:17Z</time>
      </trkpt>
      <trkpt lat="47.87289" lon="-1.67378">
        <ele>38</ele>
        <time>2015-06-07T07:25:18Z</time>
      </trkpt>
      <trkpt lat="47.87287" lon="-1.67377">
        <ele>38</ele>
        <time>2015-06-07T07:25:19Z</time>
      </trkpt>
      <trkpt lat="47.87285" lon="-1.67376">
        <ele>38</ele>
        <time>2015-06-07T07:25:20Z</time>
      </trkpt>
      <trkpt lat="47.87283" lon="-1.67374">
        <ele>38</ele>
        <time>2015-06-07T07:25:21Z</time>
      </trkpt>
      <trkpt lat="47.87281" lon="-1.67372">
        <ele>38</ele>
        <time>2015-06-07T07:25:22Z</time>
      </trkpt>
      <trkpt lat="47.87278" lon="-1.6737">
        <ele>38</ele>
        <time>2015-06-07T07:25:23Z</time>
      </trkpt>
      <trkpt lat="47.87274" lon="-1.67367">
        <ele>38</ele>
        <time>2015-06-07T07:25:24Z</time>
      </trkpt>
      <trkpt lat="47.87272" lon="-1.67363">
        <ele>37</ele>
        <time>2015-06-07T07:25:25Z</time>
      </trkpt>
      <trkpt lat="47.8727" lon="-1.67358">
        <ele>37</ele>
        <time>2015-06-07T07:25:26Z</time>
      </trkpt>
      <trkpt lat="47.87269" lon="-1.67353">
        <ele>37</ele>
        <time>2015-06-07T07:25:27Z</time>
      </trkpt>
      <trkpt lat="47.87267" lon="-1.67351">
        <ele>37</ele>
        <time>2015-06-07T07:25:28Z</time>
      </trkpt>
      <trkpt lat="47.87265" lon="-1.6735">
        <ele>36</ele>
        <time>2015-06-07T07:25:29Z</time>
      </trkpt>
      <trkpt lat="47.87261" lon="-1.6735">
        <ele>36</ele>
        <time>2015-06-07T07:25:30Z</time>
      </trkpt>
      <trkpt lat="47.87257" lon="-1.67349">
        <ele>36</ele>
        <time>2015-06-07T07:25:31Z</time>
      </trkpt>
      <trkpt lat="47.87253" lon="-1.67346">
        <ele>36</ele>
        <time>2015-06-07T07:25:32Z</time>
      </trkpt>
      <trkpt lat="47.87249" lon="-1.67343">
        <ele>36</ele>
        <time>2015-06-07T07:25:33Z</time>
      </trkpt>
      <trkpt lat="47.87245" lon="-1.67338">
        <ele>36</ele>
        <time>2015-06-07T07:25:34Z</time>
      </trkpt>
      <trkpt lat="47.87239" lon="-1.67332">
        <ele>35</ele>
        <time>2015-06-07T07:25:35Z</time>
      </trkpt>
      <trkpt lat="47.87234" lon="-1.67329">
        <ele>35</ele>
        <time>2015-06-07T07:25:36Z</time>
      </trkpt>
      <trkpt lat="47.87228" lon="-1.67327">
        <ele>35</ele>
        <time>2015-06-07T07:25:37Z</time>
      </trkpt>
      <trkpt lat="47.87222" lon="-1.67327">
        <ele>34</ele>
        <time>2015-06-07T07:25:38Z</time>
      </trkpt>
      <trkpt lat="47.87216" lon="-1.67327">
        <ele>34</ele>
        <time>2015-06-07T07:25:39Z</time>
      </trkpt>
      <trkpt lat="47.8721" lon="-1.67327">
        <ele>34</ele>
        <time>2015-06-07T07:25:40Z</time>
      </trkpt>
      <trkpt lat="47.87206" lon="-1.67327">
        <ele>33</ele>
        <time>2015-06-07T07:25:41Z</time>
      </trkpt>
      <trkpt lat="47.87202" lon="-1.67327">
        <ele>33</ele>
        <time>2015-06-07T07:25:42Z</time>
      </trkpt>
      <trkpt lat="47.87198" lon="-1.67324">
        <ele>33</ele>
        <time>2015-06-07T07:25:43Z</time>
      </trkpt>
      <trkpt lat="47.87193" lon="-1.67321">
        <ele>33</ele>
        <time>2015-06-07T07:25:44Z</time>
      </trkpt>
      <trkpt lat="47.87187" lon="-1.67317">
        <ele>33</ele>
        <time>2015-06-07T07:25:45Z</time>
      </trkpt>
      <trkpt lat="47.87181" lon="-1.67314">
        <ele>32</ele>
        <time>2015-06-07T07:25:46Z</time>
      </trkpt>
      <trkpt lat="47.87175" lon="-1.67311">
        <ele>32</ele>
        <time>2015-06-07T07:25:47Z</time>
      </trkpt>
      <trkpt lat="47.87169" lon="-1.67309">
        <ele>32</ele>
        <time>2015-06-07T07:25:48Z</time>
      </trkpt>
      <trkpt lat="47.87162" lon="-1.67306">
        <ele>32</ele>
        <time>2015-06-07T07:25:49Z</time>
      </trkpt>
      <trkpt lat="47.87156" lon="-1.67304">
        <ele>31</ele>
        <time>2015-06-07T07:25:50Z</time>
      </trkpt>
      <trkpt lat="47.8715" lon="-1.67303">
        <ele>31</ele>
        <time>2015-06-07T07:25:51Z</time>
      </trkpt>
      <trkpt lat="47.87143" lon="-1.67303">
        <ele>31</ele>
        <time>2015-06-07T07:25:52Z</time>
      </trkpt>
      <trkpt lat="47.87137" lon="-1.67303">
        <ele>30</ele>
        <time>2015-06-07T07:25:53Z</time>
      </trkpt>
      <trkpt lat="47.87131" lon="-1.67302">
        <ele>30</ele>
        <time>2015-06-07T07:25:54Z</time>
      </trkpt>
      <trkpt lat="47.87125" lon="-1.673">
        <ele>30</ele>
        <time>2015-06-07T07:25:55Z</time>
      </trkpt>
      <trkpt lat="47.8712" lon="-1.67297">
        <ele>30</ele>
        <time>2015-06-07T07:25:56Z</time>
      </trkpt>
      <trkpt lat="47.87116" lon="-1.67295">
        <ele>30</ele>
        <time>2015-06-07T07:25:57Z</time>
      </trkpt>
      <trkpt lat="47.87112" lon="-1.67294">
        <ele>29</ele>
        <time>2015-06-07T07:25:58Z</time>
      </trkpt>
      <trkpt lat="47.87108" lon="-1.67294">
        <ele>29</ele>
        <time>2015-06-07T07:25:59Z</time>
      </trkpt>
      <trkpt lat="47.87104" lon="-1.67294">
        <ele>29</ele>
        <time>2015-06-07T07:26:00Z</time>
      </trkpt>
      <trkpt lat="47.87101" lon="-1.67293">
        <ele>29</ele>
        <time>2015-06-07T07:26:01Z</time>
      </trkpt>
      <trkpt lat="47.87098" lon="-1.67294">
        <ele>29</ele>
        <time>2015-06-07T07:26:02Z</time>
      </trkpt>
      <trkpt lat="47.87095" lon="-1.67294">
        <ele>29</ele>
        <time>2015-06-07T07:26:03Z</time>
      </trkpt>
      <trkpt lat="47.87093" lon="-1.67294">
        <ele>29</ele>
        <time>2015-06-07T07:26:04Z</time>
      </trkpt>
      <trkpt lat="47.87091" lon="-1.67295">
        <ele>29</ele>
        <time>2015-06-07T07:26:05Z</time>
      </trkpt>
      <trkpt lat="47.87088" lon="-1.67295">
        <ele>29</ele>
        <time>2015-06-07T07:26:06Z</time>
      </trkpt>
      <trkpt lat="47.87085" lon="-1.67296">
        <ele>29</ele>
        <time>2015-06-07T07:26:07Z</time>
      </trkpt>
      <trkpt lat="47.87081" lon="-1.67296">
        <ele>29</ele>
        <time>2015-06-07T07:26:08Z</time>
      </trkpt>
      <trkpt lat="47.87078" lon="-1.67297">
        <ele>29</ele>
        <time>2015-06-07T07:26:09Z</time>
      </trkpt>
      <trkpt lat="47.87075" lon="-1.67297">
        <ele>29</ele>
        <time>2015-06-07T07:26:10Z</time>
      </trkpt>
      <trkpt lat="47.87072" lon="-1.67297">
        <ele>29</ele>
        <time>2015-06-07T07:26:11Z</time>
      </trkpt>
      <trkpt lat="47.87069" lon="-1.67298">
        <ele>29</ele>
        <time>2015-06-07T07:26:12Z</time>
      </trkpt>
      <trkpt lat="47.87066" lon="-1.67299">
        <ele>29</ele>
        <time>2015-06-07T07:26:13Z</time>
      </trkpt>
      <trkpt lat="47.87062" lon="-1.67299">
        <ele>29</ele>
        <time>2015-06-07T07:26:14Z</time>
      </trkpt>
      <trkpt lat="47.87059" lon="-1.67299">
        <ele>29</ele>
        <time>2015-06-07T07:26:15Z</time>
      </trkpt>
      <trkpt lat="47.87055" lon="-1.673">
        <ele>29</ele>
        <time>2015-06-07T07:26:16Z</time>
      </trkpt>
      <trkpt lat="47.87051" lon="-1.67299">
        <ele>29</ele>
        <time>2015-06-07T07:26:17Z</time>
      </trkpt>
      <trkpt lat="47.87048" lon="-1.67299">
        <ele>28</ele>
        <time>2015-06-07T07:26:18Z</time>
      </trkpt>
      <trkpt lat="47.87045" lon="-1.673">
        <ele>28</ele>
        <time>2015-06-07T07:26:19Z</time>
      </trkpt>
      <trkpt lat="47.87044" lon="-1.67301">
        <ele>28</ele>
        <time>2015-06-07T07:26:20Z</time>
      </trkpt>
      <trkpt lat="47.87042" lon="-1.67303">
        <ele>28</ele>
        <time>2015-06-07T07:26:21Z</time>
      </trkpt>
      <trkpt lat="47.87042" lon="-1.67306">
        <ele>28</ele>
        <time>2015-06-07T07:26:22Z</time>
      </trkpt>
      <trkpt lat="47.87041" lon="-1.67308">
        <ele>28</ele>
        <time>2015-06-07T07:26:23Z</time>
      </trkpt>
      <trkpt lat="47.8704" lon="-1.67311">
        <ele>28</ele>
        <time>2015-06-07T07:26:24Z</time>
      </trkpt>
      <trkpt lat="47.87039" lon="-1.67314">
        <ele>28</ele>
        <time>2015-06-07T07:26:25Z</time>
      </trkpt>
      <trkpt lat="47.87039" lon="-1.67317">
        <ele>28</ele>
        <time>2015-06-07T07:26:26Z</time>
      </trkpt>
      <trkpt lat="47.87038" lon="-1.6732">
        <ele>28</ele>
        <time>2015-06-07T07:26:27Z</time>
      </trkpt>
      <trkpt lat="47.87038" lon="-1.67324">
        <ele>28</ele>
        <time>2015-06-07T07:26:28Z</time>
      </trkpt>
      <trkpt lat="47.87037" lon="-1.67327">
        <ele>28</ele>
        <time>2015-06-07T07:26:29Z</time>
      </trkpt>
      <trkpt lat="47.87036" lon="-1.6733">
        <ele>28</ele>
        <time>2015-06-07T07:26:30Z</time>
      </trkpt>
      <trkpt lat="47.87036" lon="-1.67333">
        <ele>28</ele>
        <time>2015-06-07T07:26:31Z</time>
      </trkpt>
      <trkpt lat="47.87036" lon="-1.67336">
        <ele>28</ele>
        <time>2015-06-07T07:26:32Z</time>
      </trkpt>
      <trkpt lat="47.87035" lon="-1.6734">
        <ele>28</ele>
        <time>2015-06-07T07:26:33Z</time>
      </trkpt>
      <trkpt lat="47.87034" lon="-1.67343">
        <ele>28</ele>
        <time>2015-06-07T07:26:34Z</time>
      </trkpt>
      <trkpt lat="47.87034" lon="-1.67346">
        <ele>28</ele>
        <time>2015-06-07T07:26:35Z</time>
      </trkpt>
      <trkpt lat="47.87033" lon="-1.67349">
        <ele>29</ele>
        <time>2015-06-07T07:26:36Z</time>
      </trkpt>
      <trkpt lat="47.87033" lon="-1.67352">
        <ele>29</ele>
        <time>2015-06-07T07:26:37Z</time>
      </trkpt>
      <trkpt lat="47.87033" lon="-1.67355">
        <ele>29</ele>
        <time>2015-06-07T07:26:38Z</time>
      </trkpt>
      <trkpt lat="47.87033" lon="-1.67359">
        <ele>29</ele>
        <time>2015-06-07T07:26:39Z</time>
      </trkpt>
      <trkpt lat="47.87032" lon="-1.67362">
        <ele>30</ele>
        <time>2015-06-07T07:26:40Z</time>
      </trkpt>
      <trkpt lat="47.87032" lon="-1.67364">
        <ele>30</ele>
        <time>2015-06-07T07:26:41Z</time>
      </trkpt>
      <trkpt lat="47.87032" lon="-1.67366">
        <ele>30</ele>
        <time>2015-06-07T07:26:42Z</time>
      </trkpt>
      <trkpt lat="47.87031" lon="-1.67369">
        <ele>31</ele>
        <time>2015-06-07T07:26:43Z</time>
      </trkpt>
      <trkpt lat="47.8703" lon="-1.67371">
        <ele>31</ele>
        <time>2015-06-07T07:26:44Z</time>
      </trkpt>
      <trkpt lat="47.87029" lon="-1.67373">
        <ele>31</ele>
        <time>2015-06-07T07:26:45Z</time>
      </trkpt>
      <trkpt lat="47.87027" lon="-1.67375">
        <ele>31</ele>
        <time>2015-06-07T07:26:46Z</time>
      </trkpt>
      <trkpt lat="47.87026" lon="-1.67377">
        <ele>32</ele>
        <time>2015-06-07T07:26:47Z</time>
      </trkpt>
      <trkpt lat="47.87026" lon="-1.67381">
        <ele>32</ele>
        <time>2015-06-07T07:26:48Z</time>
      </trkpt>
      <trkpt lat="47.87025" lon="-1.67385">
        <ele>32</ele>
        <time>2015-06-07T07:26:49Z</time>
      </trkpt>
      <trkpt lat="47.87026" lon="-1.67389">
        <ele>33</ele>
        <time>2015-06-07T07:26:50Z</time>
      </trkpt>
      <trkpt lat="47.87026" lon="-1.67393">
        <ele>33</ele>
        <time>2015-06-07T07:26:51Z</time>
      </trkpt>
      <trkpt lat="47.87027" lon="-1.67397">
        <ele>33</ele>
        <time>2015-06-07T07:26:52Z</time>
      </trkpt>
      <trkpt lat="47.87027" lon="-1.67402">
        <ele>34</ele>
        <time>2015-06-07T07:26:53Z</time>
      </trkpt>
      <trkpt lat="47.87028" lon="-1.67406">
        <ele>34</ele>
        <time>2015-06-07T07:26:54Z</time>
      </trkpt>
      <trkpt lat="47.87028" lon="-1.6741">
        <ele>34</ele>
        <time>2015-06-07T07:26:55Z</time>
      </trkpt>
      <trkpt lat="47.87029" lon="-1.67413">
        <ele>34</ele>
        <time>2015-06-07T07:26:56Z</time>
      </trkpt>
      <trkpt lat="47.87029" lon="-1.67417">
        <ele>35</ele>
        <time>2015-06-07T07:26:57Z</time>
      </trkpt>
      <trkpt lat="47.8703" lon="-1.67421">
        <ele>35</ele>
        <time>2015-06-07T07:26:58Z</time>
      </trkpt>
      <trkpt lat="47.8703" lon="-1.67425">
        <ele>35</ele>
        <time>2015-06-07T07:26:59Z</time>
      </trkpt>
      <trkpt lat="47.87031" lon="-1.67429">
        <ele>36</ele>
        <time>2015-06-07T07:27:00Z</time>
      </trkpt>
      <trkpt lat="47.87032" lon="-1.67434">
        <ele>36</ele>
        <time>2015-06-07T07:27:01Z</time>
      </trkpt>
      <trkpt lat="47.87032" lon="-1.67438">
        <ele>36</ele>
        <time>2015-06-07T07:27:02Z</time>
      </trkpt>
      <trkpt lat="47.87033" lon="-1.67443">
        <ele>36</ele>
        <time>2015-06-07T07:27:03Z</time>
      </trkpt>
      <trkpt lat="47.87034" lon="-1.67447">
        <ele>37</ele>
        <time>2015-06-07T07:27:04Z</time>
      </trkpt>
      <trkpt lat="47.87035" lon="-1.67451">
        <ele>37</ele>
        <time>2015-06-07T07:27:05Z</time>
      </trkpt>
      <trkpt lat="47.87035" lon="-1.67455">
        <ele>37</ele>
        <time>2015-06-07T07:27:06Z</time>
      </trkpt>
      <trkpt lat="47.87036" lon="-1.6746">
        <ele>38</ele>
        <time>2015-06-07T07:27:07Z</time>
      </trkpt>
      <trkpt lat="47.87037" lon="-1.67464">
        <ele>38</ele>
        <time>2015-06-07T07:27:08Z</time>
      </trkpt>
      <trkpt lat="47.87038" lon="-1.67468">
        <ele>38</ele>
        <time>2015-06-07T07:27:09Z</time>
      </trkpt>
      <trkpt lat="47.87039" lon="-1.67472">
        <ele>39</ele>
        <time>2015-06-07T07:27:10Z</time>
      </trkpt>
      <trkpt lat="47.8704" lon="-1.67477">
        <ele>39</ele>
        <time>2015-06-07T07:27:11Z</time>
      </trkpt>
      <trkpt lat="47.87041" lon="-1.67481">
        <ele>39</ele>
        <time>2015-06-07T07:27:12Z</time>
      </trkpt>
      <trkpt lat="47.87042" lon="-1.67484">
        <ele>40</ele>
        <time>2015-06-07T07:27:13Z</time>
      </trkpt>
      <trkpt lat="47.87044" lon="-1.67488">
        <ele>40</ele>
        <time>2015-06-07T07:27:14Z</time>
      </trkpt>
      <trkpt lat="47.87045" lon="-1.67492">
        <ele>40</ele>
        <time>2015-06-07T07:27:15Z</time>
      </trkpt>
      <trkpt lat="47.87046" lon="-1.67496">
        <ele>41</ele>
        <time>2015-06-07T07:27:16Z</time>
      </trkpt>
      <trkpt lat="47.87048" lon="-1.675">
        <ele>41</ele>
        <time>2015-06-07T07:27:17Z</time>
      </trkpt>
      <trkpt lat="47.87049" lon="-1.67504">
        <ele>41</ele>
        <time>2015-06-07T07:27:18Z</time>
      </trkpt>
      <trkpt lat="47.87051" lon="-1.67507">
        <ele>42</ele>
        <time>2015-06-07T07:27:19Z</time>
      </trkpt>
      <trkpt lat="47.87052" lon="-1.6751">
        <ele>42</ele>
        <time>2015-06-07T07:27:20Z</time>
      </trkpt>
      <trkpt lat="47.87054" lon="-1.67514">
        <ele>42</ele>
        <time>2015-06-07T07:27:21Z</time>
      </trkpt>
      <trkpt lat="47.87056" lon="-1.67517">
        <ele>43</ele>
        <time>2015-06-07T07:27:22Z</time>
      </trkpt>
      <trkpt lat="47.87058" lon="-1.6752">
        <ele>43</ele>
        <time>2015-06-07T07:27:23Z</time>
      </trkpt>
      <trkpt lat="47.87061" lon="-1.67524">
        <ele>43</ele>
        <time>2015-06-07T07:27:24Z</time>
      </trkpt>
      <trkpt lat="47.87063" lon="-1.67527">
        <ele>44</ele>
        <time>2015-06-07T07:27:25Z</time>
      </trkpt>
      <trkpt lat="47.87065" lon="-1.6753">
        <ele>44</ele>
        <time>2015-06-07T07:27:26Z</time>
      </trkpt>
      <trkpt lat="47.87067" lon="-1.67534">
        <ele>44</ele>
        <time>2015-06-07T07:27:27Z</time>
      </trkpt>
      <trkpt lat="47.8707" lon="-1.67537">
        <ele>45</ele>
        <time>2015-06-07T07:27:28Z</time>
      </trkpt>
      <trkpt lat="47.87072" lon="-1.67541">
        <ele>45</ele>
        <time>2015-06-07T07:27:29Z</time>
      </trkpt>
      <trkpt lat="47.87074" lon="-1.67545">
        <ele>45</ele>
        <time>2015-06-07T07:27:30Z</time>
      </trkpt>
      <trkpt lat="47.87076" lon="-1.67549">
        <ele>45</ele>
        <time>2015-06-07T07:27:31Z</time>
      </trkpt>
      <trkpt lat="47.87078" lon="-1.67552">
        <ele>45</ele>
        <time>2015-06-07T07:27:32Z</time>
      </trkpt>
      <trkpt lat="47.8708" lon="-1.67555">
        <ele>46</ele>
        <time>2015-06-07T07:27:33Z</time>
      </trkpt>
      <trkpt lat="47.87082" lon="-1.67559">
        <ele>46</ele>
        <time>2015-06-07T07:27:34Z</time>
      </trkpt>
      <trkpt lat="47.87083" lon="-1.67563">
        <ele>46</ele>
        <time>2015-06-07T07:27:35Z</time>
      </trkpt>
      <trkpt lat="47.87085" lon="-1.67567">
        <ele>46</ele>
        <time>2015-06-07T07:27:36Z</time>
      </trkpt>
      <trkpt lat="47.87087" lon="-1.67572">
        <ele>46</ele>
        <time>2015-06-07T07:27:37Z</time>
      </trkpt>
      <trkpt lat="47.87089" lon="-1.67577">
        <ele>46</ele>
        <time>2015-06-07T07:27:38Z</time>
      </trkpt>
      <trkpt lat="47.87091" lon="-1.67582">
        <ele>47</ele>
        <time>2015-06-07T07:27:39Z</time>
      </trkpt>
      <trkpt lat="47.87093" lon="-1.67586">
        <ele>47</ele>
        <time>2015-06-07T07:27:40Z</time>
      </trkpt>
      <trkpt lat="47.87095" lon="-1.67591">
        <ele>47</ele>
        <time>2015-06-07T07:27:41Z</time>
      </trkpt>
      <trkpt lat="47.87097" lon="-1.67596">
        <ele>47</ele>
        <time>2015-06-07T07:27:42Z</time>
      </trkpt>
      <trkpt lat="47.871" lon="-1.67602">
        <ele>47</ele>
        <time>2015-06-07T07:27:43Z</time>
      </trkpt>
      <trkpt lat="47.87102" lon="-1.67607">
        <ele>47</ele>
        <time>2015-06-07T07:27:44Z</time>
      </trkpt>
      <trkpt lat="47.87104" lon="-1.67613">
        <ele>48</ele>
        <time>2015-06-07T07:27:45Z</time>
      </trkpt>
      <trkpt lat="47.87107" lon="-1.67619">
        <ele>48</ele>
        <time>2015-06-07T07:27:46Z</time>
      </trkpt>
      <trkpt lat="47.8711" lon="-1.67625">
        <ele>48</ele>
        <time>2015-06-07T07:27:47Z</time>
      </trkpt>
      <trkpt lat="47.87112" lon="-1.6763">
        <ele>48</ele>
        <time>2015-06-07T07:27:48Z</time>
      </trkpt>
      <trkpt lat="47.87115" lon="-1.67635">
        <ele>48</ele>
        <time>2015-06-07T07:27:49Z</time>
      </trkpt>
      <trkpt lat="47.87118" lon="-1.67641">
        <ele>47</ele>
        <time>2015-06-07T07:27:50Z</time>
      </trkpt>
      <trkpt lat="47.87121" lon="-1.67646">
        <ele>47</ele>
        <time>2015-06-07T07:27:51Z</time>
      </trkpt>
      <trkpt lat="47.87124" lon="-1.67652">
        <ele>47</ele>
        <time>2015-06-07T07:27:52Z</time>
      </trkpt>
      <trkpt lat="47.87127" lon="-1.67658">
        <ele>47</ele>
        <time>2015-06-07T07:27:53Z</time>
      </trkpt>
      <trkpt lat="47.8713" lon="-1.67663">
        <ele>47</ele>
        <time>2015-06-07T07:27:54Z</time>
      </trkpt>
      <trkpt lat="47.87133" lon="-1.67669">
        <ele>47</ele>
        <time>2015-06-07T07:27:55Z</time>
      </trkpt>
      <trkpt lat="47.87136" lon="-1.67674">
        <ele>47</ele>
        <time>2015-06-07T07:27:56Z</time>
      </trkpt>
      <trkpt lat="47.87139" lon="-1.6768">
        <ele>47</ele>
        <time>2015-06-07T07:27:57Z</time>
      </trkpt>
      <trkpt lat="47.87142" lon="-1.67685">
        <ele>47</ele>
        <time>2015-06-07T07:27:58Z</time>
      </trkpt>
      <trkpt lat="47.87145" lon="-1.6769">
        <ele>47</ele>
        <time>2015-06-07T07:27:59Z</time>
      </trkpt>
      <trkpt lat="47.87148" lon="-1.67695">
        <ele>46</ele>
        <time>2015-06-07T07:28:00Z</time>
      </trkpt>
      <trkpt lat="47.87151" lon="-1.677">
        <ele>46</ele>
        <time>2015-06-07T07:28:01Z</time>
      </trkpt>
      <trkpt lat="47.87154" lon="-1.67705">
        <ele>46</ele>
        <time>2015-06-07T07:28:02Z</time>
      </trkpt>
      <trkpt lat="47.87158" lon="-1.6771">
        <ele>46</ele>
        <time>2015-06-07T07:28:03Z</time>
      </trkpt>
      <trkpt lat="47.87161" lon="-1.67715">
        <ele>46</ele>
        <time>2015-06-07T07:28:04Z</time>
      </trkpt>
      <trkpt lat="47.87165" lon="-1.6772">
        <ele>46</ele>
        <time>2015-06-07T07:28:05Z</time>
      </trkpt>
      <trkpt lat="47.87168" lon="-1.67725">
        <ele>46</ele>
        <time>2015-06-07T07:28:06Z</time>
      </trkpt>
      <trkpt lat="47.87171" lon="-1.6773">
        <ele>46</ele>
        <time>2015-06-07T07:28:07Z</time>
      </trkpt>
      <trkpt lat="47.87174" lon="-1.67735">
        <ele>46</ele>
        <time>2015-06-07T07:28:08Z</time>
      </trkpt>
      <trkpt lat="47.87177" lon="-1.6774">
        <ele>46</ele>
        <time>2015-06-07T07:28:09Z</time>
      </trkpt>
      <trkpt lat="47.8718" lon="-1.67746">
        <ele>46</ele>
        <time>2015-06-07T07:28:10Z</time>
      </trkpt>
      <trkpt lat="47.87184" lon="-1.67751">
        <ele>46</ele>
        <time>2015-06-07T07:28:11Z</time>
      </trkpt>
      <trkpt lat="47.87187" lon="-1.67757">
        <ele>46</ele>
        <time>2015-06-07T07:28:12Z</time>
      </trkpt>
      <trkpt lat="47.8719" lon="-1.67763">
        <ele>46</ele>
        <time>2015-06-07T07:28:13Z</time>
      </trkpt>
      <trkpt lat="47.87193" lon="-1.67769">
        <ele>46</ele>
        <time>2015-06-07T07:28:14Z</time>
      </trkpt>
      <trkpt lat="47.87196" lon="-1.67775">
        <ele>46</ele>
        <time>2015-06-07T07:28:15Z</time>
      </trkpt>
      <trkpt lat="47.87198" lon="-1.67781">
        <ele>46</ele>
        <time>2015-06-07T07:28:16Z</time>
      </trkpt>
      <trkpt lat="47.87201" lon="-1.67788">
        <ele>46</ele>
        <time>2015-06-07T07:28:17Z</time>
      </trkpt>
      <trkpt lat="47.87203" lon="-1.67794">
        <ele>46</ele>
        <time>2015-06-07T07:28:18Z</time>
      </trkpt>
      <trkpt lat="47.87206" lon="-1.67801">
        <ele>46</ele>
        <time>2015-06-07T07:28:19Z</time>
      </trkpt>
      <trkpt lat="47.87207" lon="-1.67808">
        <ele>45</ele>
        <time>2015-06-07T07:28:20Z</time>
      </trkpt>
      <trkpt lat="47.87209" lon="-1.67816">
        <ele>45</ele>
        <time>2015-06-07T07:28:21Z</time>
      </trkpt>
      <trkpt lat="47.87211" lon="-1.67823">
        <ele>45</ele>
        <time>2015-06-07T07:28:22Z</time>
      </trkpt>
      <trkpt lat="47.87213" lon="-1.6783">
        <ele>45</ele>
        <time>2015-06-07T07:28:23Z</time>
      </trkpt>
      <trkpt lat="47.87214" lon="-1.67838">
        <ele>45</ele>
        <time>2015-06-07T07:28:24Z</time>
      </trkpt>
      <trkpt lat="47.87215" lon="-1.67845">
        <ele>45</ele>
        <time>2015-06-07T07:28:25Z</time>
      </trkpt>
      <trkpt lat="47.87216" lon="-1.67852">
        <ele>45</ele>
        <time>2015-06-07T07:28:26Z</time>
      </trkpt>
      <trkpt lat="47.87217" lon="-1.67858">
        <ele>45</ele>
        <time>2015-06-07T07:28:27Z</time>
      </trkpt>
      <trkpt lat="47.87217" lon="-1.67863">
        <ele>45</ele>
        <time>2015-06-07T07:28:28Z</time>
      </trkpt>
      <trkpt lat="47.87218" lon="-1.67866">
        <ele>45</ele>
        <time>2015-06-07T07:28:29Z</time>
      </trkpt>
      <trkpt lat="47.87218" lon="-1.67867">
        <ele>45</ele>
        <time>2015-06-07T07:28:30Z</time>
      </trkpt>
      <trkpt lat="47.87218" lon="-1.67868">
        <ele>45</ele>
        <time>2015-06-07T07:28:31Z</time>
      </trkpt>
      <trkpt lat="47.87218" lon="-1.67869">
        <ele>45</ele>
        <time>2015-06-07T07:28:32Z</time>
      </trkpt>
      <trkpt lat="47.87219" lon="-1.67869">
        <ele>45</ele>
        <time>2015-06-07T07:28:33Z</time>
      </trkpt>
      <trkpt lat="47.87219" lon="-1.67869">
        <ele>45</ele>
        <time>2015-06-07T07:28:34Z</time>
      </trkpt>
      <trkpt lat="47.87219" lon="-1.67869">
        <ele>45</ele>
        <time>2015-06-07T07:28:35Z</time>
      </trkpt>
      <trkpt lat="47.87219" lon="-1.6787">
        <ele>45</ele>
        <time>2015-06-07T07:28:36Z</time>
      </trkpt>
      <trkpt lat="47.87219" lon="-1.6787">
        <ele>45</ele>
        <time>2015-06-07T07:28:37Z</time>
      </trkpt>
      <trkpt lat="47.87219" lon="-1.67871">
        <ele>45</ele>
        <time>2015-06-07T07:28:38Z</time>
      </trkpt>
      <trkpt lat="47.87218" lon="-1.67872">
        <ele>45</ele>
        <time>2015-06-07T07:28:39Z</time>
      </trkpt>
      <trkpt lat="47.87216" lon="-1.67874">
        <ele>45</ele>
        <time>2015-06-07T07:28:40Z</time>
      </trkpt>
      <trkpt lat="47.87214" lon="-1.67876">
        <ele>45</ele>
        <time>2015-06-07T07:28:41Z</time>
      </trkpt>
      <trkpt lat="47.87212" lon="-1.67878">
        <ele>45</ele>
        <time>2015-06-07T07:28:42Z</time>
      </trkpt>
      <trkpt lat="47.87208" lon="-1.67879">
        <ele>45</ele>
        <time>2015-06-07T07:28:43Z</time>
      </trkpt>
      <trkpt lat="47.87204" lon="-1.6788">
        <ele>44</ele>
        <time>2015-06-07T07:28:44Z</time>
      </trkpt>
      <trkpt lat="47.872" lon="-1.67881">
        <ele>44</ele>
        <time>2015-06-07T07:28:45Z</time>
      </trkpt>
      <trkpt lat="47.87195" lon="-1.67881">
        <ele>44</ele>
        <time>2015-06-07T07:28:46Z</time>
      </trkpt>
      <trkpt lat="47.8719" lon="-1.67882">
        <ele>44</ele>
        <time>2015-06-07T07:28:47Z</time>
      </trkpt>
      <trkpt lat="47.87186" lon="-1.67884">
        <ele>44</ele>
        <time>2015-06-07T07:28:48Z</time>
      </trkpt>
      <trkpt lat="47.87181" lon="-1.67886">
        <ele>43</ele>
        <time>2015-06-07T07:28:49Z</time>
      </trkpt>
      <trkpt lat="47.87177" lon="-1.67889">
        <ele>43</ele>
        <time>2015-06-07T07:28:50Z</time>
      </trkpt>
      <trkpt lat="47.87173" lon="-1.67891">
        <ele>43</ele>
        <time>2015-06-07T07:28:51Z</time>
      </trkpt>
      <trkpt lat="47.87168" lon="-1.67892">
        <ele>43</ele>
        <time>2015-06-07T07:28:52Z</time>
      </trkpt>
      <trkpt lat="47.87163" lon="-1.67894">
        <ele>43</ele>
        <time>2015-06-07T07:28:53Z</time>
      </trkpt>
      <trkpt lat="47.87159" lon="-1.67899">
        <ele>42</ele>
        <time>2015-06-07T07:28:54Z</time>
      </trkpt>
      <trkpt lat="47.87156" lon="-1.67905">
        <ele>42</ele>
        <time>2015-06-07T07:28:55Z</time>
      </trkpt>
      <trkpt lat="47.87153" lon="-1.67914">
        <ele>42</ele>
        <time>2015-06-07T07:28:56Z</time>
      </trkpt>
      <trkpt lat="47.87152" lon="-1.67922">
        <ele>42</ele>
        <time>2015-06-07T07:28:57Z</time>
      </trkpt>
      <trkpt lat="47.87153" lon="-1.67931">
        <ele>41</ele>
        <time>2015-06-07T07:28:58Z</time>
      </trkpt>
      <trkpt lat="47.87153" lon="-1.6794">
        <ele>41</ele>
        <time>2015-06-07T07:28:59Z</time>
      </trkpt>
      <trkpt lat="47.87154" lon="-1.67949">
        <ele>41</ele>
        <time>2015-06-07T07:29:00Z</time>
      </trkpt>
      <trkpt lat="47.87155" lon="-1.67959">
        <ele>40</ele>
        <time>2015-06-07T07:29:01Z</time>
      </trkpt>
      <trkpt lat="47.87156" lon="-1.67969">
        <ele>40</ele>
        <time>2015-06-07T07:29:02Z</time>
      </trkpt>
      <trkpt lat="47.87157" lon="-1.67979">
        <ele>40</ele>
        <time>2015-06-07T07:29:03Z</time>
      </trkpt>
      <trkpt lat="47.87158" lon="-1.6799">
        <ele>40</ele>
        <time>2015-06-07T07:29:04Z</time>
      </trkpt>
      <trkpt lat="47.87159" lon="-1.68001">
        <ele>39</ele>
        <time>2015-06-07T07:29:05Z</time>
      </trkpt>
      <trkpt lat="47.8716" lon="-1.68012">
        <ele>39</ele>
        <time>2015-06-07T07:29:06Z</time>
      </trkpt>
      <trkpt lat="47.87161" lon="-1.68023">
        <ele>39</ele>
        <time>2015-06-07T07:29:07Z</time>
      </trkpt>
      <trkpt lat="47.87162" lon="-1.68035">
        <ele>39</ele>
        <time>2015-06-07T07:29:08Z</time>
      </trkpt>
      <trkpt lat="47.87163" lon="-1.68046">
        <ele>39</ele>
        <time>2015-06-07T07:29:09Z</time>
      </trkpt>
      <trkpt lat="47.87164" lon="-1.68057">
        <ele>38</ele>
        <time>2015-06-07T07:29:10Z</time>
      </trkpt>
      <trkpt lat="47.87166" lon="-1.68069">
        <ele>38</ele>
        <time>2015-06-07T07:29:11Z</time>
      </trkpt>
      <trkpt lat="47.87167" lon="-1.68081">
        <ele>38</ele>
        <time>2015-06-07T07:29:12Z</time>
      </trkpt>
      <trkpt lat="47.87168" lon="-1.68094">
        <ele>38</ele>
        <time>2015-06-07T07:29:13Z</time>
      </trkpt>
      <trkpt lat="47.8717" lon="-1.68106">
        <ele>37</ele>
        <time>2015-06-07T07:29:14Z</time>
      </trkpt>
      <trkpt lat="47.8717" lon="-1.6812">
        <ele>37</ele>
        <time>2015-06-07T07:29:15Z</time>
      </trkpt>
      <trkpt lat="47.87171" lon="-1.68133">
        <ele>36</ele>
        <time>2015-06-07T07:29:16Z</time>
      </trkpt>
      <trkpt lat="47.87171" lon="-1.68147">
        <ele>36</ele>
        <time>2015-06-07T07:29:17Z</time>
      </trkpt>
      <trkpt lat="47.8717" lon="-1.68162">
        <ele>35</ele>
        <time>2015-06-07T07:29:18Z</time>
      </trkpt>
      <trkpt lat="47.87168" lon="-1.68176">
        <ele>34</ele>
        <time>2015-06-07T07:29:19Z</time>
      </trkpt>
      <trkpt lat="47.87166" lon="-1.68191">
        <ele>34</ele>
        <time>2015-06-07T07:29:20Z</time>
      </trkpt>
      <trkpt lat="47.87163" lon="-1.68205">
        <ele>33</ele>
        <time>2015-06-07T07:29:21Z</time>
      </trkpt>
      <trkpt lat="47.87158" lon="-1.68218">
        <ele>33</ele>
        <time>2015-06-07T07:29:22Z</time>
      </trkpt>
      <trkpt lat="47.87154" lon="-1.6823">
        <ele>33</ele>
        <time>2015-06-07T07:29:23Z</time>
      </trkpt>
      <trkpt lat="47.8715" lon="-1.68242">
        <ele>33</ele>
        <time>2015-06-07T07:29:24Z</time>
      </trkpt>
      <trkpt lat="47.87146" lon="-1.68253">
        <ele>33</ele>
        <time>2015-06-07T07:29:25Z</time>
      </trkpt>
      <trkpt lat="47.87143" lon="-1.68263">
        <ele>33</ele>
        <time>2015-06-07T07:29:26Z</time>
      </trkpt>
      <trkpt lat="47.87139" lon="-1.68273">
        <ele>34</ele>
        <time>2015-06-07T07:29:27Z</time>
      </trkpt>
      <trkpt lat="47.87136" lon="-1.68282">
        <ele>34</ele>
        <time>2015-06-07T07:29:28Z</time>
      </trkpt>
      <trkpt lat="47.87133" lon="-1.68291">
        <ele>34</ele>
        <time>2015-06-07T07:29:29Z</time>
      </trkpt>
      <trkpt lat="47.87129" lon="-1.683">
        <ele>35</ele>
        <time>2015-06-07T07:29:30Z</time>
      </trkpt>
      <trkpt lat="47.87126" lon="-1.68309">
        <ele>35</ele>
        <time>2015-06-07T07:29:31Z</time>
      </trkpt>
      <trkpt lat="47.87123" lon="-1.68317">
        <ele>35</ele>
        <time>2015-06-07T07:29:32Z</time>
      </trkpt>
      <trkpt lat="47.87119" lon="-1.68325">
        <ele>35</ele>
        <time>2015-06-07T07:29:33Z</time>
      </trkpt>
      <trkpt lat="47.87116" lon="-1.68333">
        <ele>36</ele>
        <time>2015-06-07T07:29:34Z</time>
      </trkpt>
      <trkpt lat="47.87113" lon="-1.68341">
        <ele>36</ele>
        <time>2015-06-07T07:29:35Z</time>
      </trkpt>
      <trkpt lat="47.87111" lon="-1.68349">
        <ele>36</ele>
        <time>2015-06-07T07:29:36Z</time>
      </trkpt>
      <trkpt lat="47.8711" lon="-1.68357">
        <ele>36</ele>
        <time>2015-06-07T07:29:37Z</time>
      </trkpt>
      <trkpt lat="47.87111" lon="-1.68365">
        <ele>36</ele>
        <time>2015-06-07T07:29:38Z</time>
      </trkpt>
      <trkpt lat="47.87113" lon="-1.68371">
        <ele>37</ele>
        <time>2015-06-07T07:29:39Z</time>
      </trkpt>
      <trkpt lat="47.87117" lon="-1.68377">
        <ele>37</ele>
        <time>2015-06-07T07:29:40Z</time>
      </trkpt>
      <trkpt lat="47.87121" lon="-1.68383">
        <ele>37</ele>
        <time>2015-06-07T07:29:41Z</time>
      </trkpt>
      <trkpt lat="47.87125" lon="-1.68387">
        <ele>37</ele>
        <time>2015-06-07T07:29:42Z</time>
      </trkpt>
      <trkpt lat="47.8713" lon="-1.68392">
        <ele>37</ele>
        <time>2015-06-07T07:29:43Z</time>
      </trkpt>
      <trkpt lat="47.87134" lon="-1.68397">
        <ele>37</ele>
        <time>2015-06-07T07:29:44Z</time>
      </trkpt>
      <trkpt lat="47.87139" lon="-1.68402">
        <ele>37</ele>
        <time>2015-06-07T07:29:45Z</time>
      </trkpt>
      <trkpt lat="47.87144" lon="-1.68407">
        <ele>37</ele>
        <time>2015-06-07T07:29:46Z</time>
      </trkpt>
      <trkpt lat="47.87148" lon="-1.68412">
        <ele>37</ele>
        <time>2015-06-07T07:29:47Z</time>
      </trkpt>
      <trkpt lat="47.87153" lon="-1.68417">
        <ele>37</ele>
        <time>2015-06-07T07:29:48Z</time>
      </trkpt>
      <trkpt lat="47.87157" lon="-1.68422">
        <ele>37</ele>
        <time>2015-06-07T07:29:49Z</time>
      </trkpt>
      <trkpt lat="47.87162" lon="-1.68427">
        <ele>37</ele>
        <time>2015-06-07T07:29:50Z</time>
      </trkpt>
      <trkpt lat="47.87166" lon="-1.68432">
        <ele>37</ele>
        <time>2015-06-07T07:29:51Z</time>
      </trkpt>
      <trkpt lat="47.8717" lon="-1.68437">
        <ele>37</ele>
        <time>2015-06-07T07:29:52Z</time>
      </trkpt>
      <trkpt lat="47.87174" lon="-1.6844">
        <ele>37</ele>
        <time>2015-06-07T07:29:53Z</time>
      </trkpt>
      <trkpt lat="47.87178" lon="-1.68443">
        <ele>37</ele>
        <time>2015-06-07T07:29:54Z</time>
      </trkpt>
      <trkpt lat="47.87183" lon="-1.68445">
        <ele>37</ele>
        <time>2015-06-07T07:29:55Z</time>
      </trkpt>
      <trkpt lat="47.87187" lon="-1.68446">
        <ele>37</ele>
        <time>2015-06-07T07:29:56Z</time>
      </trkpt>
      <trkpt lat="47.87192" lon="-1.68447">
        <ele>37</ele>
        <time>2015-06-07T07:29:57Z</time>
      </trkpt>
      <trkpt lat="47.87196" lon="-1.68447">
        <ele>38</ele>
        <time>2015-06-07T07:29:58Z</time>
      </trkpt>
      <trkpt lat="47.87201" lon="-1.68447">
        <ele>38</ele>
        <time>2015-06-07T07:29:59Z</time>
      </trkpt>
      <trkpt lat="47.87207" lon="-1.68446">
        <ele>38</ele>
        <time>2015-06-07T07:30:00Z</time>
      </trkpt>
      <trkpt lat="47.87212" lon="-1.68446">
        <ele>38</ele>
        <time>2015-06-07T07:30:01Z</time>
      </trkpt>
      <trkpt lat="47.87217" lon="-1.68445">
        <ele>38</ele>
        <time>2015-06-07T07:30:02Z</time>
      </trkpt>
      <trkpt lat="47.87222" lon="-1.68443">
        <ele>38</ele>
        <time>2015-06-07T07:30:03Z</time>
      </trkpt>
      <trkpt lat="47.87228" lon="-1.68442">
        <ele>38</ele>
        <time>2015-06-07T07:30:04Z</time>
      </trkpt>
      <trkpt lat="47.87233" lon="-1.68442">
        <ele>38</ele>
        <time>2015-06-07T07:30:05Z</time>
      </trkpt>
      <trkpt lat="47.87239" lon="-1.6844">
        <ele>38</ele>
        <time>2015-06-07T07:30:06Z</time>
      </trkpt>
      <trkpt lat="47.87245" lon="-1.6844">
        <ele>38</ele>
        <time>2015-06-07T07:30:07Z</time>
      </trkpt>
      <trkpt lat="47.8725" lon="-1.68439">
        <ele>38</ele>
        <time>2015-06-07T07:30:08Z</time>
      </trkpt>
      <trkpt lat="47.87255" lon="-1.68438">
        <ele>38</ele>
        <time>2015-06-07T07:30:09Z</time>
      </trkpt>
      <trkpt lat="47.87261" lon="-1.68437">
        <ele>38</ele>
        <time>2015-06-07T07:30:10Z</time>
      </trkpt>
      <trkpt lat="47.87266" lon="-1.68436">
        <ele>38</ele>
        <time>2015-06-07T07:30:11Z</time>
      </trkpt>
      <trkpt lat="47.87271" lon="-1.68435">
        <ele>38</ele>
        <time>2015-06-07T07:30:12Z</time>
      </trkpt>
      <trkpt lat="47.87276" lon="-1.68434">
        <ele>38</ele>
        <time>2015-06-07T07:30:13Z</time>
      </trkpt>
      <trkpt lat="47.8728" lon="-1.68435">
        <ele>38</ele>
        <time>2015-06-07T07:30:14Z</time>
      </trkpt>
      <trkpt lat="47.87283" lon="-1.68437">
        <ele>38</ele>
        <time>2015-06-07T07:30:15Z</time>
      </trkpt>
      <trkpt lat="47.87286" lon="-1.68441">
        <ele>38</ele>
        <time>2015-06-07T07:30:16Z</time>
      </trkpt>
      <trkpt lat="47.87287" lon="-1.68445">
        <ele>38</ele>
        <time>2015-06-07T07:30:17Z</time>
      </trkpt>
      <trkpt lat="47.87288" lon="-1.6845">
        <ele>38</ele>
        <time>2015-06-07T07:30:18Z</time>
      </trkpt>
      <trkpt lat="47.87289" lon="-1.68455">
        <ele>38</ele>
        <time>2015-06-07T07:30:19Z</time>
      </trkpt>
      <trkpt lat="47.8729" lon="-1.68458">
        <ele>38</ele>
        <time>2015-06-07T07:30:20Z</time>
      </trkpt>
      <trkpt lat="47.87291" lon="-1.68462">
        <ele>38</ele>
        <time>2015-06-07T07:30:21Z</time>
      </trkpt>
      <trkpt lat="47.87292" lon="-1.68466">
        <ele>38</ele>
        <time>2015-06-07T07:30:22Z</time>
      </trkpt>
      <trkpt lat="47.87292" lon="-1.68472">
        <ele>38</ele>
        <time>2015-06-07T07:30:23Z</time>
      </trkpt>
      <trkpt lat="47.87293" lon="-1.68478">
        <ele>39</ele>
        <time>2015-06-07T07:30:24Z</time>
      </trkpt>
      <trkpt lat="47.87294" lon="-1.68484">
        <ele>39</ele>
        <time>2015-06-07T07:30:25Z</time>
      </trkpt>
      <trkpt lat="47.87295" lon="-1.6849">
        <ele>39</ele>
        <time>2015-06-07T07:30:26Z</time>
      </trkpt>
      <trkpt lat="47.87297" lon="-1.68495">
        <ele>39</ele>
        <time>2015-06-07T07:30:27Z</time>
      </trkpt>
      <trkpt lat="47.87298" lon="-1.68502">
        <ele>39</ele>
        <time>2015-06-07T07:30:28Z</time>
      </trkpt>
      <trkpt lat="47.873" lon="-1.68508">
        <ele>39</ele>
        <time>2015-06-07T07:30:29Z</time>
      </trkpt>
      <trkpt lat="47.87301" lon="-1.68515">
        <ele>39</ele>
        <time>2015-06-07T07:30:30Z</time>
      </trkpt>
      <trkpt lat="47.87303" lon="-1.68521">
        <ele>39</ele>
        <time>2015-06-07T07:30:31Z</time>
      </trkpt>
      <trkpt lat="47.87303" lon="-1.68528">
        <ele>39</ele>
        <time>2015-06-07T07:30:32Z</time>
      </trkpt>
      <trkpt lat="47.87301" lon="-1.68532">
        <ele>39</ele>
        <time>2015-06-07T07:30:33Z</time>
      </trkpt>
      <trkpt lat="47.87298" lon="-1.68534">
        <ele>39</ele>
        <time>2015-06-07T07:30:34Z</time>
      </trkpt>
      <trkpt lat="47.87295" lon="-1.68534">
        <ele>38</ele>
        <time>2015-06-07T07:30:35Z</time>
      </trkpt>
      <trkpt lat="47.87294" lon="-1.68537">
        <ele>38</ele>
        <time>2015-06-07T07:30:36Z</time>
      </trkpt>
      <trkpt lat="47.87292" lon="-1.6854">
        <ele>38</ele>
        <time>2015-06-07T07:30:37Z</time>
      </trkpt>
      <trkpt lat="47.87291" lon="-1.68544">
        <ele>38</ele>
        <time>2015-06-07T07:30:38Z</time>
      </trkpt>
      <trkpt lat="47.87288" lon="-1.68547">
        <ele>38</ele>
        <time>2015-06-07T07:30:39Z</time>
      </trkpt>
      <trkpt lat="47.87284" lon="-1.6855">
        <ele>38</ele>
        <time>2015-06-07T07:30:40Z</time>
      </trkpt>
      <trkpt lat="47.87284" lon="-1.68554">
        <ele>38</ele>
        <time>2015-06-07T07:30:41Z</time>
      </trkpt>
      <trkpt lat="47.87284" lon="-1.68557">
        <ele>38</ele>
        <time>2015-06-07T07:30:42Z</time>
      </trkpt>
      <trkpt lat="47.87285" lon="-1.68561">
        <ele>38</ele>
        <time>2015-06-07T07:30:43Z</time>
      </trkpt>
      <trkpt lat="47.87287" lon="-1.68565">
        <ele>38</ele>
        <time>2015-06-07T07:30:44Z</time>
      </trkpt>
      <trkpt lat="47.87287" lon="-1.68571">
        <ele>38</ele>
        <time>2015-06-07T07:30:45Z</time>
      </trkpt>
      <trkpt lat="47.87288" lon="-1.68577">
        <ele>38</ele>
        <time>2015-06-07T07:30:46Z</time>
      </trkpt>
      <trkpt lat="47.87289" lon="-1.68585">
        <ele>38</ele>
        <time>2015-06-07T07:30:47Z</time>
      </trkpt>
      <trkpt lat="47.87289" lon="-1.68591">
        <ele>38</ele>
        <time>2015-06-07T07:30:48Z</time>
      </trkpt>
      <trkpt lat="47.87288" lon="-1.68597">
        <ele>37</ele>
        <time>2015-06-07T07:30:49Z</time>
      </trkpt>
      <trkpt lat="47.87286" lon="-1.686">
        <ele>37</ele>
        <time>2015-06-07T07:30:50Z</time>
      </trkpt>
      <trkpt lat="47.87284" lon="-1.68603">
        <ele>37</ele>
        <time>2015-06-07T07:30:51Z</time>
      </trkpt>
      <trkpt lat="47.87281" lon="-1.68604">
        <ele>37</ele>
        <time>2015-06-07T07:30:52Z</time>
      </trkpt>
      <trkpt lat="47.87279" lon="-1.68605">
        <ele>37</ele>
        <time>2015-06-07T07:30:53Z</time>
      </trkpt>
      <trkpt lat="47.87276" lon="-1.68605">
        <ele>37</ele>
        <time>2015-06-07T07:30:54Z</time>
      </trkpt>
      <trkpt lat="47.87274" lon="-1.68606">
        <ele>37</ele>
        <time>2015-06-07T07:30:55Z</time>
      </trkpt>
      <trkpt lat="47.87272" lon="-1.68607">
        <ele>37</ele>
        <time>2015-06-07T07:30:56Z</time>
      </trkpt>
      <trkpt lat="47.87271" lon="-1.68608">
        <ele>37</ele>
        <time>2015-06-07T07:30:57Z</time>
      </trkpt>
      <trkpt lat="47.8727" lon="-1.68611">
        <ele>37</ele>
        <time>2015-06-07T07:30:58Z</time>
      </trkpt>
      <trkpt lat="47.87269" lon="-1.68614">
        <ele>36</ele>
        <time>2015-06-07T07:30:59Z</time>
      </trkpt>
      <trkpt lat="47.87269" lon="-1.68617">
        <ele>36</ele>
        <time>2015-06-07T07:31:00Z</time>
      </trkpt>
      <trkpt lat="47.87271" lon="-1.68621">
        <ele>36</ele>
        <time>2015-06-07T07:31:01Z</time>
      </trkpt>
      <trkpt lat="47.87272" lon="-1.68623">
        <ele>36</ele>
        <time>2015-06-07T07:31:02Z</time>
      </trkpt>
      <trkpt lat="47.87274" lon="-1.68626">
        <ele>36</ele>
        <time>2015-06-07T07:31:03Z</time>
      </trkpt>
      <trkpt lat="47.87276" lon="-1.68631">
        <ele>36</ele>
        <time>2015-06-07T07:31:04Z</time>
      </trkpt>
      <trkpt lat="47.87277" lon="-1.68636">
        <ele>36</ele>
        <time>2015-06-07T07:31:05Z</time>
      </trkpt>
      <trkpt lat="47.87277" lon="-1.68641">
        <ele>36</ele>
        <time>2015-06-07T07:31:06Z</time>
      </trkpt>
      <trkpt lat="47.87275" lon="-1.68645">
        <ele>36</ele>
        <time>2015-06-07T07:31:07Z</time>
      </trkpt>
      <trkpt lat="47.87273" lon="-1.68649">
        <ele>36</ele>
        <time>2015-06-07T07:31:08Z</time>
      </trkpt>
      <trkpt lat="47.8727" lon="-1.68652">
        <ele>36</ele>
        <time>2015-06-07T07:31:09Z</time>
      </trkpt>
      <trkpt lat="47.87268" lon="-1.68654">
        <ele>36</ele>
        <time>2015-06-07T07:31:10Z</time>
      </trkpt>
      <trkpt lat="47.87265" lon="-1.68656">
        <ele>36</ele>
        <time>2015-06-07T07:31:11Z</time>
      </trkpt>
      <trkpt lat="47.87262" lon="-1.68657">
        <ele>37</ele>
        <time>2015-06-07T07:31:12Z</time>
      </trkpt>
      <trkpt lat="47.87259" lon="-1.68659">
        <ele>37</ele>
        <time>2015-06-07T07:31:13Z</time>
      </trkpt>
      <trkpt lat="47.87256" lon="-1.68659">
        <ele>37</ele>
        <time>2015-06-07T07:31:14Z</time>
      </trkpt>
      <trkpt lat="47.87254" lon="-1.6866">
        <ele>37</ele>
        <time>2015-06-07T07:31:15Z</time>
      </trkpt>
      <trkpt lat="47.87252" lon="-1.6866">
        <ele>37</ele>
        <time>2015-06-07T07:31:16Z</time>
      </trkpt>
      <trkpt lat="47.87251" lon="-1.68663">
        <ele>37</ele>
        <time>2015-06-07T07:31:17Z</time>
      </trkpt>
      <trkpt lat="47.87249" lon="-1.68666">
        <ele>38</ele>
        <time>2015-06-07T07:31:18Z</time>
      </trkpt>
      <trkpt lat="47.87249" lon="-1.68671">
        <ele>38</ele>
        <time>2015-06-07T07:31:19Z</time>
      </trkpt>
      <trkpt lat="47.87249" lon="-1.68676">
        <ele>38</ele>
        <time>2015-06-07T07:31:20Z</time>
      </trkpt>
      <trkpt lat="47.87248" lon="-1.68681">
        <ele>38</ele>
        <time>2015-06-07T07:31:21Z</time>
      </trkpt>
      <trkpt lat="47.87248" lon="-1.68685">
        <ele>38</ele>
        <time>2015-06-07T07:31:22Z</time>
      </trkpt>
      <trkpt lat="47.8725" lon="-1.68689">
        <ele>38</ele>
        <time>2015-06-07T07:31:23Z</time>
      </trkpt>
      <trkpt lat="47.87252" lon="-1.68692">
        <ele>38</ele>
        <time>2015-06-07T07:31:24Z</time>
      </trkpt>
      <trkpt lat="47.87254" lon="-1.68695">
        <ele>38</ele>
        <time>2015-06-07T07:31:25Z</time>
      </trkpt>
      <trkpt lat="47.87255" lon="-1.68701">
        <ele>39</ele>
        <time>2015-06-07T07:31:26Z</time>
      </trkpt>
      <trkpt lat="47.87256" lon="-1.68707">
        <ele>39</ele>
        <time>2015-06-07T07:31:27Z</time>
      </trkpt>
      <trkpt lat="47.87255" lon="-1.68712">
        <ele>39</ele>
        <time>2015-06-07T07:31:28Z</time>
      </trkpt>
      <trkpt lat="47.87253" lon="-1.68716">
        <ele>39</ele>
        <time>2015-06-07T07:31:29Z</time>
      </trkpt>
      <trkpt lat="47.87251" lon="-1.68719">
        <ele>39</ele>
        <time>2015-06-07T07:31:30Z</time>
      </trkpt>
      <trkpt lat="47.87249" lon="-1.68724">
        <ele>39</ele>
        <time>2015-06-07T07:31:31Z</time>
      </trkpt>
      <trkpt lat="47.87248" lon="-1.68728">
        <ele>38</ele>
        <time>2015-06-07T07:31:32Z</time>
      </trkpt>
      <trkpt lat="47.87246" lon="-1.68731">
        <ele>38</ele>
        <time>2015-06-07T07:31:33Z</time>
      </trkpt>
      <trkpt lat="47.87245" lon="-1.68735">
        <ele>38</ele>
        <time>2015-06-07T07:31:34Z</time>
      </trkpt>
      <trkpt lat="47.87245" lon="-1.68739">
        <ele>38</ele>
        <time>2015-06-07T07:31:35Z</time>
      </trkpt>
      <trkpt lat="47.87246" lon="-1.68745">
        <ele>37</ele>
        <time>2015-06-07T07:31:36Z</time>
      </trkpt>
      <trkpt lat="47.87248" lon="-1.68751">
        <ele>37</ele>
        <time>2015-06-07T07:31:37Z</time>
      </trkpt>
      <trkpt lat="47.8725" lon="-1.68757">
        <ele>37</ele>
        <time>2015-06-07T07:31:38Z</time>
      </trkpt>
      <trkpt lat="47.87251" lon="-1.68764">
        <ele>36</ele>
        <time>2015-06-07T07:31:39Z</time>
      </trkpt>
      <trkpt lat="47.87252" lon="-1.68771">
        <ele>36</ele>
        <time>2015-06-07T07:31:40Z</time>
      </trkpt>
      <trkpt lat="47.87253" lon="-1.68779">
        <ele>36</ele>
        <time>2015-06-07T07:31:41Z</time>
      </trkpt>
      <trkpt lat="47.87254" lon="-1.68786">
        <ele>36</ele>
        <time>2015-06-07T07:31:42Z</time>
      </trkpt>
      <trkpt lat="47.87255" lon="-1.68794">
        <ele>35</ele>
        <time>2015-06-07T07:31:43Z</time>
      </trkpt>
      <trkpt lat="47.87255" lon="-1.68802">
        <ele>35</ele>
        <time>2015-06-07T07:31:44Z</time>
      </trkpt>
      <trkpt lat="47.87256" lon="-1.6881">
        <ele>34</ele>
        <time>2015-06-07T07:31:45Z</time>
      </trkpt>
      <trkpt lat="47.87258" lon="-1.68818">
        <ele>34</ele>
        <time>2015-06-07T07:31:46Z</time>
      </trkpt>
      <trkpt lat="47.87261" lon="-1.68825">
        <ele>34</ele>
        <time>2015-06-07T07:31:47Z</time>
      </trkpt>
      <trkpt lat="47.87264" lon="-1.68831">
        <ele>34</ele>
        <time>2015-06-07T07:31:48Z</time>
      </trkpt>
      <trkpt lat="47.87268" lon="-1.68836">
        <ele>33</ele>
        <time>2015-06-07T07:31:49Z</time>
      </trkpt>
      <trkpt lat="47.87271" lon="-1.68841">
        <ele>33</ele>
        <time>2015-06-07T07:31:50Z</time>
      </trkpt>
      <trkpt lat="47.87275" lon="-1.68844">
        <ele>33</ele>
        <time>2015-06-07T07:31:51Z</time>
      </trkpt>
      <trkpt lat="47.87279" lon="-1.68848">
        <ele>33</ele>
        <time>2015-06-07T07:31:52Z</time>
      </trkpt>
      <trkpt lat="47.87283" lon="-1.68851">
        <ele>34</ele>
        <time>2015-06-07T07:31:53Z</time>
      </trkpt>
      <trkpt lat="47.87287" lon="-1.68853">
        <ele>34</ele>
        <time>2015-06-07T07:31:54Z</time>
      </trkpt>
      <trkpt lat="47.87291" lon="-1.68854">
        <ele>34</ele>
        <time>2015-06-07T07:31:55Z</time>
      </trkpt>
      <trkpt lat="47.87295" lon="-1.68855">
        <ele>34</ele>
        <time>2015-06-07T07:31:56Z</time>
      </trkpt>
      <trkpt lat="47.87298" lon="-1.68856">
        <ele>34</ele>
        <time>2015-06-07T07:31:57Z</time>
      </trkpt>
      <trkpt lat="47.87302" lon="-1.68857">
        <ele>35</ele>
        <time>2015-06-07T07:31:58Z</time>
      </trkpt>
      <trkpt lat="47.87305" lon="-1.68857">
        <ele>35</ele>
        <time>2015-06-07T07:31:59Z</time>
      </trkpt>
      <trkpt lat="47.87309" lon="-1.68857">
        <ele>35</ele>
        <time>2015-06-07T07:32:00Z</time>
      </trkpt>
      <trkpt lat="47.87313" lon="-1.68857">
        <ele>35</ele>
        <time>2015-06-07T07:32:01Z</time>
      </trkpt>
      <trkpt lat="47.87316" lon="-1.68856">
        <ele>35</ele>
        <time>2015-06-07T07:32:02Z</time>
      </trkpt>
      <trkpt lat="47.8732" lon="-1.68856">
        <ele>36</ele>
        <time>2015-06-07T07:32:03Z</time>
      </trkpt>
      <trkpt lat="47.87324" lon="-1.68856">
        <ele>36</ele>
        <time>2015-06-07T07:32:04Z</time>
      </trkpt>
      <trkpt lat="47.87328" lon="-1.68856">
        <ele>36</ele>
        <time>2015-06-07T07:32:05Z</time>
      </trkpt>
      <trkpt lat="47.87331" lon="-1.68855">
        <ele>36</ele>
        <time>2015-06-07T07:32:06Z</time>
      </trkpt>
      <trkpt lat="47.87335" lon="-1.68855">
        <ele>36</ele>
        <time>2015-06-07T07:32:07Z</time>
      </trkpt>
      <trkpt lat="47.87338" lon="-1.68855">
        <ele>37</ele>
        <time>2015-06-07T07:32:08Z</time>
      </trkpt>
      <trkpt lat="47.87342" lon="-1.68854">
        <ele>37</ele>
        <time>2015-06-07T07:32:09Z</time>
      </trkpt>
      <trkpt lat="47.87345" lon="-1.68853">
        <ele>37</ele>
        <time>2015-06-07T07:32:10Z</time>
      </trkpt>
      <trkpt lat="47.87349" lon="-1.68853">
        <ele>37</ele>
        <time>2015-06-07T07:32:11Z</time>
      </trkpt>
      <trkpt lat="47.87353" lon="-1.68852">
        <ele>37</ele>
        <time>2015-06-07T07:32:12Z</time>
      </trkpt>
      <trkpt lat="47.87356" lon="-1.68851">
        <ele>38</ele>
        <time>2015-06-07T07:32:13Z</time>
      </trkpt>
      <trkpt lat="47.8736" lon="-1.6885">
        <ele>38</ele>
        <time>2015-06-07T07:32:14Z</time>
      </trkpt>
      <trkpt lat="47.87363" lon="-1.68848">
        <ele>38</ele>
        <time>2015-06-07T07:32:15Z</time>
      </trkpt>
      <trkpt lat="47.87367" lon="-1.68847">
        <ele>38</ele>
        <time>2015-06-07T07:32:16Z</time>
      </trkpt>
      <trkpt lat="47.8737" lon="-1.68846">
        <ele>38</ele>
        <time>2015-06-07T07:32:17Z</time>
      </trkpt>
      <trkpt lat="47.87374" lon="-1.68844">
        <ele>39</ele>
        <time>2015-06-07T07:32:18Z</time>
      </trkpt>
      <trkpt lat="47.87377" lon="-1.68843">
        <ele>39</ele>
        <time>2015-06-07T07:32:19Z</time>
      </trkpt>
      <trkpt lat="47.87381" lon="-1.68841">
        <ele>39</ele>
        <time>2015-06-07T07:32:20Z</time>
      </trkpt>
      <trkpt lat="47.87384" lon="-1.6884">
        <ele>39</ele>
        <time>2015-06-07T07:32:21Z</time>
      </trkpt>
      <trkpt lat="47.87387" lon="-1.68838">
        <ele>39</ele>
        <time>2015-06-07T07:32:22Z</time>
      </trkpt>
      <trkpt lat="47.87391" lon="-1.68836">
        <ele>40</ele>
        <time>2015-06-07T07:32:23Z</time>
      </trkpt>
      <trkpt lat="47.87394" lon="-1.68834">
        <ele>40</ele>
        <time>2015-06-07T07:32:24Z</time>
      </trkpt>
      <trkpt lat="47.87398" lon="-1.68833">
        <ele>40</ele>
        <time>2015-06-07T07:32:25Z</time>
      </trkpt>
      <trkpt lat="47.87401" lon="-1.68832">
        <ele>40</ele>
        <time>2015-06-07T07:32:26Z</time>
      </trkpt>
      <trkpt lat="47.87405" lon="-1.6883">
        <ele>41</ele>
        <time>2015-06-07T07:32:27Z</time>
      </trkpt>
      <trkpt lat="47.87408" lon="-1.68829">
        <ele>41</ele>
        <time>2015-06-07T07:32:28Z</time>
      </trkpt>
      <trkpt lat="47.87412" lon="-1.68827">
        <ele>41</ele>
        <time>2015-06-07T07:32:29Z</time>
      </trkpt>
      <trkpt lat="47.87415" lon="-1.68826">
        <ele>41</ele>
        <time>2015-06-07T07:32:30Z</time>
      </trkpt>
      <trkpt lat="47.87419" lon="-1.68824">
        <ele>41</ele>
        <time>2015-06-07T07:32:31Z</time>
      </trkpt>
      <trkpt lat="47.87422" lon="-1.68822">
        <ele>42</ele>
        <time>2015-06-07T07:32:32Z</time>
      </trkpt>
      <trkpt lat="47.87426" lon="-1.68821">
        <ele>42</ele>
        <time>2015-06-07T07:32:33Z</time>
      </trkpt>
      <trkpt lat="47.87429" lon="-1.68819">
        <ele>42</ele>
        <time>2015-06-07T07:32:34Z</time>
      </trkpt>
      <trkpt lat="47.87433" lon="-1.68817">
        <ele>42</ele>
        <time>2015-06-07T07:32:35Z</time>
      </trkpt>
      <trkpt lat="47.87436" lon="-1.68816">
        <ele>43</ele>
        <time>2015-06-07T07:32:36Z</time>
      </trkpt>
      <trkpt lat="47.8744" lon="-1.68814">
        <ele>43</ele>
        <time>2015-06-07T07:32:37Z</time>
      </trkpt>
      <trkpt lat="47.87443" lon="-1.68813">
        <ele>43</ele>
        <time>2015-06-07T07:32:38Z</time>
      </trkpt>
      <trkpt lat="47.87447" lon="-1.68811">
        <ele>43</ele>
        <time>2015-06-07T07:32:39Z</time>
      </trkpt>
      <trkpt lat="47.8745" lon="-1.68809">
        <ele>43</ele>
        <time>2015-06-07T07:32:40Z</time>
      </trkpt>
      <trkpt lat="47.87454" lon="-1.68808">
        <ele>44</ele>
        <time>2015-06-07T07:32:41Z</time>
      </trkpt>
      <trkpt lat="47.87457" lon="-1.68806">
        <ele>44</ele>
        <time>2015-06-07T07:32:42Z</time>
      </trkpt>
      <trkpt lat="47.87461" lon="-1.68804">
        <ele>44</ele>
        <time>2015-06-07T07:32:43Z</time>
      </trkpt>
      <trkpt lat="47.87465" lon="-1.68803">
        <ele>44</ele>
        <time>2015-06-07T07:32:44Z</time>
      </trkpt>
      <trkpt lat="47.87468" lon="-1.68801">
        <ele>44</ele>
        <time>2015-06-07T07:32:45Z</time>
      </trkpt>
      <trkpt lat="47.87472" lon="-1.688">
        <ele>44</ele>
        <time>2015-06-07T07:32:46Z</time>
      </trkpt>
      <trkpt lat="47.87475" lon="-1.68798">
        <ele>45</ele>
        <time>2015-06-07T07:32:47Z</time>
      </trkpt>
      <trkpt lat="47.87479" lon="-1.68797">
        <ele>45</ele>
        <time>2015-06-07T07:32:48Z</time>
      </trkpt>
      <trkpt lat="47.87483" lon="-1.68795">
        <ele>45</ele>
        <time>2015-06-07T07:32:49Z</time>
      </trkpt>
      <trkpt lat="47.87486" lon="-1.68794">
        <ele>45</ele>
        <time>2015-06-07T07:32:50Z</time>
      </trkpt>
      <trkpt lat="47.8749" lon="-1.68792">
        <ele>45</ele>
        <time>2015-06-07T07:32:51Z</time>
      </trkpt>
      <trkpt lat="47.87493" lon="-1.6879">
        <ele>45</ele>
        <time>2015-06-07T07:32:52Z</time>
      </trkpt>
      <trkpt lat="47.87496" lon="-1.68789">
        <ele>45</ele>
        <time>2015-06-07T07:32:53Z</time>
      </trkpt>
      <trkpt lat="47.875" lon="-1.68787">
        <ele>46</ele>
        <time>2015-06-07T07:32:54Z</time>
      </trkpt>
      <trkpt lat="47.87504" lon="-1.68786">
        <ele>46</ele>
        <time>2015-06-07T07:32:55Z</time>
      </trkpt>
      <trkpt lat="47.87507" lon="-1.68784">
        <ele>46</ele>
        <time>2015-06-07T07:32:56Z</time>
      </trkpt>
      <trkpt lat="47.8751" lon="-1.68783">
        <ele>46</ele>
        <time>2015-06-07T07:32:57Z</time>
      </trkpt>
      <trkpt lat="47.87513" lon="-1.68781">
        <ele>47</ele>
        <time>2015-06-07T07:32:58Z</time>
      </trkpt>
      <trkpt lat="47.87517" lon="-1.6878">
        <ele>47</ele>
        <time>2015-06-07T07:32:59Z</time>
      </trkpt>
      <trkpt lat="47.8752" lon="-1.68779">
        <ele>47</ele>
        <time>2015-06-07T07:33:00Z</time>
      </trkpt>
      <trkpt lat="47.87523" lon="-1.68778">
        <ele>48</ele>
        <time>2015-06-07T07:33:01Z</time>
      </trkpt>
      <trkpt lat="47.87526" lon="-1.68777">
        <ele>48</ele>
        <time>2015-06-07T07:33:02Z</time>
      </trkpt>
      <trkpt lat="47.8753" lon="-1.68775">
        <ele>48</ele>
        <time>2015-06-07T07:33:03Z</time>
      </trkpt>
      <trkpt lat="47.87533" lon="-1.68775">
        <ele>49</ele>
        <time>2015-06-07T07:33:04Z</time>
      </trkpt>
      <trkpt lat="47.87536" lon="-1.68775">
        <ele>49</ele>
        <time>2015-06-07T07:33:05Z</time>
      </trkpt>
      <trkpt lat="47.8754" lon="-1.68776">
        <ele>49</ele>
        <time>2015-06-07T07:33:06Z</time>
      </trkpt>
      <trkpt lat="47.87542" lon="-1.68777">
        <ele>50</ele>
        <time>2015-06-07T07:33:07Z</time>
      </trkpt>
      <trkpt lat="47.87545" lon="-1.68781">
        <ele>50</ele>
        <time>2015-06-07T07:33:08Z</time>
      </trkpt>
      <trkpt lat="47.87547" lon="-1.68784">
        <ele>50</ele>
        <time>2015-06-07T07:33:09Z</time>
      </trkpt>
      <trkpt lat="47.87549" lon="-1.68789">
        <ele>50</ele>
        <time>2015-06-07T07:33:10Z</time>
      </trkpt>
      <trkpt lat="47.8755" lon="-1.68793">
        <ele>51</ele>
        <time>2015-06-07T07:33:11Z</time>
      </trkpt>
      <trkpt lat="47.87551" lon="-1.68798">
        <ele>51</ele>
        <time>2015-06-07T07:33:12Z</time>
      </trkpt>
      <trkpt lat="47.87553" lon="-1.68803">
        <ele>51</ele>
        <time>2015-06-07T07:33:13Z</time>
      </trkpt>
      <trkpt lat="47.87554" lon="-1.68808">
        <ele>51</ele>
        <time>2015-06-07T07:33:14Z</time>
      </trkpt>
      <trkpt lat="47.87555" lon="-1.68813">
        <ele>51</ele>
        <time>2015-06-07T07:33:15Z</time>
      </trkpt>
      <trkpt lat="47.87556" lon="-1.68819">
        <ele>52</ele>
        <time>2015-06-07T07:33:16Z</time>
      </trkpt>
      <trkpt lat="47.87557" lon="-1.68824">
        <ele>52</ele>
        <time>2015-06-07T07:33:17Z</time>
      </trkpt>
      <trkpt lat="47.87558" lon="-1.68829">
        <ele>52</ele>
        <time>2015-06-07T07:33:18Z</time>
      </trkpt>
      <trkpt lat="47.87559" lon="-1.68835">
        <ele>52</ele>
        <time>2015-06-07T07:33:19Z</time>
      </trkpt>
      <trkpt lat="47.8756" lon="-1.6884">
        <ele>52</ele>
        <time>2015-06-07T07:33:20Z</time>
      </trkpt>
      <trkpt lat="47.8756" lon="-1.68846">
        <ele>52</ele>
        <time>2015-06-07T07:33:21Z</time>
      </trkpt>
      <trkpt lat="47.87561" lon="-1.68851">
        <ele>52</ele>
        <time>2015-06-07T07:33:22Z</time>
      </trkpt>
      <trkpt lat="47.87562" lon="-1.68857">
        <ele>53</ele>
        <time>2015-06-07T07:33:23Z</time>
      </trkpt>
      <trkpt lat="47.87563" lon="-1.68862">
        <ele>53</ele>
        <time>2015-06-07T07:33:24Z</time>
      </trkpt>
      <trkpt lat="47.87563" lon="-1.68868">
        <ele>53</ele>
        <time>2015-06-07T07:33:25Z</time>
      </trkpt>
      <trkpt lat="47.87564" lon="-1.68874">
        <ele>53</ele>
        <time>2015-06-07T07:33:26Z</time>
      </trkpt>
      <trkpt lat="47.87565" lon="-1.68879">
        <ele>53</ele>
        <time>2015-06-07T07:33:27Z</time>
      </trkpt>
      <trkpt lat="47.87565" lon="-1.68885">
        <ele>53</ele>
        <time>2015-06-07T07:33:28Z</time>
      </trkpt>
      <trkpt lat="47.87566" lon="-1.6889">
        <ele>53</ele>
        <time>2015-06-07T07:33:29Z</time>
      </trkpt>
      <trkpt lat="47.87567" lon="-1.68896">
        <ele>53</ele>
        <time>2015-06-07T07:33:30Z</time>
      </trkpt>
      <trkpt lat="47.87568" lon="-1.68902">
        <ele>54</ele>
        <time>2015-06-07T07:33:31Z</time>
      </trkpt>
      <trkpt lat="47.87569" lon="-1.68908">
        <ele>54</ele>
        <time>2015-06-07T07:33:32Z</time>
      </trkpt>
      <trkpt lat="47.8757" lon="-1.68915">
        <ele>54</ele>
        <time>2015-06-07T07:33:33Z</time>
      </trkpt>
      <trkpt lat="47.8757" lon="-1.68921">
        <ele>54</ele>
        <time>2015-06-07T07:33:34Z</time>
      </trkpt>
      <trkpt lat="47.87571" lon="-1.68927">
        <ele>54</ele>
        <time>2015-06-07T07:33:35Z</time>
      </trkpt>
      <trkpt lat="47.87572" lon="-1.68934">
        <ele>54</ele>
        <time>2015-06-07T07:33:36Z</time>
      </trkpt>
      <trkpt lat="47.87573" lon="-1.6894">
        <ele>54</ele>
        <time>2015-06-07T07:33:37Z</time>
      </trkpt>
      <trkpt lat="47.87574" lon="-1.68947">
        <ele>54</ele>
        <time>2015-06-07T07:33:38Z</time>
      </trkpt>
      <trkpt lat="47.87575" lon="-1.68954">
        <ele>54</ele>
        <time>2015-06-07T07:33:39Z</time>
      </trkpt>
      <trkpt lat="47.87576" lon="-1.68962">
        <ele>54</ele>
        <time>2015-06-07T07:33:40Z</time>
      </trkpt>
      <trkpt lat="47.87577" lon="-1.68969">
        <ele>54</ele>
        <time>2015-06-07T07:33:41Z</time>
      </trkpt>
      <trkpt lat="47.87578" lon="-1.68977">
        <ele>54</ele>
        <time>2015-06-07T07:33:42Z</time>
      </trkpt>
      <trkpt lat="47.87579" lon="-1.68984">
        <ele>54</ele>
        <time>2015-06-07T07:33:43Z</time>
      </trkpt>
      <trkpt lat="47.8758" lon="-1.68992">
        <ele>54</ele>
        <time>2015-06-07T07:33:44Z</time>
      </trkpt>
      <trkpt lat="47.87581" lon="-1.69">
        <ele>54</ele>
        <time>2015-06-07T07:33:45Z</time>
      </trkpt>
      <trkpt lat="47.87582" lon="-1.69007">
        <ele>54</ele>
        <time>2015-06-07T07:33:46Z</time>
      </trkpt>
      <trkpt lat="47.87583" lon="-1.69015">
        <ele>54</ele>
        <time>2015-06-07T07:33:47Z</time>
      </trkpt>
      <trkpt lat="47.87584" lon="-1.69023">
        <ele>54</ele>
        <time>2015-06-07T07:33:48Z</time>
      </trkpt>
      <trkpt lat="47.87585" lon="-1.6903">
        <ele>54</ele>
        <time>2015-06-07T07:33:49Z</time>
      </trkpt>
      <trkpt lat="47.87586" lon="-1.69038">
        <ele>54</ele>
        <time>2015-06-07T07:33:50Z</time>
      </trkpt>
      <trkpt lat="47.87587" lon="-1.69046">
        <ele>53</ele>
        <time>2015-06-07T07:33:51Z</time>
      </trkpt>
      <trkpt lat="47.87588" lon="-1.69054">
        <ele>53</ele>
        <time>2015-06-07T07:33:52Z</time>
      </trkpt>
      <trkpt lat="47.87589" lon="-1.69062">
        <ele>53</ele>
        <time>2015-06-07T07:33:53Z</time>
      </trkpt>
      <trkpt lat="47.8759" lon="-1.6907">
        <ele>53</ele>
        <time>2015-06-07T07:33:54Z</time>
      </trkpt>
      <trkpt lat="47.87591" lon="-1.69078">
        <ele>53</ele>
        <time>2015-06-07T07:33:55Z</time>
      </trkpt>
      <trkpt lat="47.87593" lon="-1.69086">
        <ele>53</ele>
        <time>2015-06-07T07:33:56Z</time>
      </trkpt>
      <trkpt lat="47.87594" lon="-1.69095">
        <ele>53</ele>
        <time>2015-06-07T07:33:57Z</time>
      </trkpt>
      <trkpt lat="47.87596" lon="-1.69102">
        <ele>53</ele>
        <time>2015-06-07T07:33:58Z</time>
      </trkpt>
      <trkpt lat="47.87597" lon="-1.6911">
        <ele>52</ele>
        <time>2015-06-07T07:33:59Z</time>
      </trkpt>
      <trkpt lat="47.87599" lon="-1.69118">
        <ele>52</ele>
        <time>2015-06-07T07:34:00Z</time>
      </trkpt>
      <trkpt lat="47.876" lon="-1.69125">
        <ele>52</ele>
        <time>2015-06-07T07:34:01Z</time>
      </trkpt>
      <trkpt lat="47.87602" lon="-1.69133">
        <ele>52</ele>
        <time>2015-06-07T07:34:02Z</time>
      </trkpt>
      <trkpt lat="47.87603" lon="-1.69141">
        <ele>52</ele>
        <time>2015-06-07T07:34:03Z</time>
      </trkpt>
      <trkpt lat="47.87604" lon="-1.69148">
        <ele>52</ele>
        <time>2015-06-07T07:34:04Z</time>
      </trkpt>
      <trkpt lat="47.87604" lon="-1.69155">
        <ele>51</ele>
        <time>2015-06-07T07:34:05Z</time>
      </trkpt>
      <trkpt lat="47.87605" lon="-1.69163">
        <ele>51</ele>
        <time>2015-06-07T07:34:06Z</time>
      </trkpt>
      <trkpt lat="47.87605" lon="-1.6917">
        <ele>51</ele>
        <time>2015-06-07T07:34:07Z</time>
      </trkpt>
      <trkpt lat="47.87605" lon="-1.69177">
        <ele>51</ele>
        <time>2015-06-07T07:34:08Z</time>
      </trkpt>
      <trkpt lat="47.87605" lon="-1.69183">
        <ele>51</ele>
        <time>2015-06-07T07:34:09Z</time>
      </trkpt>
      <trkpt lat="47.87606" lon="-1.6919">
        <ele>51</ele>
        <time>2015-06-07T07:34:10Z</time>
      </trkpt>
      <trkpt lat="47.87606" lon="-1.69196">
        <ele>51</ele>
        <time>2015-06-07T07:34:11Z</time>
      </trkpt>
      <trkpt lat="47.87606" lon="-1.69202">
        <ele>51</ele>
        <time>2015-06-07T07:34:12Z</time>
      </trkpt>
      <trkpt lat="47.87606" lon="-1.69208">
        <ele>51</ele>
        <time>2015-06-07T07:34:13Z</time>
      </trkpt>
      <trkpt lat="47.87606" lon="-1.69214">
        <ele>51</ele>
        <time>2015-06-07T07:34:14Z</time>
      </trkpt>
      <trkpt lat="47.87607" lon="-1.6922">
        <ele>51</ele>
        <time>2015-06-07T07:34:15Z</time>
      </trkpt>
      <trkpt lat="47.87607" lon="-1.69226">
        <ele>51</ele>
        <time>2015-06-07T07:34:16Z</time>
      </trkpt>
      <trkpt lat="47.87608" lon="-1.69232">
        <ele>51</ele>
        <time>2015-06-07T07:34:17Z</time>
      </trkpt>
      <trkpt lat="47.87609" lon="-1.69238">
        <ele>51</ele>
        <time>2015-06-07T07:34:18Z</time>
      </trkpt>
      <trkpt lat="47.87609" lon="-1.69243">
        <ele>51</ele>
        <time>2015-06-07T07:34:19Z</time>
      </trkpt>
      <trkpt lat="47.8761" lon="-1.69249">
        <ele>51</ele>
        <time>2015-06-07T07:34:20Z</time>
      </trkpt>
      <trkpt lat="47.8761" lon="-1.69254">
        <ele>51</ele>
        <time>2015-06-07T07:34:21Z</time>
      </trkpt>
      <trkpt lat="47.87612" lon="-1.69257">
        <ele>51</ele>
        <time>2015-06-07T07:34:22Z</time>
      </trkpt>
      <trkpt lat="47.87614" lon="-1.69258">
        <ele>51</ele>
        <time>2015-06-07T07:34:23Z</time>
      </trkpt>
      <trkpt lat="47.87617" lon="-1.69257">
        <ele>52</ele>
        <time>2015-06-07T07:34:24Z</time>
      </trkpt>
      <trkpt lat="47.87619" lon="-1.69255">
        <ele>52</ele>
        <time>2015-06-07T07:34:25Z</time>
      </trkpt>
      <trkpt lat="47.8762" lon="-1.69253">
        <ele>52</ele>
        <time>2015-06-07T07:34:26Z</time>
      </trkpt>
      <trkpt lat="47.87621" lon="-1.69252">
        <ele>52</ele>
        <time>2015-06-07T07:34:27Z</time>
      </trkpt>
      <trkpt lat="47.87621" lon="-1.69251">
        <ele>52</ele>
        <time>2015-06-07T07:34:28Z</time>
      </trkpt>
      <trkpt lat="47.87622" lon="-1.6925">
        <ele>52</ele>
        <time>2015-06-07T07:34:29Z</time>
      </trkpt>
      <trkpt lat="47.87622" lon="-1.69249">
        <ele>52</ele>
        <time>2015-06-07T07:34:30Z</time>
      </trkpt>
      <trkpt lat="47.87623" lon="-1.69249">
        <ele>52</ele>
        <time>2015-06-07T07:34:31Z</time>
      </trkpt>
      <trkpt lat="47.87623" lon="-1.69249">
        <ele>52</ele>
        <time>2015-06-07T07:34:32Z</time>
      </trkpt>
      <trkpt lat="47.87623" lon="-1.69249">
        <ele>52</ele>
        <time>2015-06-07T07:34:33Z</time>
      </trkpt>
      <trkpt lat="47.87623" lon="-1.69249">
        <ele>52</ele>
        <time>2015-06-07T07:34:34Z</time>
      </trkpt>
      <trkpt lat="47.87623" lon="-1.69249">
        <ele>52</ele>
        <time>2015-06-07T07:34:35Z</time>
      </trkpt>
      <trkpt lat="47.87626" lon="-1.69242">
        <ele>52</ele>
        <time>2015-06-07T07:34:36Z</time>
      </trkpt>
      <trkpt lat="47.87626" lon="-1.69243">
        <ele>52</ele>
        <time>2015-06-07T07:34:37Z</time>
      </trkpt>
      <trkpt lat="47.87626" lon="-1.69243">
        <ele>52</ele>
        <time>2015-06-07T07:34:38Z</time>
      </trkpt>
      <trkpt lat="47.87626" lon="-1.69243">
        <ele>52</ele>
        <time>2015-06-07T07:34:39Z</time>
      </trkpt>
      <trkpt lat="47.87626" lon="-1.69243">
        <ele>52</ele>
        <time>2015-06-07T07:34:40Z</time>
      </trkpt>
      <trkpt lat="47.87626" lon="-1.69243">
        <ele>52</ele>
        <time>2015-06-07T07:34:41Z</time>
      </trkpt>
      <trkpt lat="47.87626" lon="-1.69243">
        <ele>52</ele>
        <time>2015-06-07T07:34:42Z</time>
      </trkpt>
      <trkpt lat="47.87626" lon="-1.69243">
        <ele>52</ele>
        <time>2015-06-07T07:34:43Z</time>
      </trkpt>
      <trkpt lat="47.87626" lon="-1.69243">
        <ele>52</ele>
        <time>2015-06-07T07:34:44Z</time>
      </trkpt>
      <trkpt lat="47.87622" lon="-1.69249">
        <ele>52</ele>
        <time>2015-06-07T07:34:45Z</time>
      </trkpt>
      <trkpt lat="47.87621" lon="-1.69251">
        <ele>52</ele>
        <time>2015-06-07T07:34:46Z</time>
      </trkpt>
      <trkpt lat="47.87619" lon="-1.69252">
        <ele>52</ele>
        <time>2015-06-07T07:34:47Z</time>
      </trkpt>
      <trkpt lat="47.87618" lon="-1.69253">
        <ele>52</ele>
        <time>2015-06-07T07:34:48Z</time>
      </trkpt>
      <trkpt lat="47.87616" lon="-1.69254">
        <ele>52</ele>
        <time>2015-06-07T07:34:49Z</time>
      </trkpt>
      <trkpt lat="47.87614" lon="-1.69256">
        <ele>52</ele>
        <time>2015-06-07T07:34:50Z</time>
      </trkpt>
      <trkpt lat="47.87613" lon="-1.69258">
        <ele>52</ele>
        <time>2015-06-07T07:34:51Z</time>
      </trkpt>
      <trkpt lat="47.87611" lon="-1.69262">
        <ele>52</ele>
        <time>2015-06-07T07:34:52Z</time>
      </trkpt>
      <trkpt lat="47.8761" lon="-1.69266">
        <ele>52</ele>
        <time>2015-06-07T07:34:53Z</time>
      </trkpt>
      <trkpt lat="47.8761" lon="-1.6927">
        <ele>52</ele>
        <time>2015-06-07T07:34:54Z</time>
      </trkpt>
      <trkpt lat="47.8761" lon="-1.69276">
        <ele>52</ele>
        <time>2015-06-07T07:34:55Z</time>
      </trkpt>
      <trkpt lat="47.87609" lon="-1.69281">
        <ele>52</ele>
        <time>2015-06-07T07:34:56Z</time>
      </trkpt>
      <trkpt lat="47.87609" lon="-1.69286">
        <ele>52</ele>
        <time>2015-06-07T07:34:57Z</time>
      </trkpt>
      <trkpt lat="47.87608" lon="-1.69291">
        <ele>52</ele>
        <time>2015-06-07T07:34:58Z</time>
      </trkpt>
      <trkpt lat="47.87607" lon="-1.69297">
        <ele>52</ele>
        <time>2015-06-07T07:34:59Z</time>
      </trkpt>
      <trkpt lat="47.87607" lon="-1.69302">
        <ele>52</ele>
        <time>2015-06-07T07:35:00Z</time>
      </trkpt>
      <trkpt lat="47.87605" lon="-1.69308">
        <ele>52</ele>
        <time>2015-06-07T07:35:01Z</time>
      </trkpt>
      <trkpt lat="47.87604" lon="-1.69314">
        <ele>52</ele>
        <time>2015-06-07T07:35:02Z</time>
      </trkpt>
      <trkpt lat="47.87603" lon="-1.69319">
        <ele>52</ele>
        <time>2015-06-07T07:35:03Z</time>
      </trkpt>
      <trkpt lat="47.87602" lon="-1.69325">
        <ele>52</ele>
        <time>2015-06-07T07:35:04Z</time>
      </trkpt>
      <trkpt lat="47.876" lon="-1.69332">
        <ele>52</ele>
        <time>2015-06-07T07:35:05Z</time>
      </trkpt>
      <trkpt lat="47.87599" lon="-1.69338">
        <ele>51</ele>
        <time>2015-06-07T07:35:06Z</time>
      </trkpt>
      <trkpt lat="47.87598" lon="-1.69345">
        <ele>51</ele>
        <time>2015-06-07T07:35:07Z</time>
      </trkpt>
      <trkpt lat="47.87597" lon="-1.69351">
        <ele>51</ele>
        <time>2015-06-07T07:35:08Z</time>
      </trkpt>
      <trkpt lat="47.87595" lon="-1.69357">
        <ele>51</ele>
        <time>2015-06-07T07:35:09Z</time>
      </trkpt>
      <trkpt lat="47.87593" lon="-1.69364">
        <ele>51</ele>
        <time>2015-06-07T07:35:10Z</time>
      </trkpt>
      <trkpt lat="47.87592" lon="-1.6937">
        <ele>51</ele>
        <time>2015-06-07T07:35:11Z</time>
      </trkpt>
      <trkpt lat="47.8759" lon="-1.69376">
        <ele>51</ele>
        <time>2015-06-07T07:35:12Z</time>
      </trkpt>
      <trkpt lat="47.87589" lon="-1.69383">
        <ele>51</ele>
        <time>2015-06-07T07:35:13Z</time>
      </trkpt>
      <trkpt lat="47.87587" lon="-1.69389">
        <ele>51</ele>
        <time>2015-06-07T07:35:14Z</time>
      </trkpt>
      <trkpt lat="47.87586" lon="-1.69395">
        <ele>51</ele>
        <time>2015-06-07T07:35:15Z</time>
      </trkpt>
      <trkpt lat="47.87584" lon="-1.69401">
        <ele>51</ele>
        <time>2015-06-07T07:35:16Z</time>
      </trkpt>
      <trkpt lat="47.87582" lon="-1.69407">
        <ele>51</ele>
        <time>2015-06-07T07:35:17Z</time>
      </trkpt>
      <trkpt lat="47.87579" lon="-1.69413">
        <ele>51</ele>
        <time>2015-06-07T07:35:18Z</time>
      </trkpt>
      <trkpt lat="47.87577" lon="-1.69419">
        <ele>51</ele>
        <time>2015-06-07T07:35:19Z</time>
      </trkpt>
      <trkpt lat="47.87574" lon="-1.69425">
        <ele>51</ele>
        <time>2015-06-07T07:35:20Z</time>
      </trkpt>
      <trkpt lat="47.8757" lon="-1.6943">
        <ele>51</ele>
        <time>2015-06-07T07:35:21Z</time>
      </trkpt>
      <trkpt lat="47.87567" lon="-1.69435">
        <ele>51</ele>
        <time>2015-06-07T07:35:22Z</time>
      </trkpt>
      <trkpt lat="47.87563" lon="-1.6944">
        <ele>51</ele>
        <time>2015-06-07T07:35:23Z</time>
      </trkpt>
      <trkpt lat="47.8756" lon="-1.69444">
        <ele>51</ele>
        <time>2015-06-07T07:35:24Z</time>
      </trkpt>
      <trkpt lat="47.87556" lon="-1.69449">
        <ele>51</ele>
        <time>2015-06-07T07:35:25Z</time>
      </trkpt>
      <trkpt lat="47.87553" lon="-1.69454">
        <ele>51</ele>
        <time>2015-06-07T07:35:26Z</time>
      </trkpt>
      <trkpt lat="47.87549" lon="-1.69459">
        <ele>51</ele>
        <time>2015-06-07T07:35:27Z</time>
      </trkpt>
      <trkpt lat="47.87546" lon="-1.69464">
        <ele>51</ele>
        <time>2015-06-07T07:35:28Z</time>
      </trkpt>
      <trkpt lat="47.87543" lon="-1.69469">
        <ele>51</ele>
        <time>2015-06-07T07:35:29Z</time>
      </trkpt>
      <trkpt lat="47.8754" lon="-1.69474">
        <ele>51</ele>
        <time>2015-06-07T07:35:30Z</time>
      </trkpt>
      <trkpt lat="47.87537" lon="-1.6948">
        <ele>51</ele>
        <time>2015-06-07T07:35:31Z</time>
      </trkpt>
      <trkpt lat="47.87535" lon="-1.69485">
        <ele>51</ele>
        <time>2015-06-07T07:35:32Z</time>
      </trkpt>
      <trkpt lat="47.87532" lon="-1.69491">
        <ele>51</ele>
        <time>2015-06-07T07:35:33Z</time>
      </trkpt>
      <trkpt lat="47.8753" lon="-1.69496">
        <ele>51</ele>
        <time>2015-06-07T07:35:34Z</time>
      </trkpt>
      <trkpt lat="47.87529" lon="-1.69502">
        <ele>51</ele>
        <time>2015-06-07T07:35:35Z</time>
      </trkpt>
      <trkpt lat="47.87527" lon="-1.69507">
        <ele>51</ele>
        <time>2015-06-07T07:35:36Z</time>
      </trkpt>
      <trkpt lat="47.87526" lon="-1.69513">
        <ele>51</ele>
        <time>2015-06-07T07:35:37Z</time>
      </trkpt>
      <trkpt lat="47.87525" lon="-1.69519">
        <ele>51</ele>
        <time>2015-06-07T07:35:38Z</time>
      </trkpt>
      <trkpt lat="47.87524" lon="-1.69525">
        <ele>51</ele>
        <time>2015-06-07T07:35:39Z</time>
      </trkpt>
      <trkpt lat="47.87523" lon="-1.69532">
        <ele>51</ele>
        <time>2015-06-07T07:35:40Z</time>
      </trkpt>
      <trkpt lat="47.87522" lon="-1.69538">
        <ele>51</ele>
        <time>2015-06-07T07:35:41Z</time>
      </trkpt>
      <trkpt lat="47.87521" lon="-1.69545">
        <ele>51</ele>
        <time>2015-06-07T07:35:42Z</time>
      </trkpt>
      <trkpt lat="47.87519" lon="-1.69551">
        <ele>51</ele>
        <time>2015-06-07T07:35:43Z</time>
      </trkpt>
      <trkpt lat="47.87518" lon="-1.69557">
        <ele>51</ele>
        <time>2015-06-07T07:35:44Z</time>
      </trkpt>
      <trkpt lat="47.87517" lon="-1.69564">
        <ele>51</ele>
        <time>2015-06-07T07:35:45Z</time>
      </trkpt>
      <trkpt lat="47.87516" lon="-1.6957">
        <ele>51</ele>
        <time>2015-06-07T07:35:46Z</time>
      </trkpt>
      <trkpt lat="47.87514" lon="-1.69576">
        <ele>51</ele>
        <time>2015-06-07T07:35:47Z</time>
      </trkpt>
      <trkpt lat="47.87513" lon="-1.69583">
        <ele>51</ele>
        <time>2015-06-07T07:35:48Z</time>
      </trkpt>
      <trkpt lat="47.87512" lon="-1.69589">
        <ele>51</ele>
        <time>2015-06-07T07:35:49Z</time>
      </trkpt>
      <trkpt lat="47.87511" lon="-1.69596">
        <ele>51</ele>
        <time>2015-06-07T07:35:50Z</time>
      </trkpt>
      <trkpt lat="47.87509" lon="-1.69602">
        <ele>52</ele>
        <time>2015-06-07T07:35:51Z</time>
      </trkpt>
      <trkpt lat="47.87508" lon="-1.69608">
        <ele>52</ele>
        <time>2015-06-07T07:35:52Z</time>
      </trkpt>
      <trkpt lat="47.87507" lon="-1.69614">
        <ele>52</ele>
        <time>2015-06-07T07:35:53Z</time>
      </trkpt>
      <trkpt lat="47.87505" lon="-1.6962">
        <ele>52</ele>
        <time>2015-06-07T07:35:54Z</time>
      </trkpt>
      <trkpt lat="47.87504" lon="-1.69626">
        <ele>52</ele>
        <time>2015-06-07T07:35:55Z</time>
      </trkpt>
      <trkpt lat="47.87503" lon="-1.69633">
        <ele>52</ele>
        <time>2015-06-07T07:35:56Z</time>
      </trkpt>
      <trkpt lat="47.87501" lon="-1.69639">
        <ele>52</ele>
        <time>2015-06-07T07:35:57Z</time>
      </trkpt>
      <trkpt lat="47.875" lon="-1.69645">
        <ele>52</ele>
        <time>2015-06-07T07:35:58Z</time>
      </trkpt>
      <trkpt lat="47.87498" lon="-1.69651">
        <ele>52</ele>
        <time>2015-06-07T07:35:59Z</time>
      </trkpt>
      <trkpt lat="47.87496" lon="-1.69658">
        <ele>52</ele>
        <time>2015-06-07T07:36:00Z</time>
      </trkpt>
      <trkpt lat="47.87495" lon="-1.69664">
        <ele>52</ele>
        <time>2015-06-07T07:36:01Z</time>
      </trkpt>
      <trkpt lat="47.87493" lon="-1.6967">
        <ele>53</ele>
        <time>2015-06-07T07:36:02Z</time>
      </trkpt>
      <trkpt lat="47.87492" lon="-1.69676">
        <ele>53</ele>
        <time>2015-06-07T07:36:03Z</time>
      </trkpt>
      <trkpt lat="47.8749" lon="-1.69682">
        <ele>53</ele>
        <time>2015-06-07T07:36:04Z</time>
      </trkpt>
      <trkpt lat="47.87488" lon="-1.69687">
        <ele>53</ele>
        <time>2015-06-07T07:36:05Z</time>
      </trkpt>
      <trkpt lat="47.87485" lon="-1.69691">
        <ele>53</ele>
        <time>2015-06-07T07:36:06Z</time>
      </trkpt>
      <trkpt lat="47.87482" lon="-1.69695">
        <ele>53</ele>
        <time>2015-06-07T07:36:07Z</time>
      </trkpt>
      <trkpt lat="47.87479" lon="-1.69698">
        <ele>53</ele>
        <time>2015-06-07T07:36:08Z</time>
      </trkpt>
      <trkpt lat="47.87475" lon="-1.697">
        <ele>53</ele>
        <time>2015-06-07T07:36:09Z</time>
      </trkpt>
      <trkpt lat="47.87472" lon="-1.69703">
        <ele>54</ele>
        <time>2015-06-07T07:36:10Z</time>
      </trkpt>
      <trkpt lat="47.87468" lon="-1.69705">
        <ele>54</ele>
        <time>2015-06-07T07:36:11Z</time>
      </trkpt>
      <trkpt lat="47.87464" lon="-1.69708">
        <ele>54</ele>
        <time>2015-06-07T07:36:12Z</time>
      </trkpt>
      <trkpt lat="47.8746" lon="-1.69712">
        <ele>54</ele>
        <time>2015-06-07T07:36:13Z</time>
      </trkpt>
      <trkpt lat="47.87458" lon="-1.69717">
        <ele>54</ele>
        <time>2015-06-07T07:36:14Z</time>
      </trkpt>
      <trkpt lat="47.87456" lon="-1.69723">
        <ele>54</ele>
        <time>2015-06-07T07:36:15Z</time>
      </trkpt>
      <trkpt lat="47.87455" lon="-1.69729">
        <ele>54</ele>
        <time>2015-06-07T07:36:16Z</time>
      </trkpt>
      <trkpt lat="47.87455" lon="-1.69736">
        <ele>55</ele>
        <time>2015-06-07T07:36:17Z</time>
      </trkpt>
      <trkpt lat="47.87454" lon="-1.69742">
        <ele>55</ele>
        <time>2015-06-07T07:36:18Z</time>
      </trkpt>
      <trkpt lat="47.87454" lon="-1.69748">
        <ele>55</ele>
        <time>2015-06-07T07:36:19Z</time>
      </trkpt>
      <trkpt lat="47.87453" lon="-1.69755">
        <ele>55</ele>
        <time>2015-06-07T07:36:20Z</time>
      </trkpt>
      <trkpt lat="47.87453" lon="-1.69761">
        <ele>55</ele>
        <time>2015-06-07T07:36:21Z</time>
      </trkpt>
      <trkpt lat="47.87453" lon="-1.69768">
        <ele>55</ele>
        <time>2015-06-07T07:36:22Z</time>
      </trkpt>
      <trkpt lat="47.87452" lon="-1.69774">
        <ele>55</ele>
        <time>2015-06-07T07:36:23Z</time>
      </trkpt>
      <trkpt lat="47.87452" lon="-1.69781">
        <ele>56</ele>
        <time>2015-06-07T07:36:24Z</time>
      </trkpt>
      <trkpt lat="47.87451" lon="-1.69787">
        <ele>56</ele>
        <time>2015-06-07T07:36:25Z</time>
      </trkpt>
      <trkpt lat="47.87451" lon="-1.69793">
        <ele>56</ele>
        <time>2015-06-07T07:36:26Z</time>
      </trkpt>
      <trkpt lat="47.8745" lon="-1.698">
        <ele>56</ele>
        <time>2015-06-07T07:36:27Z</time>
      </trkpt>
      <trkpt lat="47.87449" lon="-1.69807">
        <ele>56</ele>
        <time>2015-06-07T07:36:28Z</time>
      </trkpt>
      <trkpt lat="47.87449" lon="-1.69813">
        <ele>56</ele>
        <time>2015-06-07T07:36:29Z</time>
      </trkpt>
      <trkpt lat="47.87448" lon="-1.6982">
        <ele>56</ele>
        <time>2015-06-07T07:36:30Z</time>
      </trkpt>
      <trkpt lat="47.87448" lon="-1.69827">
        <ele>57</ele>
        <time>2015-06-07T07:36:31Z</time>
      </trkpt>
      <trkpt lat="47.87447" lon="-1.69834">
        <ele>57</ele>
        <time>2015-06-07T07:36:32Z</time>
      </trkpt>
      <trkpt lat="47.87447" lon="-1.6984">
        <ele>57</ele>
        <time>2015-06-07T07:36:33Z</time>
      </trkpt>
      <trkpt lat="47.87446" lon="-1.69847">
        <ele>57</ele>
        <time>2015-06-07T07:36:34Z</time>
      </trkpt>
      <trkpt lat="47.87446" lon="-1.69854">
        <ele>57</ele>
        <time>2015-06-07T07:36:35Z</time>
      </trkpt>
      <trkpt lat="47.87445" lon="-1.69861">
        <ele>57</ele>
        <time>2015-06-07T07:36:36Z</time>
      </trkpt>
      <trkpt lat="47.87444" lon="-1.69867">
        <ele>57</ele>
        <time>2015-06-07T07:36:37Z</time>
      </trkpt>
      <trkpt lat="47.87443" lon="-1.69874">
        <ele>57</ele>
        <time>2015-06-07T07:36:38Z</time>
      </trkpt>
      <trkpt lat="47.87443" lon="-1.69881">
        <ele>58</ele>
        <time>2015-06-07T07:36:39Z</time>
      </trkpt>
      <trkpt lat="47.87442" lon="-1.69888">
        <ele>58</ele>
        <time>2015-06-07T07:36:40Z</time>
      </trkpt>
      <trkpt lat="47.87442" lon="-1.69894">
        <ele>58</ele>
        <time>2015-06-07T07:36:41Z</time>
      </trkpt>
      <trkpt lat="47.87441" lon="-1.69901">
        <ele>58</ele>
        <time>2015-06-07T07:36:42Z</time>
      </trkpt>
      <trkpt lat="47.8744" lon="-1.69908">
        <ele>58</ele>
        <time>2015-06-07T07:36:43Z</time>
      </trkpt>
      <trkpt lat="47.8744" lon="-1.69915">
        <ele>58</ele>
        <time>2015-06-07T07:36:44Z</time>
      </trkpt>
      <trkpt lat="47.87439" lon="-1.69922">
        <ele>58</ele>
        <time>2015-06-07T07:36:45Z</time>
      </trkpt>
      <trkpt lat="47.87439" lon="-1.69928">
        <ele>58</ele>
        <time>2015-06-07T07:36:46Z</time>
      </trkpt>
      <trkpt lat="47.87438" lon="-1.69935">
        <ele>58</ele>
        <time>2015-06-07T07:36:47Z</time>
      </trkpt>
      <trkpt lat="47.87437" lon="-1.69941">
        <ele>58</ele>
        <time>2015-06-07T07:36:48Z</time>
      </trkpt>
      <trkpt lat="47.87436" lon="-1.69947">
        <ele>59</ele>
        <time>2015-06-07T07:36:49Z</time>
      </trkpt>
      <trkpt lat="47.87436" lon="-1.69953">
        <ele>59</ele>
        <time>2015-06-07T07:36:50Z</time>
      </trkpt>
      <trkpt lat="47.87436" lon="-1.69959">
        <ele>59</ele>
        <time>2015-06-07T07:36:51Z</time>
      </trkpt>
      <trkpt lat="47.87435" lon="-1.69966">
        <ele>59</ele>
        <time>2015-06-07T07:36:52Z</time>
      </trkpt>
      <trkpt lat="47.87434" lon="-1.69972">
        <ele>59</ele>
        <time>2015-06-07T07:36:53Z</time>
      </trkpt>
      <trkpt lat="47.87434" lon="-1.69979">
        <ele>59</ele>
        <time>2015-06-07T07:36:54Z</time>
      </trkpt>
      <trkpt lat="47.87433" lon="-1.69985">
        <ele>59</ele>
        <time>2015-06-07T07:36:55Z</time>
      </trkpt>
      <trkpt lat="47.87433" lon="-1.69992">
        <ele>59</ele>
        <time>2015-06-07T07:36:56Z</time>
      </trkpt>
      <trkpt lat="47.87432" lon="-1.69999">
        <ele>59</ele>
        <time>2015-06-07T07:36:57Z</time>
      </trkpt>
      <trkpt lat="47.87432" lon="-1.70006">
        <ele>59</ele>
        <time>2015-06-07T07:36:58Z</time>
      </trkpt>
      <trkpt lat="47.87432" lon="-1.70013">
        <ele>59</ele>
        <time>2015-06-07T07:36:59Z</time>
      </trkpt>
      <trkpt lat="47.87432" lon="-1.7002">
        <ele>59</ele>
        <time>2015-06-07T07:37:00Z</time>
      </trkpt>
      <trkpt lat="47.87432" lon="-1.70027">
        <ele>59</ele>
        <time>2015-06-07T07:37:01Z</time>
      </trkpt>
      <trkpt lat="47.87432" lon="-1.70034">
        <ele>59</ele>
        <time>2015-06-07T07:37:02Z</time>
      </trkpt>
      <trkpt lat="47.87432" lon="-1.70041">
        <ele>59</ele>
        <time>2015-06-07T07:37:03Z</time>
      </trkpt>
      <trkpt lat="47.87433" lon="-1.70048">
        <ele>60</ele>
        <time>2015-06-07T07:37:04Z</time>
      </trkpt>
      <trkpt lat="47.87433" lon="-1.70055">
        <ele>60</ele>
        <time>2015-06-07T07:37:05Z</time>
      </trkpt>
      <trkpt lat="47.87434" lon="-1.70063">
        <ele>60</ele>
        <time>2015-06-07T07:37:06Z</time>
      </trkpt>
      <trkpt lat="47.87434" lon="-1.7007">
        <ele>60</ele>
        <time>2015-06-07T07:37:07Z</time>
      </trkpt>
      <trkpt lat="47.87435" lon="-1.70077">
        <ele>60</ele>
        <time>2015-06-07T07:37:08Z</time>
      </trkpt>
      <trkpt lat="47.87436" lon="-1.70085">
        <ele>60</ele>
        <time>2015-06-07T07:37:09Z</time>
      </trkpt>
      <trkpt lat="47.87436" lon="-1.70092">
        <ele>60</ele>
        <time>2015-06-07T07:37:10Z</time>
      </trkpt>
      <trkpt lat="47.87436" lon="-1.70099">
        <ele>60</ele>
        <time>2015-06-07T07:37:11Z</time>
      </trkpt>
      <trkpt lat="47.87437" lon="-1.70106">
        <ele>60</ele>
        <time>2015-06-07T07:37:12Z</time>
      </trkpt>
      <trkpt lat="47.87438" lon="-1.70113">
        <ele>60</ele>
        <time>2015-06-07T07:37:13Z</time>
      </trkpt>
      <trkpt lat="47.87439" lon="-1.70121">
        <ele>60</ele>
        <time>2015-06-07T07:37:14Z</time>
      </trkpt>
      <trkpt lat="47.87439" lon="-1.70128">
        <ele>60</ele>
        <time>2015-06-07T07:37:15Z</time>
      </trkpt>
      <trkpt lat="47.8744" lon="-1.70136">
        <ele>60</ele>
        <time>2015-06-07T07:37:16Z</time>
      </trkpt>
      <trkpt lat="47.8744" lon="-1.70143">
        <ele>60</ele>
        <time>2015-06-07T07:37:17Z</time>
      </trkpt>
      <trkpt lat="47.87441" lon="-1.70151">
        <ele>60</ele>
        <time>2015-06-07T07:37:18Z</time>
      </trkpt>
      <trkpt lat="47.87442" lon="-1.70159">
        <ele>60</ele>
        <time>2015-06-07T07:37:19Z</time>
      </trkpt>
      <trkpt lat="47.87442" lon="-1.70167">
        <ele>60</ele>
        <time>2015-06-07T07:37:20Z</time>
      </trkpt>
      <trkpt lat="47.87443" lon="-1.70175">
        <ele>60</ele>
        <time>2015-06-07T07:37:21Z</time>
      </trkpt>
      <trkpt lat="47.87444" lon="-1.70182">
        <ele>60</ele>
        <time>2015-06-07T07:37:22Z</time>
      </trkpt>
      <trkpt lat="47.87445" lon="-1.7019">
        <ele>60</ele>
        <time>2015-06-07T07:37:23Z</time>
      </trkpt>
      <trkpt lat="47.87445" lon="-1.70198">
        <ele>60</ele>
        <time>2015-06-07T07:37:24Z</time>
      </trkpt>
      <trkpt lat="47.87446" lon="-1.70205">
        <ele>60</ele>
        <time>2015-06-07T07:37:25Z</time>
      </trkpt>
      <trkpt lat="47.87447" lon="-1.70213">
        <ele>60</ele>
        <time>2015-06-07T07:37:26Z</time>
      </trkpt>
      <trkpt lat="47.87447" lon="-1.70221">
        <ele>60</ele>
        <time>2015-06-07T07:37:27Z</time>
      </trkpt>
      <trkpt lat="47.87448" lon="-1.70228">
        <ele>60</ele>
        <time>2015-06-07T07:37:28Z</time>
      </trkpt>
      <trkpt lat="47.87449" lon="-1.70236">
        <ele>60</ele>
        <time>2015-06-07T07:37:29Z</time>
      </trkpt>
      <trkpt lat="47.87449" lon="-1.70244">
        <ele>60</ele>
        <time>2015-06-07T07:37:30Z</time>
      </trkpt>
      <trkpt lat="47.8745" lon="-1.70252">
        <ele>60</ele>
        <time>2015-06-07T07:37:31Z</time>
      </trkpt>
      <trkpt lat="47.87451" lon="-1.7026">
        <ele>59</ele>
        <time>2015-06-07T07:37:32Z</time>
      </trkpt>
      <trkpt lat="47.87452" lon="-1.70267">
        <ele>59</ele>
        <time>2015-06-07T07:37:33Z</time>
      </trkpt>
      <trkpt lat="47.87452" lon="-1.70275">
        <ele>59</ele>
        <time>2015-06-07T07:37:34Z</time>
      </trkpt>
      <trkpt lat="47.87453" lon="-1.70283">
        <ele>59</ele>
        <time>2015-06-07T07:37:35Z</time>
      </trkpt>
      <trkpt lat="47.87453" lon="-1.7029">
        <ele>59</ele>
        <time>2015-06-07T07:37:36Z</time>
      </trkpt>
      <trkpt lat="47.87454" lon="-1.70298">
        <ele>59</ele>
        <time>2015-06-07T07:37:37Z</time>
      </trkpt>
      <trkpt lat="47.87455" lon="-1.70306">
        <ele>59</ele>
        <time>2015-06-07T07:37:38Z</time>
      </trkpt>
      <trkpt lat="47.87456" lon="-1.70313">
        <ele>59</ele>
        <time>2015-06-07T07:37:39Z</time>
      </trkpt>
      <trkpt lat="47.87456" lon="-1.70321">
        <ele>59</ele>
        <time>2015-06-07T07:37:40Z</time>
      </trkpt>
      <trkpt lat="47.87456" lon="-1.70329">
        <ele>59</ele>
        <time>2015-06-07T07:37:41Z</time>
      </trkpt>
      <trkpt lat="47.87457" lon="-1.70336">
        <ele>60</ele>
        <time>2015-06-07T07:37:42Z</time>
      </trkpt>
      <trkpt lat="47.87458" lon="-1.70344">
        <ele>60</ele>
        <time>2015-06-07T07:37:43Z</time>
      </trkpt>
      <trkpt lat="47.87458" lon="-1.70351">
        <ele>60</ele>
        <time>2015-06-07T07:37:44Z</time>
      </trkpt>
      <trkpt lat="47.87459" lon="-1.70358">
        <ele>60</ele>
        <time>2015-06-07T07:37:45Z</time>
      </trkpt>
      <trkpt lat="47.87459" lon="-1.70365">
        <ele>60</ele>
        <time>2015-06-07T07:37:46Z</time>
      </trkpt>
      <trkpt lat="47.8746" lon="-1.70372">
        <ele>61</ele>
        <time>2015-06-07T07:37:47Z</time>
      </trkpt>
      <trkpt lat="47.87461" lon="-1.70379">
        <ele>61</ele>
        <time>2015-06-07T07:37:48Z</time>
      </trkpt>
      <trkpt lat="47.87461" lon="-1.70385">
        <ele>61</ele>
        <time>2015-06-07T07:37:49Z</time>
      </trkpt>
      <trkpt lat="47.87462" lon="-1.70392">
        <ele>61</ele>
        <time>2015-06-07T07:37:50Z</time>
      </trkpt>
      <trkpt lat="47.87462" lon="-1.70398">
        <ele>62</ele>
        <time>2015-06-07T07:37:51Z</time>
      </trkpt>
      <trkpt lat="47.87462" lon="-1.70404">
        <ele>62</ele>
        <time>2015-06-07T07:37:52Z</time>
      </trkpt>
      <trkpt lat="47.87463" lon="-1.7041">
        <ele>62</ele>
        <time>2015-06-07T07:37:53Z</time>
      </trkpt>
      <trkpt lat="47.87463" lon="-1.70416">
        <ele>62</ele>
        <time>2015-06-07T07:37:54Z</time>
      </trkpt>
      <trkpt lat="47.87464" lon="-1.70422">
        <ele>63</ele>
        <time>2015-06-07T07:37:55Z</time>
      </trkpt>
      <trkpt lat="47.87465" lon="-1.70428">
        <ele>63</ele>
        <time>2015-06-07T07:37:56Z</time>
      </trkpt>
      <trkpt lat="47.87465" lon="-1.70435">
        <ele>63</ele>
        <time>2015-06-07T07:37:57Z</time>
      </trkpt>
      <trkpt lat="47.87465" lon="-1.7044">
        <ele>64</ele>
        <time>2015-06-07T07:37:58Z</time>
      </trkpt>
      <trkpt lat="47.87466" lon="-1.70446">
        <ele>64</ele>
        <time>2015-06-07T07:37:59Z</time>
      </trkpt>
      <trkpt lat="47.87466" lon="-1.70452">
        <ele>64</ele>
        <time>2015-06-07T07:38:00Z</time>
      </trkpt>
      <trkpt lat="47.87467" lon="-1.70458">
        <ele>64</ele>
        <time>2015-06-07T07:38:01Z</time>
      </trkpt>
      <trkpt lat="47.87468" lon="-1.70464">
        <ele>65</ele>
        <time>2015-06-07T07:38:02Z</time>
      </trkpt>
      <trkpt lat="47.87468" lon="-1.7047">
        <ele>65</ele>
        <time>2015-06-07T07:38:03Z</time>
      </trkpt>
      <trkpt lat="47.87469" lon="-1.70476">
        <ele>65</ele>
        <time>2015-06-07T07:38:04Z</time>
      </trkpt>
      <trkpt lat="47.87469" lon="-1.70482">
        <ele>65</ele>
        <time>2015-06-07T07:38:05Z</time>
      </trkpt>
      <trkpt lat="47.87469" lon="-1.70488">
        <ele>65</ele>
        <time>2015-06-07T07:38:06Z</time>
      </trkpt>
      <trkpt lat="47.8747" lon="-1.70494">
        <ele>66</ele>
        <time>2015-06-07T07:38:07Z</time>
      </trkpt>
      <trkpt lat="47.87471" lon="-1.705">
        <ele>66</ele>
        <time>2015-06-07T07:38:08Z</time>
      </trkpt>
      <trkpt lat="47.87471" lon="-1.70505">
        <ele>66</ele>
        <time>2015-06-07T07:38:09Z</time>
      </trkpt>
      <trkpt lat="47.87472" lon="-1.70511">
        <ele>66</ele>
        <time>2015-06-07T07:38:10Z</time>
      </trkpt>
      <trkpt lat="47.87472" lon="-1.70516">
        <ele>66</ele>
        <time>2015-06-07T07:38:11Z</time>
      </trkpt>
      <trkpt lat="47.87472" lon="-1.70521">
        <ele>67</ele>
        <time>2015-06-07T07:38:12Z</time>
      </trkpt>
      <trkpt lat="47.87472" lon="-1.70526">
        <ele>67</ele>
        <time>2015-06-07T07:38:13Z</time>
      </trkpt>
      <trkpt lat="47.87473" lon="-1.7053">
        <ele>67</ele>
        <time>2015-06-07T07:38:14Z</time>
      </trkpt>
      <trkpt lat="47.87473" lon="-1.70534">
        <ele>67</ele>
        <time>2015-06-07T07:38:15Z</time>
      </trkpt>
      <trkpt lat="47.87474" lon="-1.70537">
        <ele>67</ele>
        <time>2015-06-07T07:38:16Z</time>
      </trkpt>
      <trkpt lat="47.87475" lon="-1.7054">
        <ele>67</ele>
        <time>2015-06-07T07:38:17Z</time>
      </trkpt>
      <trkpt lat="47.87475" lon="-1.70543">
        <ele>67</ele>
        <time>2015-06-07T07:38:18Z</time>
      </trkpt>
      <trkpt lat="47.87474" lon="-1.70546">
        <ele>67</ele>
        <time>2015-06-07T07:38:19Z</time>
      </trkpt>
      <trkpt lat="47.87471" lon="-1.70546">
        <ele>68</ele>
        <time>2015-06-07T07:38:20Z</time>
      </trkpt>
      <trkpt lat="47.87469" lon="-1.70545">
        <ele>68</ele>
        <time>2015-06-07T07:38:21Z</time>
      </trkpt>
      <trkpt lat="47.87465" lon="-1.70544">
        <ele>68</ele>
        <time>2015-06-07T07:38:22Z</time>
      </trkpt>
      <trkpt lat="47.87462" lon="-1.70542">
        <ele>68</ele>
        <time>2015-06-07T07:38:23Z</time>
      </trkpt>
      <trkpt lat="47.87458" lon="-1.7054">
        <ele>68</ele>
        <time>2015-06-07T07:38:24Z</time>
      </trkpt>
      <trkpt lat="47.87455" lon="-1.70538">
        <ele>68</ele>
        <time>2015-06-07T07:38:25Z</time>
      </trkpt>
      <trkpt lat="47.87451" lon="-1.70536">
        <ele>68</ele>
        <time>2015-06-07T07:38:26Z</time>
      </trkpt>
      <trkpt lat="47.87448" lon="-1.70534">
        <ele>68</ele>
        <time>2015-06-07T07:38:27Z</time>
      </trkpt>
      <trkpt lat="47.87444" lon="-1.70531">
        <ele>68</ele>
        <time>2015-06-07T07:38:28Z</time>
      </trkpt>
      <trkpt lat="47.87441" lon="-1.7053">
        <ele>68</ele>
        <time>2015-06-07T07:38:29Z</time>
      </trkpt>
      <trkpt lat="47.87437" lon="-1.70527">
        <ele>68</ele>
        <time>2015-06-07T07:38:30Z</time>
      </trkpt>
      <trkpt lat="47.87434" lon="-1.70526">
        <ele>68</ele>
        <time>2015-06-07T07:38:31Z</time>
      </trkpt>
      <trkpt lat="47.87431" lon="-1.70524">
        <ele>69</ele>
        <time>2015-06-07T07:38:32Z</time>
      </trkpt>
      <trkpt lat="47.87428" lon="-1.70523">
        <ele>69</ele>
        <time>2015-06-07T07:38:33Z</time>
      </trkpt>
      <trkpt lat="47.87425" lon="-1.70521">
        <ele>69</ele>
        <time>2015-06-07T07:38:34Z</time>
      </trkpt>
      <trkpt lat="47.87423" lon="-1.70519">
        <ele>69</ele>
        <time>2015-06-07T07:38:35Z</time>
      </trkpt>
      <trkpt lat="47.8742" lon="-1.70518">
        <ele>69</ele>
        <time>2015-06-07T07:38:36Z</time>
      </trkpt>
      <trkpt lat="47.87418" lon="-1.70518">
        <ele>69</ele>
        <time>2015-06-07T07:38:37Z</time>
      </trkpt>
      <trkpt lat="47.87416" lon="-1.70518">
        <ele>69</ele>
        <time>2015-06-07T07:38:38Z</time>
      </trkpt>
      <trkpt lat="47.87415" lon="-1.70519">
        <ele>69</ele>
        <time>2015-06-07T07:38:39Z</time>
      </trkpt>
      <trkpt lat="47.87413" lon="-1.7052">
        <ele>69</ele>
        <time>2015-06-07T07:38:40Z</time>
      </trkpt>
      <trkpt lat="47.87412" lon="-1.70521">
        <ele>69</ele>
        <time>2015-06-07T07:38:41Z</time>
      </trkpt>
      <trkpt lat="47.8741" lon="-1.70521">
        <ele>70</ele>
        <time>2015-06-07T07:38:42Z</time>
      </trkpt>
      <trkpt lat="47.8741" lon="-1.7052">
        <ele>70</ele>
        <time>2015-06-07T07:38:43Z</time>
      </trkpt>
      <trkpt lat="47.87409" lon="-1.7052">
        <ele>70</ele>
        <time>2015-06-07T07:38:44Z</time>
      </trkpt>
      <trkpt lat="47.87408" lon="-1.7052">
        <ele>70</ele>
        <time>2015-06-07T07:38:45Z</time>
      </trkpt>
      <trkpt lat="47.87407" lon="-1.70519">
        <ele>70</ele>
        <time>2015-06-07T07:38:46Z</time>
      </trkpt>
      <trkpt lat="47.87406" lon="-1.70519">
        <ele>70</ele>
        <time>2015-06-07T07:38:47Z</time>
      </trkpt>
      <trkpt lat="47.87403" lon="-1.70519">
        <ele>70</ele>
        <time>2015-06-07T07:38:48Z</time>
      </trkpt>
      <trkpt lat="47.87402" lon="-1.70519">
        <ele>70</ele>
        <time>2015-06-07T07:38:49Z</time>
      </trkpt>
      <trkpt lat="47.874" lon="-1.70518">
        <ele>71</ele>
        <time>2015-06-07T07:38:50Z</time>
      </trkpt>
      <trkpt lat="47.87397" lon="-1.70517">
        <ele>71</ele>
        <time>2015-06-07T07:38:51Z</time>
      </trkpt>
      <trkpt lat="47.87395" lon="-1.70517">
        <ele>71</ele>
        <time>2015-06-07T07:38:52Z</time>
      </trkpt>
      <trkpt lat="47.87393" lon="-1.70517">
        <ele>71</ele>
        <time>2015-06-07T07:38:53Z</time>
      </trkpt>
      <trkpt lat="47.87391" lon="-1.70515">
        <ele>71</ele>
        <time>2015-06-07T07:38:54Z</time>
      </trkpt>
      <trkpt lat="47.87389" lon="-1.70515">
        <ele>72</ele>
        <time>2015-06-07T07:38:55Z</time>
      </trkpt>
      <trkpt lat="47.87386" lon="-1.70514">
        <ele>72</ele>
        <time>2015-06-07T07:38:56Z</time>
      </trkpt>
      <trkpt lat="47.87383" lon="-1.70515">
        <ele>72</ele>
        <time>2015-06-07T07:38:57Z</time>
      </trkpt>
      <trkpt lat="47.8738" lon="-1.70515">
        <ele>72</ele>
        <time>2015-06-07T07:38:58Z</time>
      </trkpt>
      <trkpt lat="47.87378" lon="-1.70514">
        <ele>73</ele>
        <time>2015-06-07T07:38:59Z</time>
      </trkpt>
      <trkpt lat="47.87376" lon="-1.70513">
        <ele>73</ele>
        <time>2015-06-07T07:39:00Z</time>
      </trkpt>
      <trkpt lat="47.87374" lon="-1.70512">
        <ele>73</ele>
        <time>2015-06-07T07:39:01Z</time>
      </trkpt>
      <trkpt lat="47.87373" lon="-1.70511">
        <ele>73</ele>
        <time>2015-06-07T07:39:02Z</time>
      </trkpt>
      <trkpt lat="47.8737" lon="-1.70511">
        <ele>74</ele>
        <time>2015-06-07T07:39:03Z</time>
      </trkpt>
      <trkpt lat="47.87368" lon="-1.7051">
        <ele>74</ele>
        <time>2015-06-07T07:39:04Z</time>
      </trkpt>
      <trkpt lat="47.87366" lon="-1.7051">
        <ele>74</ele>
        <time>2015-06-07T07:39:05Z</time>
      </trkpt>
      <trkpt lat="47.87363" lon="-1.70508">
        <ele>75</ele>
        <time>2015-06-07T07:39:06Z</time>
      </trkpt>
      <trkpt lat="47.87359" lon="-1.70507">
        <ele>75</ele>
        <time>2015-06-07T07:39:07Z</time>
      </trkpt>
      <trkpt lat="47.87356" lon="-1.70507">
        <ele>75</ele>
        <time>2015-06-07T07:39:08Z</time>
      </trkpt>
      <trkpt lat="47.87354" lon="-1.70505">
        <ele>76</ele>
        <time>2015-06-07T07:39:09Z</time>
      </trkpt>
      <trkpt lat="47.87351" lon="-1.70505">
        <ele>76</ele>
        <time>2015-06-07T07:39:10Z</time>
      </trkpt>
      <trkpt lat="47.87348" lon="-1.70504">
        <ele>76</ele>
        <time>2015-06-07T07:39:11Z</time>
      </trkpt>
      <trkpt lat="47.87346" lon="-1.70503">
        <ele>76</ele>
        <time>2015-06-07T07:39:12Z</time>
      </trkpt>
      <trkpt lat="47.87344" lon="-1.70502">
        <ele>77</ele>
        <time>2015-06-07T07:39:13Z</time>
      </trkpt>
      <trkpt lat="47.87342" lon="-1.70502">
        <ele>77</ele>
        <time>2015-06-07T07:39:14Z</time>
      </trkpt>
      <trkpt lat="47.8734" lon="-1.70501">
        <ele>77</ele>
        <time>2015-06-07T07:39:15Z</time>
      </trkpt>
      <trkpt lat="47.87337" lon="-1.705">
        <ele>78</ele>
        <time>2015-06-07T07:39:16Z</time>
      </trkpt>
      <trkpt lat="47.87334" lon="-1.70499">
        <ele>78</ele>
        <time>2015-06-07T07:39:17Z</time>
      </trkpt>
      <trkpt lat="47.87331" lon="-1.70498">
        <ele>78</ele>
        <time>2015-06-07T07:39:18Z</time>
      </trkpt>
      <trkpt lat="47.87329" lon="-1.70495">
        <ele>78</ele>
        <time>2015-06-07T07:39:19Z</time>
      </trkpt>
      <trkpt lat="47.87327" lon="-1.70492">
        <ele>79</ele>
        <time>2015-06-07T07:39:20Z</time>
      </trkpt>
      <trkpt lat="47.87325" lon="-1.7049">
        <ele>79</ele>
        <time>2015-06-07T07:39:21Z</time>
      </trkpt>
      <trkpt lat="47.87324" lon="-1.70488">
        <ele>79</ele>
        <time>2015-06-07T07:39:22Z</time>
      </trkpt>
      <trkpt lat="47.87324" lon="-1.70485">
        <ele>79</ele>
        <time>2015-06-07T07:39:23Z</time>
      </trkpt>
      <trkpt lat="47.87323" lon="-1.70482">
        <ele>79</ele>
        <time>2015-06-07T07:39:24Z</time>
      </trkpt>
      <trkpt lat="47.87323" lon="-1.7048">
        <ele>80</ele>
        <time>2015-06-07T07:39:25Z</time>
      </trkpt>
      <trkpt lat="47.87323" lon="-1.70478">
        <ele>80</ele>
        <time>2015-06-07T07:39:26Z</time>
      </trkpt>
      <trkpt lat="47.87324" lon="-1.70477">
        <ele>80</ele>
        <time>2015-06-07T07:39:27Z</time>
      </trkpt>
      <trkpt lat="47.87324" lon="-1.70476">
        <ele>80</ele>
        <time>2015-06-07T07:39:28Z</time>
      </trkpt>
      <trkpt lat="47.87324" lon="-1.70474">
        <ele>80</ele>
        <time>2015-06-07T07:39:29Z</time>
      </trkpt>
      <trkpt lat="47.87323" lon="-1.70472">
        <ele>81</ele>
        <time>2015-06-07T07:39:30Z</time>
      </trkpt>
      <trkpt lat="47.87323" lon="-1.7047">
        <ele>81</ele>
        <time>2015-06-07T07:39:31Z</time>
      </trkpt>
      <trkpt lat="47.87323" lon="-1.70468">
        <ele>81</ele>
        <time>2015-06-07T07:39:32Z</time>
      </trkpt>
      <trkpt lat="47.87324" lon="-1.70466">
        <ele>81</ele>
        <time>2015-06-07T07:39:33Z</time>
      </trkpt>
      <trkpt lat="47.87326" lon="-1.70463">
        <ele>81</ele>
        <time>2015-06-07T07:39:34Z</time>
      </trkpt>
      <trkpt lat="47.87328" lon="-1.70461">
        <ele>82</ele>
        <time>2015-06-07T07:39:35Z</time>
      </trkpt>
      <trkpt lat="47.87329" lon="-1.70457">
        <ele>82</ele>
        <time>2015-06-07T07:39:36Z</time>
      </trkpt>
      <trkpt lat="47.87329" lon="-1.70453">
        <ele>82</ele>
        <time>2015-06-07T07:39:37Z</time>
      </trkpt>
      <trkpt lat="47.8733" lon="-1.70449">
        <ele>82</ele>
        <time>2015-06-07T07:39:38Z</time>
      </trkpt>
      <trkpt lat="47.8733" lon="-1.70445">
        <ele>82</ele>
        <time>2015-06-07T07:39:39Z</time>
      </trkpt>
      <trkpt lat="47.87329" lon="-1.7044">
        <ele>83</ele>
        <time>2015-06-07T07:39:40Z</time>
      </trkpt>
      <trkpt lat="47.87328" lon="-1.70436">
        <ele>83</ele>
        <time>2015-06-07T07:39:41Z</time>
      </trkpt>
      <trkpt lat="47.87329" lon="-1.70432">
        <ele>83</ele>
        <time>2015-06-07T07:39:42Z</time>
      </trkpt>
      <trkpt lat="47.87331" lon="-1.7043">
        <ele>83</ele>
        <time>2015-06-07T07:39:43Z</time>
      </trkpt>
      <trkpt lat="47.87332" lon="-1.70429">
        <ele>84</ele>
        <time>2015-06-07T07:39:44Z</time>
      </trkpt>
      <trkpt lat="47.87334" lon="-1.70429">
        <ele>84</ele>
        <time>2015-06-07T07:39:45Z</time>
      </trkpt>
      <trkpt lat="47.87336" lon="-1.70428">
        <ele>84</ele>
        <time>2015-06-07T07:39:46Z</time>
      </trkpt>
      <trkpt lat="47.87337" lon="-1.70425">
        <ele>85</ele>
        <time>2015-06-07T07:39:47Z</time>
      </trkpt>
      <trkpt lat="47.87338" lon="-1.70424">
        <ele>85</ele>
        <time>2015-06-07T07:39:48Z</time>
      </trkpt>
      <trkpt lat="47.87341" lon="-1.70422">
        <ele>85</ele>
        <time>2015-06-07T07:39:49Z</time>
      </trkpt>
      <trkpt lat="47.87343" lon="-1.7042">
        <ele>85</ele>
        <time>2015-06-07T07:39:50Z</time>
      </trkpt>
      <trkpt lat="47.87344" lon="-1.70418">
        <ele>85</ele>
        <time>2015-06-07T07:39:51Z</time>
      </trkpt>
      <trkpt lat="47.87345" lon="-1.70413">
        <ele>85</ele>
        <time>2015-06-07T07:39:52Z</time>
      </trkpt>
      <trkpt lat="47.87346" lon="-1.7041">
        <ele>85</ele>
        <time>2015-06-07T07:39:53Z</time>
      </trkpt>
      <trkpt lat="47.87345" lon="-1.70406">
        <ele>86</ele>
        <time>2015-06-07T07:39:54Z</time>
      </trkpt>
      <trkpt lat="47.87345" lon="-1.70402">
        <ele>86</ele>
        <time>2015-06-07T07:39:55Z</time>
      </trkpt>
      <trkpt lat="47.87344" lon="-1.704">
        <ele>86</ele>
        <time>2015-06-07T07:39:56Z</time>
      </trkpt>
      <trkpt lat="47.87344" lon="-1.70399">
        <ele>86</ele>
        <time>2015-06-07T07:39:57Z</time>
      </trkpt>
      <trkpt lat="47.87343" lon="-1.70398">
        <ele>85</ele>
        <time>2015-06-07T07:39:58Z</time>
      </trkpt>
      <trkpt lat="47.87341" lon="-1.70397">
        <ele>85</ele>
        <time>2015-06-07T07:39:59Z</time>
      </trkpt>
      <trkpt lat="47.8734" lon="-1.70395">
        <ele>85</ele>
        <time>2015-06-07T07:40:00Z</time>
      </trkpt>
      <trkpt lat="47.87339" lon="-1.70393">
        <ele>85</ele>
        <time>2015-06-07T07:40:01Z</time>
      </trkpt>
      <trkpt lat="47.87339" lon="-1.70391">
        <ele>85</ele>
        <time>2015-06-07T07:40:02Z</time>
      </trkpt>
      <trkpt lat="47.87339" lon="-1.70388">
        <ele>85</ele>
        <time>2015-06-07T07:40:03Z</time>
      </trkpt>
      <trkpt lat="47.87339" lon="-1.70386">
        <ele>85</ele>
        <time>2015-06-07T07:40:04Z</time>
      </trkpt>
      <trkpt lat="47.87338" lon="-1.70383">
        <ele>85</ele>
        <time>2015-06-07T07:40:05Z</time>
      </trkpt>
      <trkpt lat="47.87337" lon="-1.70382">
        <ele>85</ele>
        <time>2015-06-07T07:40:06Z</time>
      </trkpt>
      <trkpt lat="47.87336" lon="-1.7038">
        <ele>85</ele>
        <time>2015-06-07T07:40:07Z</time>
      </trkpt>
      <trkpt lat="47.87335" lon="-1.70378">
        <ele>85</ele>
        <time>2015-06-07T07:40:08Z</time>
      </trkpt>
      <trkpt lat="47.87334" lon="-1.70375">
        <ele>85</ele>
        <time>2015-06-07T07:40:09Z</time>
      </trkpt>
      <trkpt lat="47.87333" lon="-1.70372">
        <ele>84</ele>
        <time>2015-06-07T07:40:10Z</time>
      </trkpt>
      <trkpt lat="47.87334" lon="-1.70369">
        <ele>84</ele>
        <time>2015-06-07T07:40:11Z</time>
      </trkpt>
      <trkpt lat="47.87335" lon="-1.70368">
        <ele>84</ele>
        <time>2015-06-07T07:40:12Z</time>
      </trkpt>
      <trkpt lat="47.87337" lon="-1.70368">
        <ele>84</ele>
        <time>2015-06-07T07:40:13Z</time>
      </trkpt>
      <trkpt lat="47.87338" lon="-1.70368">
        <ele>85</ele>
        <time>2015-06-07T07:40:14Z</time>
      </trkpt>
      <trkpt lat="47.87341" lon="-1.70366">
        <ele>85</ele>
        <time>2015-06-07T07:40:15Z</time>
      </trkpt>
      <trkpt lat="47.87344" lon="-1.70366">
        <ele>85</ele>
        <time>2015-06-07T07:40:16Z</time>
      </trkpt>
      <trkpt lat="47.87346" lon="-1.70364">
        <ele>85</ele>
        <time>2015-06-07T07:40:17Z</time>
      </trkpt>
      <trkpt lat="47.87347" lon="-1.70362">
        <ele>85</ele>
        <time>2015-06-07T07:40:18Z</time>
      </trkpt>
      <trkpt lat="47.87349" lon="-1.70357">
        <ele>85</ele>
        <time>2015-06-07T07:40:19Z</time>
      </trkpt>
      <trkpt lat="47.8735" lon="-1.70353">
        <ele>84</ele>
        <time>2015-06-07T07:40:20Z</time>
      </trkpt>
      <trkpt lat="47.87349" lon="-1.70349">
        <ele>84</ele>
        <time>2015-06-07T07:40:21Z</time>
      </trkpt>
      <trkpt lat="47.87348" lon="-1.70345">
        <ele>84</ele>
        <time>2015-06-07T07:40:22Z</time>
      </trkpt>
      <trkpt lat="47.87348" lon="-1.70341">
        <ele>84</ele>
        <time>2015-06-07T07:40:23Z</time>
      </trkpt>
      <trkpt lat="47.87347" lon="-1.70338">
        <ele>84</ele>
        <time>2015-06-07T07:40:24Z</time>
      </trkpt>
      <trkpt lat="47.87347" lon="-1.70335">
        <ele>84</ele>
        <time>2015-06-07T07:40:25Z</time>
      </trkpt>
      <trkpt lat="47.87347" lon="-1.70332">
        <ele>84</ele>
        <time>2015-06-07T07:40:26Z</time>
      </trkpt>
      <trkpt lat="47.87347" lon="-1.70329">
        <ele>84</ele>
        <time>2015-06-07T07:40:27Z</time>
      </trkpt>
      <trkpt lat="47.87347" lon="-1.70327">
        <ele>84</ele>
        <time>2015-06-07T07:40:28Z</time>
      </trkpt>
      <trkpt lat="47.87346" lon="-1.70327">
        <ele>84</ele>
        <time>2015-06-07T07:40:29Z</time>
      </trkpt>
      <trkpt lat="47.87346" lon="-1.70328">
        <ele>85</ele>
        <time>2015-06-07T07:40:30Z</time>
      </trkpt>
      <trkpt lat="47.87346" lon="-1.70328">
        <ele>85</ele>
        <time>2015-06-07T07:40:31Z</time>
      </trkpt>
      <trkpt lat="47.87345" lon="-1.7033">
        <ele>85</ele>
        <time>2015-06-07T07:40:32Z</time>
      </trkpt>
      <trkpt lat="47.87345" lon="-1.7033">
        <ele>85</ele>
        <time>2015-06-07T07:40:33Z</time>
      </trkpt>
      <trkpt lat="47.87345" lon="-1.70331">
        <ele>85</ele>
        <time>2015-06-07T07:40:34Z</time>
      </trkpt>
      <trkpt lat="47.87344" lon="-1.70332">
        <ele>85</ele>
        <time>2015-06-07T07:40:35Z</time>
      </trkpt>
      <trkpt lat="47.87343" lon="-1.70333">
        <ele>85</ele>
        <time>2015-06-07T07:40:36Z</time>
      </trkpt>
      <trkpt lat="47.87342" lon="-1.70335">
        <ele>85</ele>
        <time>2015-06-07T07:40:37Z</time>
      </trkpt>
      <trkpt lat="47.87341" lon="-1.70337">
        <ele>85</ele>
        <time>2015-06-07T07:40:38Z</time>
      </trkpt>
      <trkpt lat="47.8734" lon="-1.70338">
        <ele>85</ele>
        <time>2015-06-07T07:40:39Z</time>
      </trkpt>
      <trkpt lat="47.87338" lon="-1.70339">
        <ele>85</ele>
        <time>2015-06-07T07:40:40Z</time>
      </trkpt>
      <trkpt lat="47.87337" lon="-1.70338">
        <ele>85</ele>
        <time>2015-06-07T07:40:41Z</time>
      </trkpt>
      <trkpt lat="47.87337" lon="-1.70336">
        <ele>85</ele>
        <time>2015-06-07T07:40:42Z</time>
      </trkpt>
      <trkpt lat="47.87337" lon="-1.70334">
        <ele>86</ele>
        <time>2015-06-07T07:40:43Z</time>
      </trkpt>
      <trkpt lat="47.87336" lon="-1.70333">
        <ele>86</ele>
        <time>2015-06-07T07:40:44Z</time>
      </trkpt>
      <trkpt lat="47.87335" lon="-1.70333">
        <ele>86</ele>
        <time>2015-06-07T07:40:45Z</time>
      </trkpt>
      <trkpt lat="47.87333" lon="-1.70333">
        <ele>86</ele>
        <time>2015-06-07T07:40:46Z</time>
      </trkpt>
      <trkpt lat="47.87331" lon="-1.70334">
        <ele>86</ele>
        <time>2015-06-07T07:40:47Z</time>
      </trkpt>
      <trkpt lat="47.87329" lon="-1.70336">
        <ele>87</ele>
        <time>2015-06-07T07:40:48Z</time>
      </trkpt>
      <trkpt lat="47.87327" lon="-1.70337">
        <ele>87</ele>
        <time>2015-06-07T07:40:49Z</time>
      </trkpt>
      <trkpt lat="47.87326" lon="-1.70338">
        <ele>87</ele>
        <time>2015-06-07T07:40:50Z</time>
      </trkpt>
      <trkpt lat="47.87325" lon="-1.70339">
        <ele>87</ele>
        <time>2015-06-07T07:40:51Z</time>
      </trkpt>
      <trkpt lat="47.87324" lon="-1.70341">
        <ele>87</ele>
        <time>2015-06-07T07:40:52Z</time>
      </trkpt>
      <trkpt lat="47.87323" lon="-1.70343">
        <ele>88</ele>
        <time>2015-06-07T07:40:53Z</time>
      </trkpt>
      <trkpt lat="47.87321" lon="-1.70343">
        <ele>88</ele>
        <time>2015-06-07T07:40:54Z</time>
      </trkpt>
      <trkpt lat="47.87319" lon="-1.70344">
        <ele>88</ele>
        <time>2015-06-07T07:40:55Z</time>
      </trkpt>
      <trkpt lat="47.87317" lon="-1.70344">
        <ele>88</ele>
        <time>2015-06-07T07:40:56Z</time>
      </trkpt>
      <trkpt lat="47.87315" lon="-1.70346">
        <ele>88</ele>
        <time>2015-06-07T07:40:57Z</time>
      </trkpt>
      <trkpt lat="47.87314" lon="-1.70348">
        <ele>88</ele>
        <time>2015-06-07T07:40:58Z</time>
      </trkpt>
      <trkpt lat="47.87312" lon="-1.70349">
        <ele>89</ele>
        <time>2015-06-07T07:40:59Z</time>
      </trkpt>
      <trkpt lat="47.87311" lon="-1.70351">
        <ele>89</ele>
        <time>2015-06-07T07:41:00Z</time>
      </trkpt>
      <trkpt lat="47.8731" lon="-1.70352">
        <ele>89</ele>
        <time>2015-06-07T07:41:01Z</time>
      </trkpt>
      <trkpt lat="47.87308" lon="-1.70353">
        <ele>89</ele>
        <time>2015-06-07T07:41:02Z</time>
      </trkpt>
      <trkpt lat="47.87307" lon="-1.70355">
        <ele>90</ele>
        <time>2015-06-07T07:41:03Z</time>
      </trkpt>
      <trkpt lat="47.87306" lon="-1.70356">
        <ele>90</ele>
        <time>2015-06-07T07:41:04Z</time>
      </trkpt>
      <trkpt lat="47.87305" lon="-1.70357">
        <ele>90</ele>
        <time>2015-06-07T07:41:05Z</time>
      </trkpt>
      <trkpt lat="47.87305" lon="-1.70359">
        <ele>91</ele>
        <time>2015-06-07T07:41:06Z</time>
      </trkpt>
      <trkpt lat="47.87304" lon="-1.70361">
        <ele>91</ele>
        <time>2015-06-07T07:41:07Z</time>
      </trkpt>
      <trkpt lat="47.87303" lon="-1.70363">
        <ele>91</ele>
        <time>2015-06-07T07:41:08Z</time>
      </trkpt>
      <trkpt lat="47.87303" lon="-1.70366">
        <ele>92</ele>
        <time>2015-06-07T07:41:09Z</time>
      </trkpt>
      <trkpt lat="47.87302" lon="-1.70369">
        <ele>92</ele>
        <time>2015-06-07T07:41:10Z</time>
      </trkpt>
      <trkpt lat="47.87301" lon="-1.70372">
        <ele>92</ele>
        <time>2015-06-07T07:41:11Z</time>
      </trkpt>
      <trkpt lat="47.87301" lon="-1.70374">
        <ele>93</ele>
        <time>2015-06-07T07:41:12Z</time>
      </trkpt>
      <trkpt lat="47.87299" lon="-1.70376">
        <ele>93</ele>
        <time>2015-06-07T07:41:13Z</time>
      </trkpt>
      <trkpt lat="47.87299" lon="-1.70377">
        <ele>93</ele>
        <time>2015-06-07T07:41:14Z</time>
      </trkpt>
      <trkpt lat="47.87298" lon="-1.70378">
        <ele>93</ele>
        <time>2015-06-07T07:41:15Z</time>
      </trkpt>
      <trkpt lat="47.87297" lon="-1.70378">
        <ele>93</ele>
        <time>2015-06-07T07:41:16Z</time>
      </trkpt>
      <trkpt lat="47.87296" lon="-1.70378">
        <ele>94</ele>
        <time>2015-06-07T07:41:17Z</time>
      </trkpt>
      <trkpt lat="47.87295" lon="-1.70378">
        <ele>94</ele>
        <time>2015-06-07T07:41:18Z</time>
      </trkpt>
      <trkpt lat="47.87293" lon="-1.70378">
        <ele>94</ele>
        <time>2015-06-07T07:41:19Z</time>
      </trkpt>
      <trkpt lat="47.87292" lon="-1.70378">
        <ele>94</ele>
        <time>2015-06-07T07:41:20Z</time>
      </trkpt>
      <trkpt lat="47.87291" lon="-1.70378">
        <ele>95</ele>
        <time>2015-06-07T07:41:21Z</time>
      </trkpt>
      <trkpt lat="47.87289" lon="-1.70378">
        <ele>95</ele>
        <time>2015-06-07T07:41:22Z</time>
      </trkpt>
      <trkpt lat="47.87288" lon="-1.70377">
        <ele>95</ele>
        <time>2015-06-07T07:41:23Z</time>
      </trkpt>
      <trkpt lat="47.87287" lon="-1.70376">
        <ele>95</ele>
        <time>2015-06-07T07:41:24Z</time>
      </trkpt>
      <trkpt lat="47.87287" lon="-1.70375">
        <ele>95</ele>
        <time>2015-06-07T07:41:25Z</time>
      </trkpt>
      <trkpt lat="47.87285" lon="-1.70375">
        <ele>95</ele>
        <time>2015-06-07T07:41:26Z</time>
      </trkpt>
      <trkpt lat="47.87285" lon="-1.70374">
        <ele>95</ele>
        <time>2015-06-07T07:41:27Z</time>
      </trkpt>
      <trkpt lat="47.87283" lon="-1.70373">
        <ele>96</ele>
        <time>2015-06-07T07:41:28Z</time>
      </trkpt>
      <trkpt lat="47.87282" lon="-1.70372">
        <ele>96</ele>
        <time>2015-06-07T07:41:29Z</time>
      </trkpt>
      <trkpt lat="47.87282" lon="-1.7037">
        <ele>96</ele>
        <time>2015-06-07T07:41:30Z</time>
      </trkpt>
      <trkpt lat="47.87281" lon="-1.70369">
        <ele>96</ele>
        <time>2015-06-07T07:41:31Z</time>
      </trkpt>
      <trkpt lat="47.87279" lon="-1.70369">
        <ele>96</ele>
        <time>2015-06-07T07:41:32Z</time>
      </trkpt>
      <trkpt lat="47.87278" lon="-1.70367">
        <ele>96</ele>
        <time>2015-06-07T07:41:33Z</time>
      </trkpt>
      <trkpt lat="47.87275" lon="-1.70367">
        <ele>96</ele>
        <time>2015-06-07T07:41:34Z</time>
      </trkpt>
      <trkpt lat="47.87273" lon="-1.70366">
        <ele>97</ele>
        <time>2015-06-07T07:41:35Z</time>
      </trkpt>
      <trkpt lat="47.87271" lon="-1.70366">
        <ele>97</ele>
        <time>2015-06-07T07:41:36Z</time>
      </trkpt>
      <trkpt lat="47.87268" lon="-1.70366">
        <ele>97</ele>
        <time>2015-06-07T07:41:37Z</time>
      </trkpt>
      <trkpt lat="47.87266" lon="-1.70365">
        <ele>97</ele>
        <time>2015-06-07T07:41:38Z</time>
      </trkpt>
      <trkpt lat="47.87263" lon="-1.70364">
        <ele>97</ele>
        <time>2015-06-07T07:41:39Z</time>
      </trkpt>
      <trkpt lat="47.87261" lon="-1.70363">
        <ele>97</ele>
        <time>2015-06-07T07:41:40Z</time>
      </trkpt>
      <trkpt lat="47.87258" lon="-1.70362">
        <ele>97</ele>
        <time>2015-06-07T07:41:41Z</time>
      </trkpt>
      <trkpt lat="47.87255" lon="-1.7036">
        <ele>97</ele>
        <time>2015-06-07T07:41:42Z</time>
      </trkpt>
      <trkpt lat="47.87252" lon="-1.70358">
        <ele>97</ele>
        <time>2015-06-07T07:41:43Z</time>
      </trkpt>
      <trkpt lat="47.87249" lon="-1.70357">
        <ele>97</ele>
        <time>2015-06-07T07:41:44Z</time>
      </trkpt>
      <trkpt lat="47.87245" lon="-1.70355">
        <ele>97</ele>
        <time>2015-06-07T07:41:45Z</time>
      </trkpt>
      <trkpt lat="47.87242" lon="-1.70354">
        <ele>97</ele>
        <time>2015-06-07T07:41:46Z</time>
      </trkpt>
      <trkpt lat="47.87238" lon="-1.70352">
        <ele>97</ele>
        <time>2015-06-07T07:41:47Z</time>
      </trkpt>
      <trkpt lat="47.87234" lon="-1.70351">
        <ele>97</ele>
        <time>2015-06-07T07:41:48Z</time>
      </trkpt>
      <trkpt lat="47.8723" lon="-1.7035">
        <ele>97</ele>
        <time>2015-06-07T07:41:49Z</time>
      </trkpt>
      <trkpt lat="47.87226" lon="-1.70349">
        <ele>97</ele>
        <time>2015-06-07T07:41:50Z</time>
      </trkpt>
      <trkpt lat="47.87222" lon="-1.70347">
        <ele>97</ele>
        <time>2015-06-07T07:41:51Z</time>
      </trkpt>
      <trkpt lat="47.87218" lon="-1.70346">
        <ele>97</ele>
        <time>2015-06-07T07:41:52Z</time>
      </trkpt>
      <trkpt lat="47.87215" lon="-1.70344">
        <ele>97</ele>
        <time>2015-06-07T07:41:53Z</time>
      </trkpt>
      <trkpt lat="47.87211" lon="-1.70343">
        <ele>97</ele>
        <time>2015-06-07T07:41:54Z</time>
      </trkpt>
      <trkpt lat="47.87207" lon="-1.70342">
        <ele>97</ele>
        <time>2015-06-07T07:41:55Z</time>
      </trkpt>
      <trkpt lat="47.87203" lon="-1.70341">
        <ele>97</ele>
        <time>2015-06-07T07:41:56Z</time>
      </trkpt>
      <trkpt lat="47.87199" lon="-1.70339">
        <ele>96</ele>
        <time>2015-06-07T07:41:57Z</time>
      </trkpt>
      <trkpt lat="47.87196" lon="-1.70338">
        <ele>96</ele>
        <time>2015-06-07T07:41:58Z</time>
      </trkpt>
      <trkpt lat="47.87193" lon="-1.70338">
        <ele>96</ele>
        <time>2015-06-07T07:41:59Z</time>
      </trkpt>
      <trkpt lat="47.87189" lon="-1.7034">
        <ele>96</ele>
        <time>2015-06-07T07:42:00Z</time>
      </trkpt>
      <trkpt lat="47.87186" lon="-1.70344">
        <ele>96</ele>
        <time>2015-06-07T07:42:01Z</time>
      </trkpt>
      <trkpt lat="47.87183" lon="-1.70349">
        <ele>97</ele>
        <time>2015-06-07T07:42:02Z</time>
      </trkpt>
      <trkpt lat="47.8718" lon="-1.70354">
        <ele>96</ele>
        <time>2015-06-07T07:42:03Z</time>
      </trkpt>
      <trkpt lat="47.87177" lon="-1.70359">
        <ele>96</ele>
        <time>2015-06-07T07:42:04Z</time>
      </trkpt>
      <trkpt lat="47.87175" lon="-1.70364">
        <ele>96</ele>
        <time>2015-06-07T07:42:05Z</time>
      </trkpt>
      <trkpt lat="47.87173" lon="-1.70369">
        <ele>96</ele>
        <time>2015-06-07T07:42:06Z</time>
      </trkpt>
      <trkpt lat="47.8717" lon="-1.70375">
        <ele>96</ele>
        <time>2015-06-07T07:42:07Z</time>
      </trkpt>
      <trkpt lat="47.87167" lon="-1.7038">
        <ele>97</ele>
        <time>2015-06-07T07:42:08Z</time>
      </trkpt>
      <trkpt lat="47.87164" lon="-1.70386">
        <ele>97</ele>
        <time>2015-06-07T07:42:09Z</time>
      </trkpt>
      <trkpt lat="47.87162" lon="-1.70391">
        <ele>97</ele>
        <time>2015-06-07T07:42:10Z</time>
      </trkpt>
      <trkpt lat="47.87159" lon="-1.70397">
        <ele>97</ele>
        <time>2015-06-07T07:42:11Z</time>
      </trkpt>
      <trkpt lat="47.87157" lon="-1.70403">
        <ele>97</ele>
        <time>2015-06-07T07:42:12Z</time>
      </trkpt>
      <trkpt lat="47.87154" lon="-1.70409">
        <ele>97</ele>
        <time>2015-06-07T07:42:13Z</time>
      </trkpt>
      <trkpt lat="47.87151" lon="-1.70416">
        <ele>97</ele>
        <time>2015-06-07T07:42:14Z</time>
      </trkpt>
      <trkpt lat="47.87149" lon="-1.70422">
        <ele>97</ele>
        <time>2015-06-07T07:42:15Z</time>
      </trkpt>
      <trkpt lat="47.87146" lon="-1.70429">
        <ele>96</ele>
        <time>2015-06-07T07:42:16Z</time>
      </trkpt>
      <trkpt lat="47.87144" lon="-1.70435">
        <ele>96</ele>
        <time>2015-06-07T07:42:17Z</time>
      </trkpt>
      <trkpt lat="47.87141" lon="-1.70442">
        <ele>96</ele>
        <time>2015-06-07T07:42:18Z</time>
      </trkpt>
      <trkpt lat="47.87139" lon="-1.70449">
        <ele>96</ele>
        <time>2015-06-07T07:42:19Z</time>
      </trkpt>
      <trkpt lat="47.87137" lon="-1.70455">
        <ele>96</ele>
        <time>2015-06-07T07:42:20Z</time>
      </trkpt>
      <trkpt lat="47.87134" lon="-1.70462">
        <ele>96</ele>
        <time>2015-06-07T07:42:21Z</time>
      </trkpt>
      <trkpt lat="47.87132" lon="-1.70469">
        <ele>96</ele>
        <time>2015-06-07T07:42:22Z</time>
      </trkpt>
      <trkpt lat="47.87129" lon="-1.70476">
        <ele>96</ele>
        <time>2015-06-07T07:42:23Z</time>
      </trkpt>
      <trkpt lat="47.87127" lon="-1.70483">
        <ele>96</ele>
        <time>2015-06-07T07:42:24Z</time>
      </trkpt>
      <trkpt lat="47.87124" lon="-1.7049">
        <ele>96</ele>
        <time>2015-06-07T07:42:25Z</time>
      </trkpt>
      <trkpt lat="47.87122" lon="-1.70497">
        <ele>95</ele>
        <time>2015-06-07T07:42:26Z</time>
      </trkpt>
      <trkpt lat="47.8712" lon="-1.70504">
        <ele>95</ele>
        <time>2015-06-07T07:42:27Z</time>
      </trkpt>
      <trkpt lat="47.87117" lon="-1.70511">
        <ele>95</ele>
        <time>2015-06-07T07:42:28Z</time>
      </trkpt>
      <trkpt lat="47.87115" lon="-1.70519">
        <ele>95</ele>
        <time>2015-06-07T07:42:29Z</time>
      </trkpt>
      <trkpt lat="47.87112" lon="-1.70526">
        <ele>95</ele>
        <time>2015-06-07T07:42:30Z</time>
      </trkpt>
      <trkpt lat="47.8711" lon="-1.70533">
        <ele>95</ele>
        <time>2015-06-07T07:42:31Z</time>
      </trkpt>
      <trkpt lat="47.87108" lon="-1.70541">
        <ele>95</ele>
        <time>2015-06-07T07:42:32Z</time>
      </trkpt>
      <trkpt lat="47.87105" lon="-1.70549">
        <ele>95</ele>
        <time>2015-06-07T07:42:33Z</time>
      </trkpt>
      <trkpt lat="47.87103" lon="-1.70556">
        <ele>95</ele>
        <time>2015-06-07T07:42:34Z</time>
      </trkpt>
      <trkpt lat="47.87101" lon="-1.70564">
        <ele>95</ele>
        <time>2015-06-07T07:42:35Z</time>
      </trkpt>
      <trkpt lat="47.87099" lon="-1.70572">
        <ele>95</ele>
        <time>2015-06-07T07:42:36Z</time>
      </trkpt>
      <trkpt lat="47.87097" lon="-1.70579">
        <ele>95</ele>
        <time>2015-06-07T07:42:37Z</time>
      </trkpt>
      <trkpt lat="47.87095" lon="-1.70586">
        <ele>95</ele>
        <time>2015-06-07T07:42:38Z</time>
      </trkpt>
      <trkpt lat="47.87093" lon="-1.70594">
        <ele>95</ele>
        <time>2015-06-07T07:42:39Z</time>
      </trkpt>
      <trkpt lat="47.87091" lon="-1.70602">
        <ele>95</ele>
        <time>2015-06-07T07:42:40Z</time>
      </trkpt>
      <trkpt lat="47.87089" lon="-1.70609">
        <ele>95</ele>
        <time>2015-06-07T07:42:41Z</time>
      </trkpt>
      <trkpt lat="47.87088" lon="-1.70617">
        <ele>95</ele>
        <time>2015-06-07T07:42:42Z</time>
      </trkpt>
      <trkpt lat="47.87086" lon="-1.70624">
        <ele>95</ele>
        <time>2015-06-07T07:42:43Z</time>
      </trkpt>
      <trkpt lat="47.87085" lon="-1.70632">
        <ele>95</ele>
        <time>2015-06-07T07:42:44Z</time>
      </trkpt>
      <trkpt lat="47.87083" lon="-1.70639">
        <ele>95</ele>
        <time>2015-06-07T07:42:45Z</time>
      </trkpt>
      <trkpt lat="47.87081" lon="-1.70646">
        <ele>94</ele>
        <time>2015-06-07T07:42:46Z</time>
      </trkpt>
      <trkpt lat="47.8708" lon="-1.70653">
        <ele>94</ele>
        <time>2015-06-07T07:42:47Z</time>
      </trkpt>
      <trkpt lat="47.87078" lon="-1.7066">
        <ele>94</ele>
        <time>2015-06-07T07:42:48Z</time>
      </trkpt>
      <trkpt lat="47.87077" lon="-1.70666">
        <ele>94</ele>
        <time>2015-06-07T07:42:49Z</time>
      </trkpt>
      <trkpt lat="47.87074" lon="-1.70671">
        <ele>94</ele>
        <time>2015-06-07T07:42:50Z</time>
      </trkpt>
      <trkpt lat="47.87071" lon="-1.70675">
        <ele>93</ele>
        <time>2015-06-07T07:42:51Z</time>
      </trkpt>
      <trkpt lat="47.87068" lon="-1.70679">
        <ele>93</ele>
        <time>2015-06-07T07:42:52Z</time>
      </trkpt>
      <trkpt lat="47.87064" lon="-1.7068">
        <ele>93</ele>
        <time>2015-06-07T07:42:53Z</time>
      </trkpt>
      <trkpt lat="47.87061" lon="-1.70682">
        <ele>93</ele>
        <time>2015-06-07T07:42:54Z</time>
      </trkpt>
      <trkpt lat="47.87058" lon="-1.70682">
        <ele>93</ele>
        <time>2015-06-07T07:42:55Z</time>
      </trkpt>
      <trkpt lat="47.87056" lon="-1.7068">
        <ele>93</ele>
        <time>2015-06-07T07:42:56Z</time>
      </trkpt>
      <trkpt lat="47.87053" lon="-1.70676">
        <ele>93</ele>
        <time>2015-06-07T07:42:57Z</time>
      </trkpt>
      <trkpt lat="47.8705" lon="-1.70672">
        <ele>93</ele>
        <time>2015-06-07T07:42:58Z</time>
      </trkpt>
      <trkpt lat="47.87047" lon="-1.70667">
        <ele>93</ele>
        <time>2015-06-07T07:42:59Z</time>
      </trkpt>
      <trkpt lat="47.87044" lon="-1.70662">
        <ele>93</ele>
        <time>2015-06-07T07:43:00Z</time>
      </trkpt>
      <trkpt lat="47.8704" lon="-1.70656">
        <ele>93</ele>
        <time>2015-06-07T07:43:01Z</time>
      </trkpt>
      <trkpt lat="47.87037" lon="-1.7065">
        <ele>93</ele>
        <time>2015-06-07T07:43:02Z</time>
      </trkpt>
      <trkpt lat="47.87033" lon="-1.70644">
        <ele>94</ele>
        <time>2015-06-07T07:43:03Z</time>
      </trkpt>
      <trkpt lat="47.8703" lon="-1.70639">
        <ele>94</ele>
        <time>2015-06-07T07:43:04Z</time>
      </trkpt>
      <trkpt lat="47.87027" lon="-1.70634">
        <ele>94</ele>
        <time>2015-06-07T07:43:05Z</time>
      </trkpt>
      <trkpt lat="47.87024" lon="-1.70628">
        <ele>94</ele>
        <time>2015-06-07T07:43:06Z</time>
      </trkpt>
      <trkpt lat="47.87021" lon="-1.70623">
        <ele>94</ele>
        <time>2015-06-07T07:43:07Z</time>
      </trkpt>
      <trkpt lat="47.87017" lon="-1.70618">
        <ele>94</ele>
        <time>2015-06-07T07:43:08Z</time>
      </trkpt>
      <trkpt lat="47.87014" lon="-1.70613">
        <ele>95</ele>
        <time>2015-06-07T07:43:09Z</time>
      </trkpt>
      <trkpt lat="47.87011" lon="-1.70608">
        <ele>95</ele>
        <time>2015-06-07T07:43:10Z</time>
      </trkpt>
      <trkpt lat="47.87008" lon="-1.70603">
        <ele>95</ele>
        <time>2015-06-07T07:43:11Z</time>
      </trkpt>
      <trkpt lat="47.87005" lon="-1.70598">
        <ele>95</ele>
        <time>2015-06-07T07:43:12Z</time>
      </trkpt>
      <trkpt lat="47.87003" lon="-1.70592">
        <ele>95</ele>
        <time>2015-06-07T07:43:13Z</time>
      </trkpt>
      <trkpt lat="47.86999" lon="-1.70587">
        <ele>95</ele>
        <time>2015-06-07T07:43:14Z</time>
      </trkpt>
      <trkpt lat="47.86996" lon="-1.70582">
        <ele>96</ele>
        <time>2015-06-07T07:43:15Z</time>
      </trkpt>
      <trkpt lat="47.86993" lon="-1.70576">
        <ele>96</ele>
        <time>2015-06-07T07:43:16Z</time>
      </trkpt>
      <trkpt lat="47.86991" lon="-1.7057">
        <ele>96</ele>
        <time>2015-06-07T07:43:17Z</time>
      </trkpt>
      <trkpt lat="47.86988" lon="-1.70564">
        <ele>96</ele>
        <time>2015-06-07T07:43:18Z</time>
      </trkpt>
      <trkpt lat="47.86985" lon="-1.70558">
        <ele>96</ele>
        <time>2015-06-07T07:43:19Z</time>
      </trkpt>
      <trkpt lat="47.86982" lon="-1.70551">
        <ele>97</ele>
        <time>2015-06-07T07:43:20Z</time>
      </trkpt>
      <trkpt lat="47.86979" lon="-1.70545">
        <ele>97</ele>
        <time>2015-06-07T07:43:21Z</time>
      </trkpt>
      <trkpt lat="47.86976" lon="-1.70539">
        <ele>97</ele>
        <time>2015-06-07T07:43:22Z</time>
      </trkpt>
      <trkpt lat="47.86973" lon="-1.70533">
        <ele>97</ele>
        <time>2015-06-07T07:43:23Z</time>
      </trkpt>
      <trkpt lat="47.8697" lon="-1.70527">
        <ele>97</ele>
        <time>2015-06-07T07:43:24Z</time>
      </trkpt>
      <trkpt lat="47.86967" lon="-1.70521">
        <ele>97</ele>
        <time>2015-06-07T07:43:25Z</time>
      </trkpt>
      <trkpt lat="47.86964" lon="-1.70514">
        <ele>97</ele>
        <time>2015-06-07T07:43:26Z</time>
      </trkpt>
      <trkpt lat="47.86962" lon="-1.70507">
        <ele>97</ele>
        <time>2015-06-07T07:43:27Z</time>
      </trkpt>
      <trkpt lat="47.86959" lon="-1.705">
        <ele>98</ele>
        <time>2015-06-07T07:43:28Z</time>
      </trkpt>
      <trkpt lat="47.86955" lon="-1.70493">
        <ele>98</ele>
        <time>2015-06-07T07:43:29Z</time>
      </trkpt>
      <trkpt lat="47.86952" lon="-1.70486">
        <ele>97</ele>
        <time>2015-06-07T07:43:30Z</time>
      </trkpt>
      <trkpt lat="47.86949" lon="-1.70479">
        <ele>97</ele>
        <time>2015-06-07T07:43:31Z</time>
      </trkpt>
      <trkpt lat="47.86946" lon="-1.70472">
        <ele>97</ele>
        <time>2015-06-07T07:43:32Z</time>
      </trkpt>
      <trkpt lat="47.86943" lon="-1.70465">
        <ele>97</ele>
        <time>2015-06-07T07:43:33Z</time>
      </trkpt>
      <trkpt lat="47.8694" lon="-1.70458">
        <ele>97</ele>
        <time>2015-06-07T07:43:34Z</time>
      </trkpt>
      <trkpt lat="47.86937" lon="-1.70451">
        <ele>97</ele>
        <time>2015-06-07T07:43:35Z</time>
      </trkpt>
      <trkpt lat="47.86934" lon="-1.70445">
        <ele>97</ele>
        <time>2015-06-07T07:43:36Z</time>
      </trkpt>
      <trkpt lat="47.86931" lon="-1.70438">
        <ele>97</ele>
        <time>2015-06-07T07:43:37Z</time>
      </trkpt>
      <trkpt lat="47.86927" lon="-1.70432">
        <ele>97</ele>
        <time>2015-06-07T07:43:38Z</time>
      </trkpt>
      <trkpt lat="47.86924" lon="-1.70424">
        <ele>97</ele>
        <time>2015-06-07T07:43:39Z</time>
      </trkpt>
      <trkpt lat="47.86921" lon="-1.70417">
        <ele>97</ele>
        <time>2015-06-07T07:43:40Z</time>
      </trkpt>
      <trkpt lat="47.86918" lon="-1.70409">
        <ele>97</ele>
        <time>2015-06-07T07:43:41Z</time>
      </trkpt>
      <trkpt lat="47.86915" lon="-1.70402">
        <ele>97</ele>
        <time>2015-06-07T07:43:42Z</time>
      </trkpt>
      <trkpt lat="47.86911" lon="-1.70395">
        <ele>97</ele>
        <time>2015-06-07T07:43:43Z</time>
      </trkpt>
      <trkpt lat="47.86908" lon="-1.70388">
        <ele>97</ele>
        <time>2015-06-07T07:43:44Z</time>
      </trkpt>
      <trkpt lat="47.86905" lon="-1.7038">
        <ele>96</ele>
        <time>2015-06-07T07:43:45Z</time>
      </trkpt>
      <trkpt lat="47.86901" lon="-1.70373">
        <ele>96</ele>
        <time>2015-06-07T07:43:46Z</time>
      </trkpt>
      <trkpt lat="47.86898" lon="-1.70366">
        <ele>96</ele>
        <time>2015-06-07T07:43:47Z</time>
      </trkpt>
      <trkpt lat="47.86895" lon="-1.7036">
        <ele>96</ele>
        <time>2015-06-07T07:43:48Z</time>
      </trkpt>
      <trkpt lat="47.86892" lon="-1.70353">
        <ele>96</ele>
        <time>2015-06-07T07:43:49Z</time>
      </trkpt>
      <trkpt lat="47.86889" lon="-1.70346">
        <ele>96</ele>
        <time>2015-06-07T07:43:50Z</time>
      </trkpt>
      <trkpt lat="47.86886" lon="-1.70339">
        <ele>96</ele>
        <time>2015-06-07T07:43:51Z</time>
      </trkpt>
      <trkpt lat="47.86882" lon="-1.70333">
        <ele>96</ele>
        <time>2015-06-07T07:43:52Z</time>
      </trkpt>
      <trkpt lat="47.86879" lon="-1.70326">
        <ele>96</ele>
        <time>2015-06-07T07:43:53Z</time>
      </trkpt>
      <trkpt lat="47.86875" lon="-1.70319">
        <ele>96</ele>
        <time>2015-06-07T07:43:54Z</time>
      </trkpt>
      <trkpt lat="47.86872" lon="-1.70312">
        <ele>96</ele>
        <time>2015-06-07T07:43:55Z</time>
      </trkpt>
      <trkpt lat="47.86868" lon="-1.70306">
        <ele>96</ele>
        <time>2015-06-07T07:43:56Z</time>
      </trkpt>
      <trkpt lat="47.86864" lon="-1.703">
        <ele>96</ele>
        <time>2015-06-07T07:43:57Z</time>
      </trkpt>
      <trkpt lat="47.86859" lon="-1.70295">
        <ele>96</ele>
        <time>2015-06-07T07:43:58Z</time>
      </trkpt>
      <trkpt lat="47.86854" lon="-1.7029">
        <ele>96</ele>
        <time>2015-06-07T07:43:59Z</time>
      </trkpt>
      <trkpt lat="47.86849" lon="-1.70286">
        <ele>96</ele>
        <time>2015-06-07T07:44:00Z</time>
      </trkpt>
      <trkpt lat="47.86845" lon="-1.70282">
        <ele>96</ele>
        <time>2015-06-07T07:44:01Z</time>
      </trkpt>
      <trkpt lat="47.86839" lon="-1.70278">
        <ele>95</ele>
        <time>2015-06-07T07:44:02Z</time>
      </trkpt>
      <trkpt lat="47.86834" lon="-1.70274">
        <ele>95</ele>
        <time>2015-06-07T07:44:03Z</time>
      </trkpt>
      <trkpt lat="47.86829" lon="-1.7027">
        <ele>95</ele>
        <time>2015-06-07T07:44:04Z</time>
      </trkpt>
      <trkpt lat="47.86824" lon="-1.70267">
        <ele>95</ele>
        <time>2015-06-07T07:44:05Z</time>
      </trkpt>
      <trkpt lat="47.86818" lon="-1.70262">
        <ele>95</ele>
        <time>2015-06-07T07:44:06Z</time>
      </trkpt>
      <trkpt lat="47.86813" lon="-1.70258">
        <ele>95</ele>
        <time>2015-06-07T07:44:07Z</time>
      </trkpt>
      <trkpt lat="47.86808" lon="-1.70253">
        <ele>94</ele>
        <time>2015-06-07T07:44:08Z</time>
      </trkpt>
      <trkpt lat="47.86803" lon="-1.70248">
        <ele>94</ele>
        <time>2015-06-07T07:44:09Z</time>
      </trkpt>
      <trkpt lat="47.86798" lon="-1.70242">
        <ele>94</ele>
        <time>2015-06-07T07:44:10Z</time>
      </trkpt>
      <trkpt lat="47.86793" lon="-1.70236">
        <ele>94</ele>
        <time>2015-06-07T07:44:11Z</time>
      </trkpt>
      <trkpt lat="47.86789" lon="-1.7023">
        <ele>94</ele>
        <time>2015-06-07T07:44:12Z</time>
      </trkpt>
      <trkpt lat="47.86785" lon="-1.70224">
        <ele>93</ele>
        <time>2015-06-07T07:44:13Z</time>
      </trkpt>
      <trkpt lat="47.8678" lon="-1.70217">
        <ele>93</ele>
        <time>2015-06-07T07:44:14Z</time>
      </trkpt>
      <trkpt lat="47.86776" lon="-1.7021">
        <ele>93</ele>
        <time>2015-06-07T07:44:15Z</time>
      </trkpt>
      <trkpt lat="47.86771" lon="-1.70204">
        <ele>92</ele>
        <time>2015-06-07T07:44:16Z</time>
      </trkpt>
      <trkpt lat="47.86766" lon="-1.70198">
        <ele>92</ele>
        <time>2015-06-07T07:44:17Z</time>
      </trkpt>
      <trkpt lat="47.86761" lon="-1.70193">
        <ele>91</ele>
        <time>2015-06-07T07:44:18Z</time>
      </trkpt>
      <trkpt lat="47.86755" lon="-1.70189">
        <ele>91</ele>
        <time>2015-06-07T07:44:19Z</time>
      </trkpt>
      <trkpt lat="47.86749" lon="-1.70188">
        <ele>90</ele>
        <time>2015-06-07T07:44:20Z</time>
      </trkpt>
      <trkpt lat="47.86743" lon="-1.70188">
        <ele>90</ele>
        <time>2015-06-07T07:44:21Z</time>
      </trkpt>
      <trkpt lat="47.86738" lon="-1.70191">
        <ele>89</ele>
        <time>2015-06-07T07:44:22Z</time>
      </trkpt>
      <trkpt lat="47.86734" lon="-1.70195">
        <ele>89</ele>
        <time>2015-06-07T07:44:23Z</time>
      </trkpt>
      <trkpt lat="47.86731" lon="-1.70201">
        <ele>89</ele>
        <time>2015-06-07T07:44:24Z</time>
      </trkpt>
      <trkpt lat="47.8673" lon="-1.70208">
        <ele>89</ele>
        <time>2015-06-07T07:44:25Z</time>
      </trkpt>
      <trkpt lat="47.8673" lon="-1.70215">
        <ele>89</ele>
        <time>2015-06-07T07:44:26Z</time>
      </trkpt>
      <trkpt lat="47.86729" lon="-1.70222">
        <ele>89</ele>
        <time>2015-06-07T07:44:27Z</time>
      </trkpt>
      <trkpt lat="47.86729" lon="-1.70229">
        <ele>89</ele>
        <time>2015-06-07T07:44:28Z</time>
      </trkpt>
      <trkpt lat="47.86729" lon="-1.70237">
        <ele>89</ele>
        <time>2015-06-07T07:44:29Z</time>
      </trkpt>
      <trkpt lat="47.86728" lon="-1.70243">
        <ele>89</ele>
        <time>2015-06-07T07:44:30Z</time>
      </trkpt>
      <trkpt lat="47.86728" lon="-1.7025">
        <ele>89</ele>
        <time>2015-06-07T07:44:31Z</time>
      </trkpt>
      <trkpt lat="47.86727" lon="-1.70257">
        <ele>90</ele>
        <time>2015-06-07T07:44:32Z</time>
      </trkpt>
      <trkpt lat="47.86727" lon="-1.70263">
        <ele>90</ele>
        <time>2015-06-07T07:44:33Z</time>
      </trkpt>
      <trkpt lat="47.86727" lon="-1.7027">
        <ele>90</ele>
        <time>2015-06-07T07:44:34Z</time>
      </trkpt>
      <trkpt lat="47.86727" lon="-1.70276">
        <ele>90</ele>
        <time>2015-06-07T07:44:35Z</time>
      </trkpt>
      <trkpt lat="47.86727" lon="-1.70283">
        <ele>90</ele>
        <time>2015-06-07T07:44:36Z</time>
      </trkpt>
      <trkpt lat="47.86726" lon="-1.70289">
        <ele>90</ele>
        <time>2015-06-07T07:44:37Z</time>
      </trkpt>
      <trkpt lat="47.86725" lon="-1.70295">
        <ele>91</ele>
        <time>2015-06-07T07:44:38Z</time>
      </trkpt>
      <trkpt lat="47.86724" lon="-1.70302">
        <ele>91</ele>
        <time>2015-06-07T07:44:39Z</time>
      </trkpt>
      <trkpt lat="47.86722" lon="-1.70308">
        <ele>91</ele>
        <time>2015-06-07T07:44:40Z</time>
      </trkpt>
      <trkpt lat="47.8672" lon="-1.70315">
        <ele>91</ele>
        <time>2015-06-07T07:44:41Z</time>
      </trkpt>
      <trkpt lat="47.86718" lon="-1.70321">
        <ele>91</ele>
        <time>2015-06-07T07:44:42Z</time>
      </trkpt>
      <trkpt lat="47.86716" lon="-1.70328">
        <ele>91</ele>
        <time>2015-06-07T07:44:43Z</time>
      </trkpt>
      <trkpt lat="47.86714" lon="-1.70334">
        <ele>91</ele>
        <time>2015-06-07T07:44:44Z</time>
      </trkpt>
      <trkpt lat="47.86711" lon="-1.70341">
        <ele>91</ele>
        <time>2015-06-07T07:44:45Z</time>
      </trkpt>
      <trkpt lat="47.86709" lon="-1.70348">
        <ele>91</ele>
        <time>2015-06-07T07:44:46Z</time>
      </trkpt>
      <trkpt lat="47.86707" lon="-1.70355">
        <ele>91</ele>
        <time>2015-06-07T07:44:47Z</time>
      </trkpt>
      <trkpt lat="47.86704" lon="-1.70362">
        <ele>91</ele>
        <time>2015-06-07T07:44:48Z</time>
      </trkpt>
      <trkpt lat="47.86702" lon="-1.70369">
        <ele>91</ele>
        <time>2015-06-07T07:44:49Z</time>
      </trkpt>
      <trkpt lat="47.867" lon="-1.70376">
        <ele>91</ele>
        <time>2015-06-07T07:44:50Z</time>
      </trkpt>
      <trkpt lat="47.86698" lon="-1.70383">
        <ele>91</ele>
        <time>2015-06-07T07:44:51Z</time>
      </trkpt>
      <trkpt lat="47.86696" lon="-1.7039">
        <ele>91</ele>
        <time>2015-06-07T07:44:52Z</time>
      </trkpt>
      <trkpt lat="47.86694" lon="-1.70397">
        <ele>91</ele>
        <time>2015-06-07T07:44:53Z</time>
      </trkpt>
      <trkpt lat="47.86691" lon="-1.70403">
        <ele>91</ele>
        <time>2015-06-07T07:44:54Z</time>
      </trkpt>
      <trkpt lat="47.8669" lon="-1.7041">
        <ele>91</ele>
        <time>2015-06-07T07:44:55Z</time>
      </trkpt>
      <trkpt lat="47.86688" lon="-1.70417">
        <ele>91</ele>
        <time>2015-06-07T07:44:56Z</time>
      </trkpt>
      <trkpt lat="47.86686" lon="-1.70424">
        <ele>91</ele>
        <time>2015-06-07T07:44:57Z</time>
      </trkpt>
      <trkpt lat="47.86684" lon="-1.70432">
        <ele>91</ele>
        <time>2015-06-07T07:44:58Z</time>
      </trkpt>
      <trkpt lat="47.86682" lon="-1.70439">
        <ele>91</ele>
        <time>2015-06-07T07:44:59Z</time>
      </trkpt>
      <trkpt lat="47.8668" lon="-1.70446">
        <ele>91</ele>
        <time>2015-06-07T07:45:00Z</time>
      </trkpt>
      <trkpt lat="47.86678" lon="-1.70453">
        <ele>91</ele>
        <time>2015-06-07T07:45:01Z</time>
      </trkpt>
      <trkpt lat="47.86677" lon="-1.7046">
        <ele>91</ele>
        <time>2015-06-07T07:45:02Z</time>
      </trkpt>
      <trkpt lat="47.86674" lon="-1.70467">
        <ele>91</ele>
        <time>2015-06-07T07:45:03Z</time>
      </trkpt>
      <trkpt lat="47.86672" lon="-1.70474">
        <ele>91</ele>
        <time>2015-06-07T07:45:04Z</time>
      </trkpt>
      <trkpt lat="47.8667" lon="-1.70482">
        <ele>91</ele>
        <time>2015-06-07T07:45:05Z</time>
      </trkpt>
      <trkpt lat="47.86668" lon="-1.7049">
        <ele>91</ele>
        <time>2015-06-07T07:45:06Z</time>
      </trkpt>
      <trkpt lat="47.86666" lon="-1.70497">
        <ele>91</ele>
        <time>2015-06-07T07:45:07Z</time>
      </trkpt>
      <trkpt lat="47.86664" lon="-1.70505">
        <ele>91</ele>
        <time>2015-06-07T07:45:08Z</time>
      </trkpt>
      <trkpt lat="47.86661" lon="-1.70514">
        <ele>91</ele>
        <time>2015-06-07T07:45:09Z</time>
      </trkpt>
      <trkpt lat="47.86658" lon="-1.70522">
        <ele>91</ele>
        <time>2015-06-07T07:45:10Z</time>
      </trkpt>
      <trkpt lat="47.86655" lon="-1.7053">
        <ele>91</ele>
        <time>2015-06-07T07:45:11Z</time>
      </trkpt>
      <trkpt lat="47.86653" lon="-1.70539">
        <ele>91</ele>
        <time>2015-06-07T07:45:12Z</time>
      </trkpt>
      <trkpt lat="47.86652" lon="-1.70548">
        <ele>92</ele>
        <time>2015-06-07T07:45:13Z</time>
      </trkpt>
      <trkpt lat="47.8665" lon="-1.70557">
        <ele>92</ele>
        <time>2015-06-07T07:45:14Z</time>
      </trkpt>
      <trkpt lat="47.86648" lon="-1.70565">
        <ele>92</ele>
        <time>2015-06-07T07:45:15Z</time>
      </trkpt>
      <trkpt lat="47.86647" lon="-1.70573">
        <ele>92</ele>
        <time>2015-06-07T07:45:16Z</time>
      </trkpt>
      <trkpt lat="47.86645" lon="-1.70582">
        <ele>92</ele>
        <time>2015-06-07T07:45:17Z</time>
      </trkpt>
      <trkpt lat="47.86642" lon="-1.70589">
        <ele>93</ele>
        <time>2015-06-07T07:45:18Z</time>
      </trkpt>
      <trkpt lat="47.86639" lon="-1.70596">
        <ele>93</ele>
        <time>2015-06-07T07:45:19Z</time>
      </trkpt>
      <trkpt lat="47.86637" lon="-1.70605">
        <ele>93</ele>
        <time>2015-06-07T07:45:20Z</time>
      </trkpt>
      <trkpt lat="47.86635" lon="-1.70612">
        <ele>93</ele>
        <time>2015-06-07T07:45:21Z</time>
      </trkpt>
      <trkpt lat="47.86633" lon="-1.7062">
        <ele>93</ele>
        <time>2015-06-07T07:45:22Z</time>
      </trkpt>
      <trkpt lat="47.8663" lon="-1.70626">
        <ele>93</ele>
        <time>2015-06-07T07:45:23Z</time>
      </trkpt>
      <trkpt lat="47.86627" lon="-1.70633">
        <ele>93</ele>
        <time>2015-06-07T07:45:24Z</time>
      </trkpt>
      <trkpt lat="47.86624" lon="-1.70641">
        <ele>93</ele>
        <time>2015-06-07T07:45:25Z</time>
      </trkpt>
      <trkpt lat="47.86621" lon="-1.7065">
        <ele>93</ele>
        <time>2015-06-07T07:45:26Z</time>
      </trkpt>
      <trkpt lat="47.86618" lon="-1.70658">
        <ele>93</ele>
        <time>2015-06-07T07:45:27Z</time>
      </trkpt>
      <trkpt lat="47.86615" lon="-1.70667">
        <ele>93</ele>
        <time>2015-06-07T07:45:28Z</time>
      </trkpt>
      <trkpt lat="47.86612" lon="-1.70675">
        <ele>93</ele>
        <time>2015-06-07T07:45:29Z</time>
      </trkpt>
      <trkpt lat="47.86609" lon="-1.70682">
        <ele>92</ele>
        <time>2015-06-07T07:45:30Z</time>
      </trkpt>
      <trkpt lat="47.86607" lon="-1.70688">
        <ele>92</ele>
        <time>2015-06-07T07:45:31Z</time>
      </trkpt>
      <trkpt lat="47.86604" lon="-1.70692">
        <ele>92</ele>
        <time>2015-06-07T07:45:32Z</time>
      </trkpt>
      <trkpt lat="47.86601" lon="-1.70693">
        <ele>92</ele>
        <time>2015-06-07T07:45:33Z</time>
      </trkpt>
      <trkpt lat="47.86599" lon="-1.70692">
        <ele>91</ele>
        <time>2015-06-07T07:45:34Z</time>
      </trkpt>
      <trkpt lat="47.86596" lon="-1.7069">
        <ele>91</ele>
        <time>2015-06-07T07:45:35Z</time>
      </trkpt>
      <trkpt lat="47.86593" lon="-1.70688">
        <ele>91</ele>
        <time>2015-06-07T07:45:36Z</time>
      </trkpt>
      <trkpt lat="47.86589" lon="-1.70685">
        <ele>90</ele>
        <time>2015-06-07T07:45:37Z</time>
      </trkpt>
      <trkpt lat="47.86583" lon="-1.70682">
        <ele>90</ele>
        <time>2015-06-07T07:45:38Z</time>
      </trkpt>
      <trkpt lat="47.86578" lon="-1.7068">
        <ele>90</ele>
        <time>2015-06-07T07:45:39Z</time>
      </trkpt>
      <trkpt lat="47.86573" lon="-1.70676">
        <ele>89</ele>
        <time>2015-06-07T07:45:40Z</time>
      </trkpt>
      <trkpt lat="47.86569" lon="-1.70672">
        <ele>89</ele>
        <time>2015-06-07T07:45:41Z</time>
      </trkpt>
      <trkpt lat="47.86563" lon="-1.70668">
        <ele>89</ele>
        <time>2015-06-07T07:45:42Z</time>
      </trkpt>
      <trkpt lat="47.86557" lon="-1.70662">
        <ele>89</ele>
        <time>2015-06-07T07:45:43Z</time>
      </trkpt>
      <trkpt lat="47.86551" lon="-1.70656">
        <ele>88</ele>
        <time>2015-06-07T07:45:44Z</time>
      </trkpt>
      <trkpt lat="47.86545" lon="-1.70649">
        <ele>88</ele>
        <time>2015-06-07T07:45:45Z</time>
      </trkpt>
      <trkpt lat="47.86539" lon="-1.70642">
        <ele>87</ele>
        <time>2015-06-07T07:45:46Z</time>
      </trkpt>
      <trkpt lat="47.86532" lon="-1.70633">
        <ele>86</ele>
        <time>2015-06-07T07:45:47Z</time>
      </trkpt>
      <trkpt lat="47.86525" lon="-1.70625">
        <ele>86</ele>
        <time>2015-06-07T07:45:48Z</time>
      </trkpt>
      <trkpt lat="47.86518" lon="-1.70617">
        <ele>85</ele>
        <time>2015-06-07T07:45:49Z</time>
      </trkpt>
      <trkpt lat="47.86512" lon="-1.7061">
        <ele>84</ele>
        <time>2015-06-07T07:45:50Z</time>
      </trkpt>
      <trkpt lat="47.86506" lon="-1.70604">
        <ele>84</ele>
        <time>2015-06-07T07:45:51Z</time>
      </trkpt>
      <trkpt lat="47.86501" lon="-1.70599">
        <ele>83</ele>
        <time>2015-06-07T07:45:52Z</time>
      </trkpt>
      <trkpt lat="47.86496" lon="-1.70596">
        <ele>82</ele>
        <time>2015-06-07T07:45:53Z</time>
      </trkpt>
      <trkpt lat="47.8649" lon="-1.70596">
        <ele>82</ele>
        <time>2015-06-07T07:45:54Z</time>
      </trkpt>
      <trkpt lat="47.86488" lon="-1.70598">
        <ele>81</ele>
        <time>2015-06-07T07:45:55Z</time>
      </trkpt>
      <trkpt lat="47.86487" lon="-1.70601">
        <ele>80</ele>
        <time>2015-06-07T07:45:56Z</time>
      </trkpt>
      <trkpt lat="47.86487" lon="-1.70606">
        <ele>79</ele>
        <time>2015-06-07T07:45:57Z</time>
      </trkpt>
      <trkpt lat="47.86488" lon="-1.70611">
        <ele>79</ele>
        <time>2015-06-07T07:45:58Z</time>
      </trkpt>
      <trkpt lat="47.8649" lon="-1.70617">
        <ele>78</ele>
        <time>2015-06-07T07:45:59Z</time>
      </trkpt>
      <trkpt lat="47.86491" lon="-1.70623">
        <ele>78</ele>
        <time>2015-06-07T07:46:00Z</time>
      </trkpt>
      <trkpt lat="47.86493" lon="-1.70629">
        <ele>78</ele>
        <time>2015-06-07T07:46:01Z</time>
      </trkpt>
      <trkpt lat="47.86494" lon="-1.70636">
        <ele>77</ele>
        <time>2015-06-07T07:46:02Z</time>
      </trkpt>
      <trkpt lat="47.86496" lon="-1.70643">
        <ele>77</ele>
        <time>2015-06-07T07:46:03Z</time>
      </trkpt>
      <trkpt lat="47.86497" lon="-1.70649">
        <ele>77</ele>
        <time>2015-06-07T07:46:04Z</time>
      </trkpt>
      <trkpt lat="47.86498" lon="-1.70655">
        <ele>77</ele>
        <time>2015-06-07T07:46:05Z</time>
      </trkpt>
      <trkpt lat="47.865" lon="-1.70661">
        <ele>77</ele>
        <time>2015-06-07T07:46:06Z</time>
      </trkpt>
      <trkpt lat="47.86501" lon="-1.70667">
        <ele>76</ele>
        <time>2015-06-07T07:46:07Z</time>
      </trkpt>
      <trkpt lat="47.86503" lon="-1.70673">
        <ele>76</ele>
        <time>2015-06-07T07:46:08Z</time>
      </trkpt>
      <trkpt lat="47.86504" lon="-1.70678">
        <ele>76</ele>
        <time>2015-06-07T07:46:09Z</time>
      </trkpt>
      <trkpt lat="47.86506" lon="-1.70684">
        <ele>76</ele>
        <time>2015-06-07T07:46:10Z</time>
      </trkpt>
      <trkpt lat="47.86507" lon="-1.70689">
        <ele>76</ele>
        <time>2015-06-07T07:46:11Z</time>
      </trkpt>
      <trkpt lat="47.86509" lon="-1.70695">
        <ele>76</ele>
        <time>2015-06-07T07:46:12Z</time>
      </trkpt>
      <trkpt lat="47.8651" lon="-1.70701">
        <ele>76</ele>
        <time>2015-06-07T07:46:13Z</time>
      </trkpt>
      <trkpt lat="47.86513" lon="-1.70706">
        <ele>76</ele>
        <time>2015-06-07T07:46:14Z</time>
      </trkpt>
      <trkpt lat="47.86514" lon="-1.70712">
        <ele>76</ele>
        <time>2015-06-07T07:46:15Z</time>
      </trkpt>
      <trkpt lat="47.86515" lon="-1.70718">
        <ele>76</ele>
        <time>2015-06-07T07:46:16Z</time>
      </trkpt>
      <trkpt lat="47.86516" lon="-1.70724">
        <ele>76</ele>
        <time>2015-06-07T07:46:17Z</time>
      </trkpt>
      <trkpt lat="47.86516" lon="-1.70729">
        <ele>76</ele>
        <time>2015-06-07T07:46:18Z</time>
      </trkpt>
      <trkpt lat="47.86516" lon="-1.70734">
        <ele>76</ele>
        <time>2015-06-07T07:46:19Z</time>
      </trkpt>
      <trkpt lat="47.86516" lon="-1.7074">
        <ele>76</ele>
        <time>2015-06-07T07:46:20Z</time>
      </trkpt>
      <trkpt lat="47.86516" lon="-1.70747">
        <ele>76</ele>
        <time>2015-06-07T07:46:21Z</time>
      </trkpt>
      <trkpt lat="47.86516" lon="-1.70753">
        <ele>76</ele>
        <time>2015-06-07T07:46:22Z</time>
      </trkpt>
      <trkpt lat="47.86517" lon="-1.7076">
        <ele>76</ele>
        <time>2015-06-07T07:46:23Z</time>
      </trkpt>
      <trkpt lat="47.86518" lon="-1.70767">
        <ele>76</ele>
        <time>2015-06-07T07:46:24Z</time>
      </trkpt>
      <trkpt lat="47.8652" lon="-1.70774">
        <ele>76</ele>
        <time>2015-06-07T07:46:25Z</time>
      </trkpt>
      <trkpt lat="47.86522" lon="-1.70782">
        <ele>76</ele>
        <time>2015-06-07T07:46:26Z</time>
      </trkpt>
      <trkpt lat="47.86524" lon="-1.70788">
        <ele>76</ele>
        <time>2015-06-07T07:46:27Z</time>
      </trkpt>
      <trkpt lat="47.86527" lon="-1.70794">
        <ele>76</ele>
        <time>2015-06-07T07:46:28Z</time>
      </trkpt>
      <trkpt lat="47.86529" lon="-1.70801">
        <ele>76</ele>
        <time>2015-06-07T07:46:29Z</time>
      </trkpt>
      <trkpt lat="47.86531" lon="-1.70808">
        <ele>76</ele>
        <time>2015-06-07T07:46:30Z</time>
      </trkpt>
      <trkpt lat="47.86534" lon="-1.70815">
        <ele>76</ele>
        <time>2015-06-07T07:46:31Z</time>
      </trkpt>
      <trkpt lat="47.86536" lon="-1.70821">
        <ele>76</ele>
        <time>2015-06-07T07:46:32Z</time>
      </trkpt>
      <trkpt lat="47.86538" lon="-1.70827">
        <ele>77</ele>
        <time>2015-06-07T07:46:33Z</time>
      </trkpt>
      <trkpt lat="47.8654" lon="-1.70834">
        <ele>77</ele>
        <time>2015-06-07T07:46:34Z</time>
      </trkpt>
      <trkpt lat="47.86542" lon="-1.7084">
        <ele>77</ele>
        <time>2015-06-07T07:46:35Z</time>
      </trkpt>
      <trkpt lat="47.86544" lon="-1.70846">
        <ele>77</ele>
        <time>2015-06-07T07:46:36Z</time>
      </trkpt>
      <trkpt lat="47.86546" lon="-1.70852">
        <ele>77</ele>
        <time>2015-06-07T07:46:37Z</time>
      </trkpt>
      <trkpt lat="47.86547" lon="-1.70858">
        <ele>77</ele>
        <time>2015-06-07T07:46:38Z</time>
      </trkpt>
      <trkpt lat="47.86548" lon="-1.70864">
        <ele>77</ele>
        <time>2015-06-07T07:46:39Z</time>
      </trkpt>
      <trkpt lat="47.8655" lon="-1.70869">
        <ele>77</ele>
        <time>2015-06-07T07:46:40Z</time>
      </trkpt>
      <trkpt lat="47.86551" lon="-1.70874">
        <ele>77</ele>
        <time>2015-06-07T07:46:41Z</time>
      </trkpt>
      <trkpt lat="47.86552" lon="-1.7088">
        <ele>77</ele>
        <time>2015-06-07T07:46:42Z</time>
      </trkpt>
      <trkpt lat="47.86553" lon="-1.70885">
        <ele>77</ele>
        <time>2015-06-07T07:46:43Z</time>
      </trkpt>
      <trkpt lat="47.86555" lon="-1.70891">
        <ele>78</ele>
        <time>2015-06-07T07:46:44Z</time>
      </trkpt>
      <trkpt lat="47.86557" lon="-1.70897">
        <ele>78</ele>
        <time>2015-06-07T07:46:45Z</time>
      </trkpt>
      <trkpt lat="47.86559" lon="-1.70902">
        <ele>78</ele>
        <time>2015-06-07T07:46:46Z</time>
      </trkpt>
      <trkpt lat="47.8656" lon="-1.70907">
        <ele>78</ele>
        <time>2015-06-07T07:46:47Z</time>
      </trkpt>
      <trkpt lat="47.86563" lon="-1.70912">
        <ele>78</ele>
        <time>2015-06-07T07:46:48Z</time>
      </trkpt>
      <trkpt lat="47.86565" lon="-1.70917">
        <ele>78</ele>
        <time>2015-06-07T07:46:49Z</time>
      </trkpt>
      <trkpt lat="47.86568" lon="-1.70922">
        <ele>78</ele>
        <time>2015-06-07T07:46:50Z</time>
      </trkpt>
      <trkpt lat="47.8657" lon="-1.70927">
        <ele>78</ele>
        <time>2015-06-07T07:46:51Z</time>
      </trkpt>
      <trkpt lat="47.86572" lon="-1.70931">
        <ele>78</ele>
        <time>2015-06-07T07:46:52Z</time>
      </trkpt>
      <trkpt lat="47.86575" lon="-1.70936">
        <ele>79</ele>
        <time>2015-06-07T07:46:53Z</time>
      </trkpt>
      <trkpt lat="47.86576" lon="-1.70939">
        <ele>79</ele>
        <time>2015-06-07T07:46:54Z</time>
      </trkpt>
      <trkpt lat="47.86579" lon="-1.70944">
        <ele>79</ele>
        <time>2015-06-07T07:46:55Z</time>
      </trkpt>
      <trkpt lat="47.86582" lon="-1.70949">
        <ele>79</ele>
        <time>2015-06-07T07:46:56Z</time>
      </trkpt>
      <trkpt lat="47.86585" lon="-1.70954">
        <ele>79</ele>
        <time>2015-06-07T07:46:57Z</time>
      </trkpt>
      <trkpt lat="47.86588" lon="-1.70958">
        <ele>79</ele>
        <time>2015-06-07T07:46:58Z</time>
      </trkpt>
      <trkpt lat="47.8659" lon="-1.70961">
        <ele>79</ele>
        <time>2015-06-07T07:46:59Z</time>
      </trkpt>
      <trkpt lat="47.86593" lon="-1.70964">
        <ele>79</ele>
        <time>2015-06-07T07:47:00Z</time>
      </trkpt>
      <trkpt lat="47.86596" lon="-1.70966">
        <ele>78</ele>
        <time>2015-06-07T07:47:01Z</time>
      </trkpt>
      <trkpt lat="47.86599" lon="-1.70969">
        <ele>78</ele>
        <time>2015-06-07T07:47:02Z</time>
      </trkpt>
      <trkpt lat="47.86603" lon="-1.70973">
        <ele>78</ele>
        <time>2015-06-07T07:47:03Z</time>
      </trkpt>
      <trkpt lat="47.86607" lon="-1.70975">
        <ele>78</ele>
        <time>2015-06-07T07:47:04Z</time>
      </trkpt>
      <trkpt lat="47.86611" lon="-1.70978">
        <ele>78</ele>
        <time>2015-06-07T07:47:05Z</time>
      </trkpt>
      <trkpt lat="47.86615" lon="-1.7098">
        <ele>78</ele>
        <time>2015-06-07T07:47:06Z</time>
      </trkpt>
      <trkpt lat="47.86619" lon="-1.70982">
        <ele>78</ele>
        <time>2015-06-07T07:47:07Z</time>
      </trkpt>
      <trkpt lat="47.86623" lon="-1.70985">
        <ele>79</ele>
        <time>2015-06-07T07:47:08Z</time>
      </trkpt>
      <trkpt lat="47.86626" lon="-1.70988">
        <ele>79</ele>
        <time>2015-06-07T07:47:09Z</time>
      </trkpt>
      <trkpt lat="47.8663" lon="-1.70992">
        <ele>79</ele>
        <time>2015-06-07T07:47:10Z</time>
      </trkpt>
      <trkpt lat="47.86635" lon="-1.70996">
        <ele>79</ele>
        <time>2015-06-07T07:47:11Z</time>
      </trkpt>
      <trkpt lat="47.86639" lon="-1.70999">
        <ele>79</ele>
        <time>2015-06-07T07:47:12Z</time>
      </trkpt>
      <trkpt lat="47.86643" lon="-1.71001">
        <ele>80</ele>
        <time>2015-06-07T07:47:13Z</time>
      </trkpt>
      <trkpt lat="47.86646" lon="-1.71004">
        <ele>80</ele>
        <time>2015-06-07T07:47:14Z</time>
      </trkpt>
      <trkpt lat="47.86647" lon="-1.71006">
        <ele>80</ele>
        <time>2015-06-07T07:47:15Z</time>
      </trkpt>
      <trkpt lat="47.86647" lon="-1.71008">
        <ele>80</ele>
        <time>2015-06-07T07:47:16Z</time>
      </trkpt>
      <trkpt lat="47.86644" lon="-1.7101">
        <ele>80</ele>
        <time>2015-06-07T07:47:17Z</time>
      </trkpt>
      <trkpt lat="47.86641" lon="-1.71011">
        <ele>80</ele>
        <time>2015-06-07T07:47:18Z</time>
      </trkpt>
      <trkpt lat="47.86638" lon="-1.71013">
        <ele>80</ele>
        <time>2015-06-07T07:47:19Z</time>
      </trkpt>
      <trkpt lat="47.86635" lon="-1.71017">
        <ele>80</ele>
        <time>2015-06-07T07:47:20Z</time>
      </trkpt>
      <trkpt lat="47.86632" lon="-1.71022">
        <ele>80</ele>
        <time>2015-06-07T07:47:21Z</time>
      </trkpt>
      <trkpt lat="47.86631" lon="-1.71027">
        <ele>80</ele>
        <time>2015-06-07T07:47:22Z</time>
      </trkpt>
      <trkpt lat="47.8663" lon="-1.71032">
        <ele>81</ele>
        <time>2015-06-07T07:47:23Z</time>
      </trkpt>
      <trkpt lat="47.8663" lon="-1.71038">
        <ele>81</ele>
        <time>2015-06-07T07:47:24Z</time>
      </trkpt>
      <trkpt lat="47.8663" lon="-1.71044">
        <ele>81</ele>
        <time>2015-06-07T07:47:25Z</time>
      </trkpt>
      <trkpt lat="47.86629" lon="-1.71049">
        <ele>81</ele>
        <time>2015-06-07T07:47:26Z</time>
      </trkpt>
      <trkpt lat="47.86628" lon="-1.71055">
        <ele>81</ele>
        <time>2015-06-07T07:47:27Z</time>
      </trkpt>
      <trkpt lat="47.86626" lon="-1.71061">
        <ele>81</ele>
        <time>2015-06-07T07:47:28Z</time>
      </trkpt>
      <trkpt lat="47.86624" lon="-1.71065">
        <ele>81</ele>
        <time>2015-06-07T07:47:29Z</time>
      </trkpt>
      <trkpt lat="47.86621" lon="-1.71068">
        <ele>81</ele>
        <time>2015-06-07T07:47:30Z</time>
      </trkpt>
      <trkpt lat="47.86619" lon="-1.71071">
        <ele>81</ele>
        <time>2015-06-07T07:47:31Z</time>
      </trkpt>
      <trkpt lat="47.86616" lon="-1.71073">
        <ele>82</ele>
        <time>2015-06-07T07:47:32Z</time>
      </trkpt>
      <trkpt lat="47.86614" lon="-1.71075">
        <ele>82</ele>
        <time>2015-06-07T07:47:33Z</time>
      </trkpt>
      <trkpt lat="47.86611" lon="-1.71076">
        <ele>82</ele>
        <time>2015-06-07T07:47:34Z</time>
      </trkpt>
      <trkpt lat="47.86609" lon="-1.71077">
        <ele>82</ele>
        <time>2015-06-07T07:47:35Z</time>
      </trkpt>
      <trkpt lat="47.86607" lon="-1.71078">
        <ele>82</ele>
        <time>2015-06-07T07:47:36Z</time>
      </trkpt>
      <trkpt lat="47.86606" lon="-1.71078">
        <ele>82</ele>
        <time>2015-06-07T07:47:37Z</time>
      </trkpt>
      <trkpt lat="47.86605" lon="-1.71078">
        <ele>82</ele>
        <time>2015-06-07T07:47:38Z</time>
      </trkpt>
      <trkpt lat="47.86604" lon="-1.71078">
        <ele>83</ele>
        <time>2015-06-07T07:47:39Z</time>
      </trkpt>
      <trkpt lat="47.86603" lon="-1.71078">
        <ele>83</ele>
        <time>2015-06-07T07:47:40Z</time>
      </trkpt>
      <trkpt lat="47.86602" lon="-1.71078">
        <ele>83</ele>
        <time>2015-06-07T07:47:41Z</time>
      </trkpt>
      <trkpt lat="47.86601" lon="-1.71078">
        <ele>83</ele>
        <time>2015-06-07T07:47:42Z</time>
      </trkpt>
      <trkpt lat="47.866" lon="-1.71078">
        <ele>83</ele>
        <time>2015-06-07T07:47:43Z</time>
      </trkpt>
      <trkpt lat="47.866" lon="-1.71077">
        <ele>83</ele>
        <time>2015-06-07T07:47:44Z</time>
      </trkpt>
      <trkpt lat="47.86599" lon="-1.71077">
        <ele>83</ele>
        <time>2015-06-07T07:47:45Z</time>
      </trkpt>
      <trkpt lat="47.86597" lon="-1.71077">
        <ele>84</ele>
        <time>2015-06-07T07:47:46Z</time>
      </trkpt>
      <trkpt lat="47.86596" lon="-1.71076">
        <ele>84</ele>
        <time>2015-06-07T07:47:47Z</time>
      </trkpt>
      <trkpt lat="47.86595" lon="-1.71076">
        <ele>84</ele>
        <time>2015-06-07T07:47:48Z</time>
      </trkpt>
      <trkpt lat="47.86593" lon="-1.71075">
        <ele>84</ele>
        <time>2015-06-07T07:47:49Z</time>
      </trkpt>
      <trkpt lat="47.86591" lon="-1.71075">
        <ele>84</ele>
        <time>2015-06-07T07:47:50Z</time>
      </trkpt>
      <trkpt lat="47.86589" lon="-1.71074">
        <ele>84</ele>
        <time>2015-06-07T07:47:51Z</time>
      </trkpt>
      <trkpt lat="47.86586" lon="-1.71073">
        <ele>84</ele>
        <time>2015-06-07T07:47:52Z</time>
      </trkpt>
      <trkpt lat="47.86584" lon="-1.71074">
        <ele>84</ele>
        <time>2015-06-07T07:47:53Z</time>
      </trkpt>
      <trkpt lat="47.86582" lon="-1.71074">
        <ele>84</ele>
        <time>2015-06-07T07:47:54Z</time>
      </trkpt>
      <trkpt lat="47.8658" lon="-1.71075">
        <ele>85</ele>
        <time>2015-06-07T07:47:55Z</time>
      </trkpt>
      <trkpt lat="47.86579" lon="-1.71076">
        <ele>85</ele>
        <time>2015-06-07T07:47:56Z</time>
      </trkpt>
      <trkpt lat="47.86578" lon="-1.71078">
        <ele>85</ele>
        <time>2015-06-07T07:47:57Z</time>
      </trkpt>
      <trkpt lat="47.86576" lon="-1.71079">
        <ele>85</ele>
        <time>2015-06-07T07:47:58Z</time>
      </trkpt>
      <trkpt lat="47.86575" lon="-1.71082">
        <ele>85</ele>
        <time>2015-06-07T07:47:59Z</time>
      </trkpt>
      <trkpt lat="47.86575" lon="-1.71084">
        <ele>85</ele>
        <time>2015-06-07T07:48:00Z</time>
      </trkpt>
      <trkpt lat="47.86574" lon="-1.71085">
        <ele>85</ele>
        <time>2015-06-07T07:48:01Z</time>
      </trkpt>
      <trkpt lat="47.86573" lon="-1.71088">
        <ele>86</ele>
        <time>2015-06-07T07:48:02Z</time>
      </trkpt>
      <trkpt lat="47.86573" lon="-1.7109">
        <ele>86</ele>
        <time>2015-06-07T07:48:03Z</time>
      </trkpt>
      <trkpt lat="47.86572" lon="-1.71093">
        <ele>86</ele>
        <time>2015-06-07T07:48:04Z</time>
      </trkpt>
      <trkpt lat="47.86572" lon="-1.71095">
        <ele>87</ele>
        <time>2015-06-07T07:48:05Z</time>
      </trkpt>
      <trkpt lat="47.86571" lon="-1.71097">
        <ele>87</ele>
        <time>2015-06-07T07:48:06Z</time>
      </trkpt>
      <trkpt lat="47.86571" lon="-1.711">
        <ele>87</ele>
        <time>2015-06-07T07:48:07Z</time>
      </trkpt>
      <trkpt lat="47.8657" lon="-1.71103">
        <ele>87</ele>
        <time>2015-06-07T07:48:08Z</time>
      </trkpt>
      <trkpt lat="47.86569" lon="-1.71105">
        <ele>88</ele>
        <time>2015-06-07T07:48:09Z</time>
      </trkpt>
      <trkpt lat="47.86569" lon="-1.71108">
        <ele>88</ele>
        <time>2015-06-07T07:48:10Z</time>
      </trkpt>
      <trkpt lat="47.86568" lon="-1.7111">
        <ele>88</ele>
        <time>2015-06-07T07:48:11Z</time>
      </trkpt>
      <trkpt lat="47.86567" lon="-1.71112">
        <ele>88</ele>
        <time>2015-06-07T07:48:12Z</time>
      </trkpt>
      <trkpt lat="47.86567" lon="-1.71114">
        <ele>89</ele>
        <time>2015-06-07T07:48:13Z</time>
      </trkpt>
      <trkpt lat="47.86566" lon="-1.71117">
        <ele>89</ele>
        <time>2015-06-07T07:48:14Z</time>
      </trkpt>
      <trkpt lat="47.86566" lon="-1.71119">
        <ele>90</ele>
        <time>2015-06-07T07:48:15Z</time>
      </trkpt>
      <trkpt lat="47.86566" lon="-1.71121">
        <ele>90</ele>
        <time>2015-06-07T07:48:16Z</time>
      </trkpt>
      <trkpt lat="47.86566" lon="-1.71124">
        <ele>90</ele>
        <time>2015-06-07T07:48:17Z</time>
      </trkpt>
      <trkpt lat="47.86566" lon="-1.71127">
        <ele>91</ele>
        <time>2015-06-07T07:48:18Z</time>
      </trkpt>
      <trkpt lat="47.86566" lon="-1.71129">
        <ele>91</ele>
        <time>2015-06-07T07:48:19Z</time>
      </trkpt>
      <trkpt lat="47.86566" lon="-1.71132">
        <ele>91</ele>
        <time>2015-06-07T07:48:20Z</time>
      </trkpt>
      <trkpt lat="47.86566" lon="-1.71135">
        <ele>92</ele>
        <time>2015-06-07T07:48:21Z</time>
      </trkpt>
      <trkpt lat="47.86566" lon="-1.71137">
        <ele>92</ele>
        <time>2015-06-07T07:48:22Z</time>
      </trkpt>
      <trkpt lat="47.86566" lon="-1.71141">
        <ele>92</ele>
        <time>2015-06-07T07:48:23Z</time>
      </trkpt>
      <trkpt lat="47.86566" lon="-1.71144">
        <ele>92</ele>
        <time>2015-06-07T07:48:24Z</time>
      </trkpt>
      <trkpt lat="47.86567" lon="-1.71148">
        <ele>93</ele>
        <time>2015-06-07T07:48:25Z</time>
      </trkpt>
      <trkpt lat="47.86567" lon="-1.71151">
        <ele>93</ele>
        <time>2015-06-07T07:48:26Z</time>
      </trkpt>
      <trkpt lat="47.86568" lon="-1.71155">
        <ele>93</ele>
        <time>2015-06-07T07:48:27Z</time>
      </trkpt>
      <trkpt lat="47.86568" lon="-1.71159">
        <ele>93</ele>
        <time>2015-06-07T07:48:28Z</time>
      </trkpt>
      <trkpt lat="47.86569" lon="-1.71163">
        <ele>93</ele>
        <time>2015-06-07T07:48:29Z</time>
      </trkpt>
      <trkpt lat="47.8657" lon="-1.71167">
        <ele>93</ele>
        <time>2015-06-07T07:48:30Z</time>
      </trkpt>
      <trkpt lat="47.86571" lon="-1.7117">
        <ele>93</ele>
        <time>2015-06-07T07:48:31Z</time>
      </trkpt>
      <trkpt lat="47.86571" lon="-1.71174">
        <ele>93</ele>
        <time>2015-06-07T07:48:32Z</time>
      </trkpt>
      <trkpt lat="47.86571" lon="-1.71178">
        <ele>94</ele>
        <time>2015-06-07T07:48:33Z</time>
      </trkpt>
      <trkpt lat="47.86571" lon="-1.71181">
        <ele>94</ele>
        <time>2015-06-07T07:48:34Z</time>
      </trkpt>
      <trkpt lat="47.86569" lon="-1.71184">
        <ele>94</ele>
        <time>2015-06-07T07:48:35Z</time>
      </trkpt>
      <trkpt lat="47.86568" lon="-1.71187">
        <ele>94</ele>
        <time>2015-06-07T07:48:36Z</time>
      </trkpt>
      <trkpt lat="47.86567" lon="-1.7119">
        <ele>94</ele>
        <time>2015-06-07T07:48:37Z</time>
      </trkpt>
      <trkpt lat="47.86567" lon="-1.71194">
        <ele>95</ele>
        <time>2015-06-07T07:48:38Z</time>
      </trkpt>
      <trkpt lat="47.86566" lon="-1.71198">
        <ele>95</ele>
        <time>2015-06-07T07:48:39Z</time>
      </trkpt>
      <trkpt lat="47.86566" lon="-1.71202">
        <ele>95</ele>
        <time>2015-06-07T07:48:40Z</time>
      </trkpt>
      <trkpt lat="47.86565" lon="-1.71205">
        <ele>95</ele>
        <time>2015-06-07T07:48:41Z</time>
      </trkpt>
      <trkpt lat="47.86564" lon="-1.71209">
        <ele>96</ele>
        <time>2015-06-07T07:48:42Z</time>
      </trkpt>
      <trkpt lat="47.86563" lon="-1.71213">
        <ele>96</ele>
        <time>2015-06-07T07:48:43Z</time>
      </trkpt>
      <trkpt lat="47.86561" lon="-1.71217">
        <ele>96</ele>
        <time>2015-06-07T07:48:44Z</time>
      </trkpt>
      <trkpt lat="47.8656" lon="-1.71218">
        <ele>96</ele>
        <time>2015-06-07T07:48:45Z</time>
      </trkpt>
      <trkpt lat="47.86559" lon="-1.71219">
        <ele>96</ele>
        <time>2015-06-07T07:48:46Z</time>
      </trkpt>
      <trkpt lat="47.86558" lon="-1.71219">
        <ele>97</ele>
        <time>2015-06-07T07:48:47Z</time>
      </trkpt>
      <trkpt lat="47.86556" lon="-1.71218">
        <ele>97</ele>
        <time>2015-06-07T07:48:48Z</time>
      </trkpt>
      <trkpt lat="47.86555" lon="-1.71217">
        <ele>97</ele>
        <time>2015-06-07T07:48:49Z</time>
      </trkpt>
      <trkpt lat="47.86554" lon="-1.71217">
        <ele>97</ele>
        <time>2015-06-07T07:48:50Z</time>
      </trkpt>
      <trkpt lat="47.86552" lon="-1.71216">
        <ele>97</ele>
        <time>2015-06-07T07:48:51Z</time>
      </trkpt>
      <trkpt lat="47.86551" lon="-1.71216">
        <ele>98</ele>
        <time>2015-06-07T07:48:52Z</time>
      </trkpt>
      <trkpt lat="47.86549" lon="-1.71216">
        <ele>98</ele>
        <time>2015-06-07T07:48:53Z</time>
      </trkpt>
      <trkpt lat="47.86548" lon="-1.71215">
        <ele>98</ele>
        <time>2015-06-07T07:48:54Z</time>
      </trkpt>
      <trkpt lat="47.86546" lon="-1.71215">
        <ele>98</ele>
        <time>2015-06-07T07:48:55Z</time>
      </trkpt>
      <trkpt lat="47.86545" lon="-1.71215">
        <ele>99</ele>
        <time>2015-06-07T07:48:56Z</time>
      </trkpt>
      <trkpt lat="47.86543" lon="-1.71215">
        <ele>99</ele>
        <time>2015-06-07T07:48:57Z</time>
      </trkpt>
      <trkpt lat="47.86541" lon="-1.71216">
        <ele>99</ele>
        <time>2015-06-07T07:48:58Z</time>
      </trkpt>
      <trkpt lat="47.86539" lon="-1.71216">
        <ele>100</ele>
        <time>2015-06-07T07:48:59Z</time>
      </trkpt>
      <trkpt lat="47.86536" lon="-1.71217">
        <ele>100</ele>
        <time>2015-06-07T07:49:00Z</time>
      </trkpt>
      <trkpt lat="47.86534" lon="-1.71218">
        <ele>100</ele>
        <time>2015-06-07T07:49:01Z</time>
      </trkpt>
      <trkpt lat="47.86532" lon="-1.71219">
        <ele>101</ele>
        <time>2015-06-07T07:49:02Z</time>
      </trkpt>
      <trkpt lat="47.86529" lon="-1.7122">
        <ele>101</ele>
        <time>2015-06-07T07:49:03Z</time>
      </trkpt>
      <trkpt lat="47.86527" lon="-1.71221">
        <ele>101</ele>
        <time>2015-06-07T07:49:04Z</time>
      </trkpt>
      <trkpt lat="47.86524" lon="-1.71222">
        <ele>102</ele>
        <time>2015-06-07T07:49:05Z</time>
      </trkpt>
      <trkpt lat="47.86521" lon="-1.71223">
        <ele>102</ele>
        <time>2015-06-07T07:49:06Z</time>
      </trkpt>
      <trkpt lat="47.86518" lon="-1.71225">
        <ele>102</ele>
        <time>2015-06-07T07:49:07Z</time>
      </trkpt>
      <trkpt lat="47.86515" lon="-1.71227">
        <ele>103</ele>
        <time>2015-06-07T07:49:08Z</time>
      </trkpt>
      <trkpt lat="47.86513" lon="-1.71229">
        <ele>103</ele>
        <time>2015-06-07T07:49:09Z</time>
      </trkpt>
      <trkpt lat="47.86509" lon="-1.7123">
        <ele>104</ele>
        <time>2015-06-07T07:49:10Z</time>
      </trkpt>
      <trkpt lat="47.86506" lon="-1.71231">
        <ele>104</ele>
        <time>2015-06-07T07:49:11Z</time>
      </trkpt>
      <trkpt lat="47.86503" lon="-1.71233">
        <ele>105</ele>
        <time>2015-06-07T07:49:12Z</time>
      </trkpt>
      <trkpt lat="47.86499" lon="-1.71234">
        <ele>105</ele>
        <time>2015-06-07T07:49:13Z</time>
      </trkpt>
      <trkpt lat="47.86495" lon="-1.71235">
        <ele>105</ele>
        <time>2015-06-07T07:49:14Z</time>
      </trkpt>
      <trkpt lat="47.86491" lon="-1.71236">
        <ele>105</ele>
        <time>2015-06-07T07:49:15Z</time>
      </trkpt>
      <trkpt lat="47.86487" lon="-1.71237">
        <ele>105</ele>
        <time>2015-06-07T07:49:16Z</time>
      </trkpt>
      <trkpt lat="47.86484" lon="-1.71239">
        <ele>106</ele>
        <time>2015-06-07T07:49:17Z</time>
      </trkpt>
      <trkpt lat="47.8648" lon="-1.71239">
        <ele>106</ele>
        <time>2015-06-07T07:49:18Z</time>
      </trkpt>
      <trkpt lat="47.86476" lon="-1.7124">
        <ele>106</ele>
        <time>2015-06-07T07:49:19Z</time>
      </trkpt>
      <trkpt lat="47.86471" lon="-1.71241">
        <ele>106</ele>
        <time>2015-06-07T07:49:20Z</time>
      </trkpt>
      <trkpt lat="47.86466" lon="-1.71242">
        <ele>106</ele>
        <time>2015-06-07T07:49:21Z</time>
      </trkpt>
      <trkpt lat="47.86461" lon="-1.71242">
        <ele>106</ele>
        <time>2015-06-07T07:49:22Z</time>
      </trkpt>
      <trkpt lat="47.86456" lon="-1.71242">
        <ele>106</ele>
        <time>2015-06-07T07:49:23Z</time>
      </trkpt>
      <trkpt lat="47.86451" lon="-1.71241">
        <ele>106</ele>
        <time>2015-06-07T07:49:24Z</time>
      </trkpt>
      <trkpt lat="47.86444" lon="-1.71239">
        <ele>105</ele>
        <time>2015-06-07T07:49:25Z</time>
      </trkpt>
      <trkpt lat="47.86437" lon="-1.71238">
        <ele>105</ele>
        <time>2015-06-07T07:49:26Z</time>
      </trkpt>
      <trkpt lat="47.8643" lon="-1.71237">
        <ele>104</ele>
        <time>2015-06-07T07:49:27Z</time>
      </trkpt>
      <trkpt lat="47.86422" lon="-1.71235">
        <ele>104</ele>
        <time>2015-06-07T07:49:28Z</time>
      </trkpt>
      <trkpt lat="47.86415" lon="-1.71233">
        <ele>103</ele>
        <time>2015-06-07T07:49:29Z</time>
      </trkpt>
      <trkpt lat="47.86407" lon="-1.71231">
        <ele>103</ele>
        <time>2015-06-07T07:49:30Z</time>
      </trkpt>
      <trkpt lat="47.86399" lon="-1.71229">
        <ele>102</ele>
        <time>2015-06-07T07:49:31Z</time>
      </trkpt>
      <trkpt lat="47.86392" lon="-1.71229">
        <ele>101</ele>
        <time>2015-06-07T07:49:32Z</time>
      </trkpt>
      <trkpt lat="47.86385" lon="-1.7123">
        <ele>100</ele>
        <time>2015-06-07T07:49:33Z</time>
      </trkpt>
      <trkpt lat="47.86377" lon="-1.71232">
        <ele>100</ele>
        <time>2015-06-07T07:49:34Z</time>
      </trkpt>
      <trkpt lat="47.8637" lon="-1.71233">
        <ele>99</ele>
        <time>2015-06-07T07:49:35Z</time>
      </trkpt>
      <trkpt lat="47.86362" lon="-1.71235">
        <ele>98</ele>
        <time>2015-06-07T07:49:36Z</time>
      </trkpt>
      <trkpt lat="47.86355" lon="-1.71238">
        <ele>98</ele>
        <time>2015-06-07T07:49:37Z</time>
      </trkpt>
      <trkpt lat="47.86347" lon="-1.7124">
        <ele>97</ele>
        <time>2015-06-07T07:49:38Z</time>
      </trkpt>
      <trkpt lat="47.8634" lon="-1.71243">
        <ele>96</ele>
        <time>2015-06-07T07:49:39Z</time>
      </trkpt>
      <trkpt lat="47.86333" lon="-1.71246">
        <ele>96</ele>
        <time>2015-06-07T07:49:40Z</time>
      </trkpt>
      <trkpt lat="47.86325" lon="-1.7125">
        <ele>95</ele>
        <time>2015-06-07T07:49:41Z</time>
      </trkpt>
      <trkpt lat="47.86319" lon="-1.71253">
        <ele>95</ele>
        <time>2015-06-07T07:49:42Z</time>
      </trkpt>
      <trkpt lat="47.86312" lon="-1.71257">
        <ele>94</ele>
        <time>2015-06-07T07:49:43Z</time>
      </trkpt>
      <trkpt lat="47.86306" lon="-1.71261">
        <ele>94</ele>
        <time>2015-06-07T07:49:44Z</time>
      </trkpt>
      <trkpt lat="47.86299" lon="-1.71264">
        <ele>93</ele>
        <time>2015-06-07T07:49:45Z</time>
      </trkpt>
      <trkpt lat="47.86292" lon="-1.71268">
        <ele>93</ele>
        <time>2015-06-07T07:49:46Z</time>
      </trkpt>
      <trkpt lat="47.86285" lon="-1.71271">
        <ele>92</ele>
        <time>2015-06-07T07:49:47Z</time>
      </trkpt>
      <trkpt lat="47.86279" lon="-1.71275">
        <ele>92</ele>
        <time>2015-06-07T07:49:48Z</time>
      </trkpt>
      <trkpt lat="47.86273" lon="-1.7128">
        <ele>92</ele>
        <time>2015-06-07T07:49:49Z</time>
      </trkpt>
      <trkpt lat="47.86267" lon="-1.71284">
        <ele>91</ele>
        <time>2015-06-07T07:49:50Z</time>
      </trkpt>
      <trkpt lat="47.8626" lon="-1.71288">
        <ele>91</ele>
        <time>2015-06-07T07:49:51Z</time>
      </trkpt>
      <trkpt lat="47.86253" lon="-1.71292">
        <ele>90</ele>
        <time>2015-06-07T07:49:52Z</time>
      </trkpt>
      <trkpt lat="47.86247" lon="-1.71295">
        <ele>90</ele>
        <time>2015-06-07T07:49:53Z</time>
      </trkpt>
      <trkpt lat="47.8624" lon="-1.71299">
        <ele>89</ele>
        <time>2015-06-07T07:49:54Z</time>
      </trkpt>
      <trkpt lat="47.86232" lon="-1.71302">
        <ele>88</ele>
        <time>2015-06-07T07:49:55Z</time>
      </trkpt>
      <trkpt lat="47.86226" lon="-1.71304">
        <ele>88</ele>
        <time>2015-06-07T07:49:56Z</time>
      </trkpt>
      <trkpt lat="47.86221" lon="-1.71304">
        <ele>87</ele>
        <time>2015-06-07T07:49:57Z</time>
      </trkpt>
      <trkpt lat="47.86216" lon="-1.71303">
        <ele>86</ele>
        <time>2015-06-07T07:49:58Z</time>
      </trkpt>
      <trkpt lat="47.86212" lon="-1.71305">
        <ele>86</ele>
        <time>2015-06-07T07:49:59Z</time>
      </trkpt>
      <trkpt lat="47.8621" lon="-1.71308">
        <ele>85</ele>
        <time>2015-06-07T07:50:00Z</time>
      </trkpt>
      <trkpt lat="47.86209" lon="-1.71314">
        <ele>85</ele>
        <time>2015-06-07T07:50:01Z</time>
      </trkpt>
      <trkpt lat="47.86209" lon="-1.7132">
        <ele>84</ele>
        <time>2015-06-07T07:50:02Z</time>
      </trkpt>
      <trkpt lat="47.86208" lon="-1.71327">
        <ele>84</ele>
        <time>2015-06-07T07:50:03Z</time>
      </trkpt>
      <trkpt lat="47.86208" lon="-1.71334">
        <ele>84</ele>
        <time>2015-06-07T07:50:04Z</time>
      </trkpt>
      <trkpt lat="47.86207" lon="-1.71341">
        <ele>84</ele>
        <time>2015-06-07T07:50:05Z</time>
      </trkpt>
      <trkpt lat="47.86207" lon="-1.71348">
        <ele>84</ele>
        <time>2015-06-07T07:50:06Z</time>
      </trkpt>
      <trkpt lat="47.86206" lon="-1.71355">
        <ele>84</ele>
        <time>2015-06-07T07:50:07Z</time>
      </trkpt>
      <trkpt lat="47.86205" lon="-1.71361">
        <ele>83</ele>
        <time>2015-06-07T07:50:08Z</time>
      </trkpt>
      <trkpt lat="47.86204" lon="-1.71368">
        <ele>83</ele>
        <time>2015-06-07T07:50:09Z</time>
      </trkpt>
      <trkpt lat="47.86203" lon="-1.71374">
        <ele>83</ele>
        <time>2015-06-07T07:50:10Z</time>
      </trkpt>
      <trkpt lat="47.86202" lon="-1.7138">
        <ele>83</ele>
        <time>2015-06-07T07:50:11Z</time>
      </trkpt>
      <trkpt lat="47.862" lon="-1.71385">
        <ele>83</ele>
        <time>2015-06-07T07:50:12Z</time>
      </trkpt>
      <trkpt lat="47.86199" lon="-1.7139">
        <ele>83</ele>
        <time>2015-06-07T07:50:13Z</time>
      </trkpt>
      <trkpt lat="47.86198" lon="-1.71396">
        <ele>83</ele>
        <time>2015-06-07T07:50:14Z</time>
      </trkpt>
      <trkpt lat="47.86197" lon="-1.71401">
        <ele>83</ele>
        <time>2015-06-07T07:50:15Z</time>
      </trkpt>
      <trkpt lat="47.86196" lon="-1.71407">
        <ele>83</ele>
        <time>2015-06-07T07:50:16Z</time>
      </trkpt>
      <trkpt lat="47.86195" lon="-1.71412">
        <ele>83</ele>
        <time>2015-06-07T07:50:17Z</time>
      </trkpt>
      <trkpt lat="47.86194" lon="-1.71418">
        <ele>83</ele>
        <time>2015-06-07T07:50:18Z</time>
      </trkpt>
      <trkpt lat="47.86193" lon="-1.71423">
        <ele>83</ele>
        <time>2015-06-07T07:50:19Z</time>
      </trkpt>
      <trkpt lat="47.86192" lon="-1.71429">
        <ele>83</ele>
        <time>2015-06-07T07:50:20Z</time>
      </trkpt>
      <trkpt lat="47.86191" lon="-1.71434">
        <ele>83</ele>
        <time>2015-06-07T07:50:21Z</time>
      </trkpt>
      <trkpt lat="47.8619" lon="-1.71439">
        <ele>84</ele>
        <time>2015-06-07T07:50:22Z</time>
      </trkpt>
      <trkpt lat="47.8619" lon="-1.71444">
        <ele>84</ele>
        <time>2015-06-07T07:50:23Z</time>
      </trkpt>
      <trkpt lat="47.86189" lon="-1.71449">
        <ele>84</ele>
        <time>2015-06-07T07:50:24Z</time>
      </trkpt>
      <trkpt lat="47.86189" lon="-1.71454">
        <ele>84</ele>
        <time>2015-06-07T07:50:25Z</time>
      </trkpt>
      <trkpt lat="47.86189" lon="-1.71459">
        <ele>84</ele>
        <time>2015-06-07T07:50:26Z</time>
      </trkpt>
      <trkpt lat="47.86189" lon="-1.71463">
        <ele>84</ele>
        <time>2015-06-07T07:50:27Z</time>
      </trkpt>
      <trkpt lat="47.86189" lon="-1.71468">
        <ele>84</ele>
        <time>2015-06-07T07:50:28Z</time>
      </trkpt>
      <trkpt lat="47.8619" lon="-1.71473">
        <ele>84</ele>
        <time>2015-06-07T07:50:29Z</time>
      </trkpt>
      <trkpt lat="47.8619" lon="-1.71477">
        <ele>84</ele>
        <time>2015-06-07T07:50:30Z</time>
      </trkpt>
      <trkpt lat="47.86191" lon="-1.71482">
        <ele>85</ele>
        <time>2015-06-07T07:50:31Z</time>
      </trkpt>
      <trkpt lat="47.86192" lon="-1.71486">
        <ele>85</ele>
        <time>2015-06-07T07:50:32Z</time>
      </trkpt>
      <trkpt lat="47.86192" lon="-1.7149">
        <ele>85</ele>
        <time>2015-06-07T07:50:33Z</time>
      </trkpt>
      <trkpt lat="47.86193" lon="-1.71494">
        <ele>85</ele>
        <time>2015-06-07T07:50:34Z</time>
      </trkpt>
      <trkpt lat="47.86194" lon="-1.71498">
        <ele>85</ele>
        <time>2015-06-07T07:50:35Z</time>
      </trkpt>
      <trkpt lat="47.86196" lon="-1.71502">
        <ele>85</ele>
        <time>2015-06-07T07:50:36Z</time>
      </trkpt>
      <trkpt lat="47.86197" lon="-1.71506">
        <ele>85</ele>
        <time>2015-06-07T07:50:37Z</time>
      </trkpt>
      <trkpt lat="47.86198" lon="-1.71511">
        <ele>85</ele>
        <time>2015-06-07T07:50:38Z</time>
      </trkpt>
      <trkpt lat="47.86199" lon="-1.71515">
        <ele>85</ele>
        <time>2015-06-07T07:50:39Z</time>
      </trkpt>
      <trkpt lat="47.86201" lon="-1.71519">
        <ele>85</ele>
        <time>2015-06-07T07:50:40Z</time>
      </trkpt>
      <trkpt lat="47.86202" lon="-1.71524">
        <ele>85</ele>
        <time>2015-06-07T07:50:41Z</time>
      </trkpt>
      <trkpt lat="47.86202" lon="-1.71528">
        <ele>85</ele>
        <time>2015-06-07T07:50:42Z</time>
      </trkpt>
      <trkpt lat="47.86203" lon="-1.71532">
        <ele>85</ele>
        <time>2015-06-07T07:50:43Z</time>
      </trkpt>
      <trkpt lat="47.86204" lon="-1.71537">
        <ele>85</ele>
        <time>2015-06-07T07:50:44Z</time>
      </trkpt>
      <trkpt lat="47.86205" lon="-1.71542">
        <ele>85</ele>
        <time>2015-06-07T07:50:45Z</time>
      </trkpt>
      <trkpt lat="47.86206" lon="-1.71547">
        <ele>86</ele>
        <time>2015-06-07T07:50:46Z</time>
      </trkpt>
      <trkpt lat="47.86206" lon="-1.71551">
        <ele>86</ele>
        <time>2015-06-07T07:50:47Z</time>
      </trkpt>
      <trkpt lat="47.86207" lon="-1.71556">
        <ele>86</ele>
        <time>2015-06-07T07:50:48Z</time>
      </trkpt>
      <trkpt lat="47.86207" lon="-1.71561">
        <ele>86</ele>
        <time>2015-06-07T07:50:49Z</time>
      </trkpt>
      <trkpt lat="47.86208" lon="-1.71565">
        <ele>87</ele>
        <time>2015-06-07T07:50:50Z</time>
      </trkpt>
      <trkpt lat="47.86208" lon="-1.71569">
        <ele>87</ele>
        <time>2015-06-07T07:50:51Z</time>
      </trkpt>
      <trkpt lat="47.86209" lon="-1.71574">
        <ele>87</ele>
        <time>2015-06-07T07:50:52Z</time>
      </trkpt>
      <trkpt lat="47.86209" lon="-1.71578">
        <ele>87</ele>
        <time>2015-06-07T07:50:53Z</time>
      </trkpt>
      <trkpt lat="47.8621" lon="-1.71583">
        <ele>88</ele>
        <time>2015-06-07T07:50:54Z</time>
      </trkpt>
      <trkpt lat="47.8621" lon="-1.71587">
        <ele>88</ele>
        <time>2015-06-07T07:50:55Z</time>
      </trkpt>
      <trkpt lat="47.86211" lon="-1.71591">
        <ele>88</ele>
        <time>2015-06-07T07:50:56Z</time>
      </trkpt>
      <trkpt lat="47.86211" lon="-1.71595">
        <ele>88</ele>
        <time>2015-06-07T07:50:57Z</time>
      </trkpt>
      <trkpt lat="47.86212" lon="-1.71599">
        <ele>88</ele>
        <time>2015-06-07T07:50:58Z</time>
      </trkpt>
      <trkpt lat="47.86213" lon="-1.71603">
        <ele>89</ele>
        <time>2015-06-07T07:50:59Z</time>
      </trkpt>
      <trkpt lat="47.86214" lon="-1.71607">
        <ele>89</ele>
        <time>2015-06-07T07:51:00Z</time>
      </trkpt>
      <trkpt lat="47.86215" lon="-1.71611">
        <ele>89</ele>
        <time>2015-06-07T07:51:01Z</time>
      </trkpt>
      <trkpt lat="47.86215" lon="-1.71616">
        <ele>89</ele>
        <time>2015-06-07T07:51:02Z</time>
      </trkpt>
      <trkpt lat="47.86216" lon="-1.7162">
        <ele>89</ele>
        <time>2015-06-07T07:51:03Z</time>
      </trkpt>
      <trkpt lat="47.86217" lon="-1.71624">
        <ele>90</ele>
        <time>2015-06-07T07:51:04Z</time>
      </trkpt>
      <trkpt lat="47.86217" lon="-1.71629">
        <ele>90</ele>
        <time>2015-06-07T07:51:05Z</time>
      </trkpt>
      <trkpt lat="47.86218" lon="-1.71633">
        <ele>90</ele>
        <time>2015-06-07T07:51:06Z</time>
      </trkpt>
      <trkpt lat="47.86218" lon="-1.71637">
        <ele>90</ele>
        <time>2015-06-07T07:51:07Z</time>
      </trkpt>
      <trkpt lat="47.86219" lon="-1.71642">
        <ele>91</ele>
        <time>2015-06-07T07:51:08Z</time>
      </trkpt>
      <trkpt lat="47.8622" lon="-1.71646">
        <ele>91</ele>
        <time>2015-06-07T07:51:09Z</time>
      </trkpt>
      <trkpt lat="47.86221" lon="-1.7165">
        <ele>91</ele>
        <time>2015-06-07T07:51:10Z</time>
      </trkpt>
      <trkpt lat="47.86222" lon="-1.71655">
        <ele>92</ele>
        <time>2015-06-07T07:51:11Z</time>
      </trkpt>
      <trkpt lat="47.86223" lon="-1.71659">
        <ele>92</ele>
        <time>2015-06-07T07:51:12Z</time>
      </trkpt>
      <trkpt lat="47.86224" lon="-1.71664">
        <ele>92</ele>
        <time>2015-06-07T07:51:13Z</time>
      </trkpt>
      <trkpt lat="47.86225" lon="-1.71668">
        <ele>93</ele>
        <time>2015-06-07T07:51:14Z</time>
      </trkpt>
      <trkpt lat="47.86225" lon="-1.71673">
        <ele>93</ele>
        <time>2015-06-07T07:51:15Z</time>
      </trkpt>
      <trkpt lat="47.86226" lon="-1.71677">
        <ele>93</ele>
        <time>2015-06-07T07:51:16Z</time>
      </trkpt>
      <trkpt lat="47.86227" lon="-1.71681">
        <ele>94</ele>
        <time>2015-06-07T07:51:17Z</time>
      </trkpt>
      <trkpt lat="47.86228" lon="-1.71686">
        <ele>94</ele>
        <time>2015-06-07T07:51:18Z</time>
      </trkpt>
      <trkpt lat="47.86228" lon="-1.7169">
        <ele>94</ele>
        <time>2015-06-07T07:51:19Z</time>
      </trkpt>
      <trkpt lat="47.86229" lon="-1.71695">
        <ele>95</ele>
        <time>2015-06-07T07:51:20Z</time>
      </trkpt>
      <trkpt lat="47.8623" lon="-1.71699">
        <ele>95</ele>
        <time>2015-06-07T07:51:21Z</time>
      </trkpt>
      <trkpt lat="47.86231" lon="-1.71703">
        <ele>95</ele>
        <time>2015-06-07T07:51:22Z</time>
      </trkpt>
      <trkpt lat="47.86232" lon="-1.71708">
        <ele>96</ele>
        <time>2015-06-07T07:51:23Z</time>
      </trkpt>
      <trkpt lat="47.86233" lon="-1.71712">
        <ele>96</ele>
        <time>2015-06-07T07:51:24Z</time>
      </trkpt>
      <trkpt lat="47.86234" lon="-1.71716">
        <ele>96</ele>
        <time>2015-06-07T07:51:25Z</time>
      </trkpt>
      <trkpt lat="47.86235" lon="-1.7172">
        <ele>96</ele>
        <time>2015-06-07T07:51:26Z</time>
      </trkpt>
      <trkpt lat="47.86236" lon="-1.71725">
        <ele>97</ele>
        <time>2015-06-07T07:51:27Z</time>
      </trkpt>
      <trkpt lat="47.86237" lon="-1.71729">
        <ele>97</ele>
        <time>2015-06-07T07:51:28Z</time>
      </trkpt>
      <trkpt lat="47.86237" lon="-1.71734">
        <ele>97</ele>
        <time>2015-06-07T07:51:29Z</time>
      </trkpt>
      <trkpt lat="47.86238" lon="-1.71738">
        <ele>97</ele>
        <time>2015-06-07T07:51:30Z</time>
      </trkpt>
      <trkpt lat="47.86238" lon="-1.71742">
        <ele>97</ele>
        <time>2015-06-07T07:51:31Z</time>
      </trkpt>
      <trkpt lat="47.86239" lon="-1.71747">
        <ele>97</ele>
        <time>2015-06-07T07:51:32Z</time>
      </trkpt>
      <trkpt lat="47.8624" lon="-1.71752">
        <ele>97</ele>
        <time>2015-06-07T07:51:33Z</time>
      </trkpt>
      <trkpt lat="47.86241" lon="-1.71757">
        <ele>97</ele>
        <time>2015-06-07T07:51:34Z</time>
      </trkpt>
      <trkpt lat="47.86241" lon="-1.71762">
        <ele>98</ele>
        <time>2015-06-07T07:51:35Z</time>
      </trkpt>
      <trkpt lat="47.86242" lon="-1.71767">
        <ele>98</ele>
        <time>2015-06-07T07:51:36Z</time>
      </trkpt>
      <trkpt lat="47.86244" lon="-1.71772">
        <ele>98</ele>
        <time>2015-06-07T07:51:37Z</time>
      </trkpt>
      <trkpt lat="47.86244" lon="-1.71777">
        <ele>98</ele>
        <time>2015-06-07T07:51:38Z</time>
      </trkpt>
      <trkpt lat="47.86244" lon="-1.71782">
        <ele>98</ele>
        <time>2015-06-07T07:51:39Z</time>
      </trkpt>
      <trkpt lat="47.86245" lon="-1.71787">
        <ele>98</ele>
        <time>2015-06-07T07:51:40Z</time>
      </trkpt>
      <trkpt lat="47.86246" lon="-1.71793">
        <ele>99</ele>
        <time>2015-06-07T07:51:41Z</time>
      </trkpt>
      <trkpt lat="47.86247" lon="-1.71798">
        <ele>99</ele>
        <time>2015-06-07T07:51:42Z</time>
      </trkpt>
      <trkpt lat="47.86248" lon="-1.71804">
        <ele>99</ele>
        <time>2015-06-07T07:51:43Z</time>
      </trkpt>
      <trkpt lat="47.86249" lon="-1.71809">
        <ele>99</ele>
        <time>2015-06-07T07:51:44Z</time>
      </trkpt>
      <trkpt lat="47.8625" lon="-1.71814">
        <ele>99</ele>
        <time>2015-06-07T07:51:45Z</time>
      </trkpt>
      <trkpt lat="47.86251" lon="-1.71819">
        <ele>99</ele>
        <time>2015-06-07T07:51:46Z</time>
      </trkpt>
      <trkpt lat="47.86252" lon="-1.71823">
        <ele>100</ele>
        <time>2015-06-07T07:51:47Z</time>
      </trkpt>
      <trkpt lat="47.86252" lon="-1.71828">
        <ele>100</ele>
        <time>2015-06-07T07:51:48Z</time>
      </trkpt>
      <trkpt lat="47.86254" lon="-1.71833">
        <ele>100</ele>
        <time>2015-06-07T07:51:49Z</time>
      </trkpt>
      <trkpt lat="47.86255" lon="-1.71839">
        <ele>100</ele>
        <time>2015-06-07T07:51:50Z</time>
      </trkpt>
      <trkpt lat="47.86256" lon="-1.71844">
        <ele>101</ele>
        <time>2015-06-07T07:51:51Z</time>
      </trkpt>
      <trkpt lat="47.86257" lon="-1.71849">
        <ele>101</ele>
        <time>2015-06-07T07:51:52Z</time>
      </trkpt>
      <trkpt lat="47.86258" lon="-1.71854">
        <ele>101</ele>
        <time>2015-06-07T07:51:53Z</time>
      </trkpt>
      <trkpt lat="47.86259" lon="-1.7186">
        <ele>101</ele>
        <time>2015-06-07T07:51:54Z</time>
      </trkpt>
      <trkpt lat="47.8626" lon="-1.71866">
        <ele>102</ele>
        <time>2015-06-07T07:51:55Z</time>
      </trkpt>
      <trkpt lat="47.86261" lon="-1.71872">
        <ele>102</ele>
        <time>2015-06-07T07:51:56Z</time>
      </trkpt>
      <trkpt lat="47.86262" lon="-1.71878">
        <ele>102</ele>
        <time>2015-06-07T07:51:57Z</time>
      </trkpt>
      <trkpt lat="47.86264" lon="-1.71885">
        <ele>102</ele>
        <time>2015-06-07T07:51:58Z</time>
      </trkpt>
      <trkpt lat="47.86265" lon="-1.71891">
        <ele>102</ele>
        <time>2015-06-07T07:51:59Z</time>
      </trkpt>
      <trkpt lat="47.86267" lon="-1.71898">
        <ele>102</ele>
        <time>2015-06-07T07:52:00Z</time>
      </trkpt>
      <trkpt lat="47.86268" lon="-1.71905">
        <ele>102</ele>
        <time>2015-06-07T07:52:01Z</time>
      </trkpt>
      <trkpt lat="47.86269" lon="-1.71911">
        <ele>102</ele>
        <time>2015-06-07T07:52:02Z</time>
      </trkpt>
      <trkpt lat="47.8627" lon="-1.71918">
        <ele>102</ele>
        <time>2015-06-07T07:52:03Z</time>
      </trkpt>
      <trkpt lat="47.86271" lon="-1.71924">
        <ele>102</ele>
        <time>2015-06-07T07:52:04Z</time>
      </trkpt>
      <trkpt lat="47.86273" lon="-1.71931">
        <ele>102</ele>
        <time>2015-06-07T07:52:05Z</time>
      </trkpt>
      <trkpt lat="47.86273" lon="-1.71937">
        <ele>102</ele>
        <time>2015-06-07T07:52:06Z</time>
      </trkpt>
      <trkpt lat="47.86274" lon="-1.71944">
        <ele>102</ele>
        <time>2015-06-07T07:52:07Z</time>
      </trkpt>
      <trkpt lat="47.86276" lon="-1.71951">
        <ele>102</ele>
        <time>2015-06-07T07:52:08Z</time>
      </trkpt>
      <trkpt lat="47.86277" lon="-1.71959">
        <ele>102</ele>
        <time>2015-06-07T07:52:09Z</time>
      </trkpt>
      <trkpt lat="47.8628" lon="-1.71966">
        <ele>102</ele>
        <time>2015-06-07T07:52:10Z</time>
      </trkpt>
      <trkpt lat="47.86281" lon="-1.71973">
        <ele>102</ele>
        <time>2015-06-07T07:52:11Z</time>
      </trkpt>
      <trkpt lat="47.86282" lon="-1.71981">
        <ele>102</ele>
        <time>2015-06-07T07:52:12Z</time>
      </trkpt>
      <trkpt lat="47.86284" lon="-1.71988">
        <ele>102</ele>
        <time>2015-06-07T07:52:13Z</time>
      </trkpt>
      <trkpt lat="47.86285" lon="-1.71996">
        <ele>102</ele>
        <time>2015-06-07T07:52:14Z</time>
      </trkpt>
      <trkpt lat="47.86287" lon="-1.72003">
        <ele>102</ele>
        <time>2015-06-07T07:52:15Z</time>
      </trkpt>
      <trkpt lat="47.86288" lon="-1.72011">
        <ele>102</ele>
        <time>2015-06-07T07:52:16Z</time>
      </trkpt>
      <trkpt lat="47.8629" lon="-1.72018">
        <ele>102</ele>
        <time>2015-06-07T07:52:17Z</time>
      </trkpt>
      <trkpt lat="47.86292" lon="-1.72026">
        <ele>102</ele>
        <time>2015-06-07T07:52:18Z</time>
      </trkpt>
      <trkpt lat="47.86293" lon="-1.72034">
        <ele>102</ele>
        <time>2015-06-07T07:52:19Z</time>
      </trkpt>
      <trkpt lat="47.86295" lon="-1.72042">
        <ele>102</ele>
        <time>2015-06-07T07:52:20Z</time>
      </trkpt>
      <trkpt lat="47.86296" lon="-1.72049">
        <ele>102</ele>
        <time>2015-06-07T07:52:21Z</time>
      </trkpt>
      <trkpt lat="47.86298" lon="-1.72057">
        <ele>102</ele>
        <time>2015-06-07T07:52:22Z</time>
      </trkpt>
      <trkpt lat="47.86299" lon="-1.72064">
        <ele>102</ele>
        <time>2015-06-07T07:52:23Z</time>
      </trkpt>
      <trkpt lat="47.863" lon="-1.7207">
        <ele>102</ele>
        <time>2015-06-07T07:52:24Z</time>
      </trkpt>
      <trkpt lat="47.863" lon="-1.72075">
        <ele>102</ele>
        <time>2015-06-07T07:52:25Z</time>
      </trkpt>
      <trkpt lat="47.863" lon="-1.72079">
        <ele>102</ele>
        <time>2015-06-07T07:52:26Z</time>
      </trkpt>
      <trkpt lat="47.86298" lon="-1.72082">
        <ele>102</ele>
        <time>2015-06-07T07:52:27Z</time>
      </trkpt>
      <trkpt lat="47.86296" lon="-1.72085">
        <ele>102</ele>
        <time>2015-06-07T07:52:28Z</time>
      </trkpt>
      <trkpt lat="47.86293" lon="-1.72089">
        <ele>102</ele>
        <time>2015-06-07T07:52:29Z</time>
      </trkpt>
      <trkpt lat="47.8629" lon="-1.72093">
        <ele>101</ele>
        <time>2015-06-07T07:52:30Z</time>
      </trkpt>
      <trkpt lat="47.86287" lon="-1.72099">
        <ele>101</ele>
        <time>2015-06-07T07:52:31Z</time>
      </trkpt>
      <trkpt lat="47.86283" lon="-1.72105">
        <ele>101</ele>
        <time>2015-06-07T07:52:32Z</time>
      </trkpt>
      <trkpt lat="47.86279" lon="-1.7211">
        <ele>101</ele>
        <time>2015-06-07T07:52:33Z</time>
      </trkpt>
      <trkpt lat="47.86274" lon="-1.72115">
        <ele>101</ele>
        <time>2015-06-07T07:52:34Z</time>
      </trkpt>
      <trkpt lat="47.8627" lon="-1.7212">
        <ele>101</ele>
        <time>2015-06-07T07:52:35Z</time>
      </trkpt>
      <trkpt lat="47.86266" lon="-1.72125">
        <ele>101</ele>
        <time>2015-06-07T07:52:36Z</time>
      </trkpt>
      <trkpt lat="47.86261" lon="-1.72131">
        <ele>101</ele>
        <time>2015-06-07T07:52:37Z</time>
      </trkpt>
      <trkpt lat="47.86256" lon="-1.72136">
        <ele>101</ele>
        <time>2015-06-07T07:52:38Z</time>
      </trkpt>
      <trkpt lat="47.86251" lon="-1.72143">
        <ele>101</ele>
        <time>2015-06-07T07:52:39Z</time>
      </trkpt>
      <trkpt lat="47.86247" lon="-1.7215">
        <ele>101</ele>
        <time>2015-06-07T07:52:40Z</time>
      </trkpt>
      <trkpt lat="47.86241" lon="-1.72157">
        <ele>101</ele>
        <time>2015-06-07T07:52:41Z</time>
      </trkpt>
      <trkpt lat="47.86236" lon="-1.72164">
        <ele>101</ele>
        <time>2015-06-07T07:52:42Z</time>
      </trkpt>
      <trkpt lat="47.8623" lon="-1.7217">
        <ele>101</ele>
        <time>2015-06-07T07:52:43Z</time>
      </trkpt>
      <trkpt lat="47.86224" lon="-1.72178">
        <ele>100</ele>
        <time>2015-06-07T07:52:44Z</time>
      </trkpt>
      <trkpt lat="47.86219" lon="-1.72186">
        <ele>100</ele>
        <time>2015-06-07T07:52:45Z</time>
      </trkpt>
      <trkpt lat="47.86213" lon="-1.72194">
        <ele>99</ele>
        <time>2015-06-07T07:52:46Z</time>
      </trkpt>
      <trkpt lat="47.86207" lon="-1.72201">
        <ele>99</ele>
        <time>2015-06-07T07:52:47Z</time>
      </trkpt>
      <trkpt lat="47.86201" lon="-1.72209">
        <ele>98</ele>
        <time>2015-06-07T07:52:48Z</time>
      </trkpt>
      <trkpt lat="47.86195" lon="-1.72217">
        <ele>98</ele>
        <time>2015-06-07T07:52:49Z</time>
      </trkpt>
      <trkpt lat="47.86189" lon="-1.72225">
        <ele>97</ele>
        <time>2015-06-07T07:52:50Z</time>
      </trkpt>
      <trkpt lat="47.86182" lon="-1.72233">
        <ele>97</ele>
        <time>2015-06-07T07:52:51Z</time>
      </trkpt>
      <trkpt lat="47.86176" lon="-1.72242">
        <ele>96</ele>
        <time>2015-06-07T07:52:52Z</time>
      </trkpt>
      <trkpt lat="47.8617" lon="-1.7225">
        <ele>96</ele>
        <time>2015-06-07T07:52:53Z</time>
      </trkpt>
      <trkpt lat="47.86163" lon="-1.72259">
        <ele>95</ele>
        <time>2015-06-07T07:52:54Z</time>
      </trkpt>
      <trkpt lat="47.86157" lon="-1.72266">
        <ele>94</ele>
        <time>2015-06-07T07:52:55Z</time>
      </trkpt>
      <trkpt lat="47.8615" lon="-1.72274">
        <ele>94</ele>
        <time>2015-06-07T07:52:56Z</time>
      </trkpt>
      <trkpt lat="47.86144" lon="-1.72281">
        <ele>94</ele>
        <time>2015-06-07T07:52:57Z</time>
      </trkpt>
      <trkpt lat="47.86138" lon="-1.72288">
        <ele>93</ele>
        <time>2015-06-07T07:52:58Z</time>
      </trkpt>
      <trkpt lat="47.86132" lon="-1.72296">
        <ele>93</ele>
        <time>2015-06-07T07:52:59Z</time>
      </trkpt>
      <trkpt lat="47.86126" lon="-1.72303">
        <ele>92</ele>
        <time>2015-06-07T07:53:00Z</time>
      </trkpt>
      <trkpt lat="47.86121" lon="-1.72311">
        <ele>92</ele>
        <time>2015-06-07T07:53:01Z</time>
      </trkpt>
      <trkpt lat="47.86115" lon="-1.72319">
        <ele>92</ele>
        <time>2015-06-07T07:53:02Z</time>
      </trkpt>
      <trkpt lat="47.86109" lon="-1.72327">
        <ele>91</ele>
        <time>2015-06-07T07:53:03Z</time>
      </trkpt>
      <trkpt lat="47.86103" lon="-1.72335">
        <ele>91</ele>
        <time>2015-06-07T07:53:04Z</time>
      </trkpt>
      <trkpt lat="47.86097" lon="-1.72343">
        <ele>90</ele>
        <time>2015-06-07T07:53:05Z</time>
      </trkpt>
      <trkpt lat="47.86092" lon="-1.72351">
        <ele>90</ele>
        <time>2015-06-07T07:53:06Z</time>
      </trkpt>
      <trkpt lat="47.86087" lon="-1.72358">
        <ele>89</ele>
        <time>2015-06-07T07:53:07Z</time>
      </trkpt>
      <trkpt lat="47.86082" lon="-1.72366">
        <ele>89</ele>
        <time>2015-06-07T07:53:08Z</time>
      </trkpt>
      <trkpt lat="47.86077" lon="-1.72374">
        <ele>88</ele>
        <time>2015-06-07T07:53:09Z</time>
      </trkpt>
      <trkpt lat="47.86073" lon="-1.72381">
        <ele>88</ele>
        <time>2015-06-07T07:53:10Z</time>
      </trkpt>
      <trkpt lat="47.86068" lon="-1.72389">
        <ele>88</ele>
        <time>2015-06-07T07:53:11Z</time>
      </trkpt>
      <trkpt lat="47.86063" lon="-1.72396">
        <ele>87</ele>
        <time>2015-06-07T07:53:12Z</time>
      </trkpt>
      <trkpt lat="47.86058" lon="-1.72403">
        <ele>87</ele>
        <time>2015-06-07T07:53:13Z</time>
      </trkpt>
      <trkpt lat="47.86053" lon="-1.7241">
        <ele>87</ele>
        <time>2015-06-07T07:53:14Z</time>
      </trkpt>
      <trkpt lat="47.86048" lon="-1.72417">
        <ele>86</ele>
        <time>2015-06-07T07:53:15Z</time>
      </trkpt>
      <trkpt lat="47.86044" lon="-1.72423">
        <ele>86</ele>
        <time>2015-06-07T07:53:16Z</time>
      </trkpt>
      <trkpt lat="47.86039" lon="-1.7243">
        <ele>86</ele>
        <time>2015-06-07T07:53:17Z</time>
      </trkpt>
      <trkpt lat="47.86034" lon="-1.72436">
        <ele>85</ele>
        <time>2015-06-07T07:53:18Z</time>
      </trkpt>
      <trkpt lat="47.8603" lon="-1.72442">
        <ele>85</ele>
        <time>2015-06-07T07:53:19Z</time>
      </trkpt>
      <trkpt lat="47.86025" lon="-1.72448">
        <ele>85</ele>
        <time>2015-06-07T07:53:20Z</time>
      </trkpt>
      <trkpt lat="47.86021" lon="-1.72453">
        <ele>85</ele>
        <time>2015-06-07T07:53:21Z</time>
      </trkpt>
      <trkpt lat="47.86016" lon="-1.7246">
        <ele>84</ele>
        <time>2015-06-07T07:53:22Z</time>
      </trkpt>
      <trkpt lat="47.86011" lon="-1.72467">
        <ele>84</ele>
        <time>2015-06-07T07:53:23Z</time>
      </trkpt>
      <trkpt lat="47.86007" lon="-1.72473">
        <ele>84</ele>
        <time>2015-06-07T07:53:24Z</time>
      </trkpt>
      <trkpt lat="47.86002" lon="-1.72479">
        <ele>84</ele>
        <time>2015-06-07T07:53:25Z</time>
      </trkpt>
      <trkpt lat="47.85997" lon="-1.72486">
        <ele>83</ele>
        <time>2015-06-07T07:53:26Z</time>
      </trkpt>
      <trkpt lat="47.85992" lon="-1.72492">
        <ele>83</ele>
        <time>2015-06-07T07:53:27Z</time>
      </trkpt>
      <trkpt lat="47.85987" lon="-1.72499">
        <ele>83</ele>
        <time>2015-06-07T07:53:28Z</time>
      </trkpt>
      <trkpt lat="47.85982" lon="-1.72505">
        <ele>82</ele>
        <time>2015-06-07T07:53:29Z</time>
      </trkpt>
      <trkpt lat="47.85977" lon="-1.72512">
        <ele>82</ele>
        <time>2015-06-07T07:53:30Z</time>
      </trkpt>
      <trkpt lat="47.85972" lon="-1.72519">
        <ele>82</ele>
        <time>2015-06-07T07:53:31Z</time>
      </trkpt>
      <trkpt lat="47.85966" lon="-1.72526">
        <ele>82</ele>
        <time>2015-06-07T07:53:32Z</time>
      </trkpt>
      <trkpt lat="47.85961" lon="-1.72533">
        <ele>82</ele>
        <time>2015-06-07T07:53:33Z</time>
      </trkpt>
      <trkpt lat="47.85956" lon="-1.72539">
        <ele>82</ele>
        <time>2015-06-07T07:53:34Z</time>
      </trkpt>
      <trkpt lat="47.85951" lon="-1.72546">
        <ele>82</ele>
        <time>2015-06-07T07:53:35Z</time>
      </trkpt>
      <trkpt lat="47.85946" lon="-1.72553">
        <ele>82</ele>
        <time>2015-06-07T07:53:36Z</time>
      </trkpt>
      <trkpt lat="47.85942" lon="-1.72559">
        <ele>82</ele>
        <time>2015-06-07T07:53:37Z</time>
      </trkpt>
      <trkpt lat="47.85937" lon="-1.72566">
        <ele>82</ele>
        <time>2015-06-07T07:53:38Z</time>
      </trkpt>
      <trkpt lat="47.85932" lon="-1.72572">
        <ele>82</ele>
        <time>2015-06-07T07:53:39Z</time>
      </trkpt>
      <trkpt lat="47.85928" lon="-1.72578">
        <ele>82</ele>
        <time>2015-06-07T07:53:40Z</time>
      </trkpt>
      <trkpt lat="47.85923" lon="-1.72584">
        <ele>82</ele>
        <time>2015-06-07T07:53:41Z</time>
      </trkpt>
      <trkpt lat="47.85919" lon="-1.7259">
        <ele>83</ele>
        <time>2015-06-07T07:53:42Z</time>
      </trkpt>
      <trkpt lat="47.85915" lon="-1.72596">
        <ele>83</ele>
        <time>2015-06-07T07:53:43Z</time>
      </trkpt>
      <trkpt lat="47.8591" lon="-1.72602">
        <ele>83</ele>
        <time>2015-06-07T07:53:44Z</time>
      </trkpt>
      <trkpt lat="47.85906" lon="-1.72608">
        <ele>83</ele>
        <time>2015-06-07T07:53:45Z</time>
      </trkpt>
      <trkpt lat="47.85901" lon="-1.72614">
        <ele>83</ele>
        <time>2015-06-07T07:53:46Z</time>
      </trkpt>
      <trkpt lat="47.85897" lon="-1.72619">
        <ele>83</ele>
        <time>2015-06-07T07:53:47Z</time>
      </trkpt>
      <trkpt lat="47.85893" lon="-1.72625">
        <ele>83</ele>
        <time>2015-06-07T07:53:48Z</time>
      </trkpt>
      <trkpt lat="47.85888" lon="-1.7263">
        <ele>83</ele>
        <time>2015-06-07T07:53:49Z</time>
      </trkpt>
      <trkpt lat="47.85884" lon="-1.72636">
        <ele>82</ele>
        <time>2015-06-07T07:53:50Z</time>
      </trkpt>
      <trkpt lat="47.8588" lon="-1.72641">
        <ele>82</ele>
        <time>2015-06-07T07:53:51Z</time>
      </trkpt>
      <trkpt lat="47.85875" lon="-1.72647">
        <ele>82</ele>
        <time>2015-06-07T07:53:52Z</time>
      </trkpt>
      <trkpt lat="47.85871" lon="-1.72652">
        <ele>82</ele>
        <time>2015-06-07T07:53:53Z</time>
      </trkpt>
      <trkpt lat="47.85867" lon="-1.72657">
        <ele>82</ele>
        <time>2015-06-07T07:53:54Z</time>
      </trkpt>
      <trkpt lat="47.85861" lon="-1.72661">
        <ele>82</ele>
        <time>2015-06-07T07:53:55Z</time>
      </trkpt>
      <trkpt lat="47.85856" lon="-1.72664">
        <ele>82</ele>
        <time>2015-06-07T07:53:56Z</time>
      </trkpt>
      <trkpt lat="47.8585" lon="-1.72666">
        <ele>82</ele>
        <time>2015-06-07T07:53:57Z</time>
      </trkpt>
      <trkpt lat="47.85845" lon="-1.72665">
        <ele>82</ele>
        <time>2015-06-07T07:53:58Z</time>
      </trkpt>
      <trkpt lat="47.8584" lon="-1.72663">
        <ele>82</ele>
        <time>2015-06-07T07:53:59Z</time>
      </trkpt>
      <trkpt lat="47.85835" lon="-1.72661">
        <ele>82</ele>
        <time>2015-06-07T07:54:00Z</time>
      </trkpt>
      <trkpt lat="47.85831" lon="-1.72658">
        <ele>82</ele>
        <time>2015-06-07T07:54:01Z</time>
      </trkpt>
      <trkpt lat="47.85827" lon="-1.72657">
        <ele>82</ele>
        <time>2015-06-07T07:54:02Z</time>
      </trkpt>
      <trkpt lat="47.85822" lon="-1.72654">
        <ele>82</ele>
        <time>2015-06-07T07:54:03Z</time>
      </trkpt>
      <trkpt lat="47.85818" lon="-1.72652">
        <ele>83</ele>
        <time>2015-06-07T07:54:04Z</time>
      </trkpt>
      <trkpt lat="47.85814" lon="-1.7265">
        <ele>83</ele>
        <time>2015-06-07T07:54:05Z</time>
      </trkpt>
      <trkpt lat="47.8581" lon="-1.72648">
        <ele>83</ele>
        <time>2015-06-07T07:54:06Z</time>
      </trkpt>
      <trkpt lat="47.85806" lon="-1.72645">
        <ele>83</ele>
        <time>2015-06-07T07:54:07Z</time>
      </trkpt>
      <trkpt lat="47.85802" lon="-1.72643">
        <ele>83</ele>
        <time>2015-06-07T07:54:08Z</time>
      </trkpt>
      <trkpt lat="47.85797" lon="-1.72641">
        <ele>84</ele>
        <time>2015-06-07T07:54:09Z</time>
      </trkpt>
      <trkpt lat="47.85793" lon="-1.72639">
        <ele>84</ele>
        <time>2015-06-07T07:54:10Z</time>
      </trkpt>
      <trkpt lat="47.85789" lon="-1.72637">
        <ele>84</ele>
        <time>2015-06-07T07:54:11Z</time>
      </trkpt>
      <trkpt lat="47.85785" lon="-1.72634">
        <ele>84</ele>
        <time>2015-06-07T07:54:12Z</time>
      </trkpt>
      <trkpt lat="47.8578" lon="-1.72632">
        <ele>84</ele>
        <time>2015-06-07T07:54:13Z</time>
      </trkpt>
      <trkpt lat="47.85776" lon="-1.7263">
        <ele>85</ele>
        <time>2015-06-07T07:54:14Z</time>
      </trkpt>
      <trkpt lat="47.85772" lon="-1.72627">
        <ele>85</ele>
        <time>2015-06-07T07:54:15Z</time>
      </trkpt>
      <trkpt lat="47.85768" lon="-1.72625">
        <ele>85</ele>
        <time>2015-06-07T07:54:16Z</time>
      </trkpt>
      <trkpt lat="47.85763" lon="-1.72623">
        <ele>85</ele>
        <time>2015-06-07T07:54:17Z</time>
      </trkpt>
      <trkpt lat="47.85759" lon="-1.72621">
        <ele>86</ele>
        <time>2015-06-07T07:54:18Z</time>
      </trkpt>
      <trkpt lat="47.85755" lon="-1.72619">
        <ele>86</ele>
        <time>2015-06-07T07:54:19Z</time>
      </trkpt>
      <trkpt lat="47.85751" lon="-1.72617">
        <ele>86</ele>
        <time>2015-06-07T07:54:20Z</time>
      </trkpt>
      <trkpt lat="47.85747" lon="-1.72615">
        <ele>87</ele>
        <time>2015-06-07T07:54:21Z</time>
      </trkpt>
      <trkpt lat="47.85743" lon="-1.72613">
        <ele>87</ele>
        <time>2015-06-07T07:54:22Z</time>
      </trkpt>
      <trkpt lat="47.85739" lon="-1.72611">
        <ele>88</ele>
        <time>2015-06-07T07:54:23Z</time>
      </trkpt>
      <trkpt lat="47.85734" lon="-1.72609">
        <ele>88</ele>
        <time>2015-06-07T07:54:24Z</time>
      </trkpt>
      <trkpt lat="47.8573" lon="-1.72607">
        <ele>88</ele>
        <time>2015-06-07T07:54:25Z</time>
      </trkpt>
      <trkpt lat="47.85726" lon="-1.72606">
        <ele>89</ele>
        <time>2015-06-07T07:54:26Z</time>
      </trkpt>
      <trkpt lat="47.85722" lon="-1.72604">
        <ele>89</ele>
        <time>2015-06-07T07:54:27Z</time>
      </trkpt>
      <trkpt lat="47.85717" lon="-1.72602">
        <ele>90</ele>
        <time>2015-06-07T07:54:28Z</time>
      </trkpt>
      <trkpt lat="47.85713" lon="-1.726">
        <ele>90</ele>
        <time>2015-06-07T07:54:29Z</time>
      </trkpt>
      <trkpt lat="47.85709" lon="-1.72598">
        <ele>90</ele>
        <time>2015-06-07T07:54:30Z</time>
      </trkpt>
      <trkpt lat="47.85705" lon="-1.72597">
        <ele>91</ele>
        <time>2015-06-07T07:54:31Z</time>
      </trkpt>
      <trkpt lat="47.857" lon="-1.72595">
        <ele>91</ele>
        <time>2015-06-07T07:54:32Z</time>
      </trkpt>
      <trkpt lat="47.85696" lon="-1.72594">
        <ele>91</ele>
        <time>2015-06-07T07:54:33Z</time>
      </trkpt>
      <trkpt lat="47.85692" lon="-1.72592">
        <ele>92</ele>
        <time>2015-06-07T07:54:34Z</time>
      </trkpt>
      <trkpt lat="47.85688" lon="-1.7259">
        <ele>92</ele>
        <time>2015-06-07T07:54:35Z</time>
      </trkpt>
      <trkpt lat="47.85684" lon="-1.72588">
        <ele>92</ele>
        <time>2015-06-07T07:54:36Z</time>
      </trkpt>
      <trkpt lat="47.8568" lon="-1.72587">
        <ele>93</ele>
        <time>2015-06-07T07:54:37Z</time>
      </trkpt>
      <trkpt lat="47.85676" lon="-1.72585">
        <ele>93</ele>
        <time>2015-06-07T07:54:38Z</time>
      </trkpt>
      <trkpt lat="47.85671" lon="-1.72583">
        <ele>93</ele>
        <time>2015-06-07T07:54:39Z</time>
      </trkpt>
      <trkpt lat="47.85667" lon="-1.72581">
        <ele>93</ele>
        <time>2015-06-07T07:54:40Z</time>
      </trkpt>
      <trkpt lat="47.85663" lon="-1.7258">
        <ele>94</ele>
        <time>2015-06-07T07:54:41Z</time>
      </trkpt>
      <trkpt lat="47.85659" lon="-1.72578">
        <ele>94</ele>
        <time>2015-06-07T07:54:42Z</time>
      </trkpt>
      <trkpt lat="47.85655" lon="-1.72576">
        <ele>94</ele>
        <time>2015-06-07T07:54:43Z</time>
      </trkpt>
      <trkpt lat="47.85651" lon="-1.72574">
        <ele>94</ele>
        <time>2015-06-07T07:54:44Z</time>
      </trkpt>
      <trkpt lat="47.85647" lon="-1.72572">
        <ele>94</ele>
        <time>2015-06-07T07:54:45Z</time>
      </trkpt>
      <trkpt lat="47.85643" lon="-1.72571">
        <ele>94</ele>
        <time>2015-06-07T07:54:46Z</time>
      </trkpt>
      <trkpt lat="47.85639" lon="-1.72569">
        <ele>94</ele>
        <time>2015-06-07T07:54:47Z</time>
      </trkpt>
      <trkpt lat="47.85634" lon="-1.72567">
        <ele>95</ele>
        <time>2015-06-07T07:54:48Z</time>
      </trkpt>
      <trkpt lat="47.8563" lon="-1.72565">
        <ele>95</ele>
        <time>2015-06-07T07:54:49Z</time>
      </trkpt>
      <trkpt lat="47.85626" lon="-1.72563">
        <ele>95</ele>
        <time>2015-06-07T07:54:50Z</time>
      </trkpt>
      <trkpt lat="47.85622" lon="-1.72562">
        <ele>95</ele>
        <time>2015-06-07T07:54:51Z</time>
      </trkpt>
      <trkpt lat="47.85618" lon="-1.7256">
        <ele>95</ele>
        <time>2015-06-07T07:54:52Z</time>
      </trkpt>
      <trkpt lat="47.85614" lon="-1.72558">
        <ele>95</ele>
        <time>2015-06-07T07:54:53Z</time>
      </trkpt>
      <trkpt lat="47.8561" lon="-1.72556">
        <ele>95</ele>
        <time>2015-06-07T07:54:54Z</time>
      </trkpt>
      <trkpt lat="47.85606" lon="-1.72555">
        <ele>95</ele>
        <time>2015-06-07T07:54:55Z</time>
      </trkpt>
      <trkpt lat="47.85602" lon="-1.72554">
        <ele>95</ele>
        <time>2015-06-07T07:54:56Z</time>
      </trkpt>
      <trkpt lat="47.85598" lon="-1.72552">
        <ele>95</ele>
        <time>2015-06-07T07:54:57Z</time>
      </trkpt>
      <trkpt lat="47.85594" lon="-1.7255">
        <ele>96</ele>
        <time>2015-06-07T07:54:58Z</time>
      </trkpt>
      <trkpt lat="47.8559" lon="-1.72549">
        <ele>96</ele>
        <time>2015-06-07T07:54:59Z</time>
      </trkpt>
      <trkpt lat="47.85586" lon="-1.72547">
        <ele>96</ele>
        <time>2015-06-07T07:55:00Z</time>
      </trkpt>
      <trkpt lat="47.85582" lon="-1.72546">
        <ele>96</ele>
        <time>2015-06-07T07:55:01Z</time>
      </trkpt>
      <trkpt lat="47.85578" lon="-1.72545">
        <ele>96</ele>
        <time>2015-06-07T07:55:02Z</time>
      </trkpt>
      <trkpt lat="47.85574" lon="-1.72545">
        <ele>96</ele>
        <time>2015-06-07T07:55:03Z</time>
      </trkpt>
      <trkpt lat="47.85571" lon="-1.72547">
        <ele>96</ele>
        <time>2015-06-07T07:55:04Z</time>
      </trkpt>
      <trkpt lat="47.85568" lon="-1.7255">
        <ele>96</ele>
        <time>2015-06-07T07:55:05Z</time>
      </trkpt>
      <trkpt lat="47.85566" lon="-1.72554">
        <ele>97</ele>
        <time>2015-06-07T07:55:06Z</time>
      </trkpt>
      <trkpt lat="47.85565" lon="-1.72559">
        <ele>97</ele>
        <time>2015-06-07T07:55:07Z</time>
      </trkpt>
      <trkpt lat="47.85565" lon="-1.72565">
        <ele>97</ele>
        <time>2015-06-07T07:55:08Z</time>
      </trkpt>
      <trkpt lat="47.85565" lon="-1.72571">
        <ele>97</ele>
        <time>2015-06-07T07:55:09Z</time>
      </trkpt>
      <trkpt lat="47.85565" lon="-1.72577">
        <ele>97</ele>
        <time>2015-06-07T07:55:10Z</time>
      </trkpt>
      <trkpt lat="47.85565" lon="-1.72584">
        <ele>97</ele>
        <time>2015-06-07T07:55:11Z</time>
      </trkpt>
      <trkpt lat="47.85564" lon="-1.7259">
        <ele>97</ele>
        <time>2015-06-07T07:55:12Z</time>
      </trkpt>
      <trkpt lat="47.85564" lon="-1.72597">
        <ele>97</ele>
        <time>2015-06-07T07:55:13Z</time>
      </trkpt>
      <trkpt lat="47.85563" lon="-1.72604">
        <ele>97</ele>
        <time>2015-06-07T07:55:14Z</time>
      </trkpt>
      <trkpt lat="47.85562" lon="-1.72611">
        <ele>97</ele>
        <time>2015-06-07T07:55:15Z</time>
      </trkpt>
      <trkpt lat="47.85561" lon="-1.72617">
        <ele>98</ele>
        <time>2015-06-07T07:55:16Z</time>
      </trkpt>
      <trkpt lat="47.8556" lon="-1.72623">
        <ele>98</ele>
        <time>2015-06-07T07:55:17Z</time>
      </trkpt>
      <trkpt lat="47.85558" lon="-1.72629">
        <ele>98</ele>
        <time>2015-06-07T07:55:18Z</time>
      </trkpt>
      <trkpt lat="47.85555" lon="-1.72635">
        <ele>98</ele>
        <time>2015-06-07T07:55:19Z</time>
      </trkpt>
      <trkpt lat="47.85552" lon="-1.7264">
        <ele>98</ele>
        <time>2015-06-07T07:55:20Z</time>
      </trkpt>
      <trkpt lat="47.8555" lon="-1.72645">
        <ele>98</ele>
        <time>2015-06-07T07:55:21Z</time>
      </trkpt>
      <trkpt lat="47.85547" lon="-1.7265">
        <ele>98</ele>
        <time>2015-06-07T07:55:22Z</time>
      </trkpt>
      <trkpt lat="47.85544" lon="-1.72655">
        <ele>98</ele>
        <time>2015-06-07T07:55:23Z</time>
      </trkpt>
      <trkpt lat="47.85541" lon="-1.7266">
        <ele>98</ele>
        <time>2015-06-07T07:55:24Z</time>
      </trkpt>
      <trkpt lat="47.85538" lon="-1.72665">
        <ele>98</ele>
        <time>2015-06-07T07:55:25Z</time>
      </trkpt>
      <trkpt lat="47.85535" lon="-1.7267">
        <ele>99</ele>
        <time>2015-06-07T07:55:26Z</time>
      </trkpt>
      <trkpt lat="47.85532" lon="-1.72676">
        <ele>99</ele>
        <time>2015-06-07T07:55:27Z</time>
      </trkpt>
      <trkpt lat="47.85529" lon="-1.72681">
        <ele>99</ele>
        <time>2015-06-07T07:55:28Z</time>
      </trkpt>
      <trkpt lat="47.85526" lon="-1.72686">
        <ele>99</ele>
        <time>2015-06-07T07:55:29Z</time>
      </trkpt>
      <trkpt lat="47.85522" lon="-1.72691">
        <ele>99</ele>
        <time>2015-06-07T07:55:30Z</time>
      </trkpt>
      <trkpt lat="47.85519" lon="-1.72696">
        <ele>99</ele>
        <time>2015-06-07T07:55:31Z</time>
      </trkpt>
      <trkpt lat="47.85516" lon="-1.72701">
        <ele>100</ele>
        <time>2015-06-07T07:55:32Z</time>
      </trkpt>
      <trkpt lat="47.85513" lon="-1.72706">
        <ele>100</ele>
        <time>2015-06-07T07:55:33Z</time>
      </trkpt>
      <trkpt lat="47.8551" lon="-1.72711">
        <ele>100</ele>
        <time>2015-06-07T07:55:34Z</time>
      </trkpt>
      <trkpt lat="47.85507" lon="-1.72716">
        <ele>100</ele>
        <time>2015-06-07T07:55:35Z</time>
      </trkpt>
      <trkpt lat="47.85504" lon="-1.72722">
        <ele>100</ele>
        <time>2015-06-07T07:55:36Z</time>
      </trkpt>
      <trkpt lat="47.85501" lon="-1.72727">
        <ele>100</ele>
        <time>2015-06-07T07:55:37Z</time>
      </trkpt>
      <trkpt lat="47.85498" lon="-1.72732">
        <ele>101</ele>
        <time>2015-06-07T07:55:38Z</time>
      </trkpt>
      <trkpt lat="47.85495" lon="-1.72737">
        <ele>101</ele>
        <time>2015-06-07T07:55:39Z</time>
      </trkpt>
      <trkpt lat="47.85492" lon="-1.72742">
        <ele>101</ele>
        <time>2015-06-07T07:55:40Z</time>
      </trkpt>
      <trkpt lat="47.85489" lon="-1.72747">
        <ele>101</ele>
        <time>2015-06-07T07:55:41Z</time>
      </trkpt>
      <trkpt lat="47.85486" lon="-1.72752">
        <ele>102</ele>
        <time>2015-06-07T07:55:42Z</time>
      </trkpt>
      <trkpt lat="47.85483" lon="-1.72757">
        <ele>102</ele>
        <time>2015-06-07T07:55:43Z</time>
      </trkpt>
      <trkpt lat="47.8548" lon="-1.72762">
        <ele>102</ele>
        <time>2015-06-07T07:55:44Z</time>
      </trkpt>
      <trkpt lat="47.85477" lon="-1.72767">
        <ele>102</ele>
        <time>2015-06-07T07:55:45Z</time>
      </trkpt>
      <trkpt lat="47.85474" lon="-1.72772">
        <ele>102</ele>
        <time>2015-06-07T07:55:46Z</time>
      </trkpt>
      <trkpt lat="47.85471" lon="-1.72777">
        <ele>103</ele>
        <time>2015-06-07T07:55:47Z</time>
      </trkpt>
      <trkpt lat="47.85468" lon="-1.72782">
        <ele>103</ele>
        <time>2015-06-07T07:55:48Z</time>
      </trkpt>
      <trkpt lat="47.85465" lon="-1.72788">
        <ele>103</ele>
        <time>2015-06-07T07:55:49Z</time>
      </trkpt>
      <trkpt lat="47.85462" lon="-1.72792">
        <ele>103</ele>
        <time>2015-06-07T07:55:50Z</time>
      </trkpt>
      <trkpt lat="47.85459" lon="-1.72798">
        <ele>103</ele>
        <time>2015-06-07T07:55:51Z</time>
      </trkpt>
      <trkpt lat="47.85456" lon="-1.72803">
        <ele>103</ele>
        <time>2015-06-07T07:55:52Z</time>
      </trkpt>
      <trkpt lat="47.85453" lon="-1.72808">
        <ele>104</ele>
        <time>2015-06-07T07:55:53Z</time>
      </trkpt>
      <trkpt lat="47.8545" lon="-1.72813">
        <ele>104</ele>
        <time>2015-06-07T07:55:54Z</time>
      </trkpt>
      <trkpt lat="47.85447" lon="-1.72819">
        <ele>104</ele>
        <time>2015-06-07T07:55:55Z</time>
      </trkpt>
      <trkpt lat="47.85443" lon="-1.72824">
        <ele>104</ele>
        <time>2015-06-07T07:55:56Z</time>
      </trkpt>
      <trkpt lat="47.8544" lon="-1.72829">
        <ele>104</ele>
        <time>2015-06-07T07:55:57Z</time>
      </trkpt>
      <trkpt lat="47.85437" lon="-1.72835">
        <ele>104</ele>
        <time>2015-06-07T07:55:58Z</time>
      </trkpt>
      <trkpt lat="47.85434" lon="-1.7284">
        <ele>104</ele>
        <time>2015-06-07T07:55:59Z</time>
      </trkpt>
      <trkpt lat="47.8543" lon="-1.72846">
        <ele>104</ele>
        <time>2015-06-07T07:56:00Z</time>
      </trkpt>
      <trkpt lat="47.85427" lon="-1.72851">
        <ele>104</ele>
        <time>2015-06-07T07:56:01Z</time>
      </trkpt>
      <trkpt lat="47.85424" lon="-1.72857">
        <ele>104</ele>
        <time>2015-06-07T07:56:02Z</time>
      </trkpt>
      <trkpt lat="47.8542" lon="-1.72863">
        <ele>104</ele>
        <time>2015-06-07T07:56:03Z</time>
      </trkpt>
      <trkpt lat="47.85417" lon="-1.72868">
        <ele>105</ele>
        <time>2015-06-07T07:56:04Z</time>
      </trkpt>
      <trkpt lat="47.85414" lon="-1.72873">
        <ele>105</ele>
        <time>2015-06-07T07:56:05Z</time>
      </trkpt>
      <trkpt lat="47.85411" lon="-1.72878">
        <ele>105</ele>
        <time>2015-06-07T07:56:06Z</time>
      </trkpt>
      <trkpt lat="47.85407" lon="-1.72884">
        <ele>105</ele>
        <time>2015-06-07T07:56:07Z</time>
      </trkpt>
      <trkpt lat="47.85404" lon="-1.72889">
        <ele>105</ele>
        <time>2015-06-07T07:56:08Z</time>
      </trkpt>
      <trkpt lat="47.85401" lon="-1.72894">
        <ele>105</ele>
        <time>2015-06-07T07:56:09Z</time>
      </trkpt>
      <trkpt lat="47.85398" lon="-1.72899">
        <ele>105</ele>
        <time>2015-06-07T07:56:10Z</time>
      </trkpt>
      <trkpt lat="47.85395" lon="-1.72904">
        <ele>105</ele>
        <time>2015-06-07T07:56:11Z</time>
      </trkpt>
      <trkpt lat="47.85392" lon="-1.72909">
        <ele>105</ele>
        <time>2015-06-07T07:56:12Z</time>
      </trkpt>
      <trkpt lat="47.85388" lon="-1.72914">
        <ele>105</ele>
        <time>2015-06-07T07:56:13Z</time>
      </trkpt>
      <trkpt lat="47.85385" lon="-1.72918">
        <ele>105</ele>
        <time>2015-06-07T07:56:14Z</time>
      </trkpt>
      <trkpt lat="47.85382" lon="-1.72922">
        <ele>105</ele>
        <time>2015-06-07T07:56:15Z</time>
      </trkpt>
      <trkpt lat="47.8538" lon="-1.72925">
        <ele>105</ele>
        <time>2015-06-07T07:56:16Z</time>
      </trkpt>
      <trkpt lat="47.85378" lon="-1.72929">
        <ele>105</ele>
        <time>2015-06-07T07:56:17Z</time>
      </trkpt>
      <trkpt lat="47.85376" lon="-1.72933">
        <ele>105</ele>
        <time>2015-06-07T07:56:18Z</time>
      </trkpt>
      <trkpt lat="47.85374" lon="-1.72938">
        <ele>105</ele>
        <time>2015-06-07T07:56:19Z</time>
      </trkpt>
      <trkpt lat="47.8537" lon="-1.72943">
        <ele>105</ele>
        <time>2015-06-07T07:56:20Z</time>
      </trkpt>
      <trkpt lat="47.85366" lon="-1.72947">
        <ele>105</ele>
        <time>2015-06-07T07:56:21Z</time>
      </trkpt>
      <trkpt lat="47.85362" lon="-1.72951">
        <ele>105</ele>
        <time>2015-06-07T07:56:22Z</time>
      </trkpt>
      <trkpt lat="47.85358" lon="-1.72955">
        <ele>105</ele>
        <time>2015-06-07T07:56:23Z</time>
      </trkpt>
      <trkpt lat="47.85353" lon="-1.72959">
        <ele>106</ele>
        <time>2015-06-07T07:56:24Z</time>
      </trkpt>
      <trkpt lat="47.85349" lon="-1.72963">
        <ele>106</ele>
        <time>2015-06-07T07:56:25Z</time>
      </trkpt>
      <trkpt lat="47.85344" lon="-1.72967">
        <ele>106</ele>
        <time>2015-06-07T07:56:26Z</time>
      </trkpt>
      <trkpt lat="47.8534" lon="-1.72971">
        <ele>106</ele>
        <time>2015-06-07T07:56:27Z</time>
      </trkpt>
      <trkpt lat="47.85335" lon="-1.72975">
        <ele>106</ele>
        <time>2015-06-07T07:56:28Z</time>
      </trkpt>
      <trkpt lat="47.85331" lon="-1.7298">
        <ele>106</ele>
        <time>2015-06-07T07:56:29Z</time>
      </trkpt>
      <trkpt lat="47.85326" lon="-1.72984">
        <ele>106</ele>
        <time>2015-06-07T07:56:30Z</time>
      </trkpt>
      <trkpt lat="47.85322" lon="-1.72989">
        <ele>106</ele>
        <time>2015-06-07T07:56:31Z</time>
      </trkpt>
      <trkpt lat="47.85317" lon="-1.72993">
        <ele>106</ele>
        <time>2015-06-07T07:56:32Z</time>
      </trkpt>
      <trkpt lat="47.85312" lon="-1.72999">
        <ele>106</ele>
        <time>2015-06-07T07:56:33Z</time>
      </trkpt>
      <trkpt lat="47.85308" lon="-1.73004">
        <ele>106</ele>
        <time>2015-06-07T07:56:34Z</time>
      </trkpt>
      <trkpt lat="47.85302" lon="-1.7301">
        <ele>106</ele>
        <time>2015-06-07T07:56:35Z</time>
      </trkpt>
      <trkpt lat="47.85298" lon="-1.73016">
        <ele>106</ele>
        <time>2015-06-07T07:56:36Z</time>
      </trkpt>
      <trkpt lat="47.85293" lon="-1.73022">
        <ele>106</ele>
        <time>2015-06-07T07:56:37Z</time>
      </trkpt>
      <trkpt lat="47.85289" lon="-1.73028">
        <ele>106</ele>
        <time>2015-06-07T07:56:38Z</time>
      </trkpt>
      <trkpt lat="47.85283" lon="-1.73034">
        <ele>106</ele>
        <time>2015-06-07T07:56:39Z</time>
      </trkpt>
      <trkpt lat="47.85279" lon="-1.73038">
        <ele>106</ele>
        <time>2015-06-07T07:56:40Z</time>
      </trkpt>
      <trkpt lat="47.85274" lon="-1.73044">
        <ele>106</ele>
        <time>2015-06-07T07:56:41Z</time>
      </trkpt>
      <trkpt lat="47.85269" lon="-1.7305">
        <ele>106</ele>
        <time>2015-06-07T07:56:42Z</time>
      </trkpt>
      <trkpt lat="47.85264" lon="-1.73055">
        <ele>106</ele>
        <time>2015-06-07T07:56:43Z</time>
      </trkpt>
      <trkpt lat="47.85259" lon="-1.73061">
        <ele>106</ele>
        <time>2015-06-07T07:56:44Z</time>
      </trkpt>
      <trkpt lat="47.85254" lon="-1.73066">
        <ele>106</ele>
        <time>2015-06-07T07:56:45Z</time>
      </trkpt>
      <trkpt lat="47.8525" lon="-1.73071">
        <ele>106</ele>
        <time>2015-06-07T07:56:46Z</time>
      </trkpt>
      <trkpt lat="47.85245" lon="-1.73076">
        <ele>106</ele>
        <time>2015-06-07T07:56:47Z</time>
      </trkpt>
      <trkpt lat="47.8524" lon="-1.7308">
        <ele>105</ele>
        <time>2015-06-07T07:56:48Z</time>
      </trkpt>
      <trkpt lat="47.85236" lon="-1.73084">
        <ele>105</ele>
        <time>2015-06-07T07:56:49Z</time>
      </trkpt>
      <trkpt lat="47.85231" lon="-1.73088">
        <ele>105</ele>
        <time>2015-06-07T07:56:50Z</time>
      </trkpt>
      <trkpt lat="47.85227" lon="-1.73092">
        <ele>105</ele>
        <time>2015-06-07T07:56:51Z</time>
      </trkpt>
      <trkpt lat="47.85222" lon="-1.73095">
        <ele>105</ele>
        <time>2015-06-07T07:56:52Z</time>
      </trkpt>
      <trkpt lat="47.85217" lon="-1.73099">
        <ele>105</ele>
        <time>2015-06-07T07:56:53Z</time>
      </trkpt>
      <trkpt lat="47.85212" lon="-1.73104">
        <ele>106</ele>
        <time>2015-06-07T07:56:54Z</time>
      </trkpt>
      <trkpt lat="47.85207" lon="-1.73109">
        <ele>106</ele>
        <time>2015-06-07T07:56:55Z</time>
      </trkpt>
      <trkpt lat="47.85202" lon="-1.73113">
        <ele>106</ele>
        <time>2015-06-07T07:56:56Z</time>
      </trkpt>
      <trkpt lat="47.85197" lon="-1.73117">
        <ele>106</ele>
        <time>2015-06-07T07:56:57Z</time>
      </trkpt>
      <trkpt lat="47.85193" lon="-1.73122">
        <ele>107</ele>
        <time>2015-06-07T07:56:58Z</time>
      </trkpt>
      <trkpt lat="47.85189" lon="-1.73126">
        <ele>107</ele>
        <time>2015-06-07T07:56:59Z</time>
      </trkpt>
      <trkpt lat="47.85185" lon="-1.7313">
        <ele>107</ele>
        <time>2015-06-07T07:57:00Z</time>
      </trkpt>
      <trkpt lat="47.85181" lon="-1.73135">
        <ele>107</ele>
        <time>2015-06-07T07:57:01Z</time>
      </trkpt>
      <trkpt lat="47.85177" lon="-1.7314">
        <ele>107</ele>
        <time>2015-06-07T07:57:02Z</time>
      </trkpt>
      <trkpt lat="47.85173" lon="-1.73144">
        <ele>107</ele>
        <time>2015-06-07T07:57:03Z</time>
      </trkpt>
      <trkpt lat="47.85169" lon="-1.73148">
        <ele>107</ele>
        <time>2015-06-07T07:57:04Z</time>
      </trkpt>
      <trkpt lat="47.85165" lon="-1.73152">
        <ele>107</ele>
        <time>2015-06-07T07:57:05Z</time>
      </trkpt>
      <trkpt lat="47.85161" lon="-1.73157">
        <ele>107</ele>
        <time>2015-06-07T07:57:06Z</time>
      </trkpt>
      <trkpt lat="47.85157" lon="-1.73162">
        <ele>107</ele>
        <time>2015-06-07T07:57:07Z</time>
      </trkpt>
      <trkpt lat="47.85152" lon="-1.73166">
        <ele>107</ele>
        <time>2015-06-07T07:57:08Z</time>
      </trkpt>
      <trkpt lat="47.85148" lon="-1.73171">
        <ele>107</ele>
        <time>2015-06-07T07:57:09Z</time>
      </trkpt>
      <trkpt lat="47.85144" lon="-1.73176">
        <ele>108</ele>
        <time>2015-06-07T07:57:10Z</time>
      </trkpt>
      <trkpt lat="47.8514" lon="-1.73181">
        <ele>108</ele>
        <time>2015-06-07T07:57:11Z</time>
      </trkpt>
      <trkpt lat="47.85136" lon="-1.73185">
        <ele>108</ele>
        <time>2015-06-07T07:57:12Z</time>
      </trkpt>
      <trkpt lat="47.85132" lon="-1.7319">
        <ele>108</ele>
        <time>2015-06-07T07:57:13Z</time>
      </trkpt>
      <trkpt lat="47.85128" lon="-1.73195">
        <ele>108</ele>
        <time>2015-06-07T07:57:14Z</time>
      </trkpt>
      <trkpt lat="47.85124" lon="-1.732">
        <ele>108</ele>
        <time>2015-06-07T07:57:15Z</time>
      </trkpt>
      <trkpt lat="47.85119" lon="-1.73205">
        <ele>108</ele>
        <time>2015-06-07T07:57:16Z</time>
      </trkpt>
      <trkpt lat="47.85115" lon="-1.7321">
        <ele>108</ele>
        <time>2015-06-07T07:57:17Z</time>
      </trkpt>
      <trkpt lat="47.85111" lon="-1.73214">
        <ele>108</ele>
        <time>2015-06-07T07:57:18Z</time>
      </trkpt>
      <trkpt lat="47.85107" lon="-1.73219">
        <ele>108</ele>
        <time>2015-06-07T07:57:19Z</time>
      </trkpt>
      <trkpt lat="47.85102" lon="-1.73225">
        <ele>108</ele>
        <time>2015-06-07T07:57:20Z</time>
      </trkpt>
      <trkpt lat="47.85098" lon="-1.73229">
        <ele>108</ele>
        <time>2015-06-07T07:57:21Z</time>
      </trkpt>
      <trkpt lat="47.85094" lon="-1.73233">
        <ele>108</ele>
        <time>2015-06-07T07:57:22Z</time>
      </trkpt>
      <trkpt lat="47.8509" lon="-1.73238">
        <ele>108</ele>
        <time>2015-06-07T07:57:23Z</time>
      </trkpt>
      <trkpt lat="47.85087" lon="-1.73243">
        <ele>108</ele>
        <time>2015-06-07T07:57:24Z</time>
      </trkpt>
      <trkpt lat="47.85084" lon="-1.73247">
        <ele>108</ele>
        <time>2015-06-07T07:57:25Z</time>
      </trkpt>
      <trkpt lat="47.8508" lon="-1.73252">
        <ele>108</ele>
        <time>2015-06-07T07:57:26Z</time>
      </trkpt>
      <trkpt lat="47.85077" lon="-1.73256">
        <ele>109</ele>
        <time>2015-06-07T07:57:27Z</time>
      </trkpt>
      <trkpt lat="47.85074" lon="-1.7326">
        <ele>109</ele>
        <time>2015-06-07T07:57:28Z</time>
      </trkpt>
      <trkpt lat="47.85072" lon="-1.73264">
        <ele>109</ele>
        <time>2015-06-07T07:57:29Z</time>
      </trkpt>
      <trkpt lat="47.8507" lon="-1.73267">
        <ele>109</ele>
        <time>2015-06-07T07:57:30Z</time>
      </trkpt>
      <trkpt lat="47.85067" lon="-1.73269">
        <ele>108</ele>
        <time>2015-06-07T07:57:31Z</time>
      </trkpt>
      <trkpt lat="47.85064" lon="-1.73272">
        <ele>108</ele>
        <time>2015-06-07T07:57:32Z</time>
      </trkpt>
      <trkpt lat="47.85061" lon="-1.73276">
        <ele>108</ele>
        <time>2015-06-07T07:57:33Z</time>
      </trkpt>
      <trkpt lat="47.85058" lon="-1.7328">
        <ele>108</ele>
        <time>2015-06-07T07:57:34Z</time>
      </trkpt>
      <trkpt lat="47.85055" lon="-1.73284">
        <ele>108</ele>
        <time>2015-06-07T07:57:35Z</time>
      </trkpt>
      <trkpt lat="47.85051" lon="-1.73287">
        <ele>109</ele>
        <time>2015-06-07T07:57:36Z</time>
      </trkpt>
      <trkpt lat="47.85047" lon="-1.73292">
        <ele>109</ele>
        <time>2015-06-07T07:57:37Z</time>
      </trkpt>
      <trkpt lat="47.85043" lon="-1.73296">
        <ele>109</ele>
        <time>2015-06-07T07:57:38Z</time>
      </trkpt>
      <trkpt lat="47.8504" lon="-1.733">
        <ele>109</ele>
        <time>2015-06-07T07:57:39Z</time>
      </trkpt>
      <trkpt lat="47.85036" lon="-1.73304">
        <ele>109</ele>
        <time>2015-06-07T07:57:40Z</time>
      </trkpt>
      <trkpt lat="47.85032" lon="-1.73308">
        <ele>109</ele>
        <time>2015-06-07T07:57:41Z</time>
      </trkpt>
      <trkpt lat="47.85028" lon="-1.73313">
        <ele>109</ele>
        <time>2015-06-07T07:57:42Z</time>
      </trkpt>
      <trkpt lat="47.85026" lon="-1.73318">
        <ele>110</ele>
        <time>2015-06-07T07:57:43Z</time>
      </trkpt>
      <trkpt lat="47.85025" lon="-1.73323">
        <ele>110</ele>
        <time>2015-06-07T07:57:44Z</time>
      </trkpt>
      <trkpt lat="47.85024" lon="-1.73328">
        <ele>110</ele>
        <time>2015-06-07T07:57:45Z</time>
      </trkpt>
      <trkpt lat="47.85023" lon="-1.73333">
        <ele>110</ele>
        <time>2015-06-07T07:57:46Z</time>
      </trkpt>
      <trkpt lat="47.85023" lon="-1.73338">
        <ele>110</ele>
        <time>2015-06-07T07:57:47Z</time>
      </trkpt>
      <trkpt lat="47.85023" lon="-1.73343">
        <ele>110</ele>
        <time>2015-06-07T07:57:48Z</time>
      </trkpt>
      <trkpt lat="47.85024" lon="-1.73348">
        <ele>110</ele>
        <time>2015-06-07T07:57:49Z</time>
      </trkpt>
      <trkpt lat="47.85026" lon="-1.73353">
        <ele>110</ele>
        <time>2015-06-07T07:57:50Z</time>
      </trkpt>
      <trkpt lat="47.85027" lon="-1.73359">
        <ele>110</ele>
        <time>2015-06-07T07:57:51Z</time>
      </trkpt>
      <trkpt lat="47.85027" lon="-1.73364">
        <ele>110</ele>
        <time>2015-06-07T07:57:52Z</time>
      </trkpt>
      <trkpt lat="47.85027" lon="-1.7337">
        <ele>110</ele>
        <time>2015-06-07T07:57:53Z</time>
      </trkpt>
      <trkpt lat="47.85028" lon="-1.73377">
        <ele>110</ele>
        <time>2015-06-07T07:57:54Z</time>
      </trkpt>
      <trkpt lat="47.8503" lon="-1.73385">
        <ele>110</ele>
        <time>2015-06-07T07:57:55Z</time>
      </trkpt>
      <trkpt lat="47.8503" lon="-1.73392">
        <ele>110</ele>
        <time>2015-06-07T07:57:56Z</time>
      </trkpt>
      <trkpt lat="47.8503" lon="-1.734">
        <ele>110</ele>
        <time>2015-06-07T07:57:57Z</time>
      </trkpt>
      <trkpt lat="47.85029" lon="-1.73406">
        <ele>110</ele>
        <time>2015-06-07T07:57:58Z</time>
      </trkpt>
      <trkpt lat="47.85029" lon="-1.73413">
        <ele>110</ele>
        <time>2015-06-07T07:57:59Z</time>
      </trkpt>
      <trkpt lat="47.8503" lon="-1.7342">
        <ele>110</ele>
        <time>2015-06-07T07:58:00Z</time>
      </trkpt>
      <trkpt lat="47.85031" lon="-1.73426">
        <ele>109</ele>
        <time>2015-06-07T07:58:01Z</time>
      </trkpt>
      <trkpt lat="47.85032" lon="-1.73433">
        <ele>109</ele>
        <time>2015-06-07T07:58:02Z</time>
      </trkpt>
      <trkpt lat="47.85033" lon="-1.73439">
        <ele>109</ele>
        <time>2015-06-07T07:58:03Z</time>
      </trkpt>
      <trkpt lat="47.85032" lon="-1.73445">
        <ele>109</ele>
        <time>2015-06-07T07:58:04Z</time>
      </trkpt>
      <trkpt lat="47.85032" lon="-1.73452">
        <ele>109</ele>
        <time>2015-06-07T07:58:05Z</time>
      </trkpt>
      <trkpt lat="47.85032" lon="-1.73459">
        <ele>109</ele>
        <time>2015-06-07T07:58:06Z</time>
      </trkpt>
      <trkpt lat="47.85032" lon="-1.73466">
        <ele>109</ele>
        <time>2015-06-07T07:58:07Z</time>
      </trkpt>
      <trkpt lat="47.85033" lon="-1.73474">
        <ele>109</ele>
        <time>2015-06-07T07:58:08Z</time>
      </trkpt>
      <trkpt lat="47.85033" lon="-1.73482">
        <ele>109</ele>
        <time>2015-06-07T07:58:09Z</time>
      </trkpt>
      <trkpt lat="47.85034" lon="-1.7349">
        <ele>109</ele>
        <time>2015-06-07T07:58:10Z</time>
      </trkpt>
      <trkpt lat="47.85034" lon="-1.73498">
        <ele>109</ele>
        <time>2015-06-07T07:58:11Z</time>
      </trkpt>
      <trkpt lat="47.85035" lon="-1.73507">
        <ele>109</ele>
        <time>2015-06-07T07:58:12Z</time>
      </trkpt>
      <trkpt lat="47.85035" lon="-1.73515">
        <ele>109</ele>
        <time>2015-06-07T07:58:13Z</time>
      </trkpt>
      <trkpt lat="47.85036" lon="-1.73523">
        <ele>109</ele>
        <time>2015-06-07T07:58:14Z</time>
      </trkpt>
      <trkpt lat="47.85037" lon="-1.73532">
        <ele>109</ele>
        <time>2015-06-07T07:58:15Z</time>
      </trkpt>
      <trkpt lat="47.85038" lon="-1.7354">
        <ele>108</ele>
        <time>2015-06-07T07:58:16Z</time>
      </trkpt>
      <trkpt lat="47.85038" lon="-1.73547">
        <ele>108</ele>
        <time>2015-06-07T07:58:17Z</time>
      </trkpt>
      <trkpt lat="47.85039" lon="-1.73553">
        <ele>108</ele>
        <time>2015-06-07T07:58:18Z</time>
      </trkpt>
      <trkpt lat="47.85042" lon="-1.73558">
        <ele>108</ele>
        <time>2015-06-07T07:58:19Z</time>
      </trkpt>
      <trkpt lat="47.85043" lon="-1.73563">
        <ele>108</ele>
        <time>2015-06-07T07:58:20Z</time>
      </trkpt>
      <trkpt lat="47.85043" lon="-1.73569">
        <ele>107</ele>
        <time>2015-06-07T07:58:21Z</time>
      </trkpt>
      <trkpt lat="47.85042" lon="-1.73576">
        <ele>107</ele>
        <time>2015-06-07T07:58:22Z</time>
      </trkpt>
      <trkpt lat="47.85041" lon="-1.73581">
        <ele>107</ele>
        <time>2015-06-07T07:58:23Z</time>
      </trkpt>
      <trkpt lat="47.85039" lon="-1.73585">
        <ele>107</ele>
        <time>2015-06-07T07:58:24Z</time>
      </trkpt>
      <trkpt lat="47.85036" lon="-1.73587">
        <ele>106</ele>
        <time>2015-06-07T07:58:25Z</time>
      </trkpt>
      <trkpt lat="47.85033" lon="-1.73589">
        <ele>106</ele>
        <time>2015-06-07T07:58:26Z</time>
      </trkpt>
      <trkpt lat="47.85031" lon="-1.73593">
        <ele>106</ele>
        <time>2015-06-07T07:58:27Z</time>
      </trkpt>
      <trkpt lat="47.85027" lon="-1.73595">
        <ele>106</ele>
        <time>2015-06-07T07:58:28Z</time>
      </trkpt>
      <trkpt lat="47.85024" lon="-1.73599">
        <ele>106</ele>
        <time>2015-06-07T07:58:29Z</time>
      </trkpt>
      <trkpt lat="47.85022" lon="-1.73604">
        <ele>106</ele>
        <time>2015-06-07T07:58:30Z</time>
      </trkpt>
      <trkpt lat="47.85018" lon="-1.73609">
        <ele>105</ele>
        <time>2015-06-07T07:58:31Z</time>
      </trkpt>
      <trkpt lat="47.85014" lon="-1.73613">
        <ele>105</ele>
        <time>2015-06-07T07:58:32Z</time>
      </trkpt>
      <trkpt lat="47.85011" lon="-1.73618">
        <ele>105</ele>
        <time>2015-06-07T07:58:33Z</time>
      </trkpt>
      <trkpt lat="47.85007" lon="-1.73623">
        <ele>105</ele>
        <time>2015-06-07T07:58:34Z</time>
      </trkpt>
      <trkpt lat="47.85003" lon="-1.73626">
        <ele>104</ele>
        <time>2015-06-07T07:58:35Z</time>
      </trkpt>
      <trkpt lat="47.84999" lon="-1.73627">
        <ele>104</ele>
        <time>2015-06-07T07:58:36Z</time>
      </trkpt>
      <trkpt lat="47.84997" lon="-1.73629">
        <ele>104</ele>
        <time>2015-06-07T07:58:37Z</time>
      </trkpt>
      <trkpt lat="47.84996" lon="-1.73631">
        <ele>104</ele>
        <time>2015-06-07T07:58:38Z</time>
      </trkpt>
      <trkpt lat="47.84995" lon="-1.73635">
        <ele>103</ele>
        <time>2015-06-07T07:58:39Z</time>
      </trkpt>
      <trkpt lat="47.84993" lon="-1.73639">
        <ele>103</ele>
        <time>2015-06-07T07:58:40Z</time>
      </trkpt>
      <trkpt lat="47.84991" lon="-1.73645">
        <ele>103</ele>
        <time>2015-06-07T07:58:41Z</time>
      </trkpt>
      <trkpt lat="47.84988" lon="-1.73651">
        <ele>102</ele>
        <time>2015-06-07T07:58:42Z</time>
      </trkpt>
      <trkpt lat="47.84985" lon="-1.73656">
        <ele>102</ele>
        <time>2015-06-07T07:58:43Z</time>
      </trkpt>
      <trkpt lat="47.84982" lon="-1.73662">
        <ele>101</ele>
        <time>2015-06-07T07:58:44Z</time>
      </trkpt>
      <trkpt lat="47.84979" lon="-1.73666">
        <ele>101</ele>
        <time>2015-06-07T07:58:45Z</time>
      </trkpt>
      <trkpt lat="47.84977" lon="-1.73669">
        <ele>101</ele>
        <time>2015-06-07T07:58:46Z</time>
      </trkpt>
      <trkpt lat="47.84974" lon="-1.73671">
        <ele>101</ele>
        <time>2015-06-07T07:58:47Z</time>
      </trkpt>
      <trkpt lat="47.84972" lon="-1.73672">
        <ele>100</ele>
        <time>2015-06-07T07:58:48Z</time>
      </trkpt>
      <trkpt lat="47.8497" lon="-1.73674">
        <ele>100</ele>
        <time>2015-06-07T07:58:49Z</time>
      </trkpt>
      <trkpt lat="47.84968" lon="-1.73676">
        <ele>100</ele>
        <time>2015-06-07T07:58:50Z</time>
      </trkpt>
      <trkpt lat="47.84966" lon="-1.73679">
        <ele>100</ele>
        <time>2015-06-07T07:58:51Z</time>
      </trkpt>
      <trkpt lat="47.84964" lon="-1.73682">
        <ele>100</ele>
        <time>2015-06-07T07:58:52Z</time>
      </trkpt>
      <trkpt lat="47.84963" lon="-1.73685">
        <ele>100</ele>
        <time>2015-06-07T07:58:53Z</time>
      </trkpt>
      <trkpt lat="47.84961" lon="-1.73689">
        <ele>99</ele>
        <time>2015-06-07T07:58:54Z</time>
      </trkpt>
      <trkpt lat="47.84959" lon="-1.73692">
        <ele>99</ele>
        <time>2015-06-07T07:58:55Z</time>
      </trkpt>
      <trkpt lat="47.84957" lon="-1.73696">
        <ele>99</ele>
        <time>2015-06-07T07:58:56Z</time>
      </trkpt>
      <trkpt lat="47.84954" lon="-1.737">
        <ele>99</ele>
        <time>2015-06-07T07:58:57Z</time>
      </trkpt>
      <trkpt lat="47.84952" lon="-1.73702">
        <ele>99</ele>
        <time>2015-06-07T07:58:58Z</time>
      </trkpt>
      <trkpt lat="47.8495" lon="-1.73704">
        <ele>99</ele>
        <time>2015-06-07T07:58:59Z</time>
      </trkpt>
      <trkpt lat="47.84947" lon="-1.73707">
        <ele>98</ele>
        <time>2015-06-07T07:59:00Z</time>
      </trkpt>
      <trkpt lat="47.84945" lon="-1.73711">
        <ele>98</ele>
        <time>2015-06-07T07:59:01Z</time>
      </trkpt>
      <trkpt lat="47.84943" lon="-1.73714">
        <ele>98</ele>
        <time>2015-06-07T07:59:02Z</time>
      </trkpt>
      <trkpt lat="47.84942" lon="-1.73718">
        <ele>98</ele>
        <time>2015-06-07T07:59:03Z</time>
      </trkpt>
      <trkpt lat="47.8494" lon="-1.73722">
        <ele>98</ele>
        <time>2015-06-07T07:59:04Z</time>
      </trkpt>
      <trkpt lat="47.84937" lon="-1.73726">
        <ele>98</ele>
        <time>2015-06-07T07:59:05Z</time>
      </trkpt>
      <trkpt lat="47.84935" lon="-1.7373">
        <ele>98</ele>
        <time>2015-06-07T07:59:06Z</time>
      </trkpt>
      <trkpt lat="47.84932" lon="-1.73733">
        <ele>98</ele>
        <time>2015-06-07T07:59:07Z</time>
      </trkpt>
      <trkpt lat="47.8493" lon="-1.73736">
        <ele>98</ele>
        <time>2015-06-07T07:59:08Z</time>
      </trkpt>
      <trkpt lat="47.84927" lon="-1.73738">
        <ele>98</ele>
        <time>2015-06-07T07:59:09Z</time>
      </trkpt>
      <trkpt lat="47.84924" lon="-1.73741">
        <ele>98</ele>
        <time>2015-06-07T07:59:10Z</time>
      </trkpt>
      <trkpt lat="47.84922" lon="-1.73745">
        <ele>98</ele>
        <time>2015-06-07T07:59:11Z</time>
      </trkpt>
      <trkpt lat="47.84919" lon="-1.73748">
        <ele>98</ele>
        <time>2015-06-07T07:59:12Z</time>
      </trkpt>
      <trkpt lat="47.84916" lon="-1.73751">
        <ele>98</ele>
        <time>2015-06-07T07:59:13Z</time>
      </trkpt>
      <trkpt lat="47.84913" lon="-1.73753">
        <ele>98</ele>
        <time>2015-06-07T07:59:14Z</time>
      </trkpt>
      <trkpt lat="47.84911" lon="-1.73753">
        <ele>97</ele>
        <time>2015-06-07T07:59:15Z</time>
      </trkpt>
      <trkpt lat="47.84909" lon="-1.73752">
        <ele>97</ele>
        <time>2015-06-07T07:59:16Z</time>
      </trkpt>
      <trkpt lat="47.84906" lon="-1.73753">
        <ele>97</ele>
        <time>2015-06-07T07:59:17Z</time>
      </trkpt>
      <trkpt lat="47.84904" lon="-1.73754">
        <ele>97</ele>
        <time>2015-06-07T07:59:18Z</time>
      </trkpt>
      <trkpt lat="47.849" lon="-1.73754">
        <ele>97</ele>
        <time>2015-06-07T07:59:19Z</time>
      </trkpt>
      <trkpt lat="47.84897" lon="-1.73754">
        <ele>97</ele>
        <time>2015-06-07T07:59:20Z</time>
      </trkpt>
      <trkpt lat="47.84893" lon="-1.73755">
        <ele>97</ele>
        <time>2015-06-07T07:59:21Z</time>
      </trkpt>
      <trkpt lat="47.84889" lon="-1.73755">
        <ele>98</ele>
        <time>2015-06-07T07:59:22Z</time>
      </trkpt>
      <trkpt lat="47.84885" lon="-1.73756">
        <ele>97</ele>
        <time>2015-06-07T07:59:23Z</time>
      </trkpt>
      <trkpt lat="47.84881" lon="-1.73757">
        <ele>97</ele>
        <time>2015-06-07T07:59:24Z</time>
      </trkpt>
      <trkpt lat="47.84877" lon="-1.73758">
        <ele>98</ele>
        <time>2015-06-07T07:59:25Z</time>
      </trkpt>
      <trkpt lat="47.84873" lon="-1.7376">
        <ele>98</ele>
        <time>2015-06-07T07:59:26Z</time>
      </trkpt>
      <trkpt lat="47.84868" lon="-1.73761">
        <ele>98</ele>
        <time>2015-06-07T07:59:27Z</time>
      </trkpt>
      <trkpt lat="47.84864" lon="-1.73762">
        <ele>98</ele>
        <time>2015-06-07T07:59:28Z</time>
      </trkpt>
      <trkpt lat="47.84859" lon="-1.73763">
        <ele>98</ele>
        <time>2015-06-07T07:59:29Z</time>
      </trkpt>
      <trkpt lat="47.84855" lon="-1.73764">
        <ele>98</ele>
        <time>2015-06-07T07:59:30Z</time>
      </trkpt>
      <trkpt lat="47.84852" lon="-1.73766">
        <ele>98</ele>
        <time>2015-06-07T07:59:31Z</time>
      </trkpt>
      <trkpt lat="47.8485" lon="-1.73769">
        <ele>98</ele>
        <time>2015-06-07T07:59:32Z</time>
      </trkpt>
      <trkpt lat="47.84848" lon="-1.73774">
        <ele>98</ele>
        <time>2015-06-07T07:59:33Z</time>
      </trkpt>
      <trkpt lat="47.84846" lon="-1.7378">
        <ele>98</ele>
        <time>2015-06-07T07:59:34Z</time>
      </trkpt>
      <trkpt lat="47.84845" lon="-1.73788">
        <ele>98</ele>
        <time>2015-06-07T07:59:35Z</time>
      </trkpt>
      <trkpt lat="47.84843" lon="-1.73796">
        <ele>97</ele>
        <time>2015-06-07T07:59:36Z</time>
      </trkpt>
      <trkpt lat="47.84841" lon="-1.73804">
        <ele>97</ele>
        <time>2015-06-07T07:59:37Z</time>
      </trkpt>
      <trkpt lat="47.84839" lon="-1.73811">
        <ele>97</ele>
        <time>2015-06-07T07:59:38Z</time>
      </trkpt>
      <trkpt lat="47.84836" lon="-1.73816">
        <ele>97</ele>
        <time>2015-06-07T07:59:39Z</time>
      </trkpt>
      <trkpt lat="47.84832" lon="-1.73819">
        <ele>96</ele>
        <time>2015-06-07T07:59:40Z</time>
      </trkpt>
      <trkpt lat="47.84827" lon="-1.73821">
        <ele>96</ele>
        <time>2015-06-07T07:59:41Z</time>
      </trkpt>
      <trkpt lat="47.84822" lon="-1.73823">
        <ele>96</ele>
        <time>2015-06-07T07:59:42Z</time>
      </trkpt>
      <trkpt lat="47.84817" lon="-1.73826">
        <ele>96</ele>
        <time>2015-06-07T07:59:43Z</time>
      </trkpt>
      <trkpt lat="47.84812" lon="-1.73828">
        <ele>96</ele>
        <time>2015-06-07T07:59:44Z</time>
      </trkpt>
      <trkpt lat="47.84806" lon="-1.7383">
        <ele>95</ele>
        <time>2015-06-07T07:59:45Z</time>
      </trkpt>
      <trkpt lat="47.848" lon="-1.73833">
        <ele>95</ele>
        <time>2015-06-07T07:59:46Z</time>
      </trkpt>
      <trkpt lat="47.84793" lon="-1.73836">
        <ele>95</ele>
        <time>2015-06-07T07:59:47Z</time>
      </trkpt>
      <trkpt lat="47.84786" lon="-1.73839">
        <ele>94</ele>
        <time>2015-06-07T07:59:48Z</time>
      </trkpt>
      <trkpt lat="47.84779" lon="-1.73842">
        <ele>94</ele>
        <time>2015-06-07T07:59:49Z</time>
      </trkpt>
      <trkpt lat="47.84772" lon="-1.73843">
        <ele>94</ele>
        <time>2015-06-07T07:59:50Z</time>
      </trkpt>
      <trkpt lat="47.84765" lon="-1.73842">
        <ele>93</ele>
        <time>2015-06-07T07:59:51Z</time>
      </trkpt>
      <trkpt lat="47.8476" lon="-1.73841">
        <ele>93</ele>
        <time>2015-06-07T07:59:52Z</time>
      </trkpt>
      <trkpt lat="47.84755" lon="-1.73843">
        <ele>92</ele>
        <time>2015-06-07T07:59:53Z</time>
      </trkpt>
      <trkpt lat="47.84751" lon="-1.73847">
        <ele>92</ele>
        <time>2015-06-07T07:59:54Z</time>
      </trkpt>
      <trkpt lat="47.84749" lon="-1.73854">
        <ele>91</ele>
        <time>2015-06-07T07:59:55Z</time>
      </trkpt>
      <trkpt lat="47.84747" lon="-1.73862">
        <ele>91</ele>
        <time>2015-06-07T07:59:56Z</time>
      </trkpt>
      <trkpt lat="47.84744" lon="-1.7387">
        <ele>91</ele>
        <time>2015-06-07T07:59:57Z</time>
      </trkpt>
      <trkpt lat="47.84741" lon="-1.73878">
        <ele>90</ele>
        <time>2015-06-07T07:59:58Z</time>
      </trkpt>
      <trkpt lat="47.84737" lon="-1.73887">
        <ele>90</ele>
        <time>2015-06-07T07:59:59Z</time>
      </trkpt>
      <trkpt lat="47.84732" lon="-1.73895">
        <ele>90</ele>
        <time>2015-06-07T08:00:00Z</time>
      </trkpt>
      <trkpt lat="47.84728" lon="-1.73904">
        <ele>89</ele>
        <time>2015-06-07T08:00:01Z</time>
      </trkpt>
      <trkpt lat="47.84722" lon="-1.73911">
        <ele>89</ele>
        <time>2015-06-07T08:00:02Z</time>
      </trkpt>
      <trkpt lat="47.84717" lon="-1.7392">
        <ele>89</ele>
        <time>2015-06-07T08:00:03Z</time>
      </trkpt>
      <trkpt lat="47.84713" lon="-1.7393">
        <ele>88</ele>
        <time>2015-06-07T08:00:04Z</time>
      </trkpt>
      <trkpt lat="47.84709" lon="-1.73941">
        <ele>87</ele>
        <time>2015-06-07T08:00:05Z</time>
      </trkpt>
      <trkpt lat="47.84706" lon="-1.73953">
        <ele>87</ele>
        <time>2015-06-07T08:00:06Z</time>
      </trkpt>
      <trkpt lat="47.84703" lon="-1.73962">
        <ele>86</ele>
        <time>2015-06-07T08:00:07Z</time>
      </trkpt>
      <trkpt lat="47.84702" lon="-1.73971">
        <ele>85</ele>
        <time>2015-06-07T08:00:08Z</time>
      </trkpt>
      <trkpt lat="47.847" lon="-1.73981">
        <ele>85</ele>
        <time>2015-06-07T08:00:09Z</time>
      </trkpt>
      <trkpt lat="47.84698" lon="-1.73991">
        <ele>84</ele>
        <time>2015-06-07T08:00:10Z</time>
      </trkpt>
      <trkpt lat="47.84697" lon="-1.74001">
        <ele>83</ele>
        <time>2015-06-07T08:00:11Z</time>
      </trkpt>
      <trkpt lat="47.84697" lon="-1.74012">
        <ele>83</ele>
        <time>2015-06-07T08:00:12Z</time>
      </trkpt>
      <trkpt lat="47.84698" lon="-1.74022">
        <ele>82</ele>
        <time>2015-06-07T08:00:13Z</time>
      </trkpt>
      <trkpt lat="47.84699" lon="-1.74031">
        <ele>81</ele>
        <time>2015-06-07T08:00:14Z</time>
      </trkpt>
      <trkpt lat="47.847" lon="-1.7404">
        <ele>81</ele>
        <time>2015-06-07T08:00:15Z</time>
      </trkpt>
      <trkpt lat="47.84701" lon="-1.74049">
        <ele>80</ele>
        <time>2015-06-07T08:00:16Z</time>
      </trkpt>
      <trkpt lat="47.84702" lon="-1.74058">
        <ele>80</ele>
        <time>2015-06-07T08:00:17Z</time>
      </trkpt>
      <trkpt lat="47.84703" lon="-1.74066">
        <ele>79</ele>
        <time>2015-06-07T08:00:18Z</time>
      </trkpt>
      <trkpt lat="47.84704" lon="-1.74074">
        <ele>79</ele>
        <time>2015-06-07T08:00:19Z</time>
      </trkpt>
      <trkpt lat="47.84705" lon="-1.74082">
        <ele>79</ele>
        <time>2015-06-07T08:00:20Z</time>
      </trkpt>
      <trkpt lat="47.84704" lon="-1.7409">
        <ele>78</ele>
        <time>2015-06-07T08:00:21Z</time>
      </trkpt>
      <trkpt lat="47.84703" lon="-1.74098">
        <ele>78</ele>
        <time>2015-06-07T08:00:22Z</time>
      </trkpt>
      <trkpt lat="47.84701" lon="-1.74104">
        <ele>78</ele>
        <time>2015-06-07T08:00:23Z</time>
      </trkpt>
      <trkpt lat="47.84698" lon="-1.74108">
        <ele>77</ele>
        <time>2015-06-07T08:00:24Z</time>
      </trkpt>
      <trkpt lat="47.84694" lon="-1.74111">
        <ele>77</ele>
        <time>2015-06-07T08:00:25Z</time>
      </trkpt>
      <trkpt lat="47.8469" lon="-1.74115">
        <ele>77</ele>
        <time>2015-06-07T08:00:26Z</time>
      </trkpt>
      <trkpt lat="47.84686" lon="-1.74118">
        <ele>77</ele>
        <time>2015-06-07T08:00:27Z</time>
      </trkpt>
      <trkpt lat="47.84682" lon="-1.74122">
        <ele>76</ele>
        <time>2015-06-07T08:00:28Z</time>
      </trkpt>
      <trkpt lat="47.84679" lon="-1.74127">
        <ele>76</ele>
        <time>2015-06-07T08:00:29Z</time>
      </trkpt>
      <trkpt lat="47.84675" lon="-1.74131">
        <ele>76</ele>
        <time>2015-06-07T08:00:30Z</time>
      </trkpt>
      <trkpt lat="47.84672" lon="-1.74135">
        <ele>75</ele>
        <time>2015-06-07T08:00:31Z</time>
      </trkpt>
      <trkpt lat="47.8467" lon="-1.74141">
        <ele>75</ele>
        <time>2015-06-07T08:00:32Z</time>
      </trkpt>
      <trkpt lat="47.84669" lon="-1.74148">
        <ele>75</ele>
        <time>2015-06-07T08:00:33Z</time>
      </trkpt>
      <trkpt lat="47.84669" lon="-1.74156">
        <ele>75</ele>
        <time>2015-06-07T08:00:34Z</time>
      </trkpt>
      <trkpt lat="47.84669" lon="-1.74164">
        <ele>74</ele>
        <time>2015-06-07T08:00:35Z</time>
      </trkpt>
      <trkpt lat="47.84668" lon="-1.74172">
        <ele>74</ele>
        <time>2015-06-07T08:00:36Z</time>
      </trkpt>
      <trkpt lat="47.84667" lon="-1.74179">
        <ele>74</ele>
        <time>2015-06-07T08:00:37Z</time>
      </trkpt>
      <trkpt lat="47.84667" lon="-1.74187">
        <ele>74</ele>
        <time>2015-06-07T08:00:38Z</time>
      </trkpt>
      <trkpt lat="47.84666" lon="-1.74194">
        <ele>74</ele>
        <time>2015-06-07T08:00:39Z</time>
      </trkpt>
      <trkpt lat="47.84665" lon="-1.74202">
        <ele>74</ele>
        <time>2015-06-07T08:00:40Z</time>
      </trkpt>
      <trkpt lat="47.84664" lon="-1.7421">
        <ele>73</ele>
        <time>2015-06-07T08:00:41Z</time>
      </trkpt>
      <trkpt lat="47.84662" lon="-1.74219">
        <ele>73</ele>
        <time>2015-06-07T08:00:42Z</time>
      </trkpt>
      <trkpt lat="47.8466" lon="-1.74228">
        <ele>73</ele>
        <time>2015-06-07T08:00:43Z</time>
      </trkpt>
      <trkpt lat="47.84659" lon="-1.74237">
        <ele>73</ele>
        <time>2015-06-07T08:00:44Z</time>
      </trkpt>
      <trkpt lat="47.84657" lon="-1.74245">
        <ele>72</ele>
        <time>2015-06-07T08:00:45Z</time>
      </trkpt>
      <trkpt lat="47.84655" lon="-1.74252">
        <ele>72</ele>
        <time>2015-06-07T08:00:46Z</time>
      </trkpt>
      <trkpt lat="47.84653" lon="-1.74261">
        <ele>72</ele>
        <time>2015-06-07T08:00:47Z</time>
      </trkpt>
      <trkpt lat="47.8465" lon="-1.74269">
        <ele>72</ele>
        <time>2015-06-07T08:00:48Z</time>
      </trkpt>
      <trkpt lat="47.84648" lon="-1.74278">
        <ele>72</ele>
        <time>2015-06-07T08:00:49Z</time>
      </trkpt>
      <trkpt lat="47.84646" lon="-1.74287">
        <ele>72</ele>
        <time>2015-06-07T08:00:50Z</time>
      </trkpt>
      <trkpt lat="47.84645" lon="-1.74296">
        <ele>72</ele>
        <time>2015-06-07T08:00:51Z</time>
      </trkpt>
      <trkpt lat="47.84643" lon="-1.74306">
        <ele>71</ele>
        <time>2015-06-07T08:00:52Z</time>
      </trkpt>
      <trkpt lat="47.84642" lon="-1.74317">
        <ele>71</ele>
        <time>2015-06-07T08:00:53Z</time>
      </trkpt>
      <trkpt lat="47.84641" lon="-1.74328">
        <ele>71</ele>
        <time>2015-06-07T08:00:54Z</time>
      </trkpt>
      <trkpt lat="47.8464" lon="-1.74339">
        <ele>71</ele>
        <time>2015-06-07T08:00:55Z</time>
      </trkpt>
      <trkpt lat="47.8464" lon="-1.7435">
        <ele>71</ele>
        <time>2015-06-07T08:00:56Z</time>
      </trkpt>
      <trkpt lat="47.84639" lon="-1.74361">
        <ele>71</ele>
        <time>2015-06-07T08:00:57Z</time>
      </trkpt>
      <trkpt lat="47.84638" lon="-1.74372">
        <ele>70</ele>
        <time>2015-06-07T08:00:58Z</time>
      </trkpt>
      <trkpt lat="47.84638" lon="-1.74382">
        <ele>70</ele>
        <time>2015-06-07T08:00:59Z</time>
      </trkpt>
      <trkpt lat="47.84637" lon="-1.74392">
        <ele>70</ele>
        <time>2015-06-07T08:01:00Z</time>
      </trkpt>
      <trkpt lat="47.84635" lon="-1.74401">
        <ele>70</ele>
        <time>2015-06-07T08:01:01Z</time>
      </trkpt>
      <trkpt lat="47.84634" lon="-1.74411">
        <ele>69</ele>
        <time>2015-06-07T08:01:02Z</time>
      </trkpt>
      <trkpt lat="47.84633" lon="-1.74422">
        <ele>69</ele>
        <time>2015-06-07T08:01:03Z</time>
      </trkpt>
      <trkpt lat="47.84631" lon="-1.74432">
        <ele>69</ele>
        <time>2015-06-07T08:01:04Z</time>
      </trkpt>
      <trkpt lat="47.84629" lon="-1.74442">
        <ele>69</ele>
        <time>2015-06-07T08:01:05Z</time>
      </trkpt>
      <trkpt lat="47.84627" lon="-1.74452">
        <ele>69</ele>
        <time>2015-06-07T08:01:06Z</time>
      </trkpt>
      <trkpt lat="47.84623" lon="-1.74461">
        <ele>69</ele>
        <time>2015-06-07T08:01:07Z</time>
      </trkpt>
      <trkpt lat="47.84619" lon="-1.7447">
        <ele>68</ele>
        <time>2015-06-07T08:01:08Z</time>
      </trkpt>
      <trkpt lat="47.84615" lon="-1.74478">
        <ele>68</ele>
        <time>2015-06-07T08:01:09Z</time>
      </trkpt>
      <trkpt lat="47.84611" lon="-1.74486">
        <ele>68</ele>
        <time>2015-06-07T08:01:10Z</time>
      </trkpt>
      <trkpt lat="47.84606" lon="-1.74493">
        <ele>68</ele>
        <time>2015-06-07T08:01:11Z</time>
      </trkpt>
      <trkpt lat="47.84602" lon="-1.745">
        <ele>68</ele>
        <time>2015-06-07T08:01:12Z</time>
      </trkpt>
      <trkpt lat="47.84599" lon="-1.74507">
        <ele>68</ele>
        <time>2015-06-07T08:01:13Z</time>
      </trkpt>
      <trkpt lat="47.84595" lon="-1.74515">
        <ele>68</ele>
        <time>2015-06-07T08:01:14Z</time>
      </trkpt>
      <trkpt lat="47.84592" lon="-1.74522">
        <ele>69</ele>
        <time>2015-06-07T08:01:15Z</time>
      </trkpt>
      <trkpt lat="47.84589" lon="-1.74529">
        <ele>69</ele>
        <time>2015-06-07T08:01:16Z</time>
      </trkpt>
      <trkpt lat="47.84586" lon="-1.74537">
        <ele>69</ele>
        <time>2015-06-07T08:01:17Z</time>
      </trkpt>
      <trkpt lat="47.84583" lon="-1.74544">
        <ele>69</ele>
        <time>2015-06-07T08:01:18Z</time>
      </trkpt>
      <trkpt lat="47.84581" lon="-1.74551">
        <ele>69</ele>
        <time>2015-06-07T08:01:19Z</time>
      </trkpt>
      <trkpt lat="47.84579" lon="-1.74559">
        <ele>69</ele>
        <time>2015-06-07T08:01:20Z</time>
      </trkpt>
      <trkpt lat="47.84577" lon="-1.74566">
        <ele>69</ele>
        <time>2015-06-07T08:01:21Z</time>
      </trkpt>
      <trkpt lat="47.84574" lon="-1.74573">
        <ele>69</ele>
        <time>2015-06-07T08:01:22Z</time>
      </trkpt>
      <trkpt lat="47.84572" lon="-1.7458">
        <ele>69</ele>
        <time>2015-06-07T08:01:23Z</time>
      </trkpt>
      <trkpt lat="47.84569" lon="-1.74586">
        <ele>69</ele>
        <time>2015-06-07T08:01:24Z</time>
      </trkpt>
      <trkpt lat="47.84566" lon="-1.74593">
        <ele>69</ele>
        <time>2015-06-07T08:01:25Z</time>
      </trkpt>
      <trkpt lat="47.84564" lon="-1.746">
        <ele>69</ele>
        <time>2015-06-07T08:01:26Z</time>
      </trkpt>
      <trkpt lat="47.84561" lon="-1.74606">
        <ele>69</ele>
        <time>2015-06-07T08:01:27Z</time>
      </trkpt>
      <trkpt lat="47.84559" lon="-1.74613">
        <ele>69</ele>
        <time>2015-06-07T08:01:28Z</time>
      </trkpt>
      <trkpt lat="47.84556" lon="-1.7462">
        <ele>69</ele>
        <time>2015-06-07T08:01:29Z</time>
      </trkpt>
      <trkpt lat="47.84554" lon="-1.74626">
        <ele>69</ele>
        <time>2015-06-07T08:01:30Z</time>
      </trkpt>
      <trkpt lat="47.84551" lon="-1.74632">
        <ele>69</ele>
        <time>2015-06-07T08:01:31Z</time>
      </trkpt>
      <trkpt lat="47.84549" lon="-1.74638">
        <ele>70</ele>
        <time>2015-06-07T08:01:32Z</time>
      </trkpt>
      <trkpt lat="47.84547" lon="-1.74644">
        <ele>70</ele>
        <time>2015-06-07T08:01:33Z</time>
      </trkpt>
      <trkpt lat="47.84546" lon="-1.7465">
        <ele>70</ele>
        <time>2015-06-07T08:01:34Z</time>
      </trkpt>
      <trkpt lat="47.84543" lon="-1.74656">
        <ele>70</ele>
        <time>2015-06-07T08:01:35Z</time>
      </trkpt>
      <trkpt lat="47.84541" lon="-1.74662">
        <ele>70</ele>
        <time>2015-06-07T08:01:36Z</time>
      </trkpt>
      <trkpt lat="47.8454" lon="-1.74668">
        <ele>71</ele>
        <time>2015-06-07T08:01:37Z</time>
      </trkpt>
      <trkpt lat="47.84539" lon="-1.74673">
        <ele>71</ele>
        <time>2015-06-07T08:01:38Z</time>
      </trkpt>
      <trkpt lat="47.84537" lon="-1.74677">
        <ele>71</ele>
        <time>2015-06-07T08:01:39Z</time>
      </trkpt>
      <trkpt lat="47.84536" lon="-1.7468">
        <ele>71</ele>
        <time>2015-06-07T08:01:40Z</time>
      </trkpt>
      <trkpt lat="47.84536" lon="-1.74683">
        <ele>71</ele>
        <time>2015-06-07T08:01:41Z</time>
      </trkpt>
      <trkpt lat="47.84535" lon="-1.74687">
        <ele>72</ele>
        <time>2015-06-07T08:01:42Z</time>
      </trkpt>
      <trkpt lat="47.84535" lon="-1.74689">
        <ele>72</ele>
        <time>2015-06-07T08:01:43Z</time>
      </trkpt>
      <trkpt lat="47.84534" lon="-1.7469">
        <ele>72</ele>
        <time>2015-06-07T08:01:44Z</time>
      </trkpt>
      <trkpt lat="47.84531" lon="-1.74692">
        <ele>72</ele>
        <time>2015-06-07T08:01:45Z</time>
      </trkpt>
      <trkpt lat="47.8453" lon="-1.74695">
        <ele>73</ele>
        <time>2015-06-07T08:01:46Z</time>
      </trkpt>
      <trkpt lat="47.84529" lon="-1.74699">
        <ele>73</ele>
        <time>2015-06-07T08:01:47Z</time>
      </trkpt>
      <trkpt lat="47.84529" lon="-1.74703">
        <ele>73</ele>
        <time>2015-06-07T08:01:48Z</time>
      </trkpt>
      <trkpt lat="47.8453" lon="-1.74705">
        <ele>73</ele>
        <time>2015-06-07T08:01:49Z</time>
      </trkpt>
      <trkpt lat="47.84532" lon="-1.74705">
        <ele>73</ele>
        <time>2015-06-07T08:01:50Z</time>
      </trkpt>
      <trkpt lat="47.84533" lon="-1.74704">
        <ele>74</ele>
        <time>2015-06-07T08:01:51Z</time>
      </trkpt>
      <trkpt lat="47.84535" lon="-1.74703">
        <ele>74</ele>
        <time>2015-06-07T08:01:52Z</time>
      </trkpt>
      <trkpt lat="47.84538" lon="-1.74701">
        <ele>74</ele>
        <time>2015-06-07T08:01:53Z</time>
      </trkpt>
      <trkpt lat="47.8454" lon="-1.747">
        <ele>74</ele>
        <time>2015-06-07T08:01:54Z</time>
      </trkpt>
      <trkpt lat="47.84544" lon="-1.74701">
        <ele>74</ele>
        <time>2015-06-07T08:01:55Z</time>
      </trkpt>
      <trkpt lat="47.84547" lon="-1.74703">
        <ele>74</ele>
        <time>2015-06-07T08:01:56Z</time>
      </trkpt>
      <trkpt lat="47.8455" lon="-1.74707">
        <ele>75</ele>
        <time>2015-06-07T08:01:57Z</time>
      </trkpt>
      <trkpt lat="47.84554" lon="-1.74711">
        <ele>75</ele>
        <time>2015-06-07T08:01:58Z</time>
      </trkpt>
      <trkpt lat="47.84557" lon="-1.74712">
        <ele>75</ele>
        <time>2015-06-07T08:01:59Z</time>
      </trkpt>
      <trkpt lat="47.8456" lon="-1.74711">
        <ele>75</ele>
        <time>2015-06-07T08:02:00Z</time>
      </trkpt>
      <trkpt lat="47.84562" lon="-1.74709">
        <ele>75</ele>
        <time>2015-06-07T08:02:01Z</time>
      </trkpt>
      <trkpt lat="47.84564" lon="-1.74708">
        <ele>75</ele>
        <time>2015-06-07T08:02:02Z</time>
      </trkpt>
      <trkpt lat="47.84566" lon="-1.74707">
        <ele>75</ele>
        <time>2015-06-07T08:02:03Z</time>
      </trkpt>
      <trkpt lat="47.84568" lon="-1.74707">
        <ele>75</ele>
        <time>2015-06-07T08:02:04Z</time>
      </trkpt>
      <trkpt lat="47.8457" lon="-1.74708">
        <ele>75</ele>
        <time>2015-06-07T08:02:05Z</time>
      </trkpt>
      <trkpt lat="47.84572" lon="-1.74711">
        <ele>75</ele>
        <time>2015-06-07T08:02:06Z</time>
      </trkpt>
      <trkpt lat="47.84572" lon="-1.74713">
        <ele>75</ele>
        <time>2015-06-07T08:02:07Z</time>
      </trkpt>
      <trkpt lat="47.84572" lon="-1.74715">
        <ele>75</ele>
        <time>2015-06-07T08:02:08Z</time>
      </trkpt>
      <trkpt lat="47.8457" lon="-1.74718">
        <ele>76</ele>
        <time>2015-06-07T08:02:09Z</time>
      </trkpt>
      <trkpt lat="47.84569" lon="-1.74721">
        <ele>76</ele>
        <time>2015-06-07T08:02:10Z</time>
      </trkpt>
      <trkpt lat="47.8457" lon="-1.74725">
        <ele>76</ele>
        <time>2015-06-07T08:02:11Z</time>
      </trkpt>
      <trkpt lat="47.84571" lon="-1.74727">
        <ele>76</ele>
        <time>2015-06-07T08:02:12Z</time>
      </trkpt>
      <trkpt lat="47.84574" lon="-1.74728">
        <ele>76</ele>
        <time>2015-06-07T08:02:13Z</time>
      </trkpt>
      <trkpt lat="47.84576" lon="-1.74728">
        <ele>77</ele>
        <time>2015-06-07T08:02:14Z</time>
      </trkpt>
      <trkpt lat="47.84577" lon="-1.74728">
        <ele>77</ele>
        <time>2015-06-07T08:02:15Z</time>
      </trkpt>
      <trkpt lat="47.84579" lon="-1.7473">
        <ele>77</ele>
        <time>2015-06-07T08:02:16Z</time>
      </trkpt>
      <trkpt lat="47.84583" lon="-1.74731">
        <ele>77</ele>
        <time>2015-06-07T08:02:17Z</time>
      </trkpt>
      <trkpt lat="47.84586" lon="-1.74733">
        <ele>77</ele>
        <time>2015-06-07T08:02:18Z</time>
      </trkpt>
      <trkpt lat="47.84588" lon="-1.74736">
        <ele>78</ele>
        <time>2015-06-07T08:02:19Z</time>
      </trkpt>
      <trkpt lat="47.8459" lon="-1.74739">
        <ele>78</ele>
        <time>2015-06-07T08:02:20Z</time>
      </trkpt>
      <trkpt lat="47.84591" lon="-1.74743">
        <ele>78</ele>
        <time>2015-06-07T08:02:21Z</time>
      </trkpt>
      <trkpt lat="47.84593" lon="-1.74746">
        <ele>78</ele>
        <time>2015-06-07T08:02:22Z</time>
      </trkpt>
      <trkpt lat="47.84596" lon="-1.74748">
        <ele>78</ele>
        <time>2015-06-07T08:02:23Z</time>
      </trkpt>
      <trkpt lat="47.84598" lon="-1.74747">
        <ele>78</ele>
        <time>2015-06-07T08:02:24Z</time>
      </trkpt>
      <trkpt lat="47.84599" lon="-1.74745">
        <ele>79</ele>
        <time>2015-06-07T08:02:25Z</time>
      </trkpt>
      <trkpt lat="47.84601" lon="-1.74745">
        <ele>79</ele>
        <time>2015-06-07T08:02:26Z</time>
      </trkpt>
      <trkpt lat="47.84603" lon="-1.74745">
        <ele>79</ele>
        <time>2015-06-07T08:02:27Z</time>
      </trkpt>
      <trkpt lat="47.84605" lon="-1.74745">
        <ele>79</ele>
        <time>2015-06-07T08:02:28Z</time>
      </trkpt>
      <trkpt lat="47.84607" lon="-1.74743">
        <ele>79</ele>
        <time>2015-06-07T08:02:29Z</time>
      </trkpt>
      <trkpt lat="47.84609" lon="-1.74739">
        <ele>79</ele>
        <time>2015-06-07T08:02:30Z</time>
      </trkpt>
      <trkpt lat="47.84611" lon="-1.74736">
        <ele>80</ele>
        <time>2015-06-07T08:02:31Z</time>
      </trkpt>
      <trkpt lat="47.84614" lon="-1.74735">
        <ele>80</ele>
        <time>2015-06-07T08:02:32Z</time>
      </trkpt>
      <trkpt lat="47.84616" lon="-1.74736">
        <ele>80</ele>
        <time>2015-06-07T08:02:33Z</time>
      </trkpt>
      <trkpt lat="47.84618" lon="-1.74739">
        <ele>80</ele>
        <time>2015-06-07T08:02:34Z</time>
      </trkpt>
      <trkpt lat="47.8462" lon="-1.74742">
        <ele>80</ele>
        <time>2015-06-07T08:02:35Z</time>
      </trkpt>
      <trkpt lat="47.84623" lon="-1.74746">
        <ele>80</ele>
        <time>2015-06-07T08:02:36Z</time>
      </trkpt>
      <trkpt lat="47.84625" lon="-1.7475">
        <ele>80</ele>
        <time>2015-06-07T08:02:37Z</time>
      </trkpt>
      <trkpt lat="47.84628" lon="-1.74753">
        <ele>80</ele>
        <time>2015-06-07T08:02:38Z</time>
      </trkpt>
      <trkpt lat="47.84631" lon="-1.74755">
        <ele>80</ele>
        <time>2015-06-07T08:02:39Z</time>
      </trkpt>
      <trkpt lat="47.84633" lon="-1.74754">
        <ele>80</ele>
        <time>2015-06-07T08:02:40Z</time>
      </trkpt>
      <trkpt lat="47.84635" lon="-1.74752">
        <ele>80</ele>
        <time>2015-06-07T08:02:41Z</time>
      </trkpt>
      <trkpt lat="47.84638" lon="-1.74751">
        <ele>80</ele>
        <time>2015-06-07T08:02:42Z</time>
      </trkpt>
      <trkpt lat="47.8464" lon="-1.74752">
        <ele>80</ele>
        <time>2015-06-07T08:02:43Z</time>
      </trkpt>
      <trkpt lat="47.84643" lon="-1.74754">
        <ele>80</ele>
        <time>2015-06-07T08:02:44Z</time>
      </trkpt>
      <trkpt lat="47.84647" lon="-1.74758">
        <ele>80</ele>
        <time>2015-06-07T08:02:45Z</time>
      </trkpt>
      <trkpt lat="47.84649" lon="-1.74762">
        <ele>80</ele>
        <time>2015-06-07T08:02:46Z</time>
      </trkpt>
      <trkpt lat="47.84652" lon="-1.74766">
        <ele>80</ele>
        <time>2015-06-07T08:02:47Z</time>
      </trkpt>
      <trkpt lat="47.84653" lon="-1.7477">
        <ele>80</ele>
        <time>2015-06-07T08:02:48Z</time>
      </trkpt>
      <trkpt lat="47.84654" lon="-1.74774">
        <ele>80</ele>
        <time>2015-06-07T08:02:49Z</time>
      </trkpt>
      <trkpt lat="47.84656" lon="-1.74777">
        <ele>80</ele>
        <time>2015-06-07T08:02:50Z</time>
      </trkpt>
      <trkpt lat="47.84659" lon="-1.74779">
        <ele>81</ele>
        <time>2015-06-07T08:02:51Z</time>
      </trkpt>
      <trkpt lat="47.84661" lon="-1.7478">
        <ele>81</ele>
        <time>2015-06-07T08:02:52Z</time>
      </trkpt>
      <trkpt lat="47.84664" lon="-1.74778">
        <ele>81</ele>
        <time>2015-06-07T08:02:53Z</time>
      </trkpt>
      <trkpt lat="47.84667" lon="-1.74779">
        <ele>81</ele>
        <time>2015-06-07T08:02:54Z</time>
      </trkpt>
      <trkpt lat="47.84669" lon="-1.7478">
        <ele>81</ele>
        <time>2015-06-07T08:02:55Z</time>
      </trkpt>
      <trkpt lat="47.84673" lon="-1.74782">
        <ele>81</ele>
        <time>2015-06-07T08:02:56Z</time>
      </trkpt>
      <trkpt lat="47.84676" lon="-1.74784">
        <ele>81</ele>
        <time>2015-06-07T08:02:57Z</time>
      </trkpt>
      <trkpt lat="47.84679" lon="-1.74786">
        <ele>81</ele>
        <time>2015-06-07T08:02:58Z</time>
      </trkpt>
      <trkpt lat="47.84683" lon="-1.74788">
        <ele>81</ele>
        <time>2015-06-07T08:02:59Z</time>
      </trkpt>
      <trkpt lat="47.84686" lon="-1.7479">
        <ele>82</ele>
        <time>2015-06-07T08:03:00Z</time>
      </trkpt>
      <trkpt lat="47.84688" lon="-1.74794">
        <ele>82</ele>
        <time>2015-06-07T08:03:01Z</time>
      </trkpt>
      <trkpt lat="47.84689" lon="-1.74797">
        <ele>82</ele>
        <time>2015-06-07T08:03:02Z</time>
      </trkpt>
      <trkpt lat="47.84691" lon="-1.74801">
        <ele>82</ele>
        <time>2015-06-07T08:03:03Z</time>
      </trkpt>
      <trkpt lat="47.84693" lon="-1.74803">
        <ele>82</ele>
        <time>2015-06-07T08:03:04Z</time>
      </trkpt>
      <trkpt lat="47.84696" lon="-1.74804">
        <ele>82</ele>
        <time>2015-06-07T08:03:05Z</time>
      </trkpt>
      <trkpt lat="47.84699" lon="-1.74805">
        <ele>82</ele>
        <time>2015-06-07T08:03:06Z</time>
      </trkpt>
      <trkpt lat="47.84703" lon="-1.74805">
        <ele>83</ele>
        <time>2015-06-07T08:03:07Z</time>
      </trkpt>
      <trkpt lat="47.84705" lon="-1.74807">
        <ele>83</ele>
        <time>2015-06-07T08:03:08Z</time>
      </trkpt>
      <trkpt lat="47.84708" lon="-1.74808">
        <ele>83</ele>
        <time>2015-06-07T08:03:09Z</time>
      </trkpt>
      <trkpt lat="47.8471" lon="-1.74809">
        <ele>84</ele>
        <time>2015-06-07T08:03:10Z</time>
      </trkpt>
      <trkpt lat="47.84711" lon="-1.7481">
        <ele>84</ele>
        <time>2015-06-07T08:03:11Z</time>
      </trkpt>
      <trkpt lat="47.84713" lon="-1.74809">
        <ele>84</ele>
        <time>2015-06-07T08:03:12Z</time>
      </trkpt>
      <trkpt lat="47.84715" lon="-1.74809">
        <ele>84</ele>
        <time>2015-06-07T08:03:13Z</time>
      </trkpt>
      <trkpt lat="47.84718" lon="-1.74809">
        <ele>85</ele>
        <time>2015-06-07T08:03:14Z</time>
      </trkpt>
      <trkpt lat="47.84721" lon="-1.74809">
        <ele>85</ele>
        <time>2015-06-07T08:03:15Z</time>
      </trkpt>
      <trkpt lat="47.84724" lon="-1.74809">
        <ele>85</ele>
        <time>2015-06-07T08:03:16Z</time>
      </trkpt>
      <trkpt lat="47.84727" lon="-1.7481">
        <ele>85</ele>
        <time>2015-06-07T08:03:17Z</time>
      </trkpt>
      <trkpt lat="47.84729" lon="-1.7481">
        <ele>85</ele>
        <time>2015-06-07T08:03:18Z</time>
      </trkpt>
      <trkpt lat="47.84731" lon="-1.74811">
        <ele>85</ele>
        <time>2015-06-07T08:03:19Z</time>
      </trkpt>
      <trkpt lat="47.84733" lon="-1.74811">
        <ele>86</ele>
        <time>2015-06-07T08:03:20Z</time>
      </trkpt>
      <trkpt lat="47.84735" lon="-1.7481">
        <ele>86</ele>
        <time>2015-06-07T08:03:21Z</time>
      </trkpt>
      <trkpt lat="47.84737" lon="-1.7481">
        <ele>86</ele>
        <time>2015-06-07T08:03:22Z</time>
      </trkpt>
      <trkpt lat="47.84739" lon="-1.74809">
        <ele>86</ele>
        <time>2015-06-07T08:03:23Z</time>
      </trkpt>
      <trkpt lat="47.84741" lon="-1.7481">
        <ele>86</ele>
        <time>2015-06-07T08:03:24Z</time>
      </trkpt>
      <trkpt lat="47.84743" lon="-1.7481">
        <ele>87</ele>
        <time>2015-06-07T08:03:25Z</time>
      </trkpt>
      <trkpt lat="47.84745" lon="-1.74812">
        <ele>87</ele>
        <time>2015-06-07T08:03:26Z</time>
      </trkpt>
      <trkpt lat="47.84748" lon="-1.74814">
        <ele>87</ele>
        <time>2015-06-07T08:03:27Z</time>
      </trkpt>
      <trkpt lat="47.84751" lon="-1.74815">
        <ele>87</ele>
        <time>2015-06-07T08:03:28Z</time>
      </trkpt>
      <trkpt lat="47.84753" lon="-1.74816">
        <ele>87</ele>
        <time>2015-06-07T08:03:29Z</time>
      </trkpt>
      <trkpt lat="47.84755" lon="-1.74818">
        <ele>88</ele>
        <time>2015-06-07T08:03:30Z</time>
      </trkpt>
      <trkpt lat="47.84757" lon="-1.7482">
        <ele>88</ele>
        <time>2015-06-07T08:03:31Z</time>
      </trkpt>
      <trkpt lat="47.8476" lon="-1.74821">
        <ele>88</ele>
        <time>2015-06-07T08:03:32Z</time>
      </trkpt>
      <trkpt lat="47.84762" lon="-1.74822">
        <ele>88</ele>
        <time>2015-06-07T08:03:33Z</time>
      </trkpt>
      <trkpt lat="47.84765" lon="-1.74824">
        <ele>89</ele>
        <time>2015-06-07T08:03:34Z</time>
      </trkpt>
      <trkpt lat="47.84767" lon="-1.74826">
        <ele>89</ele>
        <time>2015-06-07T08:03:35Z</time>
      </trkpt>
      <trkpt lat="47.8477" lon="-1.74828">
        <ele>89</ele>
        <time>2015-06-07T08:03:36Z</time>
      </trkpt>
      <trkpt lat="47.84772" lon="-1.7483">
        <ele>90</ele>
        <time>2015-06-07T08:03:37Z</time>
      </trkpt>
      <trkpt lat="47.84774" lon="-1.74832">
        <ele>90</ele>
        <time>2015-06-07T08:03:38Z</time>
      </trkpt>
      <trkpt lat="47.84777" lon="-1.74834">
        <ele>91</ele>
        <time>2015-06-07T08:03:39Z</time>
      </trkpt>
      <trkpt lat="47.84779" lon="-1.74836">
        <ele>91</ele>
        <time>2015-06-07T08:03:40Z</time>
      </trkpt>
      <trkpt lat="47.84781" lon="-1.74837">
        <ele>92</ele>
        <time>2015-06-07T08:03:41Z</time>
      </trkpt>
      <trkpt lat="47.84784" lon="-1.74839">
        <ele>92</ele>
        <time>2015-06-07T08:03:42Z</time>
      </trkpt>
      <trkpt lat="47.84786" lon="-1.74841">
        <ele>93</ele>
        <time>2015-06-07T08:03:43Z</time>
      </trkpt>
      <trkpt lat="47.84788" lon="-1.74843">
        <ele>93</ele>
        <time>2015-06-07T08:03:44Z</time>
      </trkpt>
      <trkpt lat="47.84791" lon="-1.74845">
        <ele>94</ele>
        <time>2015-06-07T08:03:45Z</time>
      </trkpt>
      <trkpt lat="47.84793" lon="-1.74847">
        <ele>94</ele>
        <time>2015-06-07T08:03:46Z</time>
      </trkpt>
      <trkpt lat="47.84795" lon="-1.74849">
        <ele>94</ele>
        <time>2015-06-07T08:03:47Z</time>
      </trkpt>
      <trkpt lat="47.84797" lon="-1.74851">
        <ele>95</ele>
        <time>2015-06-07T08:03:48Z</time>
      </trkpt>
      <trkpt lat="47.848" lon="-1.74853">
        <ele>95</ele>
        <time>2015-06-07T08:03:49Z</time>
      </trkpt>
      <trkpt lat="47.84802" lon="-1.74855">
        <ele>95</ele>
        <time>2015-06-07T08:03:50Z</time>
      </trkpt>
      <trkpt lat="47.84804" lon="-1.74857">
        <ele>95</ele>
        <time>2015-06-07T08:03:51Z</time>
      </trkpt>
      <trkpt lat="47.84805" lon="-1.74858">
        <ele>96</ele>
        <time>2015-06-07T08:03:52Z</time>
      </trkpt>
      <trkpt lat="47.84807" lon="-1.74859">
        <ele>96</ele>
        <time>2015-06-07T08:03:53Z</time>
      </trkpt>
      <trkpt lat="47.84809" lon="-1.7486">
        <ele>96</ele>
        <time>2015-06-07T08:03:54Z</time>
      </trkpt>
      <trkpt lat="47.84811" lon="-1.74862">
        <ele>96</ele>
        <time>2015-06-07T08:03:55Z</time>
      </trkpt>
      <trkpt lat="47.84812" lon="-1.74864">
        <ele>97</ele>
        <time>2015-06-07T08:03:56Z</time>
      </trkpt>
      <trkpt lat="47.84813" lon="-1.74868">
        <ele>97</ele>
        <time>2015-06-07T08:03:57Z</time>
      </trkpt>
      <trkpt lat="47.84813" lon="-1.74871">
        <ele>97</ele>
        <time>2015-06-07T08:03:58Z</time>
      </trkpt>
      <trkpt lat="47.84812" lon="-1.74875">
        <ele>97</ele>
        <time>2015-06-07T08:03:59Z</time>
      </trkpt>
      <trkpt lat="47.84812" lon="-1.74879">
        <ele>97</ele>
        <time>2015-06-07T08:04:00Z</time>
      </trkpt>
      <trkpt lat="47.8481" lon="-1.74882">
        <ele>98</ele>
        <time>2015-06-07T08:04:01Z</time>
      </trkpt>
      <trkpt lat="47.84809" lon="-1.74884">
        <ele>98</ele>
        <time>2015-06-07T08:04:02Z</time>
      </trkpt>
      <trkpt lat="47.84806" lon="-1.74886">
        <ele>98</ele>
        <time>2015-06-07T08:04:03Z</time>
      </trkpt>
      <trkpt lat="47.84803" lon="-1.74886">
        <ele>98</ele>
        <time>2015-06-07T08:04:04Z</time>
      </trkpt>
      <trkpt lat="47.848" lon="-1.74886">
        <ele>98</ele>
        <time>2015-06-07T08:04:05Z</time>
      </trkpt>
      <trkpt lat="47.84797" lon="-1.74885">
        <ele>98</ele>
        <time>2015-06-07T08:04:06Z</time>
      </trkpt>
      <trkpt lat="47.84795" lon="-1.74883">
        <ele>98</ele>
        <time>2015-06-07T08:04:07Z</time>
      </trkpt>
      <trkpt lat="47.84794" lon="-1.74879">
        <ele>99</ele>
        <time>2015-06-07T08:04:08Z</time>
      </trkpt>
      <trkpt lat="47.84794" lon="-1.74876">
        <ele>99</ele>
        <time>2015-06-07T08:04:09Z</time>
      </trkpt>
      <trkpt lat="47.84795" lon="-1.74871">
        <ele>99</ele>
        <time>2015-06-07T08:04:10Z</time>
      </trkpt>
      <trkpt lat="47.84796" lon="-1.74866">
        <ele>99</ele>
        <time>2015-06-07T08:04:11Z</time>
      </trkpt>
      <trkpt lat="47.84796" lon="-1.74861">
        <ele>99</ele>
        <time>2015-06-07T08:04:12Z</time>
      </trkpt>
      <trkpt lat="47.84796" lon="-1.74857">
        <ele>99</ele>
        <time>2015-06-07T08:04:13Z</time>
      </trkpt>
      <trkpt lat="47.84794" lon="-1.74854">
        <ele>99</ele>
        <time>2015-06-07T08:04:14Z</time>
      </trkpt>
      <trkpt lat="47.84791" lon="-1.7485">
        <ele>99</ele>
        <time>2015-06-07T08:04:15Z</time>
      </trkpt>
      <trkpt lat="47.8479" lon="-1.74845">
        <ele>99</ele>
        <time>2015-06-07T08:04:16Z</time>
      </trkpt>
      <trkpt lat="47.84787" lon="-1.74841">
        <ele>99</ele>
        <time>2015-06-07T08:04:17Z</time>
      </trkpt>
      <trkpt lat="47.84783" lon="-1.7484">
        <ele>99</ele>
        <time>2015-06-07T08:04:18Z</time>
      </trkpt>
      <trkpt lat="47.84779" lon="-1.7484">
        <ele>99</ele>
        <time>2015-06-07T08:04:19Z</time>
      </trkpt>
      <trkpt lat="47.84777" lon="-1.7484">
        <ele>99</ele>
        <time>2015-06-07T08:04:20Z</time>
      </trkpt>
      <trkpt lat="47.84776" lon="-1.74841">
        <ele>99</ele>
        <time>2015-06-07T08:04:21Z</time>
      </trkpt>
      <trkpt lat="47.84776" lon="-1.74843">
        <ele>99</ele>
        <time>2015-06-07T08:04:22Z</time>
      </trkpt>
      <trkpt lat="47.84777" lon="-1.74846">
        <ele>99</ele>
        <time>2015-06-07T08:04:23Z</time>
      </trkpt>
      <trkpt lat="47.84779" lon="-1.74848">
        <ele>99</ele>
        <time>2015-06-07T08:04:24Z</time>
      </trkpt>
      <trkpt lat="47.8478" lon="-1.74851">
        <ele>99</ele>
        <time>2015-06-07T08:04:25Z</time>
      </trkpt>
      <trkpt lat="47.84781" lon="-1.74853">
        <ele>99</ele>
        <time>2015-06-07T08:04:26Z</time>
      </trkpt>
      <trkpt lat="47.8478" lon="-1.74856">
        <ele>99</ele>
        <time>2015-06-07T08:04:27Z</time>
      </trkpt>
      <trkpt lat="47.8478" lon="-1.74857">
        <ele>99</ele>
        <time>2015-06-07T08:04:28Z</time>
      </trkpt>
      <trkpt lat="47.8478" lon="-1.74856">
        <ele>99</ele>
        <time>2015-06-07T08:04:29Z</time>
      </trkpt>
      <trkpt lat="47.84778" lon="-1.74855">
        <ele>99</ele>
        <time>2015-06-07T08:04:30Z</time>
      </trkpt>
      <trkpt lat="47.84776" lon="-1.74855">
        <ele>99</ele>
        <time>2015-06-07T08:04:31Z</time>
      </trkpt>
      <trkpt lat="47.84774" lon="-1.74856">
        <ele>99</ele>
        <time>2015-06-07T08:04:32Z</time>
      </trkpt>
      <trkpt lat="47.84774" lon="-1.74858">
        <ele>99</ele>
        <time>2015-06-07T08:04:33Z</time>
      </trkpt>
      <trkpt lat="47.84775" lon="-1.7486">
        <ele>100</ele>
        <time>2015-06-07T08:04:34Z</time>
      </trkpt>
      <trkpt lat="47.84776" lon="-1.74863">
        <ele>100</ele>
        <time>2015-06-07T08:04:35Z</time>
      </trkpt>
      <trkpt lat="47.84777" lon="-1.74865">
        <ele>100</ele>
        <time>2015-06-07T08:04:36Z</time>
      </trkpt>
      <trkpt lat="47.84778" lon="-1.74867">
        <ele>100</ele>
        <time>2015-06-07T08:04:37Z</time>
      </trkpt>
      <trkpt lat="47.84779" lon="-1.74869">
        <ele>100</ele>
        <time>2015-06-07T08:04:38Z</time>
      </trkpt>
      <trkpt lat="47.84781" lon="-1.7487">
        <ele>100</ele>
        <time>2015-06-07T08:04:39Z</time>
      </trkpt>
      <trkpt lat="47.84783" lon="-1.7487">
        <ele>100</ele>
        <time>2015-06-07T08:04:40Z</time>
      </trkpt>
      <trkpt lat="47.84785" lon="-1.7487">
        <ele>100</ele>
        <time>2015-06-07T08:04:41Z</time>
      </trkpt>
      <trkpt lat="47.84786" lon="-1.74872">
        <ele>101</ele>
        <time>2015-06-07T08:04:42Z</time>
      </trkpt>
      <trkpt lat="47.84787" lon="-1.74874">
        <ele>101</ele>
        <time>2015-06-07T08:04:43Z</time>
      </trkpt>
      <trkpt lat="47.84787" lon="-1.74876">
        <ele>101</ele>
        <time>2015-06-07T08:04:44Z</time>
      </trkpt>
      <trkpt lat="47.84787" lon="-1.74879">
        <ele>101</ele>
        <time>2015-06-07T08:04:45Z</time>
      </trkpt>
      <trkpt lat="47.84786" lon="-1.74881">
        <ele>101</ele>
        <time>2015-06-07T08:04:46Z</time>
      </trkpt>
      <trkpt lat="47.84785" lon="-1.74882">
        <ele>101</ele>
        <time>2015-06-07T08:04:47Z</time>
      </trkpt>
      <trkpt lat="47.84783" lon="-1.74882">
        <ele>101</ele>
        <time>2015-06-07T08:04:48Z</time>
      </trkpt>
      <trkpt lat="47.84781" lon="-1.74882">
        <ele>101</ele>
        <time>2015-06-07T08:04:49Z</time>
      </trkpt>
      <trkpt lat="47.84779" lon="-1.74882">
        <ele>101</ele>
        <time>2015-06-07T08:04:50Z</time>
      </trkpt>
      <trkpt lat="47.84777" lon="-1.74882">
        <ele>101</ele>
        <time>2015-06-07T08:04:51Z</time>
      </trkpt>
      <trkpt lat="47.84774" lon="-1.74881">
        <ele>102</ele>
        <time>2015-06-07T08:04:52Z</time>
      </trkpt>
      <trkpt lat="47.84772" lon="-1.7488">
        <ele>102</ele>
        <time>2015-06-07T08:04:53Z</time>
      </trkpt>
      <trkpt lat="47.84769" lon="-1.74877">
        <ele>102</ele>
        <time>2015-06-07T08:04:54Z</time>
      </trkpt>
      <trkpt lat="47.84767" lon="-1.74874">
        <ele>102</ele>
        <time>2015-06-07T08:04:55Z</time>
      </trkpt>
      <trkpt lat="47.84766" lon="-1.74871">
        <ele>102</ele>
        <time>2015-06-07T08:04:56Z</time>
      </trkpt>
      <trkpt lat="47.84767" lon="-1.74866">
        <ele>102</ele>
        <time>2015-06-07T08:04:57Z</time>
      </trkpt>
      <trkpt lat="47.84767" lon="-1.74862">
        <ele>102</ele>
        <time>2015-06-07T08:04:58Z</time>
      </trkpt>
      <trkpt lat="47.84768" lon="-1.74857">
        <ele>102</ele>
        <time>2015-06-07T08:04:59Z</time>
      </trkpt>
      <trkpt lat="47.84768" lon="-1.74853">
        <ele>102</ele>
        <time>2015-06-07T08:05:00Z</time>
      </trkpt>
      <trkpt lat="47.84768" lon="-1.74849">
        <ele>102</ele>
        <time>2015-06-07T08:05:01Z</time>
      </trkpt>
      <trkpt lat="47.84769" lon="-1.74844">
        <ele>102</ele>
        <time>2015-06-07T08:05:02Z</time>
      </trkpt>
      <trkpt lat="47.84768" lon="-1.7484">
        <ele>102</ele>
        <time>2015-06-07T08:05:03Z</time>
      </trkpt>
      <trkpt lat="47.84767" lon="-1.74837">
        <ele>102</ele>
        <time>2015-06-07T08:05:04Z</time>
      </trkpt>
      <trkpt lat="47.84766" lon="-1.74833">
        <ele>102</ele>
        <time>2015-06-07T08:05:05Z</time>
      </trkpt>
      <trkpt lat="47.84764" lon="-1.74828">
        <ele>101</ele>
        <time>2015-06-07T08:05:06Z</time>
      </trkpt>
      <trkpt lat="47.84761" lon="-1.74824">
        <ele>101</ele>
        <time>2015-06-07T08:05:07Z</time>
      </trkpt>
      <trkpt lat="47.84757" lon="-1.74824">
        <ele>101</ele>
        <time>2015-06-07T08:05:08Z</time>
      </trkpt>
      <trkpt lat="47.84753" lon="-1.74825">
        <ele>101</ele>
        <time>2015-06-07T08:05:09Z</time>
      </trkpt>
      <trkpt lat="47.8475" lon="-1.74827">
        <ele>100</ele>
        <time>2015-06-07T08:05:10Z</time>
      </trkpt>
      <trkpt lat="47.84747" lon="-1.74829">
        <ele>100</ele>
        <time>2015-06-07T08:05:11Z</time>
      </trkpt>
      <trkpt lat="47.84746" lon="-1.74833">
        <ele>100</ele>
        <time>2015-06-07T08:05:12Z</time>
      </trkpt>
      <trkpt lat="47.84745" lon="-1.74836">
        <ele>100</ele>
        <time>2015-06-07T08:05:13Z</time>
      </trkpt>
      <trkpt lat="47.84743" lon="-1.74839">
        <ele>100</ele>
        <time>2015-06-07T08:05:14Z</time>
      </trkpt>
      <trkpt lat="47.84742" lon="-1.74843">
        <ele>100</ele>
        <time>2015-06-07T08:05:15Z</time>
      </trkpt>
      <trkpt lat="47.84741" lon="-1.74848">
        <ele>100</ele>
        <time>2015-06-07T08:05:16Z</time>
      </trkpt>
      <trkpt lat="47.8474" lon="-1.7485">
        <ele>100</ele>
        <time>2015-06-07T08:05:17Z</time>
      </trkpt>
      <trkpt lat="47.84741" lon="-1.74852">
        <ele>100</ele>
        <time>2015-06-07T08:05:18Z</time>
      </trkpt>
      <trkpt lat="47.84742" lon="-1.74855">
        <ele>100</ele>
        <time>2015-06-07T08:05:19Z</time>
      </trkpt>
      <trkpt lat="47.84743" lon="-1.74858">
        <ele>100</ele>
        <time>2015-06-07T08:05:20Z</time>
      </trkpt>
      <trkpt lat="47.84743" lon="-1.74861">
        <ele>100</ele>
        <time>2015-06-07T08:05:21Z</time>
      </trkpt>
      <trkpt lat="47.84743" lon="-1.74865">
        <ele>100</ele>
        <time>2015-06-07T08:05:22Z</time>
      </trkpt>
      <trkpt lat="47.84743" lon="-1.74868">
        <ele>99</ele>
        <time>2015-06-07T08:05:23Z</time>
      </trkpt>
      <trkpt lat="47.84744" lon="-1.74871">
        <ele>99</ele>
        <time>2015-06-07T08:05:24Z</time>
      </trkpt>
      <trkpt lat="47.84745" lon="-1.74874">
        <ele>99</ele>
        <time>2015-06-07T08:05:25Z</time>
      </trkpt>
      <trkpt lat="47.84746" lon="-1.74876">
        <ele>99</ele>
        <time>2015-06-07T08:05:26Z</time>
      </trkpt>
      <trkpt lat="47.84747" lon="-1.74878">
        <ele>99</ele>
        <time>2015-06-07T08:05:27Z</time>
      </trkpt>
      <trkpt lat="47.84747" lon="-1.7488">
        <ele>100</ele>
        <time>2015-06-07T08:05:28Z</time>
      </trkpt>
      <trkpt lat="47.84748" lon="-1.74884">
        <ele>100</ele>
        <time>2015-06-07T08:05:29Z</time>
      </trkpt>
      <trkpt lat="47.84749" lon="-1.74886">
        <ele>100</ele>
        <time>2015-06-07T08:05:30Z</time>
      </trkpt>
      <trkpt lat="47.84751" lon="-1.74889">
        <ele>100</ele>
        <time>2015-06-07T08:05:31Z</time>
      </trkpt>
      <trkpt lat="47.84753" lon="-1.74892">
        <ele>100</ele>
        <time>2015-06-07T08:05:32Z</time>
      </trkpt>
      <trkpt lat="47.84753" lon="-1.74894">
        <ele>100</ele>
        <time>2015-06-07T08:05:33Z</time>
      </trkpt>
      <trkpt lat="47.84753" lon="-1.74897">
        <ele>100</ele>
        <time>2015-06-07T08:05:34Z</time>
      </trkpt>
      <trkpt lat="47.84754" lon="-1.74901">
        <ele>101</ele>
        <time>2015-06-07T08:05:35Z</time>
      </trkpt>
      <trkpt lat="47.84756" lon="-1.74905">
        <ele>101</ele>
        <time>2015-06-07T08:05:36Z</time>
      </trkpt>
      <trkpt lat="47.84758" lon="-1.74907">
        <ele>101</ele>
        <time>2015-06-07T08:05:37Z</time>
      </trkpt>
      <trkpt lat="47.8476" lon="-1.7491">
        <ele>101</ele>
        <time>2015-06-07T08:05:38Z</time>
      </trkpt>
      <trkpt lat="47.84762" lon="-1.74913">
        <ele>102</ele>
        <time>2015-06-07T08:05:39Z</time>
      </trkpt>
      <trkpt lat="47.84764" lon="-1.74915">
        <ele>102</ele>
        <time>2015-06-07T08:05:40Z</time>
      </trkpt>
      <trkpt lat="47.84766" lon="-1.74918">
        <ele>102</ele>
        <time>2015-06-07T08:05:41Z</time>
      </trkpt>
      <trkpt lat="47.84768" lon="-1.74919">
        <ele>103</ele>
        <time>2015-06-07T08:05:42Z</time>
      </trkpt>
      <trkpt lat="47.8477" lon="-1.74922">
        <ele>103</ele>
        <time>2015-06-07T08:05:43Z</time>
      </trkpt>
      <trkpt lat="47.84772" lon="-1.74925">
        <ele>103</ele>
        <time>2015-06-07T08:05:44Z</time>
      </trkpt>
      <trkpt lat="47.84774" lon="-1.74929">
        <ele>103</ele>
        <time>2015-06-07T08:05:45Z</time>
      </trkpt>
      <trkpt lat="47.84777" lon="-1.74932">
        <ele>103</ele>
        <time>2015-06-07T08:05:46Z</time>
      </trkpt>
      <trkpt lat="47.84778" lon="-1.74935">
        <ele>103</ele>
        <time>2015-06-07T08:05:47Z</time>
      </trkpt>
      <trkpt lat="47.84778" lon="-1.74938">
        <ele>103</ele>
        <time>2015-06-07T08:05:48Z</time>
      </trkpt>
      <trkpt lat="47.84777" lon="-1.7494">
        <ele>104</ele>
        <time>2015-06-07T08:05:49Z</time>
      </trkpt>
      <trkpt lat="47.84777" lon="-1.7494">
        <ele>104</ele>
        <time>2015-06-07T08:05:50Z</time>
      </trkpt>
      <trkpt lat="47.84776" lon="-1.7494">
        <ele>104</ele>
        <time>2015-06-07T08:05:51Z</time>
      </trkpt>
      <trkpt lat="47.84775" lon="-1.74939">
        <ele>104</ele>
        <time>2015-06-07T08:05:52Z</time>
      </trkpt>
      <trkpt lat="47.84774" lon="-1.74938">
        <ele>105</ele>
        <time>2015-06-07T08:05:53Z</time>
      </trkpt>
      <trkpt lat="47.84772" lon="-1.74938">
        <ele>105</ele>
        <time>2015-06-07T08:05:54Z</time>
      </trkpt>
      <trkpt lat="47.84771" lon="-1.7494">
        <ele>105</ele>
        <time>2015-06-07T08:05:55Z</time>
      </trkpt>
      <trkpt lat="47.8477" lon="-1.74942">
        <ele>105</ele>
        <time>2015-06-07T08:05:56Z</time>
      </trkpt>
      <trkpt lat="47.84768" lon="-1.74944">
        <ele>106</ele>
        <time>2015-06-07T08:05:57Z</time>
      </trkpt>
      <trkpt lat="47.84767" lon="-1.74943">
        <ele>106</ele>
        <time>2015-06-07T08:05:58Z</time>
      </trkpt>
      <trkpt lat="47.84765" lon="-1.74942">
        <ele>106</ele>
        <time>2015-06-07T08:05:59Z</time>
      </trkpt>
      <trkpt lat="47.84764" lon="-1.74942">
        <ele>106</ele>
        <time>2015-06-07T08:06:00Z</time>
      </trkpt>
      <trkpt lat="47.84761" lon="-1.74942">
        <ele>106</ele>
        <time>2015-06-07T08:06:01Z</time>
      </trkpt>
      <trkpt lat="47.8476" lon="-1.74942">
        <ele>106</ele>
        <time>2015-06-07T08:06:02Z</time>
      </trkpt>
      <trkpt lat="47.84759" lon="-1.74941">
        <ele>106</ele>
        <time>2015-06-07T08:06:03Z</time>
      </trkpt>
      <trkpt lat="47.84759" lon="-1.7494">
        <ele>106</ele>
        <time>2015-06-07T08:06:04Z</time>
      </trkpt>
      <trkpt lat="47.8476" lon="-1.74939">
        <ele>107</ele>
        <time>2015-06-07T08:06:05Z</time>
      </trkpt>
      <trkpt lat="47.8476" lon="-1.74938">
        <ele>107</ele>
        <time>2015-06-07T08:06:06Z</time>
      </trkpt>
      <trkpt lat="47.84759" lon="-1.74937">
        <ele>107</ele>
        <time>2015-06-07T08:06:07Z</time>
      </trkpt>
      <trkpt lat="47.84758" lon="-1.74936">
        <ele>107</ele>
        <time>2015-06-07T08:06:08Z</time>
      </trkpt>
      <trkpt lat="47.84759" lon="-1.74935">
        <ele>107</ele>
        <time>2015-06-07T08:06:09Z</time>
      </trkpt>
      <trkpt lat="47.84759" lon="-1.74933">
        <ele>107</ele>
        <time>2015-06-07T08:06:10Z</time>
      </trkpt>
      <trkpt lat="47.84759" lon="-1.74932">
        <ele>107</ele>
        <time>2015-06-07T08:06:11Z</time>
      </trkpt>
      <trkpt lat="47.84758" lon="-1.74932">
        <ele>107</ele>
        <time>2015-06-07T08:06:12Z</time>
      </trkpt>
      <trkpt lat="47.84757" lon="-1.74932">
        <ele>107</ele>
        <time>2015-06-07T08:06:13Z</time>
      </trkpt>
      <trkpt lat="47.84754" lon="-1.74932">
        <ele>107</ele>
        <time>2015-06-07T08:06:14Z</time>
      </trkpt>
      <trkpt lat="47.84752" lon="-1.74932">
        <ele>107</ele>
        <time>2015-06-07T08:06:15Z</time>
      </trkpt>
      <trkpt lat="47.84751" lon="-1.74931">
        <ele>108</ele>
        <time>2015-06-07T08:06:16Z</time>
      </trkpt>
      <trkpt lat="47.84751" lon="-1.7493">
        <ele>108</ele>
        <time>2015-06-07T08:06:17Z</time>
      </trkpt>
      <trkpt lat="47.84751" lon="-1.74929">
        <ele>108</ele>
        <time>2015-06-07T08:06:18Z</time>
      </trkpt>
      <trkpt lat="47.84751" lon="-1.74926">
        <ele>108</ele>
        <time>2015-06-07T08:06:19Z</time>
      </trkpt>
      <trkpt lat="47.84751" lon="-1.74923">
        <ele>108</ele>
        <time>2015-06-07T08:06:20Z</time>
      </trkpt>
      <trkpt lat="47.84752" lon="-1.74922">
        <ele>108</ele>
        <time>2015-06-07T08:06:21Z</time>
      </trkpt>
      <trkpt lat="47.84753" lon="-1.74922">
        <ele>107</ele>
        <time>2015-06-07T08:06:22Z</time>
      </trkpt>
      <trkpt lat="47.84754" lon="-1.74921">
        <ele>107</ele>
        <time>2015-06-07T08:06:23Z</time>
      </trkpt>
      <trkpt lat="47.84755" lon="-1.74919">
        <ele>107</ele>
        <time>2015-06-07T08:06:24Z</time>
      </trkpt>
      <trkpt lat="47.84754" lon="-1.74916">
        <ele>107</ele>
        <time>2015-06-07T08:06:25Z</time>
      </trkpt>
      <trkpt lat="47.84754" lon="-1.74912">
        <ele>107</ele>
        <time>2015-06-07T08:06:26Z</time>
      </trkpt>
      <trkpt lat="47.84752" lon="-1.74908">
        <ele>107</ele>
        <time>2015-06-07T08:06:27Z</time>
      </trkpt>
      <trkpt lat="47.84751" lon="-1.74903">
        <ele>106</ele>
        <time>2015-06-07T08:06:28Z</time>
      </trkpt>
      <trkpt lat="47.84748" lon="-1.74898">
        <ele>106</ele>
        <time>2015-06-07T08:06:29Z</time>
      </trkpt>
      <trkpt lat="47.84747" lon="-1.74892">
        <ele>106</ele>
        <time>2015-06-07T08:06:30Z</time>
      </trkpt>
      <trkpt lat="47.84744" lon="-1.74887">
        <ele>106</ele>
        <time>2015-06-07T08:06:31Z</time>
      </trkpt>
      <trkpt lat="47.84741" lon="-1.74883">
        <ele>105</ele>
        <time>2015-06-07T08:06:32Z</time>
      </trkpt>
      <trkpt lat="47.84738" lon="-1.7488">
        <ele>105</ele>
        <time>2015-06-07T08:06:33Z</time>
      </trkpt>
      <trkpt lat="47.84736" lon="-1.74878">
        <ele>105</ele>
        <time>2015-06-07T08:06:34Z</time>
      </trkpt>
      <trkpt lat="47.84736" lon="-1.74875">
        <ele>105</ele>
        <time>2015-06-07T08:06:35Z</time>
      </trkpt>
      <trkpt lat="47.84737" lon="-1.74871">
        <ele>104</ele>
        <time>2015-06-07T08:06:36Z</time>
      </trkpt>
      <trkpt lat="47.84737" lon="-1.74866">
        <ele>104</ele>
        <time>2015-06-07T08:06:37Z</time>
      </trkpt>
      <trkpt lat="47.84738" lon="-1.74861">
        <ele>104</ele>
        <time>2015-06-07T08:06:38Z</time>
      </trkpt>
      <trkpt lat="47.84738" lon="-1.74857">
        <ele>103</ele>
        <time>2015-06-07T08:06:39Z</time>
      </trkpt>
      <trkpt lat="47.84738" lon="-1.74853">
        <ele>103</ele>
        <time>2015-06-07T08:06:40Z</time>
      </trkpt>
      <trkpt lat="47.84738" lon="-1.74847">
        <ele>102</ele>
        <time>2015-06-07T08:06:41Z</time>
      </trkpt>
      <trkpt lat="47.84738" lon="-1.74843">
        <ele>102</ele>
        <time>2015-06-07T08:06:42Z</time>
      </trkpt>
      <trkpt lat="47.84737" lon="-1.7484">
        <ele>102</ele>
        <time>2015-06-07T08:06:43Z</time>
      </trkpt>
      <trkpt lat="47.84736" lon="-1.74841">
        <ele>101</ele>
        <time>2015-06-07T08:06:44Z</time>
      </trkpt>
      <trkpt lat="47.84734" lon="-1.74841">
        <ele>101</ele>
        <time>2015-06-07T08:06:45Z</time>
      </trkpt>
      <trkpt lat="47.84732" lon="-1.74841">
        <ele>101</ele>
        <time>2015-06-07T08:06:46Z</time>
      </trkpt>
      <trkpt lat="47.84729" lon="-1.74841">
        <ele>100</ele>
        <time>2015-06-07T08:06:47Z</time>
      </trkpt>
      <trkpt lat="47.84727" lon="-1.7484">
        <ele>100</ele>
        <time>2015-06-07T08:06:48Z</time>
      </trkpt>
      <trkpt lat="47.84725" lon="-1.7484">
        <ele>100</ele>
        <time>2015-06-07T08:06:49Z</time>
      </trkpt>
      <trkpt lat="47.84723" lon="-1.7484">
        <ele>100</ele>
        <time>2015-06-07T08:06:50Z</time>
      </trkpt>
      <trkpt lat="47.84722" lon="-1.74842">
        <ele>99</ele>
        <time>2015-06-07T08:06:51Z</time>
      </trkpt>
      <trkpt lat="47.84722" lon="-1.74844">
        <ele>99</ele>
        <time>2015-06-07T08:06:52Z</time>
      </trkpt>
      <trkpt lat="47.84722" lon="-1.74846">
        <ele>99</ele>
        <time>2015-06-07T08:06:53Z</time>
      </trkpt>
      <trkpt lat="47.8472" lon="-1.74849">
        <ele>98</ele>
        <time>2015-06-07T08:06:54Z</time>
      </trkpt>
      <trkpt lat="47.84718" lon="-1.74852">
        <ele>98</ele>
        <time>2015-06-07T08:06:55Z</time>
      </trkpt>
      <trkpt lat="47.84715" lon="-1.74854">
        <ele>98</ele>
        <time>2015-06-07T08:06:56Z</time>
      </trkpt>
      <trkpt lat="47.84713" lon="-1.74857">
        <ele>97</ele>
        <time>2015-06-07T08:06:57Z</time>
      </trkpt>
      <trkpt lat="47.84713" lon="-1.74858">
        <ele>97</ele>
        <time>2015-06-07T08:06:58Z</time>
      </trkpt>
      <trkpt lat="47.84713" lon="-1.74858">
        <ele>97</ele>
        <time>2015-06-07T08:06:59Z</time>
      </trkpt>
      <trkpt lat="47.84714" lon="-1.7486">
        <ele>97</ele>
        <time>2015-06-07T08:07:00Z</time>
      </trkpt>
      <trkpt lat="47.84714" lon="-1.74862">
        <ele>97</ele>
        <time>2015-06-07T08:07:01Z</time>
      </trkpt>
      <trkpt lat="47.84714" lon="-1.74864">
        <ele>97</ele>
        <time>2015-06-07T08:07:02Z</time>
      </trkpt>
      <trkpt lat="47.84714" lon="-1.74866">
        <ele>96</ele>
        <time>2015-06-07T08:07:03Z</time>
      </trkpt>
      <trkpt lat="47.84712" lon="-1.74868">
        <ele>96</ele>
        <time>2015-06-07T08:07:04Z</time>
      </trkpt>
      <trkpt lat="47.8471" lon="-1.74871">
        <ele>96</ele>
        <time>2015-06-07T08:07:05Z</time>
      </trkpt>
      <trkpt lat="47.84707" lon="-1.74874">
        <ele>96</ele>
        <time>2015-06-07T08:07:06Z</time>
      </trkpt>
      <trkpt lat="47.84704" lon="-1.74878">
        <ele>96</ele>
        <time>2015-06-07T08:07:07Z</time>
      </trkpt>
      <trkpt lat="47.84701" lon="-1.74882">
        <ele>96</ele>
        <time>2015-06-07T08:07:08Z</time>
      </trkpt>
      <trkpt lat="47.84699" lon="-1.74886">
        <ele>96</ele>
        <time>2015-06-07T08:07:09Z</time>
      </trkpt>
      <trkpt lat="47.84698" lon="-1.74892">
        <ele>96</ele>
        <time>2015-06-07T08:07:10Z</time>
      </trkpt>
      <trkpt lat="47.84696" lon="-1.74896">
        <ele>96</ele>
        <time>2015-06-07T08:07:11Z</time>
      </trkpt>
      <trkpt lat="47.84694" lon="-1.74899">
        <ele>96</ele>
        <time>2015-06-07T08:07:12Z</time>
      </trkpt>
      <trkpt lat="47.84691" lon="-1.749">
        <ele>96</ele>
        <time>2015-06-07T08:07:13Z</time>
      </trkpt>
      <trkpt lat="47.84688" lon="-1.74902">
        <ele>96</ele>
        <time>2015-06-07T08:07:14Z</time>
      </trkpt>
      <trkpt lat="47.84686" lon="-1.74905">
        <ele>96</ele>
        <time>2015-06-07T08:07:15Z</time>
      </trkpt>
      <trkpt lat="47.84687" lon="-1.74906">
        <ele>96</ele>
        <time>2015-06-07T08:07:16Z</time>
      </trkpt>
      <trkpt lat="47.84689" lon="-1.74907">
        <ele>96</ele>
        <time>2015-06-07T08:07:17Z</time>
      </trkpt>
      <trkpt lat="47.8469" lon="-1.74907">
        <ele>96</ele>
        <time>2015-06-07T08:07:18Z</time>
      </trkpt>
      <trkpt lat="47.84692" lon="-1.74907">
        <ele>96</ele>
        <time>2015-06-07T08:07:19Z</time>
      </trkpt>
      <trkpt lat="47.84693" lon="-1.74908">
        <ele>95</ele>
        <time>2015-06-07T08:07:20Z</time>
      </trkpt>
      <trkpt lat="47.84695" lon="-1.74908">
        <ele>95</ele>
        <time>2015-06-07T08:07:21Z</time>
      </trkpt>
      <trkpt lat="47.84697" lon="-1.74909">
        <ele>95</ele>
        <time>2015-06-07T08:07:22Z</time>
      </trkpt>
      <trkpt lat="47.84698" lon="-1.7491">
        <ele>95</ele>
        <time>2015-06-07T08:07:23Z</time>
      </trkpt>
      <trkpt lat="47.847" lon="-1.74912">
        <ele>95</ele>
        <time>2015-06-07T08:07:24Z</time>
      </trkpt>
      <trkpt lat="47.84702" lon="-1.74913">
        <ele>95</ele>
        <time>2015-06-07T08:07:25Z</time>
      </trkpt>
      <trkpt lat="47.84704" lon="-1.74915">
        <ele>95</ele>
        <time>2015-06-07T08:07:26Z</time>
      </trkpt>
      <trkpt lat="47.84705" lon="-1.74916">
        <ele>95</ele>
        <time>2015-06-07T08:07:27Z</time>
      </trkpt>
      <trkpt lat="47.84707" lon="-1.74918">
        <ele>95</ele>
        <time>2015-06-07T08:07:28Z</time>
      </trkpt>
      <trkpt lat="47.84708" lon="-1.74919">
        <ele>95</ele>
        <time>2015-06-07T08:07:29Z</time>
      </trkpt>
      <trkpt lat="47.8471" lon="-1.74921">
        <ele>96</ele>
        <time>2015-06-07T08:07:30Z</time>
      </trkpt>
      <trkpt lat="47.8471" lon="-1.74922">
        <ele>96</ele>
        <time>2015-06-07T08:07:31Z</time>
      </trkpt>
      <trkpt lat="47.84709" lon="-1.74923">
        <ele>96</ele>
        <time>2015-06-07T08:07:32Z</time>
      </trkpt>
      <trkpt lat="47.84709" lon="-1.74925">
        <ele>96</ele>
        <time>2015-06-07T08:07:33Z</time>
      </trkpt>
      <trkpt lat="47.84709" lon="-1.74928">
        <ele>96</ele>
        <time>2015-06-07T08:07:34Z</time>
      </trkpt>
      <trkpt lat="47.8471" lon="-1.7493">
        <ele>97</ele>
        <time>2015-06-07T08:07:35Z</time>
      </trkpt>
      <trkpt lat="47.84711" lon="-1.74932">
        <ele>97</ele>
        <time>2015-06-07T08:07:36Z</time>
      </trkpt>
      <trkpt lat="47.84711" lon="-1.74935">
        <ele>97</ele>
        <time>2015-06-07T08:07:37Z</time>
      </trkpt>
      <trkpt lat="47.84711" lon="-1.74936">
        <ele>97</ele>
        <time>2015-06-07T08:07:38Z</time>
      </trkpt>
      <trkpt lat="47.84711" lon="-1.74937">
        <ele>97</ele>
        <time>2015-06-07T08:07:39Z</time>
      </trkpt>
      <trkpt lat="47.84709" lon="-1.74939">
        <ele>98</ele>
        <time>2015-06-07T08:07:40Z</time>
      </trkpt>
      <trkpt lat="47.84709" lon="-1.74942">
        <ele>98</ele>
        <time>2015-06-07T08:07:41Z</time>
      </trkpt>
      <trkpt lat="47.84708" lon="-1.74946">
        <ele>98</ele>
        <time>2015-06-07T08:07:42Z</time>
      </trkpt>
      <trkpt lat="47.84708" lon="-1.74949">
        <ele>98</ele>
        <time>2015-06-07T08:07:43Z</time>
      </trkpt>
      <trkpt lat="47.84706" lon="-1.74952">
        <ele>98</ele>
        <time>2015-06-07T08:07:44Z</time>
      </trkpt>
      <trkpt lat="47.84706" lon="-1.74956">
        <ele>99</ele>
        <time>2015-06-07T08:07:45Z</time>
      </trkpt>
      <trkpt lat="47.84707" lon="-1.74959">
        <ele>99</ele>
        <time>2015-06-07T08:07:46Z</time>
      </trkpt>
      <trkpt lat="47.84709" lon="-1.74961">
        <ele>99</ele>
        <time>2015-06-07T08:07:47Z</time>
      </trkpt>
      <trkpt lat="47.84711" lon="-1.74962">
        <ele>99</ele>
        <time>2015-06-07T08:07:48Z</time>
      </trkpt>
      <trkpt lat="47.84712" lon="-1.74962">
        <ele>100</ele>
        <time>2015-06-07T08:07:49Z</time>
      </trkpt>
      <trkpt lat="47.84714" lon="-1.74961">
        <ele>100</ele>
        <time>2015-06-07T08:07:50Z</time>
      </trkpt>
      <trkpt lat="47.84716" lon="-1.7496">
        <ele>100</ele>
        <time>2015-06-07T08:07:51Z</time>
      </trkpt>
      <trkpt lat="47.84718" lon="-1.74961">
        <ele>100</ele>
        <time>2015-06-07T08:07:52Z</time>
      </trkpt>
      <trkpt lat="47.84718" lon="-1.74964">
        <ele>101</ele>
        <time>2015-06-07T08:07:53Z</time>
      </trkpt>
      <trkpt lat="47.84719" lon="-1.74967">
        <ele>101</ele>
        <time>2015-06-07T08:07:54Z</time>
      </trkpt>
      <trkpt lat="47.8472" lon="-1.7497">
        <ele>101</ele>
        <time>2015-06-07T08:07:55Z</time>
      </trkpt>
      <trkpt lat="47.84722" lon="-1.74973">
        <ele>101</ele>
        <time>2015-06-07T08:07:56Z</time>
      </trkpt>
      <trkpt lat="47.84723" lon="-1.74975">
        <ele>101</ele>
        <time>2015-06-07T08:07:57Z</time>
      </trkpt>
      <trkpt lat="47.84725" lon="-1.74977">
        <ele>102</ele>
        <time>2015-06-07T08:07:58Z</time>
      </trkpt>
      <trkpt lat="47.84726" lon="-1.74977">
        <ele>102</ele>
        <time>2015-06-07T08:07:59Z</time>
      </trkpt>
      <trkpt lat="47.84728" lon="-1.74976">
        <ele>102</ele>
        <time>2015-06-07T08:08:00Z</time>
      </trkpt>
      <trkpt lat="47.84728" lon="-1.74975">
        <ele>103</ele>
        <time>2015-06-07T08:08:01Z</time>
      </trkpt>
      <trkpt lat="47.84729" lon="-1.74974">
        <ele>103</ele>
        <time>2015-06-07T08:08:02Z</time>
      </trkpt>
      <trkpt lat="47.8473" lon="-1.74973">
        <ele>103</ele>
        <time>2015-06-07T08:08:03Z</time>
      </trkpt>
      <trkpt lat="47.84731" lon="-1.74972">
        <ele>103</ele>
        <time>2015-06-07T08:08:04Z</time>
      </trkpt>
      <trkpt lat="47.84733" lon="-1.74971">
        <ele>104</ele>
        <time>2015-06-07T08:08:05Z</time>
      </trkpt>
      <trkpt lat="47.84735" lon="-1.74972">
        <ele>104</ele>
        <time>2015-06-07T08:08:06Z</time>
      </trkpt>
      <trkpt lat="47.84736" lon="-1.74974">
        <ele>104</ele>
        <time>2015-06-07T08:08:07Z</time>
      </trkpt>
      <trkpt lat="47.84738" lon="-1.74975">
        <ele>104</ele>
        <time>2015-06-07T08:08:08Z</time>
      </trkpt>
      <trkpt lat="47.8474" lon="-1.74975">
        <ele>104</ele>
        <time>2015-06-07T08:08:09Z</time>
      </trkpt>
      <trkpt lat="47.84742" lon="-1.74976">
        <ele>105</ele>
        <time>2015-06-07T08:08:10Z</time>
      </trkpt>
      <trkpt lat="47.84744" lon="-1.74978">
        <ele>105</ele>
        <time>2015-06-07T08:08:11Z</time>
      </trkpt>
      <trkpt lat="47.84745" lon="-1.7498">
        <ele>105</ele>
        <time>2015-06-07T08:08:12Z</time>
      </trkpt>
      <trkpt lat="47.84746" lon="-1.74982">
        <ele>105</ele>
        <time>2015-06-07T08:08:13Z</time>
      </trkpt>
      <trkpt lat="47.84747" lon="-1.74985">
        <ele>105</ele>
        <time>2015-06-07T08:08:14Z</time>
      </trkpt>
      <trkpt lat="47.84749" lon="-1.74987">
        <ele>105</ele>
        <time>2015-06-07T08:08:15Z</time>
      </trkpt>
      <trkpt lat="47.84751" lon="-1.7499">
        <ele>105</ele>
        <time>2015-06-07T08:08:16Z</time>
      </trkpt>
      <trkpt lat="47.84752" lon="-1.74993">
        <ele>105</ele>
        <time>2015-06-07T08:08:17Z</time>
      </trkpt>
      <trkpt lat="47.84753" lon="-1.74996">
        <ele>105</ele>
        <time>2015-06-07T08:08:18Z</time>
      </trkpt>
      <trkpt lat="47.84754" lon="-1.74998">
        <ele>106</ele>
        <time>2015-06-07T08:08:19Z</time>
      </trkpt>
      <trkpt lat="47.84757" lon="-1.75">
        <ele>106</ele>
        <time>2015-06-07T08:08:20Z</time>
      </trkpt>
      <trkpt lat="47.84758" lon="-1.75001">
        <ele>106</ele>
        <time>2015-06-07T08:08:21Z</time>
      </trkpt>
      <trkpt lat="47.84759" lon="-1.75003">
        <ele>106</ele>
        <time>2015-06-07T08:08:22Z</time>
      </trkpt>
      <trkpt lat="47.8476" lon="-1.75005">
        <ele>106</ele>
        <time>2015-06-07T08:08:23Z</time>
      </trkpt>
      <trkpt lat="47.8476" lon="-1.75007">
        <ele>106</ele>
        <time>2015-06-07T08:08:24Z</time>
      </trkpt>
      <trkpt lat="47.84761" lon="-1.75009">
        <ele>106</ele>
        <time>2015-06-07T08:08:25Z</time>
      </trkpt>
      <trkpt lat="47.84761" lon="-1.75012">
        <ele>105</ele>
        <time>2015-06-07T08:08:26Z</time>
      </trkpt>
      <trkpt lat="47.84761" lon="-1.75016">
        <ele>105</ele>
        <time>2015-06-07T08:08:27Z</time>
      </trkpt>
      <trkpt lat="47.84761" lon="-1.75019">
        <ele>105</ele>
        <time>2015-06-07T08:08:28Z</time>
      </trkpt>
      <trkpt lat="47.8476" lon="-1.75021">
        <ele>105</ele>
        <time>2015-06-07T08:08:29Z</time>
      </trkpt>
      <trkpt lat="47.84758" lon="-1.75024">
        <ele>105</ele>
        <time>2015-06-07T08:08:30Z</time>
      </trkpt>
      <trkpt lat="47.84756" lon="-1.75027">
        <ele>105</ele>
        <time>2015-06-07T08:08:31Z</time>
      </trkpt>
      <trkpt lat="47.84755" lon="-1.75031">
        <ele>105</ele>
        <time>2015-06-07T08:08:32Z</time>
      </trkpt>
      <trkpt lat="47.84753" lon="-1.75034">
        <ele>105</ele>
        <time>2015-06-07T08:08:33Z</time>
      </trkpt>
      <trkpt lat="47.84752" lon="-1.75036">
        <ele>105</ele>
        <time>2015-06-07T08:08:34Z</time>
      </trkpt>
      <trkpt lat="47.84751" lon="-1.75038">
        <ele>105</ele>
        <time>2015-06-07T08:08:35Z</time>
      </trkpt>
      <trkpt lat="47.84749" lon="-1.75039">
        <ele>105</ele>
        <time>2015-06-07T08:08:36Z</time>
      </trkpt>
      <trkpt lat="47.84748" lon="-1.75037">
        <ele>105</ele>
        <time>2015-06-07T08:08:37Z</time>
      </trkpt>
      <trkpt lat="47.84746" lon="-1.75036">
        <ele>105</ele>
        <time>2015-06-07T08:08:38Z</time>
      </trkpt>
      <trkpt lat="47.84744" lon="-1.75037">
        <ele>105</ele>
        <time>2015-06-07T08:08:39Z</time>
      </trkpt>
      <trkpt lat="47.84741" lon="-1.75037">
        <ele>105</ele>
        <time>2015-06-07T08:08:40Z</time>
      </trkpt>
      <trkpt lat="47.84739" lon="-1.75037">
        <ele>105</ele>
        <time>2015-06-07T08:08:41Z</time>
      </trkpt>
      <trkpt lat="47.84737" lon="-1.75036">
        <ele>106</ele>
        <time>2015-06-07T08:08:42Z</time>
      </trkpt>
      <trkpt lat="47.84735" lon="-1.75034">
        <ele>106</ele>
        <time>2015-06-07T08:08:43Z</time>
      </trkpt>
      <trkpt lat="47.84733" lon="-1.75034">
        <ele>106</ele>
        <time>2015-06-07T08:08:44Z</time>
      </trkpt>
      <trkpt lat="47.84731" lon="-1.75032">
        <ele>106</ele>
        <time>2015-06-07T08:08:45Z</time>
      </trkpt>
      <trkpt lat="47.8473" lon="-1.75031">
        <ele>106</ele>
        <time>2015-06-07T08:08:46Z</time>
      </trkpt>
      <trkpt lat="47.84729" lon="-1.75029">
        <ele>106</ele>
        <time>2015-06-07T08:08:47Z</time>
      </trkpt>
      <trkpt lat="47.84729" lon="-1.75027">
        <ele>106</ele>
        <time>2015-06-07T08:08:48Z</time>
      </trkpt>
      <trkpt lat="47.84729" lon="-1.75025">
        <ele>105</ele>
        <time>2015-06-07T08:08:49Z</time>
      </trkpt>
      <trkpt lat="47.84727" lon="-1.75022">
        <ele>105</ele>
        <time>2015-06-07T08:08:50Z</time>
      </trkpt>
      <trkpt lat="47.84727" lon="-1.75018">
        <ele>105</ele>
        <time>2015-06-07T08:08:51Z</time>
      </trkpt>
      <trkpt lat="47.84726" lon="-1.75014">
        <ele>105</ele>
        <time>2015-06-07T08:08:52Z</time>
      </trkpt>
      <trkpt lat="47.84725" lon="-1.75011">
        <ele>105</ele>
        <time>2015-06-07T08:08:53Z</time>
      </trkpt>
      <trkpt lat="47.84722" lon="-1.75008">
        <ele>105</ele>
        <time>2015-06-07T08:08:54Z</time>
      </trkpt>
      <trkpt lat="47.84719" lon="-1.75007">
        <ele>105</ele>
        <time>2015-06-07T08:08:55Z</time>
      </trkpt>
      <trkpt lat="47.84715" lon="-1.75007">
        <ele>104</ele>
        <time>2015-06-07T08:08:56Z</time>
      </trkpt>
      <trkpt lat="47.84712" lon="-1.75006">
        <ele>104</ele>
        <time>2015-06-07T08:08:57Z</time>
      </trkpt>
      <trkpt lat="47.84709" lon="-1.75004">
        <ele>104</ele>
        <time>2015-06-07T08:08:58Z</time>
      </trkpt>
      <trkpt lat="47.84707" lon="-1.75">
        <ele>104</ele>
        <time>2015-06-07T08:08:59Z</time>
      </trkpt>
      <trkpt lat="47.84707" lon="-1.74996">
        <ele>103</ele>
        <time>2015-06-07T08:09:00Z</time>
      </trkpt>
      <trkpt lat="47.84706" lon="-1.74992">
        <ele>103</ele>
        <time>2015-06-07T08:09:01Z</time>
      </trkpt>
      <trkpt lat="47.84705" lon="-1.74988">
        <ele>103</ele>
        <time>2015-06-07T08:09:02Z</time>
      </trkpt>
      <trkpt lat="47.84703" lon="-1.74986">
        <ele>103</ele>
        <time>2015-06-07T08:09:03Z</time>
      </trkpt>
      <trkpt lat="47.84701" lon="-1.74986">
        <ele>103</ele>
        <time>2015-06-07T08:09:04Z</time>
      </trkpt>
      <trkpt lat="47.847" lon="-1.74984">
        <ele>102</ele>
        <time>2015-06-07T08:09:05Z</time>
      </trkpt>
      <trkpt lat="47.84699" lon="-1.74982">
        <ele>102</ele>
        <time>2015-06-07T08:09:06Z</time>
      </trkpt>
      <trkpt lat="47.84699" lon="-1.74979">
        <ele>102</ele>
        <time>2015-06-07T08:09:07Z</time>
      </trkpt>
      <trkpt lat="47.84699" lon="-1.74975">
        <ele>102</ele>
        <time>2015-06-07T08:09:08Z</time>
      </trkpt>
      <trkpt lat="47.84699" lon="-1.74971">
        <ele>101</ele>
        <time>2015-06-07T08:09:09Z</time>
      </trkpt>
      <trkpt lat="47.84698" lon="-1.74967">
        <ele>101</ele>
        <time>2015-06-07T08:09:10Z</time>
      </trkpt>
      <trkpt lat="47.84698" lon="-1.74964">
        <ele>101</ele>
        <time>2015-06-07T08:09:11Z</time>
      </trkpt>
      <trkpt lat="47.84698" lon="-1.74959">
        <ele>100</ele>
        <time>2015-06-07T08:09:12Z</time>
      </trkpt>
      <trkpt lat="47.84697" lon="-1.74956">
        <ele>100</ele>
        <time>2015-06-07T08:09:13Z</time>
      </trkpt>
      <trkpt lat="47.84695" lon="-1.74953">
        <ele>100</ele>
        <time>2015-06-07T08:09:14Z</time>
      </trkpt>
      <trkpt lat="47.84693" lon="-1.74951">
        <ele>99</ele>
        <time>2015-06-07T08:09:15Z</time>
      </trkpt>
      <trkpt lat="47.84692" lon="-1.74952">
        <ele>99</ele>
        <time>2015-06-07T08:09:16Z</time>
      </trkpt>
      <trkpt lat="47.84692" lon="-1.74954">
        <ele>98</ele>
        <time>2015-06-07T08:09:17Z</time>
      </trkpt>
      <trkpt lat="47.84691" lon="-1.74957">
        <ele>98</ele>
        <time>2015-06-07T08:09:18Z</time>
      </trkpt>
      <trkpt lat="47.8469" lon="-1.7496">
        <ele>98</ele>
        <time>2015-06-07T08:09:19Z</time>
      </trkpt>
      <trkpt lat="47.84689" lon="-1.74962">
        <ele>97</ele>
        <time>2015-06-07T08:09:20Z</time>
      </trkpt>
      <trkpt lat="47.84688" lon="-1.74965">
        <ele>97</ele>
        <time>2015-06-07T08:09:21Z</time>
      </trkpt>
      <trkpt lat="47.84686" lon="-1.74968">
        <ele>97</ele>
        <time>2015-06-07T08:09:22Z</time>
      </trkpt>
      <trkpt lat="47.84685" lon="-1.74971">
        <ele>97</ele>
        <time>2015-06-07T08:09:23Z</time>
      </trkpt>
      <trkpt lat="47.84686" lon="-1.74973">
        <ele>97</ele>
        <time>2015-06-07T08:09:24Z</time>
      </trkpt>
      <trkpt lat="47.84686" lon="-1.74975">
        <ele>96</ele>
        <time>2015-06-07T08:09:25Z</time>
      </trkpt>
      <trkpt lat="47.84685" lon="-1.74978">
        <ele>96</ele>
        <time>2015-06-07T08:09:26Z</time>
      </trkpt>
      <trkpt lat="47.84684" lon="-1.74982">
        <ele>96</ele>
        <time>2015-06-07T08:09:27Z</time>
      </trkpt>
      <trkpt lat="47.84682" lon="-1.74987">
        <ele>96</ele>
        <time>2015-06-07T08:09:28Z</time>
      </trkpt>
      <trkpt lat="47.84682" lon="-1.74991">
        <ele>96</ele>
        <time>2015-06-07T08:09:29Z</time>
      </trkpt>
      <trkpt lat="47.84681" lon="-1.74995">
        <ele>96</ele>
        <time>2015-06-07T08:09:30Z</time>
      </trkpt>
      <trkpt lat="47.8468" lon="-1.74998">
        <ele>96</ele>
        <time>2015-06-07T08:09:31Z</time>
      </trkpt>
      <trkpt lat="47.84679" lon="-1.75">
        <ele>96</ele>
        <time>2015-06-07T08:09:32Z</time>
      </trkpt>
      <trkpt lat="47.84677" lon="-1.75001">
        <ele>96</ele>
        <time>2015-06-07T08:09:33Z</time>
      </trkpt>
      <trkpt lat="47.84674" lon="-1.75002">
        <ele>96</ele>
        <time>2015-06-07T08:09:34Z</time>
      </trkpt>
      <trkpt lat="47.84671" lon="-1.75003">
        <ele>96</ele>
        <time>2015-06-07T08:09:35Z</time>
      </trkpt>
      <trkpt lat="47.84667" lon="-1.75005">
        <ele>95</ele>
        <time>2015-06-07T08:09:36Z</time>
      </trkpt>
      <trkpt lat="47.84661" lon="-1.75008">
        <ele>95</ele>
        <time>2015-06-07T08:09:37Z</time>
      </trkpt>
      <trkpt lat="47.84656" lon="-1.75012">
        <ele>95</ele>
        <time>2015-06-07T08:09:38Z</time>
      </trkpt>
      <trkpt lat="47.84652" lon="-1.75013">
        <ele>95</ele>
        <time>2015-06-07T08:09:39Z</time>
      </trkpt>
      <trkpt lat="47.84648" lon="-1.75012">
        <ele>94</ele>
        <time>2015-06-07T08:09:40Z</time>
      </trkpt>
      <trkpt lat="47.84644" lon="-1.7501">
        <ele>94</ele>
        <time>2015-06-07T08:09:41Z</time>
      </trkpt>
      <trkpt lat="47.8464" lon="-1.75009">
        <ele>94</ele>
        <time>2015-06-07T08:09:42Z</time>
      </trkpt>
      <trkpt lat="47.84637" lon="-1.75008">
        <ele>93</ele>
        <time>2015-06-07T08:09:43Z</time>
      </trkpt>
      <trkpt lat="47.84634" lon="-1.75005">
        <ele>93</ele>
        <time>2015-06-07T08:09:44Z</time>
      </trkpt>
      <trkpt lat="47.84632" lon="-1.75004">
        <ele>93</ele>
        <time>2015-06-07T08:09:45Z</time>
      </trkpt>
      <trkpt lat="47.8463" lon="-1.75">
        <ele>92</ele>
        <time>2015-06-07T08:09:46Z</time>
      </trkpt>
      <trkpt lat="47.84629" lon="-1.74996">
        <ele>92</ele>
        <time>2015-06-07T08:09:47Z</time>
      </trkpt>
      <trkpt lat="47.84627" lon="-1.74992">
        <ele>92</ele>
        <time>2015-06-07T08:09:48Z</time>
      </trkpt>
      <trkpt lat="47.84626" lon="-1.74987">
        <ele>91</ele>
        <time>2015-06-07T08:09:49Z</time>
      </trkpt>
      <trkpt lat="47.84626" lon="-1.74982">
        <ele>91</ele>
        <time>2015-06-07T08:09:50Z</time>
      </trkpt>
      <trkpt lat="47.84627" lon="-1.74979">
        <ele>91</ele>
        <time>2015-06-07T08:09:51Z</time>
      </trkpt>
      <trkpt lat="47.84627" lon="-1.7498">
        <ele>90</ele>
        <time>2015-06-07T08:09:52Z</time>
      </trkpt>
      <trkpt lat="47.84628" lon="-1.74982">
        <ele>90</ele>
        <time>2015-06-07T08:09:53Z</time>
      </trkpt>
      <trkpt lat="47.8463" lon="-1.74984">
        <ele>90</ele>
        <time>2015-06-07T08:09:54Z</time>
      </trkpt>
      <trkpt lat="47.84633" lon="-1.74983">
        <ele>90</ele>
        <time>2015-06-07T08:09:55Z</time>
      </trkpt>
      <trkpt lat="47.84636" lon="-1.74983">
        <ele>90</ele>
        <time>2015-06-07T08:09:56Z</time>
      </trkpt>
      <trkpt lat="47.84638" lon="-1.74981">
        <ele>90</ele>
        <time>2015-06-07T08:09:57Z</time>
      </trkpt>
      <trkpt lat="47.8464" lon="-1.74978">
        <ele>90</ele>
        <time>2015-06-07T08:09:58Z</time>
      </trkpt>
      <trkpt lat="47.84641" lon="-1.74974">
        <ele>90</ele>
        <time>2015-06-07T08:09:59Z</time>
      </trkpt>
      <trkpt lat="47.84643" lon="-1.74969">
        <ele>89</ele>
        <time>2015-06-07T08:10:00Z</time>
      </trkpt>
      <trkpt lat="47.84645" lon="-1.74966">
        <ele>89</ele>
        <time>2015-06-07T08:10:01Z</time>
      </trkpt>
      <trkpt lat="47.84645" lon="-1.74962">
        <ele>89</ele>
        <time>2015-06-07T08:10:02Z</time>
      </trkpt>
      <trkpt lat="47.84645" lon="-1.74958">
        <ele>89</ele>
        <time>2015-06-07T08:10:03Z</time>
      </trkpt>
      <trkpt lat="47.84644" lon="-1.74955">
        <ele>89</ele>
        <time>2015-06-07T08:10:04Z</time>
      </trkpt>
      <trkpt lat="47.84642" lon="-1.74953">
        <ele>88</ele>
        <time>2015-06-07T08:10:05Z</time>
      </trkpt>
      <trkpt lat="47.8464" lon="-1.74954">
        <ele>88</ele>
        <time>2015-06-07T08:10:06Z</time>
      </trkpt>
      <trkpt lat="47.84637" lon="-1.74956">
        <ele>88</ele>
        <time>2015-06-07T08:10:07Z</time>
      </trkpt>
      <trkpt lat="47.84635" lon="-1.74958">
        <ele>88</ele>
        <time>2015-06-07T08:10:08Z</time>
      </trkpt>
      <trkpt lat="47.84632" lon="-1.74955">
        <ele>87</ele>
        <time>2015-06-07T08:10:09Z</time>
      </trkpt>
      <trkpt lat="47.84629" lon="-1.74952">
        <ele>87</ele>
        <time>2015-06-07T08:10:10Z</time>
      </trkpt>
      <trkpt lat="47.84626" lon="-1.74952">
        <ele>87</ele>
        <time>2015-06-07T08:10:11Z</time>
      </trkpt>
      <trkpt lat="47.84623" lon="-1.74955">
        <ele>87</ele>
        <time>2015-06-07T08:10:12Z</time>
      </trkpt>
      <trkpt lat="47.8462" lon="-1.74959">
        <ele>87</ele>
        <time>2015-06-07T08:10:13Z</time>
      </trkpt>
      <trkpt lat="47.84618" lon="-1.74963">
        <ele>87</ele>
        <time>2015-06-07T08:10:14Z</time>
      </trkpt>
      <trkpt lat="47.84616" lon="-1.74968">
        <ele>87</ele>
        <time>2015-06-07T08:10:15Z</time>
      </trkpt>
      <trkpt lat="47.84614" lon="-1.74971">
        <ele>87</ele>
        <time>2015-06-07T08:10:16Z</time>
      </trkpt>
      <trkpt lat="47.84611" lon="-1.74975">
        <ele>86</ele>
        <time>2015-06-07T08:10:17Z</time>
      </trkpt>
      <trkpt lat="47.84608" lon="-1.7498">
        <ele>86</ele>
        <time>2015-06-07T08:10:18Z</time>
      </trkpt>
      <trkpt lat="47.84605" lon="-1.74982">
        <ele>86</ele>
        <time>2015-06-07T08:10:19Z</time>
      </trkpt>
      <trkpt lat="47.84602" lon="-1.74982">
        <ele>86</ele>
        <time>2015-06-07T08:10:20Z</time>
      </trkpt>
      <trkpt lat="47.846" lon="-1.7498">
        <ele>86</ele>
        <time>2015-06-07T08:10:21Z</time>
      </trkpt>
      <trkpt lat="47.846" lon="-1.74977">
        <ele>86</ele>
        <time>2015-06-07T08:10:22Z</time>
      </trkpt>
      <trkpt lat="47.84601" lon="-1.74974">
        <ele>85</ele>
        <time>2015-06-07T08:10:23Z</time>
      </trkpt>
      <trkpt lat="47.84601" lon="-1.7497">
        <ele>85</ele>
        <time>2015-06-07T08:10:24Z</time>
      </trkpt>
      <trkpt lat="47.84602" lon="-1.74969">
        <ele>85</ele>
        <time>2015-06-07T08:10:25Z</time>
      </trkpt>
      <trkpt lat="47.84602" lon="-1.74967">
        <ele>85</ele>
        <time>2015-06-07T08:10:26Z</time>
      </trkpt>
      <trkpt lat="47.84602" lon="-1.74965">
        <ele>85</ele>
        <time>2015-06-07T08:10:27Z</time>
      </trkpt>
      <trkpt lat="47.846" lon="-1.74963">
        <ele>85</ele>
        <time>2015-06-07T08:10:28Z</time>
      </trkpt>
      <trkpt lat="47.84598" lon="-1.74963">
        <ele>84</ele>
        <time>2015-06-07T08:10:29Z</time>
      </trkpt>
      <trkpt lat="47.84595" lon="-1.74961">
        <ele>84</ele>
        <time>2015-06-07T08:10:30Z</time>
      </trkpt>
      <trkpt lat="47.84593" lon="-1.74958">
        <ele>84</ele>
        <time>2015-06-07T08:10:31Z</time>
      </trkpt>
      <trkpt lat="47.8459" lon="-1.74956">
        <ele>84</ele>
        <time>2015-06-07T08:10:32Z</time>
      </trkpt>
      <trkpt lat="47.84587" lon="-1.74954">
        <ele>83</ele>
        <time>2015-06-07T08:10:33Z</time>
      </trkpt>
      <trkpt lat="47.84584" lon="-1.74954">
        <ele>83</ele>
        <time>2015-06-07T08:10:34Z</time>
      </trkpt>
      <trkpt lat="47.84581" lon="-1.74955">
        <ele>83</ele>
        <time>2015-06-07T08:10:35Z</time>
      </trkpt>
      <trkpt lat="47.84577" lon="-1.74958">
        <ele>83</ele>
        <time>2015-06-07T08:10:36Z</time>
      </trkpt>
      <trkpt lat="47.84574" lon="-1.7496">
        <ele>83</ele>
        <time>2015-06-07T08:10:37Z</time>
      </trkpt>
      <trkpt lat="47.8457" lon="-1.74959">
        <ele>83</ele>
        <time>2015-06-07T08:10:38Z</time>
      </trkpt>
      <trkpt lat="47.84567" lon="-1.74957">
        <ele>83</ele>
        <time>2015-06-07T08:10:39Z</time>
      </trkpt>
      <trkpt lat="47.84563" lon="-1.74956">
        <ele>82</ele>
        <time>2015-06-07T08:10:40Z</time>
      </trkpt>
      <trkpt lat="47.8456" lon="-1.74956">
        <ele>82</ele>
        <time>2015-06-07T08:10:41Z</time>
      </trkpt>
      <trkpt lat="47.84558" lon="-1.74958">
        <ele>82</ele>
        <time>2015-06-07T08:10:42Z</time>
      </trkpt>
      <trkpt lat="47.84556" lon="-1.7496">
        <ele>82</ele>
        <time>2015-06-07T08:10:43Z</time>
      </trkpt>
      <trkpt lat="47.84553" lon="-1.74964">
        <ele>82</ele>
        <time>2015-06-07T08:10:44Z</time>
      </trkpt>
      <trkpt lat="47.84551" lon="-1.74966">
        <ele>82</ele>
        <time>2015-06-07T08:10:45Z</time>
      </trkpt>
      <trkpt lat="47.84548" lon="-1.74966">
        <ele>82</ele>
        <time>2015-06-07T08:10:46Z</time>
      </trkpt>
      <trkpt lat="47.84546" lon="-1.74965">
        <ele>82</ele>
        <time>2015-06-07T08:10:47Z</time>
      </trkpt>
      <trkpt lat="47.84544" lon="-1.74962">
        <ele>82</ele>
        <time>2015-06-07T08:10:48Z</time>
      </trkpt>
      <trkpt lat="47.84541" lon="-1.7496">
        <ele>81</ele>
        <time>2015-06-07T08:10:49Z</time>
      </trkpt>
      <trkpt lat="47.84538" lon="-1.74959">
        <ele>81</ele>
        <time>2015-06-07T08:10:50Z</time>
      </trkpt>
      <trkpt lat="47.84535" lon="-1.7496">
        <ele>81</ele>
        <time>2015-06-07T08:10:51Z</time>
      </trkpt>
      <trkpt lat="47.84533" lon="-1.74962">
        <ele>81</ele>
        <time>2015-06-07T08:10:52Z</time>
      </trkpt>
      <trkpt lat="47.84532" lon="-1.74965">
        <ele>80</ele>
        <time>2015-06-07T08:10:53Z</time>
      </trkpt>
      <trkpt lat="47.84532" lon="-1.74968">
        <ele>80</ele>
        <time>2015-06-07T08:10:54Z</time>
      </trkpt>
      <trkpt lat="47.84532" lon="-1.74972">
        <ele>80</ele>
        <time>2015-06-07T08:10:55Z</time>
      </trkpt>
      <trkpt lat="47.84531" lon="-1.74975">
        <ele>80</ele>
        <time>2015-06-07T08:10:56Z</time>
      </trkpt>
      <trkpt lat="47.84529" lon="-1.74978">
        <ele>80</ele>
        <time>2015-06-07T08:10:57Z</time>
      </trkpt>
      <trkpt lat="47.84525" lon="-1.7498">
        <ele>80</ele>
        <time>2015-06-07T08:10:58Z</time>
      </trkpt>
      <trkpt lat="47.84521" lon="-1.74982">
        <ele>80</ele>
        <time>2015-06-07T08:10:59Z</time>
      </trkpt>
      <trkpt lat="47.84518" lon="-1.74985">
        <ele>80</ele>
        <time>2015-06-07T08:11:00Z</time>
      </trkpt>
      <trkpt lat="47.84515" lon="-1.74989">
        <ele>80</ele>
        <time>2015-06-07T08:11:01Z</time>
      </trkpt>
      <trkpt lat="47.84514" lon="-1.74995">
        <ele>80</ele>
        <time>2015-06-07T08:11:02Z</time>
      </trkpt>
      <trkpt lat="47.84514" lon="-1.75">
        <ele>79</ele>
        <time>2015-06-07T08:11:03Z</time>
      </trkpt>
      <trkpt lat="47.84514" lon="-1.75006">
        <ele>79</ele>
        <time>2015-06-07T08:11:04Z</time>
      </trkpt>
      <trkpt lat="47.84515" lon="-1.75012">
        <ele>79</ele>
        <time>2015-06-07T08:11:05Z</time>
      </trkpt>
      <trkpt lat="47.84515" lon="-1.75019">
        <ele>78</ele>
        <time>2015-06-07T08:11:06Z</time>
      </trkpt>
      <trkpt lat="47.84515" lon="-1.75027">
        <ele>78</ele>
        <time>2015-06-07T08:11:07Z</time>
      </trkpt>
      <trkpt lat="47.84516" lon="-1.75034">
        <ele>78</ele>
        <time>2015-06-07T08:11:08Z</time>
      </trkpt>
      <trkpt lat="47.84517" lon="-1.75041">
        <ele>77</ele>
        <time>2015-06-07T08:11:09Z</time>
      </trkpt>
      <trkpt lat="47.84517" lon="-1.75049">
        <ele>77</ele>
        <time>2015-06-07T08:11:10Z</time>
      </trkpt>
      <trkpt lat="47.84517" lon="-1.75057">
        <ele>76</ele>
        <time>2015-06-07T08:11:11Z</time>
      </trkpt>
      <trkpt lat="47.84518" lon="-1.75064">
        <ele>76</ele>
        <time>2015-06-07T08:11:12Z</time>
      </trkpt>
      <trkpt lat="47.84518" lon="-1.75072">
        <ele>75</ele>
        <time>2015-06-07T08:11:13Z</time>
      </trkpt>
      <trkpt lat="47.84518" lon="-1.75079">
        <ele>75</ele>
        <time>2015-06-07T08:11:14Z</time>
      </trkpt>
      <trkpt lat="47.84518" lon="-1.75087">
        <ele>75</ele>
        <time>2015-06-07T08:11:15Z</time>
      </trkpt>
      <trkpt lat="47.84517" lon="-1.75095">
        <ele>75</ele>
        <time>2015-06-07T08:11:16Z</time>
      </trkpt>
      <trkpt lat="47.84517" lon="-1.75103">
        <ele>74</ele>
        <time>2015-06-07T08:11:17Z</time>
      </trkpt>
      <trkpt lat="47.84518" lon="-1.7511">
        <ele>74</ele>
        <time>2015-06-07T08:11:18Z</time>
      </trkpt>
      <trkpt lat="47.84518" lon="-1.75118">
        <ele>74</ele>
        <time>2015-06-07T08:11:19Z</time>
      </trkpt>
      <trkpt lat="47.84518" lon="-1.75125">
        <ele>74</ele>
        <time>2015-06-07T08:11:20Z</time>
      </trkpt>
      <trkpt lat="47.84518" lon="-1.75132">
        <ele>73</ele>
        <time>2015-06-07T08:11:21Z</time>
      </trkpt>
      <trkpt lat="47.84518" lon="-1.75138">
        <ele>73</ele>
        <time>2015-06-07T08:11:22Z</time>
      </trkpt>
      <trkpt lat="47.84518" lon="-1.75145">
        <ele>73</ele>
        <time>2015-06-07T08:11:23Z</time>
      </trkpt>
      <trkpt lat="47.84519" lon="-1.75152">
        <ele>73</ele>
        <time>2015-06-07T08:11:24Z</time>
      </trkpt>
      <trkpt lat="47.8452" lon="-1.75159">
        <ele>73</ele>
        <time>2015-06-07T08:11:25Z</time>
      </trkpt>
      <trkpt lat="47.8452" lon="-1.75166">
        <ele>73</ele>
        <time>2015-06-07T08:11:26Z</time>
      </trkpt>
      <trkpt lat="47.84521" lon="-1.75174">
        <ele>72</ele>
        <time>2015-06-07T08:11:27Z</time>
      </trkpt>
      <trkpt lat="47.84521" lon="-1.75181">
        <ele>72</ele>
        <time>2015-06-07T08:11:28Z</time>
      </trkpt>
      <trkpt lat="47.84522" lon="-1.75188">
        <ele>72</ele>
        <time>2015-06-07T08:11:29Z</time>
      </trkpt>
      <trkpt lat="47.84523" lon="-1.75195">
        <ele>72</ele>
        <time>2015-06-07T08:11:30Z</time>
      </trkpt>
      <trkpt lat="47.84524" lon="-1.75201">
        <ele>72</ele>
        <time>2015-06-07T08:11:31Z</time>
      </trkpt>
      <trkpt lat="47.84524" lon="-1.75208">
        <ele>72</ele>
        <time>2015-06-07T08:11:32Z</time>
      </trkpt>
      <trkpt lat="47.84525" lon="-1.75215">
        <ele>72</ele>
        <time>2015-06-07T08:11:33Z</time>
      </trkpt>
      <trkpt lat="47.84526" lon="-1.75223">
        <ele>72</ele>
        <time>2015-06-07T08:11:34Z</time>
      </trkpt>
      <trkpt lat="47.84528" lon="-1.75231">
        <ele>72</ele>
        <time>2015-06-07T08:11:35Z</time>
      </trkpt>
      <trkpt lat="47.84529" lon="-1.75238">
        <ele>71</ele>
        <time>2015-06-07T08:11:36Z</time>
      </trkpt>
      <trkpt lat="47.8453" lon="-1.75246">
        <ele>71</ele>
        <time>2015-06-07T08:11:37Z</time>
      </trkpt>
      <trkpt lat="47.84531" lon="-1.75253">
        <ele>71</ele>
        <time>2015-06-07T08:11:38Z</time>
      </trkpt>
      <trkpt lat="47.84533" lon="-1.7526">
        <ele>71</ele>
        <time>2015-06-07T08:11:39Z</time>
      </trkpt>
      <trkpt lat="47.84534" lon="-1.75267">
        <ele>71</ele>
        <time>2015-06-07T08:11:40Z</time>
      </trkpt>
      <trkpt lat="47.84536" lon="-1.75275">
        <ele>71</ele>
        <time>2015-06-07T08:11:41Z</time>
      </trkpt>
      <trkpt lat="47.84537" lon="-1.75282">
        <ele>71</ele>
        <time>2015-06-07T08:11:42Z</time>
      </trkpt>
      <trkpt lat="47.84539" lon="-1.75289">
        <ele>71</ele>
        <time>2015-06-07T08:11:43Z</time>
      </trkpt>
      <trkpt lat="47.84541" lon="-1.75295">
        <ele>71</ele>
        <time>2015-06-07T08:11:44Z</time>
      </trkpt>
      <trkpt lat="47.84542" lon="-1.75301">
        <ele>71</ele>
        <time>2015-06-07T08:11:45Z</time>
      </trkpt>
      <trkpt lat="47.84543" lon="-1.75307">
        <ele>71</ele>
        <time>2015-06-07T08:11:46Z</time>
      </trkpt>
      <trkpt lat="47.84545" lon="-1.75313">
        <ele>71</ele>
        <time>2015-06-07T08:11:47Z</time>
      </trkpt>
      <trkpt lat="47.84547" lon="-1.75319">
        <ele>72</ele>
        <time>2015-06-07T08:11:48Z</time>
      </trkpt>
      <trkpt lat="47.84548" lon="-1.75325">
        <ele>72</ele>
        <time>2015-06-07T08:11:49Z</time>
      </trkpt>
      <trkpt lat="47.8455" lon="-1.75331">
        <ele>72</ele>
        <time>2015-06-07T08:11:50Z</time>
      </trkpt>
      <trkpt lat="47.84551" lon="-1.75337">
        <ele>72</ele>
        <time>2015-06-07T08:11:51Z</time>
      </trkpt>
      <trkpt lat="47.84553" lon="-1.75343">
        <ele>72</ele>
        <time>2015-06-07T08:11:52Z</time>
      </trkpt>
      <trkpt lat="47.84555" lon="-1.75348">
        <ele>72</ele>
        <time>2015-06-07T08:11:53Z</time>
      </trkpt>
      <trkpt lat="47.84556" lon="-1.75354">
        <ele>72</ele>
        <time>2015-06-07T08:11:54Z</time>
      </trkpt>
      <trkpt lat="47.84558" lon="-1.75359">
        <ele>72</ele>
        <time>2015-06-07T08:11:55Z</time>
      </trkpt>
      <trkpt lat="47.8456" lon="-1.75365">
        <ele>72</ele>
        <time>2015-06-07T08:11:56Z</time>
      </trkpt>
      <trkpt lat="47.84561" lon="-1.75369">
        <ele>72</ele>
        <time>2015-06-07T08:11:57Z</time>
      </trkpt>
      <trkpt lat="47.84563" lon="-1.75374">
        <ele>72</ele>
        <time>2015-06-07T08:11:58Z</time>
      </trkpt>
      <trkpt lat="47.84564" lon="-1.75379">
        <ele>72</ele>
        <time>2015-06-07T08:11:59Z</time>
      </trkpt>
      <trkpt lat="47.84565" lon="-1.75384">
        <ele>72</ele>
        <time>2015-06-07T08:12:00Z</time>
      </trkpt>
      <trkpt lat="47.84567" lon="-1.7539">
        <ele>72</ele>
        <time>2015-06-07T08:12:01Z</time>
      </trkpt>
      <trkpt lat="47.84568" lon="-1.75395">
        <ele>72</ele>
        <time>2015-06-07T08:12:02Z</time>
      </trkpt>
      <trkpt lat="47.8457" lon="-1.754">
        <ele>72</ele>
        <time>2015-06-07T08:12:03Z</time>
      </trkpt>
      <trkpt lat="47.84571" lon="-1.75406">
        <ele>72</ele>
        <time>2015-06-07T08:12:04Z</time>
      </trkpt>
      <trkpt lat="47.84573" lon="-1.75411">
        <ele>72</ele>
        <time>2015-06-07T08:12:05Z</time>
      </trkpt>
      <trkpt lat="47.84575" lon="-1.75416">
        <ele>72</ele>
        <time>2015-06-07T08:12:06Z</time>
      </trkpt>
      <trkpt lat="47.84576" lon="-1.75421">
        <ele>72</ele>
        <time>2015-06-07T08:12:07Z</time>
      </trkpt>
      <trkpt lat="47.84578" lon="-1.75427">
        <ele>72</ele>
        <time>2015-06-07T08:12:08Z</time>
      </trkpt>
      <trkpt lat="47.8458" lon="-1.75431">
        <ele>72</ele>
        <time>2015-06-07T08:12:09Z</time>
      </trkpt>
      <trkpt lat="47.84582" lon="-1.75436">
        <ele>72</ele>
        <time>2015-06-07T08:12:10Z</time>
      </trkpt>
      <trkpt lat="47.84584" lon="-1.75441">
        <ele>72</ele>
        <time>2015-06-07T08:12:11Z</time>
      </trkpt>
      <trkpt lat="47.84586" lon="-1.75446">
        <ele>72</ele>
        <time>2015-06-07T08:12:12Z</time>
      </trkpt>
      <trkpt lat="47.84587" lon="-1.75451">
        <ele>72</ele>
        <time>2015-06-07T08:12:13Z</time>
      </trkpt>
      <trkpt lat="47.84589" lon="-1.75455">
        <ele>72</ele>
        <time>2015-06-07T08:12:14Z</time>
      </trkpt>
      <trkpt lat="47.84591" lon="-1.7546">
        <ele>72</ele>
        <time>2015-06-07T08:12:15Z</time>
      </trkpt>
      <trkpt lat="47.84593" lon="-1.75463">
        <ele>72</ele>
        <time>2015-06-07T08:12:16Z</time>
      </trkpt>
      <trkpt lat="47.84596" lon="-1.75467">
        <ele>73</ele>
        <time>2015-06-07T08:12:17Z</time>
      </trkpt>
      <trkpt lat="47.84598" lon="-1.75472">
        <ele>73</ele>
        <time>2015-06-07T08:12:18Z</time>
      </trkpt>
      <trkpt lat="47.846" lon="-1.75478">
        <ele>73</ele>
        <time>2015-06-07T08:12:19Z</time>
      </trkpt>
      <trkpt lat="47.84602" lon="-1.75483">
        <ele>73</ele>
        <time>2015-06-07T08:12:20Z</time>
      </trkpt>
      <trkpt lat="47.84604" lon="-1.75488">
        <ele>73</ele>
        <time>2015-06-07T08:12:21Z</time>
      </trkpt>
      <trkpt lat="47.84606" lon="-1.75493">
        <ele>73</ele>
        <time>2015-06-07T08:12:22Z</time>
      </trkpt>
      <trkpt lat="47.84608" lon="-1.75498">
        <ele>73</ele>
        <time>2015-06-07T08:12:23Z</time>
      </trkpt>
      <trkpt lat="47.8461" lon="-1.75503">
        <ele>73</ele>
        <time>2015-06-07T08:12:24Z</time>
      </trkpt>
      <trkpt lat="47.84612" lon="-1.75509">
        <ele>73</ele>
        <time>2015-06-07T08:12:25Z</time>
      </trkpt>
      <trkpt lat="47.84614" lon="-1.75514">
        <ele>73</ele>
        <time>2015-06-07T08:12:26Z</time>
      </trkpt>
      <trkpt lat="47.84616" lon="-1.7552">
        <ele>73</ele>
        <time>2015-06-07T08:12:27Z</time>
      </trkpt>
      <trkpt lat="47.84619" lon="-1.75526">
        <ele>73</ele>
        <time>2015-06-07T08:12:28Z</time>
      </trkpt>
      <trkpt lat="47.84621" lon="-1.75531">
        <ele>73</ele>
        <time>2015-06-07T08:12:29Z</time>
      </trkpt>
      <trkpt lat="47.84623" lon="-1.75536">
        <ele>74</ele>
        <time>2015-06-07T08:12:30Z</time>
      </trkpt>
      <trkpt lat="47.84625" lon="-1.75542">
        <ele>74</ele>
        <time>2015-06-07T08:12:31Z</time>
      </trkpt>
      <trkpt lat="47.84627" lon="-1.75546">
        <ele>74</ele>
        <time>2015-06-07T08:12:32Z</time>
      </trkpt>
      <trkpt lat="47.84629" lon="-1.7555">
        <ele>74</ele>
        <time>2015-06-07T08:12:33Z</time>
      </trkpt>
      <trkpt lat="47.84632" lon="-1.75555">
        <ele>74</ele>
        <time>2015-06-07T08:12:34Z</time>
      </trkpt>
      <trkpt lat="47.84633" lon="-1.75559">
        <ele>74</ele>
        <time>2015-06-07T08:12:35Z</time>
      </trkpt>
      <trkpt lat="47.84635" lon="-1.75562">
        <ele>74</ele>
        <time>2015-06-07T08:12:36Z</time>
      </trkpt>
      <trkpt lat="47.84636" lon="-1.75565">
        <ele>74</ele>
        <time>2015-06-07T08:12:37Z</time>
      </trkpt>
      <trkpt lat="47.84637" lon="-1.75567">
        <ele>74</ele>
        <time>2015-06-07T08:12:38Z</time>
      </trkpt>
      <trkpt lat="47.84637" lon="-1.75568">
        <ele>74</ele>
        <time>2015-06-07T08:12:39Z</time>
      </trkpt>
      <trkpt lat="47.84637" lon="-1.75568">
        <ele>74</ele>
        <time>2015-06-07T08:12:40Z</time>
      </trkpt>
      <trkpt lat="47.84637" lon="-1.75568">
        <ele>75</ele>
        <time>2015-06-07T08:12:41Z</time>
      </trkpt>
      <trkpt lat="47.84637" lon="-1.75569">
        <ele>75</ele>
        <time>2015-06-07T08:12:42Z</time>
      </trkpt>
      <trkpt lat="47.84637" lon="-1.75569">
        <ele>75</ele>
        <time>2015-06-07T08:12:43Z</time>
      </trkpt>
      <trkpt lat="47.84638" lon="-1.75569">
        <ele>75</ele>
        <time>2015-06-07T08:12:44Z</time>
      </trkpt>
      <trkpt lat="47.84638" lon="-1.75569">
        <ele>75</ele>
        <time>2015-06-07T08:12:45Z</time>
      </trkpt>
      <trkpt lat="47.84638" lon="-1.75569">
        <ele>75</ele>
        <time>2015-06-07T08:12:46Z</time>
      </trkpt>
      <trkpt lat="47.84645" lon="-1.75584">
        <ele>75</ele>
        <time>2015-06-07T08:12:47Z</time>
      </trkpt>
      <trkpt lat="47.84647" lon="-1.75588">
        <ele>75</ele>
        <time>2015-06-07T08:12:48Z</time>
      </trkpt>
      <trkpt lat="47.84649" lon="-1.75593">
        <ele>75</ele>
        <time>2015-06-07T08:12:49Z</time>
      </trkpt>
      <trkpt lat="47.84652" lon="-1.75598">
        <ele>75</ele>
        <time>2015-06-07T08:12:50Z</time>
      </trkpt>
      <trkpt lat="47.84655" lon="-1.75603">
        <ele>75</ele>
        <time>2015-06-07T08:12:51Z</time>
      </trkpt>
      <trkpt lat="47.84657" lon="-1.75608">
        <ele>75</ele>
        <time>2015-06-07T08:12:52Z</time>
      </trkpt>
      <trkpt lat="47.8466" lon="-1.75612">
        <ele>75</ele>
        <time>2015-06-07T08:12:53Z</time>
      </trkpt>
      <trkpt lat="47.84662" lon="-1.75615">
        <ele>75</ele>
        <time>2015-06-07T08:12:54Z</time>
      </trkpt>
      <trkpt lat="47.84665" lon="-1.75619">
        <ele>75</ele>
        <time>2015-06-07T08:12:55Z</time>
      </trkpt>
      <trkpt lat="47.84667" lon="-1.75622">
        <ele>76</ele>
        <time>2015-06-07T08:12:56Z</time>
      </trkpt>
      <trkpt lat="47.84669" lon="-1.75627">
        <ele>76</ele>
        <time>2015-06-07T08:12:57Z</time>
      </trkpt>
      <trkpt lat="47.84672" lon="-1.75631">
        <ele>76</ele>
        <time>2015-06-07T08:12:58Z</time>
      </trkpt>
      <trkpt lat="47.84675" lon="-1.75637">
        <ele>76</ele>
        <time>2015-06-07T08:12:59Z</time>
      </trkpt>
      <trkpt lat="47.84677" lon="-1.75643">
        <ele>76</ele>
        <time>2015-06-07T08:13:00Z</time>
      </trkpt>
      <trkpt lat="47.8468" lon="-1.75648">
        <ele>76</ele>
        <time>2015-06-07T08:13:01Z</time>
      </trkpt>
      <trkpt lat="47.84683" lon="-1.75654">
        <ele>76</ele>
        <time>2015-06-07T08:13:02Z</time>
      </trkpt>
      <trkpt lat="47.84686" lon="-1.75659">
        <ele>76</ele>
        <time>2015-06-07T08:13:03Z</time>
      </trkpt>
      <trkpt lat="47.84689" lon="-1.75664">
        <ele>76</ele>
        <time>2015-06-07T08:13:04Z</time>
      </trkpt>
      <trkpt lat="47.84693" lon="-1.75669">
        <ele>76</ele>
        <time>2015-06-07T08:13:05Z</time>
      </trkpt>
      <trkpt lat="47.84696" lon="-1.75673">
        <ele>76</ele>
        <time>2015-06-07T08:13:06Z</time>
      </trkpt>
      <trkpt lat="47.847" lon="-1.75677">
        <ele>76</ele>
        <time>2015-06-07T08:13:07Z</time>
      </trkpt>
      <trkpt lat="47.84703" lon="-1.75682">
        <ele>76</ele>
        <time>2015-06-07T08:13:08Z</time>
      </trkpt>
      <trkpt lat="47.84707" lon="-1.75687">
        <ele>76</ele>
        <time>2015-06-07T08:13:09Z</time>
      </trkpt>
      <trkpt lat="47.8471" lon="-1.75694">
        <ele>75</ele>
        <time>2015-06-07T08:13:10Z</time>
      </trkpt>
      <trkpt lat="47.84713" lon="-1.757">
        <ele>75</ele>
        <time>2015-06-07T08:13:11Z</time>
      </trkpt>
      <trkpt lat="47.84717" lon="-1.75706">
        <ele>75</ele>
        <time>2015-06-07T08:13:12Z</time>
      </trkpt>
      <trkpt lat="47.84719" lon="-1.75712">
        <ele>75</ele>
        <time>2015-06-07T08:13:13Z</time>
      </trkpt>
      <trkpt lat="47.84722" lon="-1.75718">
        <ele>75</ele>
        <time>2015-06-07T08:13:14Z</time>
      </trkpt>
      <trkpt lat="47.84725" lon="-1.75724">
        <ele>75</ele>
        <time>2015-06-07T08:13:15Z</time>
      </trkpt>
      <trkpt lat="47.84728" lon="-1.75731">
        <ele>75</ele>
        <time>2015-06-07T08:13:16Z</time>
      </trkpt>
      <trkpt lat="47.84731" lon="-1.75738">
        <ele>75</ele>
        <time>2015-06-07T08:13:17Z</time>
      </trkpt>
      <trkpt lat="47.84734" lon="-1.75745">
        <ele>75</ele>
        <time>2015-06-07T08:13:18Z</time>
      </trkpt>
      <trkpt lat="47.84737" lon="-1.75752">
        <ele>75</ele>
        <time>2015-06-07T08:13:19Z</time>
      </trkpt>
      <trkpt lat="47.8474" lon="-1.75758">
        <ele>75</ele>
        <time>2015-06-07T08:13:20Z</time>
      </trkpt>
      <trkpt lat="47.84744" lon="-1.75765">
        <ele>75</ele>
        <time>2015-06-07T08:13:21Z</time>
      </trkpt>
      <trkpt lat="47.84746" lon="-1.75772">
        <ele>75</ele>
        <time>2015-06-07T08:13:22Z</time>
      </trkpt>
      <trkpt lat="47.84749" lon="-1.75779">
        <ele>75</ele>
        <time>2015-06-07T08:13:23Z</time>
      </trkpt>
      <trkpt lat="47.84752" lon="-1.75785">
        <ele>75</ele>
        <time>2015-06-07T08:13:24Z</time>
      </trkpt>
      <trkpt lat="47.84755" lon="-1.75792">
        <ele>75</ele>
        <time>2015-06-07T08:13:25Z</time>
      </trkpt>
      <trkpt lat="47.84758" lon="-1.75798">
        <ele>75</ele>
        <time>2015-06-07T08:13:26Z</time>
      </trkpt>
      <trkpt lat="47.84762" lon="-1.75804">
        <ele>75</ele>
        <time>2015-06-07T08:13:27Z</time>
      </trkpt>
      <trkpt lat="47.84765" lon="-1.75809">
        <ele>75</ele>
        <time>2015-06-07T08:13:28Z</time>
      </trkpt>
      <trkpt lat="47.84769" lon="-1.75814">
        <ele>75</ele>
        <time>2015-06-07T08:13:29Z</time>
      </trkpt>
      <trkpt lat="47.84772" lon="-1.75819">
        <ele>75</ele>
        <time>2015-06-07T08:13:30Z</time>
      </trkpt>
      <trkpt lat="47.84774" lon="-1.75825">
        <ele>75</ele>
        <time>2015-06-07T08:13:31Z</time>
      </trkpt>
      <trkpt lat="47.84776" lon="-1.75832">
        <ele>75</ele>
        <time>2015-06-07T08:13:32Z</time>
      </trkpt>
      <trkpt lat="47.84778" lon="-1.75839">
        <ele>75</ele>
        <time>2015-06-07T08:13:33Z</time>
      </trkpt>
      <trkpt lat="47.8478" lon="-1.75847">
        <ele>75</ele>
        <time>2015-06-07T08:13:34Z</time>
      </trkpt>
      <trkpt lat="47.84782" lon="-1.75854">
        <ele>75</ele>
        <time>2015-06-07T08:13:35Z</time>
      </trkpt>
      <trkpt lat="47.84785" lon="-1.75862">
        <ele>75</ele>
        <time>2015-06-07T08:13:36Z</time>
      </trkpt>
      <trkpt lat="47.84787" lon="-1.7587">
        <ele>75</ele>
        <time>2015-06-07T08:13:37Z</time>
      </trkpt>
      <trkpt lat="47.8479" lon="-1.75877">
        <ele>75</ele>
        <time>2015-06-07T08:13:38Z</time>
      </trkpt>
      <trkpt lat="47.84793" lon="-1.75884">
        <ele>75</ele>
        <time>2015-06-07T08:13:39Z</time>
      </trkpt>
      <trkpt lat="47.84796" lon="-1.75891">
        <ele>75</ele>
        <time>2015-06-07T08:13:40Z</time>
      </trkpt>
      <trkpt lat="47.84798" lon="-1.75898">
        <ele>75</ele>
        <time>2015-06-07T08:13:41Z</time>
      </trkpt>
      <trkpt lat="47.84801" lon="-1.75906">
        <ele>75</ele>
        <time>2015-06-07T08:13:42Z</time>
      </trkpt>
      <trkpt lat="47.84803" lon="-1.75913">
        <ele>76</ele>
        <time>2015-06-07T08:13:43Z</time>
      </trkpt>
      <trkpt lat="47.84806" lon="-1.75919">
        <ele>76</ele>
        <time>2015-06-07T08:13:44Z</time>
      </trkpt>
      <trkpt lat="47.84809" lon="-1.75926">
        <ele>75</ele>
        <time>2015-06-07T08:13:45Z</time>
      </trkpt>
      <trkpt lat="47.84812" lon="-1.75933">
        <ele>75</ele>
        <time>2015-06-07T08:13:46Z</time>
      </trkpt>
      <trkpt lat="47.84815" lon="-1.75939">
        <ele>75</ele>
        <time>2015-06-07T08:13:47Z</time>
      </trkpt>
      <trkpt lat="47.84819" lon="-1.75945">
        <ele>75</ele>
        <time>2015-06-07T08:13:48Z</time>
      </trkpt>
      <trkpt lat="47.84822" lon="-1.75952">
        <ele>75</ele>
        <time>2015-06-07T08:13:49Z</time>
      </trkpt>
      <trkpt lat="47.84827" lon="-1.75958">
        <ele>75</ele>
        <time>2015-06-07T08:13:50Z</time>
      </trkpt>
      <trkpt lat="47.84831" lon="-1.75965">
        <ele>75</ele>
        <time>2015-06-07T08:13:51Z</time>
      </trkpt>
      <trkpt lat="47.84835" lon="-1.75972">
        <ele>75</ele>
        <time>2015-06-07T08:13:52Z</time>
      </trkpt>
      <trkpt lat="47.84839" lon="-1.75979">
        <ele>75</ele>
        <time>2015-06-07T08:13:53Z</time>
      </trkpt>
      <trkpt lat="47.84842" lon="-1.75986">
        <ele>75</ele>
        <time>2015-06-07T08:13:54Z</time>
      </trkpt>
      <trkpt lat="47.84846" lon="-1.75993">
        <ele>75</ele>
        <time>2015-06-07T08:13:55Z</time>
      </trkpt>
      <trkpt lat="47.8485" lon="-1.76">
        <ele>75</ele>
        <time>2015-06-07T08:13:56Z</time>
      </trkpt>
      <trkpt lat="47.84853" lon="-1.76008">
        <ele>74</ele>
        <time>2015-06-07T08:13:57Z</time>
      </trkpt>
      <trkpt lat="47.84857" lon="-1.76014">
        <ele>74</ele>
        <time>2015-06-07T08:13:58Z</time>
      </trkpt>
      <trkpt lat="47.84861" lon="-1.76022">
        <ele>74</ele>
        <time>2015-06-07T08:13:59Z</time>
      </trkpt>
      <trkpt lat="47.84865" lon="-1.7603">
        <ele>74</ele>
        <time>2015-06-07T08:14:00Z</time>
      </trkpt>
      <trkpt lat="47.84868" lon="-1.76038">
        <ele>74</ele>
        <time>2015-06-07T08:14:01Z</time>
      </trkpt>
      <trkpt lat="47.84871" lon="-1.76047">
        <ele>74</ele>
        <time>2015-06-07T08:14:02Z</time>
      </trkpt>
      <trkpt lat="47.84875" lon="-1.76054">
        <ele>74</ele>
        <time>2015-06-07T08:14:03Z</time>
      </trkpt>
      <trkpt lat="47.84878" lon="-1.76062">
        <ele>74</ele>
        <time>2015-06-07T08:14:04Z</time>
      </trkpt>
      <trkpt lat="47.84882" lon="-1.76069">
        <ele>74</ele>
        <time>2015-06-07T08:14:05Z</time>
      </trkpt>
      <trkpt lat="47.84887" lon="-1.76076">
        <ele>74</ele>
        <time>2015-06-07T08:14:06Z</time>
      </trkpt>
      <trkpt lat="47.84892" lon="-1.76083">
        <ele>74</ele>
        <time>2015-06-07T08:14:07Z</time>
      </trkpt>
      <trkpt lat="47.84896" lon="-1.76089">
        <ele>74</ele>
        <time>2015-06-07T08:14:08Z</time>
      </trkpt>
      <trkpt lat="47.84902" lon="-1.76095">
        <ele>74</ele>
        <time>2015-06-07T08:14:09Z</time>
      </trkpt>
      <trkpt lat="47.84906" lon="-1.761">
        <ele>74</ele>
        <time>2015-06-07T08:14:10Z</time>
      </trkpt>
      <trkpt lat="47.8491" lon="-1.76103">
        <ele>74</ele>
        <time>2015-06-07T08:14:11Z</time>
      </trkpt>
      <trkpt lat="47.84912" lon="-1.76104">
        <ele>74</ele>
        <time>2015-06-07T08:14:12Z</time>
      </trkpt>
      <trkpt lat="47.84913" lon="-1.76103">
        <ele>74</ele>
        <time>2015-06-07T08:14:13Z</time>
      </trkpt>
      <trkpt lat="47.84913" lon="-1.76103">
        <ele>74</ele>
        <time>2015-06-07T08:14:14Z</time>
      </trkpt>
      <trkpt lat="47.84913" lon="-1.76103">
        <ele>74</ele>
        <time>2015-06-07T08:14:15Z</time>
      </trkpt>
      <trkpt lat="47.84914" lon="-1.76103">
        <ele>74</ele>
        <time>2015-06-07T08:14:16Z</time>
      </trkpt>
      <trkpt lat="47.84914" lon="-1.76103">
        <ele>74</ele>
        <time>2015-06-07T08:14:17Z</time>
      </trkpt>
      <trkpt lat="47.84914" lon="-1.76103">
        <ele>74</ele>
        <time>2015-06-07T08:14:18Z</time>
      </trkpt>
      <trkpt lat="47.84914" lon="-1.76101">
        <ele>74</ele>
        <time>2015-06-07T08:14:19Z</time>
      </trkpt>
      <trkpt lat="47.84914" lon="-1.761">
        <ele>74</ele>
        <time>2015-06-07T08:14:20Z</time>
      </trkpt>
      <trkpt lat="47.84915" lon="-1.76098">
        <ele>75</ele>
        <time>2015-06-07T08:14:21Z</time>
      </trkpt>
      <trkpt lat="47.84915" lon="-1.76097">
        <ele>75</ele>
        <time>2015-06-07T08:14:22Z</time>
      </trkpt>
      <trkpt lat="47.84915" lon="-1.76094">
        <ele>75</ele>
        <time>2015-06-07T08:14:23Z</time>
      </trkpt>
      <trkpt lat="47.84914" lon="-1.76091">
        <ele>75</ele>
        <time>2015-06-07T08:14:24Z</time>
      </trkpt>
      <trkpt lat="47.84914" lon="-1.7609">
        <ele>75</ele>
        <time>2015-06-07T08:14:25Z</time>
      </trkpt>
      <trkpt lat="47.84912" lon="-1.76089">
        <ele>75</ele>
        <time>2015-06-07T08:14:26Z</time>
      </trkpt>
      <trkpt lat="47.84911" lon="-1.76087">
        <ele>75</ele>
        <time>2015-06-07T08:14:27Z</time>
      </trkpt>
      <trkpt lat="47.84911" lon="-1.76084">
        <ele>75</ele>
        <time>2015-06-07T08:14:28Z</time>
      </trkpt>
      <trkpt lat="47.84911" lon="-1.76082">
        <ele>76</ele>
        <time>2015-06-07T08:14:29Z</time>
      </trkpt>
      <trkpt lat="47.84911" lon="-1.76081">
        <ele>76</ele>
        <time>2015-06-07T08:14:30Z</time>
      </trkpt>
      <trkpt lat="47.84911" lon="-1.7608">
        <ele>76</ele>
        <time>2015-06-07T08:14:31Z</time>
      </trkpt>
      <trkpt lat="47.84911" lon="-1.76078">
        <ele>76</ele>
        <time>2015-06-07T08:14:32Z</time>
      </trkpt>
      <trkpt lat="47.84911" lon="-1.76075">
        <ele>76</ele>
        <time>2015-06-07T08:14:33Z</time>
      </trkpt>
      <trkpt lat="47.84911" lon="-1.76074">
        <ele>77</ele>
        <time>2015-06-07T08:14:34Z</time>
      </trkpt>
      <trkpt lat="47.8491" lon="-1.76071">
        <ele>77</ele>
        <time>2015-06-07T08:14:35Z</time>
      </trkpt>
      <trkpt lat="47.8491" lon="-1.76069">
        <ele>77</ele>
        <time>2015-06-07T08:14:36Z</time>
      </trkpt>
      <trkpt lat="47.84909" lon="-1.76066">
        <ele>77</ele>
        <time>2015-06-07T08:14:37Z</time>
      </trkpt>
      <trkpt lat="47.84908" lon="-1.76062">
        <ele>77</ele>
        <time>2015-06-07T08:14:38Z</time>
      </trkpt>
      <trkpt lat="47.84906" lon="-1.76058">
        <ele>77</ele>
        <time>2015-06-07T08:14:39Z</time>
      </trkpt>
      <trkpt lat="47.84905" lon="-1.76055">
        <ele>77</ele>
        <time>2015-06-07T08:14:40Z</time>
      </trkpt>
      <trkpt lat="47.84905" lon="-1.76051">
        <ele>77</ele>
        <time>2015-06-07T08:14:41Z</time>
      </trkpt>
      <trkpt lat="47.84904" lon="-1.76048">
        <ele>77</ele>
        <time>2015-06-07T08:14:42Z</time>
      </trkpt>
      <trkpt lat="47.84905" lon="-1.76045">
        <ele>77</ele>
        <time>2015-06-07T08:14:43Z</time>
      </trkpt>
      <trkpt lat="47.84904" lon="-1.76044">
        <ele>77</ele>
        <time>2015-06-07T08:14:44Z</time>
      </trkpt>
      <trkpt lat="47.84903" lon="-1.76042">
        <ele>77</ele>
        <time>2015-06-07T08:14:45Z</time>
      </trkpt>
      <trkpt lat="47.84903" lon="-1.7604">
        <ele>77</ele>
        <time>2015-06-07T08:14:46Z</time>
      </trkpt>
      <trkpt lat="47.84903" lon="-1.76037">
        <ele>77</ele>
        <time>2015-06-07T08:14:47Z</time>
      </trkpt>
      <trkpt lat="47.84903" lon="-1.76034">
        <ele>77</ele>
        <time>2015-06-07T08:14:48Z</time>
      </trkpt>
      <trkpt lat="47.84904" lon="-1.76031">
        <ele>77</ele>
        <time>2015-06-07T08:14:49Z</time>
      </trkpt>
      <trkpt lat="47.84905" lon="-1.76028">
        <ele>77</ele>
        <time>2015-06-07T08:14:50Z</time>
      </trkpt>
      <trkpt lat="47.84905" lon="-1.76025">
        <ele>77</ele>
        <time>2015-06-07T08:14:51Z</time>
      </trkpt>
      <trkpt lat="47.84904" lon="-1.76022">
        <ele>77</ele>
        <time>2015-06-07T08:14:52Z</time>
      </trkpt>
      <trkpt lat="47.84904" lon="-1.76019">
        <ele>77</ele>
        <time>2015-06-07T08:14:53Z</time>
      </trkpt>
      <trkpt lat="47.84904" lon="-1.76015">
        <ele>77</ele>
        <time>2015-06-07T08:14:54Z</time>
      </trkpt>
      <trkpt lat="47.84905" lon="-1.76011">
        <ele>78</ele>
        <time>2015-06-07T08:14:55Z</time>
      </trkpt>
      <trkpt lat="47.84905" lon="-1.76007">
        <ele>78</ele>
        <time>2015-06-07T08:14:56Z</time>
      </trkpt>
      <trkpt lat="47.84906" lon="-1.76005">
        <ele>78</ele>
        <time>2015-06-07T08:14:57Z</time>
      </trkpt>
      <trkpt lat="47.84908" lon="-1.76002">
        <ele>78</ele>
        <time>2015-06-07T08:14:58Z</time>
      </trkpt>
      <trkpt lat="47.84909" lon="-1.75998">
        <ele>78</ele>
        <time>2015-06-07T08:14:59Z</time>
      </trkpt>
      <trkpt lat="47.84909" lon="-1.75995">
        <ele>78</ele>
        <time>2015-06-07T08:15:00Z</time>
      </trkpt>
      <trkpt lat="47.8491" lon="-1.75992">
        <ele>78</ele>
        <time>2015-06-07T08:15:01Z</time>
      </trkpt>
      <trkpt lat="47.8491" lon="-1.7599">
        <ele>78</ele>
        <time>2015-06-07T08:15:02Z</time>
      </trkpt>
      <trkpt lat="47.84911" lon="-1.75988">
        <ele>79</ele>
        <time>2015-06-07T08:15:03Z</time>
      </trkpt>
      <trkpt lat="47.84911" lon="-1.75985">
        <ele>79</ele>
        <time>2015-06-07T08:15:04Z</time>
      </trkpt>
      <trkpt lat="47.84911" lon="-1.75982">
        <ele>79</ele>
        <time>2015-06-07T08:15:05Z</time>
      </trkpt>
      <trkpt lat="47.84911" lon="-1.7598">
        <ele>79</ele>
        <time>2015-06-07T08:15:06Z</time>
      </trkpt>
      <trkpt lat="47.8491" lon="-1.75979">
        <ele>80</ele>
        <time>2015-06-07T08:15:07Z</time>
      </trkpt>
      <trkpt lat="47.84908" lon="-1.75978">
        <ele>80</ele>
        <time>2015-06-07T08:15:08Z</time>
      </trkpt>
      <trkpt lat="47.84906" lon="-1.75977">
        <ele>80</ele>
        <time>2015-06-07T08:15:09Z</time>
      </trkpt>
      <trkpt lat="47.84903" lon="-1.75976">
        <ele>80</ele>
        <time>2015-06-07T08:15:10Z</time>
      </trkpt>
      <trkpt lat="47.84899" lon="-1.75977">
        <ele>81</ele>
        <time>2015-06-07T08:15:11Z</time>
      </trkpt>
      <trkpt lat="47.84896" lon="-1.75979">
        <ele>81</ele>
        <time>2015-06-07T08:15:12Z</time>
      </trkpt>
      <trkpt lat="47.84891" lon="-1.7598">
        <ele>81</ele>
        <time>2015-06-07T08:15:13Z</time>
      </trkpt>
      <trkpt lat="47.84887" lon="-1.7598">
        <ele>81</ele>
        <time>2015-06-07T08:15:14Z</time>
      </trkpt>
      <trkpt lat="47.84884" lon="-1.75981">
        <ele>81</ele>
        <time>2015-06-07T08:15:15Z</time>
      </trkpt>
      <trkpt lat="47.84881" lon="-1.75982">
        <ele>81</ele>
        <time>2015-06-07T08:15:16Z</time>
      </trkpt>
      <trkpt lat="47.84877" lon="-1.75982">
        <ele>81</ele>
        <time>2015-06-07T08:15:17Z</time>
      </trkpt>
      <trkpt lat="47.84873" lon="-1.75983">
        <ele>81</ele>
        <time>2015-06-07T08:15:18Z</time>
      </trkpt>
      <trkpt lat="47.8487" lon="-1.75983">
        <ele>81</ele>
        <time>2015-06-07T08:15:19Z</time>
      </trkpt>
      <trkpt lat="47.84866" lon="-1.75984">
        <ele>82</ele>
        <time>2015-06-07T08:15:20Z</time>
      </trkpt>
      <trkpt lat="47.84862" lon="-1.75983">
        <ele>82</ele>
        <time>2015-06-07T08:15:21Z</time>
      </trkpt>
      <trkpt lat="47.84858" lon="-1.75982">
        <ele>82</ele>
        <time>2015-06-07T08:15:22Z</time>
      </trkpt>
      <trkpt lat="47.84856" lon="-1.75979">
        <ele>82</ele>
        <time>2015-06-07T08:15:23Z</time>
      </trkpt>
      <trkpt lat="47.84855" lon="-1.75977">
        <ele>82</ele>
        <time>2015-06-07T08:15:24Z</time>
      </trkpt>
      <trkpt lat="47.84855" lon="-1.75975">
        <ele>82</ele>
        <time>2015-06-07T08:15:25Z</time>
      </trkpt>
      <trkpt lat="47.84855" lon="-1.75973">
        <ele>82</ele>
        <time>2015-06-07T08:15:26Z</time>
      </trkpt>
      <trkpt lat="47.84855" lon="-1.75972">
        <ele>82</ele>
        <time>2015-06-07T08:15:27Z</time>
      </trkpt>
      <trkpt lat="47.84856" lon="-1.75971">
        <ele>82</ele>
        <time>2015-06-07T08:15:28Z</time>
      </trkpt>
      <trkpt lat="47.84857" lon="-1.75971">
        <ele>82</ele>
        <time>2015-06-07T08:15:29Z</time>
      </trkpt>
      <trkpt lat="47.84859" lon="-1.75972">
        <ele>82</ele>
        <time>2015-06-07T08:15:30Z</time>
      </trkpt>
      <trkpt lat="47.84861" lon="-1.75973">
        <ele>82</ele>
        <time>2015-06-07T08:15:31Z</time>
      </trkpt>
      <trkpt lat="47.84862" lon="-1.75972">
        <ele>82</ele>
        <time>2015-06-07T08:15:32Z</time>
      </trkpt>
      <trkpt lat="47.84864" lon="-1.75971">
        <ele>82</ele>
        <time>2015-06-07T08:15:33Z</time>
      </trkpt>
      <trkpt lat="47.84865" lon="-1.75969">
        <ele>82</ele>
        <time>2015-06-07T08:15:34Z</time>
      </trkpt>
      <trkpt lat="47.84866" lon="-1.75969">
        <ele>82</ele>
        <time>2015-06-07T08:15:35Z</time>
      </trkpt>
      <trkpt lat="47.84866" lon="-1.75968">
        <ele>83</ele>
        <time>2015-06-07T08:15:36Z</time>
      </trkpt>
      <trkpt lat="47.84867" lon="-1.75968">
        <ele>83</ele>
        <time>2015-06-07T08:15:37Z</time>
      </trkpt>
      <trkpt lat="47.84869" lon="-1.75966">
        <ele>83</ele>
        <time>2015-06-07T08:15:38Z</time>
      </trkpt>
      <trkpt lat="47.84872" lon="-1.75963">
        <ele>83</ele>
        <time>2015-06-07T08:15:39Z</time>
      </trkpt>
      <trkpt lat="47.84875" lon="-1.75961">
        <ele>84</ele>
        <time>2015-06-07T08:15:40Z</time>
      </trkpt>
      <trkpt lat="47.84877" lon="-1.75959">
        <ele>84</ele>
        <time>2015-06-07T08:15:41Z</time>
      </trkpt>
      <trkpt lat="47.84878" lon="-1.75958">
        <ele>84</ele>
        <time>2015-06-07T08:15:42Z</time>
      </trkpt>
      <trkpt lat="47.84879" lon="-1.75957">
        <ele>84</ele>
        <time>2015-06-07T08:15:43Z</time>
      </trkpt>
      <trkpt lat="47.8488" lon="-1.75957">
        <ele>84</ele>
        <time>2015-06-07T08:15:44Z</time>
      </trkpt>
      <trkpt lat="47.8488" lon="-1.75956">
        <ele>84</ele>
        <time>2015-06-07T08:15:45Z</time>
      </trkpt>
      <trkpt lat="47.84881" lon="-1.75955">
        <ele>84</ele>
        <time>2015-06-07T08:15:46Z</time>
      </trkpt>
      <trkpt lat="47.84882" lon="-1.75954">
        <ele>84</ele>
        <time>2015-06-07T08:15:47Z</time>
      </trkpt>
      <trkpt lat="47.84882" lon="-1.75953">
        <ele>85</ele>
        <time>2015-06-07T08:15:48Z</time>
      </trkpt>
      <trkpt lat="47.84883" lon="-1.75952">
        <ele>85</ele>
        <time>2015-06-07T08:15:49Z</time>
      </trkpt>
      <trkpt lat="47.84883" lon="-1.7595">
        <ele>85</ele>
        <time>2015-06-07T08:15:50Z</time>
      </trkpt>
      <trkpt lat="47.84883" lon="-1.75949">
        <ele>85</ele>
        <time>2015-06-07T08:15:51Z</time>
      </trkpt>
      <trkpt lat="47.84884" lon="-1.75948">
        <ele>85</ele>
        <time>2015-06-07T08:15:52Z</time>
      </trkpt>
      <trkpt lat="47.84884" lon="-1.75947">
        <ele>85</ele>
        <time>2015-06-07T08:15:53Z</time>
      </trkpt>
      <trkpt lat="47.84884" lon="-1.75947">
        <ele>85</ele>
        <time>2015-06-07T08:15:54Z</time>
      </trkpt>
      <trkpt lat="47.84884" lon="-1.75946">
        <ele>85</ele>
        <time>2015-06-07T08:15:55Z</time>
      </trkpt>
      <trkpt lat="47.84884" lon="-1.75945">
        <ele>85</ele>
        <time>2015-06-07T08:15:56Z</time>
      </trkpt>
      <trkpt lat="47.84884" lon="-1.75943">
        <ele>86</ele>
        <time>2015-06-07T08:15:57Z</time>
      </trkpt>
      <trkpt lat="47.84884" lon="-1.75941">
        <ele>86</ele>
        <time>2015-06-07T08:15:58Z</time>
      </trkpt>
      <trkpt lat="47.84884" lon="-1.7594">
        <ele>86</ele>
        <time>2015-06-07T08:15:59Z</time>
      </trkpt>
      <trkpt lat="47.84883" lon="-1.75939">
        <ele>86</ele>
        <time>2015-06-07T08:16:00Z</time>
      </trkpt>
      <trkpt lat="47.84882" lon="-1.75937">
        <ele>86</ele>
        <time>2015-06-07T08:16:01Z</time>
      </trkpt>
      <trkpt lat="47.8488" lon="-1.75938">
        <ele>86</ele>
        <time>2015-06-07T08:16:02Z</time>
      </trkpt>
      <trkpt lat="47.84879" lon="-1.7594">
        <ele>87</ele>
        <time>2015-06-07T08:16:03Z</time>
      </trkpt>
      <trkpt lat="47.84877" lon="-1.75942">
        <ele>87</ele>
        <time>2015-06-07T08:16:04Z</time>
      </trkpt>
      <trkpt lat="47.84876" lon="-1.75945">
        <ele>86</ele>
        <time>2015-06-07T08:16:05Z</time>
      </trkpt>
      <trkpt lat="47.84874" lon="-1.75947">
        <ele>86</ele>
        <time>2015-06-07T08:16:06Z</time>
      </trkpt>
      <trkpt lat="47.84872" lon="-1.75947">
        <ele>86</ele>
        <time>2015-06-07T08:16:07Z</time>
      </trkpt>
      <trkpt lat="47.8487" lon="-1.75946">
        <ele>86</ele>
        <time>2015-06-07T08:16:08Z</time>
      </trkpt>
      <trkpt lat="47.84867" lon="-1.75946">
        <ele>86</ele>
        <time>2015-06-07T08:16:09Z</time>
      </trkpt>
      <trkpt lat="47.84864" lon="-1.75947">
        <ele>86</ele>
        <time>2015-06-07T08:16:10Z</time>
      </trkpt>
      <trkpt lat="47.8486" lon="-1.75947">
        <ele>86</ele>
        <time>2015-06-07T08:16:11Z</time>
      </trkpt>
      <trkpt lat="47.84856" lon="-1.75947">
        <ele>86</ele>
        <time>2015-06-07T08:16:12Z</time>
      </trkpt>
      <trkpt lat="47.84852" lon="-1.75946">
        <ele>85</ele>
        <time>2015-06-07T08:16:13Z</time>
      </trkpt>
      <trkpt lat="47.84851" lon="-1.75946">
        <ele>85</ele>
        <time>2015-06-07T08:16:14Z</time>
      </trkpt>
      <trkpt lat="47.84851" lon="-1.75944">
        <ele>85</ele>
        <time>2015-06-07T08:16:15Z</time>
      </trkpt>
      <trkpt lat="47.84851" lon="-1.75943">
        <ele>85</ele>
        <time>2015-06-07T08:16:16Z</time>
      </trkpt>
      <trkpt lat="47.84852" lon="-1.75941">
        <ele>85</ele>
        <time>2015-06-07T08:16:17Z</time>
      </trkpt>
      <trkpt lat="47.84853" lon="-1.75939">
        <ele>85</ele>
        <time>2015-06-07T08:16:18Z</time>
      </trkpt>
      <trkpt lat="47.84853" lon="-1.75936">
        <ele>85</ele>
        <time>2015-06-07T08:16:19Z</time>
      </trkpt>
      <trkpt lat="47.84853" lon="-1.75934">
        <ele>85</ele>
        <time>2015-06-07T08:16:20Z</time>
      </trkpt>
      <trkpt lat="47.84852" lon="-1.75932">
        <ele>85</ele>
        <time>2015-06-07T08:16:21Z</time>
      </trkpt>
      <trkpt lat="47.84851" lon="-1.7593">
        <ele>85</ele>
        <time>2015-06-07T08:16:22Z</time>
      </trkpt>
      <trkpt lat="47.84851" lon="-1.75928">
        <ele>85</ele>
        <time>2015-06-07T08:16:23Z</time>
      </trkpt>
      <trkpt lat="47.84851" lon="-1.75926">
        <ele>86</ele>
        <time>2015-06-07T08:16:24Z</time>
      </trkpt>
      <trkpt lat="47.84852" lon="-1.75923">
        <ele>86</ele>
        <time>2015-06-07T08:16:25Z</time>
      </trkpt>
      <trkpt lat="47.84853" lon="-1.7592">
        <ele>86</ele>
        <time>2015-06-07T08:16:26Z</time>
      </trkpt>
      <trkpt lat="47.84855" lon="-1.75919">
        <ele>86</ele>
        <time>2015-06-07T08:16:27Z</time>
      </trkpt>
      <trkpt lat="47.84856" lon="-1.75919">
        <ele>86</ele>
        <time>2015-06-07T08:16:28Z</time>
      </trkpt>
      <trkpt lat="47.84858" lon="-1.75919">
        <ele>86</ele>
        <time>2015-06-07T08:16:29Z</time>
      </trkpt>
      <trkpt lat="47.8486" lon="-1.7592">
        <ele>86</ele>
        <time>2015-06-07T08:16:30Z</time>
      </trkpt>
      <trkpt lat="47.84863" lon="-1.7592">
        <ele>86</ele>
        <time>2015-06-07T08:16:31Z</time>
      </trkpt>
      <trkpt lat="47.84866" lon="-1.75922">
        <ele>86</ele>
        <time>2015-06-07T08:16:32Z</time>
      </trkpt>
      <trkpt lat="47.84869" lon="-1.75922">
        <ele>87</ele>
        <time>2015-06-07T08:16:33Z</time>
      </trkpt>
      <trkpt lat="47.84872" lon="-1.75921">
        <ele>87</ele>
        <time>2015-06-07T08:16:34Z</time>
      </trkpt>
      <trkpt lat="47.84873" lon="-1.7592">
        <ele>87</ele>
        <time>2015-06-07T08:16:35Z</time>
      </trkpt>
      <trkpt lat="47.84874" lon="-1.75918">
        <ele>87</ele>
        <time>2015-06-07T08:16:36Z</time>
      </trkpt>
      <trkpt lat="47.84874" lon="-1.75916">
        <ele>87</ele>
        <time>2015-06-07T08:16:37Z</time>
      </trkpt>
      <trkpt lat="47.84875" lon="-1.75913">
        <ele>87</ele>
        <time>2015-06-07T08:16:38Z</time>
      </trkpt>
      <trkpt lat="47.84874" lon="-1.7591">
        <ele>87</ele>
        <time>2015-06-07T08:16:39Z</time>
      </trkpt>
      <trkpt lat="47.84873" lon="-1.75907">
        <ele>87</ele>
        <time>2015-06-07T08:16:40Z</time>
      </trkpt>
      <trkpt lat="47.84873" lon="-1.75903">
        <ele>88</ele>
        <time>2015-06-07T08:16:41Z</time>
      </trkpt>
      <trkpt lat="47.84873" lon="-1.75897">
        <ele>88</ele>
        <time>2015-06-07T08:16:42Z</time>
      </trkpt>
      <trkpt lat="47.84872" lon="-1.75892">
        <ele>88</ele>
        <time>2015-06-07T08:16:43Z</time>
      </trkpt>
      <trkpt lat="47.8487" lon="-1.75887">
        <ele>88</ele>
        <time>2015-06-07T08:16:44Z</time>
      </trkpt>
      <trkpt lat="47.84869" lon="-1.75882">
        <ele>88</ele>
        <time>2015-06-07T08:16:45Z</time>
      </trkpt>
      <trkpt lat="47.84868" lon="-1.75877">
        <ele>88</ele>
        <time>2015-06-07T08:16:46Z</time>
      </trkpt>
      <trkpt lat="47.84868" lon="-1.75874">
        <ele>88</ele>
        <time>2015-06-07T08:16:47Z</time>
      </trkpt>
      <trkpt lat="47.84868" lon="-1.75871">
        <ele>88</ele>
        <time>2015-06-07T08:16:48Z</time>
      </trkpt>
      <trkpt lat="47.84869" lon="-1.75867">
        <ele>88</ele>
        <time>2015-06-07T08:16:49Z</time>
      </trkpt>
      <trkpt lat="47.84868" lon="-1.75861">
        <ele>88</ele>
        <time>2015-06-07T08:16:50Z</time>
      </trkpt>
      <trkpt lat="47.84868" lon="-1.75857">
        <ele>88</ele>
        <time>2015-06-07T08:16:51Z</time>
      </trkpt>
      <trkpt lat="47.84868" lon="-1.75852">
        <ele>88</ele>
        <time>2015-06-07T08:16:52Z</time>
      </trkpt>
      <trkpt lat="47.84868" lon="-1.75848">
        <ele>88</ele>
        <time>2015-06-07T08:16:53Z</time>
      </trkpt>
      <trkpt lat="47.84869" lon="-1.75844">
        <ele>88</ele>
        <time>2015-06-07T08:16:54Z</time>
      </trkpt>
      <trkpt lat="47.84869" lon="-1.75841">
        <ele>88</ele>
        <time>2015-06-07T08:16:55Z</time>
      </trkpt>
      <trkpt lat="47.8487" lon="-1.75838">
        <ele>88</ele>
        <time>2015-06-07T08:16:56Z</time>
      </trkpt>
      <trkpt lat="47.84871" lon="-1.75837">
        <ele>88</ele>
        <time>2015-06-07T08:16:57Z</time>
      </trkpt>
      <trkpt lat="47.84872" lon="-1.75839">
        <ele>88</ele>
        <time>2015-06-07T08:16:58Z</time>
      </trkpt>
      <trkpt lat="47.84873" lon="-1.75841">
        <ele>88</ele>
        <time>2015-06-07T08:16:59Z</time>
      </trkpt>
      <trkpt lat="47.84873" lon="-1.75842">
        <ele>88</ele>
        <time>2015-06-07T08:17:00Z</time>
      </trkpt>
      <trkpt lat="47.84875" lon="-1.75843">
        <ele>88</ele>
        <time>2015-06-07T08:17:01Z</time>
      </trkpt>
      <trkpt lat="47.84876" lon="-1.75841">
        <ele>88</ele>
        <time>2015-06-07T08:17:02Z</time>
      </trkpt>
      <trkpt lat="47.84876" lon="-1.75839">
        <ele>88</ele>
        <time>2015-06-07T08:17:03Z</time>
      </trkpt>
      <trkpt lat="47.84878" lon="-1.75837">
        <ele>88</ele>
        <time>2015-06-07T08:17:04Z</time>
      </trkpt>
      <trkpt lat="47.84879" lon="-1.75837">
        <ele>88</ele>
        <time>2015-06-07T08:17:05Z</time>
      </trkpt>
      <trkpt lat="47.84881" lon="-1.75837">
        <ele>88</ele>
        <time>2015-06-07T08:17:06Z</time>
      </trkpt>
      <trkpt lat="47.84883" lon="-1.75838">
        <ele>88</ele>
        <time>2015-06-07T08:17:07Z</time>
      </trkpt>
      <trkpt lat="47.84886" lon="-1.75838">
        <ele>89</ele>
        <time>2015-06-07T08:17:08Z</time>
      </trkpt>
      <trkpt lat="47.84887" lon="-1.75836">
        <ele>89</ele>
        <time>2015-06-07T08:17:09Z</time>
      </trkpt>
      <trkpt lat="47.84888" lon="-1.75834">
        <ele>89</ele>
        <time>2015-06-07T08:17:10Z</time>
      </trkpt>
      <trkpt lat="47.84887" lon="-1.75831">
        <ele>89</ele>
        <time>2015-06-07T08:17:11Z</time>
      </trkpt>
      <trkpt lat="47.84886" lon="-1.75828">
        <ele>89</ele>
        <time>2015-06-07T08:17:12Z</time>
      </trkpt>
      <trkpt lat="47.84886" lon="-1.75825">
        <ele>89</ele>
        <time>2015-06-07T08:17:13Z</time>
      </trkpt>
      <trkpt lat="47.84885" lon="-1.75821">
        <ele>89</ele>
        <time>2015-06-07T08:17:14Z</time>
      </trkpt>
      <trkpt lat="47.84886" lon="-1.75818">
        <ele>89</ele>
        <time>2015-06-07T08:17:15Z</time>
      </trkpt>
      <trkpt lat="47.84888" lon="-1.75816">
        <ele>89</ele>
        <time>2015-06-07T08:17:16Z</time>
      </trkpt>
      <trkpt lat="47.84889" lon="-1.75814">
        <ele>89</ele>
        <time>2015-06-07T08:17:17Z</time>
      </trkpt>
      <trkpt lat="47.84891" lon="-1.75812">
        <ele>89</ele>
        <time>2015-06-07T08:17:18Z</time>
      </trkpt>
      <trkpt lat="47.84893" lon="-1.7581">
        <ele>89</ele>
        <time>2015-06-07T08:17:19Z</time>
      </trkpt>
      <trkpt lat="47.84895" lon="-1.75809">
        <ele>88</ele>
        <time>2015-06-07T08:17:20Z</time>
      </trkpt>
      <trkpt lat="47.84898" lon="-1.75808">
        <ele>88</ele>
        <time>2015-06-07T08:17:21Z</time>
      </trkpt>
      <trkpt lat="47.849" lon="-1.75807">
        <ele>88</ele>
        <time>2015-06-07T08:17:22Z</time>
      </trkpt>
      <trkpt lat="47.84903" lon="-1.75806">
        <ele>88</ele>
        <time>2015-06-07T08:17:23Z</time>
      </trkpt>
      <trkpt lat="47.84906" lon="-1.75806">
        <ele>88</ele>
        <time>2015-06-07T08:17:24Z</time>
      </trkpt>
      <trkpt lat="47.84909" lon="-1.75805">
        <ele>87</ele>
        <time>2015-06-07T08:17:25Z</time>
      </trkpt>
      <trkpt lat="47.84912" lon="-1.75804">
        <ele>87</ele>
        <time>2015-06-07T08:17:26Z</time>
      </trkpt>
      <trkpt lat="47.84915" lon="-1.75804">
        <ele>88</ele>
        <time>2015-06-07T08:17:27Z</time>
      </trkpt>
      <trkpt lat="47.84918" lon="-1.75803">
        <ele>88</ele>
        <time>2015-06-07T08:17:28Z</time>
      </trkpt>
      <trkpt lat="47.84921" lon="-1.75802">
        <ele>88</ele>
        <time>2015-06-07T08:17:29Z</time>
      </trkpt>
      <trkpt lat="47.84923" lon="-1.75801">
        <ele>88</ele>
        <time>2015-06-07T08:17:30Z</time>
      </trkpt>
      <trkpt lat="47.84926" lon="-1.75801">
        <ele>88</ele>
        <time>2015-06-07T08:17:31Z</time>
      </trkpt>
      <trkpt lat="47.84929" lon="-1.758">
        <ele>88</ele>
        <time>2015-06-07T08:17:32Z</time>
      </trkpt>
      <trkpt lat="47.84932" lon="-1.75799">
        <ele>88</ele>
        <time>2015-06-07T08:17:33Z</time>
      </trkpt>
      <trkpt lat="47.84935" lon="-1.75799">
        <ele>88</ele>
        <time>2015-06-07T08:17:34Z</time>
      </trkpt>
      <trkpt lat="47.84938" lon="-1.75798">
        <ele>88</ele>
        <time>2015-06-07T08:17:35Z</time>
      </trkpt>
      <trkpt lat="47.84941" lon="-1.75798">
        <ele>89</ele>
        <time>2015-06-07T08:17:36Z</time>
      </trkpt>
      <trkpt lat="47.84944" lon="-1.75797">
        <ele>89</ele>
        <time>2015-06-07T08:17:37Z</time>
      </trkpt>
      <trkpt lat="47.84947" lon="-1.75796">
        <ele>89</ele>
        <time>2015-06-07T08:17:38Z</time>
      </trkpt>
      <trkpt lat="47.8495" lon="-1.75796">
        <ele>89</ele>
        <time>2015-06-07T08:17:39Z</time>
      </trkpt>
      <trkpt lat="47.84953" lon="-1.75795">
        <ele>89</ele>
        <time>2015-06-07T08:17:40Z</time>
      </trkpt>
      <trkpt lat="47.84956" lon="-1.75795">
        <ele>89</ele>
        <time>2015-06-07T08:17:41Z</time>
      </trkpt>
      <trkpt lat="47.8496" lon="-1.75794">
        <ele>90</ele>
        <time>2015-06-07T08:17:42Z</time>
      </trkpt>
      <trkpt lat="47.84963" lon="-1.75793">
        <ele>90</ele>
        <time>2015-06-07T08:17:43Z</time>
      </trkpt>
      <trkpt lat="47.84965" lon="-1.75793">
        <ele>90</ele>
        <time>2015-06-07T08:17:44Z</time>
      </trkpt>
      <trkpt lat="47.84968" lon="-1.75792">
        <ele>90</ele>
        <time>2015-06-07T08:17:45Z</time>
      </trkpt>
      <trkpt lat="47.84971" lon="-1.75791">
        <ele>90</ele>
        <time>2015-06-07T08:17:46Z</time>
      </trkpt>
      <trkpt lat="47.84974" lon="-1.7579">
        <ele>90</ele>
        <time>2015-06-07T08:17:47Z</time>
      </trkpt>
      <trkpt lat="47.84977" lon="-1.75789">
        <ele>90</ele>
        <time>2015-06-07T08:17:48Z</time>
      </trkpt>
      <trkpt lat="47.8498" lon="-1.75789">
        <ele>91</ele>
        <time>2015-06-07T08:17:49Z</time>
      </trkpt>
      <trkpt lat="47.84983" lon="-1.75788">
        <ele>91</ele>
        <time>2015-06-07T08:17:50Z</time>
      </trkpt>
      <trkpt lat="47.84986" lon="-1.75788">
        <ele>91</ele>
        <time>2015-06-07T08:17:51Z</time>
      </trkpt>
      <trkpt lat="47.84988" lon="-1.75787">
        <ele>91</ele>
        <time>2015-06-07T08:17:52Z</time>
      </trkpt>
      <trkpt lat="47.84992" lon="-1.75786">
        <ele>91</ele>
        <time>2015-06-07T08:17:53Z</time>
      </trkpt>
      <trkpt lat="47.84995" lon="-1.75786">
        <ele>92</ele>
        <time>2015-06-07T08:17:54Z</time>
      </trkpt>
      <trkpt lat="47.84999" lon="-1.75786">
        <ele>92</ele>
        <time>2015-06-07T08:17:55Z</time>
      </trkpt>
      <trkpt lat="47.85002" lon="-1.75785">
        <ele>92</ele>
        <time>2015-06-07T08:17:56Z</time>
      </trkpt>
      <trkpt lat="47.85006" lon="-1.75784">
        <ele>93</ele>
        <time>2015-06-07T08:17:57Z</time>
      </trkpt>
      <trkpt lat="47.85009" lon="-1.75784">
        <ele>93</ele>
        <time>2015-06-07T08:17:58Z</time>
      </trkpt>
      <trkpt lat="47.85013" lon="-1.75783">
        <ele>93</ele>
        <time>2015-06-07T08:17:59Z</time>
      </trkpt>
      <trkpt lat="47.85016" lon="-1.75782">
        <ele>93</ele>
        <time>2015-06-07T08:18:00Z</time>
      </trkpt>
      <trkpt lat="47.8502" lon="-1.75782">
        <ele>94</ele>
        <time>2015-06-07T08:18:01Z</time>
      </trkpt>
      <trkpt lat="47.85024" lon="-1.75782">
        <ele>94</ele>
        <time>2015-06-07T08:18:02Z</time>
      </trkpt>
      <trkpt lat="47.85027" lon="-1.75781">
        <ele>94</ele>
        <time>2015-06-07T08:18:03Z</time>
      </trkpt>
      <trkpt lat="47.85031" lon="-1.7578">
        <ele>94</ele>
        <time>2015-06-07T08:18:04Z</time>
      </trkpt>
      <trkpt lat="47.85035" lon="-1.7578">
        <ele>95</ele>
        <time>2015-06-07T08:18:05Z</time>
      </trkpt>
      <trkpt lat="47.85039" lon="-1.75779">
        <ele>95</ele>
        <time>2015-06-07T08:18:06Z</time>
      </trkpt>
      <trkpt lat="47.85043" lon="-1.75778">
        <ele>95</ele>
        <time>2015-06-07T08:18:07Z</time>
      </trkpt>
      <trkpt lat="47.85047" lon="-1.75777">
        <ele>95</ele>
        <time>2015-06-07T08:18:08Z</time>
      </trkpt>
      <trkpt lat="47.85051" lon="-1.75777">
        <ele>95</ele>
        <time>2015-06-07T08:18:09Z</time>
      </trkpt>
      <trkpt lat="47.85055" lon="-1.75776">
        <ele>95</ele>
        <time>2015-06-07T08:18:10Z</time>
      </trkpt>
      <trkpt lat="47.85059" lon="-1.75776">
        <ele>95</ele>
        <time>2015-06-07T08:18:11Z</time>
      </trkpt>
      <trkpt lat="47.85063" lon="-1.75775">
        <ele>96</ele>
        <time>2015-06-07T08:18:12Z</time>
      </trkpt>
      <trkpt lat="47.85067" lon="-1.75773">
        <ele>96</ele>
        <time>2015-06-07T08:18:13Z</time>
      </trkpt>
      <trkpt lat="47.85071" lon="-1.75772">
        <ele>96</ele>
        <time>2015-06-07T08:18:14Z</time>
      </trkpt>
      <trkpt lat="47.85075" lon="-1.75772">
        <ele>96</ele>
        <time>2015-06-07T08:18:15Z</time>
      </trkpt>
      <trkpt lat="47.85079" lon="-1.75771">
        <ele>96</ele>
        <time>2015-06-07T08:18:16Z</time>
      </trkpt>
      <trkpt lat="47.85083" lon="-1.75771">
        <ele>96</ele>
        <time>2015-06-07T08:18:17Z</time>
      </trkpt>
      <trkpt lat="47.85087" lon="-1.7577">
        <ele>97</ele>
        <time>2015-06-07T08:18:18Z</time>
      </trkpt>
      <trkpt lat="47.85091" lon="-1.75769">
        <ele>97</ele>
        <time>2015-06-07T08:18:19Z</time>
      </trkpt>
      <trkpt lat="47.85095" lon="-1.75768">
        <ele>97</ele>
        <time>2015-06-07T08:18:20Z</time>
      </trkpt>
      <trkpt lat="47.851" lon="-1.75768">
        <ele>97</ele>
        <time>2015-06-07T08:18:21Z</time>
      </trkpt>
      <trkpt lat="47.85104" lon="-1.75767">
        <ele>97</ele>
        <time>2015-06-07T08:18:22Z</time>
      </trkpt>
      <trkpt lat="47.85108" lon="-1.75766">
        <ele>97</ele>
        <time>2015-06-07T08:18:23Z</time>
      </trkpt>
      <trkpt lat="47.85113" lon="-1.75766">
        <ele>97</ele>
        <time>2015-06-07T08:18:24Z</time>
      </trkpt>
      <trkpt lat="47.85117" lon="-1.75764">
        <ele>97</ele>
        <time>2015-06-07T08:18:25Z</time>
      </trkpt>
      <trkpt lat="47.85122" lon="-1.75763">
        <ele>97</ele>
        <time>2015-06-07T08:18:26Z</time>
      </trkpt>
      <trkpt lat="47.85126" lon="-1.75762">
        <ele>98</ele>
        <time>2015-06-07T08:18:27Z</time>
      </trkpt>
      <trkpt lat="47.8513" lon="-1.75762">
        <ele>98</ele>
        <time>2015-06-07T08:18:28Z</time>
      </trkpt>
      <trkpt lat="47.85135" lon="-1.75761">
        <ele>98</ele>
        <time>2015-06-07T08:18:29Z</time>
      </trkpt>
      <trkpt lat="47.85139" lon="-1.7576">
        <ele>98</ele>
        <time>2015-06-07T08:18:30Z</time>
      </trkpt>
      <trkpt lat="47.85144" lon="-1.75759">
        <ele>98</ele>
        <time>2015-06-07T08:18:31Z</time>
      </trkpt>
      <trkpt lat="47.85148" lon="-1.75759">
        <ele>98</ele>
        <time>2015-06-07T08:18:32Z</time>
      </trkpt>
      <trkpt lat="47.85152" lon="-1.75758">
        <ele>98</ele>
        <time>2015-06-07T08:18:33Z</time>
      </trkpt>
      <trkpt lat="47.85157" lon="-1.75757">
        <ele>98</ele>
        <time>2015-06-07T08:18:34Z</time>
      </trkpt>
      <trkpt lat="47.85161" lon="-1.75756">
        <ele>99</ele>
        <time>2015-06-07T08:18:35Z</time>
      </trkpt>
      <trkpt lat="47.85165" lon="-1.75756">
        <ele>99</ele>
        <time>2015-06-07T08:18:36Z</time>
      </trkpt>
      <trkpt lat="47.85169" lon="-1.75756">
        <ele>99</ele>
        <time>2015-06-07T08:18:37Z</time>
      </trkpt>
      <trkpt lat="47.85172" lon="-1.75756">
        <ele>99</ele>
        <time>2015-06-07T08:18:38Z</time>
      </trkpt>
      <trkpt lat="47.85176" lon="-1.75756">
        <ele>99</ele>
        <time>2015-06-07T08:18:39Z</time>
      </trkpt>
      <trkpt lat="47.85178" lon="-1.75753">
        <ele>99</ele>
        <time>2015-06-07T08:18:40Z</time>
      </trkpt>
      <trkpt lat="47.85179" lon="-1.75749">
        <ele>100</ele>
        <time>2015-06-07T08:18:41Z</time>
      </trkpt>
      <trkpt lat="47.85179" lon="-1.75746">
        <ele>100</ele>
        <time>2015-06-07T08:18:42Z</time>
      </trkpt>
      <trkpt lat="47.85178" lon="-1.75743">
        <ele>100</ele>
        <time>2015-06-07T08:18:43Z</time>
      </trkpt>
      <trkpt lat="47.85177" lon="-1.7574">
        <ele>100</ele>
        <time>2015-06-07T08:18:44Z</time>
      </trkpt>
      <trkpt lat="47.85175" lon="-1.75737">
        <ele>100</ele>
        <time>2015-06-07T08:18:45Z</time>
      </trkpt>
      <trkpt lat="47.85174" lon="-1.75734">
        <ele>100</ele>
        <time>2015-06-07T08:18:46Z</time>
      </trkpt>
      <trkpt lat="47.85173" lon="-1.75731">
        <ele>101</ele>
        <time>2015-06-07T08:18:47Z</time>
      </trkpt>
      <trkpt lat="47.85173" lon="-1.75727">
        <ele>101</ele>
        <time>2015-06-07T08:18:48Z</time>
      </trkpt>
      <trkpt lat="47.85171" lon="-1.75723">
        <ele>101</ele>
        <time>2015-06-07T08:18:49Z</time>
      </trkpt>
      <trkpt lat="47.85171" lon="-1.7572">
        <ele>101</ele>
        <time>2015-06-07T08:18:50Z</time>
      </trkpt>
      <trkpt lat="47.8517" lon="-1.75715">
        <ele>101</ele>
        <time>2015-06-07T08:18:51Z</time>
      </trkpt>
      <trkpt lat="47.85168" lon="-1.7571">
        <ele>101</ele>
        <time>2015-06-07T08:18:52Z</time>
      </trkpt>
      <trkpt lat="47.85167" lon="-1.75706">
        <ele>101</ele>
        <time>2015-06-07T08:18:53Z</time>
      </trkpt>
      <trkpt lat="47.85166" lon="-1.75701">
        <ele>102</ele>
        <time>2015-06-07T08:18:54Z</time>
      </trkpt>
      <trkpt lat="47.85166" lon="-1.75697">
        <ele>102</ele>
        <time>2015-06-07T08:18:55Z</time>
      </trkpt>
      <trkpt lat="47.85165" lon="-1.75692">
        <ele>102</ele>
        <time>2015-06-07T08:18:56Z</time>
      </trkpt>
      <trkpt lat="47.85164" lon="-1.75688">
        <ele>102</ele>
        <time>2015-06-07T08:18:57Z</time>
      </trkpt>
      <trkpt lat="47.85164" lon="-1.75684">
        <ele>102</ele>
        <time>2015-06-07T08:18:58Z</time>
      </trkpt>
      <trkpt lat="47.85164" lon="-1.75679">
        <ele>103</ele>
        <time>2015-06-07T08:18:59Z</time>
      </trkpt>
      <trkpt lat="47.85164" lon="-1.75674">
        <ele>103</ele>
        <time>2015-06-07T08:19:00Z</time>
      </trkpt>
      <trkpt lat="47.85163" lon="-1.7567">
        <ele>103</ele>
        <time>2015-06-07T08:19:01Z</time>
      </trkpt>
      <trkpt lat="47.85163" lon="-1.75665">
        <ele>103</ele>
        <time>2015-06-07T08:19:02Z</time>
      </trkpt>
      <trkpt lat="47.85162" lon="-1.75661">
        <ele>103</ele>
        <time>2015-06-07T08:19:03Z</time>
      </trkpt>
      <trkpt lat="47.85161" lon="-1.75655">
        <ele>103</ele>
        <time>2015-06-07T08:19:04Z</time>
      </trkpt>
      <trkpt lat="47.85161" lon="-1.75651">
        <ele>103</ele>
        <time>2015-06-07T08:19:05Z</time>
      </trkpt>
      <trkpt lat="47.8516" lon="-1.75646">
        <ele>103</ele>
        <time>2015-06-07T08:19:06Z</time>
      </trkpt>
      <trkpt lat="47.85158" lon="-1.75641">
        <ele>103</ele>
        <time>2015-06-07T08:19:07Z</time>
      </trkpt>
      <trkpt lat="47.85158" lon="-1.75636">
        <ele>104</ele>
        <time>2015-06-07T08:19:08Z</time>
      </trkpt>
      <trkpt lat="47.85157" lon="-1.75631">
        <ele>104</ele>
        <time>2015-06-07T08:19:09Z</time>
      </trkpt>
      <trkpt lat="47.85156" lon="-1.75627">
        <ele>104</ele>
        <time>2015-06-07T08:19:10Z</time>
      </trkpt>
      <trkpt lat="47.85155" lon="-1.75622">
        <ele>104</ele>
        <time>2015-06-07T08:19:11Z</time>
      </trkpt>
      <trkpt lat="47.85154" lon="-1.75618">
        <ele>104</ele>
        <time>2015-06-07T08:19:12Z</time>
      </trkpt>
      <trkpt lat="47.85154" lon="-1.75613">
        <ele>104</ele>
        <time>2015-06-07T08:19:13Z</time>
      </trkpt>
      <trkpt lat="47.85153" lon="-1.75608">
        <ele>104</ele>
        <time>2015-06-07T08:19:14Z</time>
      </trkpt>
      <trkpt lat="47.85153" lon="-1.75602">
        <ele>105</ele>
        <time>2015-06-07T08:19:15Z</time>
      </trkpt>
      <trkpt lat="47.85152" lon="-1.75598">
        <ele>105</ele>
        <time>2015-06-07T08:19:16Z</time>
      </trkpt>
      <trkpt lat="47.85152" lon="-1.75592">
        <ele>105</ele>
        <time>2015-06-07T08:19:17Z</time>
      </trkpt>
      <trkpt lat="47.85152" lon="-1.75587">
        <ele>105</ele>
        <time>2015-06-07T08:19:18Z</time>
      </trkpt>
      <trkpt lat="47.85152" lon="-1.75582">
        <ele>105</ele>
        <time>2015-06-07T08:19:19Z</time>
      </trkpt>
      <trkpt lat="47.85153" lon="-1.75577">
        <ele>105</ele>
        <time>2015-06-07T08:19:20Z</time>
      </trkpt>
      <trkpt lat="47.85154" lon="-1.75572">
        <ele>105</ele>
        <time>2015-06-07T08:19:21Z</time>
      </trkpt>
      <trkpt lat="47.85154" lon="-1.75566">
        <ele>105</ele>
        <time>2015-06-07T08:19:22Z</time>
      </trkpt>
      <trkpt lat="47.85155" lon="-1.75561">
        <ele>105</ele>
        <time>2015-06-07T08:19:23Z</time>
      </trkpt>
      <trkpt lat="47.85156" lon="-1.75556">
        <ele>105</ele>
        <time>2015-06-07T08:19:24Z</time>
      </trkpt>
      <trkpt lat="47.85157" lon="-1.7555">
        <ele>105</ele>
        <time>2015-06-07T08:19:25Z</time>
      </trkpt>
      <trkpt lat="47.85158" lon="-1.75545">
        <ele>105</ele>
        <time>2015-06-07T08:19:26Z</time>
      </trkpt>
      <trkpt lat="47.85159" lon="-1.7554">
        <ele>105</ele>
        <time>2015-06-07T08:19:27Z</time>
      </trkpt>
      <trkpt lat="47.8516" lon="-1.75534">
        <ele>105</ele>
        <time>2015-06-07T08:19:28Z</time>
      </trkpt>
      <trkpt lat="47.85162" lon="-1.75529">
        <ele>105</ele>
        <time>2015-06-07T08:19:29Z</time>
      </trkpt>
      <trkpt lat="47.85164" lon="-1.75523">
        <ele>106</ele>
        <time>2015-06-07T08:19:30Z</time>
      </trkpt>
      <trkpt lat="47.85165" lon="-1.75518">
        <ele>106</ele>
        <time>2015-06-07T08:19:31Z</time>
      </trkpt>
      <trkpt lat="47.85167" lon="-1.75513">
        <ele>106</ele>
        <time>2015-06-07T08:19:32Z</time>
      </trkpt>
      <trkpt lat="47.85168" lon="-1.75507">
        <ele>106</ele>
        <time>2015-06-07T08:19:33Z</time>
      </trkpt>
      <trkpt lat="47.8517" lon="-1.75502">
        <ele>106</ele>
        <time>2015-06-07T08:19:34Z</time>
      </trkpt>
      <trkpt lat="47.85172" lon="-1.75497">
        <ele>106</ele>
        <time>2015-06-07T08:19:35Z</time>
      </trkpt>
      <trkpt lat="47.85173" lon="-1.75491">
        <ele>106</ele>
        <time>2015-06-07T08:19:36Z</time>
      </trkpt>
      <trkpt lat="47.85175" lon="-1.75486">
        <ele>106</ele>
        <time>2015-06-07T08:19:37Z</time>
      </trkpt>
      <trkpt lat="47.85177" lon="-1.75481">
        <ele>106</ele>
        <time>2015-06-07T08:19:38Z</time>
      </trkpt>
      <trkpt lat="47.85178" lon="-1.75475">
        <ele>106</ele>
        <time>2015-06-07T08:19:39Z</time>
      </trkpt>
      <trkpt lat="47.8518" lon="-1.7547">
        <ele>107</ele>
        <time>2015-06-07T08:19:40Z</time>
      </trkpt>
      <trkpt lat="47.85181" lon="-1.75464">
        <ele>107</ele>
        <time>2015-06-07T08:19:41Z</time>
      </trkpt>
      <trkpt lat="47.85183" lon="-1.75458">
        <ele>107</ele>
        <time>2015-06-07T08:19:42Z</time>
      </trkpt>
      <trkpt lat="47.85184" lon="-1.75453">
        <ele>107</ele>
        <time>2015-06-07T08:19:43Z</time>
      </trkpt>
      <trkpt lat="47.85186" lon="-1.75447">
        <ele>107</ele>
        <time>2015-06-07T08:19:44Z</time>
      </trkpt>
      <trkpt lat="47.85188" lon="-1.75441">
        <ele>107</ele>
        <time>2015-06-07T08:19:45Z</time>
      </trkpt>
      <trkpt lat="47.8519" lon="-1.75437">
        <ele>107</ele>
        <time>2015-06-07T08:19:46Z</time>
      </trkpt>
      <trkpt lat="47.85191" lon="-1.75431">
        <ele>107</ele>
        <time>2015-06-07T08:19:47Z</time>
      </trkpt>
      <trkpt lat="47.85193" lon="-1.75426">
        <ele>108</ele>
        <time>2015-06-07T08:19:48Z</time>
      </trkpt>
      <trkpt lat="47.85194" lon="-1.75421">
        <ele>108</ele>
        <time>2015-06-07T08:19:49Z</time>
      </trkpt>
      <trkpt lat="47.85195" lon="-1.75415">
        <ele>108</ele>
        <time>2015-06-07T08:19:50Z</time>
      </trkpt>
      <trkpt lat="47.85197" lon="-1.7541">
        <ele>108</ele>
        <time>2015-06-07T08:19:51Z</time>
      </trkpt>
      <trkpt lat="47.85198" lon="-1.75404">
        <ele>108</ele>
        <time>2015-06-07T08:19:52Z</time>
      </trkpt>
      <trkpt lat="47.852" lon="-1.75399">
        <ele>108</ele>
        <time>2015-06-07T08:19:53Z</time>
      </trkpt>
      <trkpt lat="47.85201" lon="-1.75393">
        <ele>108</ele>
        <time>2015-06-07T08:19:54Z</time>
      </trkpt>
      <trkpt lat="47.85203" lon="-1.75388">
        <ele>108</ele>
        <time>2015-06-07T08:19:55Z</time>
      </trkpt>
      <trkpt lat="47.85204" lon="-1.75382">
        <ele>109</ele>
        <time>2015-06-07T08:19:56Z</time>
      </trkpt>
      <trkpt lat="47.85205" lon="-1.75376">
        <ele>109</ele>
        <time>2015-06-07T08:19:57Z</time>
      </trkpt>
      <trkpt lat="47.85207" lon="-1.7537">
        <ele>109</ele>
        <time>2015-06-07T08:19:58Z</time>
      </trkpt>
      <trkpt lat="47.85209" lon="-1.75363">
        <ele>109</ele>
        <time>2015-06-07T08:19:59Z</time>
      </trkpt>
      <trkpt lat="47.85211" lon="-1.75358">
        <ele>109</ele>
        <time>2015-06-07T08:20:00Z</time>
      </trkpt>
      <trkpt lat="47.85213" lon="-1.75351">
        <ele>109</ele>
        <time>2015-06-07T08:20:01Z</time>
      </trkpt>
      <trkpt lat="47.85214" lon="-1.75345">
        <ele>109</ele>
        <time>2015-06-07T08:20:02Z</time>
      </trkpt>
      <trkpt lat="47.85216" lon="-1.75338">
        <ele>109</ele>
        <time>2015-06-07T08:20:03Z</time>
      </trkpt>
      <trkpt lat="47.85218" lon="-1.75332">
        <ele>110</ele>
        <time>2015-06-07T08:20:04Z</time>
      </trkpt>
      <trkpt lat="47.85219" lon="-1.75326">
        <ele>110</ele>
        <time>2015-06-07T08:20:05Z</time>
      </trkpt>
      <trkpt lat="47.8522" lon="-1.75319">
        <ele>110</ele>
        <time>2015-06-07T08:20:06Z</time>
      </trkpt>
      <trkpt lat="47.85222" lon="-1.75313">
        <ele>110</ele>
        <time>2015-06-07T08:20:07Z</time>
      </trkpt>
      <trkpt lat="47.85223" lon="-1.75306">
        <ele>110</ele>
        <time>2015-06-07T08:20:08Z</time>
      </trkpt>
      <trkpt lat="47.85225" lon="-1.75299">
        <ele>110</ele>
        <time>2015-06-07T08:20:09Z</time>
      </trkpt>
      <trkpt lat="47.85227" lon="-1.75293">
        <ele>110</ele>
        <time>2015-06-07T08:20:10Z</time>
      </trkpt>
      <trkpt lat="47.85228" lon="-1.75286">
        <ele>110</ele>
        <time>2015-06-07T08:20:11Z</time>
      </trkpt>
      <trkpt lat="47.85229" lon="-1.75279">
        <ele>110</ele>
        <time>2015-06-07T08:20:12Z</time>
      </trkpt>
      <trkpt lat="47.85231" lon="-1.75271">
        <ele>110</ele>
        <time>2015-06-07T08:20:13Z</time>
      </trkpt>
      <trkpt lat="47.85233" lon="-1.75264">
        <ele>110</ele>
        <time>2015-06-07T08:20:14Z</time>
      </trkpt>
      <trkpt lat="47.85235" lon="-1.75257">
        <ele>110</ele>
        <time>2015-06-07T08:20:15Z</time>
      </trkpt>
      <trkpt lat="47.85237" lon="-1.7525">
        <ele>110</ele>
        <time>2015-06-07T08:20:16Z</time>
      </trkpt>
      <trkpt lat="47.85239" lon="-1.75244">
        <ele>110</ele>
        <time>2015-06-07T08:20:17Z</time>
      </trkpt>
      <trkpt lat="47.8524" lon="-1.75237">
        <ele>110</ele>
        <time>2015-06-07T08:20:18Z</time>
      </trkpt>
      <trkpt lat="47.85242" lon="-1.75231">
        <ele>110</ele>
        <time>2015-06-07T08:20:19Z</time>
      </trkpt>
      <trkpt lat="47.85244" lon="-1.75224">
        <ele>110</ele>
        <time>2015-06-07T08:20:20Z</time>
      </trkpt>
      <trkpt lat="47.85245" lon="-1.75219">
        <ele>110</ele>
        <time>2015-06-07T08:20:21Z</time>
      </trkpt>
      <trkpt lat="47.85247" lon="-1.75213">
        <ele>110</ele>
        <time>2015-06-07T08:20:22Z</time>
      </trkpt>
      <trkpt lat="47.85248" lon="-1.75207">
        <ele>110</ele>
        <time>2015-06-07T08:20:23Z</time>
      </trkpt>
      <trkpt lat="47.8525" lon="-1.752">
        <ele>110</ele>
        <time>2015-06-07T08:20:24Z</time>
      </trkpt>
      <trkpt lat="47.85253" lon="-1.75193">
        <ele>110</ele>
        <time>2015-06-07T08:20:25Z</time>
      </trkpt>
      <trkpt lat="47.85254" lon="-1.75186">
        <ele>110</ele>
        <time>2015-06-07T08:20:26Z</time>
      </trkpt>
      <trkpt lat="47.85256" lon="-1.75179">
        <ele>110</ele>
        <time>2015-06-07T08:20:27Z</time>
      </trkpt>
      <trkpt lat="47.85259" lon="-1.75171">
        <ele>110</ele>
        <time>2015-06-07T08:20:28Z</time>
      </trkpt>
      <trkpt lat="47.85261" lon="-1.75164">
        <ele>109</ele>
        <time>2015-06-07T08:20:29Z</time>
      </trkpt>
      <trkpt lat="47.85263" lon="-1.75155">
        <ele>109</ele>
        <time>2015-06-07T08:20:30Z</time>
      </trkpt>
      <trkpt lat="47.85265" lon="-1.75147">
        <ele>109</ele>
        <time>2015-06-07T08:20:31Z</time>
      </trkpt>
      <trkpt lat="47.85266" lon="-1.75139">
        <ele>109</ele>
        <time>2015-06-07T08:20:32Z</time>
      </trkpt>
      <trkpt lat="47.85268" lon="-1.75131">
        <ele>109</ele>
        <time>2015-06-07T08:20:33Z</time>
      </trkpt>
      <trkpt lat="47.8527" lon="-1.75123">
        <ele>109</ele>
        <time>2015-06-07T08:20:34Z</time>
      </trkpt>
      <trkpt lat="47.85272" lon="-1.75116">
        <ele>109</ele>
        <time>2015-06-07T08:20:35Z</time>
      </trkpt>
      <trkpt lat="47.85273" lon="-1.75108">
        <ele>109</ele>
        <time>2015-06-07T08:20:36Z</time>
      </trkpt>
      <trkpt lat="47.85275" lon="-1.751">
        <ele>109</ele>
        <time>2015-06-07T08:20:37Z</time>
      </trkpt>
      <trkpt lat="47.85277" lon="-1.75091">
        <ele>109</ele>
        <time>2015-06-07T08:20:38Z</time>
      </trkpt>
      <trkpt lat="47.85279" lon="-1.75083">
        <ele>108</ele>
        <time>2015-06-07T08:20:39Z</time>
      </trkpt>
      <trkpt lat="47.85281" lon="-1.75075">
        <ele>108</ele>
        <time>2015-06-07T08:20:40Z</time>
      </trkpt>
      <trkpt lat="47.85283" lon="-1.75068">
        <ele>108</ele>
        <time>2015-06-07T08:20:41Z</time>
      </trkpt>
      <trkpt lat="47.85285" lon="-1.75061">
        <ele>108</ele>
        <time>2015-06-07T08:20:42Z</time>
      </trkpt>
      <trkpt lat="47.85286" lon="-1.75053">
        <ele>108</ele>
        <time>2015-06-07T08:20:43Z</time>
      </trkpt>
      <trkpt lat="47.85289" lon="-1.75046">
        <ele>108</ele>
        <time>2015-06-07T08:20:44Z</time>
      </trkpt>
      <trkpt lat="47.8529" lon="-1.75038">
        <ele>108</ele>
        <time>2015-06-07T08:20:45Z</time>
      </trkpt>
      <trkpt lat="47.85292" lon="-1.75031">
        <ele>107</ele>
        <time>2015-06-07T08:20:46Z</time>
      </trkpt>
      <trkpt lat="47.85294" lon="-1.75026">
        <ele>107</ele>
        <time>2015-06-07T08:20:47Z</time>
      </trkpt>
      <trkpt lat="47.85296" lon="-1.7502">
        <ele>107</ele>
        <time>2015-06-07T08:20:48Z</time>
      </trkpt>
      <trkpt lat="47.85297" lon="-1.75014">
        <ele>107</ele>
        <time>2015-06-07T08:20:49Z</time>
      </trkpt>
      <trkpt lat="47.85299" lon="-1.75008">
        <ele>107</ele>
        <time>2015-06-07T08:20:50Z</time>
      </trkpt>
      <trkpt lat="47.85301" lon="-1.75001">
        <ele>107</ele>
        <time>2015-06-07T08:20:51Z</time>
      </trkpt>
      <trkpt lat="47.85302" lon="-1.74994">
        <ele>107</ele>
        <time>2015-06-07T08:20:52Z</time>
      </trkpt>
      <trkpt lat="47.85303" lon="-1.74988">
        <ele>107</ele>
        <time>2015-06-07T08:20:53Z</time>
      </trkpt>
      <trkpt lat="47.85305" lon="-1.74983">
        <ele>107</ele>
        <time>2015-06-07T08:20:54Z</time>
      </trkpt>
      <trkpt lat="47.85307" lon="-1.74979">
        <ele>107</ele>
        <time>2015-06-07T08:20:55Z</time>
      </trkpt>
      <trkpt lat="47.8531" lon="-1.74976">
        <ele>107</ele>
        <time>2015-06-07T08:20:56Z</time>
      </trkpt>
      <trkpt lat="47.85313" lon="-1.74973">
        <ele>107</ele>
        <time>2015-06-07T08:20:57Z</time>
      </trkpt>
      <trkpt lat="47.85316" lon="-1.74971">
        <ele>108</ele>
        <time>2015-06-07T08:20:58Z</time>
      </trkpt>
      <trkpt lat="47.85319" lon="-1.74969">
        <ele>108</ele>
        <time>2015-06-07T08:20:59Z</time>
      </trkpt>
      <trkpt lat="47.85323" lon="-1.74968">
        <ele>108</ele>
        <time>2015-06-07T08:21:00Z</time>
      </trkpt>
      <trkpt lat="47.85326" lon="-1.74967">
        <ele>108</ele>
        <time>2015-06-07T08:21:01Z</time>
      </trkpt>
      <trkpt lat="47.85329" lon="-1.74966">
        <ele>109</ele>
        <time>2015-06-07T08:21:02Z</time>
      </trkpt>
      <trkpt lat="47.85333" lon="-1.74965">
        <ele>109</ele>
        <time>2015-06-07T08:21:03Z</time>
      </trkpt>
      <trkpt lat="47.85336" lon="-1.74964">
        <ele>109</ele>
        <time>2015-06-07T08:21:04Z</time>
      </trkpt>
      <trkpt lat="47.8534" lon="-1.74963">
        <ele>110</ele>
        <time>2015-06-07T08:21:05Z</time>
      </trkpt>
      <trkpt lat="47.85344" lon="-1.74962">
        <ele>110</ele>
        <time>2015-06-07T08:21:06Z</time>
      </trkpt>
      <trkpt lat="47.85348" lon="-1.74961">
        <ele>110</ele>
        <time>2015-06-07T08:21:07Z</time>
      </trkpt>
      <trkpt lat="47.85353" lon="-1.7496">
        <ele>110</ele>
        <time>2015-06-07T08:21:08Z</time>
      </trkpt>
      <trkpt lat="47.85358" lon="-1.74958">
        <ele>110</ele>
        <time>2015-06-07T08:21:09Z</time>
      </trkpt>
      <trkpt lat="47.85362" lon="-1.74956">
        <ele>111</ele>
        <time>2015-06-07T08:21:10Z</time>
      </trkpt>
      <trkpt lat="47.85367" lon="-1.74955">
        <ele>111</ele>
        <time>2015-06-07T08:21:11Z</time>
      </trkpt>
      <trkpt lat="47.85372" lon="-1.74954">
        <ele>111</ele>
        <time>2015-06-07T08:21:12Z</time>
      </trkpt>
      <trkpt lat="47.85376" lon="-1.74953">
        <ele>111</ele>
        <time>2015-06-07T08:21:13Z</time>
      </trkpt>
      <trkpt lat="47.85381" lon="-1.74951">
        <ele>112</ele>
        <time>2015-06-07T08:21:14Z</time>
      </trkpt>
      <trkpt lat="47.85385" lon="-1.7495">
        <ele>112</ele>
        <time>2015-06-07T08:21:15Z</time>
      </trkpt>
      <trkpt lat="47.8539" lon="-1.74949">
        <ele>112</ele>
        <time>2015-06-07T08:21:16Z</time>
      </trkpt>
      <trkpt lat="47.85394" lon="-1.74948">
        <ele>112</ele>
        <time>2015-06-07T08:21:17Z</time>
      </trkpt>
      <trkpt lat="47.85399" lon="-1.74947">
        <ele>112</ele>
        <time>2015-06-07T08:21:18Z</time>
      </trkpt>
      <trkpt lat="47.85403" lon="-1.74946">
        <ele>113</ele>
        <time>2015-06-07T08:21:19Z</time>
      </trkpt>
      <trkpt lat="47.85407" lon="-1.74945">
        <ele>113</ele>
        <time>2015-06-07T08:21:20Z</time>
      </trkpt>
      <trkpt lat="47.85411" lon="-1.74944">
        <ele>113</ele>
        <time>2015-06-07T08:21:21Z</time>
      </trkpt>
      <trkpt lat="47.85416" lon="-1.74943">
        <ele>114</ele>
        <time>2015-06-07T08:21:22Z</time>
      </trkpt>
      <trkpt lat="47.8542" lon="-1.74942">
        <ele>114</ele>
        <time>2015-06-07T08:21:23Z</time>
      </trkpt>
      <trkpt lat="47.85425" lon="-1.74942">
        <ele>114</ele>
        <time>2015-06-07T08:21:24Z</time>
      </trkpt>
      <trkpt lat="47.8543" lon="-1.74941">
        <ele>114</ele>
        <time>2015-06-07T08:21:25Z</time>
      </trkpt>
      <trkpt lat="47.85434" lon="-1.7494">
        <ele>114</ele>
        <time>2015-06-07T08:21:26Z</time>
      </trkpt>
      <trkpt lat="47.85438" lon="-1.74939">
        <ele>115</ele>
        <time>2015-06-07T08:21:27Z</time>
      </trkpt>
      <trkpt lat="47.85442" lon="-1.74939">
        <ele>115</ele>
        <time>2015-06-07T08:21:28Z</time>
      </trkpt>
      <trkpt lat="47.85446" lon="-1.74938">
        <ele>115</ele>
        <time>2015-06-07T08:21:29Z</time>
      </trkpt>
      <trkpt lat="47.8545" lon="-1.74937">
        <ele>115</ele>
        <time>2015-06-07T08:21:30Z</time>
      </trkpt>
      <trkpt lat="47.85455" lon="-1.74936">
        <ele>115</ele>
        <time>2015-06-07T08:21:31Z</time>
      </trkpt>
      <trkpt lat="47.8546" lon="-1.74935">
        <ele>115</ele>
        <time>2015-06-07T08:21:32Z</time>
      </trkpt>
      <trkpt lat="47.85464" lon="-1.74935">
        <ele>116</ele>
        <time>2015-06-07T08:21:33Z</time>
      </trkpt>
      <trkpt lat="47.85469" lon="-1.74934">
        <ele>116</ele>
        <time>2015-06-07T08:21:34Z</time>
      </trkpt>
      <trkpt lat="47.85473" lon="-1.74933">
        <ele>116</ele>
        <time>2015-06-07T08:21:35Z</time>
      </trkpt>
      <trkpt lat="47.85479" lon="-1.74932">
        <ele>116</ele>
        <time>2015-06-07T08:21:36Z</time>
      </trkpt>
      <trkpt lat="47.85484" lon="-1.74931">
        <ele>116</ele>
        <time>2015-06-07T08:21:37Z</time>
      </trkpt>
      <trkpt lat="47.85489" lon="-1.7493">
        <ele>115</ele>
        <time>2015-06-07T08:21:38Z</time>
      </trkpt>
      <trkpt lat="47.85495" lon="-1.74929">
        <ele>115</ele>
        <time>2015-06-07T08:21:39Z</time>
      </trkpt>
      <trkpt lat="47.855" lon="-1.74929">
        <ele>115</ele>
        <time>2015-06-07T08:21:40Z</time>
      </trkpt>
      <trkpt lat="47.85506" lon="-1.74928">
        <ele>115</ele>
        <time>2015-06-07T08:21:41Z</time>
      </trkpt>
      <trkpt lat="47.85511" lon="-1.74926">
        <ele>115</ele>
        <time>2015-06-07T08:21:42Z</time>
      </trkpt>
      <trkpt lat="47.85516" lon="-1.74925">
        <ele>115</ele>
        <time>2015-06-07T08:21:43Z</time>
      </trkpt>
      <trkpt lat="47.85522" lon="-1.74923">
        <ele>115</ele>
        <time>2015-06-07T08:21:44Z</time>
      </trkpt>
      <trkpt lat="47.85528" lon="-1.74922">
        <ele>115</ele>
        <time>2015-06-07T08:21:45Z</time>
      </trkpt>
      <trkpt lat="47.85533" lon="-1.74921">
        <ele>114</ele>
        <time>2015-06-07T08:21:46Z</time>
      </trkpt>
      <trkpt lat="47.85538" lon="-1.7492">
        <ele>114</ele>
        <time>2015-06-07T08:21:47Z</time>
      </trkpt>
      <trkpt lat="47.85544" lon="-1.74919">
        <ele>114</ele>
        <time>2015-06-07T08:21:48Z</time>
      </trkpt>
      <trkpt lat="47.8555" lon="-1.74919">
        <ele>114</ele>
        <time>2015-06-07T08:21:49Z</time>
      </trkpt>
      <trkpt lat="47.85555" lon="-1.74917">
        <ele>114</ele>
        <time>2015-06-07T08:21:50Z</time>
      </trkpt>
      <trkpt lat="47.85562" lon="-1.74916">
        <ele>114</ele>
        <time>2015-06-07T08:21:51Z</time>
      </trkpt>
      <trkpt lat="47.85567" lon="-1.74915">
        <ele>114</ele>
        <time>2015-06-07T08:21:52Z</time>
      </trkpt>
      <trkpt lat="47.85572" lon="-1.74914">
        <ele>114</ele>
        <time>2015-06-07T08:21:53Z</time>
      </trkpt>
      <trkpt lat="47.85577" lon="-1.74913">
        <ele>114</ele>
        <time>2015-06-07T08:21:54Z</time>
      </trkpt>
      <trkpt lat="47.85582" lon="-1.74912">
        <ele>115</ele>
        <time>2015-06-07T08:21:55Z</time>
      </trkpt>
      <trkpt lat="47.85588" lon="-1.7491">
        <ele>115</ele>
        <time>2015-06-07T08:21:56Z</time>
      </trkpt>
      <trkpt lat="47.85594" lon="-1.74909">
        <ele>115</ele>
        <time>2015-06-07T08:21:57Z</time>
      </trkpt>
      <trkpt lat="47.856" lon="-1.74908">
        <ele>115</ele>
        <time>2015-06-07T08:21:58Z</time>
      </trkpt>
      <trkpt lat="47.85606" lon="-1.74906">
        <ele>115</ele>
        <time>2015-06-07T08:21:59Z</time>
      </trkpt>
      <trkpt lat="47.85612" lon="-1.74905">
        <ele>115</ele>
        <time>2015-06-07T08:22:00Z</time>
      </trkpt>
      <trkpt lat="47.85618" lon="-1.74903">
        <ele>115</ele>
        <time>2015-06-07T08:22:01Z</time>
      </trkpt>
      <trkpt lat="47.85624" lon="-1.74902">
        <ele>114</ele>
        <time>2015-06-07T08:22:02Z</time>
      </trkpt>
      <trkpt lat="47.8563" lon="-1.749">
        <ele>114</ele>
        <time>2015-06-07T08:22:03Z</time>
      </trkpt>
      <trkpt lat="47.85635" lon="-1.74899">
        <ele>114</ele>
        <time>2015-06-07T08:22:04Z</time>
      </trkpt>
      <trkpt lat="47.8564" lon="-1.74898">
        <ele>114</ele>
        <time>2015-06-07T08:22:05Z</time>
      </trkpt>
      <trkpt lat="47.85646" lon="-1.74896">
        <ele>114</ele>
        <time>2015-06-07T08:22:06Z</time>
      </trkpt>
      <trkpt lat="47.85652" lon="-1.74895">
        <ele>114</ele>
        <time>2015-06-07T08:22:07Z</time>
      </trkpt>
      <trkpt lat="47.85657" lon="-1.74893">
        <ele>114</ele>
        <time>2015-06-07T08:22:08Z</time>
      </trkpt>
      <trkpt lat="47.8566" lon="-1.74892">
        <ele>114</ele>
        <time>2015-06-07T08:22:09Z</time>
      </trkpt>
      <trkpt lat="47.85665" lon="-1.74891">
        <ele>114</ele>
        <time>2015-06-07T08:22:10Z</time>
      </trkpt>
      <trkpt lat="47.8567" lon="-1.74887">
        <ele>114</ele>
        <time>2015-06-07T08:22:11Z</time>
      </trkpt>
      <trkpt lat="47.85675" lon="-1.74882">
        <ele>114</ele>
        <time>2015-06-07T08:22:12Z</time>
      </trkpt>
      <trkpt lat="47.85679" lon="-1.74876">
        <ele>114</ele>
        <time>2015-06-07T08:22:13Z</time>
      </trkpt>
      <trkpt lat="47.85684" lon="-1.74869">
        <ele>114</ele>
        <time>2015-06-07T08:22:14Z</time>
      </trkpt>
      <trkpt lat="47.85688" lon="-1.74862">
        <ele>114</ele>
        <time>2015-06-07T08:22:15Z</time>
      </trkpt>
      <trkpt lat="47.85692" lon="-1.74855">
        <ele>114</ele>
        <time>2015-06-07T08:22:16Z</time>
      </trkpt>
      <trkpt lat="47.85696" lon="-1.74849">
        <ele>114</ele>
        <time>2015-06-07T08:22:17Z</time>
      </trkpt>
      <trkpt lat="47.85699" lon="-1.74842">
        <ele>113</ele>
        <time>2015-06-07T08:22:18Z</time>
      </trkpt>
      <trkpt lat="47.85703" lon="-1.74835">
        <ele>113</ele>
        <time>2015-06-07T08:22:19Z</time>
      </trkpt>
      <trkpt lat="47.85707" lon="-1.74829">
        <ele>113</ele>
        <time>2015-06-07T08:22:20Z</time>
      </trkpt>
      <trkpt lat="47.8571" lon="-1.74822">
        <ele>112</ele>
        <time>2015-06-07T08:22:21Z</time>
      </trkpt>
      <trkpt lat="47.85714" lon="-1.74814">
        <ele>112</ele>
        <time>2015-06-07T08:22:22Z</time>
      </trkpt>
      <trkpt lat="47.85718" lon="-1.74807">
        <ele>112</ele>
        <time>2015-06-07T08:22:23Z</time>
      </trkpt>
      <trkpt lat="47.85722" lon="-1.74799">
        <ele>112</ele>
        <time>2015-06-07T08:22:24Z</time>
      </trkpt>
      <trkpt lat="47.85727" lon="-1.74791">
        <ele>111</ele>
        <time>2015-06-07T08:22:25Z</time>
      </trkpt>
      <trkpt lat="47.85731" lon="-1.74784">
        <ele>111</ele>
        <time>2015-06-07T08:22:26Z</time>
      </trkpt>
      <trkpt lat="47.85734" lon="-1.74777">
        <ele>111</ele>
        <time>2015-06-07T08:22:27Z</time>
      </trkpt>
      <trkpt lat="47.85738" lon="-1.74769">
        <ele>111</ele>
        <time>2015-06-07T08:22:28Z</time>
      </trkpt>
      <trkpt lat="47.85741" lon="-1.74761">
        <ele>110</ele>
        <time>2015-06-07T08:22:29Z</time>
      </trkpt>
      <trkpt lat="47.85745" lon="-1.74753">
        <ele>110</ele>
        <time>2015-06-07T08:22:30Z</time>
      </trkpt>
      <trkpt lat="47.85748" lon="-1.74746">
        <ele>110</ele>
        <time>2015-06-07T08:22:31Z</time>
      </trkpt>
      <trkpt lat="47.85752" lon="-1.74737">
        <ele>109</ele>
        <time>2015-06-07T08:22:32Z</time>
      </trkpt>
      <trkpt lat="47.85756" lon="-1.74729">
        <ele>109</ele>
        <time>2015-06-07T08:22:33Z</time>
      </trkpt>
      <trkpt lat="47.85761" lon="-1.74722">
        <ele>109</ele>
        <time>2015-06-07T08:22:34Z</time>
      </trkpt>
      <trkpt lat="47.85765" lon="-1.74713">
        <ele>109</ele>
        <time>2015-06-07T08:22:35Z</time>
      </trkpt>
      <trkpt lat="47.85768" lon="-1.74706">
        <ele>108</ele>
        <time>2015-06-07T08:22:36Z</time>
      </trkpt>
      <trkpt lat="47.85773" lon="-1.74698">
        <ele>108</ele>
        <time>2015-06-07T08:22:37Z</time>
      </trkpt>
      <trkpt lat="47.85777" lon="-1.7469">
        <ele>108</ele>
        <time>2015-06-07T08:22:38Z</time>
      </trkpt>
      <trkpt lat="47.85781" lon="-1.74682">
        <ele>107</ele>
        <time>2015-06-07T08:22:39Z</time>
      </trkpt>
      <trkpt lat="47.85785" lon="-1.74675">
        <ele>107</ele>
        <time>2015-06-07T08:22:40Z</time>
      </trkpt>
      <trkpt lat="47.85788" lon="-1.74667">
        <ele>107</ele>
        <time>2015-06-07T08:22:41Z</time>
      </trkpt>
      <trkpt lat="47.85792" lon="-1.7466">
        <ele>107</ele>
        <time>2015-06-07T08:22:42Z</time>
      </trkpt>
      <trkpt lat="47.85795" lon="-1.74653">
        <ele>107</ele>
        <time>2015-06-07T08:22:43Z</time>
      </trkpt>
      <trkpt lat="47.85798" lon="-1.74647">
        <ele>107</ele>
        <time>2015-06-07T08:22:44Z</time>
      </trkpt>
      <trkpt lat="47.85802" lon="-1.74642">
        <ele>107</ele>
        <time>2015-06-07T08:22:45Z</time>
      </trkpt>
      <trkpt lat="47.85806" lon="-1.74635">
        <ele>106</ele>
        <time>2015-06-07T08:22:46Z</time>
      </trkpt>
      <trkpt lat="47.8581" lon="-1.74627">
        <ele>106</ele>
        <time>2015-06-07T08:22:47Z</time>
      </trkpt>
      <trkpt lat="47.85814" lon="-1.7462">
        <ele>106</ele>
        <time>2015-06-07T08:22:48Z</time>
      </trkpt>
      <trkpt lat="47.85819" lon="-1.74612">
        <ele>106</ele>
        <time>2015-06-07T08:22:49Z</time>
      </trkpt>
      <trkpt lat="47.85823" lon="-1.74604">
        <ele>106</ele>
        <time>2015-06-07T08:22:50Z</time>
      </trkpt>
      <trkpt lat="47.85827" lon="-1.74596">
        <ele>105</ele>
        <time>2015-06-07T08:22:51Z</time>
      </trkpt>
      <trkpt lat="47.85832" lon="-1.74589">
        <ele>105</ele>
        <time>2015-06-07T08:22:52Z</time>
      </trkpt>
      <trkpt lat="47.85837" lon="-1.74582">
        <ele>105</ele>
        <time>2015-06-07T08:22:53Z</time>
      </trkpt>
      <trkpt lat="47.85842" lon="-1.74575">
        <ele>105</ele>
        <time>2015-06-07T08:22:54Z</time>
      </trkpt>
      <trkpt lat="47.85846" lon="-1.74568">
        <ele>104</ele>
        <time>2015-06-07T08:22:55Z</time>
      </trkpt>
      <trkpt lat="47.8585" lon="-1.7456">
        <ele>104</ele>
        <time>2015-06-07T08:22:56Z</time>
      </trkpt>
      <trkpt lat="47.85854" lon="-1.74552">
        <ele>104</ele>
        <time>2015-06-07T08:22:57Z</time>
      </trkpt>
      <trkpt lat="47.85858" lon="-1.74545">
        <ele>103</ele>
        <time>2015-06-07T08:22:58Z</time>
      </trkpt>
      <trkpt lat="47.85862" lon="-1.74536">
        <ele>103</ele>
        <time>2015-06-07T08:22:59Z</time>
      </trkpt>
      <trkpt lat="47.85865" lon="-1.74528">
        <ele>102</ele>
        <time>2015-06-07T08:23:00Z</time>
      </trkpt>
      <trkpt lat="47.85869" lon="-1.7452">
        <ele>102</ele>
        <time>2015-06-07T08:23:01Z</time>
      </trkpt>
      <trkpt lat="47.85873" lon="-1.74513">
        <ele>102</ele>
        <time>2015-06-07T08:23:02Z</time>
      </trkpt>
      <trkpt lat="47.85877" lon="-1.74505">
        <ele>101</ele>
        <time>2015-06-07T08:23:03Z</time>
      </trkpt>
      <trkpt lat="47.85881" lon="-1.74498">
        <ele>101</ele>
        <time>2015-06-07T08:23:04Z</time>
      </trkpt>
      <trkpt lat="47.85885" lon="-1.7449">
        <ele>100</ele>
        <time>2015-06-07T08:23:05Z</time>
      </trkpt>
      <trkpt lat="47.85888" lon="-1.74483">
        <ele>100</ele>
        <time>2015-06-07T08:23:06Z</time>
      </trkpt>
      <trkpt lat="47.85892" lon="-1.74476">
        <ele>100</ele>
        <time>2015-06-07T08:23:07Z</time>
      </trkpt>
      <trkpt lat="47.85895" lon="-1.74469">
        <ele>99</ele>
        <time>2015-06-07T08:23:08Z</time>
      </trkpt>
      <trkpt lat="47.85898" lon="-1.74463">
        <ele>99</ele>
        <time>2015-06-07T08:23:09Z</time>
      </trkpt>
      <trkpt lat="47.85901" lon="-1.74457">
        <ele>99</ele>
        <time>2015-06-07T08:23:10Z</time>
      </trkpt>
      <trkpt lat="47.85905" lon="-1.74451">
        <ele>99</ele>
        <time>2015-06-07T08:23:11Z</time>
      </trkpt>
      <trkpt lat="47.85909" lon="-1.74445">
        <ele>99</ele>
        <time>2015-06-07T08:23:12Z</time>
      </trkpt>
      <trkpt lat="47.85913" lon="-1.7444">
        <ele>99</ele>
        <time>2015-06-07T08:23:13Z</time>
      </trkpt>
      <trkpt lat="47.85916" lon="-1.74434">
        <ele>98</ele>
        <time>2015-06-07T08:23:14Z</time>
      </trkpt>
      <trkpt lat="47.85919" lon="-1.74427">
        <ele>98</ele>
        <time>2015-06-07T08:23:15Z</time>
      </trkpt>
      <trkpt lat="47.85923" lon="-1.7442">
        <ele>98</ele>
        <time>2015-06-07T08:23:16Z</time>
      </trkpt>
      <trkpt lat="47.85926" lon="-1.74414">
        <ele>98</ele>
        <time>2015-06-07T08:23:17Z</time>
      </trkpt>
      <trkpt lat="47.85929" lon="-1.74407">
        <ele>98</ele>
        <time>2015-06-07T08:23:18Z</time>
      </trkpt>
      <trkpt lat="47.85933" lon="-1.744">
        <ele>98</ele>
        <time>2015-06-07T08:23:19Z</time>
      </trkpt>
      <trkpt lat="47.85936" lon="-1.74394">
        <ele>98</ele>
        <time>2015-06-07T08:23:20Z</time>
      </trkpt>
      <trkpt lat="47.85939" lon="-1.74389">
        <ele>98</ele>
        <time>2015-06-07T08:23:21Z</time>
      </trkpt>
      <trkpt lat="47.85944" lon="-1.74383">
        <ele>98</ele>
        <time>2015-06-07T08:23:22Z</time>
      </trkpt>
      <trkpt lat="47.85948" lon="-1.74378">
        <ele>98</ele>
        <time>2015-06-07T08:23:23Z</time>
      </trkpt>
      <trkpt lat="47.85952" lon="-1.74372">
        <ele>99</ele>
        <time>2015-06-07T08:23:24Z</time>
      </trkpt>
      <trkpt lat="47.85954" lon="-1.74366">
        <ele>99</ele>
        <time>2015-06-07T08:23:25Z</time>
      </trkpt>
      <trkpt lat="47.85957" lon="-1.7436">
        <ele>99</ele>
        <time>2015-06-07T08:23:26Z</time>
      </trkpt>
      <trkpt lat="47.85959" lon="-1.74354">
        <ele>99</ele>
        <time>2015-06-07T08:23:27Z</time>
      </trkpt>
      <trkpt lat="47.85962" lon="-1.74348">
        <ele>99</ele>
        <time>2015-06-07T08:23:28Z</time>
      </trkpt>
      <trkpt lat="47.85965" lon="-1.74341">
        <ele>99</ele>
        <time>2015-06-07T08:23:29Z</time>
      </trkpt>
      <trkpt lat="47.85968" lon="-1.74335">
        <ele>99</ele>
        <time>2015-06-07T08:23:30Z</time>
      </trkpt>
      <trkpt lat="47.85971" lon="-1.74328">
        <ele>99</ele>
        <time>2015-06-07T08:23:31Z</time>
      </trkpt>
      <trkpt lat="47.85974" lon="-1.74321">
        <ele>99</ele>
        <time>2015-06-07T08:23:32Z</time>
      </trkpt>
      <trkpt lat="47.85977" lon="-1.74315">
        <ele>100</ele>
        <time>2015-06-07T08:23:33Z</time>
      </trkpt>
      <trkpt lat="47.8598" lon="-1.74309">
        <ele>100</ele>
        <time>2015-06-07T08:23:34Z</time>
      </trkpt>
      <trkpt lat="47.85983" lon="-1.74302">
        <ele>100</ele>
        <time>2015-06-07T08:23:35Z</time>
      </trkpt>
      <trkpt lat="47.85986" lon="-1.74295">
        <ele>100</ele>
        <time>2015-06-07T08:23:36Z</time>
      </trkpt>
      <trkpt lat="47.85989" lon="-1.74288">
        <ele>100</ele>
        <time>2015-06-07T08:23:37Z</time>
      </trkpt>
      <trkpt lat="47.85992" lon="-1.74282">
        <ele>100</ele>
        <time>2015-06-07T08:23:38Z</time>
      </trkpt>
      <trkpt lat="47.85995" lon="-1.74275">
        <ele>100</ele>
        <time>2015-06-07T08:23:39Z</time>
      </trkpt>
      <trkpt lat="47.85997" lon="-1.74269">
        <ele>100</ele>
        <time>2015-06-07T08:23:40Z</time>
      </trkpt>
      <trkpt lat="47.86" lon="-1.74263">
        <ele>100</ele>
        <time>2015-06-07T08:23:41Z</time>
      </trkpt>
      <trkpt lat="47.86003" lon="-1.74257">
        <ele>101</ele>
        <time>2015-06-07T08:23:42Z</time>
      </trkpt>
      <trkpt lat="47.86006" lon="-1.7425">
        <ele>101</ele>
        <time>2015-06-07T08:23:43Z</time>
      </trkpt>
      <trkpt lat="47.86009" lon="-1.74244">
        <ele>101</ele>
        <time>2015-06-07T08:23:44Z</time>
      </trkpt>
      <trkpt lat="47.86012" lon="-1.74239">
        <ele>101</ele>
        <time>2015-06-07T08:23:45Z</time>
      </trkpt>
      <trkpt lat="47.86015" lon="-1.74233">
        <ele>101</ele>
        <time>2015-06-07T08:23:46Z</time>
      </trkpt>
      <trkpt lat="47.86018" lon="-1.74228">
        <ele>101</ele>
        <time>2015-06-07T08:23:47Z</time>
      </trkpt>
      <trkpt lat="47.8602" lon="-1.74224">
        <ele>101</ele>
        <time>2015-06-07T08:23:48Z</time>
      </trkpt>
      <trkpt lat="47.86022" lon="-1.7422">
        <ele>101</ele>
        <time>2015-06-07T08:23:49Z</time>
      </trkpt>
      <trkpt lat="47.86024" lon="-1.74217">
        <ele>101</ele>
        <time>2015-06-07T08:23:50Z</time>
      </trkpt>
      <trkpt lat="47.86026" lon="-1.74214">
        <ele>101</ele>
        <time>2015-06-07T08:23:51Z</time>
      </trkpt>
      <trkpt lat="47.86027" lon="-1.7421">
        <ele>101</ele>
        <time>2015-06-07T08:23:52Z</time>
      </trkpt>
      <trkpt lat="47.86029" lon="-1.74204">
        <ele>101</ele>
        <time>2015-06-07T08:23:53Z</time>
      </trkpt>
      <trkpt lat="47.86031" lon="-1.74199">
        <ele>101</ele>
        <time>2015-06-07T08:23:54Z</time>
      </trkpt>
      <trkpt lat="47.86034" lon="-1.74194">
        <ele>101</ele>
        <time>2015-06-07T08:23:55Z</time>
      </trkpt>
      <trkpt lat="47.86036" lon="-1.74188">
        <ele>101</ele>
        <time>2015-06-07T08:23:56Z</time>
      </trkpt>
      <trkpt lat="47.86039" lon="-1.74182">
        <ele>101</ele>
        <time>2015-06-07T08:23:57Z</time>
      </trkpt>
      <trkpt lat="47.86042" lon="-1.74176">
        <ele>102</ele>
        <time>2015-06-07T08:23:58Z</time>
      </trkpt>
      <trkpt lat="47.86044" lon="-1.7417">
        <ele>102</ele>
        <time>2015-06-07T08:23:59Z</time>
      </trkpt>
      <trkpt lat="47.86047" lon="-1.74164">
        <ele>102</ele>
        <time>2015-06-07T08:24:00Z</time>
      </trkpt>
      <trkpt lat="47.86049" lon="-1.74158">
        <ele>102</ele>
        <time>2015-06-07T08:24:01Z</time>
      </trkpt>
      <trkpt lat="47.86052" lon="-1.74152">
        <ele>102</ele>
        <time>2015-06-07T08:24:02Z</time>
      </trkpt>
      <trkpt lat="47.86055" lon="-1.74146">
        <ele>102</ele>
        <time>2015-06-07T08:24:03Z</time>
      </trkpt>
      <trkpt lat="47.86057" lon="-1.74141">
        <ele>102</ele>
        <time>2015-06-07T08:24:04Z</time>
      </trkpt>
      <trkpt lat="47.8606" lon="-1.74135">
        <ele>102</ele>
        <time>2015-06-07T08:24:05Z</time>
      </trkpt>
      <trkpt lat="47.86063" lon="-1.7413">
        <ele>102</ele>
        <time>2015-06-07T08:24:06Z</time>
      </trkpt>
      <trkpt lat="47.86065" lon="-1.74126">
        <ele>102</ele>
        <time>2015-06-07T08:24:07Z</time>
      </trkpt>
      <trkpt lat="47.86068" lon="-1.74121">
        <ele>102</ele>
        <time>2015-06-07T08:24:08Z</time>
      </trkpt>
      <trkpt lat="47.8607" lon="-1.74116">
        <ele>102</ele>
        <time>2015-06-07T08:24:09Z</time>
      </trkpt>
      <trkpt lat="47.86072" lon="-1.74111">
        <ele>102</ele>
        <time>2015-06-07T08:24:10Z</time>
      </trkpt>
      <trkpt lat="47.86074" lon="-1.74105">
        <ele>102</ele>
        <time>2015-06-07T08:24:11Z</time>
      </trkpt>
      <trkpt lat="47.86076" lon="-1.74101">
        <ele>102</ele>
        <time>2015-06-07T08:24:12Z</time>
      </trkpt>
      <trkpt lat="47.86079" lon="-1.74096">
        <ele>103</ele>
        <time>2015-06-07T08:24:13Z</time>
      </trkpt>
      <trkpt lat="47.86081" lon="-1.74092">
        <ele>103</ele>
        <time>2015-06-07T08:24:14Z</time>
      </trkpt>
      <trkpt lat="47.86084" lon="-1.74087">
        <ele>103</ele>
        <time>2015-06-07T08:24:15Z</time>
      </trkpt>
      <trkpt lat="47.86086" lon="-1.74083">
        <ele>103</ele>
        <time>2015-06-07T08:24:16Z</time>
      </trkpt>
      <trkpt lat="47.86088" lon="-1.74079">
        <ele>103</ele>
        <time>2015-06-07T08:24:17Z</time>
      </trkpt>
      <trkpt lat="47.8609" lon="-1.74076">
        <ele>104</ele>
        <time>2015-06-07T08:24:18Z</time>
      </trkpt>
      <trkpt lat="47.86092" lon="-1.74072">
        <ele>104</ele>
        <time>2015-06-07T08:24:19Z</time>
      </trkpt>
      <trkpt lat="47.86094" lon="-1.74068">
        <ele>104</ele>
        <time>2015-06-07T08:24:20Z</time>
      </trkpt>
      <trkpt lat="47.86097" lon="-1.74063">
        <ele>104</ele>
        <time>2015-06-07T08:24:21Z</time>
      </trkpt>
      <trkpt lat="47.861" lon="-1.74057">
        <ele>104</ele>
        <time>2015-06-07T08:24:22Z</time>
      </trkpt>
      <trkpt lat="47.86103" lon="-1.74052">
        <ele>104</ele>
        <time>2015-06-07T08:24:23Z</time>
      </trkpt>
      <trkpt lat="47.86105" lon="-1.74046">
        <ele>105</ele>
        <time>2015-06-07T08:24:24Z</time>
      </trkpt>
      <trkpt lat="47.86106" lon="-1.74041">
        <ele>105</ele>
        <time>2015-06-07T08:24:25Z</time>
      </trkpt>
      <trkpt lat="47.86107" lon="-1.74037">
        <ele>105</ele>
        <time>2015-06-07T08:24:26Z</time>
      </trkpt>
      <trkpt lat="47.86108" lon="-1.74033">
        <ele>105</ele>
        <time>2015-06-07T08:24:27Z</time>
      </trkpt>
      <trkpt lat="47.86109" lon="-1.74031">
        <ele>105</ele>
        <time>2015-06-07T08:24:28Z</time>
      </trkpt>
      <trkpt lat="47.8611" lon="-1.74029">
        <ele>105</ele>
        <time>2015-06-07T08:24:29Z</time>
      </trkpt>
      <trkpt lat="47.8611" lon="-1.74029">
        <ele>105</ele>
        <time>2015-06-07T08:24:30Z</time>
      </trkpt>
      <trkpt lat="47.8611" lon="-1.74028">
        <ele>105</ele>
        <time>2015-06-07T08:24:31Z</time>
      </trkpt>
      <trkpt lat="47.8611" lon="-1.74027">
        <ele>105</ele>
        <time>2015-06-07T08:24:32Z</time>
      </trkpt>
      <trkpt lat="47.86111" lon="-1.74026">
        <ele>105</ele>
        <time>2015-06-07T08:24:33Z</time>
      </trkpt>
      <trkpt lat="47.86111" lon="-1.74026">
        <ele>105</ele>
        <time>2015-06-07T08:24:34Z</time>
      </trkpt>
      <trkpt lat="47.86111" lon="-1.74026">
        <ele>105</ele>
        <time>2015-06-07T08:24:35Z</time>
      </trkpt>
      <trkpt lat="47.86112" lon="-1.74025">
        <ele>104</ele>
        <time>2015-06-07T08:24:36Z</time>
      </trkpt>
      <trkpt lat="47.86117" lon="-1.74009">
        <ele>103</ele>
        <time>2015-06-07T08:24:37Z</time>
      </trkpt>
      <trkpt lat="47.86119" lon="-1.74006">
        <ele>103</ele>
        <time>2015-06-07T08:24:38Z</time>
      </trkpt>
      <trkpt lat="47.8612" lon="-1.74002">
        <ele>103</ele>
        <time>2015-06-07T08:24:39Z</time>
      </trkpt>
      <trkpt lat="47.86122" lon="-1.73997">
        <ele>103</ele>
        <time>2015-06-07T08:24:40Z</time>
      </trkpt>
      <trkpt lat="47.86124" lon="-1.73993">
        <ele>103</ele>
        <time>2015-06-07T08:24:41Z</time>
      </trkpt>
      <trkpt lat="47.86126" lon="-1.73988">
        <ele>103</ele>
        <time>2015-06-07T08:24:42Z</time>
      </trkpt>
      <trkpt lat="47.86129" lon="-1.73984">
        <ele>104</ele>
        <time>2015-06-07T08:24:43Z</time>
      </trkpt>
      <trkpt lat="47.86131" lon="-1.73979">
        <ele>104</ele>
        <time>2015-06-07T08:24:44Z</time>
      </trkpt>
      <trkpt lat="47.86133" lon="-1.73973">
        <ele>104</ele>
        <time>2015-06-07T08:24:45Z</time>
      </trkpt>
      <trkpt lat="47.86135" lon="-1.73968">
        <ele>104</ele>
        <time>2015-06-07T08:24:46Z</time>
      </trkpt>
      <trkpt lat="47.86138" lon="-1.73963">
        <ele>104</ele>
        <time>2015-06-07T08:24:47Z</time>
      </trkpt>
      <trkpt lat="47.86141" lon="-1.73957">
        <ele>104</ele>
        <time>2015-06-07T08:24:48Z</time>
      </trkpt>
      <trkpt lat="47.86143" lon="-1.73953">
        <ele>104</ele>
        <time>2015-06-07T08:24:49Z</time>
      </trkpt>
      <trkpt lat="47.86146" lon="-1.73947">
        <ele>104</ele>
        <time>2015-06-07T08:24:50Z</time>
      </trkpt>
      <trkpt lat="47.86149" lon="-1.73942">
        <ele>105</ele>
        <time>2015-06-07T08:24:51Z</time>
      </trkpt>
      <trkpt lat="47.86152" lon="-1.73937">
        <ele>105</ele>
        <time>2015-06-07T08:24:52Z</time>
      </trkpt>
      <trkpt lat="47.86156" lon="-1.73931">
        <ele>105</ele>
        <time>2015-06-07T08:24:53Z</time>
      </trkpt>
      <trkpt lat="47.86159" lon="-1.73925">
        <ele>105</ele>
        <time>2015-06-07T08:24:54Z</time>
      </trkpt>
      <trkpt lat="47.86162" lon="-1.73919">
        <ele>105</ele>
        <time>2015-06-07T08:24:55Z</time>
      </trkpt>
      <trkpt lat="47.86166" lon="-1.73914">
        <ele>105</ele>
        <time>2015-06-07T08:24:56Z</time>
      </trkpt>
      <trkpt lat="47.86169" lon="-1.73908">
        <ele>105</ele>
        <time>2015-06-07T08:24:57Z</time>
      </trkpt>
      <trkpt lat="47.86173" lon="-1.73902">
        <ele>105</ele>
        <time>2015-06-07T08:24:58Z</time>
      </trkpt>
      <trkpt lat="47.86176" lon="-1.73898">
        <ele>105</ele>
        <time>2015-06-07T08:24:59Z</time>
      </trkpt>
      <trkpt lat="47.8618" lon="-1.73892">
        <ele>105</ele>
        <time>2015-06-07T08:25:00Z</time>
      </trkpt>
      <trkpt lat="47.86183" lon="-1.73887">
        <ele>105</ele>
        <time>2015-06-07T08:25:01Z</time>
      </trkpt>
      <trkpt lat="47.86186" lon="-1.73881">
        <ele>105</ele>
        <time>2015-06-07T08:25:02Z</time>
      </trkpt>
      <trkpt lat="47.86189" lon="-1.73875">
        <ele>105</ele>
        <time>2015-06-07T08:25:03Z</time>
      </trkpt>
      <trkpt lat="47.86192" lon="-1.73869">
        <ele>105</ele>
        <time>2015-06-07T08:25:04Z</time>
      </trkpt>
      <trkpt lat="47.86195" lon="-1.73863">
        <ele>106</ele>
        <time>2015-06-07T08:25:05Z</time>
      </trkpt>
      <trkpt lat="47.86198" lon="-1.73857">
        <ele>106</ele>
        <time>2015-06-07T08:25:06Z</time>
      </trkpt>
      <trkpt lat="47.86202" lon="-1.73852">
        <ele>106</ele>
        <time>2015-06-07T08:25:07Z</time>
      </trkpt>
      <trkpt lat="47.86204" lon="-1.73846">
        <ele>106</ele>
        <time>2015-06-07T08:25:08Z</time>
      </trkpt>
      <trkpt lat="47.86208" lon="-1.7384">
        <ele>106</ele>
        <time>2015-06-07T08:25:09Z</time>
      </trkpt>
      <trkpt lat="47.8621" lon="-1.73834">
        <ele>106</ele>
        <time>2015-06-07T08:25:10Z</time>
      </trkpt>
      <trkpt lat="47.86212" lon="-1.73828">
        <ele>106</ele>
        <time>2015-06-07T08:25:11Z</time>
      </trkpt>
      <trkpt lat="47.86215" lon="-1.73822">
        <ele>106</ele>
        <time>2015-06-07T08:25:12Z</time>
      </trkpt>
      <trkpt lat="47.86218" lon="-1.73816">
        <ele>106</ele>
        <time>2015-06-07T08:25:13Z</time>
      </trkpt>
      <trkpt lat="47.86221" lon="-1.7381">
        <ele>106</ele>
        <time>2015-06-07T08:25:14Z</time>
      </trkpt>
      <trkpt lat="47.86224" lon="-1.73804">
        <ele>106</ele>
        <time>2015-06-07T08:25:15Z</time>
      </trkpt>
      <trkpt lat="47.86227" lon="-1.73797">
        <ele>106</ele>
        <time>2015-06-07T08:25:16Z</time>
      </trkpt>
      <trkpt lat="47.86229" lon="-1.73792">
        <ele>106</ele>
        <time>2015-06-07T08:25:17Z</time>
      </trkpt>
      <trkpt lat="47.86232" lon="-1.73786">
        <ele>106</ele>
        <time>2015-06-07T08:25:18Z</time>
      </trkpt>
      <trkpt lat="47.86235" lon="-1.73781">
        <ele>105</ele>
        <time>2015-06-07T08:25:19Z</time>
      </trkpt>
      <trkpt lat="47.86237" lon="-1.73777">
        <ele>105</ele>
        <time>2015-06-07T08:25:20Z</time>
      </trkpt>
      <trkpt lat="47.86239" lon="-1.73773">
        <ele>105</ele>
        <time>2015-06-07T08:25:21Z</time>
      </trkpt>
      <trkpt lat="47.86241" lon="-1.73769">
        <ele>105</ele>
        <time>2015-06-07T08:25:22Z</time>
      </trkpt>
      <trkpt lat="47.86244" lon="-1.73766">
        <ele>105</ele>
        <time>2015-06-07T08:25:23Z</time>
      </trkpt>
      <trkpt lat="47.86248" lon="-1.73765">
        <ele>105</ele>
        <time>2015-06-07T08:25:24Z</time>
      </trkpt>
      <trkpt lat="47.86251" lon="-1.73765">
        <ele>105</ele>
        <time>2015-06-07T08:25:25Z</time>
      </trkpt>
      <trkpt lat="47.86254" lon="-1.73767">
        <ele>105</ele>
        <time>2015-06-07T08:25:26Z</time>
      </trkpt>
      <trkpt lat="47.86257" lon="-1.7377">
        <ele>106</ele>
        <time>2015-06-07T08:25:27Z</time>
      </trkpt>
      <trkpt lat="47.86261" lon="-1.73773">
        <ele>106</ele>
        <time>2015-06-07T08:25:28Z</time>
      </trkpt>
      <trkpt lat="47.86264" lon="-1.73777">
        <ele>106</ele>
        <time>2015-06-07T08:25:29Z</time>
      </trkpt>
      <trkpt lat="47.86268" lon="-1.73782">
        <ele>106</ele>
        <time>2015-06-07T08:25:30Z</time>
      </trkpt>
      <trkpt lat="47.86272" lon="-1.73785">
        <ele>106</ele>
        <time>2015-06-07T08:25:31Z</time>
      </trkpt>
      <trkpt lat="47.86276" lon="-1.73789">
        <ele>106</ele>
        <time>2015-06-07T08:25:32Z</time>
      </trkpt>
      <trkpt lat="47.8628" lon="-1.73793">
        <ele>107</ele>
        <time>2015-06-07T08:25:33Z</time>
      </trkpt>
      <trkpt lat="47.86284" lon="-1.73798">
        <ele>107</ele>
        <time>2015-06-07T08:25:34Z</time>
      </trkpt>
      <trkpt lat="47.86288" lon="-1.73802">
        <ele>107</ele>
        <time>2015-06-07T08:25:35Z</time>
      </trkpt>
      <trkpt lat="47.86291" lon="-1.73806">
        <ele>107</ele>
        <time>2015-06-07T08:25:36Z</time>
      </trkpt>
      <trkpt lat="47.86295" lon="-1.7381">
        <ele>108</ele>
        <time>2015-06-07T08:25:37Z</time>
      </trkpt>
      <trkpt lat="47.86299" lon="-1.73815">
        <ele>108</ele>
        <time>2015-06-07T08:25:38Z</time>
      </trkpt>
      <trkpt lat="47.86303" lon="-1.73819">
        <ele>108</ele>
        <time>2015-06-07T08:25:39Z</time>
      </trkpt>
      <trkpt lat="47.86307" lon="-1.73823">
        <ele>108</ele>
        <time>2015-06-07T08:25:40Z</time>
      </trkpt>
      <trkpt lat="47.8631" lon="-1.73827">
        <ele>108</ele>
        <time>2015-06-07T08:25:41Z</time>
      </trkpt>
      <trkpt lat="47.86314" lon="-1.73831">
        <ele>108</ele>
        <time>2015-06-07T08:25:42Z</time>
      </trkpt>
      <trkpt lat="47.86318" lon="-1.73836">
        <ele>108</ele>
        <time>2015-06-07T08:25:43Z</time>
      </trkpt>
      <trkpt lat="47.86322" lon="-1.7384">
        <ele>109</ele>
        <time>2015-06-07T08:25:44Z</time>
      </trkpt>
      <trkpt lat="47.86326" lon="-1.73844">
        <ele>109</ele>
        <time>2015-06-07T08:25:45Z</time>
      </trkpt>
      <trkpt lat="47.8633" lon="-1.73849">
        <ele>109</ele>
        <time>2015-06-07T08:25:46Z</time>
      </trkpt>
      <trkpt lat="47.86334" lon="-1.73853">
        <ele>109</ele>
        <time>2015-06-07T08:25:47Z</time>
      </trkpt>
      <trkpt lat="47.86339" lon="-1.73858">
        <ele>109</ele>
        <time>2015-06-07T08:25:48Z</time>
      </trkpt>
      <trkpt lat="47.86343" lon="-1.73863">
        <ele>110</ele>
        <time>2015-06-07T08:25:49Z</time>
      </trkpt>
      <trkpt lat="47.86347" lon="-1.73867">
        <ele>110</ele>
        <time>2015-06-07T08:25:50Z</time>
      </trkpt>
      <trkpt lat="47.86351" lon="-1.73872">
        <ele>110</ele>
        <time>2015-06-07T08:25:51Z</time>
      </trkpt>
      <trkpt lat="47.86355" lon="-1.73876">
        <ele>110</ele>
        <time>2015-06-07T08:25:52Z</time>
      </trkpt>
      <trkpt lat="47.86359" lon="-1.7388">
        <ele>110</ele>
        <time>2015-06-07T08:25:53Z</time>
      </trkpt>
      <trkpt lat="47.86362" lon="-1.73884">
        <ele>110</ele>
        <time>2015-06-07T08:25:54Z</time>
      </trkpt>
      <trkpt lat="47.86366" lon="-1.73887">
        <ele>111</ele>
        <time>2015-06-07T08:25:55Z</time>
      </trkpt>
      <trkpt lat="47.8637" lon="-1.73889">
        <ele>111</ele>
        <time>2015-06-07T08:25:56Z</time>
      </trkpt>
      <trkpt lat="47.86374" lon="-1.73889">
        <ele>111</ele>
        <time>2015-06-07T08:25:57Z</time>
      </trkpt>
      <trkpt lat="47.86378" lon="-1.73887">
        <ele>111</ele>
        <time>2015-06-07T08:25:58Z</time>
      </trkpt>
      <trkpt lat="47.86381" lon="-1.73883">
        <ele>112</ele>
        <time>2015-06-07T08:25:59Z</time>
      </trkpt>
      <trkpt lat="47.86384" lon="-1.73877">
        <ele>112</ele>
        <time>2015-06-07T08:26:00Z</time>
      </trkpt>
      <trkpt lat="47.86387" lon="-1.7387">
        <ele>112</ele>
        <time>2015-06-07T08:26:01Z</time>
      </trkpt>
      <trkpt lat="47.86389" lon="-1.73863">
        <ele>112</ele>
        <time>2015-06-07T08:26:02Z</time>
      </trkpt>
      <trkpt lat="47.86392" lon="-1.73855">
        <ele>112</ele>
        <time>2015-06-07T08:26:03Z</time>
      </trkpt>
      <trkpt lat="47.86395" lon="-1.73849">
        <ele>112</ele>
        <time>2015-06-07T08:26:04Z</time>
      </trkpt>
      <trkpt lat="47.86397" lon="-1.73842">
        <ele>113</ele>
        <time>2015-06-07T08:26:05Z</time>
      </trkpt>
      <trkpt lat="47.864" lon="-1.73835">
        <ele>113</ele>
        <time>2015-06-07T08:26:06Z</time>
      </trkpt>
      <trkpt lat="47.86402" lon="-1.73827">
        <ele>113</ele>
        <time>2015-06-07T08:26:07Z</time>
      </trkpt>
      <trkpt lat="47.86405" lon="-1.7382">
        <ele>113</ele>
        <time>2015-06-07T08:26:08Z</time>
      </trkpt>
      <trkpt lat="47.86408" lon="-1.73812">
        <ele>113</ele>
        <time>2015-06-07T08:26:09Z</time>
      </trkpt>
      <trkpt lat="47.86411" lon="-1.73804">
        <ele>113</ele>
        <time>2015-06-07T08:26:10Z</time>
      </trkpt>
      <trkpt lat="47.86414" lon="-1.73796">
        <ele>113</ele>
        <time>2015-06-07T08:26:11Z</time>
      </trkpt>
      <trkpt lat="47.86417" lon="-1.73788">
        <ele>113</ele>
        <time>2015-06-07T08:26:12Z</time>
      </trkpt>
      <trkpt lat="47.86419" lon="-1.7378">
        <ele>113</ele>
        <time>2015-06-07T08:26:13Z</time>
      </trkpt>
      <trkpt lat="47.86422" lon="-1.73772">
        <ele>113</ele>
        <time>2015-06-07T08:26:14Z</time>
      </trkpt>
      <trkpt lat="47.86425" lon="-1.73764">
        <ele>112</ele>
        <time>2015-06-07T08:26:15Z</time>
      </trkpt>
      <trkpt lat="47.86428" lon="-1.73756">
        <ele>112</ele>
        <time>2015-06-07T08:26:16Z</time>
      </trkpt>
      <trkpt lat="47.8643" lon="-1.73747">
        <ele>112</ele>
        <time>2015-06-07T08:26:17Z</time>
      </trkpt>
      <trkpt lat="47.86433" lon="-1.7374">
        <ele>112</ele>
        <time>2015-06-07T08:26:18Z</time>
      </trkpt>
      <trkpt lat="47.86436" lon="-1.73731">
        <ele>112</ele>
        <time>2015-06-07T08:26:19Z</time>
      </trkpt>
      <trkpt lat="47.86439" lon="-1.73723">
        <ele>112</ele>
        <time>2015-06-07T08:26:20Z</time>
      </trkpt>
      <trkpt lat="47.86442" lon="-1.73715">
        <ele>112</ele>
        <time>2015-06-07T08:26:21Z</time>
      </trkpt>
      <trkpt lat="47.86445" lon="-1.73707">
        <ele>112</ele>
        <time>2015-06-07T08:26:22Z</time>
      </trkpt>
      <trkpt lat="47.86447" lon="-1.73698">
        <ele>112</ele>
        <time>2015-06-07T08:26:23Z</time>
      </trkpt>
      <trkpt lat="47.8645" lon="-1.73691">
        <ele>111</ele>
        <time>2015-06-07T08:26:24Z</time>
      </trkpt>
      <trkpt lat="47.86453" lon="-1.73683">
        <ele>111</ele>
        <time>2015-06-07T08:26:25Z</time>
      </trkpt>
      <trkpt lat="47.86455" lon="-1.73675">
        <ele>111</ele>
        <time>2015-06-07T08:26:26Z</time>
      </trkpt>
      <trkpt lat="47.86458" lon="-1.73667">
        <ele>111</ele>
        <time>2015-06-07T08:26:27Z</time>
      </trkpt>
      <trkpt lat="47.86461" lon="-1.7366">
        <ele>111</ele>
        <time>2015-06-07T08:26:28Z</time>
      </trkpt>
      <trkpt lat="47.86463" lon="-1.73652">
        <ele>111</ele>
        <time>2015-06-07T08:26:29Z</time>
      </trkpt>
      <trkpt lat="47.86466" lon="-1.73644">
        <ele>111</ele>
        <time>2015-06-07T08:26:30Z</time>
      </trkpt>
      <trkpt lat="47.86469" lon="-1.73637">
        <ele>111</ele>
        <time>2015-06-07T08:26:31Z</time>
      </trkpt>
      <trkpt lat="47.86472" lon="-1.73629">
        <ele>111</ele>
        <time>2015-06-07T08:26:32Z</time>
      </trkpt>
      <trkpt lat="47.86474" lon="-1.73621">
        <ele>111</ele>
        <time>2015-06-07T08:26:33Z</time>
      </trkpt>
      <trkpt lat="47.86477" lon="-1.73613">
        <ele>111</ele>
        <time>2015-06-07T08:26:34Z</time>
      </trkpt>
      <trkpt lat="47.8648" lon="-1.73604">
        <ele>111</ele>
        <time>2015-06-07T08:26:35Z</time>
      </trkpt>
      <trkpt lat="47.86483" lon="-1.73596">
        <ele>111</ele>
        <time>2015-06-07T08:26:36Z</time>
      </trkpt>
      <trkpt lat="47.86486" lon="-1.73587">
        <ele>110</ele>
        <time>2015-06-07T08:26:37Z</time>
      </trkpt>
      <trkpt lat="47.86489" lon="-1.73579">
        <ele>110</ele>
        <time>2015-06-07T08:26:38Z</time>
      </trkpt>
      <trkpt lat="47.86492" lon="-1.7357">
        <ele>110</ele>
        <time>2015-06-07T08:26:39Z</time>
      </trkpt>
      <trkpt lat="47.86494" lon="-1.73562">
        <ele>110</ele>
        <time>2015-06-07T08:26:40Z</time>
      </trkpt>
      <trkpt lat="47.86497" lon="-1.73553">
        <ele>110</ele>
        <time>2015-06-07T08:26:41Z</time>
      </trkpt>
      <trkpt lat="47.865" lon="-1.73545">
        <ele>109</ele>
        <time>2015-06-07T08:26:42Z</time>
      </trkpt>
      <trkpt lat="47.86503" lon="-1.73537">
        <ele>109</ele>
        <time>2015-06-07T08:26:43Z</time>
      </trkpt>
      <trkpt lat="47.86506" lon="-1.73529">
        <ele>109</ele>
        <time>2015-06-07T08:26:44Z</time>
      </trkpt>
      <trkpt lat="47.86509" lon="-1.73521">
        <ele>109</ele>
        <time>2015-06-07T08:26:45Z</time>
      </trkpt>
      <trkpt lat="47.86511" lon="-1.73514">
        <ele>108</ele>
        <time>2015-06-07T08:26:46Z</time>
      </trkpt>
      <trkpt lat="47.86514" lon="-1.73506">
        <ele>108</ele>
        <time>2015-06-07T08:26:47Z</time>
      </trkpt>
      <trkpt lat="47.86516" lon="-1.73499">
        <ele>108</ele>
        <time>2015-06-07T08:26:48Z</time>
      </trkpt>
      <trkpt lat="47.86519" lon="-1.73493">
        <ele>108</ele>
        <time>2015-06-07T08:26:49Z</time>
      </trkpt>
      <trkpt lat="47.86523" lon="-1.73491">
        <ele>108</ele>
        <time>2015-06-07T08:26:50Z</time>
      </trkpt>
      <trkpt lat="47.86528" lon="-1.73491">
        <ele>108</ele>
        <time>2015-06-07T08:26:51Z</time>
      </trkpt>
      <trkpt lat="47.86531" lon="-1.73494">
        <ele>108</ele>
        <time>2015-06-07T08:26:52Z</time>
      </trkpt>
      <trkpt lat="47.86535" lon="-1.73499">
        <ele>108</ele>
        <time>2015-06-07T08:26:53Z</time>
      </trkpt>
      <trkpt lat="47.86538" lon="-1.73503">
        <ele>108</ele>
        <time>2015-06-07T08:26:54Z</time>
      </trkpt>
      <trkpt lat="47.86542" lon="-1.73507">
        <ele>108</ele>
        <time>2015-06-07T08:26:55Z</time>
      </trkpt>
      <trkpt lat="47.86546" lon="-1.73512">
        <ele>108</ele>
        <time>2015-06-07T08:26:56Z</time>
      </trkpt>
      <trkpt lat="47.8655" lon="-1.73517">
        <ele>109</ele>
        <time>2015-06-07T08:26:57Z</time>
      </trkpt>
      <trkpt lat="47.86553" lon="-1.73522">
        <ele>109</ele>
        <time>2015-06-07T08:26:58Z</time>
      </trkpt>
      <trkpt lat="47.86557" lon="-1.73527">
        <ele>109</ele>
        <time>2015-06-07T08:26:59Z</time>
      </trkpt>
      <trkpt lat="47.86562" lon="-1.73531">
        <ele>109</ele>
        <time>2015-06-07T08:27:00Z</time>
      </trkpt>
      <trkpt lat="47.86566" lon="-1.73537">
        <ele>109</ele>
        <time>2015-06-07T08:27:01Z</time>
      </trkpt>
      <trkpt lat="47.8657" lon="-1.73542">
        <ele>109</ele>
        <time>2015-06-07T08:27:02Z</time>
      </trkpt>
      <trkpt lat="47.86574" lon="-1.73547">
        <ele>110</ele>
        <time>2015-06-07T08:27:03Z</time>
      </trkpt>
      <trkpt lat="47.86577" lon="-1.73552">
        <ele>110</ele>
        <time>2015-06-07T08:27:04Z</time>
      </trkpt>
      <trkpt lat="47.86581" lon="-1.73557">
        <ele>110</ele>
        <time>2015-06-07T08:27:05Z</time>
      </trkpt>
      <trkpt lat="47.86585" lon="-1.73562">
        <ele>110</ele>
        <time>2015-06-07T08:27:06Z</time>
      </trkpt>
      <trkpt lat="47.86589" lon="-1.73567">
        <ele>110</ele>
        <time>2015-06-07T08:27:07Z</time>
      </trkpt>
      <trkpt lat="47.86593" lon="-1.73573">
        <ele>110</ele>
        <time>2015-06-07T08:27:08Z</time>
      </trkpt>
      <trkpt lat="47.86598" lon="-1.73578">
        <ele>110</ele>
        <time>2015-06-07T08:27:09Z</time>
      </trkpt>
      <trkpt lat="47.86602" lon="-1.73584">
        <ele>111</ele>
        <time>2015-06-07T08:27:10Z</time>
      </trkpt>
      <trkpt lat="47.86606" lon="-1.73589">
        <ele>111</ele>
        <time>2015-06-07T08:27:11Z</time>
      </trkpt>
      <trkpt lat="47.8661" lon="-1.73595">
        <ele>111</ele>
        <time>2015-06-07T08:27:12Z</time>
      </trkpt>
      <trkpt lat="47.86615" lon="-1.736">
        <ele>111</ele>
        <time>2015-06-07T08:27:13Z</time>
      </trkpt>
      <trkpt lat="47.86619" lon="-1.73605">
        <ele>111</ele>
        <time>2015-06-07T08:27:14Z</time>
      </trkpt>
      <trkpt lat="47.86623" lon="-1.7361">
        <ele>111</ele>
        <time>2015-06-07T08:27:15Z</time>
      </trkpt>
      <trkpt lat="47.86627" lon="-1.73616">
        <ele>111</ele>
        <time>2015-06-07T08:27:16Z</time>
      </trkpt>
      <trkpt lat="47.86631" lon="-1.7362">
        <ele>111</ele>
        <time>2015-06-07T08:27:17Z</time>
      </trkpt>
      <trkpt lat="47.86635" lon="-1.73625">
        <ele>111</ele>
        <time>2015-06-07T08:27:18Z</time>
      </trkpt>
      <trkpt lat="47.8664" lon="-1.73631">
        <ele>111</ele>
        <time>2015-06-07T08:27:19Z</time>
      </trkpt>
      <trkpt lat="47.86645" lon="-1.73636">
        <ele>112</ele>
        <time>2015-06-07T08:27:20Z</time>
      </trkpt>
      <trkpt lat="47.86649" lon="-1.73642">
        <ele>112</ele>
        <time>2015-06-07T08:27:21Z</time>
      </trkpt>
      <trkpt lat="47.86653" lon="-1.73648">
        <ele>112</ele>
        <time>2015-06-07T08:27:22Z</time>
      </trkpt>
      <trkpt lat="47.86658" lon="-1.73653">
        <ele>112</ele>
        <time>2015-06-07T08:27:23Z</time>
      </trkpt>
      <trkpt lat="47.86662" lon="-1.73658">
        <ele>112</ele>
        <time>2015-06-07T08:27:24Z</time>
      </trkpt>
      <trkpt lat="47.86666" lon="-1.73663">
        <ele>112</ele>
        <time>2015-06-07T08:27:25Z</time>
      </trkpt>
      <trkpt lat="47.86671" lon="-1.73669">
        <ele>112</ele>
        <time>2015-06-07T08:27:26Z</time>
      </trkpt>
      <trkpt lat="47.86674" lon="-1.73674">
        <ele>112</ele>
        <time>2015-06-07T08:27:27Z</time>
      </trkpt>
      <trkpt lat="47.86679" lon="-1.7368">
        <ele>112</ele>
        <time>2015-06-07T08:27:28Z</time>
      </trkpt>
      <trkpt lat="47.86683" lon="-1.73685">
        <ele>112</ele>
        <time>2015-06-07T08:27:29Z</time>
      </trkpt>
      <trkpt lat="47.86688" lon="-1.7369">
        <ele>112</ele>
        <time>2015-06-07T08:27:30Z</time>
      </trkpt>
      <trkpt lat="47.86692" lon="-1.73695">
        <ele>112</ele>
        <time>2015-06-07T08:27:31Z</time>
      </trkpt>
      <trkpt lat="47.86697" lon="-1.737">
        <ele>112</ele>
        <time>2015-06-07T08:27:32Z</time>
      </trkpt>
      <trkpt lat="47.86702" lon="-1.73705">
        <ele>112</ele>
        <time>2015-06-07T08:27:33Z</time>
      </trkpt>
      <trkpt lat="47.86706" lon="-1.73709">
        <ele>112</ele>
        <time>2015-06-07T08:27:34Z</time>
      </trkpt>
      <trkpt lat="47.8671" lon="-1.73713">
        <ele>112</ele>
        <time>2015-06-07T08:27:35Z</time>
      </trkpt>
      <trkpt lat="47.86714" lon="-1.73717">
        <ele>112</ele>
        <time>2015-06-07T08:27:36Z</time>
      </trkpt>
      <trkpt lat="47.86718" lon="-1.73721">
        <ele>112</ele>
        <time>2015-06-07T08:27:37Z</time>
      </trkpt>
      <trkpt lat="47.86723" lon="-1.73724">
        <ele>112</ele>
        <time>2015-06-07T08:27:38Z</time>
      </trkpt>
      <trkpt lat="47.86728" lon="-1.73727">
        <ele>112</ele>
        <time>2015-06-07T08:27:39Z</time>
      </trkpt>
      <trkpt lat="47.86732" lon="-1.7373">
        <ele>112</ele>
        <time>2015-06-07T08:27:40Z</time>
      </trkpt>
      <trkpt lat="47.86737" lon="-1.73733">
        <ele>112</ele>
        <time>2015-06-07T08:27:41Z</time>
      </trkpt>
      <trkpt lat="47.86741" lon="-1.73736">
        <ele>112</ele>
        <time>2015-06-07T08:27:42Z</time>
      </trkpt>
      <trkpt lat="47.86747" lon="-1.7374">
        <ele>112</ele>
        <time>2015-06-07T08:27:43Z</time>
      </trkpt>
      <trkpt lat="47.86752" lon="-1.73744">
        <ele>112</ele>
        <time>2015-06-07T08:27:44Z</time>
      </trkpt>
      <trkpt lat="47.86757" lon="-1.73747">
        <ele>112</ele>
        <time>2015-06-07T08:27:45Z</time>
      </trkpt>
      <trkpt lat="47.86763" lon="-1.73751">
        <ele>112</ele>
        <time>2015-06-07T08:27:46Z</time>
      </trkpt>
      <trkpt lat="47.86768" lon="-1.73756">
        <ele>112</ele>
        <time>2015-06-07T08:27:47Z</time>
      </trkpt>
      <trkpt lat="47.86773" lon="-1.7376">
        <ele>112</ele>
        <time>2015-06-07T08:27:48Z</time>
      </trkpt>
      <trkpt lat="47.86779" lon="-1.73764">
        <ele>113</ele>
        <time>2015-06-07T08:27:49Z</time>
      </trkpt>
      <trkpt lat="47.86784" lon="-1.73768">
        <ele>113</ele>
        <time>2015-06-07T08:27:50Z</time>
      </trkpt>
      <trkpt lat="47.86789" lon="-1.73772">
        <ele>113</ele>
        <time>2015-06-07T08:27:51Z</time>
      </trkpt>
      <trkpt lat="47.86794" lon="-1.73776">
        <ele>113</ele>
        <time>2015-06-07T08:27:52Z</time>
      </trkpt>
      <trkpt lat="47.868" lon="-1.73781">
        <ele>113</ele>
        <time>2015-06-07T08:27:53Z</time>
      </trkpt>
      <trkpt lat="47.86805" lon="-1.73785">
        <ele>113</ele>
        <time>2015-06-07T08:27:54Z</time>
      </trkpt>
      <trkpt lat="47.86811" lon="-1.7379">
        <ele>113</ele>
        <time>2015-06-07T08:27:55Z</time>
      </trkpt>
      <trkpt lat="47.86817" lon="-1.73794">
        <ele>113</ele>
        <time>2015-06-07T08:27:56Z</time>
      </trkpt>
      <trkpt lat="47.86822" lon="-1.73799">
        <ele>113</ele>
        <time>2015-06-07T08:27:57Z</time>
      </trkpt>
      <trkpt lat="47.86827" lon="-1.73803">
        <ele>113</ele>
        <time>2015-06-07T08:27:58Z</time>
      </trkpt>
      <trkpt lat="47.86832" lon="-1.73807">
        <ele>113</ele>
        <time>2015-06-07T08:27:59Z</time>
      </trkpt>
      <trkpt lat="47.86837" lon="-1.73812">
        <ele>113</ele>
        <time>2015-06-07T08:28:00Z</time>
      </trkpt>
      <trkpt lat="47.86842" lon="-1.73816">
        <ele>113</ele>
        <time>2015-06-07T08:28:01Z</time>
      </trkpt>
      <trkpt lat="47.86848" lon="-1.73819">
        <ele>113</ele>
        <time>2015-06-07T08:28:02Z</time>
      </trkpt>
      <trkpt lat="47.86855" lon="-1.73823">
        <ele>113</ele>
        <time>2015-06-07T08:28:03Z</time>
      </trkpt>
      <trkpt lat="47.86861" lon="-1.73827">
        <ele>113</ele>
        <time>2015-06-07T08:28:04Z</time>
      </trkpt>
      <trkpt lat="47.86867" lon="-1.73831">
        <ele>113</ele>
        <time>2015-06-07T08:28:05Z</time>
      </trkpt>
      <trkpt lat="47.86873" lon="-1.73835">
        <ele>113</ele>
        <time>2015-06-07T08:28:06Z</time>
      </trkpt>
      <trkpt lat="47.86879" lon="-1.73838">
        <ele>113</ele>
        <time>2015-06-07T08:28:07Z</time>
      </trkpt>
      <trkpt lat="47.86885" lon="-1.73841">
        <ele>113</ele>
        <time>2015-06-07T08:28:08Z</time>
      </trkpt>
      <trkpt lat="47.86891" lon="-1.73845">
        <ele>113</ele>
        <time>2015-06-07T08:28:09Z</time>
      </trkpt>
      <trkpt lat="47.86898" lon="-1.73848">
        <ele>113</ele>
        <time>2015-06-07T08:28:10Z</time>
      </trkpt>
      <trkpt lat="47.86904" lon="-1.73851">
        <ele>113</ele>
        <time>2015-06-07T08:28:11Z</time>
      </trkpt>
      <trkpt lat="47.8691" lon="-1.73853">
        <ele>113</ele>
        <time>2015-06-07T08:28:12Z</time>
      </trkpt>
      <trkpt lat="47.86916" lon="-1.73855">
        <ele>113</ele>
        <time>2015-06-07T08:28:13Z</time>
      </trkpt>
      <trkpt lat="47.86922" lon="-1.73857">
        <ele>114</ele>
        <time>2015-06-07T08:28:14Z</time>
      </trkpt>
      <trkpt lat="47.86928" lon="-1.73859">
        <ele>113</ele>
        <time>2015-06-07T08:28:15Z</time>
      </trkpt>
      <trkpt lat="47.86934" lon="-1.73862">
        <ele>113</ele>
        <time>2015-06-07T08:28:16Z</time>
      </trkpt>
      <trkpt lat="47.86939" lon="-1.73867">
        <ele>113</ele>
        <time>2015-06-07T08:28:17Z</time>
      </trkpt>
      <trkpt lat="47.86942" lon="-1.73874">
        <ele>113</ele>
        <time>2015-06-07T08:28:18Z</time>
      </trkpt>
      <trkpt lat="47.86943" lon="-1.73882">
        <ele>113</ele>
        <time>2015-06-07T08:28:19Z</time>
      </trkpt>
      <trkpt lat="47.86943" lon="-1.7389">
        <ele>113</ele>
        <time>2015-06-07T08:28:20Z</time>
      </trkpt>
      <trkpt lat="47.86943" lon="-1.73899">
        <ele>112</ele>
        <time>2015-06-07T08:28:21Z</time>
      </trkpt>
      <trkpt lat="47.86942" lon="-1.73907">
        <ele>112</ele>
        <time>2015-06-07T08:28:22Z</time>
      </trkpt>
      <trkpt lat="47.86942" lon="-1.73916">
        <ele>112</ele>
        <time>2015-06-07T08:28:23Z</time>
      </trkpt>
      <trkpt lat="47.86942" lon="-1.73925">
        <ele>112</ele>
        <time>2015-06-07T08:28:24Z</time>
      </trkpt>
      <trkpt lat="47.86942" lon="-1.73934">
        <ele>112</ele>
        <time>2015-06-07T08:28:25Z</time>
      </trkpt>
      <trkpt lat="47.86942" lon="-1.73944">
        <ele>111</ele>
        <time>2015-06-07T08:28:26Z</time>
      </trkpt>
      <trkpt lat="47.86942" lon="-1.73953">
        <ele>111</ele>
        <time>2015-06-07T08:28:27Z</time>
      </trkpt>
      <trkpt lat="47.86942" lon="-1.73962">
        <ele>111</ele>
        <time>2015-06-07T08:28:28Z</time>
      </trkpt>
      <trkpt lat="47.86942" lon="-1.73972">
        <ele>111</ele>
        <time>2015-06-07T08:28:29Z</time>
      </trkpt>
      <trkpt lat="47.86942" lon="-1.73981">
        <ele>111</ele>
        <time>2015-06-07T08:28:30Z</time>
      </trkpt>
      <trkpt lat="47.86942" lon="-1.7399">
        <ele>111</ele>
        <time>2015-06-07T08:28:31Z</time>
      </trkpt>
      <trkpt lat="47.86941" lon="-1.74">
        <ele>110</ele>
        <time>2015-06-07T08:28:32Z</time>
      </trkpt>
      <trkpt lat="47.8694" lon="-1.74009">
        <ele>110</ele>
        <time>2015-06-07T08:28:33Z</time>
      </trkpt>
      <trkpt lat="47.8694" lon="-1.74017">
        <ele>110</ele>
        <time>2015-06-07T08:28:34Z</time>
      </trkpt>
      <trkpt lat="47.86939" lon="-1.74026">
        <ele>111</ele>
        <time>2015-06-07T08:28:35Z</time>
      </trkpt>
      <trkpt lat="47.86938" lon="-1.74035">
        <ele>111</ele>
        <time>2015-06-07T08:28:36Z</time>
      </trkpt>
      <trkpt lat="47.86937" lon="-1.74043">
        <ele>111</ele>
        <time>2015-06-07T08:28:37Z</time>
      </trkpt>
      <trkpt lat="47.86936" lon="-1.74052">
        <ele>111</ele>
        <time>2015-06-07T08:28:38Z</time>
      </trkpt>
      <trkpt lat="47.86935" lon="-1.74062">
        <ele>110</ele>
        <time>2015-06-07T08:28:39Z</time>
      </trkpt>
      <trkpt lat="47.86934" lon="-1.74071">
        <ele>110</ele>
        <time>2015-06-07T08:28:40Z</time>
      </trkpt>
      <trkpt lat="47.86934" lon="-1.7408">
        <ele>110</ele>
        <time>2015-06-07T08:28:41Z</time>
      </trkpt>
      <trkpt lat="47.86933" lon="-1.74089">
        <ele>110</ele>
        <time>2015-06-07T08:28:42Z</time>
      </trkpt>
      <trkpt lat="47.86933" lon="-1.74098">
        <ele>110</ele>
        <time>2015-06-07T08:28:43Z</time>
      </trkpt>
      <trkpt lat="47.86933" lon="-1.74107">
        <ele>110</ele>
        <time>2015-06-07T08:28:44Z</time>
      </trkpt>
      <trkpt lat="47.86932" lon="-1.74116">
        <ele>110</ele>
        <time>2015-06-07T08:28:45Z</time>
      </trkpt>
      <trkpt lat="47.86932" lon="-1.74126">
        <ele>110</ele>
        <time>2015-06-07T08:28:46Z</time>
      </trkpt>
      <trkpt lat="47.86932" lon="-1.74135">
        <ele>110</ele>
        <time>2015-06-07T08:28:47Z</time>
      </trkpt>
      <trkpt lat="47.86932" lon="-1.74144">
        <ele>111</ele>
        <time>2015-06-07T08:28:48Z</time>
      </trkpt>
      <trkpt lat="47.86932" lon="-1.74153">
        <ele>111</ele>
        <time>2015-06-07T08:28:49Z</time>
      </trkpt>
      <trkpt lat="47.86932" lon="-1.74163">
        <ele>111</ele>
        <time>2015-06-07T08:28:50Z</time>
      </trkpt>
      <trkpt lat="47.86932" lon="-1.74172">
        <ele>110</ele>
        <time>2015-06-07T08:28:51Z</time>
      </trkpt>
      <trkpt lat="47.86933" lon="-1.74182">
        <ele>110</ele>
        <time>2015-06-07T08:28:52Z</time>
      </trkpt>
      <trkpt lat="47.86933" lon="-1.74191">
        <ele>110</ele>
        <time>2015-06-07T08:28:53Z</time>
      </trkpt>
      <trkpt lat="47.86934" lon="-1.74201">
        <ele>110</ele>
        <time>2015-06-07T08:28:54Z</time>
      </trkpt>
      <trkpt lat="47.86934" lon="-1.74211">
        <ele>110</ele>
        <time>2015-06-07T08:28:55Z</time>
      </trkpt>
      <trkpt lat="47.86935" lon="-1.7422">
        <ele>110</ele>
        <time>2015-06-07T08:28:56Z</time>
      </trkpt>
      <trkpt lat="47.86936" lon="-1.7423">
        <ele>110</ele>
        <time>2015-06-07T08:28:57Z</time>
      </trkpt>
      <trkpt lat="47.86937" lon="-1.7424">
        <ele>110</ele>
        <time>2015-06-07T08:28:58Z</time>
      </trkpt>
      <trkpt lat="47.86938" lon="-1.74249">
        <ele>109</ele>
        <time>2015-06-07T08:28:59Z</time>
      </trkpt>
      <trkpt lat="47.86938" lon="-1.74259">
        <ele>109</ele>
        <time>2015-06-07T08:29:00Z</time>
      </trkpt>
      <trkpt lat="47.86939" lon="-1.74269">
        <ele>109</ele>
        <time>2015-06-07T08:29:01Z</time>
      </trkpt>
      <trkpt lat="47.86939" lon="-1.74279">
        <ele>109</ele>
        <time>2015-06-07T08:29:02Z</time>
      </trkpt>
      <trkpt lat="47.86939" lon="-1.7429">
        <ele>108</ele>
        <time>2015-06-07T08:29:03Z</time>
      </trkpt>
      <trkpt lat="47.86939" lon="-1.743">
        <ele>108</ele>
        <time>2015-06-07T08:29:04Z</time>
      </trkpt>
      <trkpt lat="47.86938" lon="-1.7431">
        <ele>108</ele>
        <time>2015-06-07T08:29:05Z</time>
      </trkpt>
      <trkpt lat="47.86937" lon="-1.74321">
        <ele>108</ele>
        <time>2015-06-07T08:29:06Z</time>
      </trkpt>
      <trkpt lat="47.86937" lon="-1.7433">
        <ele>108</ele>
        <time>2015-06-07T08:29:07Z</time>
      </trkpt>
      <trkpt lat="47.86936" lon="-1.7434">
        <ele>107</ele>
        <time>2015-06-07T08:29:08Z</time>
      </trkpt>
      <trkpt lat="47.86936" lon="-1.7435">
        <ele>107</ele>
        <time>2015-06-07T08:29:09Z</time>
      </trkpt>
      <trkpt lat="47.86935" lon="-1.74359">
        <ele>107</ele>
        <time>2015-06-07T08:29:10Z</time>
      </trkpt>
      <trkpt lat="47.86935" lon="-1.74368">
        <ele>107</ele>
        <time>2015-06-07T08:29:11Z</time>
      </trkpt>
      <trkpt lat="47.86934" lon="-1.74377">
        <ele>107</ele>
        <time>2015-06-07T08:29:12Z</time>
      </trkpt>
      <trkpt lat="47.86934" lon="-1.74387">
        <ele>107</ele>
        <time>2015-06-07T08:29:13Z</time>
      </trkpt>
      <trkpt lat="47.86933" lon="-1.74396">
        <ele>106</ele>
        <time>2015-06-07T08:29:14Z</time>
      </trkpt>
      <trkpt lat="47.86932" lon="-1.74405">
        <ele>106</ele>
        <time>2015-06-07T08:29:15Z</time>
      </trkpt>
      <trkpt lat="47.86931" lon="-1.74415">
        <ele>106</ele>
        <time>2015-06-07T08:29:16Z</time>
      </trkpt>
      <trkpt lat="47.86931" lon="-1.74424">
        <ele>106</ele>
        <time>2015-06-07T08:29:17Z</time>
      </trkpt>
      <trkpt lat="47.8693" lon="-1.74433">
        <ele>106</ele>
        <time>2015-06-07T08:29:18Z</time>
      </trkpt>
      <trkpt lat="47.8693" lon="-1.74443">
        <ele>106</ele>
        <time>2015-06-07T08:29:19Z</time>
      </trkpt>
      <trkpt lat="47.86929" lon="-1.74453">
        <ele>105</ele>
        <time>2015-06-07T08:29:20Z</time>
      </trkpt>
      <trkpt lat="47.86929" lon="-1.74462">
        <ele>105</ele>
        <time>2015-06-07T08:29:21Z</time>
      </trkpt>
      <trkpt lat="47.86928" lon="-1.74472">
        <ele>105</ele>
        <time>2015-06-07T08:29:22Z</time>
      </trkpt>
      <trkpt lat="47.86928" lon="-1.74481">
        <ele>104</ele>
        <time>2015-06-07T08:29:23Z</time>
      </trkpt>
      <trkpt lat="47.86928" lon="-1.7449">
        <ele>104</ele>
        <time>2015-06-07T08:29:24Z</time>
      </trkpt>
      <trkpt lat="47.86928" lon="-1.74497">
        <ele>104</ele>
        <time>2015-06-07T08:29:25Z</time>
      </trkpt>
      <trkpt lat="47.86928" lon="-1.74503">
        <ele>103</ele>
        <time>2015-06-07T08:29:26Z</time>
      </trkpt>
      <trkpt lat="47.86928" lon="-1.74508">
        <ele>103</ele>
        <time>2015-06-07T08:29:27Z</time>
      </trkpt>
      <trkpt lat="47.86928" lon="-1.74512">
        <ele>103</ele>
        <time>2015-06-07T08:29:28Z</time>
      </trkpt>
      <trkpt lat="47.86929" lon="-1.74515">
        <ele>103</ele>
        <time>2015-06-07T08:29:29Z</time>
      </trkpt>
      <trkpt lat="47.86929" lon="-1.74518">
        <ele>103</ele>
        <time>2015-06-07T08:29:30Z</time>
      </trkpt>
      <trkpt lat="47.86929" lon="-1.7452">
        <ele>102</ele>
        <time>2015-06-07T08:29:31Z</time>
      </trkpt>
      <trkpt lat="47.8693" lon="-1.74522">
        <ele>102</ele>
        <time>2015-06-07T08:29:32Z</time>
      </trkpt>
      <trkpt lat="47.8693" lon="-1.74524">
        <ele>102</ele>
        <time>2015-06-07T08:29:33Z</time>
      </trkpt>
      <trkpt lat="47.8693" lon="-1.74526">
        <ele>102</ele>
        <time>2015-06-07T08:29:34Z</time>
      </trkpt>
      <trkpt lat="47.86931" lon="-1.74529">
        <ele>102</ele>
        <time>2015-06-07T08:29:35Z</time>
      </trkpt>
      <trkpt lat="47.86931" lon="-1.74533">
        <ele>102</ele>
        <time>2015-06-07T08:29:36Z</time>
      </trkpt>
      <trkpt lat="47.8693" lon="-1.74538">
        <ele>102</ele>
        <time>2015-06-07T08:29:37Z</time>
      </trkpt>
      <trkpt lat="47.8693" lon="-1.74544">
        <ele>102</ele>
        <time>2015-06-07T08:29:38Z</time>
      </trkpt>
      <trkpt lat="47.86928" lon="-1.74549">
        <ele>102</ele>
        <time>2015-06-07T08:29:39Z</time>
      </trkpt>
      <trkpt lat="47.86928" lon="-1.74555">
        <ele>102</ele>
        <time>2015-06-07T08:29:40Z</time>
      </trkpt>
      <trkpt lat="47.86927" lon="-1.7456">
        <ele>102</ele>
        <time>2015-06-07T08:29:41Z</time>
      </trkpt>
      <trkpt lat="47.86925" lon="-1.74566">
        <ele>102</ele>
        <time>2015-06-07T08:29:42Z</time>
      </trkpt>
      <trkpt lat="47.86923" lon="-1.7457">
        <ele>102</ele>
        <time>2015-06-07T08:29:43Z</time>
      </trkpt>
      <trkpt lat="47.8692" lon="-1.74574">
        <ele>102</ele>
        <time>2015-06-07T08:29:44Z</time>
      </trkpt>
      <trkpt lat="47.86919" lon="-1.74579">
        <ele>102</ele>
        <time>2015-06-07T08:29:45Z</time>
      </trkpt>
      <trkpt lat="47.86918" lon="-1.74582">
        <ele>102</ele>
        <time>2015-06-07T08:29:46Z</time>
      </trkpt>
      <trkpt lat="47.86917" lon="-1.74584">
        <ele>102</ele>
        <time>2015-06-07T08:29:47Z</time>
      </trkpt>
      <trkpt lat="47.86916" lon="-1.74585">
        <ele>103</ele>
        <time>2015-06-07T08:29:48Z</time>
      </trkpt>
      <trkpt lat="47.86915" lon="-1.74587">
        <ele>103</ele>
        <time>2015-06-07T08:29:49Z</time>
      </trkpt>
      <trkpt lat="47.86914" lon="-1.74587">
        <ele>103</ele>
        <time>2015-06-07T08:29:50Z</time>
      </trkpt>
      <trkpt lat="47.86914" lon="-1.74588">
        <ele>103</ele>
        <time>2015-06-07T08:29:51Z</time>
      </trkpt>
      <trkpt lat="47.86914" lon="-1.74588">
        <ele>103</ele>
        <time>2015-06-07T08:29:52Z</time>
      </trkpt>
      <trkpt lat="47.86914" lon="-1.74588">
        <ele>103</ele>
        <time>2015-06-07T08:29:53Z</time>
      </trkpt>
      <trkpt lat="47.86914" lon="-1.74588">
        <ele>103</ele>
        <time>2015-06-07T08:29:54Z</time>
      </trkpt>
      <trkpt lat="47.86914" lon="-1.74588">
        <ele>103</ele>
        <time>2015-06-07T08:29:55Z</time>
      </trkpt>
      <trkpt lat="47.86913" lon="-1.74589">
        <ele>103</ele>
        <time>2015-06-07T08:29:56Z</time>
      </trkpt>
      <trkpt lat="47.86911" lon="-1.74598">
        <ele>108</ele>
        <time>2015-06-07T08:29:57Z</time>
      </trkpt>
      <trkpt lat="47.8691" lon="-1.74602">
        <ele>108</ele>
        <time>2015-06-07T08:29:58Z</time>
      </trkpt>
      <trkpt lat="47.86908" lon="-1.74606">
        <ele>108</ele>
        <time>2015-06-07T08:29:59Z</time>
      </trkpt>
      <trkpt lat="47.86907" lon="-1.7461">
        <ele>108</ele>
        <time>2015-06-07T08:30:00Z</time>
      </trkpt>
      <trkpt lat="47.86905" lon="-1.74614">
        <ele>108</ele>
        <time>2015-06-07T08:30:01Z</time>
      </trkpt>
      <trkpt lat="47.86904" lon="-1.74619">
        <ele>107</ele>
        <time>2015-06-07T08:30:02Z</time>
      </trkpt>
      <trkpt lat="47.86902" lon="-1.74623">
        <ele>107</ele>
        <time>2015-06-07T08:30:03Z</time>
      </trkpt>
      <trkpt lat="47.86901" lon="-1.74628">
        <ele>107</ele>
        <time>2015-06-07T08:30:04Z</time>
      </trkpt>
      <trkpt lat="47.86899" lon="-1.74633">
        <ele>107</ele>
        <time>2015-06-07T08:30:05Z</time>
      </trkpt>
      <trkpt lat="47.86898" lon="-1.74638">
        <ele>107</ele>
        <time>2015-06-07T08:30:06Z</time>
      </trkpt>
      <trkpt lat="47.86896" lon="-1.74642">
        <ele>107</ele>
        <time>2015-06-07T08:30:07Z</time>
      </trkpt>
      <trkpt lat="47.86894" lon="-1.74647">
        <ele>106</ele>
        <time>2015-06-07T08:30:08Z</time>
      </trkpt>
      <trkpt lat="47.86893" lon="-1.74653">
        <ele>106</ele>
        <time>2015-06-07T08:30:09Z</time>
      </trkpt>
      <trkpt lat="47.86892" lon="-1.74657">
        <ele>106</ele>
        <time>2015-06-07T08:30:10Z</time>
      </trkpt>
      <trkpt lat="47.86891" lon="-1.74663">
        <ele>106</ele>
        <time>2015-06-07T08:30:11Z</time>
      </trkpt>
      <trkpt lat="47.86891" lon="-1.74667">
        <ele>106</ele>
        <time>2015-06-07T08:30:12Z</time>
      </trkpt>
      <trkpt lat="47.8689" lon="-1.74671">
        <ele>106</ele>
        <time>2015-06-07T08:30:13Z</time>
      </trkpt>
      <trkpt lat="47.86891" lon="-1.74674">
        <ele>106</ele>
        <time>2015-06-07T08:30:14Z</time>
      </trkpt>
      <trkpt lat="47.86892" lon="-1.74677">
        <ele>106</ele>
        <time>2015-06-07T08:30:15Z</time>
      </trkpt>
      <trkpt lat="47.86895" lon="-1.74682">
        <ele>106</ele>
        <time>2015-06-07T08:30:16Z</time>
      </trkpt>
      <trkpt lat="47.86897" lon="-1.74687">
        <ele>105</ele>
        <time>2015-06-07T08:30:17Z</time>
      </trkpt>
      <trkpt lat="47.86899" lon="-1.74692">
        <ele>105</ele>
        <time>2015-06-07T08:30:18Z</time>
      </trkpt>
      <trkpt lat="47.86902" lon="-1.74698">
        <ele>105</ele>
        <time>2015-06-07T08:30:19Z</time>
      </trkpt>
      <trkpt lat="47.86904" lon="-1.74702">
        <ele>105</ele>
        <time>2015-06-07T08:30:20Z</time>
      </trkpt>
      <trkpt lat="47.86906" lon="-1.74705">
        <ele>105</ele>
        <time>2015-06-07T08:30:21Z</time>
      </trkpt>
      <trkpt lat="47.86907" lon="-1.74708">
        <ele>105</ele>
        <time>2015-06-07T08:30:22Z</time>
      </trkpt>
      <trkpt lat="47.86907" lon="-1.74709">
        <ele>105</ele>
        <time>2015-06-07T08:30:23Z</time>
      </trkpt>
      <trkpt lat="47.86908" lon="-1.7471">
        <ele>105</ele>
        <time>2015-06-07T08:30:24Z</time>
      </trkpt>
      <trkpt lat="47.86908" lon="-1.74711">
        <ele>105</ele>
        <time>2015-06-07T08:30:25Z</time>
      </trkpt>
      <trkpt lat="47.86908" lon="-1.74712">
        <ele>105</ele>
        <time>2015-06-07T08:30:26Z</time>
      </trkpt>
      <trkpt lat="47.86909" lon="-1.74713">
        <ele>105</ele>
        <time>2015-06-07T08:30:27Z</time>
      </trkpt>
      <trkpt lat="47.86909" lon="-1.74714">
        <ele>105</ele>
        <time>2015-06-07T08:30:28Z</time>
      </trkpt>
      <trkpt lat="47.86909" lon="-1.74715">
        <ele>104</ele>
        <time>2015-06-07T08:30:29Z</time>
      </trkpt>
      <trkpt lat="47.8691" lon="-1.74715">
        <ele>104</ele>
        <time>2015-06-07T08:30:30Z</time>
      </trkpt>
      <trkpt lat="47.8691" lon="-1.74716">
        <ele>104</ele>
        <time>2015-06-07T08:30:31Z</time>
      </trkpt>
      <trkpt lat="47.8691" lon="-1.74717">
        <ele>104</ele>
        <time>2015-06-07T08:30:32Z</time>
      </trkpt>
      <trkpt lat="47.8691" lon="-1.74717">
        <ele>104</ele>
        <time>2015-06-07T08:30:33Z</time>
      </trkpt>
      <trkpt lat="47.86911" lon="-1.74718">
        <ele>104</ele>
        <time>2015-06-07T08:30:34Z</time>
      </trkpt>
      <trkpt lat="47.86911" lon="-1.74718">
        <ele>104</ele>
        <time>2015-06-07T08:30:35Z</time>
      </trkpt>
      <trkpt lat="47.86911" lon="-1.74719">
        <ele>104</ele>
        <time>2015-06-07T08:30:36Z</time>
      </trkpt>
      <trkpt lat="47.86916" lon="-1.74728">
        <ele>104</ele>
        <time>2015-06-07T08:30:37Z</time>
      </trkpt>
      <trkpt lat="47.86918" lon="-1.74729">
        <ele>104</ele>
        <time>2015-06-07T08:30:38Z</time>
      </trkpt>
      <trkpt lat="47.8692" lon="-1.74729">
        <ele>104</ele>
        <time>2015-06-07T08:30:39Z</time>
      </trkpt>
      <trkpt lat="47.86922" lon="-1.7473">
        <ele>104</ele>
        <time>2015-06-07T08:30:40Z</time>
      </trkpt>
      <trkpt lat="47.86923" lon="-1.74731">
        <ele>104</ele>
        <time>2015-06-07T08:30:41Z</time>
      </trkpt>
      <trkpt lat="47.86925" lon="-1.74731">
        <ele>104</ele>
        <time>2015-06-07T08:30:42Z</time>
      </trkpt>
      <trkpt lat="47.86927" lon="-1.7473">
        <ele>104</ele>
        <time>2015-06-07T08:30:43Z</time>
      </trkpt>
      <trkpt lat="47.8693" lon="-1.74728">
        <ele>104</ele>
        <time>2015-06-07T08:30:44Z</time>
      </trkpt>
      <trkpt lat="47.86933" lon="-1.74726">
        <ele>104</ele>
        <time>2015-06-07T08:30:45Z</time>
      </trkpt>
      <trkpt lat="47.86935" lon="-1.74725">
        <ele>104</ele>
        <time>2015-06-07T08:30:46Z</time>
      </trkpt>
      <trkpt lat="47.86937" lon="-1.74724">
        <ele>104</ele>
        <time>2015-06-07T08:30:47Z</time>
      </trkpt>
      <trkpt lat="47.8694" lon="-1.74724">
        <ele>104</ele>
        <time>2015-06-07T08:30:48Z</time>
      </trkpt>
      <trkpt lat="47.86942" lon="-1.74724">
        <ele>104</ele>
        <time>2015-06-07T08:30:49Z</time>
      </trkpt>
      <trkpt lat="47.86944" lon="-1.74726">
        <ele>104</ele>
        <time>2015-06-07T08:30:50Z</time>
      </trkpt>
      <trkpt lat="47.86946" lon="-1.74728">
        <ele>103</ele>
        <time>2015-06-07T08:30:51Z</time>
      </trkpt>
      <trkpt lat="47.86947" lon="-1.74732">
        <ele>103</ele>
        <time>2015-06-07T08:30:52Z</time>
      </trkpt>
      <trkpt lat="47.86947" lon="-1.74735">
        <ele>103</ele>
        <time>2015-06-07T08:30:53Z</time>
      </trkpt>
      <trkpt lat="47.86948" lon="-1.74738">
        <ele>103</ele>
        <time>2015-06-07T08:30:54Z</time>
      </trkpt>
      <trkpt lat="47.86949" lon="-1.74742">
        <ele>103</ele>
        <time>2015-06-07T08:30:55Z</time>
      </trkpt>
      <trkpt lat="47.86949" lon="-1.74745">
        <ele>102</ele>
        <time>2015-06-07T08:30:56Z</time>
      </trkpt>
      <trkpt lat="47.86951" lon="-1.74747">
        <ele>102</ele>
        <time>2015-06-07T08:30:57Z</time>
      </trkpt>
      <trkpt lat="47.86952" lon="-1.74748">
        <ele>102</ele>
        <time>2015-06-07T08:30:58Z</time>
      </trkpt>
      <trkpt lat="47.86954" lon="-1.7475">
        <ele>102</ele>
        <time>2015-06-07T08:30:59Z</time>
      </trkpt>
      <trkpt lat="47.86956" lon="-1.74752">
        <ele>102</ele>
        <time>2015-06-07T08:31:00Z</time>
      </trkpt>
      <trkpt lat="47.86957" lon="-1.74755">
        <ele>102</ele>
        <time>2015-06-07T08:31:01Z</time>
      </trkpt>
      <trkpt lat="47.86959" lon="-1.74758">
        <ele>102</ele>
        <time>2015-06-07T08:31:02Z</time>
      </trkpt>
      <trkpt lat="47.86961" lon="-1.7476">
        <ele>101</ele>
        <time>2015-06-07T08:31:03Z</time>
      </trkpt>
      <trkpt lat="47.86962" lon="-1.74763">
        <ele>101</ele>
        <time>2015-06-07T08:31:04Z</time>
      </trkpt>
      <trkpt lat="47.86963" lon="-1.74765">
        <ele>101</ele>
        <time>2015-06-07T08:31:05Z</time>
      </trkpt>
      <trkpt lat="47.86964" lon="-1.74768">
        <ele>101</ele>
        <time>2015-06-07T08:31:06Z</time>
      </trkpt>
      <trkpt lat="47.86966" lon="-1.7477">
        <ele>101</ele>
        <time>2015-06-07T08:31:07Z</time>
      </trkpt>
      <trkpt lat="47.86968" lon="-1.74774">
        <ele>101</ele>
        <time>2015-06-07T08:31:08Z</time>
      </trkpt>
      <trkpt lat="47.8697" lon="-1.74776">
        <ele>101</ele>
        <time>2015-06-07T08:31:09Z</time>
      </trkpt>
      <trkpt lat="47.86972" lon="-1.74778">
        <ele>100</ele>
        <time>2015-06-07T08:31:10Z</time>
      </trkpt>
      <trkpt lat="47.86973" lon="-1.74779">
        <ele>100</ele>
        <time>2015-06-07T08:31:11Z</time>
      </trkpt>
      <trkpt lat="47.86975" lon="-1.74781">
        <ele>100</ele>
        <time>2015-06-07T08:31:12Z</time>
      </trkpt>
      <trkpt lat="47.86977" lon="-1.7478">
        <ele>100</ele>
        <time>2015-06-07T08:31:13Z</time>
      </trkpt>
      <trkpt lat="47.8698" lon="-1.74779">
        <ele>100</ele>
        <time>2015-06-07T08:31:14Z</time>
      </trkpt>
      <trkpt lat="47.86983" lon="-1.74778">
        <ele>100</ele>
        <time>2015-06-07T08:31:15Z</time>
      </trkpt>
      <trkpt lat="47.86984" lon="-1.74777">
        <ele>100</ele>
        <time>2015-06-07T08:31:16Z</time>
      </trkpt>
      <trkpt lat="47.86986" lon="-1.74775">
        <ele>100</ele>
        <time>2015-06-07T08:31:17Z</time>
      </trkpt>
      <trkpt lat="47.86987" lon="-1.74773">
        <ele>100</ele>
        <time>2015-06-07T08:31:18Z</time>
      </trkpt>
      <trkpt lat="47.86988" lon="-1.74772">
        <ele>100</ele>
        <time>2015-06-07T08:31:19Z</time>
      </trkpt>
      <trkpt lat="47.8699" lon="-1.74771">
        <ele>100</ele>
        <time>2015-06-07T08:31:20Z</time>
      </trkpt>
      <trkpt lat="47.86991" lon="-1.74769">
        <ele>100</ele>
        <time>2015-06-07T08:31:21Z</time>
      </trkpt>
      <trkpt lat="47.86993" lon="-1.74768">
        <ele>100</ele>
        <time>2015-06-07T08:31:22Z</time>
      </trkpt>
      <trkpt lat="47.86994" lon="-1.74766">
        <ele>100</ele>
        <time>2015-06-07T08:31:23Z</time>
      </trkpt>
      <trkpt lat="47.86995" lon="-1.74764">
        <ele>99</ele>
        <time>2015-06-07T08:31:24Z</time>
      </trkpt>
      <trkpt lat="47.86996" lon="-1.74761">
        <ele>99</ele>
        <time>2015-06-07T08:31:25Z</time>
      </trkpt>
      <trkpt lat="47.86998" lon="-1.74759">
        <ele>99</ele>
        <time>2015-06-07T08:31:26Z</time>
      </trkpt>
      <trkpt lat="47.86999" lon="-1.74757">
        <ele>99</ele>
        <time>2015-06-07T08:31:27Z</time>
      </trkpt>
      <trkpt lat="47.87002" lon="-1.74757">
        <ele>99</ele>
        <time>2015-06-07T08:31:28Z</time>
      </trkpt>
      <trkpt lat="47.87003" lon="-1.74757">
        <ele>98</ele>
        <time>2015-06-07T08:31:29Z</time>
      </trkpt>
      <trkpt lat="47.87006" lon="-1.74757">
        <ele>98</ele>
        <time>2015-06-07T08:31:30Z</time>
      </trkpt>
      <trkpt lat="47.87008" lon="-1.74757">
        <ele>98</ele>
        <time>2015-06-07T08:31:31Z</time>
      </trkpt>
      <trkpt lat="47.87008" lon="-1.74759">
        <ele>98</ele>
        <time>2015-06-07T08:31:32Z</time>
      </trkpt>
      <trkpt lat="47.87009" lon="-1.74761">
        <ele>97</ele>
        <time>2015-06-07T08:31:33Z</time>
      </trkpt>
      <trkpt lat="47.87009" lon="-1.74761">
        <ele>97</ele>
        <time>2015-06-07T08:31:34Z</time>
      </trkpt>
      <trkpt lat="47.8701" lon="-1.74763">
        <ele>97</ele>
        <time>2015-06-07T08:31:35Z</time>
      </trkpt>
      <trkpt lat="47.87011" lon="-1.74765">
        <ele>97</ele>
        <time>2015-06-07T08:31:36Z</time>
      </trkpt>
      <trkpt lat="47.87012" lon="-1.74766">
        <ele>96</ele>
        <time>2015-06-07T08:31:37Z</time>
      </trkpt>
      <trkpt lat="47.87016" lon="-1.74767">
        <ele>96</ele>
        <time>2015-06-07T08:31:38Z</time>
      </trkpt>
      <trkpt lat="47.87018" lon="-1.74767">
        <ele>96</ele>
        <time>2015-06-07T08:31:39Z</time>
      </trkpt>
      <trkpt lat="47.87018" lon="-1.74767">
        <ele>96</ele>
        <time>2015-06-07T08:31:40Z</time>
      </trkpt>
      <trkpt lat="47.87022" lon="-1.74767">
        <ele>95</ele>
        <time>2015-06-07T08:31:41Z</time>
      </trkpt>
      <trkpt lat="47.87023" lon="-1.74768">
        <ele>94</ele>
        <time>2015-06-07T08:31:42Z</time>
      </trkpt>
      <trkpt lat="47.87023" lon="-1.74768">
        <ele>94</ele>
        <time>2015-06-07T08:31:43Z</time>
      </trkpt>
      <trkpt lat="47.87026" lon="-1.74771">
        <ele>94</ele>
        <time>2015-06-07T08:31:44Z</time>
      </trkpt>
      <trkpt lat="47.87026" lon="-1.74771">
        <ele>94</ele>
        <time>2015-06-07T08:31:45Z</time>
      </trkpt>
      <trkpt lat="47.87027" lon="-1.74772">
        <ele>93</ele>
        <time>2015-06-07T08:31:46Z</time>
      </trkpt>
      <trkpt lat="47.87029" lon="-1.74773">
        <ele>93</ele>
        <time>2015-06-07T08:31:47Z</time>
      </trkpt>
      <trkpt lat="47.87031" lon="-1.74772">
        <ele>93</ele>
        <time>2015-06-07T08:31:48Z</time>
      </trkpt>
      <trkpt lat="47.87035" lon="-1.74773">
        <ele>92</ele>
        <time>2015-06-07T08:31:49Z</time>
      </trkpt>
      <trkpt lat="47.87036" lon="-1.74775">
        <ele>92</ele>
        <time>2015-06-07T08:31:50Z</time>
      </trkpt>
      <trkpt lat="47.87039" lon="-1.74778">
        <ele>91</ele>
        <time>2015-06-07T08:31:51Z</time>
      </trkpt>
      <trkpt lat="47.87041" lon="-1.74781">
        <ele>91</ele>
        <time>2015-06-07T08:31:52Z</time>
      </trkpt>
      <trkpt lat="47.87042" lon="-1.74785">
        <ele>91</ele>
        <time>2015-06-07T08:31:53Z</time>
      </trkpt>
      <trkpt lat="47.87042" lon="-1.74785">
        <ele>91</ele>
        <time>2015-06-07T08:31:54Z</time>
      </trkpt>
      <trkpt lat="47.87044" lon="-1.74789">
        <ele>90</ele>
        <time>2015-06-07T08:31:55Z</time>
      </trkpt>
      <trkpt lat="47.87048" lon="-1.74797">
        <ele>90</ele>
        <time>2015-06-07T08:31:56Z</time>
      </trkpt>
      <trkpt lat="47.87048" lon="-1.74797">
        <ele>90</ele>
        <time>2015-06-07T08:31:57Z</time>
      </trkpt>
      <trkpt lat="47.87053" lon="-1.74799">
        <ele>89</ele>
        <time>2015-06-07T08:31:58Z</time>
      </trkpt>
      <trkpt lat="47.87055" lon="-1.74801">
        <ele>89</ele>
        <time>2015-06-07T08:31:59Z</time>
      </trkpt>
      <trkpt lat="47.87055" lon="-1.74801">
        <ele>89</ele>
        <time>2015-06-07T08:32:00Z</time>
      </trkpt>
      <trkpt lat="47.87057" lon="-1.74803">
        <ele>89</ele>
        <time>2015-06-07T08:32:01Z</time>
      </trkpt>
      <trkpt lat="47.87058" lon="-1.74805">
        <ele>89</ele>
        <time>2015-06-07T08:32:02Z</time>
      </trkpt>
      <trkpt lat="47.87059" lon="-1.74807">
        <ele>89</ele>
        <time>2015-06-07T08:32:03Z</time>
      </trkpt>
      <trkpt lat="47.8706" lon="-1.74808">
        <ele>89</ele>
        <time>2015-06-07T08:32:04Z</time>
      </trkpt>
      <trkpt lat="47.87062" lon="-1.7481">
        <ele>89</ele>
        <time>2015-06-07T08:32:05Z</time>
      </trkpt>
      <trkpt lat="47.87064" lon="-1.74813">
        <ele>89</ele>
        <time>2015-06-07T08:32:06Z</time>
      </trkpt>
      <trkpt lat="47.87066" lon="-1.74815">
        <ele>89</ele>
        <time>2015-06-07T08:32:07Z</time>
      </trkpt>
      <trkpt lat="47.87069" lon="-1.74817">
        <ele>88</ele>
        <time>2015-06-07T08:32:08Z</time>
      </trkpt>
      <trkpt lat="47.87074" lon="-1.74816">
        <ele>88</ele>
        <time>2015-06-07T08:32:09Z</time>
      </trkpt>
      <trkpt lat="47.87077" lon="-1.74816">
        <ele>88</ele>
        <time>2015-06-07T08:32:10Z</time>
      </trkpt>
      <trkpt lat="47.87077" lon="-1.74816">
        <ele>88</ele>
        <time>2015-06-07T08:32:11Z</time>
      </trkpt>
      <trkpt lat="47.87079" lon="-1.74817">
        <ele>88</ele>
        <time>2015-06-07T08:32:12Z</time>
      </trkpt>
      <trkpt lat="47.87081" lon="-1.74818">
        <ele>88</ele>
        <time>2015-06-07T08:32:13Z</time>
      </trkpt>
      <trkpt lat="47.87084" lon="-1.74819">
        <ele>88</ele>
        <time>2015-06-07T08:32:14Z</time>
      </trkpt>
      <trkpt lat="47.87089" lon="-1.74818">
        <ele>87</ele>
        <time>2015-06-07T08:32:15Z</time>
      </trkpt>
      <trkpt lat="47.87091" lon="-1.74817">
        <ele>87</ele>
        <time>2015-06-07T08:32:16Z</time>
      </trkpt>
      <trkpt lat="47.87091" lon="-1.74817">
        <ele>87</ele>
        <time>2015-06-07T08:32:17Z</time>
      </trkpt>
      <trkpt lat="47.87094" lon="-1.74817">
        <ele>87</ele>
        <time>2015-06-07T08:32:18Z</time>
      </trkpt>
      <trkpt lat="47.87096" lon="-1.74817">
        <ele>87</ele>
        <time>2015-06-07T08:32:19Z</time>
      </trkpt>
      <trkpt lat="47.87098" lon="-1.74819">
        <ele>86</ele>
        <time>2015-06-07T08:32:20Z</time>
      </trkpt>
      <trkpt lat="47.87101" lon="-1.7482">
        <ele>86</ele>
        <time>2015-06-07T08:32:21Z</time>
      </trkpt>
      <trkpt lat="47.87103" lon="-1.74822">
        <ele>86</ele>
        <time>2015-06-07T08:32:22Z</time>
      </trkpt>
      <trkpt lat="47.87106" lon="-1.74824">
        <ele>85</ele>
        <time>2015-06-07T08:32:23Z</time>
      </trkpt>
      <trkpt lat="47.87108" lon="-1.74825">
        <ele>85</ele>
        <time>2015-06-07T08:32:24Z</time>
      </trkpt>
      <trkpt lat="47.87109" lon="-1.74827">
        <ele>84</ele>
        <time>2015-06-07T08:32:25Z</time>
      </trkpt>
      <trkpt lat="47.8711" lon="-1.74829">
        <ele>84</ele>
        <time>2015-06-07T08:32:26Z</time>
      </trkpt>
      <trkpt lat="47.87111" lon="-1.7483">
        <ele>84</ele>
        <time>2015-06-07T08:32:27Z</time>
      </trkpt>
      <trkpt lat="47.87113" lon="-1.74832">
        <ele>84</ele>
        <time>2015-06-07T08:32:28Z</time>
      </trkpt>
      <trkpt lat="47.87115" lon="-1.74834">
        <ele>84</ele>
        <time>2015-06-07T08:32:29Z</time>
      </trkpt>
      <trkpt lat="47.87117" lon="-1.74835">
        <ele>84</ele>
        <time>2015-06-07T08:32:30Z</time>
      </trkpt>
      <trkpt lat="47.87119" lon="-1.74835">
        <ele>84</ele>
        <time>2015-06-07T08:32:31Z</time>
      </trkpt>
      <trkpt lat="47.87121" lon="-1.74835">
        <ele>83</ele>
        <time>2015-06-07T08:32:32Z</time>
      </trkpt>
      <trkpt lat="47.87123" lon="-1.74836">
        <ele>84</ele>
        <time>2015-06-07T08:32:33Z</time>
      </trkpt>
      <trkpt lat="47.87124" lon="-1.74837">
        <ele>84</ele>
        <time>2015-06-07T08:32:34Z</time>
      </trkpt>
      <trkpt lat="47.87126" lon="-1.7484">
        <ele>84</ele>
        <time>2015-06-07T08:32:35Z</time>
      </trkpt>
      <trkpt lat="47.87127" lon="-1.74842">
        <ele>84</ele>
        <time>2015-06-07T08:32:36Z</time>
      </trkpt>
      <trkpt lat="47.87127" lon="-1.74844">
        <ele>84</ele>
        <time>2015-06-07T08:32:37Z</time>
      </trkpt>
      <trkpt lat="47.87128" lon="-1.74847">
        <ele>84</ele>
        <time>2015-06-07T08:32:38Z</time>
      </trkpt>
      <trkpt lat="47.87129" lon="-1.74849">
        <ele>84</ele>
        <time>2015-06-07T08:32:39Z</time>
      </trkpt>
      <trkpt lat="47.87131" lon="-1.74849">
        <ele>84</ele>
        <time>2015-06-07T08:32:40Z</time>
      </trkpt>
      <trkpt lat="47.87133" lon="-1.7485">
        <ele>84</ele>
        <time>2015-06-07T08:32:41Z</time>
      </trkpt>
      <trkpt lat="47.87134" lon="-1.7485">
        <ele>84</ele>
        <time>2015-06-07T08:32:42Z</time>
      </trkpt>
      <trkpt lat="47.87136" lon="-1.7485">
        <ele>85</ele>
        <time>2015-06-07T08:32:43Z</time>
      </trkpt>
      <trkpt lat="47.87137" lon="-1.7485">
        <ele>85</ele>
        <time>2015-06-07T08:32:44Z</time>
      </trkpt>
      <trkpt lat="47.87139" lon="-1.74851">
        <ele>85</ele>
        <time>2015-06-07T08:32:45Z</time>
      </trkpt>
      <trkpt lat="47.8714" lon="-1.74853">
        <ele>85</ele>
        <time>2015-06-07T08:32:46Z</time>
      </trkpt>
      <trkpt lat="47.8714" lon="-1.74855">
        <ele>85</ele>
        <time>2015-06-07T08:32:47Z</time>
      </trkpt>
      <trkpt lat="47.87141" lon="-1.74857">
        <ele>85</ele>
        <time>2015-06-07T08:32:48Z</time>
      </trkpt>
      <trkpt lat="47.87143" lon="-1.74859">
        <ele>85</ele>
        <time>2015-06-07T08:32:49Z</time>
      </trkpt>
      <trkpt lat="47.87144" lon="-1.7486">
        <ele>85</ele>
        <time>2015-06-07T08:32:50Z</time>
      </trkpt>
      <trkpt lat="47.87146" lon="-1.7486">
        <ele>86</ele>
        <time>2015-06-07T08:32:51Z</time>
      </trkpt>
      <trkpt lat="47.87147" lon="-1.74859">
        <ele>86</ele>
        <time>2015-06-07T08:32:52Z</time>
      </trkpt>
      <trkpt lat="47.87148" lon="-1.74859">
        <ele>86</ele>
        <time>2015-06-07T08:32:53Z</time>
      </trkpt>
      <trkpt lat="47.8715" lon="-1.74861">
        <ele>86</ele>
        <time>2015-06-07T08:32:54Z</time>
      </trkpt>
      <trkpt lat="47.87151" lon="-1.74863">
        <ele>86</ele>
        <time>2015-06-07T08:32:55Z</time>
      </trkpt>
      <trkpt lat="47.87151" lon="-1.74865">
        <ele>86</ele>
        <time>2015-06-07T08:32:56Z</time>
      </trkpt>
      <trkpt lat="47.87152" lon="-1.74868">
        <ele>86</ele>
        <time>2015-06-07T08:32:57Z</time>
      </trkpt>
      <trkpt lat="47.87151" lon="-1.7487">
        <ele>86</ele>
        <time>2015-06-07T08:32:58Z</time>
      </trkpt>
      <trkpt lat="47.87152" lon="-1.74873">
        <ele>86</ele>
        <time>2015-06-07T08:32:59Z</time>
      </trkpt>
      <trkpt lat="47.87153" lon="-1.74876">
        <ele>86</ele>
        <time>2015-06-07T08:33:00Z</time>
      </trkpt>
      <trkpt lat="47.87154" lon="-1.74879">
        <ele>87</ele>
        <time>2015-06-07T08:33:01Z</time>
      </trkpt>
      <trkpt lat="47.87156" lon="-1.74883">
        <ele>87</ele>
        <time>2015-06-07T08:33:02Z</time>
      </trkpt>
      <trkpt lat="47.87159" lon="-1.74883">
        <ele>87</ele>
        <time>2015-06-07T08:33:03Z</time>
      </trkpt>
      <trkpt lat="47.87161" lon="-1.74883">
        <ele>87</ele>
        <time>2015-06-07T08:33:04Z</time>
      </trkpt>
      <trkpt lat="47.87161" lon="-1.74883">
        <ele>87</ele>
        <time>2015-06-07T08:33:05Z</time>
      </trkpt>
      <trkpt lat="47.87166" lon="-1.74882">
        <ele>87</ele>
        <time>2015-06-07T08:33:06Z</time>
      </trkpt>
      <trkpt lat="47.87166" lon="-1.74882">
        <ele>87</ele>
        <time>2015-06-07T08:33:07Z</time>
      </trkpt>
      <trkpt lat="47.87167" lon="-1.74884">
        <ele>87</ele>
        <time>2015-06-07T08:33:08Z</time>
      </trkpt>
      <trkpt lat="47.87169" lon="-1.74886">
        <ele>87</ele>
        <time>2015-06-07T08:33:09Z</time>
      </trkpt>
      <trkpt lat="47.8717" lon="-1.74889">
        <ele>87</ele>
        <time>2015-06-07T08:33:10Z</time>
      </trkpt>
      <trkpt lat="47.8717" lon="-1.74891">
        <ele>87</ele>
        <time>2015-06-07T08:33:11Z</time>
      </trkpt>
      <trkpt lat="47.8717" lon="-1.74893">
        <ele>87</ele>
        <time>2015-06-07T08:33:12Z</time>
      </trkpt>
      <trkpt lat="47.8717" lon="-1.74897">
        <ele>87</ele>
        <time>2015-06-07T08:33:13Z</time>
      </trkpt>
      <trkpt lat="47.8717" lon="-1.74897">
        <ele>87</ele>
        <time>2015-06-07T08:33:14Z</time>
      </trkpt>
      <trkpt lat="47.87172" lon="-1.74902">
        <ele>87</ele>
        <time>2015-06-07T08:33:15Z</time>
      </trkpt>
      <trkpt lat="47.87173" lon="-1.74903">
        <ele>87</ele>
        <time>2015-06-07T08:33:16Z</time>
      </trkpt>
      <trkpt lat="47.87174" lon="-1.74904">
        <ele>87</ele>
        <time>2015-06-07T08:33:17Z</time>
      </trkpt>
      <trkpt lat="47.87174" lon="-1.74904">
        <ele>87</ele>
        <time>2015-06-07T08:33:18Z</time>
      </trkpt>
      <trkpt lat="47.87176" lon="-1.74906">
        <ele>87</ele>
        <time>2015-06-07T08:33:19Z</time>
      </trkpt>
      <trkpt lat="47.8718" lon="-1.74905">
        <ele>87</ele>
        <time>2015-06-07T08:33:20Z</time>
      </trkpt>
      <trkpt lat="47.8718" lon="-1.74905">
        <ele>87</ele>
        <time>2015-06-07T08:33:21Z</time>
      </trkpt>
      <trkpt lat="47.87183" lon="-1.74907">
        <ele>87</ele>
        <time>2015-06-07T08:33:22Z</time>
      </trkpt>
      <trkpt lat="47.87183" lon="-1.74907">
        <ele>87</ele>
        <time>2015-06-07T08:33:23Z</time>
      </trkpt>
      <trkpt lat="47.87184" lon="-1.74909">
        <ele>87</ele>
        <time>2015-06-07T08:33:24Z</time>
      </trkpt>
      <trkpt lat="47.87185" lon="-1.74912">
        <ele>88</ele>
        <time>2015-06-07T08:33:25Z</time>
      </trkpt>
      <trkpt lat="47.87185" lon="-1.74914">
        <ele>88</ele>
        <time>2015-06-07T08:33:26Z</time>
      </trkpt>
      <trkpt lat="47.87185" lon="-1.74915">
        <ele>88</ele>
        <time>2015-06-07T08:33:27Z</time>
      </trkpt>
      <trkpt lat="47.87184" lon="-1.74916">
        <ele>88</ele>
        <time>2015-06-07T08:33:28Z</time>
      </trkpt>
      <trkpt lat="47.87185" lon="-1.74918">
        <ele>88</ele>
        <time>2015-06-07T08:33:29Z</time>
      </trkpt>
      <trkpt lat="47.87186" lon="-1.74919">
        <ele>88</ele>
        <time>2015-06-07T08:33:30Z</time>
      </trkpt>
      <trkpt lat="47.87186" lon="-1.74921">
        <ele>88</ele>
        <time>2015-06-07T08:33:31Z</time>
      </trkpt>
      <trkpt lat="47.87187" lon="-1.74921">
        <ele>88</ele>
        <time>2015-06-07T08:33:32Z</time>
      </trkpt>
      <trkpt lat="47.87187" lon="-1.74921">
        <ele>88</ele>
        <time>2015-06-07T08:33:33Z</time>
      </trkpt>
      <trkpt lat="47.87188" lon="-1.74922">
        <ele>87</ele>
        <time>2015-06-07T08:33:34Z</time>
      </trkpt>
      <trkpt lat="47.87188" lon="-1.74924">
        <ele>87</ele>
        <time>2015-06-07T08:33:35Z</time>
      </trkpt>
      <trkpt lat="47.87189" lon="-1.74926">
        <ele>88</ele>
        <time>2015-06-07T08:33:36Z</time>
      </trkpt>
      <trkpt lat="47.87189" lon="-1.74928">
        <ele>88</ele>
        <time>2015-06-07T08:33:37Z</time>
      </trkpt>
      <trkpt lat="47.87191" lon="-1.74931">
        <ele>87</ele>
        <time>2015-06-07T08:33:38Z</time>
      </trkpt>
      <trkpt lat="47.87191" lon="-1.74931">
        <ele>87</ele>
        <time>2015-06-07T08:33:39Z</time>
      </trkpt>
      <trkpt lat="47.87192" lon="-1.74932">
        <ele>87</ele>
        <time>2015-06-07T08:33:40Z</time>
      </trkpt>
      <trkpt lat="47.87194" lon="-1.74933">
        <ele>87</ele>
        <time>2015-06-07T08:33:41Z</time>
      </trkpt>
      <trkpt lat="47.87195" lon="-1.74935">
        <ele>88</ele>
        <time>2015-06-07T08:33:42Z</time>
      </trkpt>
      <trkpt lat="47.87197" lon="-1.74941">
        <ele>88</ele>
        <time>2015-06-07T08:33:43Z</time>
      </trkpt>
      <trkpt lat="47.87197" lon="-1.74941">
        <ele>88</ele>
        <time>2015-06-07T08:33:44Z</time>
      </trkpt>
      <trkpt lat="47.87198" lon="-1.74942">
        <ele>88</ele>
        <time>2015-06-07T08:33:45Z</time>
      </trkpt>
      <trkpt lat="47.872" lon="-1.74943">
        <ele>88</ele>
        <time>2015-06-07T08:33:46Z</time>
      </trkpt>
      <trkpt lat="47.87202" lon="-1.74943">
        <ele>88</ele>
        <time>2015-06-07T08:33:47Z</time>
      </trkpt>
      <trkpt lat="47.87202" lon="-1.74943">
        <ele>88</ele>
        <time>2015-06-07T08:33:48Z</time>
      </trkpt>
      <trkpt lat="47.87203" lon="-1.74943">
        <ele>88</ele>
        <time>2015-06-07T08:33:49Z</time>
      </trkpt>
      <trkpt lat="47.87205" lon="-1.74944">
        <ele>88</ele>
        <time>2015-06-07T08:33:50Z</time>
      </trkpt>
      <trkpt lat="47.87206" lon="-1.74945">
        <ele>88</ele>
        <time>2015-06-07T08:33:51Z</time>
      </trkpt>
      <trkpt lat="47.87209" lon="-1.74947">
        <ele>88</ele>
        <time>2015-06-07T08:33:52Z</time>
      </trkpt>
      <trkpt lat="47.87211" lon="-1.74949">
        <ele>88</ele>
        <time>2015-06-07T08:33:53Z</time>
      </trkpt>
      <trkpt lat="47.87212" lon="-1.74951">
        <ele>88</ele>
        <time>2015-06-07T08:33:54Z</time>
      </trkpt>
      <trkpt lat="47.87214" lon="-1.74951">
        <ele>88</ele>
        <time>2015-06-07T08:33:55Z</time>
      </trkpt>
      <trkpt lat="47.87215" lon="-1.74953">
        <ele>88</ele>
        <time>2015-06-07T08:33:56Z</time>
      </trkpt>
      <trkpt lat="47.87217" lon="-1.74955">
        <ele>88</ele>
        <time>2015-06-07T08:33:57Z</time>
      </trkpt>
      <trkpt lat="47.87219" lon="-1.74958">
        <ele>88</ele>
        <time>2015-06-07T08:33:58Z</time>
      </trkpt>
      <trkpt lat="47.87221" lon="-1.74961">
        <ele>88</ele>
        <time>2015-06-07T08:33:59Z</time>
      </trkpt>
      <trkpt lat="47.87224" lon="-1.74964">
        <ele>88</ele>
        <time>2015-06-07T08:34:00Z</time>
      </trkpt>
      <trkpt lat="47.87227" lon="-1.74968">
        <ele>88</ele>
        <time>2015-06-07T08:34:01Z</time>
      </trkpt>
      <trkpt lat="47.87234" lon="-1.74974">
        <ele>88</ele>
        <time>2015-06-07T08:34:02Z</time>
      </trkpt>
      <trkpt lat="47.87234" lon="-1.74974">
        <ele>88</ele>
        <time>2015-06-07T08:34:03Z</time>
      </trkpt>
      <trkpt lat="47.87237" lon="-1.74975">
        <ele>88</ele>
        <time>2015-06-07T08:34:04Z</time>
      </trkpt>
      <trkpt lat="47.87242" lon="-1.74975">
        <ele>88</ele>
        <time>2015-06-07T08:34:05Z</time>
      </trkpt>
      <trkpt lat="47.87242" lon="-1.74975">
        <ele>88</ele>
        <time>2015-06-07T08:34:06Z</time>
      </trkpt>
      <trkpt lat="47.87244" lon="-1.74974">
        <ele>88</ele>
        <time>2015-06-07T08:34:07Z</time>
      </trkpt>
      <trkpt lat="47.87245" lon="-1.74972">
        <ele>88</ele>
        <time>2015-06-07T08:34:08Z</time>
      </trkpt>
      <trkpt lat="47.87245" lon="-1.74971">
        <ele>88</ele>
        <time>2015-06-07T08:34:09Z</time>
      </trkpt>
      <trkpt lat="47.87247" lon="-1.74969">
        <ele>88</ele>
        <time>2015-06-07T08:34:10Z</time>
      </trkpt>
      <trkpt lat="47.87249" lon="-1.74966">
        <ele>88</ele>
        <time>2015-06-07T08:34:11Z</time>
      </trkpt>
      <trkpt lat="47.87253" lon="-1.74961">
        <ele>88</ele>
        <time>2015-06-07T08:34:12Z</time>
      </trkpt>
      <trkpt lat="47.87253" lon="-1.74961">
        <ele>88</ele>
        <time>2015-06-07T08:34:13Z</time>
      </trkpt>
      <trkpt lat="47.87255" lon="-1.7496">
        <ele>88</ele>
        <time>2015-06-07T08:34:14Z</time>
      </trkpt>
      <trkpt lat="47.87256" lon="-1.7496">
        <ele>88</ele>
        <time>2015-06-07T08:34:15Z</time>
      </trkpt>
      <trkpt lat="47.87258" lon="-1.74959">
        <ele>88</ele>
        <time>2015-06-07T08:34:16Z</time>
      </trkpt>
      <trkpt lat="47.87259" lon="-1.74958">
        <ele>88</ele>
        <time>2015-06-07T08:34:17Z</time>
      </trkpt>
      <trkpt lat="47.87261" lon="-1.74958">
        <ele>88</ele>
        <time>2015-06-07T08:34:18Z</time>
      </trkpt>
      <trkpt lat="47.87262" lon="-1.74959">
        <ele>88</ele>
        <time>2015-06-07T08:34:19Z</time>
      </trkpt>
      <trkpt lat="47.87264" lon="-1.74959">
        <ele>88</ele>
        <time>2015-06-07T08:34:20Z</time>
      </trkpt>
      <trkpt lat="47.87266" lon="-1.7496">
        <ele>88</ele>
        <time>2015-06-07T08:34:21Z</time>
      </trkpt>
      <trkpt lat="47.87269" lon="-1.74959">
        <ele>88</ele>
        <time>2015-06-07T08:34:22Z</time>
      </trkpt>
      <trkpt lat="47.87271" lon="-1.74958">
        <ele>88</ele>
        <time>2015-06-07T08:34:23Z</time>
      </trkpt>
      <trkpt lat="47.87273" lon="-1.74957">
        <ele>88</ele>
        <time>2015-06-07T08:34:24Z</time>
      </trkpt>
      <trkpt lat="47.87276" lon="-1.74957">
        <ele>88</ele>
        <time>2015-06-07T08:34:25Z</time>
      </trkpt>
      <trkpt lat="47.87277" lon="-1.74959">
        <ele>88</ele>
        <time>2015-06-07T08:34:26Z</time>
      </trkpt>
      <trkpt lat="47.87278" lon="-1.7496">
        <ele>89</ele>
        <time>2015-06-07T08:34:27Z</time>
      </trkpt>
      <trkpt lat="47.87276" lon="-1.74961">
        <ele>89</ele>
        <time>2015-06-07T08:34:28Z</time>
      </trkpt>
      <trkpt lat="47.87276" lon="-1.74961">
        <ele>89</ele>
        <time>2015-06-07T08:34:29Z</time>
      </trkpt>
      <trkpt lat="47.87275" lon="-1.74962">
        <ele>88</ele>
        <time>2015-06-07T08:34:30Z</time>
      </trkpt>
      <trkpt lat="47.87275" lon="-1.74964">
        <ele>89</ele>
        <time>2015-06-07T08:34:31Z</time>
      </trkpt>
      <trkpt lat="47.87276" lon="-1.74965">
        <ele>89</ele>
        <time>2015-06-07T08:34:32Z</time>
      </trkpt>
      <trkpt lat="47.87278" lon="-1.74966">
        <ele>89</ele>
        <time>2015-06-07T08:34:33Z</time>
      </trkpt>
      <trkpt lat="47.87279" lon="-1.74966">
        <ele>89</ele>
        <time>2015-06-07T08:34:34Z</time>
      </trkpt>
      <trkpt lat="47.87281" lon="-1.74966">
        <ele>89</ele>
        <time>2015-06-07T08:34:35Z</time>
      </trkpt>
      <trkpt lat="47.87284" lon="-1.74966">
        <ele>90</ele>
        <time>2015-06-07T08:34:36Z</time>
      </trkpt>
      <trkpt lat="47.87287" lon="-1.74965">
        <ele>90</ele>
        <time>2015-06-07T08:34:37Z</time>
      </trkpt>
      <trkpt lat="47.87289" lon="-1.74963">
        <ele>90</ele>
        <time>2015-06-07T08:34:38Z</time>
      </trkpt>
      <trkpt lat="47.87292" lon="-1.74961">
        <ele>90</ele>
        <time>2015-06-07T08:34:39Z</time>
      </trkpt>
      <trkpt lat="47.87295" lon="-1.74958">
        <ele>90</ele>
        <time>2015-06-07T08:34:40Z</time>
      </trkpt>
      <trkpt lat="47.87298" lon="-1.74957">
        <ele>90</ele>
        <time>2015-06-07T08:34:41Z</time>
      </trkpt>
      <trkpt lat="47.873" lon="-1.74958">
        <ele>90</ele>
        <time>2015-06-07T08:34:42Z</time>
      </trkpt>
      <trkpt lat="47.87301" lon="-1.74959">
        <ele>90</ele>
        <time>2015-06-07T08:34:43Z</time>
      </trkpt>
      <trkpt lat="47.87301" lon="-1.74961">
        <ele>90</ele>
        <time>2015-06-07T08:34:44Z</time>
      </trkpt>
      <trkpt lat="47.87302" lon="-1.74963">
        <ele>90</ele>
        <time>2015-06-07T08:34:45Z</time>
      </trkpt>
      <trkpt lat="47.87302" lon="-1.74966">
        <ele>90</ele>
        <time>2015-06-07T08:34:46Z</time>
      </trkpt>
      <trkpt lat="47.87302" lon="-1.74968">
        <ele>90</ele>
        <time>2015-06-07T08:34:47Z</time>
      </trkpt>
      <trkpt lat="47.87302" lon="-1.74969">
        <ele>90</ele>
        <time>2015-06-07T08:34:48Z</time>
      </trkpt>
      <trkpt lat="47.87303" lon="-1.74971">
        <ele>90</ele>
        <time>2015-06-07T08:34:49Z</time>
      </trkpt>
      <trkpt lat="47.87303" lon="-1.74974">
        <ele>91</ele>
        <time>2015-06-07T08:34:50Z</time>
      </trkpt>
      <trkpt lat="47.87303" lon="-1.74976">
        <ele>91</ele>
        <time>2015-06-07T08:34:51Z</time>
      </trkpt>
      <trkpt lat="47.87304" lon="-1.74978">
        <ele>91</ele>
        <time>2015-06-07T08:34:52Z</time>
      </trkpt>
      <trkpt lat="47.87304" lon="-1.74979">
        <ele>91</ele>
        <time>2015-06-07T08:34:53Z</time>
      </trkpt>
      <trkpt lat="47.87304" lon="-1.74979">
        <ele>91</ele>
        <time>2015-06-07T08:34:54Z</time>
      </trkpt>
      <trkpt lat="47.87304" lon="-1.74979">
        <ele>91</ele>
        <time>2015-06-07T08:34:55Z</time>
      </trkpt>
      <trkpt lat="47.87304" lon="-1.7498">
        <ele>91</ele>
        <time>2015-06-07T08:34:56Z</time>
      </trkpt>
      <trkpt lat="47.87304" lon="-1.74982">
        <ele>91</ele>
        <time>2015-06-07T08:34:57Z</time>
      </trkpt>
      <trkpt lat="47.87302" lon="-1.74984">
        <ele>91</ele>
        <time>2015-06-07T08:34:58Z</time>
      </trkpt>
      <trkpt lat="47.87302" lon="-1.74986">
        <ele>91</ele>
        <time>2015-06-07T08:34:59Z</time>
      </trkpt>
      <trkpt lat="47.87303" lon="-1.74987">
        <ele>91</ele>
        <time>2015-06-07T08:35:00Z</time>
      </trkpt>
      <trkpt lat="47.87303" lon="-1.74989">
        <ele>92</ele>
        <time>2015-06-07T08:35:01Z</time>
      </trkpt>
      <trkpt lat="47.87304" lon="-1.74989">
        <ele>92</ele>
        <time>2015-06-07T08:35:02Z</time>
      </trkpt>
      <trkpt lat="47.87305" lon="-1.7499">
        <ele>92</ele>
        <time>2015-06-07T08:35:03Z</time>
      </trkpt>
      <trkpt lat="47.87305" lon="-1.74992">
        <ele>92</ele>
        <time>2015-06-07T08:35:04Z</time>
      </trkpt>
      <trkpt lat="47.87305" lon="-1.74995">
        <ele>92</ele>
        <time>2015-06-07T08:35:05Z</time>
      </trkpt>
      <trkpt lat="47.87304" lon="-1.74996">
        <ele>92</ele>
        <time>2015-06-07T08:35:06Z</time>
      </trkpt>
      <trkpt lat="47.87302" lon="-1.74997">
        <ele>92</ele>
        <time>2015-06-07T08:35:07Z</time>
      </trkpt>
      <trkpt lat="47.873" lon="-1.74997">
        <ele>92</ele>
        <time>2015-06-07T08:35:08Z</time>
      </trkpt>
      <trkpt lat="47.87298" lon="-1.74998">
        <ele>92</ele>
        <time>2015-06-07T08:35:09Z</time>
      </trkpt>
      <trkpt lat="47.87297" lon="-1.74998">
        <ele>92</ele>
        <time>2015-06-07T08:35:10Z</time>
      </trkpt>
      <trkpt lat="47.87296" lon="-1.75">
        <ele>92</ele>
        <time>2015-06-07T08:35:11Z</time>
      </trkpt>
      <trkpt lat="47.87295" lon="-1.75">
        <ele>92</ele>
        <time>2015-06-07T08:35:12Z</time>
      </trkpt>
      <trkpt lat="47.87295" lon="-1.75001">
        <ele>92</ele>
        <time>2015-06-07T08:35:13Z</time>
      </trkpt>
      <trkpt lat="47.87295" lon="-1.75001">
        <ele>93</ele>
        <time>2015-06-07T08:35:14Z</time>
      </trkpt>
      <trkpt lat="47.87294" lon="-1.75003">
        <ele>93</ele>
        <time>2015-06-07T08:35:15Z</time>
      </trkpt>
      <trkpt lat="47.87294" lon="-1.75003">
        <ele>93</ele>
        <time>2015-06-07T08:35:16Z</time>
      </trkpt>
      <trkpt lat="47.87294" lon="-1.75003">
        <ele>94</ele>
        <time>2015-06-07T08:35:17Z</time>
      </trkpt>
      <trkpt lat="47.87294" lon="-1.75003">
        <ele>94</ele>
        <time>2015-06-07T08:35:18Z</time>
      </trkpt>
      <trkpt lat="47.87294" lon="-1.75001">
        <ele>94</ele>
        <time>2015-06-07T08:35:19Z</time>
      </trkpt>
      <trkpt lat="47.87294" lon="-1.74999">
        <ele>94</ele>
        <time>2015-06-07T08:35:20Z</time>
      </trkpt>
      <trkpt lat="47.87294" lon="-1.74995">
        <ele>94</ele>
        <time>2015-06-07T08:35:21Z</time>
      </trkpt>
      <trkpt lat="47.87292" lon="-1.74991">
        <ele>94</ele>
        <time>2015-06-07T08:35:22Z</time>
      </trkpt>
      <trkpt lat="47.8729" lon="-1.74991">
        <ele>94</ele>
        <time>2015-06-07T08:35:23Z</time>
      </trkpt>
      <trkpt lat="47.87288" lon="-1.7499">
        <ele>94</ele>
        <time>2015-06-07T08:35:24Z</time>
      </trkpt>
      <trkpt lat="47.87286" lon="-1.7499">
        <ele>94</ele>
        <time>2015-06-07T08:35:25Z</time>
      </trkpt>
      <trkpt lat="47.87283" lon="-1.74989">
        <ele>94</ele>
        <time>2015-06-07T08:35:26Z</time>
      </trkpt>
      <trkpt lat="47.87281" lon="-1.74988">
        <ele>94</ele>
        <time>2015-06-07T08:35:27Z</time>
      </trkpt>
      <trkpt lat="47.87279" lon="-1.74988">
        <ele>94</ele>
        <time>2015-06-07T08:35:28Z</time>
      </trkpt>
      <trkpt lat="47.87277" lon="-1.74989">
        <ele>93</ele>
        <time>2015-06-07T08:35:29Z</time>
      </trkpt>
      <trkpt lat="47.87277" lon="-1.74989">
        <ele>93</ele>
        <time>2015-06-07T08:35:30Z</time>
      </trkpt>
      <trkpt lat="47.87275" lon="-1.74989">
        <ele>93</ele>
        <time>2015-06-07T08:35:31Z</time>
      </trkpt>
      <trkpt lat="47.87272" lon="-1.74989">
        <ele>93</ele>
        <time>2015-06-07T08:35:32Z</time>
      </trkpt>
      <trkpt lat="47.87272" lon="-1.74987">
        <ele>93</ele>
        <time>2015-06-07T08:35:33Z</time>
      </trkpt>
      <trkpt lat="47.87271" lon="-1.74986">
        <ele>93</ele>
        <time>2015-06-07T08:35:34Z</time>
      </trkpt>
      <trkpt lat="47.87271" lon="-1.74986">
        <ele>93</ele>
        <time>2015-06-07T08:35:35Z</time>
      </trkpt>
      <trkpt lat="47.87269" lon="-1.74985">
        <ele>93</ele>
        <time>2015-06-07T08:35:36Z</time>
      </trkpt>
      <trkpt lat="47.87264" lon="-1.74987">
        <ele>93</ele>
        <time>2015-06-07T08:35:37Z</time>
      </trkpt>
      <trkpt lat="47.87263" lon="-1.74989">
        <ele>93</ele>
        <time>2015-06-07T08:35:38Z</time>
      </trkpt>
      <trkpt lat="47.87261" lon="-1.74993">
        <ele>92</ele>
        <time>2015-06-07T08:35:39Z</time>
      </trkpt>
      <trkpt lat="47.87259" lon="-1.74998">
        <ele>92</ele>
        <time>2015-06-07T08:35:40Z</time>
      </trkpt>
      <trkpt lat="47.87258" lon="-1.75002">
        <ele>91</ele>
        <time>2015-06-07T08:35:41Z</time>
      </trkpt>
      <trkpt lat="47.87255" lon="-1.75004">
        <ele>91</ele>
        <time>2015-06-07T08:35:42Z</time>
      </trkpt>
      <trkpt lat="47.87253" lon="-1.75005">
        <ele>91</ele>
        <time>2015-06-07T08:35:43Z</time>
      </trkpt>
      <trkpt lat="47.87252" lon="-1.75005">
        <ele>90</ele>
        <time>2015-06-07T08:35:44Z</time>
      </trkpt>
      <trkpt lat="47.8725" lon="-1.75003">
        <ele>90</ele>
        <time>2015-06-07T08:35:45Z</time>
      </trkpt>
      <trkpt lat="47.87249" lon="-1.75001">
        <ele>90</ele>
        <time>2015-06-07T08:35:46Z</time>
      </trkpt>
      <trkpt lat="47.87249" lon="-1.75001">
        <ele>90</ele>
        <time>2015-06-07T08:35:47Z</time>
      </trkpt>
      <trkpt lat="47.87247" lon="-1.75001">
        <ele>89</ele>
        <time>2015-06-07T08:35:48Z</time>
      </trkpt>
      <trkpt lat="47.87246" lon="-1.75001">
        <ele>89</ele>
        <time>2015-06-07T08:35:49Z</time>
      </trkpt>
      <trkpt lat="47.87245" lon="-1.75">
        <ele>89</ele>
        <time>2015-06-07T08:35:50Z</time>
      </trkpt>
      <trkpt lat="47.87245" lon="-1.74998">
        <ele>88</ele>
        <time>2015-06-07T08:35:51Z</time>
      </trkpt>
      <trkpt lat="47.87244" lon="-1.74995">
        <ele>88</ele>
        <time>2015-06-07T08:35:52Z</time>
      </trkpt>
      <trkpt lat="47.87244" lon="-1.74995">
        <ele>88</ele>
        <time>2015-06-07T08:35:53Z</time>
      </trkpt>
      <trkpt lat="47.87242" lon="-1.74991">
        <ele>88</ele>
        <time>2015-06-07T08:35:54Z</time>
      </trkpt>
      <trkpt lat="47.8724" lon="-1.74988">
        <ele>88</ele>
        <time>2015-06-07T08:35:55Z</time>
      </trkpt>
      <trkpt lat="47.87238" lon="-1.74986">
        <ele>88</ele>
        <time>2015-06-07T08:35:56Z</time>
      </trkpt>
      <trkpt lat="47.87238" lon="-1.74986">
        <ele>88</ele>
        <time>2015-06-07T08:35:57Z</time>
      </trkpt>
      <trkpt lat="47.87235" lon="-1.74982">
        <ele>87</ele>
        <time>2015-06-07T08:35:58Z</time>
      </trkpt>
      <trkpt lat="47.87233" lon="-1.74979">
        <ele>87</ele>
        <time>2015-06-07T08:35:59Z</time>
      </trkpt>
      <trkpt lat="47.87233" lon="-1.74979">
        <ele>87</ele>
        <time>2015-06-07T08:36:00Z</time>
      </trkpt>
      <trkpt lat="47.87229" lon="-1.74974">
        <ele>87</ele>
        <time>2015-06-07T08:36:01Z</time>
      </trkpt>
      <trkpt lat="47.87229" lon="-1.74972">
        <ele>87</ele>
        <time>2015-06-07T08:36:02Z</time>
      </trkpt>
      <trkpt lat="47.87229" lon="-1.74972">
        <ele>87</ele>
        <time>2015-06-07T08:36:03Z</time>
      </trkpt>
      <trkpt lat="47.87229" lon="-1.74971">
        <ele>87</ele>
        <time>2015-06-07T08:36:04Z</time>
      </trkpt>
      <trkpt lat="47.87229" lon="-1.74971">
        <ele>87</ele>
        <time>2015-06-07T08:36:05Z</time>
      </trkpt>
      <trkpt lat="47.87228" lon="-1.74969">
        <ele>87</ele>
        <time>2015-06-07T08:36:06Z</time>
      </trkpt>
      <trkpt lat="47.87226" lon="-1.74968">
        <ele>87</ele>
        <time>2015-06-07T08:36:07Z</time>
      </trkpt>
      <trkpt lat="47.87226" lon="-1.74966">
        <ele>87</ele>
        <time>2015-06-07T08:36:08Z</time>
      </trkpt>
      <trkpt lat="47.87225" lon="-1.74964">
        <ele>87</ele>
        <time>2015-06-07T08:36:09Z</time>
      </trkpt>
      <trkpt lat="47.87222" lon="-1.74962">
        <ele>87</ele>
        <time>2015-06-07T08:36:10Z</time>
      </trkpt>
      <trkpt lat="47.87219" lon="-1.74962">
        <ele>86</ele>
        <time>2015-06-07T08:36:11Z</time>
      </trkpt>
      <trkpt lat="47.87216" lon="-1.74962">
        <ele>86</ele>
        <time>2015-06-07T08:36:12Z</time>
      </trkpt>
      <trkpt lat="47.87213" lon="-1.74961">
        <ele>86</ele>
        <time>2015-06-07T08:36:13Z</time>
      </trkpt>
      <trkpt lat="47.87211" lon="-1.7496">
        <ele>86</ele>
        <time>2015-06-07T08:36:14Z</time>
      </trkpt>
      <trkpt lat="47.87209" lon="-1.7496">
        <ele>86</ele>
        <time>2015-06-07T08:36:15Z</time>
      </trkpt>
      <trkpt lat="47.87209" lon="-1.74959">
        <ele>85</ele>
        <time>2015-06-07T08:36:16Z</time>
      </trkpt>
      <trkpt lat="47.87207" lon="-1.74958">
        <ele>85</ele>
        <time>2015-06-07T08:36:17Z</time>
      </trkpt>
      <trkpt lat="47.87206" lon="-1.74957">
        <ele>85</ele>
        <time>2015-06-07T08:36:18Z</time>
      </trkpt>
      <trkpt lat="47.87206" lon="-1.74957">
        <ele>85</ele>
        <time>2015-06-07T08:36:19Z</time>
      </trkpt>
      <trkpt lat="47.87203" lon="-1.74953">
        <ele>85</ele>
        <time>2015-06-07T08:36:20Z</time>
      </trkpt>
      <trkpt lat="47.87203" lon="-1.74951">
        <ele>85</ele>
        <time>2015-06-07T08:36:21Z</time>
      </trkpt>
      <trkpt lat="47.87201" lon="-1.74949">
        <ele>85</ele>
        <time>2015-06-07T08:36:22Z</time>
      </trkpt>
      <trkpt lat="47.87201" lon="-1.74949">
        <ele>85</ele>
        <time>2015-06-07T08:36:23Z</time>
      </trkpt>
      <trkpt lat="47.87199" lon="-1.74947">
        <ele>85</ele>
        <time>2015-06-07T08:36:24Z</time>
      </trkpt>
      <trkpt lat="47.87198" lon="-1.74947">
        <ele>85</ele>
        <time>2015-06-07T08:36:25Z</time>
      </trkpt>
      <trkpt lat="47.87196" lon="-1.74946">
        <ele>85</ele>
        <time>2015-06-07T08:36:26Z</time>
      </trkpt>
      <trkpt lat="47.87194" lon="-1.74945">
        <ele>85</ele>
        <time>2015-06-07T08:36:27Z</time>
      </trkpt>
      <trkpt lat="47.87192" lon="-1.74946">
        <ele>85</ele>
        <time>2015-06-07T08:36:28Z</time>
      </trkpt>
      <trkpt lat="47.8719" lon="-1.74948">
        <ele>85</ele>
        <time>2015-06-07T08:36:29Z</time>
      </trkpt>
      <trkpt lat="47.87188" lon="-1.74949">
        <ele>85</ele>
        <time>2015-06-07T08:36:30Z</time>
      </trkpt>
      <trkpt lat="47.87186" lon="-1.74948">
        <ele>85</ele>
        <time>2015-06-07T08:36:31Z</time>
      </trkpt>
      <trkpt lat="47.87183" lon="-1.74946">
        <ele>85</ele>
        <time>2015-06-07T08:36:32Z</time>
      </trkpt>
      <trkpt lat="47.87181" lon="-1.74945">
        <ele>85</ele>
        <time>2015-06-07T08:36:33Z</time>
      </trkpt>
      <trkpt lat="47.8718" lon="-1.74943">
        <ele>85</ele>
        <time>2015-06-07T08:36:34Z</time>
      </trkpt>
      <trkpt lat="47.8718" lon="-1.74943">
        <ele>85</ele>
        <time>2015-06-07T08:36:35Z</time>
      </trkpt>
      <trkpt lat="47.87178" lon="-1.7494">
        <ele>85</ele>
        <time>2015-06-07T08:36:36Z</time>
      </trkpt>
      <trkpt lat="47.87177" lon="-1.74938">
        <ele>85</ele>
        <time>2015-06-07T08:36:37Z</time>
      </trkpt>
      <trkpt lat="47.87175" lon="-1.74937">
        <ele>85</ele>
        <time>2015-06-07T08:36:38Z</time>
      </trkpt>
      <trkpt lat="47.87175" lon="-1.74937">
        <ele>85</ele>
        <time>2015-06-07T08:36:39Z</time>
      </trkpt>
      <trkpt lat="47.87173" lon="-1.74936">
        <ele>85</ele>
        <time>2015-06-07T08:36:40Z</time>
      </trkpt>
      <trkpt lat="47.87171" lon="-1.74934">
        <ele>85</ele>
        <time>2015-06-07T08:36:41Z</time>
      </trkpt>
      <trkpt lat="47.8717" lon="-1.74933">
        <ele>85</ele>
        <time>2015-06-07T08:36:42Z</time>
      </trkpt>
      <trkpt lat="47.87169" lon="-1.74932">
        <ele>85</ele>
        <time>2015-06-07T08:36:43Z</time>
      </trkpt>
      <trkpt lat="47.87169" lon="-1.7493">
        <ele>85</ele>
        <time>2015-06-07T08:36:44Z</time>
      </trkpt>
      <trkpt lat="47.87168" lon="-1.74927">
        <ele>85</ele>
        <time>2015-06-07T08:36:45Z</time>
      </trkpt>
      <trkpt lat="47.87167" lon="-1.74924">
        <ele>85</ele>
        <time>2015-06-07T08:36:46Z</time>
      </trkpt>
      <trkpt lat="47.87167" lon="-1.74922">
        <ele>85</ele>
        <time>2015-06-07T08:36:47Z</time>
      </trkpt>
      <trkpt lat="47.87167" lon="-1.74922">
        <ele>85</ele>
        <time>2015-06-07T08:36:48Z</time>
      </trkpt>
      <trkpt lat="47.87166" lon="-1.74918">
        <ele>85</ele>
        <time>2015-06-07T08:36:49Z</time>
      </trkpt>
      <trkpt lat="47.87166" lon="-1.74914">
        <ele>85</ele>
        <time>2015-06-07T08:36:50Z</time>
      </trkpt>
      <trkpt lat="47.87166" lon="-1.74914">
        <ele>85</ele>
        <time>2015-06-07T08:36:51Z</time>
      </trkpt>
      <trkpt lat="47.87165" lon="-1.74912">
        <ele>85</ele>
        <time>2015-06-07T08:36:52Z</time>
      </trkpt>
      <trkpt lat="47.87165" lon="-1.7491">
        <ele>85</ele>
        <time>2015-06-07T08:36:53Z</time>
      </trkpt>
      <trkpt lat="47.87164" lon="-1.74908">
        <ele>85</ele>
        <time>2015-06-07T08:36:54Z</time>
      </trkpt>
      <trkpt lat="47.87162" lon="-1.74907">
        <ele>85</ele>
        <time>2015-06-07T08:36:55Z</time>
      </trkpt>
      <trkpt lat="47.8716" lon="-1.74906">
        <ele>85</ele>
        <time>2015-06-07T08:36:56Z</time>
      </trkpt>
      <trkpt lat="47.87159" lon="-1.74903">
        <ele>85</ele>
        <time>2015-06-07T08:36:57Z</time>
      </trkpt>
      <trkpt lat="47.87154" lon="-1.74897">
        <ele>85</ele>
        <time>2015-06-07T08:36:58Z</time>
      </trkpt>
      <trkpt lat="47.87154" lon="-1.74897">
        <ele>85</ele>
        <time>2015-06-07T08:36:59Z</time>
      </trkpt>
      <trkpt lat="47.87151" lon="-1.74896">
        <ele>86</ele>
        <time>2015-06-07T08:37:00Z</time>
      </trkpt>
      <trkpt lat="47.87146" lon="-1.74896">
        <ele>86</ele>
        <time>2015-06-07T08:37:01Z</time>
      </trkpt>
      <trkpt lat="47.87143" lon="-1.74897">
        <ele>86</ele>
        <time>2015-06-07T08:37:02Z</time>
      </trkpt>
      <trkpt lat="47.87143" lon="-1.74897">
        <ele>86</ele>
        <time>2015-06-07T08:37:03Z</time>
      </trkpt>
      <trkpt lat="47.8714" lon="-1.74898">
        <ele>86</ele>
        <time>2015-06-07T08:37:04Z</time>
      </trkpt>
      <trkpt lat="47.87136" lon="-1.74899">
        <ele>86</ele>
        <time>2015-06-07T08:37:05Z</time>
      </trkpt>
      <trkpt lat="47.87129" lon="-1.74899">
        <ele>85</ele>
        <time>2015-06-07T08:37:06Z</time>
      </trkpt>
      <trkpt lat="47.87125" lon="-1.74898">
        <ele>85</ele>
        <time>2015-06-07T08:37:07Z</time>
      </trkpt>
      <trkpt lat="47.87125" lon="-1.74898">
        <ele>85</ele>
        <time>2015-06-07T08:37:08Z</time>
      </trkpt>
      <trkpt lat="47.87122" lon="-1.74897">
        <ele>85</ele>
        <time>2015-06-07T08:37:09Z</time>
      </trkpt>
      <trkpt lat="47.87119" lon="-1.74896">
        <ele>85</ele>
        <time>2015-06-07T08:37:10Z</time>
      </trkpt>
      <trkpt lat="47.87117" lon="-1.74895">
        <ele>84</ele>
        <time>2015-06-07T08:37:11Z</time>
      </trkpt>
      <trkpt lat="47.87114" lon="-1.74895">
        <ele>84</ele>
        <time>2015-06-07T08:37:12Z</time>
      </trkpt>
      <trkpt lat="47.87112" lon="-1.74894">
        <ele>83</ele>
        <time>2015-06-07T08:37:13Z</time>
      </trkpt>
      <trkpt lat="47.8711" lon="-1.74893">
        <ele>83</ele>
        <time>2015-06-07T08:37:14Z</time>
      </trkpt>
      <trkpt lat="47.87108" lon="-1.74892">
        <ele>83</ele>
        <time>2015-06-07T08:37:15Z</time>
      </trkpt>
      <trkpt lat="47.87103" lon="-1.74889">
        <ele>82</ele>
        <time>2015-06-07T08:37:16Z</time>
      </trkpt>
      <trkpt lat="47.87101" lon="-1.74887">
        <ele>82</ele>
        <time>2015-06-07T08:37:17Z</time>
      </trkpt>
      <trkpt lat="47.87098" lon="-1.74885">
        <ele>81</ele>
        <time>2015-06-07T08:37:18Z</time>
      </trkpt>
      <trkpt lat="47.87096" lon="-1.74884">
        <ele>81</ele>
        <time>2015-06-07T08:37:19Z</time>
      </trkpt>
      <trkpt lat="47.87096" lon="-1.74884">
        <ele>81</ele>
        <time>2015-06-07T08:37:20Z</time>
      </trkpt>
      <trkpt lat="47.87094" lon="-1.74884">
        <ele>81</ele>
        <time>2015-06-07T08:37:21Z</time>
      </trkpt>
      <trkpt lat="47.87088" lon="-1.74883">
        <ele>81</ele>
        <time>2015-06-07T08:37:22Z</time>
      </trkpt>
      <trkpt lat="47.87085" lon="-1.74882">
        <ele>81</ele>
        <time>2015-06-07T08:37:23Z</time>
      </trkpt>
      <trkpt lat="47.87082" lon="-1.7488">
        <ele>80</ele>
        <time>2015-06-07T08:37:24Z</time>
      </trkpt>
      <trkpt lat="47.87079" lon="-1.74878">
        <ele>80</ele>
        <time>2015-06-07T08:37:25Z</time>
      </trkpt>
      <trkpt lat="47.87079" lon="-1.74878">
        <ele>80</ele>
        <time>2015-06-07T08:37:26Z</time>
      </trkpt>
      <trkpt lat="47.87076" lon="-1.74876">
        <ele>80</ele>
        <time>2015-06-07T08:37:27Z</time>
      </trkpt>
      <trkpt lat="47.87073" lon="-1.74874">
        <ele>80</ele>
        <time>2015-06-07T08:37:28Z</time>
      </trkpt>
      <trkpt lat="47.87067" lon="-1.74872">
        <ele>80</ele>
        <time>2015-06-07T08:37:29Z</time>
      </trkpt>
      <trkpt lat="47.87064" lon="-1.7487">
        <ele>80</ele>
        <time>2015-06-07T08:37:30Z</time>
      </trkpt>
      <trkpt lat="47.87064" lon="-1.7487">
        <ele>80</ele>
        <time>2015-06-07T08:37:31Z</time>
      </trkpt>
      <trkpt lat="47.87062" lon="-1.74869">
        <ele>79</ele>
        <time>2015-06-07T08:37:32Z</time>
      </trkpt>
      <trkpt lat="47.87061" lon="-1.74866">
        <ele>79</ele>
        <time>2015-06-07T08:37:33Z</time>
      </trkpt>
      <trkpt lat="47.87059" lon="-1.74864">
        <ele>79</ele>
        <time>2015-06-07T08:37:34Z</time>
      </trkpt>
      <trkpt lat="47.87057" lon="-1.74862">
        <ele>80</ele>
        <time>2015-06-07T08:37:35Z</time>
      </trkpt>
      <trkpt lat="47.87051" lon="-1.74858">
        <ele>80</ele>
        <time>2015-06-07T08:37:36Z</time>
      </trkpt>
      <trkpt lat="47.87048" lon="-1.74856">
        <ele>80</ele>
        <time>2015-06-07T08:37:37Z</time>
      </trkpt>
      <trkpt lat="47.87045" lon="-1.74855">
        <ele>80</ele>
        <time>2015-06-07T08:37:38Z</time>
      </trkpt>
      <trkpt lat="47.87045" lon="-1.74855">
        <ele>80</ele>
        <time>2015-06-07T08:37:39Z</time>
      </trkpt>
      <trkpt lat="47.87038" lon="-1.74852">
        <ele>80</ele>
        <time>2015-06-07T08:37:40Z</time>
      </trkpt>
      <trkpt lat="47.87038" lon="-1.74852">
        <ele>80</ele>
        <time>2015-06-07T08:37:41Z</time>
      </trkpt>
      <trkpt lat="47.87033" lon="-1.74853">
        <ele>80</ele>
        <time>2015-06-07T08:37:42Z</time>
      </trkpt>
      <trkpt lat="47.87033" lon="-1.74853">
        <ele>80</ele>
        <time>2015-06-07T08:37:43Z</time>
      </trkpt>
      <trkpt lat="47.87031" lon="-1.74852">
        <ele>80</ele>
        <time>2015-06-07T08:37:44Z</time>
      </trkpt>
      <trkpt lat="47.87029" lon="-1.74851">
        <ele>80</ele>
        <time>2015-06-07T08:37:45Z</time>
      </trkpt>
      <trkpt lat="47.87023" lon="-1.74848">
        <ele>80</ele>
        <time>2015-06-07T08:37:46Z</time>
      </trkpt>
      <trkpt lat="47.87019" lon="-1.74847">
        <ele>81</ele>
        <time>2015-06-07T08:37:47Z</time>
      </trkpt>
      <trkpt lat="47.87017" lon="-1.74846">
        <ele>81</ele>
        <time>2015-06-07T08:37:48Z</time>
      </trkpt>
      <trkpt lat="47.87014" lon="-1.74844">
        <ele>81</ele>
        <time>2015-06-07T08:37:49Z</time>
      </trkpt>
      <trkpt lat="47.87013" lon="-1.74842">
        <ele>81</ele>
        <time>2015-06-07T08:37:50Z</time>
      </trkpt>
      <trkpt lat="47.87012" lon="-1.7484">
        <ele>81</ele>
        <time>2015-06-07T08:37:51Z</time>
      </trkpt>
      <trkpt lat="47.87012" lon="-1.74836">
        <ele>81</ele>
        <time>2015-06-07T08:37:52Z</time>
      </trkpt>
      <trkpt lat="47.87012" lon="-1.74833">
        <ele>81</ele>
        <time>2015-06-07T08:37:53Z</time>
      </trkpt>
      <trkpt lat="47.87013" lon="-1.74829">
        <ele>81</ele>
        <time>2015-06-07T08:37:54Z</time>
      </trkpt>
      <trkpt lat="47.87013" lon="-1.74829">
        <ele>81</ele>
        <time>2015-06-07T08:37:55Z</time>
      </trkpt>
      <trkpt lat="47.87013" lon="-1.74826">
        <ele>81</ele>
        <time>2015-06-07T08:37:56Z</time>
      </trkpt>
      <trkpt lat="47.87014" lon="-1.74822">
        <ele>82</ele>
        <time>2015-06-07T08:37:57Z</time>
      </trkpt>
      <trkpt lat="47.87013" lon="-1.7482">
        <ele>82</ele>
        <time>2015-06-07T08:37:58Z</time>
      </trkpt>
      <trkpt lat="47.87012" lon="-1.7482">
        <ele>82</ele>
        <time>2015-06-07T08:37:59Z</time>
      </trkpt>
      <trkpt lat="47.87012" lon="-1.7482">
        <ele>82</ele>
        <time>2015-06-07T08:38:00Z</time>
      </trkpt>
      <trkpt lat="47.87011" lon="-1.74818">
        <ele>82</ele>
        <time>2015-06-07T08:38:01Z</time>
      </trkpt>
      <trkpt lat="47.8701" lon="-1.74817">
        <ele>82</ele>
        <time>2015-06-07T08:38:02Z</time>
      </trkpt>
      <trkpt lat="47.8701" lon="-1.74816">
        <ele>82</ele>
        <time>2015-06-07T08:38:03Z</time>
      </trkpt>
      <trkpt lat="47.87009" lon="-1.74815">
        <ele>82</ele>
        <time>2015-06-07T08:38:04Z</time>
      </trkpt>
      <trkpt lat="47.87008" lon="-1.74814">
        <ele>83</ele>
        <time>2015-06-07T08:38:05Z</time>
      </trkpt>
      <trkpt lat="47.87005" lon="-1.74811">
        <ele>83</ele>
        <time>2015-06-07T08:38:06Z</time>
      </trkpt>
      <trkpt lat="47.87005" lon="-1.74811">
        <ele>83</ele>
        <time>2015-06-07T08:38:07Z</time>
      </trkpt>
      <trkpt lat="47.87004" lon="-1.74808">
        <ele>83</ele>
        <time>2015-06-07T08:38:08Z</time>
      </trkpt>
      <trkpt lat="47.87003" lon="-1.74806">
        <ele>83</ele>
        <time>2015-06-07T08:38:09Z</time>
      </trkpt>
      <trkpt lat="47.87002" lon="-1.74805">
        <ele>84</ele>
        <time>2015-06-07T08:38:10Z</time>
      </trkpt>
      <trkpt lat="47.87" lon="-1.74804">
        <ele>84</ele>
        <time>2015-06-07T08:38:11Z</time>
      </trkpt>
      <trkpt lat="47.86999" lon="-1.74804">
        <ele>84</ele>
        <time>2015-06-07T08:38:12Z</time>
      </trkpt>
      <trkpt lat="47.86996" lon="-1.74807">
        <ele>85</ele>
        <time>2015-06-07T08:38:13Z</time>
      </trkpt>
      <trkpt lat="47.86994" lon="-1.74807">
        <ele>85</ele>
        <time>2015-06-07T08:38:14Z</time>
      </trkpt>
      <trkpt lat="47.86992" lon="-1.74807">
        <ele>85</ele>
        <time>2015-06-07T08:38:15Z</time>
      </trkpt>
      <trkpt lat="47.86992" lon="-1.74807">
        <ele>85</ele>
        <time>2015-06-07T08:38:16Z</time>
      </trkpt>
      <trkpt lat="47.86986" lon="-1.74808">
        <ele>85</ele>
        <time>2015-06-07T08:38:17Z</time>
      </trkpt>
      <trkpt lat="47.86986" lon="-1.74808">
        <ele>85</ele>
        <time>2015-06-07T08:38:18Z</time>
      </trkpt>
      <trkpt lat="47.86983" lon="-1.74809">
        <ele>85</ele>
        <time>2015-06-07T08:38:19Z</time>
      </trkpt>
      <trkpt lat="47.8698" lon="-1.74808">
        <ele>85</ele>
        <time>2015-06-07T08:38:20Z</time>
      </trkpt>
      <trkpt lat="47.86978" lon="-1.74807">
        <ele>85</ele>
        <time>2015-06-07T08:38:21Z</time>
      </trkpt>
      <trkpt lat="47.86976" lon="-1.74808">
        <ele>85</ele>
        <time>2015-06-07T08:38:22Z</time>
      </trkpt>
      <trkpt lat="47.86975" lon="-1.74807">
        <ele>85</ele>
        <time>2015-06-07T08:38:23Z</time>
      </trkpt>
      <trkpt lat="47.86974" lon="-1.74807">
        <ele>86</ele>
        <time>2015-06-07T08:38:24Z</time>
      </trkpt>
      <trkpt lat="47.86973" lon="-1.74806">
        <ele>86</ele>
        <time>2015-06-07T08:38:25Z</time>
      </trkpt>
      <trkpt lat="47.86972" lon="-1.74806">
        <ele>86</ele>
        <time>2015-06-07T08:38:26Z</time>
      </trkpt>
      <trkpt lat="47.8697" lon="-1.74805">
        <ele>86</ele>
        <time>2015-06-07T08:38:27Z</time>
      </trkpt>
      <trkpt lat="47.86969" lon="-1.74804">
        <ele>87</ele>
        <time>2015-06-07T08:38:28Z</time>
      </trkpt>
      <trkpt lat="47.86968" lon="-1.74802">
        <ele>87</ele>
        <time>2015-06-07T08:38:29Z</time>
      </trkpt>
      <trkpt lat="47.86966" lon="-1.74801">
        <ele>88</ele>
        <time>2015-06-07T08:38:30Z</time>
      </trkpt>
      <trkpt lat="47.86966" lon="-1.74801">
        <ele>88</ele>
        <time>2015-06-07T08:38:31Z</time>
      </trkpt>
      <trkpt lat="47.86965" lon="-1.74801">
        <ele>88</ele>
        <time>2015-06-07T08:38:32Z</time>
      </trkpt>
      <trkpt lat="47.86965" lon="-1.748">
        <ele>88</ele>
        <time>2015-06-07T08:38:33Z</time>
      </trkpt>
      <trkpt lat="47.86963" lon="-1.74798">
        <ele>89</ele>
        <time>2015-06-07T08:38:34Z</time>
      </trkpt>
      <trkpt lat="47.86963" lon="-1.74798">
        <ele>89</ele>
        <time>2015-06-07T08:38:35Z</time>
      </trkpt>
      <trkpt lat="47.86962" lon="-1.74797">
        <ele>89</ele>
        <time>2015-06-07T08:38:36Z</time>
      </trkpt>
      <trkpt lat="47.8696" lon="-1.74794">
        <ele>90</ele>
        <time>2015-06-07T08:38:37Z</time>
      </trkpt>
      <trkpt lat="47.86959" lon="-1.74792">
        <ele>90</ele>
        <time>2015-06-07T08:38:38Z</time>
      </trkpt>
      <trkpt lat="47.86958" lon="-1.74791">
        <ele>91</ele>
        <time>2015-06-07T08:38:39Z</time>
      </trkpt>
      <trkpt lat="47.86958" lon="-1.74791">
        <ele>91</ele>
        <time>2015-06-07T08:38:40Z</time>
      </trkpt>
      <trkpt lat="47.86955" lon="-1.74787">
        <ele>91</ele>
        <time>2015-06-07T08:38:41Z</time>
      </trkpt>
      <trkpt lat="47.86955" lon="-1.74787">
        <ele>91</ele>
        <time>2015-06-07T08:38:42Z</time>
      </trkpt>
      <trkpt lat="47.86951" lon="-1.74784">
        <ele>92</ele>
        <time>2015-06-07T08:38:43Z</time>
      </trkpt>
      <trkpt lat="47.86951" lon="-1.74784">
        <ele>92</ele>
        <time>2015-06-07T08:38:44Z</time>
      </trkpt>
      <trkpt lat="47.86945" lon="-1.74781">
        <ele>93</ele>
        <time>2015-06-07T08:38:45Z</time>
      </trkpt>
      <trkpt lat="47.86943" lon="-1.7478">
        <ele>93</ele>
        <time>2015-06-07T08:38:46Z</time>
      </trkpt>
      <trkpt lat="47.86943" lon="-1.7478">
        <ele>93</ele>
        <time>2015-06-07T08:38:47Z</time>
      </trkpt>
      <trkpt lat="47.86941" lon="-1.74779">
        <ele>94</ele>
        <time>2015-06-07T08:38:48Z</time>
      </trkpt>
      <trkpt lat="47.86938" lon="-1.74779">
        <ele>94</ele>
        <time>2015-06-07T08:38:49Z</time>
      </trkpt>
      <trkpt lat="47.86933" lon="-1.74778">
        <ele>95</ele>
        <time>2015-06-07T08:38:50Z</time>
      </trkpt>
      <trkpt lat="47.86933" lon="-1.74778">
        <ele>95</ele>
        <time>2015-06-07T08:38:51Z</time>
      </trkpt>
      <trkpt lat="47.8693" lon="-1.74778">
        <ele>95</ele>
        <time>2015-06-07T08:38:52Z</time>
      </trkpt>
      <trkpt lat="47.86927" lon="-1.74779">
        <ele>95</ele>
        <time>2015-06-07T08:38:53Z</time>
      </trkpt>
      <trkpt lat="47.8692" lon="-1.74783">
        <ele>96</ele>
        <time>2015-06-07T08:38:54Z</time>
      </trkpt>
      <trkpt lat="47.86916" lon="-1.74784">
        <ele>96</ele>
        <time>2015-06-07T08:38:55Z</time>
      </trkpt>
      <trkpt lat="47.86916" lon="-1.74784">
        <ele>96</ele>
        <time>2015-06-07T08:38:56Z</time>
      </trkpt>
      <trkpt lat="47.86913" lon="-1.74786">
        <ele>96</ele>
        <time>2015-06-07T08:38:57Z</time>
      </trkpt>
      <trkpt lat="47.86907" lon="-1.74788">
        <ele>96</ele>
        <time>2015-06-07T08:38:58Z</time>
      </trkpt>
      <trkpt lat="47.86905" lon="-1.74789">
        <ele>96</ele>
        <time>2015-06-07T08:38:59Z</time>
      </trkpt>
      <trkpt lat="47.86905" lon="-1.74789">
        <ele>96</ele>
        <time>2015-06-07T08:39:00Z</time>
      </trkpt>
      <trkpt lat="47.86904" lon="-1.74791">
        <ele>96</ele>
        <time>2015-06-07T08:39:01Z</time>
      </trkpt>
      <trkpt lat="47.86901" lon="-1.74793">
        <ele>96</ele>
        <time>2015-06-07T08:39:02Z</time>
      </trkpt>
      <trkpt lat="47.86898" lon="-1.74795">
        <ele>95</ele>
        <time>2015-06-07T08:39:03Z</time>
      </trkpt>
      <trkpt lat="47.86894" lon="-1.74797">
        <ele>95</ele>
        <time>2015-06-07T08:39:04Z</time>
      </trkpt>
      <trkpt lat="47.86891" lon="-1.74798">
        <ele>95</ele>
        <time>2015-06-07T08:39:05Z</time>
      </trkpt>
      <trkpt lat="47.86887" lon="-1.74798">
        <ele>95</ele>
        <time>2015-06-07T08:39:06Z</time>
      </trkpt>
      <trkpt lat="47.86883" lon="-1.74798">
        <ele>95</ele>
        <time>2015-06-07T08:39:07Z</time>
      </trkpt>
      <trkpt lat="47.86877" lon="-1.748">
        <ele>95</ele>
        <time>2015-06-07T08:39:08Z</time>
      </trkpt>
      <trkpt lat="47.86873" lon="-1.748">
        <ele>95</ele>
        <time>2015-06-07T08:39:09Z</time>
      </trkpt>
      <trkpt lat="47.86871" lon="-1.74799">
        <ele>95</ele>
        <time>2015-06-07T08:39:10Z</time>
      </trkpt>
      <trkpt lat="47.86868" lon="-1.74797">
        <ele>95</ele>
        <time>2015-06-07T08:39:11Z</time>
      </trkpt>
      <trkpt lat="47.86868" lon="-1.74795">
        <ele>95</ele>
        <time>2015-06-07T08:39:12Z</time>
      </trkpt>
      <trkpt lat="47.86868" lon="-1.74795">
        <ele>95</ele>
        <time>2015-06-07T08:39:13Z</time>
      </trkpt>
      <trkpt lat="47.86868" lon="-1.74794">
        <ele>95</ele>
        <time>2015-06-07T08:39:14Z</time>
      </trkpt>
      <trkpt lat="47.86867" lon="-1.74793">
        <ele>95</ele>
        <time>2015-06-07T08:39:15Z</time>
      </trkpt>
      <trkpt lat="47.86867" lon="-1.74792">
        <ele>95</ele>
        <time>2015-06-07T08:39:16Z</time>
      </trkpt>
      <trkpt lat="47.86867" lon="-1.74791">
        <ele>95</ele>
        <time>2015-06-07T08:39:17Z</time>
      </trkpt>
      <trkpt lat="47.86866" lon="-1.7479">
        <ele>95</ele>
        <time>2015-06-07T08:39:18Z</time>
      </trkpt>
      <trkpt lat="47.86866" lon="-1.74789">
        <ele>95</ele>
        <time>2015-06-07T08:39:19Z</time>
      </trkpt>
      <trkpt lat="47.86866" lon="-1.74788">
        <ele>96</ele>
        <time>2015-06-07T08:39:20Z</time>
      </trkpt>
      <trkpt lat="47.86867" lon="-1.74787">
        <ele>96</ele>
        <time>2015-06-07T08:39:21Z</time>
      </trkpt>
      <trkpt lat="47.86867" lon="-1.74785">
        <ele>96</ele>
        <time>2015-06-07T08:39:22Z</time>
      </trkpt>
      <trkpt lat="47.86868" lon="-1.74784">
        <ele>96</ele>
        <time>2015-06-07T08:39:23Z</time>
      </trkpt>
      <trkpt lat="47.86869" lon="-1.7478">
        <ele>96</ele>
        <time>2015-06-07T08:39:24Z</time>
      </trkpt>
      <trkpt lat="47.8687" lon="-1.74778">
        <ele>96</ele>
        <time>2015-06-07T08:39:25Z</time>
      </trkpt>
      <trkpt lat="47.86871" lon="-1.74776">
        <ele>96</ele>
        <time>2015-06-07T08:39:26Z</time>
      </trkpt>
      <trkpt lat="47.86871" lon="-1.74776">
        <ele>96</ele>
        <time>2015-06-07T08:39:27Z</time>
      </trkpt>
      <trkpt lat="47.86871" lon="-1.74774">
        <ele>96</ele>
        <time>2015-06-07T08:39:28Z</time>
      </trkpt>
      <trkpt lat="47.86871" lon="-1.74771">
        <ele>96</ele>
        <time>2015-06-07T08:39:29Z</time>
      </trkpt>
      <trkpt lat="47.86871" lon="-1.74769">
        <ele>96</ele>
        <time>2015-06-07T08:39:30Z</time>
      </trkpt>
      <trkpt lat="47.86872" lon="-1.74767">
        <ele>96</ele>
        <time>2015-06-07T08:39:31Z</time>
      </trkpt>
      <trkpt lat="47.86873" lon="-1.74764">
        <ele>96</ele>
        <time>2015-06-07T08:39:32Z</time>
      </trkpt>
      <trkpt lat="47.86874" lon="-1.74762">
        <ele>96</ele>
        <time>2015-06-07T08:39:33Z</time>
      </trkpt>
      <trkpt lat="47.86875" lon="-1.74759">
        <ele>97</ele>
        <time>2015-06-07T08:39:34Z</time>
      </trkpt>
      <trkpt lat="47.86876" lon="-1.74757">
        <ele>97</ele>
        <time>2015-06-07T08:39:35Z</time>
      </trkpt>
      <trkpt lat="47.86876" lon="-1.74755">
        <ele>97</ele>
        <time>2015-06-07T08:39:36Z</time>
      </trkpt>
      <trkpt lat="47.86877" lon="-1.74752">
        <ele>97</ele>
        <time>2015-06-07T08:39:37Z</time>
      </trkpt>
      <trkpt lat="47.86879" lon="-1.74746">
        <ele>97</ele>
        <time>2015-06-07T08:39:38Z</time>
      </trkpt>
      <trkpt lat="47.86879" lon="-1.74746">
        <ele>97</ele>
        <time>2015-06-07T08:39:39Z</time>
      </trkpt>
      <trkpt lat="47.8688" lon="-1.74744">
        <ele>97</ele>
        <time>2015-06-07T08:39:40Z</time>
      </trkpt>
      <trkpt lat="47.86881" lon="-1.74741">
        <ele>97</ele>
        <time>2015-06-07T08:39:41Z</time>
      </trkpt>
      <trkpt lat="47.86882" lon="-1.74738">
        <ele>97</ele>
        <time>2015-06-07T08:39:42Z</time>
      </trkpt>
      <trkpt lat="47.86883" lon="-1.74735">
        <ele>98</ele>
        <time>2015-06-07T08:39:43Z</time>
      </trkpt>
      <trkpt lat="47.86883" lon="-1.74733">
        <ele>98</ele>
        <time>2015-06-07T08:39:44Z</time>
      </trkpt>
      <trkpt lat="47.86883" lon="-1.7473">
        <ele>98</ele>
        <time>2015-06-07T08:39:45Z</time>
      </trkpt>
      <trkpt lat="47.86884" lon="-1.74727">
        <ele>98</ele>
        <time>2015-06-07T08:39:46Z</time>
      </trkpt>
      <trkpt lat="47.86884" lon="-1.74724">
        <ele>98</ele>
        <time>2015-06-07T08:39:47Z</time>
      </trkpt>
      <trkpt lat="47.86884" lon="-1.74722">
        <ele>98</ele>
        <time>2015-06-07T08:39:48Z</time>
      </trkpt>
      <trkpt lat="47.86883" lon="-1.7472">
        <ele>98</ele>
        <time>2015-06-07T08:39:49Z</time>
      </trkpt>
      <trkpt lat="47.86882" lon="-1.74718">
        <ele>98</ele>
        <time>2015-06-07T08:39:50Z</time>
      </trkpt>
      <trkpt lat="47.86881" lon="-1.74717">
        <ele>98</ele>
        <time>2015-06-07T08:39:51Z</time>
      </trkpt>
      <trkpt lat="47.8688" lon="-1.74717">
        <ele>98</ele>
        <time>2015-06-07T08:39:52Z</time>
      </trkpt>
      <trkpt lat="47.86879" lon="-1.74717">
        <ele>98</ele>
        <time>2015-06-07T08:39:53Z</time>
      </trkpt>
      <trkpt lat="47.86878" lon="-1.74717">
        <ele>98</ele>
        <time>2015-06-07T08:39:54Z</time>
      </trkpt>
      <trkpt lat="47.86877" lon="-1.74718">
        <ele>98</ele>
        <time>2015-06-07T08:39:55Z</time>
      </trkpt>
      <trkpt lat="47.86875" lon="-1.74718">
        <ele>99</ele>
        <time>2015-06-07T08:39:56Z</time>
      </trkpt>
      <trkpt lat="47.86873" lon="-1.74719">
        <ele>99</ele>
        <time>2015-06-07T08:39:57Z</time>
      </trkpt>
      <trkpt lat="47.86871" lon="-1.74719">
        <ele>99</ele>
        <time>2015-06-07T08:39:58Z</time>
      </trkpt>
      <trkpt lat="47.86869" lon="-1.74719">
        <ele>99</ele>
        <time>2015-06-07T08:39:59Z</time>
      </trkpt>
      <trkpt lat="47.86866" lon="-1.74718">
        <ele>99</ele>
        <time>2015-06-07T08:40:00Z</time>
      </trkpt>
      <trkpt lat="47.86863" lon="-1.74717">
        <ele>100</ele>
        <time>2015-06-07T08:40:01Z</time>
      </trkpt>
      <trkpt lat="47.86861" lon="-1.74716">
        <ele>100</ele>
        <time>2015-06-07T08:40:02Z</time>
      </trkpt>
      <trkpt lat="47.86857" lon="-1.74715">
        <ele>100</ele>
        <time>2015-06-07T08:40:03Z</time>
      </trkpt>
      <trkpt lat="47.86855" lon="-1.74715">
        <ele>100</ele>
        <time>2015-06-07T08:40:04Z</time>
      </trkpt>
      <trkpt lat="47.86851" lon="-1.74716">
        <ele>99</ele>
        <time>2015-06-07T08:40:05Z</time>
      </trkpt>
      <trkpt lat="47.86849" lon="-1.74716">
        <ele>99</ele>
        <time>2015-06-07T08:40:06Z</time>
      </trkpt>
      <trkpt lat="47.86846" lon="-1.74715">
        <ele>99</ele>
        <time>2015-06-07T08:40:07Z</time>
      </trkpt>
      <trkpt lat="47.86844" lon="-1.74715">
        <ele>99</ele>
        <time>2015-06-07T08:40:08Z</time>
      </trkpt>
      <trkpt lat="47.86841" lon="-1.74713">
        <ele>99</ele>
        <time>2015-06-07T08:40:09Z</time>
      </trkpt>
      <trkpt lat="47.86838" lon="-1.74712">
        <ele>99</ele>
        <time>2015-06-07T08:40:10Z</time>
      </trkpt>
      <trkpt lat="47.86835" lon="-1.74711">
        <ele>99</ele>
        <time>2015-06-07T08:40:11Z</time>
      </trkpt>
      <trkpt lat="47.86832" lon="-1.74712">
        <ele>99</ele>
        <time>2015-06-07T08:40:12Z</time>
      </trkpt>
      <trkpt lat="47.86829" lon="-1.74711">
        <ele>99</ele>
        <time>2015-06-07T08:40:13Z</time>
      </trkpt>
      <trkpt lat="47.86826" lon="-1.7471">
        <ele>99</ele>
        <time>2015-06-07T08:40:14Z</time>
      </trkpt>
      <trkpt lat="47.86823" lon="-1.74709">
        <ele>99</ele>
        <time>2015-06-07T08:40:15Z</time>
      </trkpt>
      <trkpt lat="47.86819" lon="-1.74709">
        <ele>99</ele>
        <time>2015-06-07T08:40:16Z</time>
      </trkpt>
      <trkpt lat="47.86815" lon="-1.74709">
        <ele>99</ele>
        <time>2015-06-07T08:40:17Z</time>
      </trkpt>
      <trkpt lat="47.86812" lon="-1.74709">
        <ele>99</ele>
        <time>2015-06-07T08:40:18Z</time>
      </trkpt>
      <trkpt lat="47.86808" lon="-1.74711">
        <ele>99</ele>
        <time>2015-06-07T08:40:19Z</time>
      </trkpt>
      <trkpt lat="47.86804" lon="-1.74713">
        <ele>99</ele>
        <time>2015-06-07T08:40:20Z</time>
      </trkpt>
      <trkpt lat="47.868" lon="-1.74716">
        <ele>99</ele>
        <time>2015-06-07T08:40:21Z</time>
      </trkpt>
      <trkpt lat="47.86796" lon="-1.74719">
        <ele>99</ele>
        <time>2015-06-07T08:40:22Z</time>
      </trkpt>
      <trkpt lat="47.86794" lon="-1.74722">
        <ele>99</ele>
        <time>2015-06-07T08:40:23Z</time>
      </trkpt>
      <trkpt lat="47.86791" lon="-1.74724">
        <ele>100</ele>
        <time>2015-06-07T08:40:24Z</time>
      </trkpt>
      <trkpt lat="47.86784" lon="-1.74726">
        <ele>100</ele>
        <time>2015-06-07T08:40:25Z</time>
      </trkpt>
      <trkpt lat="47.86781" lon="-1.74727">
        <ele>100</ele>
        <time>2015-06-07T08:40:26Z</time>
      </trkpt>
      <trkpt lat="47.86781" lon="-1.74727">
        <ele>100</ele>
        <time>2015-06-07T08:40:27Z</time>
      </trkpt>
      <trkpt lat="47.86778" lon="-1.74728">
        <ele>100</ele>
        <time>2015-06-07T08:40:28Z</time>
      </trkpt>
      <trkpt lat="47.86776" lon="-1.7473">
        <ele>100</ele>
        <time>2015-06-07T08:40:29Z</time>
      </trkpt>
      <trkpt lat="47.86773" lon="-1.74731">
        <ele>100</ele>
        <time>2015-06-07T08:40:30Z</time>
      </trkpt>
      <trkpt lat="47.86771" lon="-1.74732">
        <ele>101</ele>
        <time>2015-06-07T08:40:31Z</time>
      </trkpt>
      <trkpt lat="47.86769" lon="-1.74734">
        <ele>101</ele>
        <time>2015-06-07T08:40:32Z</time>
      </trkpt>
      <trkpt lat="47.86763" lon="-1.74737">
        <ele>101</ele>
        <time>2015-06-07T08:40:33Z</time>
      </trkpt>
      <trkpt lat="47.86763" lon="-1.74737">
        <ele>101</ele>
        <time>2015-06-07T08:40:34Z</time>
      </trkpt>
      <trkpt lat="47.86759" lon="-1.74739">
        <ele>101</ele>
        <time>2015-06-07T08:40:35Z</time>
      </trkpt>
      <trkpt lat="47.86755" lon="-1.74742">
        <ele>101</ele>
        <time>2015-06-07T08:40:36Z</time>
      </trkpt>
      <trkpt lat="47.8675" lon="-1.74746">
        <ele>101</ele>
        <time>2015-06-07T08:40:37Z</time>
      </trkpt>
      <trkpt lat="47.86746" lon="-1.74748">
        <ele>101</ele>
        <time>2015-06-07T08:40:38Z</time>
      </trkpt>
      <trkpt lat="47.86743" lon="-1.74749">
        <ele>100</ele>
        <time>2015-06-07T08:40:39Z</time>
      </trkpt>
      <trkpt lat="47.8674" lon="-1.7475">
        <ele>100</ele>
        <time>2015-06-07T08:40:40Z</time>
      </trkpt>
      <trkpt lat="47.86737" lon="-1.74751">
        <ele>100</ele>
        <time>2015-06-07T08:40:41Z</time>
      </trkpt>
      <trkpt lat="47.86735" lon="-1.74754">
        <ele>100</ele>
        <time>2015-06-07T08:40:42Z</time>
      </trkpt>
      <trkpt lat="47.86733" lon="-1.74757">
        <ele>100</ele>
        <time>2015-06-07T08:40:43Z</time>
      </trkpt>
      <trkpt lat="47.86731" lon="-1.74761">
        <ele>101</ele>
        <time>2015-06-07T08:40:44Z</time>
      </trkpt>
      <trkpt lat="47.8673" lon="-1.74764">
        <ele>101</ele>
        <time>2015-06-07T08:40:45Z</time>
      </trkpt>
      <trkpt lat="47.86728" lon="-1.74766">
        <ele>101</ele>
        <time>2015-06-07T08:40:46Z</time>
      </trkpt>
      <trkpt lat="47.86727" lon="-1.74766">
        <ele>101</ele>
        <time>2015-06-07T08:40:47Z</time>
      </trkpt>
      <trkpt lat="47.86726" lon="-1.74767">
        <ele>101</ele>
        <time>2015-06-07T08:40:48Z</time>
      </trkpt>
      <trkpt lat="47.86726" lon="-1.74767">
        <ele>101</ele>
        <time>2015-06-07T08:40:49Z</time>
      </trkpt>
      <trkpt lat="47.86724" lon="-1.74767">
        <ele>101</ele>
        <time>2015-06-07T08:40:50Z</time>
      </trkpt>
      <trkpt lat="47.86722" lon="-1.74769">
        <ele>101</ele>
        <time>2015-06-07T08:40:51Z</time>
      </trkpt>
      <trkpt lat="47.8672" lon="-1.7477">
        <ele>101</ele>
        <time>2015-06-07T08:40:52Z</time>
      </trkpt>
      <trkpt lat="47.86718" lon="-1.74771">
        <ele>101</ele>
        <time>2015-06-07T08:40:53Z</time>
      </trkpt>
      <trkpt lat="47.86717" lon="-1.74771">
        <ele>101</ele>
        <time>2015-06-07T08:40:54Z</time>
      </trkpt>
      <trkpt lat="47.86716" lon="-1.74771">
        <ele>101</ele>
        <time>2015-06-07T08:40:55Z</time>
      </trkpt>
      <trkpt lat="47.86714" lon="-1.7477">
        <ele>101</ele>
        <time>2015-06-07T08:40:56Z</time>
      </trkpt>
      <trkpt lat="47.86713" lon="-1.7477">
        <ele>101</ele>
        <time>2015-06-07T08:40:57Z</time>
      </trkpt>
      <trkpt lat="47.86712" lon="-1.7477">
        <ele>101</ele>
        <time>2015-06-07T08:40:58Z</time>
      </trkpt>
      <trkpt lat="47.86711" lon="-1.7477">
        <ele>101</ele>
        <time>2015-06-07T08:40:59Z</time>
      </trkpt>
      <trkpt lat="47.8671" lon="-1.7477">
        <ele>101</ele>
        <time>2015-06-07T08:41:00Z</time>
      </trkpt>
      <trkpt lat="47.86709" lon="-1.74771">
        <ele>101</ele>
        <time>2015-06-07T08:41:01Z</time>
      </trkpt>
      <trkpt lat="47.86709" lon="-1.7477">
        <ele>102</ele>
        <time>2015-06-07T08:41:02Z</time>
      </trkpt>
      <trkpt lat="47.86708" lon="-1.7477">
        <ele>102</ele>
        <time>2015-06-07T08:41:03Z</time>
      </trkpt>
      <trkpt lat="47.86707" lon="-1.7477">
        <ele>102</ele>
        <time>2015-06-07T08:41:04Z</time>
      </trkpt>
      <trkpt lat="47.86706" lon="-1.7477">
        <ele>102</ele>
        <time>2015-06-07T08:41:05Z</time>
      </trkpt>
      <trkpt lat="47.86705" lon="-1.7477">
        <ele>102</ele>
        <time>2015-06-07T08:41:06Z</time>
      </trkpt>
      <trkpt lat="47.86705" lon="-1.74769">
        <ele>102</ele>
        <time>2015-06-07T08:41:07Z</time>
      </trkpt>
      <trkpt lat="47.86704" lon="-1.74769">
        <ele>102</ele>
        <time>2015-06-07T08:41:08Z</time>
      </trkpt>
      <trkpt lat="47.86704" lon="-1.74768">
        <ele>102</ele>
        <time>2015-06-07T08:41:09Z</time>
      </trkpt>
      <trkpt lat="47.86703" lon="-1.74766">
        <ele>102</ele>
        <time>2015-06-07T08:41:10Z</time>
      </trkpt>
      <trkpt lat="47.86701" lon="-1.74765">
        <ele>102</ele>
        <time>2015-06-07T08:41:11Z</time>
      </trkpt>
      <trkpt lat="47.86701" lon="-1.74763">
        <ele>102</ele>
        <time>2015-06-07T08:41:12Z</time>
      </trkpt>
      <trkpt lat="47.867" lon="-1.74762">
        <ele>102</ele>
        <time>2015-06-07T08:41:13Z</time>
      </trkpt>
      <trkpt lat="47.86698" lon="-1.74762">
        <ele>102</ele>
        <time>2015-06-07T08:41:14Z</time>
      </trkpt>
      <trkpt lat="47.86697" lon="-1.74763">
        <ele>102</ele>
        <time>2015-06-07T08:41:15Z</time>
      </trkpt>
      <trkpt lat="47.86695" lon="-1.74763">
        <ele>102</ele>
        <time>2015-06-07T08:41:16Z</time>
      </trkpt>
      <trkpt lat="47.86693" lon="-1.74763">
        <ele>102</ele>
        <time>2015-06-07T08:41:17Z</time>
      </trkpt>
      <trkpt lat="47.86691" lon="-1.74762">
        <ele>101</ele>
        <time>2015-06-07T08:41:18Z</time>
      </trkpt>
      <trkpt lat="47.86688" lon="-1.74761">
        <ele>101</ele>
        <time>2015-06-07T08:41:19Z</time>
      </trkpt>
      <trkpt lat="47.86686" lon="-1.74761">
        <ele>101</ele>
        <time>2015-06-07T08:41:20Z</time>
      </trkpt>
      <trkpt lat="47.86684" lon="-1.74761">
        <ele>101</ele>
        <time>2015-06-07T08:41:21Z</time>
      </trkpt>
      <trkpt lat="47.86682" lon="-1.74761">
        <ele>101</ele>
        <time>2015-06-07T08:41:22Z</time>
      </trkpt>
      <trkpt lat="47.86678" lon="-1.7476">
        <ele>102</ele>
        <time>2015-06-07T08:41:23Z</time>
      </trkpt>
      <trkpt lat="47.86678" lon="-1.7476">
        <ele>102</ele>
        <time>2015-06-07T08:41:24Z</time>
      </trkpt>
      <trkpt lat="47.86676" lon="-1.7476">
        <ele>102</ele>
        <time>2015-06-07T08:41:25Z</time>
      </trkpt>
      <trkpt lat="47.86674" lon="-1.74761">
        <ele>102</ele>
        <time>2015-06-07T08:41:26Z</time>
      </trkpt>
      <trkpt lat="47.86673" lon="-1.74761">
        <ele>102</ele>
        <time>2015-06-07T08:41:27Z</time>
      </trkpt>
      <trkpt lat="47.86672" lon="-1.74761">
        <ele>103</ele>
        <time>2015-06-07T08:41:28Z</time>
      </trkpt>
      <trkpt lat="47.86668" lon="-1.74762">
        <ele>103</ele>
        <time>2015-06-07T08:41:29Z</time>
      </trkpt>
      <trkpt lat="47.86668" lon="-1.74762">
        <ele>103</ele>
        <time>2015-06-07T08:41:30Z</time>
      </trkpt>
      <trkpt lat="47.86666" lon="-1.74762">
        <ele>103</ele>
        <time>2015-06-07T08:41:31Z</time>
      </trkpt>
      <trkpt lat="47.86664" lon="-1.74762">
        <ele>103</ele>
        <time>2015-06-07T08:41:32Z</time>
      </trkpt>
      <trkpt lat="47.86661" lon="-1.74764">
        <ele>103</ele>
        <time>2015-06-07T08:41:33Z</time>
      </trkpt>
      <trkpt lat="47.8666" lon="-1.74768">
        <ele>103</ele>
        <time>2015-06-07T08:41:34Z</time>
      </trkpt>
      <trkpt lat="47.8666" lon="-1.74768">
        <ele>103</ele>
        <time>2015-06-07T08:41:35Z</time>
      </trkpt>
      <trkpt lat="47.8666" lon="-1.74771">
        <ele>103</ele>
        <time>2015-06-07T08:41:36Z</time>
      </trkpt>
      <trkpt lat="47.86658" lon="-1.74774">
        <ele>103</ele>
        <time>2015-06-07T08:41:37Z</time>
      </trkpt>
      <trkpt lat="47.86658" lon="-1.74774">
        <ele>103</ele>
        <time>2015-06-07T08:41:38Z</time>
      </trkpt>
      <trkpt lat="47.86656" lon="-1.74774">
        <ele>104</ele>
        <time>2015-06-07T08:41:39Z</time>
      </trkpt>
      <trkpt lat="47.86654" lon="-1.74774">
        <ele>104</ele>
        <time>2015-06-07T08:41:40Z</time>
      </trkpt>
      <trkpt lat="47.86652" lon="-1.74773">
        <ele>104</ele>
        <time>2015-06-07T08:41:41Z</time>
      </trkpt>
      <trkpt lat="47.86651" lon="-1.74773">
        <ele>104</ele>
        <time>2015-06-07T08:41:42Z</time>
      </trkpt>
      <trkpt lat="47.86649" lon="-1.74774">
        <ele>104</ele>
        <time>2015-06-07T08:41:43Z</time>
      </trkpt>
      <trkpt lat="47.86647" lon="-1.74774">
        <ele>105</ele>
        <time>2015-06-07T08:41:44Z</time>
      </trkpt>
      <trkpt lat="47.86645" lon="-1.74774">
        <ele>105</ele>
        <time>2015-06-07T08:41:45Z</time>
      </trkpt>
      <trkpt lat="47.86642" lon="-1.74773">
        <ele>105</ele>
        <time>2015-06-07T08:41:46Z</time>
      </trkpt>
      <trkpt lat="47.8664" lon="-1.74771">
        <ele>105</ele>
        <time>2015-06-07T08:41:47Z</time>
      </trkpt>
      <trkpt lat="47.86638" lon="-1.74771">
        <ele>105</ele>
        <time>2015-06-07T08:41:48Z</time>
      </trkpt>
      <trkpt lat="47.86636" lon="-1.7477">
        <ele>105</ele>
        <time>2015-06-07T08:41:49Z</time>
      </trkpt>
      <trkpt lat="47.86634" lon="-1.74768">
        <ele>106</ele>
        <time>2015-06-07T08:41:50Z</time>
      </trkpt>
      <trkpt lat="47.86634" lon="-1.74768">
        <ele>106</ele>
        <time>2015-06-07T08:41:51Z</time>
      </trkpt>
      <trkpt lat="47.86632" lon="-1.74768">
        <ele>106</ele>
        <time>2015-06-07T08:41:52Z</time>
      </trkpt>
      <trkpt lat="47.8663" lon="-1.74769">
        <ele>106</ele>
        <time>2015-06-07T08:41:53Z</time>
      </trkpt>
      <trkpt lat="47.86628" lon="-1.7477">
        <ele>106</ele>
        <time>2015-06-07T08:41:54Z</time>
      </trkpt>
      <trkpt lat="47.86627" lon="-1.74772">
        <ele>106</ele>
        <time>2015-06-07T08:41:55Z</time>
      </trkpt>
      <trkpt lat="47.86627" lon="-1.74776">
        <ele>106</ele>
        <time>2015-06-07T08:41:56Z</time>
      </trkpt>
      <trkpt lat="47.86625" lon="-1.74779">
        <ele>106</ele>
        <time>2015-06-07T08:41:57Z</time>
      </trkpt>
      <trkpt lat="47.86622" lon="-1.74781">
        <ele>106</ele>
        <time>2015-06-07T08:41:58Z</time>
      </trkpt>
      <trkpt lat="47.8662" lon="-1.74782">
        <ele>106</ele>
        <time>2015-06-07T08:41:59Z</time>
      </trkpt>
      <trkpt lat="47.86619" lon="-1.74782">
        <ele>106</ele>
        <time>2015-06-07T08:42:00Z</time>
      </trkpt>
      <trkpt lat="47.86618" lon="-1.74781">
        <ele>106</ele>
        <time>2015-06-07T08:42:01Z</time>
      </trkpt>
      <trkpt lat="47.86616" lon="-1.74781">
        <ele>106</ele>
        <time>2015-06-07T08:42:02Z</time>
      </trkpt>
      <trkpt lat="47.86614" lon="-1.7478">
        <ele>106</ele>
        <time>2015-06-07T08:42:03Z</time>
      </trkpt>
      <trkpt lat="47.86612" lon="-1.74779">
        <ele>106</ele>
        <time>2015-06-07T08:42:04Z</time>
      </trkpt>
      <trkpt lat="47.8661" lon="-1.74778">
        <ele>106</ele>
        <time>2015-06-07T08:42:05Z</time>
      </trkpt>
      <trkpt lat="47.86609" lon="-1.74777">
        <ele>106</ele>
        <time>2015-06-07T08:42:06Z</time>
      </trkpt>
      <trkpt lat="47.86606" lon="-1.74776">
        <ele>106</ele>
        <time>2015-06-07T08:42:07Z</time>
      </trkpt>
      <trkpt lat="47.86605" lon="-1.74775">
        <ele>106</ele>
        <time>2015-06-07T08:42:08Z</time>
      </trkpt>
      <trkpt lat="47.866" lon="-1.74772">
        <ele>106</ele>
        <time>2015-06-07T08:42:09Z</time>
      </trkpt>
      <trkpt lat="47.866" lon="-1.74772">
        <ele>106</ele>
        <time>2015-06-07T08:42:10Z</time>
      </trkpt>
      <trkpt lat="47.86599" lon="-1.74771">
        <ele>106</ele>
        <time>2015-06-07T08:42:11Z</time>
      </trkpt>
      <trkpt lat="47.86598" lon="-1.74768">
        <ele>106</ele>
        <time>2015-06-07T08:42:12Z</time>
      </trkpt>
      <trkpt lat="47.86597" lon="-1.74767">
        <ele>106</ele>
        <time>2015-06-07T08:42:13Z</time>
      </trkpt>
      <trkpt lat="47.86596" lon="-1.74767">
        <ele>106</ele>
        <time>2015-06-07T08:42:14Z</time>
      </trkpt>
      <trkpt lat="47.86594" lon="-1.74767">
        <ele>106</ele>
        <time>2015-06-07T08:42:15Z</time>
      </trkpt>
      <trkpt lat="47.86592" lon="-1.74767">
        <ele>106</ele>
        <time>2015-06-07T08:42:16Z</time>
      </trkpt>
      <trkpt lat="47.86589" lon="-1.74767">
        <ele>106</ele>
        <time>2015-06-07T08:42:17Z</time>
      </trkpt>
      <trkpt lat="47.86586" lon="-1.74766">
        <ele>107</ele>
        <time>2015-06-07T08:42:18Z</time>
      </trkpt>
      <trkpt lat="47.86582" lon="-1.74766">
        <ele>107</ele>
        <time>2015-06-07T08:42:19Z</time>
      </trkpt>
      <trkpt lat="47.86579" lon="-1.74765">
        <ele>107</ele>
        <time>2015-06-07T08:42:20Z</time>
      </trkpt>
      <trkpt lat="47.86576" lon="-1.74764">
        <ele>107</ele>
        <time>2015-06-07T08:42:21Z</time>
      </trkpt>
      <trkpt lat="47.86573" lon="-1.74764">
        <ele>107</ele>
        <time>2015-06-07T08:42:22Z</time>
      </trkpt>
      <trkpt lat="47.86571" lon="-1.74762">
        <ele>107</ele>
        <time>2015-06-07T08:42:23Z</time>
      </trkpt>
      <trkpt lat="47.8657" lon="-1.7476">
        <ele>107</ele>
        <time>2015-06-07T08:42:24Z</time>
      </trkpt>
      <trkpt lat="47.86569" lon="-1.74758">
        <ele>108</ele>
        <time>2015-06-07T08:42:25Z</time>
      </trkpt>
      <trkpt lat="47.86567" lon="-1.74756">
        <ele>108</ele>
        <time>2015-06-07T08:42:26Z</time>
      </trkpt>
      <trkpt lat="47.86565" lon="-1.74755">
        <ele>108</ele>
        <time>2015-06-07T08:42:27Z</time>
      </trkpt>
      <trkpt lat="47.86562" lon="-1.74754">
        <ele>108</ele>
        <time>2015-06-07T08:42:28Z</time>
      </trkpt>
      <trkpt lat="47.86559" lon="-1.74754">
        <ele>108</ele>
        <time>2015-06-07T08:42:29Z</time>
      </trkpt>
      <trkpt lat="47.86556" lon="-1.74753">
        <ele>108</ele>
        <time>2015-06-07T08:42:30Z</time>
      </trkpt>
      <trkpt lat="47.86553" lon="-1.74752">
        <ele>109</ele>
        <time>2015-06-07T08:42:31Z</time>
      </trkpt>
      <trkpt lat="47.86551" lon="-1.74751">
        <ele>109</ele>
        <time>2015-06-07T08:42:32Z</time>
      </trkpt>
      <trkpt lat="47.86549" lon="-1.74749">
        <ele>109</ele>
        <time>2015-06-07T08:42:33Z</time>
      </trkpt>
      <trkpt lat="47.86546" lon="-1.74748">
        <ele>109</ele>
        <time>2015-06-07T08:42:34Z</time>
      </trkpt>
      <trkpt lat="47.86543" lon="-1.74748">
        <ele>109</ele>
        <time>2015-06-07T08:42:35Z</time>
      </trkpt>
      <trkpt lat="47.86541" lon="-1.74748">
        <ele>110</ele>
        <time>2015-06-07T08:42:36Z</time>
      </trkpt>
      <trkpt lat="47.86538" lon="-1.74749">
        <ele>110</ele>
        <time>2015-06-07T08:42:37Z</time>
      </trkpt>
      <trkpt lat="47.86535" lon="-1.74751">
        <ele>110</ele>
        <time>2015-06-07T08:42:38Z</time>
      </trkpt>
      <trkpt lat="47.86532" lon="-1.74753">
        <ele>110</ele>
        <time>2015-06-07T08:42:39Z</time>
      </trkpt>
      <trkpt lat="47.86529" lon="-1.74755">
        <ele>111</ele>
        <time>2015-06-07T08:42:40Z</time>
      </trkpt>
      <trkpt lat="47.86525" lon="-1.74756">
        <ele>111</ele>
        <time>2015-06-07T08:42:41Z</time>
      </trkpt>
      <trkpt lat="47.8652" lon="-1.74758">
        <ele>111</ele>
        <time>2015-06-07T08:42:42Z</time>
      </trkpt>
      <trkpt lat="47.86516" lon="-1.74759">
        <ele>112</ele>
        <time>2015-06-07T08:42:43Z</time>
      </trkpt>
      <trkpt lat="47.86513" lon="-1.7476">
        <ele>112</ele>
        <time>2015-06-07T08:42:44Z</time>
      </trkpt>
      <trkpt lat="47.86509" lon="-1.74761">
        <ele>112</ele>
        <time>2015-06-07T08:42:45Z</time>
      </trkpt>
      <trkpt lat="47.86506" lon="-1.74762">
        <ele>112</ele>
        <time>2015-06-07T08:42:46Z</time>
      </trkpt>
      <trkpt lat="47.86503" lon="-1.74765">
        <ele>113</ele>
        <time>2015-06-07T08:42:47Z</time>
      </trkpt>
      <trkpt lat="47.86501" lon="-1.7477">
        <ele>113</ele>
        <time>2015-06-07T08:42:48Z</time>
      </trkpt>
      <trkpt lat="47.86499" lon="-1.74774">
        <ele>113</ele>
        <time>2015-06-07T08:42:49Z</time>
      </trkpt>
      <trkpt lat="47.86497" lon="-1.74778">
        <ele>114</ele>
        <time>2015-06-07T08:42:50Z</time>
      </trkpt>
      <trkpt lat="47.86495" lon="-1.74782">
        <ele>114</ele>
        <time>2015-06-07T08:42:51Z</time>
      </trkpt>
      <trkpt lat="47.86492" lon="-1.74785">
        <ele>114</ele>
        <time>2015-06-07T08:42:52Z</time>
      </trkpt>
      <trkpt lat="47.86488" lon="-1.74789">
        <ele>115</ele>
        <time>2015-06-07T08:42:53Z</time>
      </trkpt>
      <trkpt lat="47.86485" lon="-1.74792">
        <ele>115</ele>
        <time>2015-06-07T08:42:54Z</time>
      </trkpt>
      <trkpt lat="47.86481" lon="-1.74793">
        <ele>115</ele>
        <time>2015-06-07T08:42:55Z</time>
      </trkpt>
      <trkpt lat="47.86478" lon="-1.74794">
        <ele>115</ele>
        <time>2015-06-07T08:42:56Z</time>
      </trkpt>
      <trkpt lat="47.86475" lon="-1.74797">
        <ele>116</ele>
        <time>2015-06-07T08:42:57Z</time>
      </trkpt>
      <trkpt lat="47.86473" lon="-1.748">
        <ele>116</ele>
        <time>2015-06-07T08:42:58Z</time>
      </trkpt>
      <trkpt lat="47.8647" lon="-1.74803">
        <ele>116</ele>
        <time>2015-06-07T08:42:59Z</time>
      </trkpt>
      <trkpt lat="47.86468" lon="-1.74807">
        <ele>116</ele>
        <time>2015-06-07T08:43:00Z</time>
      </trkpt>
      <trkpt lat="47.86465" lon="-1.7481">
        <ele>116</ele>
        <time>2015-06-07T08:43:01Z</time>
      </trkpt>
      <trkpt lat="47.86463" lon="-1.74814">
        <ele>117</ele>
        <time>2015-06-07T08:43:02Z</time>
      </trkpt>
      <trkpt lat="47.8646" lon="-1.74821">
        <ele>117</ele>
        <time>2015-06-07T08:43:03Z</time>
      </trkpt>
      <trkpt lat="47.86458" lon="-1.74826">
        <ele>117</ele>
        <time>2015-06-07T08:43:04Z</time>
      </trkpt>
      <trkpt lat="47.86456" lon="-1.74833">
        <ele>117</ele>
        <time>2015-06-07T08:43:05Z</time>
      </trkpt>
      <trkpt lat="47.86455" lon="-1.74839">
        <ele>117</ele>
        <time>2015-06-07T08:43:06Z</time>
      </trkpt>
      <trkpt lat="47.86456" lon="-1.74844">
        <ele>117</ele>
        <time>2015-06-07T08:43:07Z</time>
      </trkpt>
      <trkpt lat="47.86457" lon="-1.74847">
        <ele>117</ele>
        <time>2015-06-07T08:43:08Z</time>
      </trkpt>
      <trkpt lat="47.86458" lon="-1.74851">
        <ele>118</ele>
        <time>2015-06-07T08:43:09Z</time>
      </trkpt>
      <trkpt lat="47.86461" lon="-1.74855">
        <ele>118</ele>
        <time>2015-06-07T08:43:10Z</time>
      </trkpt>
      <trkpt lat="47.86463" lon="-1.74858">
        <ele>118</ele>
        <time>2015-06-07T08:43:11Z</time>
      </trkpt>
      <trkpt lat="47.86466" lon="-1.74861">
        <ele>118</ele>
        <time>2015-06-07T08:43:12Z</time>
      </trkpt>
      <trkpt lat="47.86469" lon="-1.74863">
        <ele>117</ele>
        <time>2015-06-07T08:43:13Z</time>
      </trkpt>
      <trkpt lat="47.86473" lon="-1.74866">
        <ele>117</ele>
        <time>2015-06-07T08:43:14Z</time>
      </trkpt>
      <trkpt lat="47.86476" lon="-1.7487">
        <ele>117</ele>
        <time>2015-06-07T08:43:15Z</time>
      </trkpt>
      <trkpt lat="47.8648" lon="-1.74875">
        <ele>117</ele>
        <time>2015-06-07T08:43:16Z</time>
      </trkpt>
      <trkpt lat="47.86484" lon="-1.74878">
        <ele>116</ele>
        <time>2015-06-07T08:43:17Z</time>
      </trkpt>
      <trkpt lat="47.86488" lon="-1.74881">
        <ele>116</ele>
        <time>2015-06-07T08:43:18Z</time>
      </trkpt>
      <trkpt lat="47.86492" lon="-1.74885">
        <ele>115</ele>
        <time>2015-06-07T08:43:19Z</time>
      </trkpt>
      <trkpt lat="47.86496" lon="-1.74889">
        <ele>114</ele>
        <time>2015-06-07T08:43:20Z</time>
      </trkpt>
      <trkpt lat="47.865" lon="-1.74893">
        <ele>114</ele>
        <time>2015-06-07T08:43:21Z</time>
      </trkpt>
      <trkpt lat="47.86504" lon="-1.74897">
        <ele>113</ele>
        <time>2015-06-07T08:43:22Z</time>
      </trkpt>
      <trkpt lat="47.86507" lon="-1.74899">
        <ele>113</ele>
        <time>2015-06-07T08:43:23Z</time>
      </trkpt>
      <trkpt lat="47.8651" lon="-1.74902">
        <ele>113</ele>
        <time>2015-06-07T08:43:24Z</time>
      </trkpt>
      <trkpt lat="47.86514" lon="-1.74904">
        <ele>112</ele>
        <time>2015-06-07T08:43:25Z</time>
      </trkpt>
      <trkpt lat="47.86519" lon="-1.74907">
        <ele>112</ele>
        <time>2015-06-07T08:43:26Z</time>
      </trkpt>
      <trkpt lat="47.86522" lon="-1.74909">
        <ele>111</ele>
        <time>2015-06-07T08:43:27Z</time>
      </trkpt>
      <trkpt lat="47.86526" lon="-1.74911">
        <ele>111</ele>
        <time>2015-06-07T08:43:28Z</time>
      </trkpt>
      <trkpt lat="47.8653" lon="-1.74912">
        <ele>111</ele>
        <time>2015-06-07T08:43:29Z</time>
      </trkpt>
      <trkpt lat="47.86534" lon="-1.74913">
        <ele>110</ele>
        <time>2015-06-07T08:43:30Z</time>
      </trkpt>
      <trkpt lat="47.86538" lon="-1.74913">
        <ele>110</ele>
        <time>2015-06-07T08:43:31Z</time>
      </trkpt>
      <trkpt lat="47.86543" lon="-1.74912">
        <ele>110</ele>
        <time>2015-06-07T08:43:32Z</time>
      </trkpt>
      <trkpt lat="47.86547" lon="-1.74912">
        <ele>110</ele>
        <time>2015-06-07T08:43:33Z</time>
      </trkpt>
      <trkpt lat="47.8655" lon="-1.7491">
        <ele>109</ele>
        <time>2015-06-07T08:43:34Z</time>
      </trkpt>
      <trkpt lat="47.86551" lon="-1.74908">
        <ele>109</ele>
        <time>2015-06-07T08:43:35Z</time>
      </trkpt>
      <trkpt lat="47.86552" lon="-1.74906">
        <ele>109</ele>
        <time>2015-06-07T08:43:36Z</time>
      </trkpt>
      <trkpt lat="47.86554" lon="-1.74903">
        <ele>109</ele>
        <time>2015-06-07T08:43:37Z</time>
      </trkpt>
      <trkpt lat="47.86556" lon="-1.74899">
        <ele>109</ele>
        <time>2015-06-07T08:43:38Z</time>
      </trkpt>
      <trkpt lat="47.86559" lon="-1.74896">
        <ele>108</ele>
        <time>2015-06-07T08:43:39Z</time>
      </trkpt>
      <trkpt lat="47.8656" lon="-1.74893">
        <ele>108</ele>
        <time>2015-06-07T08:43:40Z</time>
      </trkpt>
      <trkpt lat="47.86563" lon="-1.74891">
        <ele>108</ele>
        <time>2015-06-07T08:43:41Z</time>
      </trkpt>
      <trkpt lat="47.86566" lon="-1.7489">
        <ele>108</ele>
        <time>2015-06-07T08:43:42Z</time>
      </trkpt>
      <trkpt lat="47.86567" lon="-1.74889">
        <ele>108</ele>
        <time>2015-06-07T08:43:43Z</time>
      </trkpt>
      <trkpt lat="47.8657" lon="-1.74888">
        <ele>107</ele>
        <time>2015-06-07T08:43:44Z</time>
      </trkpt>
      <trkpt lat="47.86573" lon="-1.74888">
        <ele>107</ele>
        <time>2015-06-07T08:43:45Z</time>
      </trkpt>
      <trkpt lat="47.86577" lon="-1.74889">
        <ele>107</ele>
        <time>2015-06-07T08:43:46Z</time>
      </trkpt>
      <trkpt lat="47.86581" lon="-1.7489">
        <ele>107</ele>
        <time>2015-06-07T08:43:47Z</time>
      </trkpt>
      <trkpt lat="47.86585" lon="-1.7489">
        <ele>106</ele>
        <time>2015-06-07T08:43:48Z</time>
      </trkpt>
      <trkpt lat="47.8659" lon="-1.74891">
        <ele>106</ele>
        <time>2015-06-07T08:43:49Z</time>
      </trkpt>
      <trkpt lat="47.86594" lon="-1.7489">
        <ele>106</ele>
        <time>2015-06-07T08:43:50Z</time>
      </trkpt>
      <trkpt lat="47.86598" lon="-1.7489">
        <ele>106</ele>
        <time>2015-06-07T08:43:51Z</time>
      </trkpt>
      <trkpt lat="47.86601" lon="-1.74889">
        <ele>106</ele>
        <time>2015-06-07T08:43:52Z</time>
      </trkpt>
      <trkpt lat="47.86603" lon="-1.74886">
        <ele>106</ele>
        <time>2015-06-07T08:43:53Z</time>
      </trkpt>
      <trkpt lat="47.86605" lon="-1.74883">
        <ele>106</ele>
        <time>2015-06-07T08:43:54Z</time>
      </trkpt>
      <trkpt lat="47.86607" lon="-1.7488">
        <ele>106</ele>
        <time>2015-06-07T08:43:55Z</time>
      </trkpt>
      <trkpt lat="47.86609" lon="-1.74879">
        <ele>106</ele>
        <time>2015-06-07T08:43:56Z</time>
      </trkpt>
      <trkpt lat="47.86611" lon="-1.7488">
        <ele>105</ele>
        <time>2015-06-07T08:43:57Z</time>
      </trkpt>
      <trkpt lat="47.86613" lon="-1.7488">
        <ele>105</ele>
        <time>2015-06-07T08:43:58Z</time>
      </trkpt>
      <trkpt lat="47.86616" lon="-1.74879">
        <ele>105</ele>
        <time>2015-06-07T08:43:59Z</time>
      </trkpt>
      <trkpt lat="47.86619" lon="-1.74879">
        <ele>105</ele>
        <time>2015-06-07T08:44:00Z</time>
      </trkpt>
      <trkpt lat="47.86621" lon="-1.7488">
        <ele>105</ele>
        <time>2015-06-07T08:44:01Z</time>
      </trkpt>
      <trkpt lat="47.86624" lon="-1.74879">
        <ele>105</ele>
        <time>2015-06-07T08:44:02Z</time>
      </trkpt>
      <trkpt lat="47.86626" lon="-1.74877">
        <ele>104</ele>
        <time>2015-06-07T08:44:03Z</time>
      </trkpt>
      <trkpt lat="47.86626" lon="-1.74875">
        <ele>104</ele>
        <time>2015-06-07T08:44:04Z</time>
      </trkpt>
      <trkpt lat="47.86626" lon="-1.74873">
        <ele>104</ele>
        <time>2015-06-07T08:44:05Z</time>
      </trkpt>
      <trkpt lat="47.86626" lon="-1.7487">
        <ele>104</ele>
        <time>2015-06-07T08:44:06Z</time>
      </trkpt>
      <trkpt lat="47.86626" lon="-1.74867">
        <ele>104</ele>
        <time>2015-06-07T08:44:07Z</time>
      </trkpt>
      <trkpt lat="47.86626" lon="-1.74864">
        <ele>105</ele>
        <time>2015-06-07T08:44:08Z</time>
      </trkpt>
      <trkpt lat="47.86626" lon="-1.74861">
        <ele>105</ele>
        <time>2015-06-07T08:44:09Z</time>
      </trkpt>
      <trkpt lat="47.86626" lon="-1.74858">
        <ele>105</ele>
        <time>2015-06-07T08:44:10Z</time>
      </trkpt>
      <trkpt lat="47.86627" lon="-1.74857">
        <ele>105</ele>
        <time>2015-06-07T08:44:11Z</time>
      </trkpt>
      <trkpt lat="47.86629" lon="-1.74856">
        <ele>105</ele>
        <time>2015-06-07T08:44:12Z</time>
      </trkpt>
      <trkpt lat="47.86631" lon="-1.74854">
        <ele>105</ele>
        <time>2015-06-07T08:44:13Z</time>
      </trkpt>
      <trkpt lat="47.86632" lon="-1.74852">
        <ele>105</ele>
        <time>2015-06-07T08:44:14Z</time>
      </trkpt>
      <trkpt lat="47.86634" lon="-1.74849">
        <ele>105</ele>
        <time>2015-06-07T08:44:15Z</time>
      </trkpt>
      <trkpt lat="47.86635" lon="-1.74847">
        <ele>105</ele>
        <time>2015-06-07T08:44:16Z</time>
      </trkpt>
      <trkpt lat="47.86636" lon="-1.74845">
        <ele>105</ele>
        <time>2015-06-07T08:44:17Z</time>
      </trkpt>
      <trkpt lat="47.86638" lon="-1.74843">
        <ele>105</ele>
        <time>2015-06-07T08:44:18Z</time>
      </trkpt>
      <trkpt lat="47.8664" lon="-1.7484">
        <ele>105</ele>
        <time>2015-06-07T08:44:19Z</time>
      </trkpt>
      <trkpt lat="47.86643" lon="-1.74838">
        <ele>105</ele>
        <time>2015-06-07T08:44:20Z</time>
      </trkpt>
      <trkpt lat="47.86646" lon="-1.74837">
        <ele>105</ele>
        <time>2015-06-07T08:44:21Z</time>
      </trkpt>
      <trkpt lat="47.86648" lon="-1.74837">
        <ele>105</ele>
        <time>2015-06-07T08:44:22Z</time>
      </trkpt>
      <trkpt lat="47.8665" lon="-1.74837">
        <ele>105</ele>
        <time>2015-06-07T08:44:23Z</time>
      </trkpt>
      <trkpt lat="47.86652" lon="-1.74838">
        <ele>105</ele>
        <time>2015-06-07T08:44:24Z</time>
      </trkpt>
      <trkpt lat="47.86654" lon="-1.74837">
        <ele>104</ele>
        <time>2015-06-07T08:44:25Z</time>
      </trkpt>
      <trkpt lat="47.86656" lon="-1.74836">
        <ele>104</ele>
        <time>2015-06-07T08:44:26Z</time>
      </trkpt>
      <trkpt lat="47.86658" lon="-1.74837">
        <ele>104</ele>
        <time>2015-06-07T08:44:27Z</time>
      </trkpt>
      <trkpt lat="47.86661" lon="-1.74836">
        <ele>104</ele>
        <time>2015-06-07T08:44:28Z</time>
      </trkpt>
      <trkpt lat="47.86663" lon="-1.74834">
        <ele>103</ele>
        <time>2015-06-07T08:44:29Z</time>
      </trkpt>
      <trkpt lat="47.86664" lon="-1.74832">
        <ele>103</ele>
        <time>2015-06-07T08:44:30Z</time>
      </trkpt>
      <trkpt lat="47.86665" lon="-1.7483">
        <ele>103</ele>
        <time>2015-06-07T08:44:31Z</time>
      </trkpt>
      <trkpt lat="47.86667" lon="-1.74828">
        <ele>103</ele>
        <time>2015-06-07T08:44:32Z</time>
      </trkpt>
      <trkpt lat="47.86668" lon="-1.74827">
        <ele>103</ele>
        <time>2015-06-07T08:44:33Z</time>
      </trkpt>
      <trkpt lat="47.86669" lon="-1.74826">
        <ele>103</ele>
        <time>2015-06-07T08:44:34Z</time>
      </trkpt>
      <trkpt lat="47.86669" lon="-1.74825">
        <ele>103</ele>
        <time>2015-06-07T08:44:35Z</time>
      </trkpt>
      <trkpt lat="47.86669" lon="-1.74823">
        <ele>103</ele>
        <time>2015-06-07T08:44:36Z</time>
      </trkpt>
      <trkpt lat="47.86669" lon="-1.74821">
        <ele>103</ele>
        <time>2015-06-07T08:44:37Z</time>
      </trkpt>
      <trkpt lat="47.8667" lon="-1.7482">
        <ele>103</ele>
        <time>2015-06-07T08:44:38Z</time>
      </trkpt>
      <trkpt lat="47.86671" lon="-1.74818">
        <ele>103</ele>
        <time>2015-06-07T08:44:39Z</time>
      </trkpt>
      <trkpt lat="47.86672" lon="-1.74816">
        <ele>104</ele>
        <time>2015-06-07T08:44:40Z</time>
      </trkpt>
      <trkpt lat="47.86673" lon="-1.74813">
        <ele>104</ele>
        <time>2015-06-07T08:44:41Z</time>
      </trkpt>
      <trkpt lat="47.86673" lon="-1.7481">
        <ele>104</ele>
        <time>2015-06-07T08:44:42Z</time>
      </trkpt>
      <trkpt lat="47.86672" lon="-1.74807">
        <ele>104</ele>
        <time>2015-06-07T08:44:43Z</time>
      </trkpt>
      <trkpt lat="47.86671" lon="-1.74804">
        <ele>104</ele>
        <time>2015-06-07T08:44:44Z</time>
      </trkpt>
      <trkpt lat="47.86671" lon="-1.748">
        <ele>104</ele>
        <time>2015-06-07T08:44:45Z</time>
      </trkpt>
      <trkpt lat="47.86672" lon="-1.74798">
        <ele>104</ele>
        <time>2015-06-07T08:44:46Z</time>
      </trkpt>
      <trkpt lat="47.86674" lon="-1.74797">
        <ele>105</ele>
        <time>2015-06-07T08:44:47Z</time>
      </trkpt>
      <trkpt lat="47.86675" lon="-1.74797">
        <ele>105</ele>
        <time>2015-06-07T08:44:48Z</time>
      </trkpt>
      <trkpt lat="47.86676" lon="-1.74797">
        <ele>105</ele>
        <time>2015-06-07T08:44:49Z</time>
      </trkpt>
      <trkpt lat="47.86678" lon="-1.74797">
        <ele>105</ele>
        <time>2015-06-07T08:44:50Z</time>
      </trkpt>
      <trkpt lat="47.86678" lon="-1.74798">
        <ele>105</ele>
        <time>2015-06-07T08:44:51Z</time>
      </trkpt>
      <trkpt lat="47.8668" lon="-1.74799">
        <ele>104</ele>
        <time>2015-06-07T08:44:52Z</time>
      </trkpt>
      <trkpt lat="47.86681" lon="-1.748">
        <ele>104</ele>
        <time>2015-06-07T08:44:53Z</time>
      </trkpt>
      <trkpt lat="47.86683" lon="-1.74801">
        <ele>104</ele>
        <time>2015-06-07T08:44:54Z</time>
      </trkpt>
      <trkpt lat="47.86685" lon="-1.74802">
        <ele>105</ele>
        <time>2015-06-07T08:44:55Z</time>
      </trkpt>
      <trkpt lat="47.86688" lon="-1.74803">
        <ele>105</ele>
        <time>2015-06-07T08:44:56Z</time>
      </trkpt>
      <trkpt lat="47.86691" lon="-1.74804">
        <ele>105</ele>
        <time>2015-06-07T08:44:57Z</time>
      </trkpt>
      <trkpt lat="47.86693" lon="-1.74806">
        <ele>104</ele>
        <time>2015-06-07T08:44:58Z</time>
      </trkpt>
      <trkpt lat="47.86696" lon="-1.74807">
        <ele>104</ele>
        <time>2015-06-07T08:44:59Z</time>
      </trkpt>
      <trkpt lat="47.86698" lon="-1.74807">
        <ele>104</ele>
        <time>2015-06-07T08:45:00Z</time>
      </trkpt>
      <trkpt lat="47.86699" lon="-1.74807">
        <ele>104</ele>
        <time>2015-06-07T08:45:01Z</time>
      </trkpt>
      <trkpt lat="47.86701" lon="-1.74807">
        <ele>104</ele>
        <time>2015-06-07T08:45:02Z</time>
      </trkpt>
      <trkpt lat="47.86702" lon="-1.74808">
        <ele>104</ele>
        <time>2015-06-07T08:45:03Z</time>
      </trkpt>
      <trkpt lat="47.86704" lon="-1.74809">
        <ele>104</ele>
        <time>2015-06-07T08:45:04Z</time>
      </trkpt>
      <trkpt lat="47.86706" lon="-1.74808">
        <ele>104</ele>
        <time>2015-06-07T08:45:05Z</time>
      </trkpt>
      <trkpt lat="47.86707" lon="-1.74808">
        <ele>104</ele>
        <time>2015-06-07T08:45:06Z</time>
      </trkpt>
      <trkpt lat="47.8671" lon="-1.74808">
        <ele>104</ele>
        <time>2015-06-07T08:45:07Z</time>
      </trkpt>
      <trkpt lat="47.86711" lon="-1.74808">
        <ele>105</ele>
        <time>2015-06-07T08:45:08Z</time>
      </trkpt>
      <trkpt lat="47.86713" lon="-1.74807">
        <ele>105</ele>
        <time>2015-06-07T08:45:09Z</time>
      </trkpt>
      <trkpt lat="47.86714" lon="-1.74806">
        <ele>105</ele>
        <time>2015-06-07T08:45:10Z</time>
      </trkpt>
      <trkpt lat="47.86716" lon="-1.74805">
        <ele>105</ele>
        <time>2015-06-07T08:45:11Z</time>
      </trkpt>
      <trkpt lat="47.86718" lon="-1.74802">
        <ele>105</ele>
        <time>2015-06-07T08:45:12Z</time>
      </trkpt>
      <trkpt lat="47.8672" lon="-1.748">
        <ele>105</ele>
        <time>2015-06-07T08:45:13Z</time>
      </trkpt>
      <trkpt lat="47.86723" lon="-1.74798">
        <ele>105</ele>
        <time>2015-06-07T08:45:14Z</time>
      </trkpt>
      <trkpt lat="47.86725" lon="-1.74797">
        <ele>105</ele>
        <time>2015-06-07T08:45:15Z</time>
      </trkpt>
      <trkpt lat="47.86727" lon="-1.74796">
        <ele>106</ele>
        <time>2015-06-07T08:45:16Z</time>
      </trkpt>
      <trkpt lat="47.8673" lon="-1.74795">
        <ele>105</ele>
        <time>2015-06-07T08:45:17Z</time>
      </trkpt>
      <trkpt lat="47.86732" lon="-1.74793">
        <ele>106</ele>
        <time>2015-06-07T08:45:18Z</time>
      </trkpt>
      <trkpt lat="47.86734" lon="-1.7479">
        <ele>106</ele>
        <time>2015-06-07T08:45:19Z</time>
      </trkpt>
      <trkpt lat="47.86734" lon="-1.74786">
        <ele>106</ele>
        <time>2015-06-07T08:45:20Z</time>
      </trkpt>
      <trkpt lat="47.86735" lon="-1.74783">
        <ele>105</ele>
        <time>2015-06-07T08:45:21Z</time>
      </trkpt>
      <trkpt lat="47.86736" lon="-1.7478">
        <ele>105</ele>
        <time>2015-06-07T08:45:22Z</time>
      </trkpt>
      <trkpt lat="47.86737" lon="-1.74779">
        <ele>105</ele>
        <time>2015-06-07T08:45:23Z</time>
      </trkpt>
      <trkpt lat="47.8674" lon="-1.74777">
        <ele>105</ele>
        <time>2015-06-07T08:45:24Z</time>
      </trkpt>
      <trkpt lat="47.86742" lon="-1.74775">
        <ele>105</ele>
        <time>2015-06-07T08:45:25Z</time>
      </trkpt>
      <trkpt lat="47.86745" lon="-1.74773">
        <ele>105</ele>
        <time>2015-06-07T08:45:26Z</time>
      </trkpt>
      <trkpt lat="47.86749" lon="-1.74772">
        <ele>105</ele>
        <time>2015-06-07T08:45:27Z</time>
      </trkpt>
      <trkpt lat="47.86753" lon="-1.74771">
        <ele>105</ele>
        <time>2015-06-07T08:45:28Z</time>
      </trkpt>
      <trkpt lat="47.86758" lon="-1.74771">
        <ele>105</ele>
        <time>2015-06-07T08:45:29Z</time>
      </trkpt>
      <trkpt lat="47.86762" lon="-1.74771">
        <ele>105</ele>
        <time>2015-06-07T08:45:30Z</time>
      </trkpt>
      <trkpt lat="47.86764" lon="-1.74772">
        <ele>104</ele>
        <time>2015-06-07T08:45:31Z</time>
      </trkpt>
      <trkpt lat="47.86766" lon="-1.74773">
        <ele>104</ele>
        <time>2015-06-07T08:45:32Z</time>
      </trkpt>
      <trkpt lat="47.86768" lon="-1.74774">
        <ele>104</ele>
        <time>2015-06-07T08:45:33Z</time>
      </trkpt>
      <trkpt lat="47.8677" lon="-1.74776">
        <ele>104</ele>
        <time>2015-06-07T08:45:34Z</time>
      </trkpt>
      <trkpt lat="47.86773" lon="-1.74777">
        <ele>103</ele>
        <time>2015-06-07T08:45:35Z</time>
      </trkpt>
      <trkpt lat="47.86776" lon="-1.74776">
        <ele>103</ele>
        <time>2015-06-07T08:45:36Z</time>
      </trkpt>
      <trkpt lat="47.86779" lon="-1.74777">
        <ele>103</ele>
        <time>2015-06-07T08:45:37Z</time>
      </trkpt>
      <trkpt lat="47.86781" lon="-1.74778">
        <ele>102</ele>
        <time>2015-06-07T08:45:38Z</time>
      </trkpt>
      <trkpt lat="47.86782" lon="-1.7478">
        <ele>102</ele>
        <time>2015-06-07T08:45:39Z</time>
      </trkpt>
      <trkpt lat="47.86783" lon="-1.74783">
        <ele>102</ele>
        <time>2015-06-07T08:45:40Z</time>
      </trkpt>
      <trkpt lat="47.86785" lon="-1.74788">
        <ele>101</ele>
        <time>2015-06-07T08:45:41Z</time>
      </trkpt>
      <trkpt lat="47.86787" lon="-1.74793">
        <ele>101</ele>
        <time>2015-06-07T08:45:42Z</time>
      </trkpt>
      <trkpt lat="47.86789" lon="-1.74798">
        <ele>101</ele>
        <time>2015-06-07T08:45:43Z</time>
      </trkpt>
      <trkpt lat="47.86791" lon="-1.74802">
        <ele>100</ele>
        <time>2015-06-07T08:45:44Z</time>
      </trkpt>
      <trkpt lat="47.86793" lon="-1.74808">
        <ele>100</ele>
        <time>2015-06-07T08:45:45Z</time>
      </trkpt>
      <trkpt lat="47.86797" lon="-1.74814">
        <ele>100</ele>
        <time>2015-06-07T08:45:46Z</time>
      </trkpt>
      <trkpt lat="47.86799" lon="-1.7482">
        <ele>99</ele>
        <time>2015-06-07T08:45:47Z</time>
      </trkpt>
      <trkpt lat="47.868" lon="-1.74828">
        <ele>99</ele>
        <time>2015-06-07T08:45:48Z</time>
      </trkpt>
      <trkpt lat="47.868" lon="-1.74838">
        <ele>98</ele>
        <time>2015-06-07T08:45:49Z</time>
      </trkpt>
      <trkpt lat="47.868" lon="-1.74848">
        <ele>98</ele>
        <time>2015-06-07T08:45:50Z</time>
      </trkpt>
      <trkpt lat="47.86802" lon="-1.74858">
        <ele>97</ele>
        <time>2015-06-07T08:45:51Z</time>
      </trkpt>
      <trkpt lat="47.86805" lon="-1.74868">
        <ele>97</ele>
        <time>2015-06-07T08:45:52Z</time>
      </trkpt>
      <trkpt lat="47.86808" lon="-1.74877">
        <ele>97</ele>
        <time>2015-06-07T08:45:53Z</time>
      </trkpt>
      <trkpt lat="47.8681" lon="-1.74885">
        <ele>96</ele>
        <time>2015-06-07T08:45:54Z</time>
      </trkpt>
      <trkpt lat="47.86812" lon="-1.74893">
        <ele>96</ele>
        <time>2015-06-07T08:45:55Z</time>
      </trkpt>
      <trkpt lat="47.86814" lon="-1.749">
        <ele>95</ele>
        <time>2015-06-07T08:45:56Z</time>
      </trkpt>
      <trkpt lat="47.86817" lon="-1.74905">
        <ele>95</ele>
        <time>2015-06-07T08:45:57Z</time>
      </trkpt>
      <trkpt lat="47.8682" lon="-1.74909">
        <ele>94</ele>
        <time>2015-06-07T08:45:58Z</time>
      </trkpt>
      <trkpt lat="47.86824" lon="-1.74912">
        <ele>94</ele>
        <time>2015-06-07T08:45:59Z</time>
      </trkpt>
      <trkpt lat="47.86828" lon="-1.74915">
        <ele>94</ele>
        <time>2015-06-07T08:46:00Z</time>
      </trkpt>
      <trkpt lat="47.86832" lon="-1.74919">
        <ele>93</ele>
        <time>2015-06-07T08:46:01Z</time>
      </trkpt>
      <trkpt lat="47.86835" lon="-1.74922">
        <ele>93</ele>
        <time>2015-06-07T08:46:02Z</time>
      </trkpt>
      <trkpt lat="47.86836" lon="-1.74925">
        <ele>93</ele>
        <time>2015-06-07T08:46:03Z</time>
      </trkpt>
      <trkpt lat="47.86837" lon="-1.74928">
        <ele>92</ele>
        <time>2015-06-07T08:46:04Z</time>
      </trkpt>
      <trkpt lat="47.86835" lon="-1.74931">
        <ele>92</ele>
        <time>2015-06-07T08:46:05Z</time>
      </trkpt>
      <trkpt lat="47.86833" lon="-1.74933">
        <ele>91</ele>
        <time>2015-06-07T08:46:06Z</time>
      </trkpt>
      <trkpt lat="47.8683" lon="-1.74938">
        <ele>91</ele>
        <time>2015-06-07T08:46:07Z</time>
      </trkpt>
      <trkpt lat="47.86826" lon="-1.74944">
        <ele>90</ele>
        <time>2015-06-07T08:46:08Z</time>
      </trkpt>
      <trkpt lat="47.86822" lon="-1.74949">
        <ele>90</ele>
        <time>2015-06-07T08:46:09Z</time>
      </trkpt>
      <trkpt lat="47.86819" lon="-1.74954">
        <ele>89</ele>
        <time>2015-06-07T08:46:10Z</time>
      </trkpt>
      <trkpt lat="47.86816" lon="-1.74959">
        <ele>89</ele>
        <time>2015-06-07T08:46:11Z</time>
      </trkpt>
      <trkpt lat="47.86814" lon="-1.74964">
        <ele>89</ele>
        <time>2015-06-07T08:46:12Z</time>
      </trkpt>
      <trkpt lat="47.86814" lon="-1.7497">
        <ele>89</ele>
        <time>2015-06-07T08:46:13Z</time>
      </trkpt>
      <trkpt lat="47.86815" lon="-1.74975">
        <ele>88</ele>
        <time>2015-06-07T08:46:14Z</time>
      </trkpt>
      <trkpt lat="47.86815" lon="-1.7498">
        <ele>88</ele>
        <time>2015-06-07T08:46:15Z</time>
      </trkpt>
      <trkpt lat="47.86816" lon="-1.74987">
        <ele>88</ele>
        <time>2015-06-07T08:46:16Z</time>
      </trkpt>
      <trkpt lat="47.86818" lon="-1.74993">
        <ele>87</ele>
        <time>2015-06-07T08:46:17Z</time>
      </trkpt>
      <trkpt lat="47.8682" lon="-1.74999">
        <ele>87</ele>
        <time>2015-06-07T08:46:18Z</time>
      </trkpt>
      <trkpt lat="47.86822" lon="-1.75004">
        <ele>87</ele>
        <time>2015-06-07T08:46:19Z</time>
      </trkpt>
      <trkpt lat="47.86825" lon="-1.75009">
        <ele>86</ele>
        <time>2015-06-07T08:46:20Z</time>
      </trkpt>
      <trkpt lat="47.86826" lon="-1.75013">
        <ele>86</ele>
        <time>2015-06-07T08:46:21Z</time>
      </trkpt>
      <trkpt lat="47.86826" lon="-1.75015">
        <ele>85</ele>
        <time>2015-06-07T08:46:22Z</time>
      </trkpt>
      <trkpt lat="47.86826" lon="-1.75018">
        <ele>85</ele>
        <time>2015-06-07T08:46:23Z</time>
      </trkpt>
      <trkpt lat="47.86826" lon="-1.75023">
        <ele>85</ele>
        <time>2015-06-07T08:46:24Z</time>
      </trkpt>
      <trkpt lat="47.86827" lon="-1.75027">
        <ele>84</ele>
        <time>2015-06-07T08:46:25Z</time>
      </trkpt>
      <trkpt lat="47.86828" lon="-1.75031">
        <ele>84</ele>
        <time>2015-06-07T08:46:26Z</time>
      </trkpt>
      <trkpt lat="47.86828" lon="-1.75035">
        <ele>83</ele>
        <time>2015-06-07T08:46:27Z</time>
      </trkpt>
      <trkpt lat="47.86826" lon="-1.75039">
        <ele>83</ele>
        <time>2015-06-07T08:46:28Z</time>
      </trkpt>
      <trkpt lat="47.86825" lon="-1.75041">
        <ele>83</ele>
        <time>2015-06-07T08:46:29Z</time>
      </trkpt>
      <trkpt lat="47.86823" lon="-1.75043">
        <ele>82</ele>
        <time>2015-06-07T08:46:30Z</time>
      </trkpt>
      <trkpt lat="47.86821" lon="-1.75046">
        <ele>82</ele>
        <time>2015-06-07T08:46:31Z</time>
      </trkpt>
      <trkpt lat="47.8682" lon="-1.75051">
        <ele>82</ele>
        <time>2015-06-07T08:46:32Z</time>
      </trkpt>
      <trkpt lat="47.86818" lon="-1.75053">
        <ele>82</ele>
        <time>2015-06-07T08:46:33Z</time>
      </trkpt>
      <trkpt lat="47.86815" lon="-1.75054">
        <ele>82</ele>
        <time>2015-06-07T08:46:34Z</time>
      </trkpt>
      <trkpt lat="47.86813" lon="-1.75055">
        <ele>82</ele>
        <time>2015-06-07T08:46:35Z</time>
      </trkpt>
      <trkpt lat="47.8681" lon="-1.75057">
        <ele>81</ele>
        <time>2015-06-07T08:46:36Z</time>
      </trkpt>
      <trkpt lat="47.86806" lon="-1.75059">
        <ele>81</ele>
        <time>2015-06-07T08:46:37Z</time>
      </trkpt>
      <trkpt lat="47.86803" lon="-1.75062">
        <ele>80</ele>
        <time>2015-06-07T08:46:38Z</time>
      </trkpt>
      <trkpt lat="47.868" lon="-1.75066">
        <ele>80</ele>
        <time>2015-06-07T08:46:39Z</time>
      </trkpt>
      <trkpt lat="47.86799" lon="-1.75072">
        <ele>80</ele>
        <time>2015-06-07T08:46:40Z</time>
      </trkpt>
      <trkpt lat="47.86801" lon="-1.75077">
        <ele>79</ele>
        <time>2015-06-07T08:46:41Z</time>
      </trkpt>
      <trkpt lat="47.86802" lon="-1.75081">
        <ele>79</ele>
        <time>2015-06-07T08:46:42Z</time>
      </trkpt>
      <trkpt lat="47.86803" lon="-1.75084">
        <ele>79</ele>
        <time>2015-06-07T08:46:43Z</time>
      </trkpt>
      <trkpt lat="47.86804" lon="-1.75089">
        <ele>78</ele>
        <time>2015-06-07T08:46:44Z</time>
      </trkpt>
      <trkpt lat="47.86805" lon="-1.75093">
        <ele>78</ele>
        <time>2015-06-07T08:46:45Z</time>
      </trkpt>
      <trkpt lat="47.86805" lon="-1.75097">
        <ele>78</ele>
        <time>2015-06-07T08:46:46Z</time>
      </trkpt>
      <trkpt lat="47.86804" lon="-1.75102">
        <ele>78</ele>
        <time>2015-06-07T08:46:47Z</time>
      </trkpt>
      <trkpt lat="47.86804" lon="-1.75106">
        <ele>78</ele>
        <time>2015-06-07T08:46:48Z</time>
      </trkpt>
      <trkpt lat="47.86803" lon="-1.7511">
        <ele>77</ele>
        <time>2015-06-07T08:46:49Z</time>
      </trkpt>
      <trkpt lat="47.86801" lon="-1.75114">
        <ele>77</ele>
        <time>2015-06-07T08:46:50Z</time>
      </trkpt>
      <trkpt lat="47.86799" lon="-1.75118">
        <ele>77</ele>
        <time>2015-06-07T08:46:51Z</time>
      </trkpt>
      <trkpt lat="47.86796" lon="-1.75121">
        <ele>77</ele>
        <time>2015-06-07T08:46:52Z</time>
      </trkpt>
      <trkpt lat="47.86796" lon="-1.75125">
        <ele>77</ele>
        <time>2015-06-07T08:46:53Z</time>
      </trkpt>
      <trkpt lat="47.86794" lon="-1.75129">
        <ele>77</ele>
        <time>2015-06-07T08:46:54Z</time>
      </trkpt>
      <trkpt lat="47.86793" lon="-1.75134">
        <ele>77</ele>
        <time>2015-06-07T08:46:55Z</time>
      </trkpt>
      <trkpt lat="47.86792" lon="-1.75139">
        <ele>77</ele>
        <time>2015-06-07T08:46:56Z</time>
      </trkpt>
      <trkpt lat="47.86793" lon="-1.75146">
        <ele>77</ele>
        <time>2015-06-07T08:46:57Z</time>
      </trkpt>
      <trkpt lat="47.86794" lon="-1.75151">
        <ele>77</ele>
        <time>2015-06-07T08:46:58Z</time>
      </trkpt>
      <trkpt lat="47.86796" lon="-1.75156">
        <ele>76</ele>
        <time>2015-06-07T08:46:59Z</time>
      </trkpt>
      <trkpt lat="47.86797" lon="-1.75162">
        <ele>76</ele>
        <time>2015-06-07T08:47:00Z</time>
      </trkpt>
      <trkpt lat="47.868" lon="-1.75166">
        <ele>76</ele>
        <time>2015-06-07T08:47:01Z</time>
      </trkpt>
      <trkpt lat="47.86802" lon="-1.7517">
        <ele>76</ele>
        <time>2015-06-07T08:47:02Z</time>
      </trkpt>
      <trkpt lat="47.86804" lon="-1.75174">
        <ele>76</ele>
        <time>2015-06-07T08:47:03Z</time>
      </trkpt>
      <trkpt lat="47.86805" lon="-1.75176">
        <ele>76</ele>
        <time>2015-06-07T08:47:04Z</time>
      </trkpt>
      <trkpt lat="47.86804" lon="-1.75177">
        <ele>75</ele>
        <time>2015-06-07T08:47:05Z</time>
      </trkpt>
      <trkpt lat="47.86803" lon="-1.75178">
        <ele>75</ele>
        <time>2015-06-07T08:47:06Z</time>
      </trkpt>
      <trkpt lat="47.86802" lon="-1.75179">
        <ele>75</ele>
        <time>2015-06-07T08:47:07Z</time>
      </trkpt>
      <trkpt lat="47.868" lon="-1.7518">
        <ele>75</ele>
        <time>2015-06-07T08:47:08Z</time>
      </trkpt>
      <trkpt lat="47.86798" lon="-1.75181">
        <ele>74</ele>
        <time>2015-06-07T08:47:09Z</time>
      </trkpt>
      <trkpt lat="47.86796" lon="-1.75183">
        <ele>74</ele>
        <time>2015-06-07T08:47:10Z</time>
      </trkpt>
      <trkpt lat="47.86793" lon="-1.75185">
        <ele>74</ele>
        <time>2015-06-07T08:47:11Z</time>
      </trkpt>
      <trkpt lat="47.86791" lon="-1.75186">
        <ele>74</ele>
        <time>2015-06-07T08:47:12Z</time>
      </trkpt>
      <trkpt lat="47.86789" lon="-1.75188">
        <ele>73</ele>
        <time>2015-06-07T08:47:13Z</time>
      </trkpt>
      <trkpt lat="47.86787" lon="-1.7519">
        <ele>73</ele>
        <time>2015-06-07T08:47:14Z</time>
      </trkpt>
      <trkpt lat="47.86785" lon="-1.75193">
        <ele>73</ele>
        <time>2015-06-07T08:47:15Z</time>
      </trkpt>
      <trkpt lat="47.86782" lon="-1.75193">
        <ele>73</ele>
        <time>2015-06-07T08:47:16Z</time>
      </trkpt>
      <trkpt lat="47.8678" lon="-1.75192">
        <ele>73</ele>
        <time>2015-06-07T08:47:17Z</time>
      </trkpt>
      <trkpt lat="47.86778" lon="-1.75192">
        <ele>73</ele>
        <time>2015-06-07T08:47:18Z</time>
      </trkpt>
      <trkpt lat="47.86775" lon="-1.75191">
        <ele>73</ele>
        <time>2015-06-07T08:47:19Z</time>
      </trkpt>
      <trkpt lat="47.86773" lon="-1.75191">
        <ele>72</ele>
        <time>2015-06-07T08:47:20Z</time>
      </trkpt>
      <trkpt lat="47.86772" lon="-1.75189">
        <ele>72</ele>
        <time>2015-06-07T08:47:21Z</time>
      </trkpt>
      <trkpt lat="47.8677" lon="-1.75187">
        <ele>72</ele>
        <time>2015-06-07T08:47:22Z</time>
      </trkpt>
      <trkpt lat="47.86769" lon="-1.75184">
        <ele>72</ele>
        <time>2015-06-07T08:47:23Z</time>
      </trkpt>
      <trkpt lat="47.86767" lon="-1.75183">
        <ele>72</ele>
        <time>2015-06-07T08:47:24Z</time>
      </trkpt>
      <trkpt lat="47.86765" lon="-1.75183">
        <ele>72</ele>
        <time>2015-06-07T08:47:25Z</time>
      </trkpt>
      <trkpt lat="47.86762" lon="-1.75182">
        <ele>72</ele>
        <time>2015-06-07T08:47:26Z</time>
      </trkpt>
      <trkpt lat="47.8676" lon="-1.75181">
        <ele>72</ele>
        <time>2015-06-07T08:47:27Z</time>
      </trkpt>
      <trkpt lat="47.8676" lon="-1.75181">
        <ele>72</ele>
        <time>2015-06-07T08:47:28Z</time>
      </trkpt>
      <trkpt lat="47.86754" lon="-1.75184">
        <ele>72</ele>
        <time>2015-06-07T08:47:29Z</time>
      </trkpt>
      <trkpt lat="47.86752" lon="-1.75187">
        <ele>72</ele>
        <time>2015-06-07T08:47:30Z</time>
      </trkpt>
      <trkpt lat="47.8675" lon="-1.75189">
        <ele>72</ele>
        <time>2015-06-07T08:47:31Z</time>
      </trkpt>
      <trkpt lat="47.8675" lon="-1.75189">
        <ele>72</ele>
        <time>2015-06-07T08:47:32Z</time>
      </trkpt>
      <trkpt lat="47.86749" lon="-1.75193">
        <ele>72</ele>
        <time>2015-06-07T08:47:33Z</time>
      </trkpt>
      <trkpt lat="47.86747" lon="-1.75197">
        <ele>72</ele>
        <time>2015-06-07T08:47:34Z</time>
      </trkpt>
      <trkpt lat="47.86745" lon="-1.75201">
        <ele>72</ele>
        <time>2015-06-07T08:47:35Z</time>
      </trkpt>
      <trkpt lat="47.86743" lon="-1.75205">
        <ele>72</ele>
        <time>2015-06-07T08:47:36Z</time>
      </trkpt>
      <trkpt lat="47.86741" lon="-1.75208">
        <ele>72</ele>
        <time>2015-06-07T08:47:37Z</time>
      </trkpt>
      <trkpt lat="47.8674" lon="-1.75213">
        <ele>73</ele>
        <time>2015-06-07T08:47:38Z</time>
      </trkpt>
      <trkpt lat="47.86739" lon="-1.75217">
        <ele>73</ele>
        <time>2015-06-07T08:47:39Z</time>
      </trkpt>
      <trkpt lat="47.86738" lon="-1.75221">
        <ele>73</ele>
        <time>2015-06-07T08:47:40Z</time>
      </trkpt>
      <trkpt lat="47.86737" lon="-1.75224">
        <ele>73</ele>
        <time>2015-06-07T08:47:41Z</time>
      </trkpt>
      <trkpt lat="47.86737" lon="-1.75229">
        <ele>73</ele>
        <time>2015-06-07T08:47:42Z</time>
      </trkpt>
      <trkpt lat="47.86737" lon="-1.75233">
        <ele>74</ele>
        <time>2015-06-07T08:47:43Z</time>
      </trkpt>
      <trkpt lat="47.86734" lon="-1.75243">
        <ele>74</ele>
        <time>2015-06-07T08:47:44Z</time>
      </trkpt>
      <trkpt lat="47.86734" lon="-1.75243">
        <ele>74</ele>
        <time>2015-06-07T08:47:45Z</time>
      </trkpt>
      <trkpt lat="47.86733" lon="-1.75248">
        <ele>75</ele>
        <time>2015-06-07T08:47:46Z</time>
      </trkpt>
      <trkpt lat="47.86731" lon="-1.75252">
        <ele>75</ele>
        <time>2015-06-07T08:47:47Z</time>
      </trkpt>
      <trkpt lat="47.8673" lon="-1.75256">
        <ele>75</ele>
        <time>2015-06-07T08:47:48Z</time>
      </trkpt>
      <trkpt lat="47.86728" lon="-1.7526">
        <ele>75</ele>
        <time>2015-06-07T08:47:49Z</time>
      </trkpt>
      <trkpt lat="47.86727" lon="-1.75264">
        <ele>76</ele>
        <time>2015-06-07T08:47:50Z</time>
      </trkpt>
      <trkpt lat="47.86724" lon="-1.75269">
        <ele>76</ele>
        <time>2015-06-07T08:47:51Z</time>
      </trkpt>
      <trkpt lat="47.86721" lon="-1.75275">
        <ele>76</ele>
        <time>2015-06-07T08:47:52Z</time>
      </trkpt>
      <trkpt lat="47.86716" lon="-1.75288">
        <ele>76</ele>
        <time>2015-06-07T08:47:53Z</time>
      </trkpt>
      <trkpt lat="47.86716" lon="-1.75288">
        <ele>76</ele>
        <time>2015-06-07T08:47:54Z</time>
      </trkpt>
      <trkpt lat="47.86715" lon="-1.75293">
        <ele>76</ele>
        <time>2015-06-07T08:47:55Z</time>
      </trkpt>
      <trkpt lat="47.86714" lon="-1.75297">
        <ele>76</ele>
        <time>2015-06-07T08:47:56Z</time>
      </trkpt>
      <trkpt lat="47.86713" lon="-1.75301">
        <ele>76</ele>
        <time>2015-06-07T08:47:57Z</time>
      </trkpt>
      <trkpt lat="47.86709" lon="-1.75307">
        <ele>76</ele>
        <time>2015-06-07T08:47:58Z</time>
      </trkpt>
      <trkpt lat="47.86706" lon="-1.7531">
        <ele>76</ele>
        <time>2015-06-07T08:47:59Z</time>
      </trkpt>
      <trkpt lat="47.86704" lon="-1.75313">
        <ele>75</ele>
        <time>2015-06-07T08:48:00Z</time>
      </trkpt>
      <trkpt lat="47.86704" lon="-1.75313">
        <ele>75</ele>
        <time>2015-06-07T08:48:01Z</time>
      </trkpt>
      <trkpt lat="47.86702" lon="-1.75318">
        <ele>75</ele>
        <time>2015-06-07T08:48:02Z</time>
      </trkpt>
      <trkpt lat="47.86702" lon="-1.75318">
        <ele>75</ele>
        <time>2015-06-07T08:48:03Z</time>
      </trkpt>
      <trkpt lat="47.86701" lon="-1.75321">
        <ele>75</ele>
        <time>2015-06-07T08:48:04Z</time>
      </trkpt>
      <trkpt lat="47.86699" lon="-1.75326">
        <ele>75</ele>
        <time>2015-06-07T08:48:05Z</time>
      </trkpt>
      <trkpt lat="47.86699" lon="-1.75326">
        <ele>75</ele>
        <time>2015-06-07T08:48:06Z</time>
      </trkpt>
      <trkpt lat="47.86698" lon="-1.75329">
        <ele>75</ele>
        <time>2015-06-07T08:48:07Z</time>
      </trkpt>
      <trkpt lat="47.86697" lon="-1.75332">
        <ele>75</ele>
        <time>2015-06-07T08:48:08Z</time>
      </trkpt>
      <trkpt lat="47.86695" lon="-1.75336">
        <ele>75</ele>
        <time>2015-06-07T08:48:09Z</time>
      </trkpt>
      <trkpt lat="47.86694" lon="-1.7534">
        <ele>75</ele>
        <time>2015-06-07T08:48:10Z</time>
      </trkpt>
      <trkpt lat="47.86693" lon="-1.75344">
        <ele>75</ele>
        <time>2015-06-07T08:48:11Z</time>
      </trkpt>
      <trkpt lat="47.86692" lon="-1.75347">
        <ele>75</ele>
        <time>2015-06-07T08:48:12Z</time>
      </trkpt>
      <trkpt lat="47.8669" lon="-1.75355">
        <ele>75</ele>
        <time>2015-06-07T08:48:13Z</time>
      </trkpt>
      <trkpt lat="47.8669" lon="-1.75355">
        <ele>75</ele>
        <time>2015-06-07T08:48:14Z</time>
      </trkpt>
      <trkpt lat="47.86688" lon="-1.75359">
        <ele>75</ele>
        <time>2015-06-07T08:48:15Z</time>
      </trkpt>
      <trkpt lat="47.86687" lon="-1.75363">
        <ele>75</ele>
        <time>2015-06-07T08:48:16Z</time>
      </trkpt>
      <trkpt lat="47.86687" lon="-1.75368">
        <ele>75</ele>
        <time>2015-06-07T08:48:17Z</time>
      </trkpt>
      <trkpt lat="47.86685" lon="-1.75372">
        <ele>75</ele>
        <time>2015-06-07T08:48:18Z</time>
      </trkpt>
      <trkpt lat="47.86684" lon="-1.75377">
        <ele>75</ele>
        <time>2015-06-07T08:48:19Z</time>
      </trkpt>
      <trkpt lat="47.86684" lon="-1.75381">
        <ele>75</ele>
        <time>2015-06-07T08:48:20Z</time>
      </trkpt>
      <trkpt lat="47.86682" lon="-1.75385">
        <ele>75</ele>
        <time>2015-06-07T08:48:21Z</time>
      </trkpt>
      <trkpt lat="47.86682" lon="-1.75389">
        <ele>75</ele>
        <time>2015-06-07T08:48:22Z</time>
      </trkpt>
      <trkpt lat="47.8668" lon="-1.75394">
        <ele>75</ele>
        <time>2015-06-07T08:48:23Z</time>
      </trkpt>
      <trkpt lat="47.86679" lon="-1.75398">
        <ele>75</ele>
        <time>2015-06-07T08:48:24Z</time>
      </trkpt>
      <trkpt lat="47.86678" lon="-1.75404">
        <ele>75</ele>
        <time>2015-06-07T08:48:25Z</time>
      </trkpt>
      <trkpt lat="47.86676" lon="-1.75409">
        <ele>75</ele>
        <time>2015-06-07T08:48:26Z</time>
      </trkpt>
      <trkpt lat="47.86674" lon="-1.75415">
        <ele>74</ele>
        <time>2015-06-07T08:48:27Z</time>
      </trkpt>
      <trkpt lat="47.86672" lon="-1.75421">
        <ele>74</ele>
        <time>2015-06-07T08:48:28Z</time>
      </trkpt>
      <trkpt lat="47.86671" lon="-1.75427">
        <ele>74</ele>
        <time>2015-06-07T08:48:29Z</time>
      </trkpt>
      <trkpt lat="47.86669" lon="-1.75434">
        <ele>74</ele>
        <time>2015-06-07T08:48:30Z</time>
      </trkpt>
      <trkpt lat="47.86667" lon="-1.7544">
        <ele>74</ele>
        <time>2015-06-07T08:48:31Z</time>
      </trkpt>
      <trkpt lat="47.86665" lon="-1.75446">
        <ele>74</ele>
        <time>2015-06-07T08:48:32Z</time>
      </trkpt>
      <trkpt lat="47.86663" lon="-1.75451">
        <ele>73</ele>
        <time>2015-06-07T08:48:33Z</time>
      </trkpt>
      <trkpt lat="47.86661" lon="-1.75457">
        <ele>73</ele>
        <time>2015-06-07T08:48:34Z</time>
      </trkpt>
      <trkpt lat="47.86658" lon="-1.75462">
        <ele>73</ele>
        <time>2015-06-07T08:48:35Z</time>
      </trkpt>
      <trkpt lat="47.86656" lon="-1.75468">
        <ele>72</ele>
        <time>2015-06-07T08:48:36Z</time>
      </trkpt>
      <trkpt lat="47.86654" lon="-1.75473">
        <ele>72</ele>
        <time>2015-06-07T08:48:37Z</time>
      </trkpt>
      <trkpt lat="47.86652" lon="-1.75479">
        <ele>72</ele>
        <time>2015-06-07T08:48:38Z</time>
      </trkpt>
      <trkpt lat="47.8665" lon="-1.75484">
        <ele>72</ele>
        <time>2015-06-07T08:48:39Z</time>
      </trkpt>
      <trkpt lat="47.86648" lon="-1.75491">
        <ele>72</ele>
        <time>2015-06-07T08:48:40Z</time>
      </trkpt>
      <trkpt lat="47.86646" lon="-1.75498">
        <ele>72</ele>
        <time>2015-06-07T08:48:41Z</time>
      </trkpt>
      <trkpt lat="47.86644" lon="-1.75503">
        <ele>72</ele>
        <time>2015-06-07T08:48:42Z</time>
      </trkpt>
      <trkpt lat="47.86641" lon="-1.75509">
        <ele>72</ele>
        <time>2015-06-07T08:48:43Z</time>
      </trkpt>
      <trkpt lat="47.86638" lon="-1.7552">
        <ele>71</ele>
        <time>2015-06-07T08:48:44Z</time>
      </trkpt>
      <trkpt lat="47.86636" lon="-1.75526">
        <ele>71</ele>
        <time>2015-06-07T08:48:45Z</time>
      </trkpt>
      <trkpt lat="47.86636" lon="-1.75526">
        <ele>71</ele>
        <time>2015-06-07T08:48:46Z</time>
      </trkpt>
      <trkpt lat="47.86635" lon="-1.7553">
        <ele>71</ele>
        <time>2015-06-07T08:48:47Z</time>
      </trkpt>
      <trkpt lat="47.86637" lon="-1.75536">
        <ele>70</ele>
        <time>2015-06-07T08:48:48Z</time>
      </trkpt>
      <trkpt lat="47.86637" lon="-1.75536">
        <ele>70</ele>
        <time>2015-06-07T08:48:49Z</time>
      </trkpt>
      <trkpt lat="47.86639" lon="-1.7554">
        <ele>70</ele>
        <time>2015-06-07T08:48:50Z</time>
      </trkpt>
      <trkpt lat="47.86642" lon="-1.75544">
        <ele>69</ele>
        <time>2015-06-07T08:48:51Z</time>
      </trkpt>
      <trkpt lat="47.86645" lon="-1.75548">
        <ele>69</ele>
        <time>2015-06-07T08:48:52Z</time>
      </trkpt>
      <trkpt lat="47.86648" lon="-1.75551">
        <ele>69</ele>
        <time>2015-06-07T08:48:53Z</time>
      </trkpt>
      <trkpt lat="47.86653" lon="-1.75555">
        <ele>68</ele>
        <time>2015-06-07T08:48:54Z</time>
      </trkpt>
      <trkpt lat="47.86657" lon="-1.75558">
        <ele>68</ele>
        <time>2015-06-07T08:48:55Z</time>
      </trkpt>
      <trkpt lat="47.86662" lon="-1.75561">
        <ele>68</ele>
        <time>2015-06-07T08:48:56Z</time>
      </trkpt>
      <trkpt lat="47.86667" lon="-1.75563">
        <ele>67</ele>
        <time>2015-06-07T08:48:57Z</time>
      </trkpt>
      <trkpt lat="47.86673" lon="-1.75567">
        <ele>67</ele>
        <time>2015-06-07T08:48:58Z</time>
      </trkpt>
      <trkpt lat="47.86679" lon="-1.75571">
        <ele>67</ele>
        <time>2015-06-07T08:48:59Z</time>
      </trkpt>
      <trkpt lat="47.86685" lon="-1.75575">
        <ele>66</ele>
        <time>2015-06-07T08:49:00Z</time>
      </trkpt>
      <trkpt lat="47.8669" lon="-1.75579">
        <ele>66</ele>
        <time>2015-06-07T08:49:01Z</time>
      </trkpt>
      <trkpt lat="47.86696" lon="-1.75582">
        <ele>65</ele>
        <time>2015-06-07T08:49:02Z</time>
      </trkpt>
      <trkpt lat="47.86702" lon="-1.75586">
        <ele>65</ele>
        <time>2015-06-07T08:49:03Z</time>
      </trkpt>
      <trkpt lat="47.86708" lon="-1.75591">
        <ele>64</ele>
        <time>2015-06-07T08:49:04Z</time>
      </trkpt>
      <trkpt lat="47.86714" lon="-1.75596">
        <ele>64</ele>
        <time>2015-06-07T08:49:05Z</time>
      </trkpt>
      <trkpt lat="47.86719" lon="-1.75601">
        <ele>64</ele>
        <time>2015-06-07T08:49:06Z</time>
      </trkpt>
      <trkpt lat="47.86725" lon="-1.75605">
        <ele>63</ele>
        <time>2015-06-07T08:49:07Z</time>
      </trkpt>
      <trkpt lat="47.86729" lon="-1.7561">
        <ele>63</ele>
        <time>2015-06-07T08:49:08Z</time>
      </trkpt>
      <trkpt lat="47.86732" lon="-1.75617">
        <ele>62</ele>
        <time>2015-06-07T08:49:09Z</time>
      </trkpt>
      <trkpt lat="47.86733" lon="-1.75625">
        <ele>62</ele>
        <time>2015-06-07T08:49:10Z</time>
      </trkpt>
      <trkpt lat="47.86734" lon="-1.75633">
        <ele>62</ele>
        <time>2015-06-07T08:49:11Z</time>
      </trkpt>
      <trkpt lat="47.86733" lon="-1.75642">
        <ele>61</ele>
        <time>2015-06-07T08:49:12Z</time>
      </trkpt>
      <trkpt lat="47.86732" lon="-1.75652">
        <ele>60</ele>
        <time>2015-06-07T08:49:13Z</time>
      </trkpt>
      <trkpt lat="47.86731" lon="-1.75662">
        <ele>60</ele>
        <time>2015-06-07T08:49:14Z</time>
      </trkpt>
      <trkpt lat="47.86731" lon="-1.75672">
        <ele>59</ele>
        <time>2015-06-07T08:49:15Z</time>
      </trkpt>
      <trkpt lat="47.86733" lon="-1.75681">
        <ele>59</ele>
        <time>2015-06-07T08:49:16Z</time>
      </trkpt>
      <trkpt lat="47.86737" lon="-1.75697">
        <ele>57</ele>
        <time>2015-06-07T08:49:17Z</time>
      </trkpt>
      <trkpt lat="47.86741" lon="-1.75703">
        <ele>57</ele>
        <time>2015-06-07T08:49:18Z</time>
      </trkpt>
      <trkpt lat="47.86744" lon="-1.7571">
        <ele>56</ele>
        <time>2015-06-07T08:49:19Z</time>
      </trkpt>
      <trkpt lat="47.86747" lon="-1.75716">
        <ele>56</ele>
        <time>2015-06-07T08:49:20Z</time>
      </trkpt>
      <trkpt lat="47.86748" lon="-1.75722">
        <ele>55</ele>
        <time>2015-06-07T08:49:21Z</time>
      </trkpt>
      <trkpt lat="47.86748" lon="-1.75722">
        <ele>55</ele>
        <time>2015-06-07T08:49:22Z</time>
      </trkpt>
      <trkpt lat="47.86747" lon="-1.75727">
        <ele>55</ele>
        <time>2015-06-07T08:49:23Z</time>
      </trkpt>
      <trkpt lat="47.86744" lon="-1.75732">
        <ele>54</ele>
        <time>2015-06-07T08:49:24Z</time>
      </trkpt>
      <trkpt lat="47.86741" lon="-1.75738">
        <ele>54</ele>
        <time>2015-06-07T08:49:25Z</time>
      </trkpt>
      <trkpt lat="47.86739" lon="-1.75744">
        <ele>54</ele>
        <time>2015-06-07T08:49:26Z</time>
      </trkpt>
      <trkpt lat="47.86737" lon="-1.75752">
        <ele>53</ele>
        <time>2015-06-07T08:49:27Z</time>
      </trkpt>
      <trkpt lat="47.86734" lon="-1.75759">
        <ele>53</ele>
        <time>2015-06-07T08:49:28Z</time>
      </trkpt>
      <trkpt lat="47.86732" lon="-1.75766">
        <ele>53</ele>
        <time>2015-06-07T08:49:29Z</time>
      </trkpt>
      <trkpt lat="47.8673" lon="-1.75774">
        <ele>53</ele>
        <time>2015-06-07T08:49:30Z</time>
      </trkpt>
      <trkpt lat="47.86729" lon="-1.75781">
        <ele>52</ele>
        <time>2015-06-07T08:49:31Z</time>
      </trkpt>
      <trkpt lat="47.86727" lon="-1.75788">
        <ele>52</ele>
        <time>2015-06-07T08:49:32Z</time>
      </trkpt>
      <trkpt lat="47.86726" lon="-1.75794">
        <ele>52</ele>
        <time>2015-06-07T08:49:33Z</time>
      </trkpt>
      <trkpt lat="47.86724" lon="-1.75806">
        <ele>52</ele>
        <time>2015-06-07T08:49:34Z</time>
      </trkpt>
      <trkpt lat="47.86724" lon="-1.75806">
        <ele>52</ele>
        <time>2015-06-07T08:49:35Z</time>
      </trkpt>
      <trkpt lat="47.86723" lon="-1.75811">
        <ele>52</ele>
        <time>2015-06-07T08:49:36Z</time>
      </trkpt>
      <trkpt lat="47.86722" lon="-1.75814">
        <ele>51</ele>
        <time>2015-06-07T08:49:37Z</time>
      </trkpt>
      <trkpt lat="47.86721" lon="-1.75818">
        <ele>51</ele>
        <time>2015-06-07T08:49:38Z</time>
      </trkpt>
      <trkpt lat="47.8672" lon="-1.75821">
        <ele>51</ele>
        <time>2015-06-07T08:49:39Z</time>
      </trkpt>
      <trkpt lat="47.86719" lon="-1.75825">
        <ele>51</ele>
        <time>2015-06-07T08:49:40Z</time>
      </trkpt>
      <trkpt lat="47.86719" lon="-1.75828">
        <ele>51</ele>
        <time>2015-06-07T08:49:41Z</time>
      </trkpt>
      <trkpt lat="47.86719" lon="-1.75831">
        <ele>51</ele>
        <time>2015-06-07T08:49:42Z</time>
      </trkpt>
      <trkpt lat="47.86719" lon="-1.75839">
        <ele>50</ele>
        <time>2015-06-07T08:49:43Z</time>
      </trkpt>
      <trkpt lat="47.86719" lon="-1.75839">
        <ele>50</ele>
        <time>2015-06-07T08:49:44Z</time>
      </trkpt>
      <trkpt lat="47.86719" lon="-1.75844">
        <ele>50</ele>
        <time>2015-06-07T08:49:45Z</time>
      </trkpt>
      <trkpt lat="47.8672" lon="-1.75849">
        <ele>50</ele>
        <time>2015-06-07T08:49:46Z</time>
      </trkpt>
      <trkpt lat="47.8672" lon="-1.75854">
        <ele>49</ele>
        <time>2015-06-07T08:49:47Z</time>
      </trkpt>
      <trkpt lat="47.86721" lon="-1.7586">
        <ele>49</ele>
        <time>2015-06-07T08:49:48Z</time>
      </trkpt>
      <trkpt lat="47.86721" lon="-1.75865">
        <ele>49</ele>
        <time>2015-06-07T08:49:49Z</time>
      </trkpt>
      <trkpt lat="47.86721" lon="-1.75871">
        <ele>49</ele>
        <time>2015-06-07T08:49:50Z</time>
      </trkpt>
      <trkpt lat="47.86721" lon="-1.75877">
        <ele>49</ele>
        <time>2015-06-07T08:49:51Z</time>
      </trkpt>
      <trkpt lat="47.86721" lon="-1.75883">
        <ele>48</ele>
        <time>2015-06-07T08:49:52Z</time>
      </trkpt>
      <trkpt lat="47.8672" lon="-1.75888">
        <ele>48</ele>
        <time>2015-06-07T08:49:53Z</time>
      </trkpt>
      <trkpt lat="47.86719" lon="-1.75892">
        <ele>48</ele>
        <time>2015-06-07T08:49:54Z</time>
      </trkpt>
      <trkpt lat="47.86719" lon="-1.75897">
        <ele>48</ele>
        <time>2015-06-07T08:49:55Z</time>
      </trkpt>
      <trkpt lat="47.86719" lon="-1.75902">
        <ele>48</ele>
        <time>2015-06-07T08:49:56Z</time>
      </trkpt>
      <trkpt lat="47.86719" lon="-1.75908">
        <ele>48</ele>
        <time>2015-06-07T08:49:57Z</time>
      </trkpt>
      <trkpt lat="47.86718" lon="-1.75914">
        <ele>48</ele>
        <time>2015-06-07T08:49:58Z</time>
      </trkpt>
      <trkpt lat="47.86717" lon="-1.75922">
        <ele>47</ele>
        <time>2015-06-07T08:49:59Z</time>
      </trkpt>
      <trkpt lat="47.86717" lon="-1.7593">
        <ele>47</ele>
        <time>2015-06-07T08:50:00Z</time>
      </trkpt>
      <trkpt lat="47.86716" lon="-1.75937">
        <ele>47</ele>
        <time>2015-06-07T08:50:01Z</time>
      </trkpt>
      <trkpt lat="47.86715" lon="-1.75945">
        <ele>47</ele>
        <time>2015-06-07T08:50:02Z</time>
      </trkpt>
      <trkpt lat="47.86714" lon="-1.75953">
        <ele>47</ele>
        <time>2015-06-07T08:50:03Z</time>
      </trkpt>
      <trkpt lat="47.86712" lon="-1.75959">
        <ele>47</ele>
        <time>2015-06-07T08:50:04Z</time>
      </trkpt>
      <trkpt lat="47.86711" lon="-1.75966">
        <ele>47</ele>
        <time>2015-06-07T08:50:05Z</time>
      </trkpt>
      <trkpt lat="47.8671" lon="-1.75973">
        <ele>47</ele>
        <time>2015-06-07T08:50:06Z</time>
      </trkpt>
      <trkpt lat="47.86709" lon="-1.7598">
        <ele>47</ele>
        <time>2015-06-07T08:50:07Z</time>
      </trkpt>
      <trkpt lat="47.86707" lon="-1.75988">
        <ele>47</ele>
        <time>2015-06-07T08:50:08Z</time>
      </trkpt>
      <trkpt lat="47.86706" lon="-1.75995">
        <ele>46</ele>
        <time>2015-06-07T08:50:09Z</time>
      </trkpt>
      <trkpt lat="47.86704" lon="-1.76001">
        <ele>46</ele>
        <time>2015-06-07T08:50:10Z</time>
      </trkpt>
      <trkpt lat="47.86702" lon="-1.76008">
        <ele>46</ele>
        <time>2015-06-07T08:50:11Z</time>
      </trkpt>
      <trkpt lat="47.86701" lon="-1.76014">
        <ele>46</ele>
        <time>2015-06-07T08:50:12Z</time>
      </trkpt>
      <trkpt lat="47.86699" lon="-1.76021">
        <ele>45</ele>
        <time>2015-06-07T08:50:13Z</time>
      </trkpt>
      <trkpt lat="47.86697" lon="-1.76028">
        <ele>45</ele>
        <time>2015-06-07T08:50:14Z</time>
      </trkpt>
      <trkpt lat="47.86695" lon="-1.76034">
        <ele>45</ele>
        <time>2015-06-07T08:50:15Z</time>
      </trkpt>
      <trkpt lat="47.86694" lon="-1.76041">
        <ele>44</ele>
        <time>2015-06-07T08:50:16Z</time>
      </trkpt>
      <trkpt lat="47.86692" lon="-1.76048">
        <ele>44</ele>
        <time>2015-06-07T08:50:17Z</time>
      </trkpt>
      <trkpt lat="47.8669" lon="-1.76055">
        <ele>44</ele>
        <time>2015-06-07T08:50:18Z</time>
      </trkpt>
      <trkpt lat="47.86688" lon="-1.76062">
        <ele>44</ele>
        <time>2015-06-07T08:50:19Z</time>
      </trkpt>
      <trkpt lat="47.86687" lon="-1.76069">
        <ele>44</ele>
        <time>2015-06-07T08:50:20Z</time>
      </trkpt>
      <trkpt lat="47.86685" lon="-1.76076">
        <ele>44</ele>
        <time>2015-06-07T08:50:21Z</time>
      </trkpt>
      <trkpt lat="47.86683" lon="-1.76084">
        <ele>43</ele>
        <time>2015-06-07T08:50:22Z</time>
      </trkpt>
      <trkpt lat="47.86681" lon="-1.76091">
        <ele>43</ele>
        <time>2015-06-07T08:50:23Z</time>
      </trkpt>
      <trkpt lat="47.8668" lon="-1.76098">
        <ele>43</ele>
        <time>2015-06-07T08:50:24Z</time>
      </trkpt>
      <trkpt lat="47.86679" lon="-1.76106">
        <ele>43</ele>
        <time>2015-06-07T08:50:25Z</time>
      </trkpt>
      <trkpt lat="47.8668" lon="-1.76113">
        <ele>42</ele>
        <time>2015-06-07T08:50:26Z</time>
      </trkpt>
      <trkpt lat="47.86681" lon="-1.7612">
        <ele>42</ele>
        <time>2015-06-07T08:50:27Z</time>
      </trkpt>
      <trkpt lat="47.86682" lon="-1.76128">
        <ele>42</ele>
        <time>2015-06-07T08:50:28Z</time>
      </trkpt>
      <trkpt lat="47.86682" lon="-1.76135">
        <ele>42</ele>
        <time>2015-06-07T08:50:29Z</time>
      </trkpt>
      <trkpt lat="47.86682" lon="-1.76142">
        <ele>41</ele>
        <time>2015-06-07T08:50:30Z</time>
      </trkpt>
      <trkpt lat="47.86681" lon="-1.76149">
        <ele>41</ele>
        <time>2015-06-07T08:50:31Z</time>
      </trkpt>
      <trkpt lat="47.86679" lon="-1.76154">
        <ele>41</ele>
        <time>2015-06-07T08:50:32Z</time>
      </trkpt>
      <trkpt lat="47.86677" lon="-1.7616">
        <ele>41</ele>
        <time>2015-06-07T08:50:33Z</time>
      </trkpt>
      <trkpt lat="47.86675" lon="-1.76166">
        <ele>41</ele>
        <time>2015-06-07T08:50:34Z</time>
      </trkpt>
      <trkpt lat="47.86674" lon="-1.76172">
        <ele>41</ele>
        <time>2015-06-07T08:50:35Z</time>
      </trkpt>
      <trkpt lat="47.86673" lon="-1.76179">
        <ele>41</ele>
        <time>2015-06-07T08:50:36Z</time>
      </trkpt>
      <trkpt lat="47.86671" lon="-1.76186">
        <ele>41</ele>
        <time>2015-06-07T08:50:37Z</time>
      </trkpt>
      <trkpt lat="47.86669" lon="-1.76192">
        <ele>41</ele>
        <time>2015-06-07T08:50:38Z</time>
      </trkpt>
      <trkpt lat="47.86668" lon="-1.76198">
        <ele>41</ele>
        <time>2015-06-07T08:50:39Z</time>
      </trkpt>
      <trkpt lat="47.86667" lon="-1.76203">
        <ele>41</ele>
        <time>2015-06-07T08:50:40Z</time>
      </trkpt>
      <trkpt lat="47.86666" lon="-1.76209">
        <ele>42</ele>
        <time>2015-06-07T08:50:41Z</time>
      </trkpt>
      <trkpt lat="47.86664" lon="-1.76213">
        <ele>42</ele>
        <time>2015-06-07T08:50:42Z</time>
      </trkpt>
      <trkpt lat="47.86663" lon="-1.76217">
        <ele>42</ele>
        <time>2015-06-07T08:50:43Z</time>
      </trkpt>
      <trkpt lat="47.86663" lon="-1.76222">
        <ele>42</ele>
        <time>2015-06-07T08:50:44Z</time>
      </trkpt>
      <trkpt lat="47.86662" lon="-1.76227">
        <ele>42</ele>
        <time>2015-06-07T08:50:45Z</time>
      </trkpt>
      <trkpt lat="47.86662" lon="-1.76232">
        <ele>42</ele>
        <time>2015-06-07T08:50:46Z</time>
      </trkpt>
      <trkpt lat="47.86662" lon="-1.76237">
        <ele>42</ele>
        <time>2015-06-07T08:50:47Z</time>
      </trkpt>
      <trkpt lat="47.86661" lon="-1.76243">
        <ele>42</ele>
        <time>2015-06-07T08:50:48Z</time>
      </trkpt>
      <trkpt lat="47.86661" lon="-1.76249">
        <ele>42</ele>
        <time>2015-06-07T08:50:49Z</time>
      </trkpt>
      <trkpt lat="47.8666" lon="-1.76255">
        <ele>42</ele>
        <time>2015-06-07T08:50:50Z</time>
      </trkpt>
      <trkpt lat="47.86659" lon="-1.76261">
        <ele>42</ele>
        <time>2015-06-07T08:50:51Z</time>
      </trkpt>
      <trkpt lat="47.86659" lon="-1.76268">
        <ele>42</ele>
        <time>2015-06-07T08:50:52Z</time>
      </trkpt>
      <trkpt lat="47.86658" lon="-1.76274">
        <ele>42</ele>
        <time>2015-06-07T08:50:53Z</time>
      </trkpt>
      <trkpt lat="47.86658" lon="-1.76279">
        <ele>42</ele>
        <time>2015-06-07T08:50:54Z</time>
      </trkpt>
      <trkpt lat="47.86658" lon="-1.76287">
        <ele>42</ele>
        <time>2015-06-07T08:50:55Z</time>
      </trkpt>
      <trkpt lat="47.86658" lon="-1.76293">
        <ele>42</ele>
        <time>2015-06-07T08:50:56Z</time>
      </trkpt>
      <trkpt lat="47.86658" lon="-1.763">
        <ele>42</ele>
        <time>2015-06-07T08:50:57Z</time>
      </trkpt>
      <trkpt lat="47.86658" lon="-1.76306">
        <ele>42</ele>
        <time>2015-06-07T08:50:58Z</time>
      </trkpt>
      <trkpt lat="47.86659" lon="-1.76313">
        <ele>42</ele>
        <time>2015-06-07T08:50:59Z</time>
      </trkpt>
      <trkpt lat="47.86659" lon="-1.7632">
        <ele>42</ele>
        <time>2015-06-07T08:51:00Z</time>
      </trkpt>
      <trkpt lat="47.86659" lon="-1.76325">
        <ele>42</ele>
        <time>2015-06-07T08:51:01Z</time>
      </trkpt>
      <trkpt lat="47.86659" lon="-1.7633">
        <ele>42</ele>
        <time>2015-06-07T08:51:02Z</time>
      </trkpt>
      <trkpt lat="47.86657" lon="-1.76333">
        <ele>42</ele>
        <time>2015-06-07T08:51:03Z</time>
      </trkpt>
      <trkpt lat="47.86656" lon="-1.76335">
        <ele>41</ele>
        <time>2015-06-07T08:51:04Z</time>
      </trkpt>
      <trkpt lat="47.86654" lon="-1.76338">
        <ele>41</ele>
        <time>2015-06-07T08:51:05Z</time>
      </trkpt>
      <trkpt lat="47.86652" lon="-1.7634">
        <ele>41</ele>
        <time>2015-06-07T08:51:06Z</time>
      </trkpt>
      <trkpt lat="47.86651" lon="-1.76341">
        <ele>41</ele>
        <time>2015-06-07T08:51:07Z</time>
      </trkpt>
      <trkpt lat="47.86648" lon="-1.76343">
        <ele>40</ele>
        <time>2015-06-07T08:51:08Z</time>
      </trkpt>
      <trkpt lat="47.86647" lon="-1.76344">
        <ele>40</ele>
        <time>2015-06-07T08:51:09Z</time>
      </trkpt>
      <trkpt lat="47.86646" lon="-1.76346">
        <ele>40</ele>
        <time>2015-06-07T08:51:10Z</time>
      </trkpt>
      <trkpt lat="47.86645" lon="-1.76347">
        <ele>40</ele>
        <time>2015-06-07T08:51:11Z</time>
      </trkpt>
      <trkpt lat="47.86644" lon="-1.76349">
        <ele>40</ele>
        <time>2015-06-07T08:51:12Z</time>
      </trkpt>
      <trkpt lat="47.86643" lon="-1.7635">
        <ele>40</ele>
        <time>2015-06-07T08:51:13Z</time>
      </trkpt>
      <trkpt lat="47.86642" lon="-1.76352">
        <ele>40</ele>
        <time>2015-06-07T08:51:14Z</time>
      </trkpt>
      <trkpt lat="47.86642" lon="-1.76353">
        <ele>39</ele>
        <time>2015-06-07T08:51:15Z</time>
      </trkpt>
      <trkpt lat="47.86642" lon="-1.76354">
        <ele>39</ele>
        <time>2015-06-07T08:51:16Z</time>
      </trkpt>
      <trkpt lat="47.86642" lon="-1.76355">
        <ele>39</ele>
        <time>2015-06-07T08:51:17Z</time>
      </trkpt>
      <trkpt lat="47.86641" lon="-1.76357">
        <ele>39</ele>
        <time>2015-06-07T08:51:18Z</time>
      </trkpt>
      <trkpt lat="47.8664" lon="-1.76358">
        <ele>39</ele>
        <time>2015-06-07T08:51:19Z</time>
      </trkpt>
      <trkpt lat="47.86639" lon="-1.7636">
        <ele>39</ele>
        <time>2015-06-07T08:51:20Z</time>
      </trkpt>
      <trkpt lat="47.86637" lon="-1.76361">
        <ele>39</ele>
        <time>2015-06-07T08:51:21Z</time>
      </trkpt>
      <trkpt lat="47.86635" lon="-1.76362">
        <ele>39</ele>
        <time>2015-06-07T08:51:22Z</time>
      </trkpt>
      <trkpt lat="47.86633" lon="-1.76363">
        <ele>39</ele>
        <time>2015-06-07T08:51:23Z</time>
      </trkpt>
      <trkpt lat="47.86631" lon="-1.76365">
        <ele>38</ele>
        <time>2015-06-07T08:51:24Z</time>
      </trkpt>
      <trkpt lat="47.86629" lon="-1.76366">
        <ele>38</ele>
        <time>2015-06-07T08:51:25Z</time>
      </trkpt>
      <trkpt lat="47.86627" lon="-1.76369">
        <ele>38</ele>
        <time>2015-06-07T08:51:26Z</time>
      </trkpt>
      <trkpt lat="47.86625" lon="-1.76372">
        <ele>38</ele>
        <time>2015-06-07T08:51:27Z</time>
      </trkpt>
      <trkpt lat="47.86623" lon="-1.76375">
        <ele>38</ele>
        <time>2015-06-07T08:51:28Z</time>
      </trkpt>
      <trkpt lat="47.86621" lon="-1.76378">
        <ele>38</ele>
        <time>2015-06-07T08:51:29Z</time>
      </trkpt>
      <trkpt lat="47.86619" lon="-1.76381">
        <ele>38</ele>
        <time>2015-06-07T08:51:30Z</time>
      </trkpt>
      <trkpt lat="47.86618" lon="-1.76383">
        <ele>38</ele>
        <time>2015-06-07T08:51:31Z</time>
      </trkpt>
      <trkpt lat="47.86616" lon="-1.76386">
        <ele>38</ele>
        <time>2015-06-07T08:51:32Z</time>
      </trkpt>
      <trkpt lat="47.86615" lon="-1.76388">
        <ele>39</ele>
        <time>2015-06-07T08:51:33Z</time>
      </trkpt>
      <trkpt lat="47.86614" lon="-1.76391">
        <ele>39</ele>
        <time>2015-06-07T08:51:34Z</time>
      </trkpt>
      <trkpt lat="47.86613" lon="-1.76393">
        <ele>39</ele>
        <time>2015-06-07T08:51:35Z</time>
      </trkpt>
      <trkpt lat="47.86612" lon="-1.76395">
        <ele>39</ele>
        <time>2015-06-07T08:51:36Z</time>
      </trkpt>
      <trkpt lat="47.8661" lon="-1.76397">
        <ele>39</ele>
        <time>2015-06-07T08:51:37Z</time>
      </trkpt>
      <trkpt lat="47.86609" lon="-1.76399">
        <ele>39</ele>
        <time>2015-06-07T08:51:38Z</time>
      </trkpt>
      <trkpt lat="47.86607" lon="-1.76402">
        <ele>39</ele>
        <time>2015-06-07T08:51:39Z</time>
      </trkpt>
      <trkpt lat="47.86605" lon="-1.76404">
        <ele>39</ele>
        <time>2015-06-07T08:51:40Z</time>
      </trkpt>
      <trkpt lat="47.86604" lon="-1.76407">
        <ele>39</ele>
        <time>2015-06-07T08:51:41Z</time>
      </trkpt>
      <trkpt lat="47.86603" lon="-1.7641">
        <ele>40</ele>
        <time>2015-06-07T08:51:42Z</time>
      </trkpt>
      <trkpt lat="47.86602" lon="-1.76412">
        <ele>40</ele>
        <time>2015-06-07T08:51:43Z</time>
      </trkpt>
      <trkpt lat="47.866" lon="-1.76415">
        <ele>40</ele>
        <time>2015-06-07T08:51:44Z</time>
      </trkpt>
      <trkpt lat="47.86599" lon="-1.76418">
        <ele>40</ele>
        <time>2015-06-07T08:51:45Z</time>
      </trkpt>
      <trkpt lat="47.86598" lon="-1.7642">
        <ele>40</ele>
        <time>2015-06-07T08:51:46Z</time>
      </trkpt>
      <trkpt lat="47.86596" lon="-1.76423">
        <ele>40</ele>
        <time>2015-06-07T08:51:47Z</time>
      </trkpt>
      <trkpt lat="47.86595" lon="-1.76426">
        <ele>40</ele>
        <time>2015-06-07T08:51:48Z</time>
      </trkpt>
      <trkpt lat="47.86594" lon="-1.76429">
        <ele>40</ele>
        <time>2015-06-07T08:51:49Z</time>
      </trkpt>
      <trkpt lat="47.86592" lon="-1.76431">
        <ele>40</ele>
        <time>2015-06-07T08:51:50Z</time>
      </trkpt>
      <trkpt lat="47.86591" lon="-1.76433">
        <ele>40</ele>
        <time>2015-06-07T08:51:51Z</time>
      </trkpt>
      <trkpt lat="47.86589" lon="-1.76436">
        <ele>40</ele>
        <time>2015-06-07T08:51:52Z</time>
      </trkpt>
      <trkpt lat="47.86587" lon="-1.76438">
        <ele>40</ele>
        <time>2015-06-07T08:51:53Z</time>
      </trkpt>
      <trkpt lat="47.86585" lon="-1.7644">
        <ele>40</ele>
        <time>2015-06-07T08:51:54Z</time>
      </trkpt>
      <trkpt lat="47.86583" lon="-1.76442">
        <ele>40</ele>
        <time>2015-06-07T08:51:55Z</time>
      </trkpt>
      <trkpt lat="47.86582" lon="-1.76445">
        <ele>41</ele>
        <time>2015-06-07T08:51:56Z</time>
      </trkpt>
      <trkpt lat="47.8658" lon="-1.76447">
        <ele>41</ele>
        <time>2015-06-07T08:51:57Z</time>
      </trkpt>
      <trkpt lat="47.86578" lon="-1.76449">
        <ele>41</ele>
        <time>2015-06-07T08:51:58Z</time>
      </trkpt>
      <trkpt lat="47.86576" lon="-1.76452">
        <ele>41</ele>
        <time>2015-06-07T08:51:59Z</time>
      </trkpt>
      <trkpt lat="47.86575" lon="-1.76454">
        <ele>41</ele>
        <time>2015-06-07T08:52:00Z</time>
      </trkpt>
      <trkpt lat="47.86571" lon="-1.76453">
        <ele>41</ele>
        <time>2015-06-07T08:52:01Z</time>
      </trkpt>
      <trkpt lat="47.86571" lon="-1.76453">
        <ele>41</ele>
        <time>2015-06-07T08:52:02Z</time>
      </trkpt>
      <trkpt lat="47.86569" lon="-1.76451">
        <ele>40</ele>
        <time>2015-06-07T08:52:03Z</time>
      </trkpt>
      <trkpt lat="47.86567" lon="-1.76449">
        <ele>40</ele>
        <time>2015-06-07T08:52:04Z</time>
      </trkpt>
      <trkpt lat="47.86565" lon="-1.76446">
        <ele>40</ele>
        <time>2015-06-07T08:52:05Z</time>
      </trkpt>
      <trkpt lat="47.86563" lon="-1.76444">
        <ele>40</ele>
        <time>2015-06-07T08:52:06Z</time>
      </trkpt>
      <trkpt lat="47.86561" lon="-1.76442">
        <ele>40</ele>
        <time>2015-06-07T08:52:07Z</time>
      </trkpt>
      <trkpt lat="47.86559" lon="-1.7644">
        <ele>40</ele>
        <time>2015-06-07T08:52:08Z</time>
      </trkpt>
      <trkpt lat="47.86557" lon="-1.76438">
        <ele>40</ele>
        <time>2015-06-07T08:52:09Z</time>
      </trkpt>
      <trkpt lat="47.86555" lon="-1.76435">
        <ele>40</ele>
        <time>2015-06-07T08:52:10Z</time>
      </trkpt>
      <trkpt lat="47.86552" lon="-1.76432">
        <ele>40</ele>
        <time>2015-06-07T08:52:11Z</time>
      </trkpt>
      <trkpt lat="47.8655" lon="-1.76429">
        <ele>40</ele>
        <time>2015-06-07T08:52:12Z</time>
      </trkpt>
      <trkpt lat="47.86547" lon="-1.76426">
        <ele>40</ele>
        <time>2015-06-07T08:52:13Z</time>
      </trkpt>
      <trkpt lat="47.86545" lon="-1.76422">
        <ele>40</ele>
        <time>2015-06-07T08:52:14Z</time>
      </trkpt>
      <trkpt lat="47.86542" lon="-1.76419">
        <ele>40</ele>
        <time>2015-06-07T08:52:15Z</time>
      </trkpt>
      <trkpt lat="47.8654" lon="-1.76415">
        <ele>40</ele>
        <time>2015-06-07T08:52:16Z</time>
      </trkpt>
      <trkpt lat="47.86537" lon="-1.76411">
        <ele>40</ele>
        <time>2015-06-07T08:52:17Z</time>
      </trkpt>
      <trkpt lat="47.86535" lon="-1.76406">
        <ele>40</ele>
        <time>2015-06-07T08:52:18Z</time>
      </trkpt>
      <trkpt lat="47.86533" lon="-1.76403">
        <ele>40</ele>
        <time>2015-06-07T08:52:19Z</time>
      </trkpt>
      <trkpt lat="47.86531" lon="-1.76399">
        <ele>40</ele>
        <time>2015-06-07T08:52:20Z</time>
      </trkpt>
      <trkpt lat="47.8653" lon="-1.76396">
        <ele>40</ele>
        <time>2015-06-07T08:52:21Z</time>
      </trkpt>
      <trkpt lat="47.86529" lon="-1.76393">
        <ele>40</ele>
        <time>2015-06-07T08:52:22Z</time>
      </trkpt>
      <trkpt lat="47.86528" lon="-1.76389">
        <ele>41</ele>
        <time>2015-06-07T08:52:23Z</time>
      </trkpt>
      <trkpt lat="47.86526" lon="-1.76385">
        <ele>41</ele>
        <time>2015-06-07T08:52:24Z</time>
      </trkpt>
      <trkpt lat="47.86525" lon="-1.7638">
        <ele>41</ele>
        <time>2015-06-07T08:52:25Z</time>
      </trkpt>
      <trkpt lat="47.86525" lon="-1.76375">
        <ele>41</ele>
        <time>2015-06-07T08:52:26Z</time>
      </trkpt>
      <trkpt lat="47.86524" lon="-1.7637">
        <ele>41</ele>
        <time>2015-06-07T08:52:27Z</time>
      </trkpt>
      <trkpt lat="47.86523" lon="-1.76358">
        <ele>41</ele>
        <time>2015-06-07T08:52:28Z</time>
      </trkpt>
      <trkpt lat="47.86522" lon="-1.76352">
        <ele>41</ele>
        <time>2015-06-07T08:52:29Z</time>
      </trkpt>
      <trkpt lat="47.86522" lon="-1.76352">
        <ele>41</ele>
        <time>2015-06-07T08:52:30Z</time>
      </trkpt>
      <trkpt lat="47.86522" lon="-1.76347">
        <ele>41</ele>
        <time>2015-06-07T08:52:31Z</time>
      </trkpt>
      <trkpt lat="47.86521" lon="-1.76341">
        <ele>42</ele>
        <time>2015-06-07T08:52:32Z</time>
      </trkpt>
      <trkpt lat="47.86521" lon="-1.76335">
        <ele>42</ele>
        <time>2015-06-07T08:52:33Z</time>
      </trkpt>
      <trkpt lat="47.86521" lon="-1.7633">
        <ele>42</ele>
        <time>2015-06-07T08:52:34Z</time>
      </trkpt>
      <trkpt lat="47.8652" lon="-1.76324">
        <ele>42</ele>
        <time>2015-06-07T08:52:35Z</time>
      </trkpt>
      <trkpt lat="47.8652" lon="-1.76318">
        <ele>43</ele>
        <time>2015-06-07T08:52:36Z</time>
      </trkpt>
      <trkpt lat="47.8652" lon="-1.76313">
        <ele>43</ele>
        <time>2015-06-07T08:52:37Z</time>
      </trkpt>
      <trkpt lat="47.8652" lon="-1.76307">
        <ele>43</ele>
        <time>2015-06-07T08:52:38Z</time>
      </trkpt>
      <trkpt lat="47.8652" lon="-1.76301">
        <ele>43</ele>
        <time>2015-06-07T08:52:39Z</time>
      </trkpt>
      <trkpt lat="47.86519" lon="-1.76295">
        <ele>43</ele>
        <time>2015-06-07T08:52:40Z</time>
      </trkpt>
      <trkpt lat="47.86519" lon="-1.76289">
        <ele>43</ele>
        <time>2015-06-07T08:52:41Z</time>
      </trkpt>
      <trkpt lat="47.86519" lon="-1.76284">
        <ele>43</ele>
        <time>2015-06-07T08:52:42Z</time>
      </trkpt>
      <trkpt lat="47.86519" lon="-1.76278">
        <ele>43</ele>
        <time>2015-06-07T08:52:43Z</time>
      </trkpt>
      <trkpt lat="47.86518" lon="-1.76272">
        <ele>43</ele>
        <time>2015-06-07T08:52:44Z</time>
      </trkpt>
      <trkpt lat="47.86518" lon="-1.76266">
        <ele>44</ele>
        <time>2015-06-07T08:52:45Z</time>
      </trkpt>
      <trkpt lat="47.86518" lon="-1.7626">
        <ele>44</ele>
        <time>2015-06-07T08:52:46Z</time>
      </trkpt>
      <trkpt lat="47.86518" lon="-1.76255">
        <ele>44</ele>
        <time>2015-06-07T08:52:47Z</time>
      </trkpt>
      <trkpt lat="47.86518" lon="-1.76249">
        <ele>44</ele>
        <time>2015-06-07T08:52:48Z</time>
      </trkpt>
      <trkpt lat="47.86517" lon="-1.76243">
        <ele>44</ele>
        <time>2015-06-07T08:52:49Z</time>
      </trkpt>
      <trkpt lat="47.86517" lon="-1.76237">
        <ele>44</ele>
        <time>2015-06-07T08:52:50Z</time>
      </trkpt>
      <trkpt lat="47.86517" lon="-1.76232">
        <ele>45</ele>
        <time>2015-06-07T08:52:51Z</time>
      </trkpt>
      <trkpt lat="47.86517" lon="-1.76226">
        <ele>45</ele>
        <time>2015-06-07T08:52:52Z</time>
      </trkpt>
      <trkpt lat="47.86516" lon="-1.7622">
        <ele>45</ele>
        <time>2015-06-07T08:52:53Z</time>
      </trkpt>
      <trkpt lat="47.86516" lon="-1.76215">
        <ele>45</ele>
        <time>2015-06-07T08:52:54Z</time>
      </trkpt>
      <trkpt lat="47.86516" lon="-1.76209">
        <ele>45</ele>
        <time>2015-06-07T08:52:55Z</time>
      </trkpt>
      <trkpt lat="47.86516" lon="-1.76203">
        <ele>45</ele>
        <time>2015-06-07T08:52:56Z</time>
      </trkpt>
      <trkpt lat="47.86515" lon="-1.76198">
        <ele>46</ele>
        <time>2015-06-07T08:52:57Z</time>
      </trkpt>
      <trkpt lat="47.86515" lon="-1.76192">
        <ele>46</ele>
        <time>2015-06-07T08:52:58Z</time>
      </trkpt>
      <trkpt lat="47.86515" lon="-1.76187">
        <ele>46</ele>
        <time>2015-06-07T08:52:59Z</time>
      </trkpt>
      <trkpt lat="47.86515" lon="-1.76181">
        <ele>46</ele>
        <time>2015-06-07T08:53:00Z</time>
      </trkpt>
      <trkpt lat="47.86514" lon="-1.76176">
        <ele>46</ele>
        <time>2015-06-07T08:53:01Z</time>
      </trkpt>
      <trkpt lat="47.86514" lon="-1.7617">
        <ele>47</ele>
        <time>2015-06-07T08:53:02Z</time>
      </trkpt>
      <trkpt lat="47.86514" lon="-1.76165">
        <ele>47</ele>
        <time>2015-06-07T08:53:03Z</time>
      </trkpt>
      <trkpt lat="47.86513" lon="-1.76159">
        <ele>47</ele>
        <time>2015-06-07T08:53:04Z</time>
      </trkpt>
      <trkpt lat="47.86513" lon="-1.76154">
        <ele>47</ele>
        <time>2015-06-07T08:53:05Z</time>
      </trkpt>
      <trkpt lat="47.86513" lon="-1.76148">
        <ele>47</ele>
        <time>2015-06-07T08:53:06Z</time>
      </trkpt>
      <trkpt lat="47.86513" lon="-1.76143">
        <ele>48</ele>
        <time>2015-06-07T08:53:07Z</time>
      </trkpt>
      <trkpt lat="47.86512" lon="-1.76137">
        <ele>48</ele>
        <time>2015-06-07T08:53:08Z</time>
      </trkpt>
      <trkpt lat="47.86512" lon="-1.76131">
        <ele>48</ele>
        <time>2015-06-07T08:53:09Z</time>
      </trkpt>
      <trkpt lat="47.86511" lon="-1.76126">
        <ele>48</ele>
        <time>2015-06-07T08:53:10Z</time>
      </trkpt>
      <trkpt lat="47.86511" lon="-1.7612">
        <ele>48</ele>
        <time>2015-06-07T08:53:11Z</time>
      </trkpt>
      <trkpt lat="47.86511" lon="-1.76115">
        <ele>49</ele>
        <time>2015-06-07T08:53:12Z</time>
      </trkpt>
      <trkpt lat="47.8651" lon="-1.76109">
        <ele>49</ele>
        <time>2015-06-07T08:53:13Z</time>
      </trkpt>
      <trkpt lat="47.8651" lon="-1.76104">
        <ele>49</ele>
        <time>2015-06-07T08:53:14Z</time>
      </trkpt>
      <trkpt lat="47.8651" lon="-1.76098">
        <ele>49</ele>
        <time>2015-06-07T08:53:15Z</time>
      </trkpt>
      <trkpt lat="47.86509" lon="-1.76093">
        <ele>50</ele>
        <time>2015-06-07T08:53:16Z</time>
      </trkpt>
      <trkpt lat="47.86508" lon="-1.76088">
        <ele>50</ele>
        <time>2015-06-07T08:53:17Z</time>
      </trkpt>
      <trkpt lat="47.86508" lon="-1.76082">
        <ele>50</ele>
        <time>2015-06-07T08:53:18Z</time>
      </trkpt>
      <trkpt lat="47.86507" lon="-1.76077">
        <ele>50</ele>
        <time>2015-06-07T08:53:19Z</time>
      </trkpt>
      <trkpt lat="47.86506" lon="-1.76066">
        <ele>51</ele>
        <time>2015-06-07T08:53:20Z</time>
      </trkpt>
      <trkpt lat="47.86506" lon="-1.76066">
        <ele>51</ele>
        <time>2015-06-07T08:53:21Z</time>
      </trkpt>
      <trkpt lat="47.86505" lon="-1.76061">
        <ele>51</ele>
        <time>2015-06-07T08:53:22Z</time>
      </trkpt>
      <trkpt lat="47.86504" lon="-1.76055">
        <ele>51</ele>
        <time>2015-06-07T08:53:23Z</time>
      </trkpt>
      <trkpt lat="47.86504" lon="-1.76049">
        <ele>51</ele>
        <time>2015-06-07T08:53:24Z</time>
      </trkpt>
      <trkpt lat="47.86503" lon="-1.76044">
        <ele>51</ele>
        <time>2015-06-07T08:53:25Z</time>
      </trkpt>
      <trkpt lat="47.86502" lon="-1.76038">
        <ele>51</ele>
        <time>2015-06-07T08:53:26Z</time>
      </trkpt>
      <trkpt lat="47.86501" lon="-1.76033">
        <ele>51</ele>
        <time>2015-06-07T08:53:27Z</time>
      </trkpt>
      <trkpt lat="47.865" lon="-1.76028">
        <ele>52</ele>
        <time>2015-06-07T08:53:28Z</time>
      </trkpt>
      <trkpt lat="47.86499" lon="-1.76022">
        <ele>52</ele>
        <time>2015-06-07T08:53:29Z</time>
      </trkpt>
      <trkpt lat="47.86498" lon="-1.76017">
        <ele>52</ele>
        <time>2015-06-07T08:53:30Z</time>
      </trkpt>
      <trkpt lat="47.86498" lon="-1.76011">
        <ele>52</ele>
        <time>2015-06-07T08:53:31Z</time>
      </trkpt>
      <trkpt lat="47.86497" lon="-1.76006">
        <ele>53</ele>
        <time>2015-06-07T08:53:32Z</time>
      </trkpt>
      <trkpt lat="47.86496" lon="-1.76">
        <ele>53</ele>
        <time>2015-06-07T08:53:33Z</time>
      </trkpt>
      <trkpt lat="47.86495" lon="-1.75995">
        <ele>53</ele>
        <time>2015-06-07T08:53:34Z</time>
      </trkpt>
      <trkpt lat="47.86494" lon="-1.75989">
        <ele>53</ele>
        <time>2015-06-07T08:53:35Z</time>
      </trkpt>
      <trkpt lat="47.86493" lon="-1.75984">
        <ele>53</ele>
        <time>2015-06-07T08:53:36Z</time>
      </trkpt>
      <trkpt lat="47.86491" lon="-1.75978">
        <ele>54</ele>
        <time>2015-06-07T08:53:37Z</time>
      </trkpt>
      <trkpt lat="47.8649" lon="-1.75973">
        <ele>54</ele>
        <time>2015-06-07T08:53:38Z</time>
      </trkpt>
      <trkpt lat="47.86489" lon="-1.75967">
        <ele>54</ele>
        <time>2015-06-07T08:53:39Z</time>
      </trkpt>
      <trkpt lat="47.86488" lon="-1.75962">
        <ele>54</ele>
        <time>2015-06-07T08:53:40Z</time>
      </trkpt>
      <trkpt lat="47.86487" lon="-1.75956">
        <ele>54</ele>
        <time>2015-06-07T08:53:41Z</time>
      </trkpt>
      <trkpt lat="47.86485" lon="-1.7595">
        <ele>54</ele>
        <time>2015-06-07T08:53:42Z</time>
      </trkpt>
      <trkpt lat="47.86484" lon="-1.75944">
        <ele>54</ele>
        <time>2015-06-07T08:53:43Z</time>
      </trkpt>
      <trkpt lat="47.86483" lon="-1.75939">
        <ele>54</ele>
        <time>2015-06-07T08:53:44Z</time>
      </trkpt>
      <trkpt lat="47.86482" lon="-1.75933">
        <ele>55</ele>
        <time>2015-06-07T08:53:45Z</time>
      </trkpt>
      <trkpt lat="47.86481" lon="-1.75927">
        <ele>55</ele>
        <time>2015-06-07T08:53:46Z</time>
      </trkpt>
      <trkpt lat="47.8648" lon="-1.75921">
        <ele>55</ele>
        <time>2015-06-07T08:53:47Z</time>
      </trkpt>
      <trkpt lat="47.86478" lon="-1.75916">
        <ele>55</ele>
        <time>2015-06-07T08:53:48Z</time>
      </trkpt>
      <trkpt lat="47.86477" lon="-1.7591">
        <ele>55</ele>
        <time>2015-06-07T08:53:49Z</time>
      </trkpt>
      <trkpt lat="47.86476" lon="-1.75904">
        <ele>55</ele>
        <time>2015-06-07T08:53:50Z</time>
      </trkpt>
      <trkpt lat="47.86474" lon="-1.75898">
        <ele>56</ele>
        <time>2015-06-07T08:53:51Z</time>
      </trkpt>
      <trkpt lat="47.86473" lon="-1.75893">
        <ele>56</ele>
        <time>2015-06-07T08:53:52Z</time>
      </trkpt>
      <trkpt lat="47.86472" lon="-1.75887">
        <ele>56</ele>
        <time>2015-06-07T08:53:53Z</time>
      </trkpt>
      <trkpt lat="47.86471" lon="-1.75881">
        <ele>56</ele>
        <time>2015-06-07T08:53:54Z</time>
      </trkpt>
      <trkpt lat="47.8647" lon="-1.75875">
        <ele>56</ele>
        <time>2015-06-07T08:53:55Z</time>
      </trkpt>
      <trkpt lat="47.8647" lon="-1.75869">
        <ele>56</ele>
        <time>2015-06-07T08:53:56Z</time>
      </trkpt>
      <trkpt lat="47.86469" lon="-1.75863">
        <ele>56</ele>
        <time>2015-06-07T08:53:57Z</time>
      </trkpt>
      <trkpt lat="47.86469" lon="-1.75857">
        <ele>56</ele>
        <time>2015-06-07T08:53:58Z</time>
      </trkpt>
      <trkpt lat="47.86469" lon="-1.75851">
        <ele>57</ele>
        <time>2015-06-07T08:53:59Z</time>
      </trkpt>
      <trkpt lat="47.86469" lon="-1.75845">
        <ele>57</ele>
        <time>2015-06-07T08:54:00Z</time>
      </trkpt>
      <trkpt lat="47.86469" lon="-1.75839">
        <ele>57</ele>
        <time>2015-06-07T08:54:01Z</time>
      </trkpt>
      <trkpt lat="47.8647" lon="-1.75832">
        <ele>57</ele>
        <time>2015-06-07T08:54:02Z</time>
      </trkpt>
      <trkpt lat="47.86471" lon="-1.75827">
        <ele>57</ele>
        <time>2015-06-07T08:54:03Z</time>
      </trkpt>
      <trkpt lat="47.86472" lon="-1.7582">
        <ele>58</ele>
        <time>2015-06-07T08:54:04Z</time>
      </trkpt>
      <trkpt lat="47.86473" lon="-1.75814">
        <ele>58</ele>
        <time>2015-06-07T08:54:05Z</time>
      </trkpt>
      <trkpt lat="47.86474" lon="-1.75808">
        <ele>58</ele>
        <time>2015-06-07T08:54:06Z</time>
      </trkpt>
      <trkpt lat="47.86476" lon="-1.75803">
        <ele>58</ele>
        <time>2015-06-07T08:54:07Z</time>
      </trkpt>
      <trkpt lat="47.86477" lon="-1.75797">
        <ele>59</ele>
        <time>2015-06-07T08:54:08Z</time>
      </trkpt>
      <trkpt lat="47.86479" lon="-1.75792">
        <ele>59</ele>
        <time>2015-06-07T08:54:09Z</time>
      </trkpt>
      <trkpt lat="47.86481" lon="-1.75787">
        <ele>59</ele>
        <time>2015-06-07T08:54:10Z</time>
      </trkpt>
      <trkpt lat="47.86483" lon="-1.75782">
        <ele>59</ele>
        <time>2015-06-07T08:54:11Z</time>
      </trkpt>
      <trkpt lat="47.86485" lon="-1.75779">
        <ele>59</ele>
        <time>2015-06-07T08:54:12Z</time>
      </trkpt>
      <trkpt lat="47.86487" lon="-1.75775">
        <ele>59</ele>
        <time>2015-06-07T08:54:13Z</time>
      </trkpt>
      <trkpt lat="47.86487" lon="-1.7577">
        <ele>59</ele>
        <time>2015-06-07T08:54:14Z</time>
      </trkpt>
      <trkpt lat="47.86487" lon="-1.75765">
        <ele>60</ele>
        <time>2015-06-07T08:54:15Z</time>
      </trkpt>
      <trkpt lat="47.86486" lon="-1.75761">
        <ele>60</ele>
        <time>2015-06-07T08:54:16Z</time>
      </trkpt>
      <trkpt lat="47.86485" lon="-1.75758">
        <ele>60</ele>
        <time>2015-06-07T08:54:17Z</time>
      </trkpt>
      <trkpt lat="47.86484" lon="-1.75753">
        <ele>60</ele>
        <time>2015-06-07T08:54:18Z</time>
      </trkpt>
      <trkpt lat="47.86483" lon="-1.75749">
        <ele>60</ele>
        <time>2015-06-07T08:54:19Z</time>
      </trkpt>
      <trkpt lat="47.86481" lon="-1.75745">
        <ele>60</ele>
        <time>2015-06-07T08:54:20Z</time>
      </trkpt>
      <trkpt lat="47.8648" lon="-1.75741">
        <ele>60</ele>
        <time>2015-06-07T08:54:21Z</time>
      </trkpt>
      <trkpt lat="47.86479" lon="-1.75737">
        <ele>61</ele>
        <time>2015-06-07T08:54:22Z</time>
      </trkpt>
      <trkpt lat="47.86477" lon="-1.75734">
        <ele>61</ele>
        <time>2015-06-07T08:54:23Z</time>
      </trkpt>
      <trkpt lat="47.86476" lon="-1.7573">
        <ele>61</ele>
        <time>2015-06-07T08:54:24Z</time>
      </trkpt>
      <trkpt lat="47.86474" lon="-1.75726">
        <ele>61</ele>
        <time>2015-06-07T08:54:25Z</time>
      </trkpt>
      <trkpt lat="47.86472" lon="-1.75722">
        <ele>61</ele>
        <time>2015-06-07T08:54:26Z</time>
      </trkpt>
      <trkpt lat="47.8647" lon="-1.75719">
        <ele>61</ele>
        <time>2015-06-07T08:54:27Z</time>
      </trkpt>
      <trkpt lat="47.86468" lon="-1.75715">
        <ele>61</ele>
        <time>2015-06-07T08:54:28Z</time>
      </trkpt>
      <trkpt lat="47.86465" lon="-1.75712">
        <ele>61</ele>
        <time>2015-06-07T08:54:29Z</time>
      </trkpt>
      <trkpt lat="47.86463" lon="-1.75709">
        <ele>61</ele>
        <time>2015-06-07T08:54:30Z</time>
      </trkpt>
      <trkpt lat="47.8646" lon="-1.75707">
        <ele>62</ele>
        <time>2015-06-07T08:54:31Z</time>
      </trkpt>
      <trkpt lat="47.86458" lon="-1.75705">
        <ele>62</ele>
        <time>2015-06-07T08:54:32Z</time>
      </trkpt>
      <trkpt lat="47.86455" lon="-1.75703">
        <ele>62</ele>
        <time>2015-06-07T08:54:33Z</time>
      </trkpt>
      <trkpt lat="47.86452" lon="-1.75701">
        <ele>62</ele>
        <time>2015-06-07T08:54:34Z</time>
      </trkpt>
      <trkpt lat="47.8645" lon="-1.75699">
        <ele>62</ele>
        <time>2015-06-07T08:54:35Z</time>
      </trkpt>
      <trkpt lat="47.86447" lon="-1.75696">
        <ele>62</ele>
        <time>2015-06-07T08:54:36Z</time>
      </trkpt>
      <trkpt lat="47.86446" lon="-1.75692">
        <ele>63</ele>
        <time>2015-06-07T08:54:37Z</time>
      </trkpt>
      <trkpt lat="47.86445" lon="-1.75689">
        <ele>63</ele>
        <time>2015-06-07T08:54:38Z</time>
      </trkpt>
      <trkpt lat="47.86444" lon="-1.75686">
        <ele>63</ele>
        <time>2015-06-07T08:54:39Z</time>
      </trkpt>
      <trkpt lat="47.86443" lon="-1.75683">
        <ele>63</ele>
        <time>2015-06-07T08:54:40Z</time>
      </trkpt>
      <trkpt lat="47.86442" lon="-1.7568">
        <ele>63</ele>
        <time>2015-06-07T08:54:41Z</time>
      </trkpt>
      <trkpt lat="47.86441" lon="-1.75677">
        <ele>63</ele>
        <time>2015-06-07T08:54:42Z</time>
      </trkpt>
      <trkpt lat="47.8644" lon="-1.75673">
        <ele>63</ele>
        <time>2015-06-07T08:54:43Z</time>
      </trkpt>
      <trkpt lat="47.86439" lon="-1.75669">
        <ele>63</ele>
        <time>2015-06-07T08:54:44Z</time>
      </trkpt>
      <trkpt lat="47.86439" lon="-1.75666">
        <ele>64</ele>
        <time>2015-06-07T08:54:45Z</time>
      </trkpt>
      <trkpt lat="47.86438" lon="-1.75662">
        <ele>64</ele>
        <time>2015-06-07T08:54:46Z</time>
      </trkpt>
      <trkpt lat="47.86437" lon="-1.75658">
        <ele>64</ele>
        <time>2015-06-07T08:54:47Z</time>
      </trkpt>
      <trkpt lat="47.86436" lon="-1.75654">
        <ele>64</ele>
        <time>2015-06-07T08:54:48Z</time>
      </trkpt>
      <trkpt lat="47.86434" lon="-1.75651">
        <ele>64</ele>
        <time>2015-06-07T08:54:49Z</time>
      </trkpt>
      <trkpt lat="47.86433" lon="-1.75647">
        <ele>64</ele>
        <time>2015-06-07T08:54:50Z</time>
      </trkpt>
      <trkpt lat="47.86432" lon="-1.75644">
        <ele>65</ele>
        <time>2015-06-07T08:54:51Z</time>
      </trkpt>
      <trkpt lat="47.8643" lon="-1.75641">
        <ele>65</ele>
        <time>2015-06-07T08:54:52Z</time>
      </trkpt>
      <trkpt lat="47.86428" lon="-1.75637">
        <ele>65</ele>
        <time>2015-06-07T08:54:53Z</time>
      </trkpt>
      <trkpt lat="47.86427" lon="-1.75634">
        <ele>66</ele>
        <time>2015-06-07T08:54:54Z</time>
      </trkpt>
      <trkpt lat="47.86425" lon="-1.7563">
        <ele>66</ele>
        <time>2015-06-07T08:54:55Z</time>
      </trkpt>
      <trkpt lat="47.86423" lon="-1.75627">
        <ele>66</ele>
        <time>2015-06-07T08:54:56Z</time>
      </trkpt>
      <trkpt lat="47.86421" lon="-1.75623">
        <ele>67</ele>
        <time>2015-06-07T08:54:57Z</time>
      </trkpt>
      <trkpt lat="47.86419" lon="-1.75619">
        <ele>67</ele>
        <time>2015-06-07T08:54:58Z</time>
      </trkpt>
      <trkpt lat="47.86417" lon="-1.75616">
        <ele>68</ele>
        <time>2015-06-07T08:54:59Z</time>
      </trkpt>
      <trkpt lat="47.86415" lon="-1.75613">
        <ele>68</ele>
        <time>2015-06-07T08:55:00Z</time>
      </trkpt>
      <trkpt lat="47.86413" lon="-1.7561">
        <ele>68</ele>
        <time>2015-06-07T08:55:01Z</time>
      </trkpt>
      <trkpt lat="47.86411" lon="-1.75607">
        <ele>69</ele>
        <time>2015-06-07T08:55:02Z</time>
      </trkpt>
      <trkpt lat="47.86409" lon="-1.75603">
        <ele>69</ele>
        <time>2015-06-07T08:55:03Z</time>
      </trkpt>
      <trkpt lat="47.86408" lon="-1.75599">
        <ele>69</ele>
        <time>2015-06-07T08:55:04Z</time>
      </trkpt>
      <trkpt lat="47.86407" lon="-1.75595">
        <ele>70</ele>
        <time>2015-06-07T08:55:05Z</time>
      </trkpt>
      <trkpt lat="47.86407" lon="-1.75592">
        <ele>70</ele>
        <time>2015-06-07T08:55:06Z</time>
      </trkpt>
      <trkpt lat="47.86408" lon="-1.75587">
        <ele>70</ele>
        <time>2015-06-07T08:55:07Z</time>
      </trkpt>
      <trkpt lat="47.86409" lon="-1.75583">
        <ele>70</ele>
        <time>2015-06-07T08:55:08Z</time>
      </trkpt>
      <trkpt lat="47.8641" lon="-1.75579">
        <ele>71</ele>
        <time>2015-06-07T08:55:09Z</time>
      </trkpt>
      <trkpt lat="47.86412" lon="-1.75575">
        <ele>71</ele>
        <time>2015-06-07T08:55:10Z</time>
      </trkpt>
      <trkpt lat="47.86413" lon="-1.75571">
        <ele>71</ele>
        <time>2015-06-07T08:55:11Z</time>
      </trkpt>
      <trkpt lat="47.86415" lon="-1.75566">
        <ele>72</ele>
        <time>2015-06-07T08:55:12Z</time>
      </trkpt>
      <trkpt lat="47.86416" lon="-1.75562">
        <ele>72</ele>
        <time>2015-06-07T08:55:13Z</time>
      </trkpt>
      <trkpt lat="47.86418" lon="-1.75558">
        <ele>72</ele>
        <time>2015-06-07T08:55:14Z</time>
      </trkpt>
      <trkpt lat="47.8642" lon="-1.75553">
        <ele>72</ele>
        <time>2015-06-07T08:55:15Z</time>
      </trkpt>
      <trkpt lat="47.86422" lon="-1.75549">
        <ele>73</ele>
        <time>2015-06-07T08:55:16Z</time>
      </trkpt>
      <trkpt lat="47.86423" lon="-1.75544">
        <ele>73</ele>
        <time>2015-06-07T08:55:17Z</time>
      </trkpt>
      <trkpt lat="47.86425" lon="-1.75539">
        <ele>73</ele>
        <time>2015-06-07T08:55:18Z</time>
      </trkpt>
      <trkpt lat="47.86427" lon="-1.75535">
        <ele>73</ele>
        <time>2015-06-07T08:55:19Z</time>
      </trkpt>
      <trkpt lat="47.86429" lon="-1.7553">
        <ele>74</ele>
        <time>2015-06-07T08:55:20Z</time>
      </trkpt>
      <trkpt lat="47.86431" lon="-1.75526">
        <ele>74</ele>
        <time>2015-06-07T08:55:21Z</time>
      </trkpt>
      <trkpt lat="47.86432" lon="-1.7552">
        <ele>74</ele>
        <time>2015-06-07T08:55:22Z</time>
      </trkpt>
      <trkpt lat="47.86435" lon="-1.75515">
        <ele>74</ele>
        <time>2015-06-07T08:55:23Z</time>
      </trkpt>
      <trkpt lat="47.86437" lon="-1.7551">
        <ele>75</ele>
        <time>2015-06-07T08:55:24Z</time>
      </trkpt>
      <trkpt lat="47.86439" lon="-1.75505">
        <ele>75</ele>
        <time>2015-06-07T08:55:25Z</time>
      </trkpt>
      <trkpt lat="47.86441" lon="-1.755">
        <ele>75</ele>
        <time>2015-06-07T08:55:26Z</time>
      </trkpt>
      <trkpt lat="47.86443" lon="-1.75494">
        <ele>76</ele>
        <time>2015-06-07T08:55:27Z</time>
      </trkpt>
      <trkpt lat="47.86445" lon="-1.75489">
        <ele>76</ele>
        <time>2015-06-07T08:55:28Z</time>
      </trkpt>
      <trkpt lat="47.86447" lon="-1.75484">
        <ele>76</ele>
        <time>2015-06-07T08:55:29Z</time>
      </trkpt>
      <trkpt lat="47.86449" lon="-1.75479">
        <ele>77</ele>
        <time>2015-06-07T08:55:30Z</time>
      </trkpt>
      <trkpt lat="47.86451" lon="-1.75473">
        <ele>77</ele>
        <time>2015-06-07T08:55:31Z</time>
      </trkpt>
      <trkpt lat="47.86453" lon="-1.75467">
        <ele>77</ele>
        <time>2015-06-07T08:55:32Z</time>
      </trkpt>
      <trkpt lat="47.86455" lon="-1.75462">
        <ele>77</ele>
        <time>2015-06-07T08:55:33Z</time>
      </trkpt>
      <trkpt lat="47.86458" lon="-1.75457">
        <ele>78</ele>
        <time>2015-06-07T08:55:34Z</time>
      </trkpt>
      <trkpt lat="47.8646" lon="-1.75452">
        <ele>78</ele>
        <time>2015-06-07T08:55:35Z</time>
      </trkpt>
      <trkpt lat="47.86462" lon="-1.75447">
        <ele>78</ele>
        <time>2015-06-07T08:55:36Z</time>
      </trkpt>
      <trkpt lat="47.86464" lon="-1.75442">
        <ele>78</ele>
        <time>2015-06-07T08:55:37Z</time>
      </trkpt>
      <trkpt lat="47.86467" lon="-1.75439">
        <ele>78</ele>
        <time>2015-06-07T08:55:38Z</time>
      </trkpt>
      <trkpt lat="47.8647" lon="-1.75436">
        <ele>78</ele>
        <time>2015-06-07T08:55:39Z</time>
      </trkpt>
      <trkpt lat="47.86472" lon="-1.75433">
        <ele>79</ele>
        <time>2015-06-07T08:55:40Z</time>
      </trkpt>
      <trkpt lat="47.86474" lon="-1.7543">
        <ele>79</ele>
        <time>2015-06-07T08:55:41Z</time>
      </trkpt>
      <trkpt lat="47.86476" lon="-1.75426">
        <ele>79</ele>
        <time>2015-06-07T08:55:42Z</time>
      </trkpt>
      <trkpt lat="47.86476" lon="-1.75423">
        <ele>79</ele>
        <time>2015-06-07T08:55:43Z</time>
      </trkpt>
      <trkpt lat="47.86476" lon="-1.75421">
        <ele>79</ele>
        <time>2015-06-07T08:55:44Z</time>
      </trkpt>
      <trkpt lat="47.86475" lon="-1.7542">
        <ele>79</ele>
        <time>2015-06-07T08:55:45Z</time>
      </trkpt>
      <trkpt lat="47.86474" lon="-1.75419">
        <ele>79</ele>
        <time>2015-06-07T08:55:46Z</time>
      </trkpt>
      <trkpt lat="47.86473" lon="-1.75417">
        <ele>79</ele>
        <time>2015-06-07T08:55:47Z</time>
      </trkpt>
      <trkpt lat="47.86472" lon="-1.75416">
        <ele>79</ele>
        <time>2015-06-07T08:55:48Z</time>
      </trkpt>
      <trkpt lat="47.86471" lon="-1.75414">
        <ele>80</ele>
        <time>2015-06-07T08:55:49Z</time>
      </trkpt>
      <trkpt lat="47.8647" lon="-1.75412">
        <ele>80</ele>
        <time>2015-06-07T08:55:50Z</time>
      </trkpt>
      <trkpt lat="47.86468" lon="-1.75409">
        <ele>80</ele>
        <time>2015-06-07T08:55:51Z</time>
      </trkpt>
      <trkpt lat="47.86467" lon="-1.75408">
        <ele>80</ele>
        <time>2015-06-07T08:55:52Z</time>
      </trkpt>
      <trkpt lat="47.86466" lon="-1.75407">
        <ele>80</ele>
        <time>2015-06-07T08:55:53Z</time>
      </trkpt>
      <trkpt lat="47.86464" lon="-1.75405">
        <ele>80</ele>
        <time>2015-06-07T08:55:54Z</time>
      </trkpt>
      <trkpt lat="47.86463" lon="-1.75403">
        <ele>80</ele>
        <time>2015-06-07T08:55:55Z</time>
      </trkpt>
      <trkpt lat="47.86461" lon="-1.75401">
        <ele>80</ele>
        <time>2015-06-07T08:55:56Z</time>
      </trkpt>
      <trkpt lat="47.8646" lon="-1.75399">
        <ele>80</ele>
        <time>2015-06-07T08:55:57Z</time>
      </trkpt>
      <trkpt lat="47.86458" lon="-1.75397">
        <ele>80</ele>
        <time>2015-06-07T08:55:58Z</time>
      </trkpt>
      <trkpt lat="47.86457" lon="-1.75394">
        <ele>80</ele>
        <time>2015-06-07T08:55:59Z</time>
      </trkpt>
      <trkpt lat="47.86455" lon="-1.75391">
        <ele>80</ele>
        <time>2015-06-07T08:56:00Z</time>
      </trkpt>
      <trkpt lat="47.86454" lon="-1.75389">
        <ele>80</ele>
        <time>2015-06-07T08:56:01Z</time>
      </trkpt>
      <trkpt lat="47.86454" lon="-1.75385">
        <ele>80</ele>
        <time>2015-06-07T08:56:02Z</time>
      </trkpt>
      <trkpt lat="47.86454" lon="-1.75382">
        <ele>81</ele>
        <time>2015-06-07T08:56:03Z</time>
      </trkpt>
      <trkpt lat="47.86454" lon="-1.75379">
        <ele>81</ele>
        <time>2015-06-07T08:56:04Z</time>
      </trkpt>
      <trkpt lat="47.86454" lon="-1.75375">
        <ele>81</ele>
        <time>2015-06-07T08:56:05Z</time>
      </trkpt>
      <trkpt lat="47.86455" lon="-1.75373">
        <ele>81</ele>
        <time>2015-06-07T08:56:06Z</time>
      </trkpt>
      <trkpt lat="47.86454" lon="-1.7537">
        <ele>82</ele>
        <time>2015-06-07T08:56:07Z</time>
      </trkpt>
      <trkpt lat="47.86453" lon="-1.75369">
        <ele>82</ele>
        <time>2015-06-07T08:56:08Z</time>
      </trkpt>
      <trkpt lat="47.86451" lon="-1.75369">
        <ele>82</ele>
        <time>2015-06-07T08:56:09Z</time>
      </trkpt>
      <trkpt lat="47.86449" lon="-1.75368">
        <ele>82</ele>
        <time>2015-06-07T08:56:10Z</time>
      </trkpt>
      <trkpt lat="47.86447" lon="-1.75368">
        <ele>82</ele>
        <time>2015-06-07T08:56:11Z</time>
      </trkpt>
      <trkpt lat="47.86445" lon="-1.75368">
        <ele>83</ele>
        <time>2015-06-07T08:56:12Z</time>
      </trkpt>
      <trkpt lat="47.86444" lon="-1.75367">
        <ele>83</ele>
        <time>2015-06-07T08:56:13Z</time>
      </trkpt>
      <trkpt lat="47.86442" lon="-1.75365">
        <ele>83</ele>
        <time>2015-06-07T08:56:14Z</time>
      </trkpt>
      <trkpt lat="47.86441" lon="-1.75363">
        <ele>83</ele>
        <time>2015-06-07T08:56:15Z</time>
      </trkpt>
      <trkpt lat="47.86439" lon="-1.7536">
        <ele>83</ele>
        <time>2015-06-07T08:56:16Z</time>
      </trkpt>
      <trkpt lat="47.86438" lon="-1.75358">
        <ele>84</ele>
        <time>2015-06-07T08:56:17Z</time>
      </trkpt>
      <trkpt lat="47.86436" lon="-1.75356">
        <ele>84</ele>
        <time>2015-06-07T08:56:18Z</time>
      </trkpt>
      <trkpt lat="47.86434" lon="-1.75355">
        <ele>84</ele>
        <time>2015-06-07T08:56:19Z</time>
      </trkpt>
      <trkpt lat="47.86433" lon="-1.75353">
        <ele>85</ele>
        <time>2015-06-07T08:56:20Z</time>
      </trkpt>
      <trkpt lat="47.86431" lon="-1.75352">
        <ele>85</ele>
        <time>2015-06-07T08:56:21Z</time>
      </trkpt>
      <trkpt lat="47.86429" lon="-1.75349">
        <ele>85</ele>
        <time>2015-06-07T08:56:22Z</time>
      </trkpt>
      <trkpt lat="47.86428" lon="-1.75347">
        <ele>85</ele>
        <time>2015-06-07T08:56:23Z</time>
      </trkpt>
      <trkpt lat="47.86426" lon="-1.75344">
        <ele>86</ele>
        <time>2015-06-07T08:56:24Z</time>
      </trkpt>
      <trkpt lat="47.86424" lon="-1.75342">
        <ele>86</ele>
        <time>2015-06-07T08:56:25Z</time>
      </trkpt>
      <trkpt lat="47.86422" lon="-1.7534">
        <ele>86</ele>
        <time>2015-06-07T08:56:26Z</time>
      </trkpt>
      <trkpt lat="47.86421" lon="-1.75338">
        <ele>87</ele>
        <time>2015-06-07T08:56:27Z</time>
      </trkpt>
      <trkpt lat="47.86419" lon="-1.75336">
        <ele>87</ele>
        <time>2015-06-07T08:56:28Z</time>
      </trkpt>
      <trkpt lat="47.86418" lon="-1.75334">
        <ele>88</ele>
        <time>2015-06-07T08:56:29Z</time>
      </trkpt>
      <trkpt lat="47.86416" lon="-1.75332">
        <ele>88</ele>
        <time>2015-06-07T08:56:30Z</time>
      </trkpt>
      <trkpt lat="47.86415" lon="-1.75329">
        <ele>89</ele>
        <time>2015-06-07T08:56:31Z</time>
      </trkpt>
      <trkpt lat="47.86414" lon="-1.75327">
        <ele>89</ele>
        <time>2015-06-07T08:56:32Z</time>
      </trkpt>
      <trkpt lat="47.86414" lon="-1.75324">
        <ele>90</ele>
        <time>2015-06-07T08:56:33Z</time>
      </trkpt>
      <trkpt lat="47.86413" lon="-1.75321">
        <ele>90</ele>
        <time>2015-06-07T08:56:34Z</time>
      </trkpt>
      <trkpt lat="47.86412" lon="-1.75318">
        <ele>91</ele>
        <time>2015-06-07T08:56:35Z</time>
      </trkpt>
      <trkpt lat="47.86412" lon="-1.75314">
        <ele>91</ele>
        <time>2015-06-07T08:56:36Z</time>
      </trkpt>
      <trkpt lat="47.86411" lon="-1.75311">
        <ele>91</ele>
        <time>2015-06-07T08:56:37Z</time>
      </trkpt>
      <trkpt lat="47.86411" lon="-1.75308">
        <ele>92</ele>
        <time>2015-06-07T08:56:38Z</time>
      </trkpt>
      <trkpt lat="47.86411" lon="-1.75305">
        <ele>93</ele>
        <time>2015-06-07T08:56:39Z</time>
      </trkpt>
      <trkpt lat="47.86411" lon="-1.75302">
        <ele>93</ele>
        <time>2015-06-07T08:56:40Z</time>
      </trkpt>
      <trkpt lat="47.86411" lon="-1.75299">
        <ele>94</ele>
        <time>2015-06-07T08:56:41Z</time>
      </trkpt>
      <trkpt lat="47.8641" lon="-1.75297">
        <ele>94</ele>
        <time>2015-06-07T08:56:42Z</time>
      </trkpt>
      <trkpt lat="47.8641" lon="-1.75295">
        <ele>94</ele>
        <time>2015-06-07T08:56:43Z</time>
      </trkpt>
      <trkpt lat="47.86409" lon="-1.75293">
        <ele>95</ele>
        <time>2015-06-07T08:56:44Z</time>
      </trkpt>
      <trkpt lat="47.86408" lon="-1.7529">
        <ele>95</ele>
        <time>2015-06-07T08:56:45Z</time>
      </trkpt>
      <trkpt lat="47.86408" lon="-1.75287">
        <ele>96</ele>
        <time>2015-06-07T08:56:46Z</time>
      </trkpt>
      <trkpt lat="47.86408" lon="-1.75284">
        <ele>96</ele>
        <time>2015-06-07T08:56:47Z</time>
      </trkpt>
      <trkpt lat="47.86408" lon="-1.75281">
        <ele>97</ele>
        <time>2015-06-07T08:56:48Z</time>
      </trkpt>
      <trkpt lat="47.86408" lon="-1.75278">
        <ele>97</ele>
        <time>2015-06-07T08:56:49Z</time>
      </trkpt>
      <trkpt lat="47.86407" lon="-1.75276">
        <ele>97</ele>
        <time>2015-06-07T08:56:50Z</time>
      </trkpt>
      <trkpt lat="47.86407" lon="-1.75273">
        <ele>98</ele>
        <time>2015-06-07T08:56:51Z</time>
      </trkpt>
      <trkpt lat="47.86406" lon="-1.75271">
        <ele>98</ele>
        <time>2015-06-07T08:56:52Z</time>
      </trkpt>
      <trkpt lat="47.86405" lon="-1.75269">
        <ele>99</ele>
        <time>2015-06-07T08:56:53Z</time>
      </trkpt>
      <trkpt lat="47.86405" lon="-1.75266">
        <ele>99</ele>
        <time>2015-06-07T08:56:54Z</time>
      </trkpt>
      <trkpt lat="47.86404" lon="-1.75264">
        <ele>99</ele>
        <time>2015-06-07T08:56:55Z</time>
      </trkpt>
      <trkpt lat="47.86404" lon="-1.75263">
        <ele>100</ele>
        <time>2015-06-07T08:56:56Z</time>
      </trkpt>
      <trkpt lat="47.86403" lon="-1.75261">
        <ele>100</ele>
        <time>2015-06-07T08:56:57Z</time>
      </trkpt>
      <trkpt lat="47.86402" lon="-1.75258">
        <ele>100</ele>
        <time>2015-06-07T08:56:58Z</time>
      </trkpt>
      <trkpt lat="47.86401" lon="-1.75257">
        <ele>101</ele>
        <time>2015-06-07T08:56:59Z</time>
      </trkpt>
      <trkpt lat="47.864" lon="-1.75254">
        <ele>101</ele>
        <time>2015-06-07T08:57:00Z</time>
      </trkpt>
      <trkpt lat="47.86399" lon="-1.75251">
        <ele>101</ele>
        <time>2015-06-07T08:57:01Z</time>
      </trkpt>
      <trkpt lat="47.86399" lon="-1.75249">
        <ele>101</ele>
        <time>2015-06-07T08:57:02Z</time>
      </trkpt>
      <trkpt lat="47.86398" lon="-1.75247">
        <ele>102</ele>
        <time>2015-06-07T08:57:03Z</time>
      </trkpt>
      <trkpt lat="47.86397" lon="-1.75244">
        <ele>102</ele>
        <time>2015-06-07T08:57:04Z</time>
      </trkpt>
      <trkpt lat="47.86397" lon="-1.75242">
        <ele>102</ele>
        <time>2015-06-07T08:57:05Z</time>
      </trkpt>
      <trkpt lat="47.86397" lon="-1.7524">
        <ele>102</ele>
        <time>2015-06-07T08:57:06Z</time>
      </trkpt>
      <trkpt lat="47.86398" lon="-1.75236">
        <ele>102</ele>
        <time>2015-06-07T08:57:07Z</time>
      </trkpt>
      <trkpt lat="47.86398" lon="-1.75232">
        <ele>103</ele>
        <time>2015-06-07T08:57:08Z</time>
      </trkpt>
      <trkpt lat="47.86399" lon="-1.75228">
        <ele>103</ele>
        <time>2015-06-07T08:57:09Z</time>
      </trkpt>
      <trkpt lat="47.86399" lon="-1.75225">
        <ele>103</ele>
        <time>2015-06-07T08:57:10Z</time>
      </trkpt>
      <trkpt lat="47.864" lon="-1.75223">
        <ele>103</ele>
        <time>2015-06-07T08:57:11Z</time>
      </trkpt>
      <trkpt lat="47.864" lon="-1.7522">
        <ele>103</ele>
        <time>2015-06-07T08:57:12Z</time>
      </trkpt>
      <trkpt lat="47.86401" lon="-1.75216">
        <ele>104</ele>
        <time>2015-06-07T08:57:13Z</time>
      </trkpt>
      <trkpt lat="47.86402" lon="-1.75213">
        <ele>104</ele>
        <time>2015-06-07T08:57:14Z</time>
      </trkpt>
      <trkpt lat="47.86403" lon="-1.7521">
        <ele>104</ele>
        <time>2015-06-07T08:57:15Z</time>
      </trkpt>
      <trkpt lat="47.86405" lon="-1.75207">
        <ele>104</ele>
        <time>2015-06-07T08:57:16Z</time>
      </trkpt>
      <trkpt lat="47.86406" lon="-1.75204">
        <ele>104</ele>
        <time>2015-06-07T08:57:17Z</time>
      </trkpt>
      <trkpt lat="47.86408" lon="-1.75201">
        <ele>104</ele>
        <time>2015-06-07T08:57:18Z</time>
      </trkpt>
      <trkpt lat="47.86409" lon="-1.75198">
        <ele>104</ele>
        <time>2015-06-07T08:57:19Z</time>
      </trkpt>
      <trkpt lat="47.8641" lon="-1.75195">
        <ele>105</ele>
        <time>2015-06-07T08:57:20Z</time>
      </trkpt>
      <trkpt lat="47.86412" lon="-1.75192">
        <ele>105</ele>
        <time>2015-06-07T08:57:21Z</time>
      </trkpt>
      <trkpt lat="47.86415" lon="-1.75191">
        <ele>105</ele>
        <time>2015-06-07T08:57:22Z</time>
      </trkpt>
      <trkpt lat="47.86418" lon="-1.75189">
        <ele>105</ele>
        <time>2015-06-07T08:57:23Z</time>
      </trkpt>
      <trkpt lat="47.86422" lon="-1.75187">
        <ele>105</ele>
        <time>2015-06-07T08:57:24Z</time>
      </trkpt>
      <trkpt lat="47.86425" lon="-1.75184">
        <ele>105</ele>
        <time>2015-06-07T08:57:25Z</time>
      </trkpt>
      <trkpt lat="47.86429" lon="-1.75181">
        <ele>105</ele>
        <time>2015-06-07T08:57:26Z</time>
      </trkpt>
      <trkpt lat="47.86434" lon="-1.75178">
        <ele>105</ele>
        <time>2015-06-07T08:57:27Z</time>
      </trkpt>
      <trkpt lat="47.86438" lon="-1.75175">
        <ele>105</ele>
        <time>2015-06-07T08:57:28Z</time>
      </trkpt>
      <trkpt lat="47.86443" lon="-1.75174">
        <ele>105</ele>
        <time>2015-06-07T08:57:29Z</time>
      </trkpt>
      <trkpt lat="47.86448" lon="-1.75173">
        <ele>104</ele>
        <time>2015-06-07T08:57:30Z</time>
      </trkpt>
      <trkpt lat="47.86453" lon="-1.75174">
        <ele>104</ele>
        <time>2015-06-07T08:57:31Z</time>
      </trkpt>
      <trkpt lat="47.86457" lon="-1.75175">
        <ele>104</ele>
        <time>2015-06-07T08:57:32Z</time>
      </trkpt>
      <trkpt lat="47.86461" lon="-1.75177">
        <ele>104</ele>
        <time>2015-06-07T08:57:33Z</time>
      </trkpt>
      <trkpt lat="47.86464" lon="-1.75178">
        <ele>104</ele>
        <time>2015-06-07T08:57:34Z</time>
      </trkpt>
      <trkpt lat="47.86466" lon="-1.75181">
        <ele>103</ele>
        <time>2015-06-07T08:57:35Z</time>
      </trkpt>
      <trkpt lat="47.86469" lon="-1.75183">
        <ele>103</ele>
        <time>2015-06-07T08:57:36Z</time>
      </trkpt>
      <trkpt lat="47.86472" lon="-1.75187">
        <ele>103</ele>
        <time>2015-06-07T08:57:37Z</time>
      </trkpt>
      <trkpt lat="47.86476" lon="-1.75191">
        <ele>103</ele>
        <time>2015-06-07T08:57:38Z</time>
      </trkpt>
      <trkpt lat="47.86478" lon="-1.75195">
        <ele>102</ele>
        <time>2015-06-07T08:57:39Z</time>
      </trkpt>
      <trkpt lat="47.8648" lon="-1.752">
        <ele>102</ele>
        <time>2015-06-07T08:57:40Z</time>
      </trkpt>
      <trkpt lat="47.86481" lon="-1.75207">
        <ele>101</ele>
        <time>2015-06-07T08:57:41Z</time>
      </trkpt>
      <trkpt lat="47.86483" lon="-1.75215">
        <ele>101</ele>
        <time>2015-06-07T08:57:42Z</time>
      </trkpt>
      <trkpt lat="47.86484" lon="-1.75223">
        <ele>100</ele>
        <time>2015-06-07T08:57:43Z</time>
      </trkpt>
      <trkpt lat="47.86487" lon="-1.75233">
        <ele>100</ele>
        <time>2015-06-07T08:57:44Z</time>
      </trkpt>
      <trkpt lat="47.86489" lon="-1.75241">
        <ele>99</ele>
        <time>2015-06-07T08:57:45Z</time>
      </trkpt>
      <trkpt lat="47.86491" lon="-1.75251">
        <ele>99</ele>
        <time>2015-06-07T08:57:46Z</time>
      </trkpt>
      <trkpt lat="47.86493" lon="-1.75261">
        <ele>98</ele>
        <time>2015-06-07T08:57:47Z</time>
      </trkpt>
      <trkpt lat="47.86494" lon="-1.75271">
        <ele>98</ele>
        <time>2015-06-07T08:57:48Z</time>
      </trkpt>
      <trkpt lat="47.86497" lon="-1.75282">
        <ele>97</ele>
        <time>2015-06-07T08:57:49Z</time>
      </trkpt>
      <trkpt lat="47.86499" lon="-1.75292">
        <ele>96</ele>
        <time>2015-06-07T08:57:50Z</time>
      </trkpt>
      <trkpt lat="47.86502" lon="-1.75303">
        <ele>96</ele>
        <time>2015-06-07T08:57:51Z</time>
      </trkpt>
      <trkpt lat="47.86505" lon="-1.75313">
        <ele>95</ele>
        <time>2015-06-07T08:57:52Z</time>
      </trkpt>
      <trkpt lat="47.86508" lon="-1.75322">
        <ele>95</ele>
        <time>2015-06-07T08:57:53Z</time>
      </trkpt>
      <trkpt lat="47.8651" lon="-1.75332">
        <ele>95</ele>
        <time>2015-06-07T08:57:54Z</time>
      </trkpt>
      <trkpt lat="47.86513" lon="-1.7534">
        <ele>94</ele>
        <time>2015-06-07T08:57:55Z</time>
      </trkpt>
      <trkpt lat="47.86515" lon="-1.75347">
        <ele>94</ele>
        <time>2015-06-07T08:57:56Z</time>
      </trkpt>
      <trkpt lat="47.86518" lon="-1.75352">
        <ele>94</ele>
        <time>2015-06-07T08:57:57Z</time>
      </trkpt>
      <trkpt lat="47.8652" lon="-1.75355">
        <ele>94</ele>
        <time>2015-06-07T08:57:58Z</time>
      </trkpt>
      <trkpt lat="47.86523" lon="-1.75355">
        <ele>94</ele>
        <time>2015-06-07T08:57:59Z</time>
      </trkpt>
      <trkpt lat="47.86525" lon="-1.75354">
        <ele>94</ele>
        <time>2015-06-07T08:58:00Z</time>
      </trkpt>
      <trkpt lat="47.86528" lon="-1.75353">
        <ele>93</ele>
        <time>2015-06-07T08:58:01Z</time>
      </trkpt>
      <trkpt lat="47.86531" lon="-1.75352">
        <ele>93</ele>
        <time>2015-06-07T08:58:02Z</time>
      </trkpt>
      <trkpt lat="47.86534" lon="-1.75349">
        <ele>93</ele>
        <time>2015-06-07T08:58:03Z</time>
      </trkpt>
      <trkpt lat="47.86538" lon="-1.75346">
        <ele>93</ele>
        <time>2015-06-07T08:58:04Z</time>
      </trkpt>
      <trkpt lat="47.86543" lon="-1.75343">
        <ele>93</ele>
        <time>2015-06-07T08:58:05Z</time>
      </trkpt>
      <trkpt lat="47.86547" lon="-1.7534">
        <ele>93</ele>
        <time>2015-06-07T08:58:06Z</time>
      </trkpt>
      <trkpt lat="47.86552" lon="-1.75338">
        <ele>93</ele>
        <time>2015-06-07T08:58:07Z</time>
      </trkpt>
      <trkpt lat="47.86556" lon="-1.75336">
        <ele>93</ele>
        <time>2015-06-07T08:58:08Z</time>
      </trkpt>
      <trkpt lat="47.8656" lon="-1.75335">
        <ele>92</ele>
        <time>2015-06-07T08:58:09Z</time>
      </trkpt>
      <trkpt lat="47.86565" lon="-1.75333">
        <ele>92</ele>
        <time>2015-06-07T08:58:10Z</time>
      </trkpt>
      <trkpt lat="47.86569" lon="-1.7533">
        <ele>92</ele>
        <time>2015-06-07T08:58:11Z</time>
      </trkpt>
      <trkpt lat="47.86573" lon="-1.75327">
        <ele>92</ele>
        <time>2015-06-07T08:58:12Z</time>
      </trkpt>
      <trkpt lat="47.86578" lon="-1.75323">
        <ele>91</ele>
        <time>2015-06-07T08:58:13Z</time>
      </trkpt>
      <trkpt lat="47.86583" lon="-1.75315">
        <ele>91</ele>
        <time>2015-06-07T08:58:14Z</time>
      </trkpt>
      <trkpt lat="47.8659" lon="-1.75306">
        <ele>91</ele>
        <time>2015-06-07T08:58:15Z</time>
      </trkpt>
      <trkpt lat="47.86597" lon="-1.75294">
        <ele>91</ele>
        <time>2015-06-07T08:58:16Z</time>
      </trkpt>
      <trkpt lat="47.86603" lon="-1.75283">
        <ele>91</ele>
        <time>2015-06-07T08:58:17Z</time>
      </trkpt>
      <trkpt lat="47.86608" lon="-1.75274">
        <ele>90</ele>
        <time>2015-06-07T08:58:18Z</time>
      </trkpt>
      <trkpt lat="47.86611" lon="-1.75267">
        <ele>90</ele>
        <time>2015-06-07T08:58:19Z</time>
      </trkpt>
      <trkpt lat="47.86612" lon="-1.7526">
        <ele>90</ele>
        <time>2015-06-07T08:58:20Z</time>
      </trkpt>
      <trkpt lat="47.86613" lon="-1.75253">
        <ele>89</ele>
        <time>2015-06-07T08:58:21Z</time>
      </trkpt>
      <trkpt lat="47.86615" lon="-1.75247">
        <ele>89</ele>
        <time>2015-06-07T08:58:22Z</time>
      </trkpt>
      <trkpt lat="47.86615" lon="-1.7524">
        <ele>89</ele>
        <time>2015-06-07T08:58:23Z</time>
      </trkpt>
      <trkpt lat="47.86616" lon="-1.75233">
        <ele>88</ele>
        <time>2015-06-07T08:58:24Z</time>
      </trkpt>
      <trkpt lat="47.86616" lon="-1.75227">
        <ele>88</ele>
        <time>2015-06-07T08:58:25Z</time>
      </trkpt>
      <trkpt lat="47.86616" lon="-1.7522">
        <ele>88</ele>
        <time>2015-06-07T08:58:26Z</time>
      </trkpt>
      <trkpt lat="47.86616" lon="-1.75214">
        <ele>87</ele>
        <time>2015-06-07T08:58:27Z</time>
      </trkpt>
      <trkpt lat="47.86616" lon="-1.75208">
        <ele>87</ele>
        <time>2015-06-07T08:58:28Z</time>
      </trkpt>
      <trkpt lat="47.86616" lon="-1.75201">
        <ele>87</ele>
        <time>2015-06-07T08:58:29Z</time>
      </trkpt>
      <trkpt lat="47.86617" lon="-1.75195">
        <ele>87</ele>
        <time>2015-06-07T08:58:30Z</time>
      </trkpt>
      <trkpt lat="47.86617" lon="-1.7519">
        <ele>86</ele>
        <time>2015-06-07T08:58:31Z</time>
      </trkpt>
      <trkpt lat="47.86617" lon="-1.75184">
        <ele>86</ele>
        <time>2015-06-07T08:58:32Z</time>
      </trkpt>
      <trkpt lat="47.86618" lon="-1.75179">
        <ele>86</ele>
        <time>2015-06-07T08:58:33Z</time>
      </trkpt>
      <trkpt lat="47.86617" lon="-1.75173">
        <ele>86</ele>
        <time>2015-06-07T08:58:34Z</time>
      </trkpt>
      <trkpt lat="47.86617" lon="-1.75168">
        <ele>85</ele>
        <time>2015-06-07T08:58:35Z</time>
      </trkpt>
      <trkpt lat="47.86617" lon="-1.75162">
        <ele>85</ele>
        <time>2015-06-07T08:58:36Z</time>
      </trkpt>
      <trkpt lat="47.86617" lon="-1.75157">
        <ele>85</ele>
        <time>2015-06-07T08:58:37Z</time>
      </trkpt>
      <trkpt lat="47.86617" lon="-1.75151">
        <ele>85</ele>
        <time>2015-06-07T08:58:38Z</time>
      </trkpt>
      <trkpt lat="47.86616" lon="-1.75146">
        <ele>85</ele>
        <time>2015-06-07T08:58:39Z</time>
      </trkpt>
      <trkpt lat="47.86616" lon="-1.7514">
        <ele>85</ele>
        <time>2015-06-07T08:58:40Z</time>
      </trkpt>
      <trkpt lat="47.86615" lon="-1.75134">
        <ele>84</ele>
        <time>2015-06-07T08:58:41Z</time>
      </trkpt>
      <trkpt lat="47.86615" lon="-1.75128">
        <ele>84</ele>
        <time>2015-06-07T08:58:42Z</time>
      </trkpt>
      <trkpt lat="47.86615" lon="-1.75123">
        <ele>84</ele>
        <time>2015-06-07T08:58:43Z</time>
      </trkpt>
      <trkpt lat="47.86614" lon="-1.75117">
        <ele>84</ele>
        <time>2015-06-07T08:58:44Z</time>
      </trkpt>
      <trkpt lat="47.86614" lon="-1.75111">
        <ele>84</ele>
        <time>2015-06-07T08:58:45Z</time>
      </trkpt>
      <trkpt lat="47.86614" lon="-1.75105">
        <ele>84</ele>
        <time>2015-06-07T08:58:46Z</time>
      </trkpt>
      <trkpt lat="47.86614" lon="-1.75099">
        <ele>84</ele>
        <time>2015-06-07T08:58:47Z</time>
      </trkpt>
      <trkpt lat="47.86614" lon="-1.75093">
        <ele>84</ele>
        <time>2015-06-07T08:58:48Z</time>
      </trkpt>
      <trkpt lat="47.86614" lon="-1.75087">
        <ele>84</ele>
        <time>2015-06-07T08:58:49Z</time>
      </trkpt>
      <trkpt lat="47.86614" lon="-1.75082">
        <ele>84</ele>
        <time>2015-06-07T08:58:50Z</time>
      </trkpt>
      <trkpt lat="47.86614" lon="-1.75076">
        <ele>84</ele>
        <time>2015-06-07T08:58:51Z</time>
      </trkpt>
      <trkpt lat="47.86614" lon="-1.7507">
        <ele>84</ele>
        <time>2015-06-07T08:58:52Z</time>
      </trkpt>
      <trkpt lat="47.86613" lon="-1.75065">
        <ele>84</ele>
        <time>2015-06-07T08:58:53Z</time>
      </trkpt>
      <trkpt lat="47.86613" lon="-1.7506">
        <ele>84</ele>
        <time>2015-06-07T08:58:54Z</time>
      </trkpt>
      <trkpt lat="47.86612" lon="-1.75054">
        <ele>84</ele>
        <time>2015-06-07T08:58:55Z</time>
      </trkpt>
      <trkpt lat="47.86612" lon="-1.75049">
        <ele>84</ele>
        <time>2015-06-07T08:58:56Z</time>
      </trkpt>
      <trkpt lat="47.86613" lon="-1.75043">
        <ele>84</ele>
        <time>2015-06-07T08:58:57Z</time>
      </trkpt>
      <trkpt lat="47.86613" lon="-1.75038">
        <ele>84</ele>
        <time>2015-06-07T08:58:58Z</time>
      </trkpt>
      <trkpt lat="47.86613" lon="-1.75032">
        <ele>84</ele>
        <time>2015-06-07T08:58:59Z</time>
      </trkpt>
      <trkpt lat="47.86614" lon="-1.75026">
        <ele>85</ele>
        <time>2015-06-07T08:59:00Z</time>
      </trkpt>
      <trkpt lat="47.86614" lon="-1.75021">
        <ele>85</ele>
        <time>2015-06-07T08:59:01Z</time>
      </trkpt>
      <trkpt lat="47.86614" lon="-1.75015">
        <ele>85</ele>
        <time>2015-06-07T08:59:02Z</time>
      </trkpt>
      <trkpt lat="47.86614" lon="-1.7501">
        <ele>85</ele>
        <time>2015-06-07T08:59:03Z</time>
      </trkpt>
      <trkpt lat="47.86615" lon="-1.75004">
        <ele>85</ele>
        <time>2015-06-07T08:59:04Z</time>
      </trkpt>
      <trkpt lat="47.86615" lon="-1.74998">
        <ele>85</ele>
        <time>2015-06-07T08:59:05Z</time>
      </trkpt>
      <trkpt lat="47.86615" lon="-1.74993">
        <ele>85</ele>
        <time>2015-06-07T08:59:06Z</time>
      </trkpt>
      <trkpt lat="47.86615" lon="-1.74988">
        <ele>85</ele>
        <time>2015-06-07T08:59:07Z</time>
      </trkpt>
      <trkpt lat="47.86614" lon="-1.74982">
        <ele>85</ele>
        <time>2015-06-07T08:59:08Z</time>
      </trkpt>
      <trkpt lat="47.86614" lon="-1.74978">
        <ele>85</ele>
        <time>2015-06-07T08:59:09Z</time>
      </trkpt>
      <trkpt lat="47.86614" lon="-1.74973">
        <ele>85</ele>
        <time>2015-06-07T08:59:10Z</time>
      </trkpt>
      <trkpt lat="47.86613" lon="-1.74969">
        <ele>85</ele>
        <time>2015-06-07T08:59:11Z</time>
      </trkpt>
      <trkpt lat="47.86613" lon="-1.74965">
        <ele>85</ele>
        <time>2015-06-07T08:59:12Z</time>
      </trkpt>
      <trkpt lat="47.86612" lon="-1.74962">
        <ele>86</ele>
        <time>2015-06-07T08:59:13Z</time>
      </trkpt>
      <trkpt lat="47.86611" lon="-1.74961">
        <ele>86</ele>
        <time>2015-06-07T08:59:14Z</time>
      </trkpt>
      <trkpt lat="47.86609" lon="-1.74961">
        <ele>86</ele>
        <time>2015-06-07T08:59:15Z</time>
      </trkpt>
      <trkpt lat="47.86606" lon="-1.74961">
        <ele>86</ele>
        <time>2015-06-07T08:59:16Z</time>
      </trkpt>
      <trkpt lat="47.86604" lon="-1.74961">
        <ele>86</ele>
        <time>2015-06-07T08:59:17Z</time>
      </trkpt>
      <trkpt lat="47.86602" lon="-1.74961">
        <ele>86</ele>
        <time>2015-06-07T08:59:18Z</time>
      </trkpt>
      <trkpt lat="47.86599" lon="-1.74962">
        <ele>86</ele>
        <time>2015-06-07T08:59:19Z</time>
      </trkpt>
      <trkpt lat="47.86597" lon="-1.74962">
        <ele>87</ele>
        <time>2015-06-07T08:59:20Z</time>
      </trkpt>
      <trkpt lat="47.86594" lon="-1.74963">
        <ele>87</ele>
        <time>2015-06-07T08:59:21Z</time>
      </trkpt>
      <trkpt lat="47.86591" lon="-1.74964">
        <ele>87</ele>
        <time>2015-06-07T08:59:22Z</time>
      </trkpt>
      <trkpt lat="47.86588" lon="-1.74964">
        <ele>87</ele>
        <time>2015-06-07T08:59:23Z</time>
      </trkpt>
      <trkpt lat="47.86585" lon="-1.74964">
        <ele>87</ele>
        <time>2015-06-07T08:59:24Z</time>
      </trkpt>
      <trkpt lat="47.86582" lon="-1.74965">
        <ele>87</ele>
        <time>2015-06-07T08:59:25Z</time>
      </trkpt>
      <trkpt lat="47.86579" lon="-1.74965">
        <ele>87</ele>
        <time>2015-06-07T08:59:26Z</time>
      </trkpt>
      <trkpt lat="47.86577" lon="-1.74965">
        <ele>88</ele>
        <time>2015-06-07T08:59:27Z</time>
      </trkpt>
      <trkpt lat="47.86574" lon="-1.74965">
        <ele>88</ele>
        <time>2015-06-07T08:59:28Z</time>
      </trkpt>
      <trkpt lat="47.86571" lon="-1.74965">
        <ele>88</ele>
        <time>2015-06-07T08:59:29Z</time>
      </trkpt>
      <trkpt lat="47.86569" lon="-1.74965">
        <ele>88</ele>
        <time>2015-06-07T08:59:30Z</time>
      </trkpt>
      <trkpt lat="47.86566" lon="-1.74965">
        <ele>89</ele>
        <time>2015-06-07T08:59:31Z</time>
      </trkpt>
      <trkpt lat="47.86563" lon="-1.74965">
        <ele>89</ele>
        <time>2015-06-07T08:59:32Z</time>
      </trkpt>
      <trkpt lat="47.8656" lon="-1.74966">
        <ele>90</ele>
        <time>2015-06-07T08:59:33Z</time>
      </trkpt>
      <trkpt lat="47.86556" lon="-1.74966">
        <ele>90</ele>
        <time>2015-06-07T08:59:34Z</time>
      </trkpt>
      <trkpt lat="47.86554" lon="-1.74965">
        <ele>90</ele>
        <time>2015-06-07T08:59:35Z</time>
      </trkpt>
      <trkpt lat="47.86552" lon="-1.74966">
        <ele>91</ele>
        <time>2015-06-07T08:59:36Z</time>
      </trkpt>
      <trkpt lat="47.8655" lon="-1.74966">
        <ele>91</ele>
        <time>2015-06-07T08:59:37Z</time>
      </trkpt>
      <trkpt lat="47.86547" lon="-1.74967">
        <ele>91</ele>
        <time>2015-06-07T08:59:38Z</time>
      </trkpt>
      <trkpt lat="47.86545" lon="-1.74967">
        <ele>92</ele>
        <time>2015-06-07T08:59:39Z</time>
      </trkpt>
      <trkpt lat="47.86543" lon="-1.74967">
        <ele>92</ele>
        <time>2015-06-07T08:59:40Z</time>
      </trkpt>
      <trkpt lat="47.86541" lon="-1.74967">
        <ele>93</ele>
        <time>2015-06-07T08:59:41Z</time>
      </trkpt>
      <trkpt lat="47.86539" lon="-1.74967">
        <ele>93</ele>
        <time>2015-06-07T08:59:42Z</time>
      </trkpt>
      <trkpt lat="47.86536" lon="-1.74967">
        <ele>94</ele>
        <time>2015-06-07T08:59:43Z</time>
      </trkpt>
      <trkpt lat="47.86534" lon="-1.74967">
        <ele>94</ele>
        <time>2015-06-07T08:59:44Z</time>
      </trkpt>
      <trkpt lat="47.86532" lon="-1.74967">
        <ele>95</ele>
        <time>2015-06-07T08:59:45Z</time>
      </trkpt>
      <trkpt lat="47.8653" lon="-1.74968">
        <ele>95</ele>
        <time>2015-06-07T08:59:46Z</time>
      </trkpt>
      <trkpt lat="47.86529" lon="-1.74969">
        <ele>96</ele>
        <time>2015-06-07T08:59:47Z</time>
      </trkpt>
      <trkpt lat="47.86527" lon="-1.7497">
        <ele>96</ele>
        <time>2015-06-07T08:59:48Z</time>
      </trkpt>
      <trkpt lat="47.86526" lon="-1.7497">
        <ele>97</ele>
        <time>2015-06-07T08:59:49Z</time>
      </trkpt>
      <trkpt lat="47.86524" lon="-1.74971">
        <ele>97</ele>
        <time>2015-06-07T08:59:50Z</time>
      </trkpt>
      <trkpt lat="47.86523" lon="-1.74971">
        <ele>98</ele>
        <time>2015-06-07T08:59:51Z</time>
      </trkpt>
      <trkpt lat="47.86521" lon="-1.74973">
        <ele>98</ele>
        <time>2015-06-07T08:59:52Z</time>
      </trkpt>
      <trkpt lat="47.8652" lon="-1.74973">
        <ele>99</ele>
        <time>2015-06-07T08:59:53Z</time>
      </trkpt>
      <trkpt lat="47.86519" lon="-1.74973">
        <ele>99</ele>
        <time>2015-06-07T08:59:54Z</time>
      </trkpt>
      <trkpt lat="47.86518" lon="-1.74973">
        <ele>100</ele>
        <time>2015-06-07T08:59:55Z</time>
      </trkpt>
      <trkpt lat="47.86517" lon="-1.74972">
        <ele>100</ele>
        <time>2015-06-07T08:59:56Z</time>
      </trkpt>
      <trkpt lat="47.86516" lon="-1.74972">
        <ele>101</ele>
        <time>2015-06-07T08:59:57Z</time>
      </trkpt>
      <trkpt lat="47.86514" lon="-1.74972">
        <ele>101</ele>
        <time>2015-06-07T08:59:58Z</time>
      </trkpt>
      <trkpt lat="47.86512" lon="-1.74972">
        <ele>102</ele>
        <time>2015-06-07T08:59:59Z</time>
      </trkpt>
      <trkpt lat="47.86511" lon="-1.74973">
        <ele>102</ele>
        <time>2015-06-07T09:00:00Z</time>
      </trkpt>
      <trkpt lat="47.86509" lon="-1.74973">
        <ele>102</ele>
        <time>2015-06-07T09:00:01Z</time>
      </trkpt>
      <trkpt lat="47.86507" lon="-1.74972">
        <ele>103</ele>
        <time>2015-06-07T09:00:02Z</time>
      </trkpt>
      <trkpt lat="47.86505" lon="-1.74973">
        <ele>103</ele>
        <time>2015-06-07T09:00:03Z</time>
      </trkpt>
      <trkpt lat="47.86504" lon="-1.74972">
        <ele>103</ele>
        <time>2015-06-07T09:00:04Z</time>
      </trkpt>
      <trkpt lat="47.86502" lon="-1.74973">
        <ele>103</ele>
        <time>2015-06-07T09:00:05Z</time>
      </trkpt>
      <trkpt lat="47.865" lon="-1.74973">
        <ele>103</ele>
        <time>2015-06-07T09:00:06Z</time>
      </trkpt>
      <trkpt lat="47.86498" lon="-1.74974">
        <ele>103</ele>
        <time>2015-06-07T09:00:07Z</time>
      </trkpt>
      <trkpt lat="47.86496" lon="-1.74974">
        <ele>103</ele>
        <time>2015-06-07T09:00:08Z</time>
      </trkpt>
      <trkpt lat="47.86494" lon="-1.74975">
        <ele>103</ele>
        <time>2015-06-07T09:00:09Z</time>
      </trkpt>
      <trkpt lat="47.86492" lon="-1.74976">
        <ele>103</ele>
        <time>2015-06-07T09:00:10Z</time>
      </trkpt>
      <trkpt lat="47.8649" lon="-1.74977">
        <ele>103</ele>
        <time>2015-06-07T09:00:11Z</time>
      </trkpt>
      <trkpt lat="47.86489" lon="-1.74978">
        <ele>103</ele>
        <time>2015-06-07T09:00:12Z</time>
      </trkpt>
      <trkpt lat="47.86487" lon="-1.74979">
        <ele>103</ele>
        <time>2015-06-07T09:00:13Z</time>
      </trkpt>
      <trkpt lat="47.86485" lon="-1.7498">
        <ele>103</ele>
        <time>2015-06-07T09:00:14Z</time>
      </trkpt>
      <trkpt lat="47.86483" lon="-1.7498">
        <ele>103</ele>
        <time>2015-06-07T09:00:15Z</time>
      </trkpt>
      <trkpt lat="47.86482" lon="-1.74979">
        <ele>103</ele>
        <time>2015-06-07T09:00:16Z</time>
      </trkpt>
      <trkpt lat="47.8648" lon="-1.74978">
        <ele>103</ele>
        <time>2015-06-07T09:00:17Z</time>
      </trkpt>
      <trkpt lat="47.86478" lon="-1.74978">
        <ele>103</ele>
        <time>2015-06-07T09:00:18Z</time>
      </trkpt>
      <trkpt lat="47.86477" lon="-1.74976">
        <ele>103</ele>
        <time>2015-06-07T09:00:19Z</time>
      </trkpt>
      <trkpt lat="47.86475" lon="-1.74975">
        <ele>103</ele>
        <time>2015-06-07T09:00:20Z</time>
      </trkpt>
      <trkpt lat="47.86474" lon="-1.74972">
        <ele>103</ele>
        <time>2015-06-07T09:00:21Z</time>
      </trkpt>
      <trkpt lat="47.86474" lon="-1.7497">
        <ele>103</ele>
        <time>2015-06-07T09:00:22Z</time>
      </trkpt>
      <trkpt lat="47.86473" lon="-1.74968">
        <ele>103</ele>
        <time>2015-06-07T09:00:23Z</time>
      </trkpt>
      <trkpt lat="47.86471" lon="-1.74966">
        <ele>104</ele>
        <time>2015-06-07T09:00:24Z</time>
      </trkpt>
      <trkpt lat="47.86468" lon="-1.74964">
        <ele>104</ele>
        <time>2015-06-07T09:00:25Z</time>
      </trkpt>
      <trkpt lat="47.86467" lon="-1.74962">
        <ele>104</ele>
        <time>2015-06-07T09:00:26Z</time>
      </trkpt>
      <trkpt lat="47.86465" lon="-1.74959">
        <ele>104</ele>
        <time>2015-06-07T09:00:27Z</time>
      </trkpt>
      <trkpt lat="47.86464" lon="-1.74957">
        <ele>104</ele>
        <time>2015-06-07T09:00:28Z</time>
      </trkpt>
      <trkpt lat="47.86463" lon="-1.74955">
        <ele>104</ele>
        <time>2015-06-07T09:00:29Z</time>
      </trkpt>
      <trkpt lat="47.86462" lon="-1.74953">
        <ele>105</ele>
        <time>2015-06-07T09:00:30Z</time>
      </trkpt>
      <trkpt lat="47.86461" lon="-1.74951">
        <ele>105</ele>
        <time>2015-06-07T09:00:31Z</time>
      </trkpt>
      <trkpt lat="47.8646" lon="-1.74948">
        <ele>105</ele>
        <time>2015-06-07T09:00:32Z</time>
      </trkpt>
      <trkpt lat="47.8646" lon="-1.74946">
        <ele>105</ele>
        <time>2015-06-07T09:00:33Z</time>
      </trkpt>
      <trkpt lat="47.86459" lon="-1.74943">
        <ele>106</ele>
        <time>2015-06-07T09:00:34Z</time>
      </trkpt>
      <trkpt lat="47.86459" lon="-1.7494">
        <ele>106</ele>
        <time>2015-06-07T09:00:35Z</time>
      </trkpt>
      <trkpt lat="47.86458" lon="-1.74938">
        <ele>106</ele>
        <time>2015-06-07T09:00:36Z</time>
      </trkpt>
      <trkpt lat="47.86457" lon="-1.74935">
        <ele>106</ele>
        <time>2015-06-07T09:00:37Z</time>
      </trkpt>
      <trkpt lat="47.86457" lon="-1.74933">
        <ele>107</ele>
        <time>2015-06-07T09:00:38Z</time>
      </trkpt>
      <trkpt lat="47.86456" lon="-1.7493">
        <ele>107</ele>
        <time>2015-06-07T09:00:39Z</time>
      </trkpt>
      <trkpt lat="47.86455" lon="-1.74928">
        <ele>107</ele>
        <time>2015-06-07T09:00:40Z</time>
      </trkpt>
      <trkpt lat="47.86454" lon="-1.74925">
        <ele>107</ele>
        <time>2015-06-07T09:00:41Z</time>
      </trkpt>
      <trkpt lat="47.86453" lon="-1.74921">
        <ele>108</ele>
        <time>2015-06-07T09:00:42Z</time>
      </trkpt>
      <trkpt lat="47.86452" lon="-1.74918">
        <ele>108</ele>
        <time>2015-06-07T09:00:43Z</time>
      </trkpt>
      <trkpt lat="47.86451" lon="-1.74913">
        <ele>108</ele>
        <time>2015-06-07T09:00:44Z</time>
      </trkpt>
      <trkpt lat="47.8645" lon="-1.74909">
        <ele>109</ele>
        <time>2015-06-07T09:00:45Z</time>
      </trkpt>
      <trkpt lat="47.86449" lon="-1.74906">
        <ele>109</ele>
        <time>2015-06-07T09:00:46Z</time>
      </trkpt>
      <trkpt lat="47.86448" lon="-1.74902">
        <ele>109</ele>
        <time>2015-06-07T09:00:47Z</time>
      </trkpt>
      <trkpt lat="47.86446" lon="-1.74899">
        <ele>109</ele>
        <time>2015-06-07T09:00:48Z</time>
      </trkpt>
      <trkpt lat="47.86444" lon="-1.74896">
        <ele>109</ele>
        <time>2015-06-07T09:00:49Z</time>
      </trkpt>
      <trkpt lat="47.86443" lon="-1.74892">
        <ele>110</ele>
        <time>2015-06-07T09:00:50Z</time>
      </trkpt>
      <trkpt lat="47.86441" lon="-1.74889">
        <ele>110</ele>
        <time>2015-06-07T09:00:51Z</time>
      </trkpt>
      <trkpt lat="47.86438" lon="-1.74886">
        <ele>110</ele>
        <time>2015-06-07T09:00:52Z</time>
      </trkpt>
      <trkpt lat="47.86436" lon="-1.74883">
        <ele>110</ele>
        <time>2015-06-07T09:00:53Z</time>
      </trkpt>
      <trkpt lat="47.86434" lon="-1.7488">
        <ele>110</ele>
        <time>2015-06-07T09:00:54Z</time>
      </trkpt>
      <trkpt lat="47.86432" lon="-1.74878">
        <ele>111</ele>
        <time>2015-06-07T09:00:55Z</time>
      </trkpt>
      <trkpt lat="47.8643" lon="-1.74875">
        <ele>111</ele>
        <time>2015-06-07T09:00:56Z</time>
      </trkpt>
      <trkpt lat="47.86428" lon="-1.74873">
        <ele>111</ele>
        <time>2015-06-07T09:00:57Z</time>
      </trkpt>
      <trkpt lat="47.86426" lon="-1.7487">
        <ele>111</ele>
        <time>2015-06-07T09:00:58Z</time>
      </trkpt>
      <trkpt lat="47.86424" lon="-1.74866">
        <ele>112</ele>
        <time>2015-06-07T09:00:59Z</time>
      </trkpt>
      <trkpt lat="47.86423" lon="-1.74863">
        <ele>112</ele>
        <time>2015-06-07T09:01:00Z</time>
      </trkpt>
      <trkpt lat="47.86421" lon="-1.7486">
        <ele>112</ele>
        <time>2015-06-07T09:01:01Z</time>
      </trkpt>
      <trkpt lat="47.86419" lon="-1.74857">
        <ele>113</ele>
        <time>2015-06-07T09:01:02Z</time>
      </trkpt>
      <trkpt lat="47.86418" lon="-1.74854">
        <ele>113</ele>
        <time>2015-06-07T09:01:03Z</time>
      </trkpt>
      <trkpt lat="47.86415" lon="-1.74852">
        <ele>113</ele>
        <time>2015-06-07T09:01:04Z</time>
      </trkpt>
      <trkpt lat="47.86413" lon="-1.74849">
        <ele>114</ele>
        <time>2015-06-07T09:01:05Z</time>
      </trkpt>
      <trkpt lat="47.86411" lon="-1.74846">
        <ele>114</ele>
        <time>2015-06-07T09:01:06Z</time>
      </trkpt>
      <trkpt lat="47.86409" lon="-1.74843">
        <ele>114</ele>
        <time>2015-06-07T09:01:07Z</time>
      </trkpt>
      <trkpt lat="47.86407" lon="-1.7484">
        <ele>115</ele>
        <time>2015-06-07T09:01:08Z</time>
      </trkpt>
      <trkpt lat="47.86405" lon="-1.74837">
        <ele>115</ele>
        <time>2015-06-07T09:01:09Z</time>
      </trkpt>
      <trkpt lat="47.86402" lon="-1.74834">
        <ele>115</ele>
        <time>2015-06-07T09:01:10Z</time>
      </trkpt>
      <trkpt lat="47.864" lon="-1.74831">
        <ele>116</ele>
        <time>2015-06-07T09:01:11Z</time>
      </trkpt>
      <trkpt lat="47.86398" lon="-1.74828">
        <ele>116</ele>
        <time>2015-06-07T09:01:12Z</time>
      </trkpt>
      <trkpt lat="47.86396" lon="-1.74826">
        <ele>116</ele>
        <time>2015-06-07T09:01:13Z</time>
      </trkpt>
      <trkpt lat="47.86393" lon="-1.74823">
        <ele>117</ele>
        <time>2015-06-07T09:01:14Z</time>
      </trkpt>
      <trkpt lat="47.8639" lon="-1.7482">
        <ele>117</ele>
        <time>2015-06-07T09:01:15Z</time>
      </trkpt>
      <trkpt lat="47.86388" lon="-1.74817">
        <ele>117</ele>
        <time>2015-06-07T09:01:16Z</time>
      </trkpt>
      <trkpt lat="47.86385" lon="-1.74814">
        <ele>117</ele>
        <time>2015-06-07T09:01:17Z</time>
      </trkpt>
      <trkpt lat="47.86382" lon="-1.7481">
        <ele>118</ele>
        <time>2015-06-07T09:01:18Z</time>
      </trkpt>
      <trkpt lat="47.86379" lon="-1.74807">
        <ele>118</ele>
        <time>2015-06-07T09:01:19Z</time>
      </trkpt>
      <trkpt lat="47.86376" lon="-1.74804">
        <ele>118</ele>
        <time>2015-06-07T09:01:20Z</time>
      </trkpt>
      <trkpt lat="47.86373" lon="-1.74801">
        <ele>118</ele>
        <time>2015-06-07T09:01:21Z</time>
      </trkpt>
      <trkpt lat="47.86371" lon="-1.74798">
        <ele>118</ele>
        <time>2015-06-07T09:01:22Z</time>
      </trkpt>
      <trkpt lat="47.86368" lon="-1.74795">
        <ele>118</ele>
        <time>2015-06-07T09:01:23Z</time>
      </trkpt>
      <trkpt lat="47.86365" lon="-1.74793">
        <ele>119</ele>
        <time>2015-06-07T09:01:24Z</time>
      </trkpt>
      <trkpt lat="47.86363" lon="-1.7479">
        <ele>119</ele>
        <time>2015-06-07T09:01:25Z</time>
      </trkpt>
      <trkpt lat="47.8636" lon="-1.74787">
        <ele>119</ele>
        <time>2015-06-07T09:01:26Z</time>
      </trkpt>
      <trkpt lat="47.86358" lon="-1.74784">
        <ele>119</ele>
        <time>2015-06-07T09:01:27Z</time>
      </trkpt>
      <trkpt lat="47.86355" lon="-1.74781">
        <ele>119</ele>
        <time>2015-06-07T09:01:28Z</time>
      </trkpt>
      <trkpt lat="47.86352" lon="-1.74778">
        <ele>120</ele>
        <time>2015-06-07T09:01:29Z</time>
      </trkpt>
      <trkpt lat="47.86349" lon="-1.74774">
        <ele>120</ele>
        <time>2015-06-07T09:01:30Z</time>
      </trkpt>
      <trkpt lat="47.86346" lon="-1.74771">
        <ele>120</ele>
        <time>2015-06-07T09:01:31Z</time>
      </trkpt>
      <trkpt lat="47.86343" lon="-1.74767">
        <ele>120</ele>
        <time>2015-06-07T09:01:32Z</time>
      </trkpt>
      <trkpt lat="47.8634" lon="-1.74764">
        <ele>120</ele>
        <time>2015-06-07T09:01:33Z</time>
      </trkpt>
      <trkpt lat="47.86336" lon="-1.74761">
        <ele>120</ele>
        <time>2015-06-07T09:01:34Z</time>
      </trkpt>
      <trkpt lat="47.86333" lon="-1.74758">
        <ele>120</ele>
        <time>2015-06-07T09:01:35Z</time>
      </trkpt>
      <trkpt lat="47.8633" lon="-1.74756">
        <ele>120</ele>
        <time>2015-06-07T09:01:36Z</time>
      </trkpt>
      <trkpt lat="47.86327" lon="-1.74754">
        <ele>120</ele>
        <time>2015-06-07T09:01:37Z</time>
      </trkpt>
      <trkpt lat="47.86324" lon="-1.74752">
        <ele>120</ele>
        <time>2015-06-07T09:01:38Z</time>
      </trkpt>
      <trkpt lat="47.86322" lon="-1.74751">
        <ele>120</ele>
        <time>2015-06-07T09:01:39Z</time>
      </trkpt>
      <trkpt lat="47.8632" lon="-1.7475">
        <ele>120</ele>
        <time>2015-06-07T09:01:40Z</time>
      </trkpt>
      <trkpt lat="47.8632" lon="-1.74749">
        <ele>121</ele>
        <time>2015-06-07T09:01:41Z</time>
      </trkpt>
      <trkpt lat="47.86319" lon="-1.7475">
        <ele>121</ele>
        <time>2015-06-07T09:01:42Z</time>
      </trkpt>
      <trkpt lat="47.86317" lon="-1.7475">
        <ele>121</ele>
        <time>2015-06-07T09:01:43Z</time>
      </trkpt>
      <trkpt lat="47.86314" lon="-1.7475">
        <ele>121</ele>
        <time>2015-06-07T09:01:44Z</time>
      </trkpt>
      <trkpt lat="47.86311" lon="-1.74748">
        <ele>121</ele>
        <time>2015-06-07T09:01:45Z</time>
      </trkpt>
      <trkpt lat="47.86308" lon="-1.74746">
        <ele>121</ele>
        <time>2015-06-07T09:01:46Z</time>
      </trkpt>
      <trkpt lat="47.86305" lon="-1.74744">
        <ele>121</ele>
        <time>2015-06-07T09:01:47Z</time>
      </trkpt>
      <trkpt lat="47.86301" lon="-1.74744">
        <ele>121</ele>
        <time>2015-06-07T09:01:48Z</time>
      </trkpt>
      <trkpt lat="47.86297" lon="-1.74745">
        <ele>121</ele>
        <time>2015-06-07T09:01:49Z</time>
      </trkpt>
      <trkpt lat="47.86293" lon="-1.74745">
        <ele>121</ele>
        <time>2015-06-07T09:01:50Z</time>
      </trkpt>
      <trkpt lat="47.86289" lon="-1.74746">
        <ele>121</ele>
        <time>2015-06-07T09:01:51Z</time>
      </trkpt>
      <trkpt lat="47.86285" lon="-1.74747">
        <ele>121</ele>
        <time>2015-06-07T09:01:52Z</time>
      </trkpt>
      <trkpt lat="47.86281" lon="-1.74747">
        <ele>120</ele>
        <time>2015-06-07T09:01:53Z</time>
      </trkpt>
      <trkpt lat="47.86277" lon="-1.74748">
        <ele>120</ele>
        <time>2015-06-07T09:01:54Z</time>
      </trkpt>
      <trkpt lat="47.86273" lon="-1.74749">
        <ele>120</ele>
        <time>2015-06-07T09:01:55Z</time>
      </trkpt>
      <trkpt lat="47.86268" lon="-1.7475">
        <ele>120</ele>
        <time>2015-06-07T09:01:56Z</time>
      </trkpt>
      <trkpt lat="47.86265" lon="-1.74751">
        <ele>120</ele>
        <time>2015-06-07T09:01:57Z</time>
      </trkpt>
      <trkpt lat="47.8626" lon="-1.74753">
        <ele>119</ele>
        <time>2015-06-07T09:01:58Z</time>
      </trkpt>
      <trkpt lat="47.86256" lon="-1.74754">
        <ele>119</ele>
        <time>2015-06-07T09:01:59Z</time>
      </trkpt>
      <trkpt lat="47.86251" lon="-1.74755">
        <ele>119</ele>
        <time>2015-06-07T09:02:00Z</time>
      </trkpt>
      <trkpt lat="47.86247" lon="-1.74756">
        <ele>119</ele>
        <time>2015-06-07T09:02:01Z</time>
      </trkpt>
      <trkpt lat="47.86242" lon="-1.74757">
        <ele>118</ele>
        <time>2015-06-07T09:02:02Z</time>
      </trkpt>
      <trkpt lat="47.86237" lon="-1.74757">
        <ele>118</ele>
        <time>2015-06-07T09:02:03Z</time>
      </trkpt>
      <trkpt lat="47.86232" lon="-1.74758">
        <ele>118</ele>
        <time>2015-06-07T09:02:04Z</time>
      </trkpt>
      <trkpt lat="47.86227" lon="-1.74758">
        <ele>117</ele>
        <time>2015-06-07T09:02:05Z</time>
      </trkpt>
      <trkpt lat="47.86222" lon="-1.74758">
        <ele>117</ele>
        <time>2015-06-07T09:02:06Z</time>
      </trkpt>
      <trkpt lat="47.86218" lon="-1.7476">
        <ele>117</ele>
        <time>2015-06-07T09:02:07Z</time>
      </trkpt>
      <trkpt lat="47.86214" lon="-1.74761">
        <ele>117</ele>
        <time>2015-06-07T09:02:08Z</time>
      </trkpt>
      <trkpt lat="47.86209" lon="-1.74761">
        <ele>116</ele>
        <time>2015-06-07T09:02:09Z</time>
      </trkpt>
      <trkpt lat="47.86205" lon="-1.74761">
        <ele>116</ele>
        <time>2015-06-07T09:02:10Z</time>
      </trkpt>
      <trkpt lat="47.86201" lon="-1.74761">
        <ele>116</ele>
        <time>2015-06-07T09:02:11Z</time>
      </trkpt>
      <trkpt lat="47.86197" lon="-1.74761">
        <ele>116</ele>
        <time>2015-06-07T09:02:12Z</time>
      </trkpt>
      <trkpt lat="47.86194" lon="-1.74762">
        <ele>115</ele>
        <time>2015-06-07T09:02:13Z</time>
      </trkpt>
      <trkpt lat="47.86191" lon="-1.74762">
        <ele>115</ele>
        <time>2015-06-07T09:02:14Z</time>
      </trkpt>
      <trkpt lat="47.86189" lon="-1.74764">
        <ele>115</ele>
        <time>2015-06-07T09:02:15Z</time>
      </trkpt>
      <trkpt lat="47.86188" lon="-1.74764">
        <ele>115</ele>
        <time>2015-06-07T09:02:16Z</time>
      </trkpt>
      <trkpt lat="47.86187" lon="-1.74766">
        <ele>115</ele>
        <time>2015-06-07T09:02:17Z</time>
      </trkpt>
      <trkpt lat="47.86187" lon="-1.74767">
        <ele>115</ele>
        <time>2015-06-07T09:02:18Z</time>
      </trkpt>
      <trkpt lat="47.86186" lon="-1.74769">
        <ele>116</ele>
        <time>2015-06-07T09:02:19Z</time>
      </trkpt>
      <trkpt lat="47.86185" lon="-1.74771">
        <ele>116</ele>
        <time>2015-06-07T09:02:20Z</time>
      </trkpt>
      <trkpt lat="47.86184" lon="-1.74772">
        <ele>116</ele>
        <time>2015-06-07T09:02:21Z</time>
      </trkpt>
      <trkpt lat="47.86182" lon="-1.74773">
        <ele>116</ele>
        <time>2015-06-07T09:02:22Z</time>
      </trkpt>
      <trkpt lat="47.86181" lon="-1.74773">
        <ele>116</ele>
        <time>2015-06-07T09:02:23Z</time>
      </trkpt>
      <trkpt lat="47.86179" lon="-1.74774">
        <ele>116</ele>
        <time>2015-06-07T09:02:24Z</time>
      </trkpt>
      <trkpt lat="47.86178" lon="-1.74775">
        <ele>116</ele>
        <time>2015-06-07T09:02:25Z</time>
      </trkpt>
      <trkpt lat="47.86176" lon="-1.74777">
        <ele>117</ele>
        <time>2015-06-07T09:02:26Z</time>
      </trkpt>
      <trkpt lat="47.86174" lon="-1.74777">
        <ele>117</ele>
        <time>2015-06-07T09:02:27Z</time>
      </trkpt>
      <trkpt lat="47.86172" lon="-1.74778">
        <ele>117</ele>
        <time>2015-06-07T09:02:28Z</time>
      </trkpt>
      <trkpt lat="47.8617" lon="-1.74778">
        <ele>117</ele>
        <time>2015-06-07T09:02:29Z</time>
      </trkpt>
      <trkpt lat="47.86167" lon="-1.74779">
        <ele>117</ele>
        <time>2015-06-07T09:02:30Z</time>
      </trkpt>
      <trkpt lat="47.86165" lon="-1.7478">
        <ele>117</ele>
        <time>2015-06-07T09:02:31Z</time>
      </trkpt>
      <trkpt lat="47.86162" lon="-1.7478">
        <ele>118</ele>
        <time>2015-06-07T09:02:32Z</time>
      </trkpt>
      <trkpt lat="47.86159" lon="-1.74781">
        <ele>118</ele>
        <time>2015-06-07T09:02:33Z</time>
      </trkpt>
      <trkpt lat="47.86157" lon="-1.74782">
        <ele>118</ele>
        <time>2015-06-07T09:02:34Z</time>
      </trkpt>
      <trkpt lat="47.86155" lon="-1.74784">
        <ele>118</ele>
        <time>2015-06-07T09:02:35Z</time>
      </trkpt>
      <trkpt lat="47.86152" lon="-1.74786">
        <ele>118</ele>
        <time>2015-06-07T09:02:36Z</time>
      </trkpt>
      <trkpt lat="47.86149" lon="-1.74788">
        <ele>118</ele>
        <time>2015-06-07T09:02:37Z</time>
      </trkpt>
      <trkpt lat="47.86145" lon="-1.74789">
        <ele>118</ele>
        <time>2015-06-07T09:02:38Z</time>
      </trkpt>
      <trkpt lat="47.86142" lon="-1.74789">
        <ele>118</ele>
        <time>2015-06-07T09:02:39Z</time>
      </trkpt>
      <trkpt lat="47.86139" lon="-1.74789">
        <ele>118</ele>
        <time>2015-06-07T09:02:40Z</time>
      </trkpt>
      <trkpt lat="47.86136" lon="-1.74788">
        <ele>118</ele>
        <time>2015-06-07T09:02:41Z</time>
      </trkpt>
      <trkpt lat="47.86134" lon="-1.74787">
        <ele>118</ele>
        <time>2015-06-07T09:02:42Z</time>
      </trkpt>
      <trkpt lat="47.86131" lon="-1.74788">
        <ele>118</ele>
        <time>2015-06-07T09:02:43Z</time>
      </trkpt>
      <trkpt lat="47.86129" lon="-1.74791">
        <ele>118</ele>
        <time>2015-06-07T09:02:44Z</time>
      </trkpt>
      <trkpt lat="47.86126" lon="-1.74793">
        <ele>118</ele>
        <time>2015-06-07T09:02:45Z</time>
      </trkpt>
      <trkpt lat="47.86124" lon="-1.74795">
        <ele>118</ele>
        <time>2015-06-07T09:02:46Z</time>
      </trkpt>
      <trkpt lat="47.86121" lon="-1.74797">
        <ele>117</ele>
        <time>2015-06-07T09:02:47Z</time>
      </trkpt>
      <trkpt lat="47.86117" lon="-1.74798">
        <ele>117</ele>
        <time>2015-06-07T09:02:48Z</time>
      </trkpt>
      <trkpt lat="47.86112" lon="-1.74799">
        <ele>117</ele>
        <time>2015-06-07T09:02:49Z</time>
      </trkpt>
      <trkpt lat="47.86108" lon="-1.74799">
        <ele>117</ele>
        <time>2015-06-07T09:02:50Z</time>
      </trkpt>
      <trkpt lat="47.86106" lon="-1.748">
        <ele>117</ele>
        <time>2015-06-07T09:02:51Z</time>
      </trkpt>
      <trkpt lat="47.86104" lon="-1.748">
        <ele>117</ele>
        <time>2015-06-07T09:02:52Z</time>
      </trkpt>
      <trkpt lat="47.86101" lon="-1.748">
        <ele>117</ele>
        <time>2015-06-07T09:02:53Z</time>
      </trkpt>
      <trkpt lat="47.861" lon="-1.748">
        <ele>117</ele>
        <time>2015-06-07T09:02:54Z</time>
      </trkpt>
      <trkpt lat="47.86097" lon="-1.74799">
        <ele>117</ele>
        <time>2015-06-07T09:02:55Z</time>
      </trkpt>
      <trkpt lat="47.86094" lon="-1.74799">
        <ele>117</ele>
        <time>2015-06-07T09:02:56Z</time>
      </trkpt>
      <trkpt lat="47.8609" lon="-1.748">
        <ele>117</ele>
        <time>2015-06-07T09:02:57Z</time>
      </trkpt>
      <trkpt lat="47.86086" lon="-1.748">
        <ele>117</ele>
        <time>2015-06-07T09:02:58Z</time>
      </trkpt>
      <trkpt lat="47.86082" lon="-1.748">
        <ele>117</ele>
        <time>2015-06-07T09:02:59Z</time>
      </trkpt>
      <trkpt lat="47.86079" lon="-1.74801">
        <ele>117</ele>
        <time>2015-06-07T09:03:00Z</time>
      </trkpt>
      <trkpt lat="47.86076" lon="-1.74802">
        <ele>116</ele>
        <time>2015-06-07T09:03:01Z</time>
      </trkpt>
      <trkpt lat="47.86071" lon="-1.74803">
        <ele>116</ele>
        <time>2015-06-07T09:03:02Z</time>
      </trkpt>
      <trkpt lat="47.86067" lon="-1.74804">
        <ele>116</ele>
        <time>2015-06-07T09:03:03Z</time>
      </trkpt>
      <trkpt lat="47.86064" lon="-1.74803">
        <ele>116</ele>
        <time>2015-06-07T09:03:04Z</time>
      </trkpt>
      <trkpt lat="47.86061" lon="-1.74802">
        <ele>116</ele>
        <time>2015-06-07T09:03:05Z</time>
      </trkpt>
      <trkpt lat="47.86058" lon="-1.74802">
        <ele>116</ele>
        <time>2015-06-07T09:03:06Z</time>
      </trkpt>
      <trkpt lat="47.86056" lon="-1.74802">
        <ele>116</ele>
        <time>2015-06-07T09:03:07Z</time>
      </trkpt>
      <trkpt lat="47.86055" lon="-1.74803">
        <ele>116</ele>
        <time>2015-06-07T09:03:08Z</time>
      </trkpt>
      <trkpt lat="47.86053" lon="-1.74805">
        <ele>116</ele>
        <time>2015-06-07T09:03:09Z</time>
      </trkpt>
      <trkpt lat="47.86051" lon="-1.74805">
        <ele>117</ele>
        <time>2015-06-07T09:03:10Z</time>
      </trkpt>
      <trkpt lat="47.86048" lon="-1.74806">
        <ele>117</ele>
        <time>2015-06-07T09:03:11Z</time>
      </trkpt>
      <trkpt lat="47.86046" lon="-1.74807">
        <ele>117</ele>
        <time>2015-06-07T09:03:12Z</time>
      </trkpt>
      <trkpt lat="47.86043" lon="-1.74807">
        <ele>117</ele>
        <time>2015-06-07T09:03:13Z</time>
      </trkpt>
      <trkpt lat="47.8604" lon="-1.74807">
        <ele>117</ele>
        <time>2015-06-07T09:03:14Z</time>
      </trkpt>
      <trkpt lat="47.86037" lon="-1.74808">
        <ele>117</ele>
        <time>2015-06-07T09:03:15Z</time>
      </trkpt>
      <trkpt lat="47.86035" lon="-1.7481">
        <ele>117</ele>
        <time>2015-06-07T09:03:16Z</time>
      </trkpt>
      <trkpt lat="47.86033" lon="-1.74811">
        <ele>117</ele>
        <time>2015-06-07T09:03:17Z</time>
      </trkpt>
      <trkpt lat="47.86032" lon="-1.7481">
        <ele>117</ele>
        <time>2015-06-07T09:03:18Z</time>
      </trkpt>
      <trkpt lat="47.8603" lon="-1.7481">
        <ele>117</ele>
        <time>2015-06-07T09:03:19Z</time>
      </trkpt>
      <trkpt lat="47.86027" lon="-1.74812">
        <ele>117</ele>
        <time>2015-06-07T09:03:20Z</time>
      </trkpt>
      <trkpt lat="47.86024" lon="-1.74813">
        <ele>117</ele>
        <time>2015-06-07T09:03:21Z</time>
      </trkpt>
      <trkpt lat="47.86021" lon="-1.74815">
        <ele>117</ele>
        <time>2015-06-07T09:03:22Z</time>
      </trkpt>
      <trkpt lat="47.86017" lon="-1.74815">
        <ele>117</ele>
        <time>2015-06-07T09:03:23Z</time>
      </trkpt>
      <trkpt lat="47.86013" lon="-1.74816">
        <ele>117</ele>
        <time>2015-06-07T09:03:24Z</time>
      </trkpt>
      <trkpt lat="47.86009" lon="-1.74816">
        <ele>117</ele>
        <time>2015-06-07T09:03:25Z</time>
      </trkpt>
      <trkpt lat="47.86006" lon="-1.74816">
        <ele>117</ele>
        <time>2015-06-07T09:03:26Z</time>
      </trkpt>
      <trkpt lat="47.86003" lon="-1.74817">
        <ele>117</ele>
        <time>2015-06-07T09:03:27Z</time>
      </trkpt>
      <trkpt lat="47.86" lon="-1.74819">
        <ele>117</ele>
        <time>2015-06-07T09:03:28Z</time>
      </trkpt>
      <trkpt lat="47.85997" lon="-1.74819">
        <ele>117</ele>
        <time>2015-06-07T09:03:29Z</time>
      </trkpt>
      <trkpt lat="47.85995" lon="-1.7482">
        <ele>118</ele>
        <time>2015-06-07T09:03:30Z</time>
      </trkpt>
      <trkpt lat="47.85991" lon="-1.7482">
        <ele>118</ele>
        <time>2015-06-07T09:03:31Z</time>
      </trkpt>
      <trkpt lat="47.85988" lon="-1.7482">
        <ele>118</ele>
        <time>2015-06-07T09:03:32Z</time>
      </trkpt>
      <trkpt lat="47.85985" lon="-1.74821">
        <ele>118</ele>
        <time>2015-06-07T09:03:33Z</time>
      </trkpt>
      <trkpt lat="47.85983" lon="-1.74823">
        <ele>118</ele>
        <time>2015-06-07T09:03:34Z</time>
      </trkpt>
      <trkpt lat="47.8598" lon="-1.74824">
        <ele>117</ele>
        <time>2015-06-07T09:03:35Z</time>
      </trkpt>
      <trkpt lat="47.85977" lon="-1.74824">
        <ele>117</ele>
        <time>2015-06-07T09:03:36Z</time>
      </trkpt>
      <trkpt lat="47.85974" lon="-1.74825">
        <ele>117</ele>
        <time>2015-06-07T09:03:37Z</time>
      </trkpt>
      <trkpt lat="47.85972" lon="-1.74825">
        <ele>117</ele>
        <time>2015-06-07T09:03:38Z</time>
      </trkpt>
      <trkpt lat="47.85969" lon="-1.74826">
        <ele>117</ele>
        <time>2015-06-07T09:03:39Z</time>
      </trkpt>
      <trkpt lat="47.85966" lon="-1.74824">
        <ele>117</ele>
        <time>2015-06-07T09:03:40Z</time>
      </trkpt>
      <trkpt lat="47.85963" lon="-1.74824">
        <ele>117</ele>
        <time>2015-06-07T09:03:41Z</time>
      </trkpt>
      <trkpt lat="47.85961" lon="-1.74824">
        <ele>117</ele>
        <time>2015-06-07T09:03:42Z</time>
      </trkpt>
      <trkpt lat="47.85958" lon="-1.74826">
        <ele>117</ele>
        <time>2015-06-07T09:03:43Z</time>
      </trkpt>
      <trkpt lat="47.85955" lon="-1.74828">
        <ele>117</ele>
        <time>2015-06-07T09:03:44Z</time>
      </trkpt>
      <trkpt lat="47.85952" lon="-1.74829">
        <ele>117</ele>
        <time>2015-06-07T09:03:45Z</time>
      </trkpt>
      <trkpt lat="47.85949" lon="-1.74829">
        <ele>116</ele>
        <time>2015-06-07T09:03:46Z</time>
      </trkpt>
      <trkpt lat="47.85946" lon="-1.74829">
        <ele>116</ele>
        <time>2015-06-07T09:03:47Z</time>
      </trkpt>
      <trkpt lat="47.85942" lon="-1.7483">
        <ele>116</ele>
        <time>2015-06-07T09:03:48Z</time>
      </trkpt>
      <trkpt lat="47.85939" lon="-1.7483">
        <ele>116</ele>
        <time>2015-06-07T09:03:49Z</time>
      </trkpt>
      <trkpt lat="47.85936" lon="-1.7483">
        <ele>116</ele>
        <time>2015-06-07T09:03:50Z</time>
      </trkpt>
      <trkpt lat="47.85933" lon="-1.74831">
        <ele>116</ele>
        <time>2015-06-07T09:03:51Z</time>
      </trkpt>
      <trkpt lat="47.8593" lon="-1.74832">
        <ele>116</ele>
        <time>2015-06-07T09:03:52Z</time>
      </trkpt>
      <trkpt lat="47.85927" lon="-1.74833">
        <ele>116</ele>
        <time>2015-06-07T09:03:53Z</time>
      </trkpt>
      <trkpt lat="47.85924" lon="-1.74834">
        <ele>115</ele>
        <time>2015-06-07T09:03:54Z</time>
      </trkpt>
      <trkpt lat="47.8592" lon="-1.74835">
        <ele>115</ele>
        <time>2015-06-07T09:03:55Z</time>
      </trkpt>
      <trkpt lat="47.85916" lon="-1.74836">
        <ele>115</ele>
        <time>2015-06-07T09:03:56Z</time>
      </trkpt>
      <trkpt lat="47.85913" lon="-1.74837">
        <ele>115</ele>
        <time>2015-06-07T09:03:57Z</time>
      </trkpt>
      <trkpt lat="47.85908" lon="-1.74837">
        <ele>115</ele>
        <time>2015-06-07T09:03:58Z</time>
      </trkpt>
      <trkpt lat="47.85904" lon="-1.74837">
        <ele>115</ele>
        <time>2015-06-07T09:03:59Z</time>
      </trkpt>
      <trkpt lat="47.859" lon="-1.74837">
        <ele>115</ele>
        <time>2015-06-07T09:04:00Z</time>
      </trkpt>
      <trkpt lat="47.85897" lon="-1.74838">
        <ele>115</ele>
        <time>2015-06-07T09:04:01Z</time>
      </trkpt>
      <trkpt lat="47.85894" lon="-1.74839">
        <ele>115</ele>
        <time>2015-06-07T09:04:02Z</time>
      </trkpt>
      <trkpt lat="47.85892" lon="-1.7484">
        <ele>114</ele>
        <time>2015-06-07T09:04:03Z</time>
      </trkpt>
      <trkpt lat="47.8589" lon="-1.74842">
        <ele>114</ele>
        <time>2015-06-07T09:04:04Z</time>
      </trkpt>
      <trkpt lat="47.85887" lon="-1.74843">
        <ele>114</ele>
        <time>2015-06-07T09:04:05Z</time>
      </trkpt>
      <trkpt lat="47.85884" lon="-1.74843">
        <ele>114</ele>
        <time>2015-06-07T09:04:06Z</time>
      </trkpt>
      <trkpt lat="47.85881" lon="-1.74843">
        <ele>114</ele>
        <time>2015-06-07T09:04:07Z</time>
      </trkpt>
      <trkpt lat="47.85879" lon="-1.74843">
        <ele>114</ele>
        <time>2015-06-07T09:04:08Z</time>
      </trkpt>
      <trkpt lat="47.85875" lon="-1.74844">
        <ele>114</ele>
        <time>2015-06-07T09:04:09Z</time>
      </trkpt>
      <trkpt lat="47.85872" lon="-1.74844">
        <ele>114</ele>
        <time>2015-06-07T09:04:10Z</time>
      </trkpt>
      <trkpt lat="47.85868" lon="-1.74845">
        <ele>114</ele>
        <time>2015-06-07T09:04:11Z</time>
      </trkpt>
      <trkpt lat="47.85864" lon="-1.74847">
        <ele>114</ele>
        <time>2015-06-07T09:04:12Z</time>
      </trkpt>
      <trkpt lat="47.85861" lon="-1.74848">
        <ele>114</ele>
        <time>2015-06-07T09:04:13Z</time>
      </trkpt>
      <trkpt lat="47.85858" lon="-1.74849">
        <ele>114</ele>
        <time>2015-06-07T09:04:14Z</time>
      </trkpt>
      <trkpt lat="47.85857" lon="-1.74848">
        <ele>114</ele>
        <time>2015-06-07T09:04:15Z</time>
      </trkpt>
      <trkpt lat="47.85854" lon="-1.74847">
        <ele>114</ele>
        <time>2015-06-07T09:04:16Z</time>
      </trkpt>
      <trkpt lat="47.85851" lon="-1.74848">
        <ele>114</ele>
        <time>2015-06-07T09:04:17Z</time>
      </trkpt>
      <trkpt lat="47.85848" lon="-1.7485">
        <ele>114</ele>
        <time>2015-06-07T09:04:18Z</time>
      </trkpt>
      <trkpt lat="47.85845" lon="-1.74851">
        <ele>114</ele>
        <time>2015-06-07T09:04:19Z</time>
      </trkpt>
      <trkpt lat="47.85841" lon="-1.74853">
        <ele>114</ele>
        <time>2015-06-07T09:04:20Z</time>
      </trkpt>
      <trkpt lat="47.85838" lon="-1.74853">
        <ele>113</ele>
        <time>2015-06-07T09:04:21Z</time>
      </trkpt>
      <trkpt lat="47.85834" lon="-1.74854">
        <ele>114</ele>
        <time>2015-06-07T09:04:22Z</time>
      </trkpt>
      <trkpt lat="47.85831" lon="-1.74857">
        <ele>114</ele>
        <time>2015-06-07T09:04:23Z</time>
      </trkpt>
      <trkpt lat="47.85828" lon="-1.74858">
        <ele>114</ele>
        <time>2015-06-07T09:04:24Z</time>
      </trkpt>
      <trkpt lat="47.85825" lon="-1.74858">
        <ele>114</ele>
        <time>2015-06-07T09:04:25Z</time>
      </trkpt>
      <trkpt lat="47.85822" lon="-1.74857">
        <ele>114</ele>
        <time>2015-06-07T09:04:26Z</time>
      </trkpt>
      <trkpt lat="47.85818" lon="-1.74858">
        <ele>114</ele>
        <time>2015-06-07T09:04:27Z</time>
      </trkpt>
      <trkpt lat="47.85814" lon="-1.74859">
        <ele>114</ele>
        <time>2015-06-07T09:04:28Z</time>
      </trkpt>
      <trkpt lat="47.85811" lon="-1.7486">
        <ele>114</ele>
        <time>2015-06-07T09:04:29Z</time>
      </trkpt>
      <trkpt lat="47.85806" lon="-1.74861">
        <ele>114</ele>
        <time>2015-06-07T09:04:30Z</time>
      </trkpt>
      <trkpt lat="47.85802" lon="-1.74862">
        <ele>114</ele>
        <time>2015-06-07T09:04:31Z</time>
      </trkpt>
      <trkpt lat="47.85799" lon="-1.74864">
        <ele>114</ele>
        <time>2015-06-07T09:04:32Z</time>
      </trkpt>
      <trkpt lat="47.85796" lon="-1.74867">
        <ele>114</ele>
        <time>2015-06-07T09:04:33Z</time>
      </trkpt>
      <trkpt lat="47.85793" lon="-1.74869">
        <ele>114</ele>
        <time>2015-06-07T09:04:34Z</time>
      </trkpt>
      <trkpt lat="47.85791" lon="-1.7487">
        <ele>114</ele>
        <time>2015-06-07T09:04:35Z</time>
      </trkpt>
      <trkpt lat="47.85788" lon="-1.74869">
        <ele>114</ele>
        <time>2015-06-07T09:04:36Z</time>
      </trkpt>
      <trkpt lat="47.85786" lon="-1.74866">
        <ele>114</ele>
        <time>2015-06-07T09:04:37Z</time>
      </trkpt>
      <trkpt lat="47.85784" lon="-1.74864">
        <ele>114</ele>
        <time>2015-06-07T09:04:38Z</time>
      </trkpt>
      <trkpt lat="47.85782" lon="-1.74864">
        <ele>114</ele>
        <time>2015-06-07T09:04:39Z</time>
      </trkpt>
      <trkpt lat="47.85779" lon="-1.74865">
        <ele>113</ele>
        <time>2015-06-07T09:04:40Z</time>
      </trkpt>
      <trkpt lat="47.85777" lon="-1.74865">
        <ele>113</ele>
        <time>2015-06-07T09:04:41Z</time>
      </trkpt>
      <trkpt lat="47.85775" lon="-1.74866">
        <ele>114</ele>
        <time>2015-06-07T09:04:42Z</time>
      </trkpt>
      <trkpt lat="47.85774" lon="-1.74869">
        <ele>114</ele>
        <time>2015-06-07T09:04:43Z</time>
      </trkpt>
      <trkpt lat="47.85774" lon="-1.74871">
        <ele>114</ele>
        <time>2015-06-07T09:04:44Z</time>
      </trkpt>
      <trkpt lat="47.85772" lon="-1.74873">
        <ele>113</ele>
        <time>2015-06-07T09:04:45Z</time>
      </trkpt>
      <trkpt lat="47.85769" lon="-1.74876">
        <ele>113</ele>
        <time>2015-06-07T09:04:46Z</time>
      </trkpt>
      <trkpt lat="47.85765" lon="-1.74876">
        <ele>113</ele>
        <time>2015-06-07T09:04:47Z</time>
      </trkpt>
      <trkpt lat="47.85763" lon="-1.74875">
        <ele>113</ele>
        <time>2015-06-07T09:04:48Z</time>
      </trkpt>
      <trkpt lat="47.85761" lon="-1.74874">
        <ele>113</ele>
        <time>2015-06-07T09:04:49Z</time>
      </trkpt>
      <trkpt lat="47.85758" lon="-1.74873">
        <ele>113</ele>
        <time>2015-06-07T09:04:50Z</time>
      </trkpt>
      <trkpt lat="47.85756" lon="-1.74872">
        <ele>113</ele>
        <time>2015-06-07T09:04:51Z</time>
      </trkpt>
      <trkpt lat="47.85754" lon="-1.74873">
        <ele>113</ele>
        <time>2015-06-07T09:04:52Z</time>
      </trkpt>
      <trkpt lat="47.85752" lon="-1.74875">
        <ele>113</ele>
        <time>2015-06-07T09:04:53Z</time>
      </trkpt>
      <trkpt lat="47.8575" lon="-1.74876">
        <ele>113</ele>
        <time>2015-06-07T09:04:54Z</time>
      </trkpt>
      <trkpt lat="47.85748" lon="-1.74877">
        <ele>113</ele>
        <time>2015-06-07T09:04:55Z</time>
      </trkpt>
      <trkpt lat="47.85747" lon="-1.74877">
        <ele>112</ele>
        <time>2015-06-07T09:04:56Z</time>
      </trkpt>
      <trkpt lat="47.85745" lon="-1.74877">
        <ele>112</ele>
        <time>2015-06-07T09:04:57Z</time>
      </trkpt>
      <trkpt lat="47.85745" lon="-1.74877">
        <ele>112</ele>
        <time>2015-06-07T09:04:58Z</time>
      </trkpt>
      <trkpt lat="47.85744" lon="-1.74878">
        <ele>112</ele>
        <time>2015-06-07T09:04:59Z</time>
      </trkpt>
      <trkpt lat="47.85742" lon="-1.74879">
        <ele>112</ele>
        <time>2015-06-07T09:05:00Z</time>
      </trkpt>
      <trkpt lat="47.85741" lon="-1.74882">
        <ele>112</ele>
        <time>2015-06-07T09:05:01Z</time>
      </trkpt>
      <trkpt lat="47.85739" lon="-1.74884">
        <ele>112</ele>
        <time>2015-06-07T09:05:02Z</time>
      </trkpt>
      <trkpt lat="47.85736" lon="-1.74887">
        <ele>113</ele>
        <time>2015-06-07T09:05:03Z</time>
      </trkpt>
      <trkpt lat="47.85732" lon="-1.74889">
        <ele>113</ele>
        <time>2015-06-07T09:05:04Z</time>
      </trkpt>
      <trkpt lat="47.85729" lon="-1.7489">
        <ele>112</ele>
        <time>2015-06-07T09:05:05Z</time>
      </trkpt>
      <trkpt lat="47.85725" lon="-1.7489">
        <ele>112</ele>
        <time>2015-06-07T09:05:06Z</time>
      </trkpt>
      <trkpt lat="47.85722" lon="-1.74893">
        <ele>112</ele>
        <time>2015-06-07T09:05:07Z</time>
      </trkpt>
      <trkpt lat="47.85718" lon="-1.74895">
        <ele>112</ele>
        <time>2015-06-07T09:05:08Z</time>
      </trkpt>
      <trkpt lat="47.85715" lon="-1.74897">
        <ele>112</ele>
        <time>2015-06-07T09:05:09Z</time>
      </trkpt>
      <trkpt lat="47.85712" lon="-1.74899">
        <ele>112</ele>
        <time>2015-06-07T09:05:10Z</time>
      </trkpt>
      <trkpt lat="47.85709" lon="-1.74899">
        <ele>112</ele>
        <time>2015-06-07T09:05:11Z</time>
      </trkpt>
      <trkpt lat="47.85706" lon="-1.74897">
        <ele>112</ele>
        <time>2015-06-07T09:05:12Z</time>
      </trkpt>
      <trkpt lat="47.85704" lon="-1.74896">
        <ele>112</ele>
        <time>2015-06-07T09:05:13Z</time>
      </trkpt>
      <trkpt lat="47.85702" lon="-1.74896">
        <ele>112</ele>
        <time>2015-06-07T09:05:14Z</time>
      </trkpt>
      <trkpt lat="47.85699" lon="-1.74893">
        <ele>112</ele>
        <time>2015-06-07T09:05:15Z</time>
      </trkpt>
      <trkpt lat="47.85695" lon="-1.74893">
        <ele>112</ele>
        <time>2015-06-07T09:05:16Z</time>
      </trkpt>
      <trkpt lat="47.85693" lon="-1.74894">
        <ele>112</ele>
        <time>2015-06-07T09:05:17Z</time>
      </trkpt>
      <trkpt lat="47.85693" lon="-1.74898">
        <ele>112</ele>
        <time>2015-06-07T09:05:18Z</time>
      </trkpt>
      <trkpt lat="47.85691" lon="-1.749">
        <ele>112</ele>
        <time>2015-06-07T09:05:19Z</time>
      </trkpt>
      <trkpt lat="47.85689" lon="-1.74901">
        <ele>112</ele>
        <time>2015-06-07T09:05:20Z</time>
      </trkpt>
      <trkpt lat="47.85687" lon="-1.749">
        <ele>113</ele>
        <time>2015-06-07T09:05:21Z</time>
      </trkpt>
      <trkpt lat="47.85685" lon="-1.74899">
        <ele>113</ele>
        <time>2015-06-07T09:05:22Z</time>
      </trkpt>
      <trkpt lat="47.85683" lon="-1.74897">
        <ele>113</ele>
        <time>2015-06-07T09:05:23Z</time>
      </trkpt>
      <trkpt lat="47.85682" lon="-1.74894">
        <ele>113</ele>
        <time>2015-06-07T09:05:24Z</time>
      </trkpt>
      <trkpt lat="47.8568" lon="-1.74892">
        <ele>113</ele>
        <time>2015-06-07T09:05:25Z</time>
      </trkpt>
      <trkpt lat="47.85678" lon="-1.7489">
        <ele>113</ele>
        <time>2015-06-07T09:05:26Z</time>
      </trkpt>
      <trkpt lat="47.85676" lon="-1.74889">
        <ele>113</ele>
        <time>2015-06-07T09:05:27Z</time>
      </trkpt>
      <trkpt lat="47.85673" lon="-1.7489">
        <ele>113</ele>
        <time>2015-06-07T09:05:28Z</time>
      </trkpt>
      <trkpt lat="47.85671" lon="-1.74893">
        <ele>113</ele>
        <time>2015-06-07T09:05:29Z</time>
      </trkpt>
      <trkpt lat="47.8567" lon="-1.74896">
        <ele>113</ele>
        <time>2015-06-07T09:05:30Z</time>
      </trkpt>
      <trkpt lat="47.8567" lon="-1.74901">
        <ele>113</ele>
        <time>2015-06-07T09:05:31Z</time>
      </trkpt>
      <trkpt lat="47.8567" lon="-1.74905">
        <ele>113</ele>
        <time>2015-06-07T09:05:32Z</time>
      </trkpt>
      <trkpt lat="47.85669" lon="-1.7491">
        <ele>113</ele>
        <time>2015-06-07T09:05:33Z</time>
      </trkpt>
      <trkpt lat="47.85668" lon="-1.74916">
        <ele>113</ele>
        <time>2015-06-07T09:05:34Z</time>
      </trkpt>
      <trkpt lat="47.85667" lon="-1.7492">
        <ele>113</ele>
        <time>2015-06-07T09:05:35Z</time>
      </trkpt>
      <trkpt lat="47.85666" lon="-1.74924">
        <ele>113</ele>
        <time>2015-06-07T09:05:36Z</time>
      </trkpt>
      <trkpt lat="47.85665" lon="-1.74929">
        <ele>113</ele>
        <time>2015-06-07T09:05:37Z</time>
      </trkpt>
      <trkpt lat="47.85664" lon="-1.74933">
        <ele>114</ele>
        <time>2015-06-07T09:05:38Z</time>
      </trkpt>
      <trkpt lat="47.85664" lon="-1.74938">
        <ele>114</ele>
        <time>2015-06-07T09:05:39Z</time>
      </trkpt>
      <trkpt lat="47.85663" lon="-1.74944">
        <ele>114</ele>
        <time>2015-06-07T09:05:40Z</time>
      </trkpt>
      <trkpt lat="47.85663" lon="-1.74949">
        <ele>114</ele>
        <time>2015-06-07T09:05:41Z</time>
      </trkpt>
      <trkpt lat="47.85661" lon="-1.74954">
        <ele>114</ele>
        <time>2015-06-07T09:05:42Z</time>
      </trkpt>
      <trkpt lat="47.8566" lon="-1.74959">
        <ele>114</ele>
        <time>2015-06-07T09:05:43Z</time>
      </trkpt>
      <trkpt lat="47.85659" lon="-1.74964">
        <ele>114</ele>
        <time>2015-06-07T09:05:44Z</time>
      </trkpt>
      <trkpt lat="47.85659" lon="-1.74969">
        <ele>114</ele>
        <time>2015-06-07T09:05:45Z</time>
      </trkpt>
      <trkpt lat="47.85657" lon="-1.74974">
        <ele>114</ele>
        <time>2015-06-07T09:05:46Z</time>
      </trkpt>
      <trkpt lat="47.85657" lon="-1.7498">
        <ele>115</ele>
        <time>2015-06-07T09:05:47Z</time>
      </trkpt>
      <trkpt lat="47.85656" lon="-1.74987">
        <ele>115</ele>
        <time>2015-06-07T09:05:48Z</time>
      </trkpt>
      <trkpt lat="47.85655" lon="-1.74994">
        <ele>115</ele>
        <time>2015-06-07T09:05:49Z</time>
      </trkpt>
      <trkpt lat="47.85655" lon="-1.75">
        <ele>115</ele>
        <time>2015-06-07T09:05:50Z</time>
      </trkpt>
      <trkpt lat="47.85654" lon="-1.75006">
        <ele>115</ele>
        <time>2015-06-07T09:05:51Z</time>
      </trkpt>
      <trkpt lat="47.85653" lon="-1.75011">
        <ele>115</ele>
        <time>2015-06-07T09:05:52Z</time>
      </trkpt>
      <trkpt lat="47.85653" lon="-1.75017">
        <ele>115</ele>
        <time>2015-06-07T09:05:53Z</time>
      </trkpt>
      <trkpt lat="47.85652" lon="-1.75022">
        <ele>115</ele>
        <time>2015-06-07T09:05:54Z</time>
      </trkpt>
      <trkpt lat="47.85651" lon="-1.75028">
        <ele>115</ele>
        <time>2015-06-07T09:05:55Z</time>
      </trkpt>
      <trkpt lat="47.8565" lon="-1.75034">
        <ele>116</ele>
        <time>2015-06-07T09:05:56Z</time>
      </trkpt>
      <trkpt lat="47.8565" lon="-1.7504">
        <ele>116</ele>
        <time>2015-06-07T09:05:57Z</time>
      </trkpt>
      <trkpt lat="47.85649" lon="-1.75047">
        <ele>116</ele>
        <time>2015-06-07T09:05:58Z</time>
      </trkpt>
      <trkpt lat="47.85649" lon="-1.75054">
        <ele>116</ele>
        <time>2015-06-07T09:05:59Z</time>
      </trkpt>
      <trkpt lat="47.85648" lon="-1.75061">
        <ele>116</ele>
        <time>2015-06-07T09:06:00Z</time>
      </trkpt>
      <trkpt lat="47.85648" lon="-1.75068">
        <ele>116</ele>
        <time>2015-06-07T09:06:01Z</time>
      </trkpt>
      <trkpt lat="47.85648" lon="-1.75075">
        <ele>116</ele>
        <time>2015-06-07T09:06:02Z</time>
      </trkpt>
      <trkpt lat="47.85647" lon="-1.75082">
        <ele>116</ele>
        <time>2015-06-07T09:06:03Z</time>
      </trkpt>
      <trkpt lat="47.85646" lon="-1.75088">
        <ele>116</ele>
        <time>2015-06-07T09:06:04Z</time>
      </trkpt>
      <trkpt lat="47.85645" lon="-1.75094">
        <ele>116</ele>
        <time>2015-06-07T09:06:05Z</time>
      </trkpt>
      <trkpt lat="47.85644" lon="-1.75101">
        <ele>116</ele>
        <time>2015-06-07T09:06:06Z</time>
      </trkpt>
      <trkpt lat="47.85644" lon="-1.75108">
        <ele>116</ele>
        <time>2015-06-07T09:06:07Z</time>
      </trkpt>
      <trkpt lat="47.85643" lon="-1.75115">
        <ele>116</ele>
        <time>2015-06-07T09:06:08Z</time>
      </trkpt>
      <trkpt lat="47.85643" lon="-1.75122">
        <ele>116</ele>
        <time>2015-06-07T09:06:09Z</time>
      </trkpt>
      <trkpt lat="47.85642" lon="-1.75129">
        <ele>117</ele>
        <time>2015-06-07T09:06:10Z</time>
      </trkpt>
      <trkpt lat="47.85641" lon="-1.75136">
        <ele>117</ele>
        <time>2015-06-07T09:06:11Z</time>
      </trkpt>
      <trkpt lat="47.8564" lon="-1.75143">
        <ele>117</ele>
        <time>2015-06-07T09:06:12Z</time>
      </trkpt>
      <trkpt lat="47.8564" lon="-1.75152">
        <ele>117</ele>
        <time>2015-06-07T09:06:13Z</time>
      </trkpt>
      <trkpt lat="47.8564" lon="-1.75159">
        <ele>117</ele>
        <time>2015-06-07T09:06:14Z</time>
      </trkpt>
      <trkpt lat="47.8564" lon="-1.75167">
        <ele>117</ele>
        <time>2015-06-07T09:06:15Z</time>
      </trkpt>
      <trkpt lat="47.85639" lon="-1.75174">
        <ele>117</ele>
        <time>2015-06-07T09:06:16Z</time>
      </trkpt>
      <trkpt lat="47.85639" lon="-1.75181">
        <ele>117</ele>
        <time>2015-06-07T09:06:17Z</time>
      </trkpt>
      <trkpt lat="47.85639" lon="-1.75188">
        <ele>117</ele>
        <time>2015-06-07T09:06:18Z</time>
      </trkpt>
      <trkpt lat="47.85638" lon="-1.75196">
        <ele>117</ele>
        <time>2015-06-07T09:06:19Z</time>
      </trkpt>
      <trkpt lat="47.85638" lon="-1.75204">
        <ele>117</ele>
        <time>2015-06-07T09:06:20Z</time>
      </trkpt>
      <trkpt lat="47.85638" lon="-1.75212">
        <ele>117</ele>
        <time>2015-06-07T09:06:21Z</time>
      </trkpt>
      <trkpt lat="47.85637" lon="-1.7522">
        <ele>117</ele>
        <time>2015-06-07T09:06:22Z</time>
      </trkpt>
      <trkpt lat="47.85637" lon="-1.75228">
        <ele>117</ele>
        <time>2015-06-07T09:06:23Z</time>
      </trkpt>
      <trkpt lat="47.85637" lon="-1.75236">
        <ele>117</ele>
        <time>2015-06-07T09:06:24Z</time>
      </trkpt>
      <trkpt lat="47.85636" lon="-1.75243">
        <ele>117</ele>
        <time>2015-06-07T09:06:25Z</time>
      </trkpt>
      <trkpt lat="47.85636" lon="-1.75251">
        <ele>117</ele>
        <time>2015-06-07T09:06:26Z</time>
      </trkpt>
      <trkpt lat="47.85636" lon="-1.75259">
        <ele>117</ele>
        <time>2015-06-07T09:06:27Z</time>
      </trkpt>
      <trkpt lat="47.85635" lon="-1.75267">
        <ele>117</ele>
        <time>2015-06-07T09:06:28Z</time>
      </trkpt>
      <trkpt lat="47.85635" lon="-1.75275">
        <ele>117</ele>
        <time>2015-06-07T09:06:29Z</time>
      </trkpt>
      <trkpt lat="47.85634" lon="-1.75283">
        <ele>117</ele>
        <time>2015-06-07T09:06:30Z</time>
      </trkpt>
      <trkpt lat="47.85633" lon="-1.7529">
        <ele>117</ele>
        <time>2015-06-07T09:06:31Z</time>
      </trkpt>
      <trkpt lat="47.85633" lon="-1.75298">
        <ele>117</ele>
        <time>2015-06-07T09:06:32Z</time>
      </trkpt>
      <trkpt lat="47.85632" lon="-1.75305">
        <ele>117</ele>
        <time>2015-06-07T09:06:33Z</time>
      </trkpt>
      <trkpt lat="47.85631" lon="-1.75313">
        <ele>117</ele>
        <time>2015-06-07T09:06:34Z</time>
      </trkpt>
      <trkpt lat="47.85631" lon="-1.7532">
        <ele>117</ele>
        <time>2015-06-07T09:06:35Z</time>
      </trkpt>
      <trkpt lat="47.85631" lon="-1.75328">
        <ele>117</ele>
        <time>2015-06-07T09:06:36Z</time>
      </trkpt>
      <trkpt lat="47.8563" lon="-1.75335">
        <ele>117</ele>
        <time>2015-06-07T09:06:37Z</time>
      </trkpt>
      <trkpt lat="47.85629" lon="-1.75342">
        <ele>117</ele>
        <time>2015-06-07T09:06:38Z</time>
      </trkpt>
      <trkpt lat="47.85628" lon="-1.7535">
        <ele>117</ele>
        <time>2015-06-07T09:06:39Z</time>
      </trkpt>
      <trkpt lat="47.85628" lon="-1.75358">
        <ele>117</ele>
        <time>2015-06-07T09:06:40Z</time>
      </trkpt>
      <trkpt lat="47.85627" lon="-1.75366">
        <ele>117</ele>
        <time>2015-06-07T09:06:41Z</time>
      </trkpt>
      <trkpt lat="47.85626" lon="-1.75373">
        <ele>117</ele>
        <time>2015-06-07T09:06:42Z</time>
      </trkpt>
      <trkpt lat="47.85625" lon="-1.75381">
        <ele>117</ele>
        <time>2015-06-07T09:06:43Z</time>
      </trkpt>
      <trkpt lat="47.85625" lon="-1.75389">
        <ele>117</ele>
        <time>2015-06-07T09:06:44Z</time>
      </trkpt>
      <trkpt lat="47.85624" lon="-1.75397">
        <ele>117</ele>
        <time>2015-06-07T09:06:45Z</time>
      </trkpt>
      <trkpt lat="47.85624" lon="-1.75405">
        <ele>117</ele>
        <time>2015-06-07T09:06:46Z</time>
      </trkpt>
      <trkpt lat="47.85623" lon="-1.75413">
        <ele>117</ele>
        <time>2015-06-07T09:06:47Z</time>
      </trkpt>
      <trkpt lat="47.85623" lon="-1.75421">
        <ele>117</ele>
        <time>2015-06-07T09:06:48Z</time>
      </trkpt>
      <trkpt lat="47.85623" lon="-1.75428">
        <ele>117</ele>
        <time>2015-06-07T09:06:49Z</time>
      </trkpt>
      <trkpt lat="47.85622" lon="-1.75434">
        <ele>117</ele>
        <time>2015-06-07T09:06:50Z</time>
      </trkpt>
      <trkpt lat="47.85621" lon="-1.75442">
        <ele>117</ele>
        <time>2015-06-07T09:06:51Z</time>
      </trkpt>
      <trkpt lat="47.85621" lon="-1.7545">
        <ele>118</ele>
        <time>2015-06-07T09:06:52Z</time>
      </trkpt>
      <trkpt lat="47.85621" lon="-1.75458">
        <ele>118</ele>
        <time>2015-06-07T09:06:53Z</time>
      </trkpt>
      <trkpt lat="47.8562" lon="-1.75466">
        <ele>117</ele>
        <time>2015-06-07T09:06:54Z</time>
      </trkpt>
      <trkpt lat="47.8562" lon="-1.75474">
        <ele>117</ele>
        <time>2015-06-07T09:06:55Z</time>
      </trkpt>
      <trkpt lat="47.85619" lon="-1.75481">
        <ele>117</ele>
        <time>2015-06-07T09:06:56Z</time>
      </trkpt>
      <trkpt lat="47.85618" lon="-1.75489">
        <ele>117</ele>
        <time>2015-06-07T09:06:57Z</time>
      </trkpt>
      <trkpt lat="47.85617" lon="-1.75496">
        <ele>117</ele>
        <time>2015-06-07T09:06:58Z</time>
      </trkpt>
      <trkpt lat="47.85616" lon="-1.75504">
        <ele>117</ele>
        <time>2015-06-07T09:06:59Z</time>
      </trkpt>
      <trkpt lat="47.85615" lon="-1.75512">
        <ele>117</ele>
        <time>2015-06-07T09:07:00Z</time>
      </trkpt>
      <trkpt lat="47.85614" lon="-1.75519">
        <ele>117</ele>
        <time>2015-06-07T09:07:01Z</time>
      </trkpt>
      <trkpt lat="47.85614" lon="-1.75526">
        <ele>117</ele>
        <time>2015-06-07T09:07:02Z</time>
      </trkpt>
      <trkpt lat="47.85613" lon="-1.75534">
        <ele>117</ele>
        <time>2015-06-07T09:07:03Z</time>
      </trkpt>
      <trkpt lat="47.85613" lon="-1.75542">
        <ele>116</ele>
        <time>2015-06-07T09:07:04Z</time>
      </trkpt>
      <trkpt lat="47.85613" lon="-1.7555">
        <ele>116</ele>
        <time>2015-06-07T09:07:05Z</time>
      </trkpt>
      <trkpt lat="47.85612" lon="-1.75558">
        <ele>116</ele>
        <time>2015-06-07T09:07:06Z</time>
      </trkpt>
      <trkpt lat="47.85611" lon="-1.75565">
        <ele>116</ele>
        <time>2015-06-07T09:07:07Z</time>
      </trkpt>
      <trkpt lat="47.85611" lon="-1.75572">
        <ele>116</ele>
        <time>2015-06-07T09:07:08Z</time>
      </trkpt>
      <trkpt lat="47.8561" lon="-1.75579">
        <ele>116</ele>
        <time>2015-06-07T09:07:09Z</time>
      </trkpt>
      <trkpt lat="47.8561" lon="-1.75587">
        <ele>116</ele>
        <time>2015-06-07T09:07:10Z</time>
      </trkpt>
      <trkpt lat="47.85609" lon="-1.75595">
        <ele>116</ele>
        <time>2015-06-07T09:07:11Z</time>
      </trkpt>
      <trkpt lat="47.85608" lon="-1.75603">
        <ele>116</ele>
        <time>2015-06-07T09:07:12Z</time>
      </trkpt>
      <trkpt lat="47.85608" lon="-1.75611">
        <ele>116</ele>
        <time>2015-06-07T09:07:13Z</time>
      </trkpt>
      <trkpt lat="47.85608" lon="-1.75618">
        <ele>116</ele>
        <time>2015-06-07T09:07:14Z</time>
      </trkpt>
      <trkpt lat="47.85607" lon="-1.75625">
        <ele>116</ele>
        <time>2015-06-07T09:07:15Z</time>
      </trkpt>
      <trkpt lat="47.85606" lon="-1.75631">
        <ele>116</ele>
        <time>2015-06-07T09:07:16Z</time>
      </trkpt>
      <trkpt lat="47.85605" lon="-1.75638">
        <ele>116</ele>
        <time>2015-06-07T09:07:17Z</time>
      </trkpt>
      <trkpt lat="47.85604" lon="-1.75643">
        <ele>116</ele>
        <time>2015-06-07T09:07:18Z</time>
      </trkpt>
      <trkpt lat="47.85603" lon="-1.75648">
        <ele>116</ele>
        <time>2015-06-07T09:07:19Z</time>
      </trkpt>
      <trkpt lat="47.85602" lon="-1.75653">
        <ele>116</ele>
        <time>2015-06-07T09:07:20Z</time>
      </trkpt>
      <trkpt lat="47.85601" lon="-1.75657">
        <ele>116</ele>
        <time>2015-06-07T09:07:21Z</time>
      </trkpt>
      <trkpt lat="47.856" lon="-1.7566">
        <ele>116</ele>
        <time>2015-06-07T09:07:22Z</time>
      </trkpt>
      <trkpt lat="47.85598" lon="-1.75662">
        <ele>116</ele>
        <time>2015-06-07T09:07:23Z</time>
      </trkpt>
      <trkpt lat="47.85598" lon="-1.75663">
        <ele>116</ele>
        <time>2015-06-07T09:07:24Z</time>
      </trkpt>
      <trkpt lat="47.85597" lon="-1.75663">
        <ele>116</ele>
        <time>2015-06-07T09:07:25Z</time>
      </trkpt>
      <trkpt lat="47.85597" lon="-1.75664">
        <ele>116</ele>
        <time>2015-06-07T09:07:26Z</time>
      </trkpt>
      <trkpt lat="47.85597" lon="-1.75664">
        <ele>117</ele>
        <time>2015-06-07T09:07:27Z</time>
      </trkpt>
      <trkpt lat="47.85597" lon="-1.75664">
        <ele>117</ele>
        <time>2015-06-07T09:07:28Z</time>
      </trkpt>
      <trkpt lat="47.85597" lon="-1.75665">
        <ele>117</ele>
        <time>2015-06-07T09:07:29Z</time>
      </trkpt>
      <trkpt lat="47.85597" lon="-1.75665">
        <ele>117</ele>
        <time>2015-06-07T09:07:30Z</time>
      </trkpt>
      <trkpt lat="47.85597" lon="-1.75665">
        <ele>117</ele>
        <time>2015-06-07T09:07:31Z</time>
      </trkpt>
      <trkpt lat="47.85597" lon="-1.75665">
        <ele>117</ele>
        <time>2015-06-07T09:07:32Z</time>
      </trkpt>
      <trkpt lat="47.85602" lon="-1.75669">
        <ele>117</ele>
        <time>2015-06-07T09:07:33Z</time>
      </trkpt>
      <trkpt lat="47.85602" lon="-1.75669">
        <ele>117</ele>
        <time>2015-06-07T09:07:34Z</time>
      </trkpt>
      <trkpt lat="47.85602" lon="-1.75669">
        <ele>117</ele>
        <time>2015-06-07T09:07:35Z</time>
      </trkpt>
      <trkpt lat="47.85602" lon="-1.75669">
        <ele>117</ele>
        <time>2015-06-07T09:07:36Z</time>
      </trkpt>
      <trkpt lat="47.85603" lon="-1.75669">
        <ele>117</ele>
        <time>2015-06-07T09:07:37Z</time>
      </trkpt>
      <trkpt lat="47.85603" lon="-1.75669">
        <ele>117</ele>
        <time>2015-06-07T09:07:38Z</time>
      </trkpt>
      <trkpt lat="47.85603" lon="-1.75669">
        <ele>117</ele>
        <time>2015-06-07T09:07:39Z</time>
      </trkpt>
      <trkpt lat="47.85604" lon="-1.75669">
        <ele>117</ele>
        <time>2015-06-07T09:07:40Z</time>
      </trkpt>
      <trkpt lat="47.85604" lon="-1.75669">
        <ele>117</ele>
        <time>2015-06-07T09:07:41Z</time>
      </trkpt>
      <trkpt lat="47.85605" lon="-1.75669">
        <ele>117</ele>
        <time>2015-06-07T09:07:42Z</time>
      </trkpt>
      <trkpt lat="47.85605" lon="-1.75669">
        <ele>117</ele>
        <time>2015-06-07T09:07:43Z</time>
      </trkpt>
      <trkpt lat="47.85605" lon="-1.75669">
        <ele>117</ele>
        <time>2015-06-07T09:07:44Z</time>
      </trkpt>
      <trkpt lat="47.85605" lon="-1.75668">
        <ele>117</ele>
        <time>2015-06-07T09:07:45Z</time>
      </trkpt>
      <trkpt lat="47.85605" lon="-1.75668">
        <ele>117</ele>
        <time>2015-06-07T09:07:46Z</time>
      </trkpt>
      <trkpt lat="47.85605" lon="-1.75668">
        <ele>117</ele>
        <time>2015-06-07T09:07:47Z</time>
      </trkpt>
      <trkpt lat="47.85605" lon="-1.75668">
        <ele>117</ele>
        <time>2015-06-07T09:07:48Z</time>
      </trkpt>
      <trkpt lat="47.85605" lon="-1.75668">
        <ele>117</ele>
        <time>2015-06-07T09:07:49Z</time>
      </trkpt>
      <trkpt lat="47.85605" lon="-1.75668">
        <ele>117</ele>
        <time>2015-06-07T09:07:50Z</time>
      </trkpt>
      <trkpt lat="47.85605" lon="-1.75668">
        <ele>117</ele>
        <time>2015-06-07T09:07:51Z</time>
      </trkpt>
      <trkpt lat="47.85605" lon="-1.75668">
        <ele>117</ele>
        <time>2015-06-07T09:07:52Z</time>
      </trkpt>
      <trkpt lat="47.85605" lon="-1.75668">
        <ele>117</ele>
        <time>2015-06-07T09:07:53Z</time>
      </trkpt>
      <trkpt lat="47.85605" lon="-1.75668">
        <ele>117</ele>
        <time>2015-06-07T09:07:54Z</time>
      </trkpt>
      <trkpt lat="47.85605" lon="-1.75668">
        <ele>117</ele>
        <time>2015-06-07T09:07:55Z</time>
      </trkpt>
      <trkpt lat="47.85605" lon="-1.75668">
        <ele>117</ele>
        <time>2015-06-07T09:07:56Z</time>
      </trkpt>
      <trkpt lat="47.85605" lon="-1.75668">
        <ele>117</ele>
        <time>2015-06-07T09:07:57Z</time>
      </trkpt>
      <trkpt lat="47.85605" lon="-1.75668">
        <ele>117</ele>
        <time>2015-06-07T09:07:58Z</time>
      </trkpt>
      <trkpt lat="47.85604" lon="-1.75668">
        <ele>117</ele>
        <time>2015-06-07T09:07:59Z</time>
      </trkpt>
      <trkpt lat="47.85604" lon="-1.75668">
        <ele>117</ele>
        <time>2015-06-07T09:08:00Z</time>
      </trkpt>
      <trkpt lat="47.85604" lon="-1.75668">
        <ele>117</ele>
        <time>2015-06-07T09:08:01Z</time>
      </trkpt>
      <trkpt lat="47.85604" lon="-1.75668">
        <ele>117</ele>
        <time>2015-06-07T09:08:02Z</time>
      </trkpt>
      <trkpt lat="47.85604" lon="-1.75668">
        <ele>117</ele>
        <time>2015-06-07T09:08:03Z</time>
      </trkpt>
      <trkpt lat="47.85604" lon="-1.75668">
        <ele>117</ele>
        <time>2015-06-07T09:08:04Z</time>
      </trkpt>
      <trkpt lat="47.85604" lon="-1.75668">
        <ele>117</ele>
        <time>2015-06-07T09:08:05Z</time>
      </trkpt>
      <trkpt lat="47.85604" lon="-1.75668">
        <ele>117</ele>
        <time>2015-06-07T09:08:06Z</time>
      </trkpt>
      <trkpt lat="47.85604" lon="-1.75668">
        <ele>117</ele>
        <time>2015-06-07T09:08:07Z</time>
      </trkpt>
      <trkpt lat="47.85604" lon="-1.75668">
        <ele>117</ele>
        <time>2015-06-07T09:08:08Z</time>
      </trkpt>
      <trkpt lat="47.85604" lon="-1.75668">
        <ele>117</ele>
        <time>2015-06-07T09:08:09Z</time>
      </trkpt>
      <trkpt lat="47.85596" lon="-1.75668">
        <ele>117</ele>
        <time>2015-06-07T09:08:10Z</time>
      </trkpt>
      <trkpt lat="47.85593" lon="-1.75668">
        <ele>117</ele>
        <time>2015-06-07T09:08:11Z</time>
      </trkpt>
      <trkpt lat="47.85589" lon="-1.7567">
        <ele>117</ele>
        <time>2015-06-07T09:08:12Z</time>
      </trkpt>
      <trkpt lat="47.85585" lon="-1.75671">
        <ele>117</ele>
        <time>2015-06-07T09:08:13Z</time>
      </trkpt>
      <trkpt lat="47.85581" lon="-1.75672">
        <ele>117</ele>
        <time>2015-06-07T09:08:14Z</time>
      </trkpt>
      <trkpt lat="47.85577" lon="-1.75673">
        <ele>117</ele>
        <time>2015-06-07T09:08:15Z</time>
      </trkpt>
      <trkpt lat="47.85574" lon="-1.75673">
        <ele>117</ele>
        <time>2015-06-07T09:08:16Z</time>
      </trkpt>
      <trkpt lat="47.8557" lon="-1.75674">
        <ele>117</ele>
        <time>2015-06-07T09:08:17Z</time>
      </trkpt>
      <trkpt lat="47.85566" lon="-1.75674">
        <ele>117</ele>
        <time>2015-06-07T09:08:18Z</time>
      </trkpt>
      <trkpt lat="47.85561" lon="-1.75674">
        <ele>117</ele>
        <time>2015-06-07T09:08:19Z</time>
      </trkpt>
      <trkpt lat="47.85557" lon="-1.75674">
        <ele>117</ele>
        <time>2015-06-07T09:08:20Z</time>
      </trkpt>
      <trkpt lat="47.85553" lon="-1.75675">
        <ele>117</ele>
        <time>2015-06-07T09:08:21Z</time>
      </trkpt>
      <trkpt lat="47.85549" lon="-1.75675">
        <ele>117</ele>
        <time>2015-06-07T09:08:22Z</time>
      </trkpt>
      <trkpt lat="47.85544" lon="-1.75676">
        <ele>117</ele>
        <time>2015-06-07T09:08:23Z</time>
      </trkpt>
      <trkpt lat="47.85539" lon="-1.75677">
        <ele>117</ele>
        <time>2015-06-07T09:08:24Z</time>
      </trkpt>
      <trkpt lat="47.85535" lon="-1.75677">
        <ele>117</ele>
        <time>2015-06-07T09:08:25Z</time>
      </trkpt>
      <trkpt lat="47.85531" lon="-1.75678">
        <ele>116</ele>
        <time>2015-06-07T09:08:26Z</time>
      </trkpt>
      <trkpt lat="47.85526" lon="-1.75679">
        <ele>116</ele>
        <time>2015-06-07T09:08:27Z</time>
      </trkpt>
      <trkpt lat="47.85521" lon="-1.7568">
        <ele>116</ele>
        <time>2015-06-07T09:08:28Z</time>
      </trkpt>
      <trkpt lat="47.85516" lon="-1.75681">
        <ele>116</ele>
        <time>2015-06-07T09:08:29Z</time>
      </trkpt>
      <trkpt lat="47.85511" lon="-1.75683">
        <ele>116</ele>
        <time>2015-06-07T09:08:30Z</time>
      </trkpt>
      <trkpt lat="47.85506" lon="-1.75684">
        <ele>116</ele>
        <time>2015-06-07T09:08:31Z</time>
      </trkpt>
      <trkpt lat="47.855" lon="-1.75685">
        <ele>116</ele>
        <time>2015-06-07T09:08:32Z</time>
      </trkpt>
      <trkpt lat="47.85495" lon="-1.75687">
        <ele>116</ele>
        <time>2015-06-07T09:08:33Z</time>
      </trkpt>
      <trkpt lat="47.85489" lon="-1.75687">
        <ele>116</ele>
        <time>2015-06-07T09:08:34Z</time>
      </trkpt>
      <trkpt lat="47.85485" lon="-1.75688">
        <ele>116</ele>
        <time>2015-06-07T09:08:35Z</time>
      </trkpt>
      <trkpt lat="47.85479" lon="-1.75689">
        <ele>116</ele>
        <time>2015-06-07T09:08:36Z</time>
      </trkpt>
      <trkpt lat="47.85473" lon="-1.7569">
        <ele>116</ele>
        <time>2015-06-07T09:08:37Z</time>
      </trkpt>
      <trkpt lat="47.85468" lon="-1.75691">
        <ele>116</ele>
        <time>2015-06-07T09:08:38Z</time>
      </trkpt>
      <trkpt lat="47.85462" lon="-1.75692">
        <ele>115</ele>
        <time>2015-06-07T09:08:39Z</time>
      </trkpt>
      <trkpt lat="47.85457" lon="-1.75693">
        <ele>115</ele>
        <time>2015-06-07T09:08:40Z</time>
      </trkpt>
      <trkpt lat="47.85451" lon="-1.75694">
        <ele>115</ele>
        <time>2015-06-07T09:08:41Z</time>
      </trkpt>
      <trkpt lat="47.85445" lon="-1.75695">
        <ele>115</ele>
        <time>2015-06-07T09:08:42Z</time>
      </trkpt>
      <trkpt lat="47.8544" lon="-1.75697">
        <ele>115</ele>
        <time>2015-06-07T09:08:43Z</time>
      </trkpt>
      <trkpt lat="47.85434" lon="-1.75698">
        <ele>115</ele>
        <time>2015-06-07T09:08:44Z</time>
      </trkpt>
      <trkpt lat="47.85428" lon="-1.75699">
        <ele>115</ele>
        <time>2015-06-07T09:08:45Z</time>
      </trkpt>
      <trkpt lat="47.85422" lon="-1.757">
        <ele>115</ele>
        <time>2015-06-07T09:08:46Z</time>
      </trkpt>
      <trkpt lat="47.85416" lon="-1.75701">
        <ele>115</ele>
        <time>2015-06-07T09:08:47Z</time>
      </trkpt>
      <trkpt lat="47.8541" lon="-1.75702">
        <ele>115</ele>
        <time>2015-06-07T09:08:48Z</time>
      </trkpt>
      <trkpt lat="47.85404" lon="-1.75704">
        <ele>115</ele>
        <time>2015-06-07T09:08:49Z</time>
      </trkpt>
      <trkpt lat="47.85397" lon="-1.75706">
        <ele>115</ele>
        <time>2015-06-07T09:08:50Z</time>
      </trkpt>
      <trkpt lat="47.85391" lon="-1.75709">
        <ele>115</ele>
        <time>2015-06-07T09:08:51Z</time>
      </trkpt>
      <trkpt lat="47.85385" lon="-1.75712">
        <ele>114</ele>
        <time>2015-06-07T09:08:52Z</time>
      </trkpt>
      <trkpt lat="47.8538" lon="-1.75717">
        <ele>114</ele>
        <time>2015-06-07T09:08:53Z</time>
      </trkpt>
      <trkpt lat="47.85376" lon="-1.75724">
        <ele>114</ele>
        <time>2015-06-07T09:08:54Z</time>
      </trkpt>
      <trkpt lat="47.85373" lon="-1.75732">
        <ele>114</ele>
        <time>2015-06-07T09:08:55Z</time>
      </trkpt>
      <trkpt lat="47.85371" lon="-1.7574">
        <ele>113</ele>
        <time>2015-06-07T09:08:56Z</time>
      </trkpt>
      <trkpt lat="47.85369" lon="-1.75748">
        <ele>113</ele>
        <time>2015-06-07T09:08:57Z</time>
      </trkpt>
      <trkpt lat="47.85368" lon="-1.75755">
        <ele>113</ele>
        <time>2015-06-07T09:08:58Z</time>
      </trkpt>
      <trkpt lat="47.85367" lon="-1.75763">
        <ele>113</ele>
        <time>2015-06-07T09:08:59Z</time>
      </trkpt>
      <trkpt lat="47.85366" lon="-1.7577">
        <ele>113</ele>
        <time>2015-06-07T09:09:00Z</time>
      </trkpt>
      <trkpt lat="47.85365" lon="-1.75778">
        <ele>113</ele>
        <time>2015-06-07T09:09:01Z</time>
      </trkpt>
      <trkpt lat="47.85364" lon="-1.75785">
        <ele>113</ele>
        <time>2015-06-07T09:09:02Z</time>
      </trkpt>
      <trkpt lat="47.85363" lon="-1.75793">
        <ele>113</ele>
        <time>2015-06-07T09:09:03Z</time>
      </trkpt>
      <trkpt lat="47.85362" lon="-1.75802">
        <ele>113</ele>
        <time>2015-06-07T09:09:04Z</time>
      </trkpt>
      <trkpt lat="47.85361" lon="-1.7581">
        <ele>113</ele>
        <time>2015-06-07T09:09:05Z</time>
      </trkpt>
      <trkpt lat="47.85361" lon="-1.75818">
        <ele>113</ele>
        <time>2015-06-07T09:09:06Z</time>
      </trkpt>
      <trkpt lat="47.8536" lon="-1.75826">
        <ele>112</ele>
        <time>2015-06-07T09:09:07Z</time>
      </trkpt>
      <trkpt lat="47.85359" lon="-1.75834">
        <ele>112</ele>
        <time>2015-06-07T09:09:08Z</time>
      </trkpt>
      <trkpt lat="47.85359" lon="-1.75842">
        <ele>112</ele>
        <time>2015-06-07T09:09:09Z</time>
      </trkpt>
      <trkpt lat="47.85358" lon="-1.7585">
        <ele>112</ele>
        <time>2015-06-07T09:09:10Z</time>
      </trkpt>
      <trkpt lat="47.85358" lon="-1.75858">
        <ele>112</ele>
        <time>2015-06-07T09:09:11Z</time>
      </trkpt>
      <trkpt lat="47.85357" lon="-1.75867">
        <ele>112</ele>
        <time>2015-06-07T09:09:12Z</time>
      </trkpt>
      <trkpt lat="47.85356" lon="-1.75875">
        <ele>112</ele>
        <time>2015-06-07T09:09:13Z</time>
      </trkpt>
      <trkpt lat="47.85355" lon="-1.75883">
        <ele>112</ele>
        <time>2015-06-07T09:09:14Z</time>
      </trkpt>
      <trkpt lat="47.85355" lon="-1.75891">
        <ele>112</ele>
        <time>2015-06-07T09:09:15Z</time>
      </trkpt>
      <trkpt lat="47.85354" lon="-1.759">
        <ele>112</ele>
        <time>2015-06-07T09:09:16Z</time>
      </trkpt>
      <trkpt lat="47.85354" lon="-1.75908">
        <ele>112</ele>
        <time>2015-06-07T09:09:17Z</time>
      </trkpt>
      <trkpt lat="47.85353" lon="-1.75916">
        <ele>112</ele>
        <time>2015-06-07T09:09:18Z</time>
      </trkpt>
      <trkpt lat="47.85352" lon="-1.75924">
        <ele>112</ele>
        <time>2015-06-07T09:09:19Z</time>
      </trkpt>
      <trkpt lat="47.85351" lon="-1.75933">
        <ele>112</ele>
        <time>2015-06-07T09:09:20Z</time>
      </trkpt>
      <trkpt lat="47.85351" lon="-1.75941">
        <ele>112</ele>
        <time>2015-06-07T09:09:21Z</time>
      </trkpt>
      <trkpt lat="47.8535" lon="-1.7595">
        <ele>111</ele>
        <time>2015-06-07T09:09:22Z</time>
      </trkpt>
      <trkpt lat="47.85349" lon="-1.75959">
        <ele>111</ele>
        <time>2015-06-07T09:09:23Z</time>
      </trkpt>
      <trkpt lat="47.85349" lon="-1.75968">
        <ele>111</ele>
        <time>2015-06-07T09:09:24Z</time>
      </trkpt>
      <trkpt lat="47.85348" lon="-1.75976">
        <ele>111</ele>
        <time>2015-06-07T09:09:25Z</time>
      </trkpt>
      <trkpt lat="47.85347" lon="-1.75986">
        <ele>110</ele>
        <time>2015-06-07T09:09:26Z</time>
      </trkpt>
      <trkpt lat="47.85346" lon="-1.75995">
        <ele>110</ele>
        <time>2015-06-07T09:09:27Z</time>
      </trkpt>
      <trkpt lat="47.85346" lon="-1.76004">
        <ele>110</ele>
        <time>2015-06-07T09:09:28Z</time>
      </trkpt>
      <trkpt lat="47.85345" lon="-1.76013">
        <ele>110</ele>
        <time>2015-06-07T09:09:29Z</time>
      </trkpt>
      <trkpt lat="47.85345" lon="-1.76022">
        <ele>109</ele>
        <time>2015-06-07T09:09:30Z</time>
      </trkpt>
      <trkpt lat="47.85344" lon="-1.76033">
        <ele>109</ele>
        <time>2015-06-07T09:09:31Z</time>
      </trkpt>
      <trkpt lat="47.85343" lon="-1.76043">
        <ele>109</ele>
        <time>2015-06-07T09:09:32Z</time>
      </trkpt>
      <trkpt lat="47.85343" lon="-1.76054">
        <ele>108</ele>
        <time>2015-06-07T09:09:33Z</time>
      </trkpt>
      <trkpt lat="47.85342" lon="-1.76065">
        <ele>108</ele>
        <time>2015-06-07T09:09:34Z</time>
      </trkpt>
      <trkpt lat="47.85341" lon="-1.76077">
        <ele>107</ele>
        <time>2015-06-07T09:09:35Z</time>
      </trkpt>
      <trkpt lat="47.8534" lon="-1.76088">
        <ele>107</ele>
        <time>2015-06-07T09:09:36Z</time>
      </trkpt>
      <trkpt lat="47.85339" lon="-1.761">
        <ele>106</ele>
        <time>2015-06-07T09:09:37Z</time>
      </trkpt>
      <trkpt lat="47.85338" lon="-1.76113">
        <ele>106</ele>
        <time>2015-06-07T09:09:38Z</time>
      </trkpt>
      <trkpt lat="47.85337" lon="-1.76125">
        <ele>105</ele>
        <time>2015-06-07T09:09:39Z</time>
      </trkpt>
      <trkpt lat="47.85336" lon="-1.76138">
        <ele>105</ele>
        <time>2015-06-07T09:09:40Z</time>
      </trkpt>
      <trkpt lat="47.85335" lon="-1.7615">
        <ele>104</ele>
        <time>2015-06-07T09:09:41Z</time>
      </trkpt>
      <trkpt lat="47.85334" lon="-1.76163">
        <ele>104</ele>
        <time>2015-06-07T09:09:42Z</time>
      </trkpt>
      <trkpt lat="47.85333" lon="-1.76176">
        <ele>103</ele>
        <time>2015-06-07T09:09:43Z</time>
      </trkpt>
      <trkpt lat="47.85332" lon="-1.76188">
        <ele>103</ele>
        <time>2015-06-07T09:09:44Z</time>
      </trkpt>
      <trkpt lat="47.85331" lon="-1.76201">
        <ele>102</ele>
        <time>2015-06-07T09:09:45Z</time>
      </trkpt>
      <trkpt lat="47.8533" lon="-1.76213">
        <ele>102</ele>
        <time>2015-06-07T09:09:46Z</time>
      </trkpt>
      <trkpt lat="47.85329" lon="-1.76226">
        <ele>102</ele>
        <time>2015-06-07T09:09:47Z</time>
      </trkpt>
      <trkpt lat="47.85328" lon="-1.76238">
        <ele>101</ele>
        <time>2015-06-07T09:09:48Z</time>
      </trkpt>
      <trkpt lat="47.85327" lon="-1.76251">
        <ele>101</ele>
        <time>2015-06-07T09:09:49Z</time>
      </trkpt>
      <trkpt lat="47.85326" lon="-1.76263">
        <ele>101</ele>
        <time>2015-06-07T09:09:50Z</time>
      </trkpt>
      <trkpt lat="47.85325" lon="-1.76274">
        <ele>100</ele>
        <time>2015-06-07T09:09:51Z</time>
      </trkpt>
      <trkpt lat="47.85324" lon="-1.76286">
        <ele>100</ele>
        <time>2015-06-07T09:09:52Z</time>
      </trkpt>
      <trkpt lat="47.85323" lon="-1.76298">
        <ele>100</ele>
        <time>2015-06-07T09:09:53Z</time>
      </trkpt>
      <trkpt lat="47.85322" lon="-1.7631">
        <ele>100</ele>
        <time>2015-06-07T09:09:54Z</time>
      </trkpt>
      <trkpt lat="47.85322" lon="-1.76322">
        <ele>100</ele>
        <time>2015-06-07T09:09:55Z</time>
      </trkpt>
      <trkpt lat="47.85321" lon="-1.76334">
        <ele>100</ele>
        <time>2015-06-07T09:09:56Z</time>
      </trkpt>
      <trkpt lat="47.85321" lon="-1.76346">
        <ele>99</ele>
        <time>2015-06-07T09:09:57Z</time>
      </trkpt>
      <trkpt lat="47.8532" lon="-1.76358">
        <ele>99</ele>
        <time>2015-06-07T09:09:58Z</time>
      </trkpt>
      <trkpt lat="47.85319" lon="-1.7637">
        <ele>99</ele>
        <time>2015-06-07T09:09:59Z</time>
      </trkpt>
      <trkpt lat="47.85318" lon="-1.76382">
        <ele>98</ele>
        <time>2015-06-07T09:10:00Z</time>
      </trkpt>
      <trkpt lat="47.85317" lon="-1.76393">
        <ele>98</ele>
        <time>2015-06-07T09:10:01Z</time>
      </trkpt>
      <trkpt lat="47.85316" lon="-1.76405">
        <ele>98</ele>
        <time>2015-06-07T09:10:02Z</time>
      </trkpt>
      <trkpt lat="47.85314" lon="-1.76417">
        <ele>97</ele>
        <time>2015-06-07T09:10:03Z</time>
      </trkpt>
      <trkpt lat="47.85313" lon="-1.76429">
        <ele>97</ele>
        <time>2015-06-07T09:10:04Z</time>
      </trkpt>
      <trkpt lat="47.85312" lon="-1.76442">
        <ele>96</ele>
        <time>2015-06-07T09:10:05Z</time>
      </trkpt>
      <trkpt lat="47.85312" lon="-1.76455">
        <ele>96</ele>
        <time>2015-06-07T09:10:06Z</time>
      </trkpt>
      <trkpt lat="47.85311" lon="-1.76468">
        <ele>95</ele>
        <time>2015-06-07T09:10:07Z</time>
      </trkpt>
      <trkpt lat="47.8531" lon="-1.76481">
        <ele>95</ele>
        <time>2015-06-07T09:10:08Z</time>
      </trkpt>
      <trkpt lat="47.85309" lon="-1.76493">
        <ele>94</ele>
        <time>2015-06-07T09:10:09Z</time>
      </trkpt>
      <trkpt lat="47.85308" lon="-1.76506">
        <ele>94</ele>
        <time>2015-06-07T09:10:10Z</time>
      </trkpt>
      <trkpt lat="47.85307" lon="-1.76517">
        <ele>93</ele>
        <time>2015-06-07T09:10:11Z</time>
      </trkpt>
      <trkpt lat="47.85306" lon="-1.76526">
        <ele>93</ele>
        <time>2015-06-07T09:10:12Z</time>
      </trkpt>
      <trkpt lat="47.85305" lon="-1.76531">
        <ele>92</ele>
        <time>2015-06-07T09:10:13Z</time>
      </trkpt>
      <trkpt lat="47.85304" lon="-1.76533">
        <ele>92</ele>
        <time>2015-06-07T09:10:14Z</time>
      </trkpt>
      <trkpt lat="47.85302" lon="-1.76534">
        <ele>92</ele>
        <time>2015-06-07T09:10:15Z</time>
      </trkpt>
      <trkpt lat="47.85301" lon="-1.76534">
        <ele>92</ele>
        <time>2015-06-07T09:10:16Z</time>
      </trkpt>
      <trkpt lat="47.85299" lon="-1.76532">
        <ele>92</ele>
        <time>2015-06-07T09:10:17Z</time>
      </trkpt>
      <trkpt lat="47.85296" lon="-1.7653">
        <ele>91</ele>
        <time>2015-06-07T09:10:18Z</time>
      </trkpt>
      <trkpt lat="47.85295" lon="-1.76529">
        <ele>91</ele>
        <time>2015-06-07T09:10:19Z</time>
      </trkpt>
      <trkpt lat="47.85293" lon="-1.7653">
        <ele>91</ele>
        <time>2015-06-07T09:10:20Z</time>
      </trkpt>
      <trkpt lat="47.85291" lon="-1.76533">
        <ele>91</ele>
        <time>2015-06-07T09:10:21Z</time>
      </trkpt>
      <trkpt lat="47.8529" lon="-1.76537">
        <ele>91</ele>
        <time>2015-06-07T09:10:22Z</time>
      </trkpt>
      <trkpt lat="47.85288" lon="-1.7654">
        <ele>91</ele>
        <time>2015-06-07T09:10:23Z</time>
      </trkpt>
      <trkpt lat="47.85286" lon="-1.76544">
        <ele>91</ele>
        <time>2015-06-07T09:10:24Z</time>
      </trkpt>
      <trkpt lat="47.85285" lon="-1.76547">
        <ele>91</ele>
        <time>2015-06-07T09:10:25Z</time>
      </trkpt>
      <trkpt lat="47.85283" lon="-1.7655">
        <ele>91</ele>
        <time>2015-06-07T09:10:26Z</time>
      </trkpt>
      <trkpt lat="47.8528" lon="-1.76554">
        <ele>91</ele>
        <time>2015-06-07T09:10:27Z</time>
      </trkpt>
      <trkpt lat="47.85277" lon="-1.76555">
        <ele>90</ele>
        <time>2015-06-07T09:10:28Z</time>
      </trkpt>
      <trkpt lat="47.85275" lon="-1.76555">
        <ele>90</ele>
        <time>2015-06-07T09:10:29Z</time>
      </trkpt>
      <trkpt lat="47.85273" lon="-1.76552">
        <ele>90</ele>
        <time>2015-06-07T09:10:30Z</time>
      </trkpt>
      <trkpt lat="47.85271" lon="-1.76548">
        <ele>90</ele>
        <time>2015-06-07T09:10:31Z</time>
      </trkpt>
      <trkpt lat="47.8527" lon="-1.76544">
        <ele>90</ele>
        <time>2015-06-07T09:10:32Z</time>
      </trkpt>
      <trkpt lat="47.85271" lon="-1.76541">
        <ele>90</ele>
        <time>2015-06-07T09:10:33Z</time>
      </trkpt>
      <trkpt lat="47.8527" lon="-1.76537">
        <ele>90</ele>
        <time>2015-06-07T09:10:34Z</time>
      </trkpt>
      <trkpt lat="47.85269" lon="-1.76533">
        <ele>90</ele>
        <time>2015-06-07T09:10:35Z</time>
      </trkpt>
      <trkpt lat="47.85267" lon="-1.76529">
        <ele>90</ele>
        <time>2015-06-07T09:10:36Z</time>
      </trkpt>
      <trkpt lat="47.85265" lon="-1.76527">
        <ele>90</ele>
        <time>2015-06-07T09:10:37Z</time>
      </trkpt>
      <trkpt lat="47.85261" lon="-1.76527">
        <ele>89</ele>
        <time>2015-06-07T09:10:38Z</time>
      </trkpt>
      <trkpt lat="47.85259" lon="-1.7653">
        <ele>89</ele>
        <time>2015-06-07T09:10:39Z</time>
      </trkpt>
      <trkpt lat="47.85257" lon="-1.76533">
        <ele>89</ele>
        <time>2015-06-07T09:10:40Z</time>
      </trkpt>
      <trkpt lat="47.85256" lon="-1.76536">
        <ele>89</ele>
        <time>2015-06-07T09:10:41Z</time>
      </trkpt>
      <trkpt lat="47.85255" lon="-1.7654">
        <ele>89</ele>
        <time>2015-06-07T09:10:42Z</time>
      </trkpt>
      <trkpt lat="47.85255" lon="-1.76545">
        <ele>89</ele>
        <time>2015-06-07T09:10:43Z</time>
      </trkpt>
      <trkpt lat="47.85255" lon="-1.76548">
        <ele>89</ele>
        <time>2015-06-07T09:10:44Z</time>
      </trkpt>
      <trkpt lat="47.85253" lon="-1.7655">
        <ele>88</ele>
        <time>2015-06-07T09:10:45Z</time>
      </trkpt>
      <trkpt lat="47.8525" lon="-1.76549">
        <ele>88</ele>
        <time>2015-06-07T09:10:46Z</time>
      </trkpt>
      <trkpt lat="47.85246" lon="-1.76548">
        <ele>88</ele>
        <time>2015-06-07T09:10:47Z</time>
      </trkpt>
      <trkpt lat="47.85242" lon="-1.76548">
        <ele>88</ele>
        <time>2015-06-07T09:10:48Z</time>
      </trkpt>
      <trkpt lat="47.8524" lon="-1.76551">
        <ele>87</ele>
        <time>2015-06-07T09:10:49Z</time>
      </trkpt>
      <trkpt lat="47.85237" lon="-1.76553">
        <ele>87</ele>
        <time>2015-06-07T09:10:50Z</time>
      </trkpt>
      <trkpt lat="47.85235" lon="-1.76553">
        <ele>87</ele>
        <time>2015-06-07T09:10:51Z</time>
      </trkpt>
      <trkpt lat="47.85233" lon="-1.76551">
        <ele>87</ele>
        <time>2015-06-07T09:10:52Z</time>
      </trkpt>
      <trkpt lat="47.85233" lon="-1.7655">
        <ele>86</ele>
        <time>2015-06-07T09:10:53Z</time>
      </trkpt>
      <trkpt lat="47.85233" lon="-1.76547">
        <ele>86</ele>
        <time>2015-06-07T09:10:54Z</time>
      </trkpt>
      <trkpt lat="47.85233" lon="-1.76543">
        <ele>86</ele>
        <time>2015-06-07T09:10:55Z</time>
      </trkpt>
      <trkpt lat="47.85234" lon="-1.7654">
        <ele>86</ele>
        <time>2015-06-07T09:10:56Z</time>
      </trkpt>
      <trkpt lat="47.85233" lon="-1.76536">
        <ele>86</ele>
        <time>2015-06-07T09:10:57Z</time>
      </trkpt>
      <trkpt lat="47.85233" lon="-1.76534">
        <ele>85</ele>
        <time>2015-06-07T09:10:58Z</time>
      </trkpt>
      <trkpt lat="47.85231" lon="-1.76534">
        <ele>85</ele>
        <time>2015-06-07T09:10:59Z</time>
      </trkpt>
      <trkpt lat="47.85228" lon="-1.76534">
        <ele>85</ele>
        <time>2015-06-07T09:11:00Z</time>
      </trkpt>
      <trkpt lat="47.85224" lon="-1.76536">
        <ele>85</ele>
        <time>2015-06-07T09:11:01Z</time>
      </trkpt>
      <trkpt lat="47.85221" lon="-1.76537">
        <ele>85</ele>
        <time>2015-06-07T09:11:02Z</time>
      </trkpt>
      <trkpt lat="47.85219" lon="-1.7654">
        <ele>85</ele>
        <time>2015-06-07T09:11:03Z</time>
      </trkpt>
      <trkpt lat="47.85217" lon="-1.76543">
        <ele>84</ele>
        <time>2015-06-07T09:11:04Z</time>
      </trkpt>
      <trkpt lat="47.85214" lon="-1.76544">
        <ele>84</ele>
        <time>2015-06-07T09:11:05Z</time>
      </trkpt>
      <trkpt lat="47.85212" lon="-1.76543">
        <ele>84</ele>
        <time>2015-06-07T09:11:06Z</time>
      </trkpt>
      <trkpt lat="47.85209" lon="-1.76541">
        <ele>84</ele>
        <time>2015-06-07T09:11:07Z</time>
      </trkpt>
      <trkpt lat="47.85207" lon="-1.7654">
        <ele>84</ele>
        <time>2015-06-07T09:11:08Z</time>
      </trkpt>
      <trkpt lat="47.85204" lon="-1.7654">
        <ele>83</ele>
        <time>2015-06-07T09:11:09Z</time>
      </trkpt>
      <trkpt lat="47.85201" lon="-1.76538">
        <ele>83</ele>
        <time>2015-06-07T09:11:10Z</time>
      </trkpt>
      <trkpt lat="47.85198" lon="-1.76535">
        <ele>83</ele>
        <time>2015-06-07T09:11:11Z</time>
      </trkpt>
      <trkpt lat="47.85195" lon="-1.76531">
        <ele>83</ele>
        <time>2015-06-07T09:11:12Z</time>
      </trkpt>
      <trkpt lat="47.85192" lon="-1.76526">
        <ele>83</ele>
        <time>2015-06-07T09:11:13Z</time>
      </trkpt>
      <trkpt lat="47.85189" lon="-1.76523">
        <ele>83</ele>
        <time>2015-06-07T09:11:14Z</time>
      </trkpt>
      <trkpt lat="47.85187" lon="-1.76523">
        <ele>83</ele>
        <time>2015-06-07T09:11:15Z</time>
      </trkpt>
      <trkpt lat="47.85185" lon="-1.76525">
        <ele>83</ele>
        <time>2015-06-07T09:11:16Z</time>
      </trkpt>
      <trkpt lat="47.85183" lon="-1.76527">
        <ele>83</ele>
        <time>2015-06-07T09:11:17Z</time>
      </trkpt>
      <trkpt lat="47.85181" lon="-1.7653">
        <ele>83</ele>
        <time>2015-06-07T09:11:18Z</time>
      </trkpt>
      <trkpt lat="47.85179" lon="-1.76531">
        <ele>83</ele>
        <time>2015-06-07T09:11:19Z</time>
      </trkpt>
      <trkpt lat="47.85176" lon="-1.76531">
        <ele>83</ele>
        <time>2015-06-07T09:11:20Z</time>
      </trkpt>
      <trkpt lat="47.85172" lon="-1.76532">
        <ele>83</ele>
        <time>2015-06-07T09:11:21Z</time>
      </trkpt>
      <trkpt lat="47.85168" lon="-1.76534">
        <ele>83</ele>
        <time>2015-06-07T09:11:22Z</time>
      </trkpt>
      <trkpt lat="47.85164" lon="-1.76537">
        <ele>83</ele>
        <time>2015-06-07T09:11:23Z</time>
      </trkpt>
      <trkpt lat="47.85163" lon="-1.7654">
        <ele>83</ele>
        <time>2015-06-07T09:11:24Z</time>
      </trkpt>
      <trkpt lat="47.85162" lon="-1.76543">
        <ele>82</ele>
        <time>2015-06-07T09:11:25Z</time>
      </trkpt>
      <trkpt lat="47.85162" lon="-1.76548">
        <ele>82</ele>
        <time>2015-06-07T09:11:26Z</time>
      </trkpt>
      <trkpt lat="47.85162" lon="-1.76554">
        <ele>82</ele>
        <time>2015-06-07T09:11:27Z</time>
      </trkpt>
      <trkpt lat="47.85161" lon="-1.7656">
        <ele>82</ele>
        <time>2015-06-07T09:11:28Z</time>
      </trkpt>
      <trkpt lat="47.85161" lon="-1.76566">
        <ele>82</ele>
        <time>2015-06-07T09:11:29Z</time>
      </trkpt>
      <trkpt lat="47.85159" lon="-1.76568">
        <ele>81</ele>
        <time>2015-06-07T09:11:30Z</time>
      </trkpt>
      <trkpt lat="47.85157" lon="-1.76569">
        <ele>81</ele>
        <time>2015-06-07T09:11:31Z</time>
      </trkpt>
      <trkpt lat="47.85154" lon="-1.76569">
        <ele>81</ele>
        <time>2015-06-07T09:11:32Z</time>
      </trkpt>
      <trkpt lat="47.85151" lon="-1.76571">
        <ele>80</ele>
        <time>2015-06-07T09:11:33Z</time>
      </trkpt>
      <trkpt lat="47.85149" lon="-1.76574">
        <ele>80</ele>
        <time>2015-06-07T09:11:34Z</time>
      </trkpt>
      <trkpt lat="47.85146" lon="-1.76576">
        <ele>80</ele>
        <time>2015-06-07T09:11:35Z</time>
      </trkpt>
      <trkpt lat="47.85145" lon="-1.76576">
        <ele>80</ele>
        <time>2015-06-07T09:11:36Z</time>
      </trkpt>
      <trkpt lat="47.85143" lon="-1.76576">
        <ele>80</ele>
        <time>2015-06-07T09:11:37Z</time>
      </trkpt>
      <trkpt lat="47.85141" lon="-1.76575">
        <ele>80</ele>
        <time>2015-06-07T09:11:38Z</time>
      </trkpt>
      <trkpt lat="47.85139" lon="-1.76573">
        <ele>79</ele>
        <time>2015-06-07T09:11:39Z</time>
      </trkpt>
      <trkpt lat="47.85139" lon="-1.7657">
        <ele>79</ele>
        <time>2015-06-07T09:11:40Z</time>
      </trkpt>
      <trkpt lat="47.85138" lon="-1.76566">
        <ele>79</ele>
        <time>2015-06-07T09:11:41Z</time>
      </trkpt>
      <trkpt lat="47.85137" lon="-1.76563">
        <ele>79</ele>
        <time>2015-06-07T09:11:42Z</time>
      </trkpt>
      <trkpt lat="47.85135" lon="-1.76562">
        <ele>79</ele>
        <time>2015-06-07T09:11:43Z</time>
      </trkpt>
      <trkpt lat="47.85133" lon="-1.7656">
        <ele>79</ele>
        <time>2015-06-07T09:11:44Z</time>
      </trkpt>
      <trkpt lat="47.85131" lon="-1.76557">
        <ele>79</ele>
        <time>2015-06-07T09:11:45Z</time>
      </trkpt>
      <trkpt lat="47.85129" lon="-1.76555">
        <ele>79</ele>
        <time>2015-06-07T09:11:46Z</time>
      </trkpt>
      <trkpt lat="47.85126" lon="-1.76552">
        <ele>78</ele>
        <time>2015-06-07T09:11:47Z</time>
      </trkpt>
      <trkpt lat="47.85124" lon="-1.76549">
        <ele>78</ele>
        <time>2015-06-07T09:11:48Z</time>
      </trkpt>
      <trkpt lat="47.85122" lon="-1.76546">
        <ele>78</ele>
        <time>2015-06-07T09:11:49Z</time>
      </trkpt>
      <trkpt lat="47.85119" lon="-1.76544">
        <ele>78</ele>
        <time>2015-06-07T09:11:50Z</time>
      </trkpt>
      <trkpt lat="47.85117" lon="-1.76543">
        <ele>78</ele>
        <time>2015-06-07T09:11:51Z</time>
      </trkpt>
      <trkpt lat="47.85115" lon="-1.76541">
        <ele>78</ele>
        <time>2015-06-07T09:11:52Z</time>
      </trkpt>
      <trkpt lat="47.85115" lon="-1.76539">
        <ele>78</ele>
        <time>2015-06-07T09:11:53Z</time>
      </trkpt>
      <trkpt lat="47.85114" lon="-1.76537">
        <ele>77</ele>
        <time>2015-06-07T09:11:54Z</time>
      </trkpt>
      <trkpt lat="47.85114" lon="-1.76534">
        <ele>77</ele>
        <time>2015-06-07T09:11:55Z</time>
      </trkpt>
      <trkpt lat="47.85114" lon="-1.76531">
        <ele>77</ele>
        <time>2015-06-07T09:11:56Z</time>
      </trkpt>
      <trkpt lat="47.85113" lon="-1.76527">
        <ele>77</ele>
        <time>2015-06-07T09:11:57Z</time>
      </trkpt>
      <trkpt lat="47.85111" lon="-1.76523">
        <ele>76</ele>
        <time>2015-06-07T09:11:58Z</time>
      </trkpt>
      <trkpt lat="47.85108" lon="-1.76521">
        <ele>76</ele>
        <time>2015-06-07T09:11:59Z</time>
      </trkpt>
      <trkpt lat="47.85104" lon="-1.76522">
        <ele>76</ele>
        <time>2015-06-07T09:12:00Z</time>
      </trkpt>
      <trkpt lat="47.85101" lon="-1.76524">
        <ele>76</ele>
        <time>2015-06-07T09:12:01Z</time>
      </trkpt>
      <trkpt lat="47.85099" lon="-1.76528">
        <ele>75</ele>
        <time>2015-06-07T09:12:02Z</time>
      </trkpt>
      <trkpt lat="47.85099" lon="-1.76531">
        <ele>75</ele>
        <time>2015-06-07T09:12:03Z</time>
      </trkpt>
      <trkpt lat="47.85099" lon="-1.76535">
        <ele>75</ele>
        <time>2015-06-07T09:12:04Z</time>
      </trkpt>
      <trkpt lat="47.85098" lon="-1.76538">
        <ele>75</ele>
        <time>2015-06-07T09:12:05Z</time>
      </trkpt>
      <trkpt lat="47.85099" lon="-1.76541">
        <ele>75</ele>
        <time>2015-06-07T09:12:06Z</time>
      </trkpt>
      <trkpt lat="47.85099" lon="-1.76544">
        <ele>75</ele>
        <time>2015-06-07T09:12:07Z</time>
      </trkpt>
      <trkpt lat="47.85101" lon="-1.76547">
        <ele>74</ele>
        <time>2015-06-07T09:12:08Z</time>
      </trkpt>
      <trkpt lat="47.85102" lon="-1.76551">
        <ele>74</ele>
        <time>2015-06-07T09:12:09Z</time>
      </trkpt>
      <trkpt lat="47.85104" lon="-1.76554">
        <ele>74</ele>
        <time>2015-06-07T09:12:10Z</time>
      </trkpt>
      <trkpt lat="47.85105" lon="-1.76556">
        <ele>74</ele>
        <time>2015-06-07T09:12:11Z</time>
      </trkpt>
      <trkpt lat="47.85107" lon="-1.76557">
        <ele>74</ele>
        <time>2015-06-07T09:12:12Z</time>
      </trkpt>
      <trkpt lat="47.85109" lon="-1.7656">
        <ele>74</ele>
        <time>2015-06-07T09:12:13Z</time>
      </trkpt>
      <trkpt lat="47.85109" lon="-1.76564">
        <ele>74</ele>
        <time>2015-06-07T09:12:14Z</time>
      </trkpt>
      <trkpt lat="47.8511" lon="-1.76567">
        <ele>74</ele>
        <time>2015-06-07T09:12:15Z</time>
      </trkpt>
      <trkpt lat="47.85111" lon="-1.7657">
        <ele>74</ele>
        <time>2015-06-07T09:12:16Z</time>
      </trkpt>
      <trkpt lat="47.85112" lon="-1.76575">
        <ele>74</ele>
        <time>2015-06-07T09:12:17Z</time>
      </trkpt>
      <trkpt lat="47.85114" lon="-1.7658">
        <ele>74</ele>
        <time>2015-06-07T09:12:18Z</time>
      </trkpt>
      <trkpt lat="47.85115" lon="-1.76585">
        <ele>74</ele>
        <time>2015-06-07T09:12:19Z</time>
      </trkpt>
      <trkpt lat="47.85118" lon="-1.76589">
        <ele>74</ele>
        <time>2015-06-07T09:12:20Z</time>
      </trkpt>
      <trkpt lat="47.85119" lon="-1.76593">
        <ele>74</ele>
        <time>2015-06-07T09:12:21Z</time>
      </trkpt>
      <trkpt lat="47.85119" lon="-1.76597">
        <ele>74</ele>
        <time>2015-06-07T09:12:22Z</time>
      </trkpt>
      <trkpt lat="47.8512" lon="-1.76602">
        <ele>74</ele>
        <time>2015-06-07T09:12:23Z</time>
      </trkpt>
      <trkpt lat="47.85122" lon="-1.76608">
        <ele>73</ele>
        <time>2015-06-07T09:12:24Z</time>
      </trkpt>
      <trkpt lat="47.85124" lon="-1.76612">
        <ele>74</ele>
        <time>2015-06-07T09:12:25Z</time>
      </trkpt>
      <trkpt lat="47.85125" lon="-1.76616">
        <ele>74</ele>
        <time>2015-06-07T09:12:26Z</time>
      </trkpt>
      <trkpt lat="47.85126" lon="-1.76621">
        <ele>74</ele>
        <time>2015-06-07T09:12:27Z</time>
      </trkpt>
      <trkpt lat="47.85128" lon="-1.76624">
        <ele>74</ele>
        <time>2015-06-07T09:12:28Z</time>
      </trkpt>
      <trkpt lat="47.85131" lon="-1.76625">
        <ele>74</ele>
        <time>2015-06-07T09:12:29Z</time>
      </trkpt>
      <trkpt lat="47.85134" lon="-1.76627">
        <ele>74</ele>
        <time>2015-06-07T09:12:30Z</time>
      </trkpt>
      <trkpt lat="47.85136" lon="-1.76628">
        <ele>73</ele>
        <time>2015-06-07T09:12:31Z</time>
      </trkpt>
      <trkpt lat="47.85138" lon="-1.76627">
        <ele>73</ele>
        <time>2015-06-07T09:12:32Z</time>
      </trkpt>
      <trkpt lat="47.85141" lon="-1.76624">
        <ele>73</ele>
        <time>2015-06-07T09:12:33Z</time>
      </trkpt>
      <trkpt lat="47.85142" lon="-1.76622">
        <ele>73</ele>
        <time>2015-06-07T09:12:34Z</time>
      </trkpt>
      <trkpt lat="47.85142" lon="-1.7662">
        <ele>73</ele>
        <time>2015-06-07T09:12:35Z</time>
      </trkpt>
      <trkpt lat="47.85141" lon="-1.7662">
        <ele>73</ele>
        <time>2015-06-07T09:12:36Z</time>
      </trkpt>
      <trkpt lat="47.85139" lon="-1.76619">
        <ele>73</ele>
        <time>2015-06-07T09:12:37Z</time>
      </trkpt>
      <trkpt lat="47.85137" lon="-1.76618">
        <ele>73</ele>
        <time>2015-06-07T09:12:38Z</time>
      </trkpt>
      <trkpt lat="47.85134" lon="-1.76616">
        <ele>73</ele>
        <time>2015-06-07T09:12:39Z</time>
      </trkpt>
      <trkpt lat="47.85132" lon="-1.76613">
        <ele>72</ele>
        <time>2015-06-07T09:12:40Z</time>
      </trkpt>
      <trkpt lat="47.85132" lon="-1.7661">
        <ele>72</ele>
        <time>2015-06-07T09:12:41Z</time>
      </trkpt>
      <trkpt lat="47.85132" lon="-1.76606">
        <ele>72</ele>
        <time>2015-06-07T09:12:42Z</time>
      </trkpt>
      <trkpt lat="47.85132" lon="-1.76603">
        <ele>72</ele>
        <time>2015-06-07T09:12:43Z</time>
      </trkpt>
      <trkpt lat="47.85134" lon="-1.76603">
        <ele>72</ele>
        <time>2015-06-07T09:12:44Z</time>
      </trkpt>
      <trkpt lat="47.85135" lon="-1.76603">
        <ele>72</ele>
        <time>2015-06-07T09:12:45Z</time>
      </trkpt>
      <trkpt lat="47.85137" lon="-1.76604">
        <ele>72</ele>
        <time>2015-06-07T09:12:46Z</time>
      </trkpt>
      <trkpt lat="47.85138" lon="-1.76605">
        <ele>72</ele>
        <time>2015-06-07T09:12:47Z</time>
      </trkpt>
      <trkpt lat="47.85141" lon="-1.76606">
        <ele>72</ele>
        <time>2015-06-07T09:12:48Z</time>
      </trkpt>
      <trkpt lat="47.85143" lon="-1.76606">
        <ele>73</ele>
        <time>2015-06-07T09:12:49Z</time>
      </trkpt>
      <trkpt lat="47.85145" lon="-1.76604">
        <ele>73</ele>
        <time>2015-06-07T09:12:50Z</time>
      </trkpt>
      <trkpt lat="47.85147" lon="-1.766">
        <ele>73</ele>
        <time>2015-06-07T09:12:51Z</time>
      </trkpt>
      <trkpt lat="47.85149" lon="-1.76596">
        <ele>73</ele>
        <time>2015-06-07T09:12:52Z</time>
      </trkpt>
      <trkpt lat="47.85152" lon="-1.76593">
        <ele>74</ele>
        <time>2015-06-07T09:12:53Z</time>
      </trkpt>
      <trkpt lat="47.85155" lon="-1.76594">
        <ele>74</ele>
        <time>2015-06-07T09:12:54Z</time>
      </trkpt>
      <trkpt lat="47.85159" lon="-1.76595">
        <ele>74</ele>
        <time>2015-06-07T09:12:55Z</time>
      </trkpt>
      <trkpt lat="47.85161" lon="-1.76597">
        <ele>74</ele>
        <time>2015-06-07T09:12:56Z</time>
      </trkpt>
      <trkpt lat="47.85163" lon="-1.766">
        <ele>74</ele>
        <time>2015-06-07T09:12:57Z</time>
      </trkpt>
      <trkpt lat="47.85165" lon="-1.76603">
        <ele>74</ele>
        <time>2015-06-07T09:12:58Z</time>
      </trkpt>
      <trkpt lat="47.85167" lon="-1.76606">
        <ele>74</ele>
        <time>2015-06-07T09:12:59Z</time>
      </trkpt>
      <trkpt lat="47.85169" lon="-1.76609">
        <ele>74</ele>
        <time>2015-06-07T09:13:00Z</time>
      </trkpt>
      <trkpt lat="47.85171" lon="-1.76613">
        <ele>74</ele>
        <time>2015-06-07T09:13:01Z</time>
      </trkpt>
      <trkpt lat="47.85172" lon="-1.76617">
        <ele>74</ele>
        <time>2015-06-07T09:13:02Z</time>
      </trkpt>
      <trkpt lat="47.85174" lon="-1.7662">
        <ele>74</ele>
        <time>2015-06-07T09:13:03Z</time>
      </trkpt>
      <trkpt lat="47.85176" lon="-1.76622">
        <ele>74</ele>
        <time>2015-06-07T09:13:04Z</time>
      </trkpt>
      <trkpt lat="47.85178" lon="-1.76621">
        <ele>75</ele>
        <time>2015-06-07T09:13:05Z</time>
      </trkpt>
      <trkpt lat="47.8518" lon="-1.76618">
        <ele>75</ele>
        <time>2015-06-07T09:13:06Z</time>
      </trkpt>
      <trkpt lat="47.85181" lon="-1.76616">
        <ele>75</ele>
        <time>2015-06-07T09:13:07Z</time>
      </trkpt>
      <trkpt lat="47.85182" lon="-1.76615">
        <ele>76</ele>
        <time>2015-06-07T09:13:08Z</time>
      </trkpt>
      <trkpt lat="47.85183" lon="-1.76614">
        <ele>76</ele>
        <time>2015-06-07T09:13:09Z</time>
      </trkpt>
      <trkpt lat="47.85184" lon="-1.76612">
        <ele>76</ele>
        <time>2015-06-07T09:13:10Z</time>
      </trkpt>
      <trkpt lat="47.85184" lon="-1.7661">
        <ele>76</ele>
        <time>2015-06-07T09:13:11Z</time>
      </trkpt>
      <trkpt lat="47.85187" lon="-1.76607">
        <ele>76</ele>
        <time>2015-06-07T09:13:12Z</time>
      </trkpt>
      <trkpt lat="47.8519" lon="-1.76604">
        <ele>77</ele>
        <time>2015-06-07T09:13:13Z</time>
      </trkpt>
      <trkpt lat="47.85192" lon="-1.76601">
        <ele>77</ele>
        <time>2015-06-07T09:13:14Z</time>
      </trkpt>
      <trkpt lat="47.85193" lon="-1.76599">
        <ele>77</ele>
        <time>2015-06-07T09:13:15Z</time>
      </trkpt>
      <trkpt lat="47.85194" lon="-1.76596">
        <ele>77</ele>
        <time>2015-06-07T09:13:16Z</time>
      </trkpt>
      <trkpt lat="47.85196" lon="-1.76594">
        <ele>77</ele>
        <time>2015-06-07T09:13:17Z</time>
      </trkpt>
      <trkpt lat="47.85197" lon="-1.76593">
        <ele>77</ele>
        <time>2015-06-07T09:13:18Z</time>
      </trkpt>
      <trkpt lat="47.85199" lon="-1.76594">
        <ele>77</ele>
        <time>2015-06-07T09:13:19Z</time>
      </trkpt>
      <trkpt lat="47.85201" lon="-1.76595">
        <ele>77</ele>
        <time>2015-06-07T09:13:20Z</time>
      </trkpt>
      <trkpt lat="47.85202" lon="-1.76598">
        <ele>77</ele>
        <time>2015-06-07T09:13:21Z</time>
      </trkpt>
      <trkpt lat="47.85203" lon="-1.766">
        <ele>77</ele>
        <time>2015-06-07T09:13:22Z</time>
      </trkpt>
      <trkpt lat="47.85204" lon="-1.76603">
        <ele>78</ele>
        <time>2015-06-07T09:13:23Z</time>
      </trkpt>
      <trkpt lat="47.85204" lon="-1.76605">
        <ele>78</ele>
        <time>2015-06-07T09:13:24Z</time>
      </trkpt>
      <trkpt lat="47.85204" lon="-1.76607">
        <ele>78</ele>
        <time>2015-06-07T09:13:25Z</time>
      </trkpt>
      <trkpt lat="47.85205" lon="-1.7661">
        <ele>78</ele>
        <time>2015-06-07T09:13:26Z</time>
      </trkpt>
      <trkpt lat="47.85206" lon="-1.76613">
        <ele>78</ele>
        <time>2015-06-07T09:13:27Z</time>
      </trkpt>
      <trkpt lat="47.85207" lon="-1.76615">
        <ele>78</ele>
        <time>2015-06-07T09:13:28Z</time>
      </trkpt>
      <trkpt lat="47.85207" lon="-1.76617">
        <ele>78</ele>
        <time>2015-06-07T09:13:29Z</time>
      </trkpt>
      <trkpt lat="47.85208" lon="-1.76618">
        <ele>79</ele>
        <time>2015-06-07T09:13:30Z</time>
      </trkpt>
      <trkpt lat="47.85209" lon="-1.76619">
        <ele>79</ele>
        <time>2015-06-07T09:13:31Z</time>
      </trkpt>
      <trkpt lat="47.85211" lon="-1.76618">
        <ele>79</ele>
        <time>2015-06-07T09:13:32Z</time>
      </trkpt>
      <trkpt lat="47.85213" lon="-1.76616">
        <ele>79</ele>
        <time>2015-06-07T09:13:33Z</time>
      </trkpt>
      <trkpt lat="47.85216" lon="-1.76614">
        <ele>79</ele>
        <time>2015-06-07T09:13:34Z</time>
      </trkpt>
      <trkpt lat="47.8522" lon="-1.76613">
        <ele>79</ele>
        <time>2015-06-07T09:13:35Z</time>
      </trkpt>
      <trkpt lat="47.85222" lon="-1.76614">
        <ele>79</ele>
        <time>2015-06-07T09:13:36Z</time>
      </trkpt>
      <trkpt lat="47.85224" lon="-1.76615">
        <ele>79</ele>
        <time>2015-06-07T09:13:37Z</time>
      </trkpt>
      <trkpt lat="47.85226" lon="-1.76617">
        <ele>79</ele>
        <time>2015-06-07T09:13:38Z</time>
      </trkpt>
      <trkpt lat="47.85228" lon="-1.76619">
        <ele>80</ele>
        <time>2015-06-07T09:13:39Z</time>
      </trkpt>
      <trkpt lat="47.8523" lon="-1.76621">
        <ele>80</ele>
        <time>2015-06-07T09:13:40Z</time>
      </trkpt>
      <trkpt lat="47.85231" lon="-1.76623">
        <ele>80</ele>
        <time>2015-06-07T09:13:41Z</time>
      </trkpt>
      <trkpt lat="47.85232" lon="-1.76625">
        <ele>79</ele>
        <time>2015-06-07T09:13:42Z</time>
      </trkpt>
      <trkpt lat="47.85233" lon="-1.76628">
        <ele>79</ele>
        <time>2015-06-07T09:13:43Z</time>
      </trkpt>
      <trkpt lat="47.85234" lon="-1.76629">
        <ele>79</ele>
        <time>2015-06-07T09:13:44Z</time>
      </trkpt>
      <trkpt lat="47.85234" lon="-1.76632">
        <ele>79</ele>
        <time>2015-06-07T09:13:45Z</time>
      </trkpt>
      <trkpt lat="47.85234" lon="-1.76635">
        <ele>79</ele>
        <time>2015-06-07T09:13:46Z</time>
      </trkpt>
      <trkpt lat="47.85234" lon="-1.76638">
        <ele>79</ele>
        <time>2015-06-07T09:13:47Z</time>
      </trkpt>
      <trkpt lat="47.85235" lon="-1.76639">
        <ele>79</ele>
        <time>2015-06-07T09:13:48Z</time>
      </trkpt>
      <trkpt lat="47.85237" lon="-1.76641">
        <ele>79</ele>
        <time>2015-06-07T09:13:49Z</time>
      </trkpt>
      <trkpt lat="47.85239" lon="-1.7664">
        <ele>79</ele>
        <time>2015-06-07T09:13:50Z</time>
      </trkpt>
      <trkpt lat="47.8524" lon="-1.76642">
        <ele>79</ele>
        <time>2015-06-07T09:13:51Z</time>
      </trkpt>
      <trkpt lat="47.85243" lon="-1.76643">
        <ele>80</ele>
        <time>2015-06-07T09:13:52Z</time>
      </trkpt>
      <trkpt lat="47.85246" lon="-1.76643">
        <ele>80</ele>
        <time>2015-06-07T09:13:53Z</time>
      </trkpt>
      <trkpt lat="47.85248" lon="-1.76644">
        <ele>80</ele>
        <time>2015-06-07T09:13:54Z</time>
      </trkpt>
      <trkpt lat="47.85251" lon="-1.76645">
        <ele>80</ele>
        <time>2015-06-07T09:13:55Z</time>
      </trkpt>
      <trkpt lat="47.85253" lon="-1.76647">
        <ele>80</ele>
        <time>2015-06-07T09:13:56Z</time>
      </trkpt>
      <trkpt lat="47.85256" lon="-1.76649">
        <ele>80</ele>
        <time>2015-06-07T09:13:57Z</time>
      </trkpt>
      <trkpt lat="47.85259" lon="-1.7665">
        <ele>80</ele>
        <time>2015-06-07T09:13:58Z</time>
      </trkpt>
      <trkpt lat="47.85262" lon="-1.76652">
        <ele>80</ele>
        <time>2015-06-07T09:13:59Z</time>
      </trkpt>
      <trkpt lat="47.85265" lon="-1.76652">
        <ele>80</ele>
        <time>2015-06-07T09:14:00Z</time>
      </trkpt>
      <trkpt lat="47.85267" lon="-1.7665">
        <ele>80</ele>
        <time>2015-06-07T09:14:01Z</time>
      </trkpt>
      <trkpt lat="47.85269" lon="-1.76647">
        <ele>81</ele>
        <time>2015-06-07T09:14:02Z</time>
      </trkpt>
      <trkpt lat="47.85271" lon="-1.76645">
        <ele>81</ele>
        <time>2015-06-07T09:14:03Z</time>
      </trkpt>
      <trkpt lat="47.85273" lon="-1.76642">
        <ele>81</ele>
        <time>2015-06-07T09:14:04Z</time>
      </trkpt>
      <trkpt lat="47.85274" lon="-1.76639">
        <ele>81</ele>
        <time>2015-06-07T09:14:05Z</time>
      </trkpt>
      <trkpt lat="47.85276" lon="-1.76637">
        <ele>82</ele>
        <time>2015-06-07T09:14:06Z</time>
      </trkpt>
      <trkpt lat="47.85278" lon="-1.76635">
        <ele>82</ele>
        <time>2015-06-07T09:14:07Z</time>
      </trkpt>
      <trkpt lat="47.8528" lon="-1.76635">
        <ele>82</ele>
        <time>2015-06-07T09:14:08Z</time>
      </trkpt>
      <trkpt lat="47.85282" lon="-1.76635">
        <ele>82</ele>
        <time>2015-06-07T09:14:09Z</time>
      </trkpt>
      <trkpt lat="47.85284" lon="-1.76637">
        <ele>82</ele>
        <time>2015-06-07T09:14:10Z</time>
      </trkpt>
      <trkpt lat="47.85286" lon="-1.76639">
        <ele>83</ele>
        <time>2015-06-07T09:14:11Z</time>
      </trkpt>
      <trkpt lat="47.85288" lon="-1.76642">
        <ele>83</ele>
        <time>2015-06-07T09:14:12Z</time>
      </trkpt>
      <trkpt lat="47.8529" lon="-1.76644">
        <ele>83</ele>
        <time>2015-06-07T09:14:13Z</time>
      </trkpt>
      <trkpt lat="47.85292" lon="-1.76647">
        <ele>83</ele>
        <time>2015-06-07T09:14:14Z</time>
      </trkpt>
      <trkpt lat="47.85292" lon="-1.7665">
        <ele>83</ele>
        <time>2015-06-07T09:14:15Z</time>
      </trkpt>
      <trkpt lat="47.85293" lon="-1.76655">
        <ele>83</ele>
        <time>2015-06-07T09:14:16Z</time>
      </trkpt>
      <trkpt lat="47.85292" lon="-1.76659">
        <ele>83</ele>
        <time>2015-06-07T09:14:17Z</time>
      </trkpt>
      <trkpt lat="47.85291" lon="-1.76666">
        <ele>83</ele>
        <time>2015-06-07T09:14:18Z</time>
      </trkpt>
      <trkpt lat="47.8529" lon="-1.76674">
        <ele>83</ele>
        <time>2015-06-07T09:14:19Z</time>
      </trkpt>
      <trkpt lat="47.8529" lon="-1.76683">
        <ele>82</ele>
        <time>2015-06-07T09:14:20Z</time>
      </trkpt>
      <trkpt lat="47.85289" lon="-1.76692">
        <ele>82</ele>
        <time>2015-06-07T09:14:21Z</time>
      </trkpt>
      <trkpt lat="47.85287" lon="-1.76703">
        <ele>82</ele>
        <time>2015-06-07T09:14:22Z</time>
      </trkpt>
      <trkpt lat="47.85286" lon="-1.76714">
        <ele>81</ele>
        <time>2015-06-07T09:14:23Z</time>
      </trkpt>
      <trkpt lat="47.85286" lon="-1.76725">
        <ele>81</ele>
        <time>2015-06-07T09:14:24Z</time>
      </trkpt>
      <trkpt lat="47.85285" lon="-1.76736">
        <ele>80</ele>
        <time>2015-06-07T09:14:25Z</time>
      </trkpt>
      <trkpt lat="47.85285" lon="-1.76746">
        <ele>79</ele>
        <time>2015-06-07T09:14:26Z</time>
      </trkpt>
      <trkpt lat="47.85284" lon="-1.76756">
        <ele>79</ele>
        <time>2015-06-07T09:14:27Z</time>
      </trkpt>
      <trkpt lat="47.85284" lon="-1.76766">
        <ele>78</ele>
        <time>2015-06-07T09:14:28Z</time>
      </trkpt>
      <trkpt lat="47.85283" lon="-1.76774">
        <ele>78</ele>
        <time>2015-06-07T09:14:29Z</time>
      </trkpt>
      <trkpt lat="47.85282" lon="-1.76781">
        <ele>77</ele>
        <time>2015-06-07T09:14:30Z</time>
      </trkpt>
      <trkpt lat="47.85279" lon="-1.76787">
        <ele>76</ele>
        <time>2015-06-07T09:14:31Z</time>
      </trkpt>
      <trkpt lat="47.85276" lon="-1.7679">
        <ele>76</ele>
        <time>2015-06-07T09:14:32Z</time>
      </trkpt>
      <trkpt lat="47.85271" lon="-1.7679">
        <ele>76</ele>
        <time>2015-06-07T09:14:33Z</time>
      </trkpt>
      <trkpt lat="47.85267" lon="-1.76789">
        <ele>76</ele>
        <time>2015-06-07T09:14:34Z</time>
      </trkpt>
      <trkpt lat="47.85262" lon="-1.76788">
        <ele>75</ele>
        <time>2015-06-07T09:14:35Z</time>
      </trkpt>
      <trkpt lat="47.85256" lon="-1.76788">
        <ele>75</ele>
        <time>2015-06-07T09:14:36Z</time>
      </trkpt>
      <trkpt lat="47.85251" lon="-1.76787">
        <ele>75</ele>
        <time>2015-06-07T09:14:37Z</time>
      </trkpt>
      <trkpt lat="47.85246" lon="-1.76786">
        <ele>75</ele>
        <time>2015-06-07T09:14:38Z</time>
      </trkpt>
      <trkpt lat="47.85239" lon="-1.76785">
        <ele>75</ele>
        <time>2015-06-07T09:14:39Z</time>
      </trkpt>
      <trkpt lat="47.85233" lon="-1.76784">
        <ele>75</ele>
        <time>2015-06-07T09:14:40Z</time>
      </trkpt>
      <trkpt lat="47.85226" lon="-1.76783">
        <ele>74</ele>
        <time>2015-06-07T09:14:41Z</time>
      </trkpt>
      <trkpt lat="47.85219" lon="-1.76782">
        <ele>74</ele>
        <time>2015-06-07T09:14:42Z</time>
      </trkpt>
      <trkpt lat="47.85213" lon="-1.76781">
        <ele>74</ele>
        <time>2015-06-07T09:14:43Z</time>
      </trkpt>
      <trkpt lat="47.85205" lon="-1.76781">
        <ele>74</ele>
        <time>2015-06-07T09:14:44Z</time>
      </trkpt>
      <trkpt lat="47.85198" lon="-1.7678">
        <ele>74</ele>
        <time>2015-06-07T09:14:45Z</time>
      </trkpt>
      <trkpt lat="47.8519" lon="-1.76779">
        <ele>73</ele>
        <time>2015-06-07T09:14:46Z</time>
      </trkpt>
      <trkpt lat="47.85183" lon="-1.76778">
        <ele>73</ele>
        <time>2015-06-07T09:14:47Z</time>
      </trkpt>
      <trkpt lat="47.85175" lon="-1.76777">
        <ele>73</ele>
        <time>2015-06-07T09:14:48Z</time>
      </trkpt>
      <trkpt lat="47.85169" lon="-1.76777">
        <ele>72</ele>
        <time>2015-06-07T09:14:49Z</time>
      </trkpt>
      <trkpt lat="47.85164" lon="-1.76778">
        <ele>72</ele>
        <time>2015-06-07T09:14:50Z</time>
      </trkpt>
      <trkpt lat="47.85159" lon="-1.76781">
        <ele>71</ele>
        <time>2015-06-07T09:14:51Z</time>
      </trkpt>
      <trkpt lat="47.85155" lon="-1.76787">
        <ele>71</ele>
        <time>2015-06-07T09:14:52Z</time>
      </trkpt>
      <trkpt lat="47.85153" lon="-1.76796">
        <ele>70</ele>
        <time>2015-06-07T09:14:53Z</time>
      </trkpt>
      <trkpt lat="47.85152" lon="-1.76806">
        <ele>69</ele>
        <time>2015-06-07T09:14:54Z</time>
      </trkpt>
      <trkpt lat="47.85151" lon="-1.76817">
        <ele>68</ele>
        <time>2015-06-07T09:14:55Z</time>
      </trkpt>
      <trkpt lat="47.8515" lon="-1.76828">
        <ele>67</ele>
        <time>2015-06-07T09:14:56Z</time>
      </trkpt>
      <trkpt lat="47.85149" lon="-1.7684">
        <ele>67</ele>
        <time>2015-06-07T09:14:57Z</time>
      </trkpt>
      <trkpt lat="47.8515" lon="-1.76851">
        <ele>66</ele>
        <time>2015-06-07T09:14:58Z</time>
      </trkpt>
      <trkpt lat="47.85151" lon="-1.76861">
        <ele>65</ele>
        <time>2015-06-07T09:14:59Z</time>
      </trkpt>
      <trkpt lat="47.85154" lon="-1.76869">
        <ele>64</ele>
        <time>2015-06-07T09:15:00Z</time>
      </trkpt>
      <trkpt lat="47.85157" lon="-1.76875">
        <ele>63</ele>
        <time>2015-06-07T09:15:01Z</time>
      </trkpt>
      <trkpt lat="47.8516" lon="-1.76879">
        <ele>63</ele>
        <time>2015-06-07T09:15:02Z</time>
      </trkpt>
      <trkpt lat="47.85164" lon="-1.76882">
        <ele>62</ele>
        <time>2015-06-07T09:15:03Z</time>
      </trkpt>
      <trkpt lat="47.85168" lon="-1.76885">
        <ele>62</ele>
        <time>2015-06-07T09:15:04Z</time>
      </trkpt>
      <trkpt lat="47.85171" lon="-1.76887">
        <ele>62</ele>
        <time>2015-06-07T09:15:05Z</time>
      </trkpt>
      <trkpt lat="47.85174" lon="-1.76889">
        <ele>62</ele>
        <time>2015-06-07T09:15:06Z</time>
      </trkpt>
      <trkpt lat="47.85178" lon="-1.76892">
        <ele>62</ele>
        <time>2015-06-07T09:15:07Z</time>
      </trkpt>
      <trkpt lat="47.85182" lon="-1.76895">
        <ele>62</ele>
        <time>2015-06-07T09:15:08Z</time>
      </trkpt>
      <trkpt lat="47.85186" lon="-1.76898">
        <ele>62</ele>
        <time>2015-06-07T09:15:09Z</time>
      </trkpt>
      <trkpt lat="47.8519" lon="-1.76901">
        <ele>62</ele>
        <time>2015-06-07T09:15:10Z</time>
      </trkpt>
      <trkpt lat="47.85194" lon="-1.76904">
        <ele>62</ele>
        <time>2015-06-07T09:15:11Z</time>
      </trkpt>
      <trkpt lat="47.85198" lon="-1.76908">
        <ele>62</ele>
        <time>2015-06-07T09:15:12Z</time>
      </trkpt>
      <trkpt lat="47.85202" lon="-1.76912">
        <ele>62</ele>
        <time>2015-06-07T09:15:13Z</time>
      </trkpt>
      <trkpt lat="47.85205" lon="-1.76917">
        <ele>62</ele>
        <time>2015-06-07T09:15:14Z</time>
      </trkpt>
      <trkpt lat="47.85209" lon="-1.7692">
        <ele>62</ele>
        <time>2015-06-07T09:15:15Z</time>
      </trkpt>
      <trkpt lat="47.85214" lon="-1.76923">
        <ele>62</ele>
        <time>2015-06-07T09:15:16Z</time>
      </trkpt>
      <trkpt lat="47.85218" lon="-1.76926">
        <ele>62</ele>
        <time>2015-06-07T09:15:17Z</time>
      </trkpt>
      <trkpt lat="47.85222" lon="-1.7693">
        <ele>63</ele>
        <time>2015-06-07T09:15:18Z</time>
      </trkpt>
      <trkpt lat="47.85227" lon="-1.76934">
        <ele>63</ele>
        <time>2015-06-07T09:15:19Z</time>
      </trkpt>
      <trkpt lat="47.8523" lon="-1.76938">
        <ele>63</ele>
        <time>2015-06-07T09:15:20Z</time>
      </trkpt>
      <trkpt lat="47.85234" lon="-1.76942">
        <ele>63</ele>
        <time>2015-06-07T09:15:21Z</time>
      </trkpt>
      <trkpt lat="47.85239" lon="-1.76946">
        <ele>63</ele>
        <time>2015-06-07T09:15:22Z</time>
      </trkpt>
      <trkpt lat="47.85243" lon="-1.7695">
        <ele>63</ele>
        <time>2015-06-07T09:15:23Z</time>
      </trkpt>
      <trkpt lat="47.85247" lon="-1.76953">
        <ele>63</ele>
        <time>2015-06-07T09:15:24Z</time>
      </trkpt>
      <trkpt lat="47.85252" lon="-1.76956">
        <ele>63</ele>
        <time>2015-06-07T09:15:25Z</time>
      </trkpt>
      <trkpt lat="47.85256" lon="-1.76958">
        <ele>63</ele>
        <time>2015-06-07T09:15:26Z</time>
      </trkpt>
      <trkpt lat="47.8526" lon="-1.7696">
        <ele>63</ele>
        <time>2015-06-07T09:15:27Z</time>
      </trkpt>
      <trkpt lat="47.85263" lon="-1.76961">
        <ele>63</ele>
        <time>2015-06-07T09:15:28Z</time>
      </trkpt>
      <trkpt lat="47.85265" lon="-1.76961">
        <ele>63</ele>
        <time>2015-06-07T09:15:29Z</time>
      </trkpt>
      <trkpt lat="47.85267" lon="-1.76962">
        <ele>63</ele>
        <time>2015-06-07T09:15:30Z</time>
      </trkpt>
      <trkpt lat="47.85269" lon="-1.76963">
        <ele>63</ele>
        <time>2015-06-07T09:15:31Z</time>
      </trkpt>
      <trkpt lat="47.85271" lon="-1.76964">
        <ele>63</ele>
        <time>2015-06-07T09:15:32Z</time>
      </trkpt>
      <trkpt lat="47.85273" lon="-1.76964">
        <ele>63</ele>
        <time>2015-06-07T09:15:33Z</time>
      </trkpt>
      <trkpt lat="47.85275" lon="-1.76964">
        <ele>64</ele>
        <time>2015-06-07T09:15:34Z</time>
      </trkpt>
      <trkpt lat="47.85277" lon="-1.76964">
        <ele>64</ele>
        <time>2015-06-07T09:15:35Z</time>
      </trkpt>
      <trkpt lat="47.85279" lon="-1.76963">
        <ele>64</ele>
        <time>2015-06-07T09:15:36Z</time>
      </trkpt>
      <trkpt lat="47.8528" lon="-1.76962">
        <ele>64</ele>
        <time>2015-06-07T09:15:37Z</time>
      </trkpt>
      <trkpt lat="47.85282" lon="-1.76963">
        <ele>64</ele>
        <time>2015-06-07T09:15:38Z</time>
      </trkpt>
      <trkpt lat="47.85284" lon="-1.76965">
        <ele>64</ele>
        <time>2015-06-07T09:15:39Z</time>
      </trkpt>
      <trkpt lat="47.85286" lon="-1.76968">
        <ele>64</ele>
        <time>2015-06-07T09:15:40Z</time>
      </trkpt>
      <trkpt lat="47.85289" lon="-1.76971">
        <ele>65</ele>
        <time>2015-06-07T09:15:41Z</time>
      </trkpt>
      <trkpt lat="47.85292" lon="-1.76974">
        <ele>65</ele>
        <time>2015-06-07T09:15:42Z</time>
      </trkpt>
      <trkpt lat="47.85296" lon="-1.76976">
        <ele>65</ele>
        <time>2015-06-07T09:15:43Z</time>
      </trkpt>
      <trkpt lat="47.85299" lon="-1.76977">
        <ele>65</ele>
        <time>2015-06-07T09:15:44Z</time>
      </trkpt>
      <trkpt lat="47.85302" lon="-1.76975">
        <ele>65</ele>
        <time>2015-06-07T09:15:45Z</time>
      </trkpt>
      <trkpt lat="47.85305" lon="-1.76973">
        <ele>66</ele>
        <time>2015-06-07T09:15:46Z</time>
      </trkpt>
      <trkpt lat="47.85306" lon="-1.7697">
        <ele>66</ele>
        <time>2015-06-07T09:15:47Z</time>
      </trkpt>
      <trkpt lat="47.85309" lon="-1.76968">
        <ele>66</ele>
        <time>2015-06-07T09:15:48Z</time>
      </trkpt>
      <trkpt lat="47.8531" lon="-1.76968">
        <ele>66</ele>
        <time>2015-06-07T09:15:49Z</time>
      </trkpt>
      <trkpt lat="47.85313" lon="-1.76967">
        <ele>67</ele>
        <time>2015-06-07T09:15:50Z</time>
      </trkpt>
      <trkpt lat="47.85314" lon="-1.76966">
        <ele>67</ele>
        <time>2015-06-07T09:15:51Z</time>
      </trkpt>
      <trkpt lat="47.85314" lon="-1.76964">
        <ele>67</ele>
        <time>2015-06-07T09:15:52Z</time>
      </trkpt>
      <trkpt lat="47.85315" lon="-1.76962">
        <ele>68</ele>
        <time>2015-06-07T09:15:53Z</time>
      </trkpt>
      <trkpt lat="47.85314" lon="-1.76959">
        <ele>68</ele>
        <time>2015-06-07T09:15:54Z</time>
      </trkpt>
      <trkpt lat="47.85313" lon="-1.76956">
        <ele>68</ele>
        <time>2015-06-07T09:15:55Z</time>
      </trkpt>
      <trkpt lat="47.85312" lon="-1.76953">
        <ele>68</ele>
        <time>2015-06-07T09:15:56Z</time>
      </trkpt>
      <trkpt lat="47.85311" lon="-1.76952">
        <ele>69</ele>
        <time>2015-06-07T09:15:57Z</time>
      </trkpt>
      <trkpt lat="47.8531" lon="-1.76949">
        <ele>69</ele>
        <time>2015-06-07T09:15:58Z</time>
      </trkpt>
      <trkpt lat="47.8531" lon="-1.76946">
        <ele>69</ele>
        <time>2015-06-07T09:15:59Z</time>
      </trkpt>
      <trkpt lat="47.8531" lon="-1.76944">
        <ele>69</ele>
        <time>2015-06-07T09:16:00Z</time>
      </trkpt>
      <trkpt lat="47.85311" lon="-1.7694">
        <ele>69</ele>
        <time>2015-06-07T09:16:01Z</time>
      </trkpt>
      <trkpt lat="47.85312" lon="-1.76939">
        <ele>69</ele>
        <time>2015-06-07T09:16:02Z</time>
      </trkpt>
      <trkpt lat="47.85314" lon="-1.76939">
        <ele>69</ele>
        <time>2015-06-07T09:16:03Z</time>
      </trkpt>
      <trkpt lat="47.85316" lon="-1.76938">
        <ele>69</ele>
        <time>2015-06-07T09:16:04Z</time>
      </trkpt>
      <trkpt lat="47.85318" lon="-1.76937">
        <ele>70</ele>
        <time>2015-06-07T09:16:05Z</time>
      </trkpt>
      <trkpt lat="47.85319" lon="-1.76937">
        <ele>70</ele>
        <time>2015-06-07T09:16:06Z</time>
      </trkpt>
      <trkpt lat="47.85321" lon="-1.76938">
        <ele>70</ele>
        <time>2015-06-07T09:16:07Z</time>
      </trkpt>
      <trkpt lat="47.85322" lon="-1.7694">
        <ele>70</ele>
        <time>2015-06-07T09:16:08Z</time>
      </trkpt>
      <trkpt lat="47.85324" lon="-1.76943">
        <ele>70</ele>
        <time>2015-06-07T09:16:09Z</time>
      </trkpt>
      <trkpt lat="47.85326" lon="-1.76945">
        <ele>70</ele>
        <time>2015-06-07T09:16:10Z</time>
      </trkpt>
      <trkpt lat="47.85328" lon="-1.76947">
        <ele>70</ele>
        <time>2015-06-07T09:16:11Z</time>
      </trkpt>
      <trkpt lat="47.85329" lon="-1.76949">
        <ele>70</ele>
        <time>2015-06-07T09:16:12Z</time>
      </trkpt>
      <trkpt lat="47.8533" lon="-1.76953">
        <ele>70</ele>
        <time>2015-06-07T09:16:13Z</time>
      </trkpt>
      <trkpt lat="47.85331" lon="-1.76957">
        <ele>70</ele>
        <time>2015-06-07T09:16:14Z</time>
      </trkpt>
      <trkpt lat="47.85331" lon="-1.76961">
        <ele>70</ele>
        <time>2015-06-07T09:16:15Z</time>
      </trkpt>
      <trkpt lat="47.8533" lon="-1.76965">
        <ele>70</ele>
        <time>2015-06-07T09:16:16Z</time>
      </trkpt>
      <trkpt lat="47.85328" lon="-1.76968">
        <ele>70</ele>
        <time>2015-06-07T09:16:17Z</time>
      </trkpt>
      <trkpt lat="47.85327" lon="-1.76973">
        <ele>70</ele>
        <time>2015-06-07T09:16:18Z</time>
      </trkpt>
      <trkpt lat="47.85328" lon="-1.76979">
        <ele>70</ele>
        <time>2015-06-07T09:16:19Z</time>
      </trkpt>
      <trkpt lat="47.85329" lon="-1.76984">
        <ele>70</ele>
        <time>2015-06-07T09:16:20Z</time>
      </trkpt>
      <trkpt lat="47.85332" lon="-1.76989">
        <ele>70</ele>
        <time>2015-06-07T09:16:21Z</time>
      </trkpt>
      <trkpt lat="47.85335" lon="-1.76994">
        <ele>70</ele>
        <time>2015-06-07T09:16:22Z</time>
      </trkpt>
      <trkpt lat="47.85338" lon="-1.77">
        <ele>70</ele>
        <time>2015-06-07T09:16:23Z</time>
      </trkpt>
      <trkpt lat="47.8534" lon="-1.77003">
        <ele>70</ele>
        <time>2015-06-07T09:16:24Z</time>
      </trkpt>
      <trkpt lat="47.85343" lon="-1.77005">
        <ele>70</ele>
        <time>2015-06-07T09:16:25Z</time>
      </trkpt>
      <trkpt lat="47.85346" lon="-1.77007">
        <ele>70</ele>
        <time>2015-06-07T09:16:26Z</time>
      </trkpt>
      <trkpt lat="47.85348" lon="-1.7701">
        <ele>70</ele>
        <time>2015-06-07T09:16:27Z</time>
      </trkpt>
      <trkpt lat="47.85351" lon="-1.77011">
        <ele>70</ele>
        <time>2015-06-07T09:16:28Z</time>
      </trkpt>
      <trkpt lat="47.85354" lon="-1.77011">
        <ele>70</ele>
        <time>2015-06-07T09:16:29Z</time>
      </trkpt>
      <trkpt lat="47.85357" lon="-1.77012">
        <ele>70</ele>
        <time>2015-06-07T09:16:30Z</time>
      </trkpt>
      <trkpt lat="47.85359" lon="-1.77014">
        <ele>70</ele>
        <time>2015-06-07T09:16:31Z</time>
      </trkpt>
      <trkpt lat="47.85362" lon="-1.77016">
        <ele>70</ele>
        <time>2015-06-07T09:16:32Z</time>
      </trkpt>
      <trkpt lat="47.85363" lon="-1.7702">
        <ele>70</ele>
        <time>2015-06-07T09:16:33Z</time>
      </trkpt>
      <trkpt lat="47.85365" lon="-1.77024">
        <ele>70</ele>
        <time>2015-06-07T09:16:34Z</time>
      </trkpt>
      <trkpt lat="47.85368" lon="-1.77027">
        <ele>70</ele>
        <time>2015-06-07T09:16:35Z</time>
      </trkpt>
      <trkpt lat="47.8537" lon="-1.77031">
        <ele>70</ele>
        <time>2015-06-07T09:16:36Z</time>
      </trkpt>
      <trkpt lat="47.85372" lon="-1.77033">
        <ele>70</ele>
        <time>2015-06-07T09:16:37Z</time>
      </trkpt>
      <trkpt lat="47.85375" lon="-1.77036">
        <ele>70</ele>
        <time>2015-06-07T09:16:38Z</time>
      </trkpt>
      <trkpt lat="47.85378" lon="-1.77038">
        <ele>70</ele>
        <time>2015-06-07T09:16:39Z</time>
      </trkpt>
      <trkpt lat="47.85381" lon="-1.7704">
        <ele>70</ele>
        <time>2015-06-07T09:16:40Z</time>
      </trkpt>
      <trkpt lat="47.85385" lon="-1.77043">
        <ele>70</ele>
        <time>2015-06-07T09:16:41Z</time>
      </trkpt>
      <trkpt lat="47.85388" lon="-1.77045">
        <ele>69</ele>
        <time>2015-06-07T09:16:42Z</time>
      </trkpt>
      <trkpt lat="47.85391" lon="-1.77049">
        <ele>69</ele>
        <time>2015-06-07T09:16:43Z</time>
      </trkpt>
      <trkpt lat="47.85395" lon="-1.77052">
        <ele>69</ele>
        <time>2015-06-07T09:16:44Z</time>
      </trkpt>
      <trkpt lat="47.85399" lon="-1.77055">
        <ele>69</ele>
        <time>2015-06-07T09:16:45Z</time>
      </trkpt>
      <trkpt lat="47.85403" lon="-1.77056">
        <ele>69</ele>
        <time>2015-06-07T09:16:46Z</time>
      </trkpt>
      <trkpt lat="47.85406" lon="-1.77058">
        <ele>69</ele>
        <time>2015-06-07T09:16:47Z</time>
      </trkpt>
      <trkpt lat="47.85408" lon="-1.77059">
        <ele>69</ele>
        <time>2015-06-07T09:16:48Z</time>
      </trkpt>
      <trkpt lat="47.8541" lon="-1.77061">
        <ele>69</ele>
        <time>2015-06-07T09:16:49Z</time>
      </trkpt>
      <trkpt lat="47.85413" lon="-1.77062">
        <ele>69</ele>
        <time>2015-06-07T09:16:50Z</time>
      </trkpt>
      <trkpt lat="47.85416" lon="-1.77062">
        <ele>70</ele>
        <time>2015-06-07T09:16:51Z</time>
      </trkpt>
      <trkpt lat="47.85418" lon="-1.77062">
        <ele>70</ele>
        <time>2015-06-07T09:16:52Z</time>
      </trkpt>
      <trkpt lat="47.85419" lon="-1.77062">
        <ele>70</ele>
        <time>2015-06-07T09:16:53Z</time>
      </trkpt>
      <trkpt lat="47.85421" lon="-1.77061">
        <ele>70</ele>
        <time>2015-06-07T09:16:54Z</time>
      </trkpt>
      <trkpt lat="47.85422" lon="-1.77059">
        <ele>71</ele>
        <time>2015-06-07T09:16:55Z</time>
      </trkpt>
      <trkpt lat="47.85423" lon="-1.77058">
        <ele>71</ele>
        <time>2015-06-07T09:16:56Z</time>
      </trkpt>
      <trkpt lat="47.85423" lon="-1.77056">
        <ele>71</ele>
        <time>2015-06-07T09:16:57Z</time>
      </trkpt>
      <trkpt lat="47.85424" lon="-1.77054">
        <ele>71</ele>
        <time>2015-06-07T09:16:58Z</time>
      </trkpt>
      <trkpt lat="47.85425" lon="-1.77053">
        <ele>71</ele>
        <time>2015-06-07T09:16:59Z</time>
      </trkpt>
      <trkpt lat="47.85425" lon="-1.77051">
        <ele>72</ele>
        <time>2015-06-07T09:17:00Z</time>
      </trkpt>
      <trkpt lat="47.85426" lon="-1.77049">
        <ele>72</ele>
        <time>2015-06-07T09:17:01Z</time>
      </trkpt>
      <trkpt lat="47.85426" lon="-1.77048">
        <ele>72</ele>
        <time>2015-06-07T09:17:02Z</time>
      </trkpt>
      <trkpt lat="47.85427" lon="-1.77047">
        <ele>72</ele>
        <time>2015-06-07T09:17:03Z</time>
      </trkpt>
      <trkpt lat="47.85427" lon="-1.77045">
        <ele>72</ele>
        <time>2015-06-07T09:17:04Z</time>
      </trkpt>
      <trkpt lat="47.85427" lon="-1.77043">
        <ele>72</ele>
        <time>2015-06-07T09:17:05Z</time>
      </trkpt>
      <trkpt lat="47.85427" lon="-1.77041">
        <ele>72</ele>
        <time>2015-06-07T09:17:06Z</time>
      </trkpt>
      <trkpt lat="47.85427" lon="-1.77039">
        <ele>72</ele>
        <time>2015-06-07T09:17:07Z</time>
      </trkpt>
      <trkpt lat="47.85427" lon="-1.77037">
        <ele>72</ele>
        <time>2015-06-07T09:17:08Z</time>
      </trkpt>
      <trkpt lat="47.85427" lon="-1.77035">
        <ele>73</ele>
        <time>2015-06-07T09:17:09Z</time>
      </trkpt>
      <trkpt lat="47.85427" lon="-1.77033">
        <ele>73</ele>
        <time>2015-06-07T09:17:10Z</time>
      </trkpt>
      <trkpt lat="47.85428" lon="-1.7703">
        <ele>73</ele>
        <time>2015-06-07T09:17:11Z</time>
      </trkpt>
      <trkpt lat="47.85428" lon="-1.77028">
        <ele>73</ele>
        <time>2015-06-07T09:17:12Z</time>
      </trkpt>
      <trkpt lat="47.85428" lon="-1.77025">
        <ele>73</ele>
        <time>2015-06-07T09:17:13Z</time>
      </trkpt>
      <trkpt lat="47.85429" lon="-1.77023">
        <ele>73</ele>
        <time>2015-06-07T09:17:14Z</time>
      </trkpt>
      <trkpt lat="47.85429" lon="-1.77021">
        <ele>73</ele>
        <time>2015-06-07T09:17:15Z</time>
      </trkpt>
      <trkpt lat="47.8543" lon="-1.77019">
        <ele>73</ele>
        <time>2015-06-07T09:17:16Z</time>
      </trkpt>
      <trkpt lat="47.85431" lon="-1.77016">
        <ele>73</ele>
        <time>2015-06-07T09:17:17Z</time>
      </trkpt>
      <trkpt lat="47.85431" lon="-1.77014">
        <ele>73</ele>
        <time>2015-06-07T09:17:18Z</time>
      </trkpt>
      <trkpt lat="47.85432" lon="-1.77011">
        <ele>73</ele>
        <time>2015-06-07T09:17:19Z</time>
      </trkpt>
      <trkpt lat="47.85433" lon="-1.77009">
        <ele>73</ele>
        <time>2015-06-07T09:17:20Z</time>
      </trkpt>
      <trkpt lat="47.85434" lon="-1.77006">
        <ele>73</ele>
        <time>2015-06-07T09:17:21Z</time>
      </trkpt>
      <trkpt lat="47.85434" lon="-1.77004">
        <ele>73</ele>
        <time>2015-06-07T09:17:22Z</time>
      </trkpt>
      <trkpt lat="47.85436" lon="-1.77003">
        <ele>74</ele>
        <time>2015-06-07T09:17:23Z</time>
      </trkpt>
      <trkpt lat="47.85437" lon="-1.77002">
        <ele>74</ele>
        <time>2015-06-07T09:17:24Z</time>
      </trkpt>
      <trkpt lat="47.85439" lon="-1.77003">
        <ele>74</ele>
        <time>2015-06-07T09:17:25Z</time>
      </trkpt>
      <trkpt lat="47.8544" lon="-1.77005">
        <ele>74</ele>
        <time>2015-06-07T09:17:26Z</time>
      </trkpt>
      <trkpt lat="47.85441" lon="-1.77008">
        <ele>74</ele>
        <time>2015-06-07T09:17:27Z</time>
      </trkpt>
      <trkpt lat="47.85443" lon="-1.77011">
        <ele>73</ele>
        <time>2015-06-07T09:17:28Z</time>
      </trkpt>
      <trkpt lat="47.85444" lon="-1.77014">
        <ele>73</ele>
        <time>2015-06-07T09:17:29Z</time>
      </trkpt>
      <trkpt lat="47.85446" lon="-1.77017">
        <ele>73</ele>
        <time>2015-06-07T09:17:30Z</time>
      </trkpt>
      <trkpt lat="47.85446" lon="-1.7702">
        <ele>73</ele>
        <time>2015-06-07T09:17:31Z</time>
      </trkpt>
      <trkpt lat="47.85447" lon="-1.77023">
        <ele>73</ele>
        <time>2015-06-07T09:17:32Z</time>
      </trkpt>
      <trkpt lat="47.85449" lon="-1.77026">
        <ele>73</ele>
        <time>2015-06-07T09:17:33Z</time>
      </trkpt>
      <trkpt lat="47.8545" lon="-1.7703">
        <ele>73</ele>
        <time>2015-06-07T09:17:34Z</time>
      </trkpt>
      <trkpt lat="47.85452" lon="-1.77033">
        <ele>73</ele>
        <time>2015-06-07T09:17:35Z</time>
      </trkpt>
      <trkpt lat="47.85453" lon="-1.77037">
        <ele>73</ele>
        <time>2015-06-07T09:17:36Z</time>
      </trkpt>
      <trkpt lat="47.85455" lon="-1.77041">
        <ele>72</ele>
        <time>2015-06-07T09:17:37Z</time>
      </trkpt>
      <trkpt lat="47.85457" lon="-1.77046">
        <ele>72</ele>
        <time>2015-06-07T09:17:38Z</time>
      </trkpt>
      <trkpt lat="47.8546" lon="-1.77051">
        <ele>72</ele>
        <time>2015-06-07T09:17:39Z</time>
      </trkpt>
      <trkpt lat="47.85462" lon="-1.77056">
        <ele>72</ele>
        <time>2015-06-07T09:17:40Z</time>
      </trkpt>
      <trkpt lat="47.85465" lon="-1.77062">
        <ele>71</ele>
        <time>2015-06-07T09:17:41Z</time>
      </trkpt>
      <trkpt lat="47.85469" lon="-1.77067">
        <ele>71</ele>
        <time>2015-06-07T09:17:42Z</time>
      </trkpt>
      <trkpt lat="47.85473" lon="-1.77073">
        <ele>70</ele>
        <time>2015-06-07T09:17:43Z</time>
      </trkpt>
      <trkpt lat="47.85477" lon="-1.77078">
        <ele>70</ele>
        <time>2015-06-07T09:17:44Z</time>
      </trkpt>
      <trkpt lat="47.85482" lon="-1.77082">
        <ele>70</ele>
        <time>2015-06-07T09:17:45Z</time>
      </trkpt>
      <trkpt lat="47.85487" lon="-1.77086">
        <ele>70</ele>
        <time>2015-06-07T09:17:46Z</time>
      </trkpt>
      <trkpt lat="47.85492" lon="-1.77089">
        <ele>69</ele>
        <time>2015-06-07T09:17:47Z</time>
      </trkpt>
      <trkpt lat="47.85496" lon="-1.77092">
        <ele>69</ele>
        <time>2015-06-07T09:17:48Z</time>
      </trkpt>
      <trkpt lat="47.85501" lon="-1.77093">
        <ele>69</ele>
        <time>2015-06-07T09:17:49Z</time>
      </trkpt>
      <trkpt lat="47.85505" lon="-1.77093">
        <ele>69</ele>
        <time>2015-06-07T09:17:50Z</time>
      </trkpt>
      <trkpt lat="47.85508" lon="-1.77093">
        <ele>69</ele>
        <time>2015-06-07T09:17:51Z</time>
      </trkpt>
      <trkpt lat="47.85511" lon="-1.77093">
        <ele>69</ele>
        <time>2015-06-07T09:17:52Z</time>
      </trkpt>
      <trkpt lat="47.85514" lon="-1.77094">
        <ele>69</ele>
        <time>2015-06-07T09:17:53Z</time>
      </trkpt>
      <trkpt lat="47.85518" lon="-1.77095">
        <ele>69</ele>
        <time>2015-06-07T09:17:54Z</time>
      </trkpt>
      <trkpt lat="47.85521" lon="-1.77095">
        <ele>69</ele>
        <time>2015-06-07T09:17:55Z</time>
      </trkpt>
      <trkpt lat="47.85524" lon="-1.77095">
        <ele>70</ele>
        <time>2015-06-07T09:17:56Z</time>
      </trkpt>
      <trkpt lat="47.85526" lon="-1.77094">
        <ele>70</ele>
        <time>2015-06-07T09:17:57Z</time>
      </trkpt>
      <trkpt lat="47.85529" lon="-1.77092">
        <ele>70</ele>
        <time>2015-06-07T09:17:58Z</time>
      </trkpt>
      <trkpt lat="47.85531" lon="-1.77091">
        <ele>70</ele>
        <time>2015-06-07T09:17:59Z</time>
      </trkpt>
      <trkpt lat="47.85533" lon="-1.77089">
        <ele>70</ele>
        <time>2015-06-07T09:18:00Z</time>
      </trkpt>
      <trkpt lat="47.85535" lon="-1.77089">
        <ele>70</ele>
        <time>2015-06-07T09:18:01Z</time>
      </trkpt>
      <trkpt lat="47.85537" lon="-1.77091">
        <ele>70</ele>
        <time>2015-06-07T09:18:02Z</time>
      </trkpt>
      <trkpt lat="47.85539" lon="-1.77093">
        <ele>70</ele>
        <time>2015-06-07T09:18:03Z</time>
      </trkpt>
      <trkpt lat="47.8554" lon="-1.77096">
        <ele>70</ele>
        <time>2015-06-07T09:18:04Z</time>
      </trkpt>
      <trkpt lat="47.8554" lon="-1.771">
        <ele>70</ele>
        <time>2015-06-07T09:18:05Z</time>
      </trkpt>
      <trkpt lat="47.8554" lon="-1.77104">
        <ele>70</ele>
        <time>2015-06-07T09:18:06Z</time>
      </trkpt>
      <trkpt lat="47.8554" lon="-1.77109">
        <ele>70</ele>
        <time>2015-06-07T09:18:07Z</time>
      </trkpt>
      <trkpt lat="47.85539" lon="-1.77114">
        <ele>70</ele>
        <time>2015-06-07T09:18:08Z</time>
      </trkpt>
      <trkpt lat="47.85539" lon="-1.7712">
        <ele>69</ele>
        <time>2015-06-07T09:18:09Z</time>
      </trkpt>
      <trkpt lat="47.85537" lon="-1.77125">
        <ele>69</ele>
        <time>2015-06-07T09:18:10Z</time>
      </trkpt>
      <trkpt lat="47.85535" lon="-1.77128">
        <ele>69</ele>
        <time>2015-06-07T09:18:11Z</time>
      </trkpt>
      <trkpt lat="47.85533" lon="-1.77129">
        <ele>69</ele>
        <time>2015-06-07T09:18:12Z</time>
      </trkpt>
      <trkpt lat="47.8553" lon="-1.77129">
        <ele>69</ele>
        <time>2015-06-07T09:18:13Z</time>
      </trkpt>
      <trkpt lat="47.85527" lon="-1.77128">
        <ele>69</ele>
        <time>2015-06-07T09:18:14Z</time>
      </trkpt>
      <trkpt lat="47.85522" lon="-1.77128">
        <ele>68</ele>
        <time>2015-06-07T09:18:15Z</time>
      </trkpt>
      <trkpt lat="47.85517" lon="-1.77125">
        <ele>68</ele>
        <time>2015-06-07T09:18:16Z</time>
      </trkpt>
      <trkpt lat="47.85512" lon="-1.77122">
        <ele>68</ele>
        <time>2015-06-07T09:18:17Z</time>
      </trkpt>
      <trkpt lat="47.85508" lon="-1.77117">
        <ele>68</ele>
        <time>2015-06-07T09:18:18Z</time>
      </trkpt>
      <trkpt lat="47.85504" lon="-1.77112">
        <ele>68</ele>
        <time>2015-06-07T09:18:19Z</time>
      </trkpt>
      <trkpt lat="47.855" lon="-1.77108">
        <ele>68</ele>
        <time>2015-06-07T09:18:20Z</time>
      </trkpt>
      <trkpt lat="47.85496" lon="-1.77104">
        <ele>68</ele>
        <time>2015-06-07T09:18:21Z</time>
      </trkpt>
      <trkpt lat="47.85492" lon="-1.771">
        <ele>68</ele>
        <time>2015-06-07T09:18:22Z</time>
      </trkpt>
      <trkpt lat="47.85488" lon="-1.77097">
        <ele>68</ele>
        <time>2015-06-07T09:18:23Z</time>
      </trkpt>
      <trkpt lat="47.85483" lon="-1.77096">
        <ele>68</ele>
        <time>2015-06-07T09:18:24Z</time>
      </trkpt>
      <trkpt lat="47.85478" lon="-1.77096">
        <ele>67</ele>
        <time>2015-06-07T09:18:25Z</time>
      </trkpt>
      <trkpt lat="47.85473" lon="-1.771">
        <ele>67</ele>
        <time>2015-06-07T09:18:26Z</time>
      </trkpt>
      <trkpt lat="47.85467" lon="-1.77107">
        <ele>66</ele>
        <time>2015-06-07T09:18:27Z</time>
      </trkpt>
      <trkpt lat="47.85462" lon="-1.77114">
        <ele>66</ele>
        <time>2015-06-07T09:18:28Z</time>
      </trkpt>
      <trkpt lat="47.85458" lon="-1.77119">
        <ele>66</ele>
        <time>2015-06-07T09:18:29Z</time>
      </trkpt>
      <trkpt lat="47.85456" lon="-1.77125">
        <ele>65</ele>
        <time>2015-06-07T09:18:30Z</time>
      </trkpt>
      <trkpt lat="47.85456" lon="-1.7713">
        <ele>65</ele>
        <time>2015-06-07T09:18:31Z</time>
      </trkpt>
      <trkpt lat="47.85458" lon="-1.77135">
        <ele>65</ele>
        <time>2015-06-07T09:18:32Z</time>
      </trkpt>
      <trkpt lat="47.85461" lon="-1.7714">
        <ele>64</ele>
        <time>2015-06-07T09:18:33Z</time>
      </trkpt>
      <trkpt lat="47.85466" lon="-1.77146">
        <ele>64</ele>
        <time>2015-06-07T09:18:34Z</time>
      </trkpt>
      <trkpt lat="47.85472" lon="-1.77152">
        <ele>63</ele>
        <time>2015-06-07T09:18:35Z</time>
      </trkpt>
      <trkpt lat="47.85477" lon="-1.77157">
        <ele>63</ele>
        <time>2015-06-07T09:18:36Z</time>
      </trkpt>
      <trkpt lat="47.85482" lon="-1.77161">
        <ele>63</ele>
        <time>2015-06-07T09:18:37Z</time>
      </trkpt>
      <trkpt lat="47.85487" lon="-1.77167">
        <ele>62</ele>
        <time>2015-06-07T09:18:38Z</time>
      </trkpt>
      <trkpt lat="47.85491" lon="-1.77173">
        <ele>62</ele>
        <time>2015-06-07T09:18:39Z</time>
      </trkpt>
      <trkpt lat="47.85495" lon="-1.77178">
        <ele>62</ele>
        <time>2015-06-07T09:18:40Z</time>
      </trkpt>
      <trkpt lat="47.85499" lon="-1.77185">
        <ele>61</ele>
        <time>2015-06-07T09:18:41Z</time>
      </trkpt>
      <trkpt lat="47.85502" lon="-1.77193">
        <ele>61</ele>
        <time>2015-06-07T09:18:42Z</time>
      </trkpt>
      <trkpt lat="47.85507" lon="-1.77199">
        <ele>60</ele>
        <time>2015-06-07T09:18:43Z</time>
      </trkpt>
      <trkpt lat="47.85512" lon="-1.77205">
        <ele>60</ele>
        <time>2015-06-07T09:18:44Z</time>
      </trkpt>
      <trkpt lat="47.85515" lon="-1.7721">
        <ele>60</ele>
        <time>2015-06-07T09:18:45Z</time>
      </trkpt>
      <trkpt lat="47.85518" lon="-1.77214">
        <ele>59</ele>
        <time>2015-06-07T09:18:46Z</time>
      </trkpt>
      <trkpt lat="47.85521" lon="-1.77216">
        <ele>59</ele>
        <time>2015-06-07T09:18:47Z</time>
      </trkpt>
      <trkpt lat="47.85523" lon="-1.77218">
        <ele>59</ele>
        <time>2015-06-07T09:18:48Z</time>
      </trkpt>
      <trkpt lat="47.85525" lon="-1.77219">
        <ele>59</ele>
        <time>2015-06-07T09:18:49Z</time>
      </trkpt>
      <trkpt lat="47.85527" lon="-1.7722">
        <ele>59</ele>
        <time>2015-06-07T09:18:50Z</time>
      </trkpt>
      <trkpt lat="47.85529" lon="-1.77222">
        <ele>58</ele>
        <time>2015-06-07T09:18:51Z</time>
      </trkpt>
      <trkpt lat="47.85531" lon="-1.77222">
        <ele>58</ele>
        <time>2015-06-07T09:18:52Z</time>
      </trkpt>
      <trkpt lat="47.85532" lon="-1.77224">
        <ele>58</ele>
        <time>2015-06-07T09:18:53Z</time>
      </trkpt>
      <trkpt lat="47.85534" lon="-1.77225">
        <ele>58</ele>
        <time>2015-06-07T09:18:54Z</time>
      </trkpt>
      <trkpt lat="47.85536" lon="-1.77226">
        <ele>58</ele>
        <time>2015-06-07T09:18:55Z</time>
      </trkpt>
      <trkpt lat="47.85539" lon="-1.77226">
        <ele>58</ele>
        <time>2015-06-07T09:18:56Z</time>
      </trkpt>
      <trkpt lat="47.8554" lon="-1.77224">
        <ele>58</ele>
        <time>2015-06-07T09:18:57Z</time>
      </trkpt>
      <trkpt lat="47.85542" lon="-1.77223">
        <ele>58</ele>
        <time>2015-06-07T09:18:58Z</time>
      </trkpt>
      <trkpt lat="47.85542" lon="-1.77222">
        <ele>59</ele>
        <time>2015-06-07T09:18:59Z</time>
      </trkpt>
      <trkpt lat="47.85542" lon="-1.77221">
        <ele>59</ele>
        <time>2015-06-07T09:19:00Z</time>
      </trkpt>
      <trkpt lat="47.85542" lon="-1.7722">
        <ele>59</ele>
        <time>2015-06-07T09:19:01Z</time>
      </trkpt>
      <trkpt lat="47.85543" lon="-1.77219">
        <ele>59</ele>
        <time>2015-06-07T09:19:02Z</time>
      </trkpt>
      <trkpt lat="47.85544" lon="-1.77217">
        <ele>59</ele>
        <time>2015-06-07T09:19:03Z</time>
      </trkpt>
      <trkpt lat="47.85544" lon="-1.77217">
        <ele>59</ele>
        <time>2015-06-07T09:19:04Z</time>
      </trkpt>
      <trkpt lat="47.85543" lon="-1.77216">
        <ele>60</ele>
        <time>2015-06-07T09:19:05Z</time>
      </trkpt>
      <trkpt lat="47.85542" lon="-1.77214">
        <ele>60</ele>
        <time>2015-06-07T09:19:06Z</time>
      </trkpt>
      <trkpt lat="47.85541" lon="-1.77212">
        <ele>60</ele>
        <time>2015-06-07T09:19:07Z</time>
      </trkpt>
      <trkpt lat="47.8554" lon="-1.7721">
        <ele>60</ele>
        <time>2015-06-07T09:19:08Z</time>
      </trkpt>
      <trkpt lat="47.85539" lon="-1.77209">
        <ele>60</ele>
        <time>2015-06-07T09:19:09Z</time>
      </trkpt>
      <trkpt lat="47.85538" lon="-1.77208">
        <ele>60</ele>
        <time>2015-06-07T09:19:10Z</time>
      </trkpt>
      <trkpt lat="47.85536" lon="-1.77208">
        <ele>60</ele>
        <time>2015-06-07T09:19:11Z</time>
      </trkpt>
      <trkpt lat="47.85535" lon="-1.77207">
        <ele>60</ele>
        <time>2015-06-07T09:19:12Z</time>
      </trkpt>
      <trkpt lat="47.85533" lon="-1.77205">
        <ele>60</ele>
        <time>2015-06-07T09:19:13Z</time>
      </trkpt>
      <trkpt lat="47.85531" lon="-1.77202">
        <ele>60</ele>
        <time>2015-06-07T09:19:14Z</time>
      </trkpt>
      <trkpt lat="47.85531" lon="-1.772">
        <ele>60</ele>
        <time>2015-06-07T09:19:15Z</time>
      </trkpt>
      <trkpt lat="47.85531" lon="-1.77198">
        <ele>60</ele>
        <time>2015-06-07T09:19:16Z</time>
      </trkpt>
      <trkpt lat="47.85532" lon="-1.77197">
        <ele>60</ele>
        <time>2015-06-07T09:19:17Z</time>
      </trkpt>
      <trkpt lat="47.85533" lon="-1.77196">
        <ele>60</ele>
        <time>2015-06-07T09:19:18Z</time>
      </trkpt>
      <trkpt lat="47.85535" lon="-1.77195">
        <ele>61</ele>
        <time>2015-06-07T09:19:19Z</time>
      </trkpt>
      <trkpt lat="47.85536" lon="-1.77194">
        <ele>61</ele>
        <time>2015-06-07T09:19:20Z</time>
      </trkpt>
      <trkpt lat="47.85538" lon="-1.77192">
        <ele>61</ele>
        <time>2015-06-07T09:19:21Z</time>
      </trkpt>
      <trkpt lat="47.85539" lon="-1.77191">
        <ele>61</ele>
        <time>2015-06-07T09:19:22Z</time>
      </trkpt>
      <trkpt lat="47.8554" lon="-1.77189">
        <ele>61</ele>
        <time>2015-06-07T09:19:23Z</time>
      </trkpt>
      <trkpt lat="47.85542" lon="-1.77188">
        <ele>61</ele>
        <time>2015-06-07T09:19:24Z</time>
      </trkpt>
      <trkpt lat="47.85542" lon="-1.77187">
        <ele>61</ele>
        <time>2015-06-07T09:19:25Z</time>
      </trkpt>
      <trkpt lat="47.85542" lon="-1.77185">
        <ele>61</ele>
        <time>2015-06-07T09:19:26Z</time>
      </trkpt>
      <trkpt lat="47.85542" lon="-1.77183">
        <ele>61</ele>
        <time>2015-06-07T09:19:27Z</time>
      </trkpt>
      <trkpt lat="47.85541" lon="-1.77181">
        <ele>62</ele>
        <time>2015-06-07T09:19:28Z</time>
      </trkpt>
      <trkpt lat="47.8554" lon="-1.77179">
        <ele>62</ele>
        <time>2015-06-07T09:19:29Z</time>
      </trkpt>
      <trkpt lat="47.85539" lon="-1.77177">
        <ele>62</ele>
        <time>2015-06-07T09:19:30Z</time>
      </trkpt>
      <trkpt lat="47.85538" lon="-1.77174">
        <ele>62</ele>
        <time>2015-06-07T09:19:31Z</time>
      </trkpt>
      <trkpt lat="47.85537" lon="-1.77172">
        <ele>62</ele>
        <time>2015-06-07T09:19:32Z</time>
      </trkpt>
      <trkpt lat="47.85535" lon="-1.77169">
        <ele>62</ele>
        <time>2015-06-07T09:19:33Z</time>
      </trkpt>
      <trkpt lat="47.85533" lon="-1.77167">
        <ele>62</ele>
        <time>2015-06-07T09:19:34Z</time>
      </trkpt>
      <trkpt lat="47.85531" lon="-1.77164">
        <ele>62</ele>
        <time>2015-06-07T09:19:35Z</time>
      </trkpt>
      <trkpt lat="47.85529" lon="-1.77162">
        <ele>62</ele>
        <time>2015-06-07T09:19:36Z</time>
      </trkpt>
      <trkpt lat="47.85526" lon="-1.7716">
        <ele>62</ele>
        <time>2015-06-07T09:19:37Z</time>
      </trkpt>
      <trkpt lat="47.85523" lon="-1.77158">
        <ele>62</ele>
        <time>2015-06-07T09:19:38Z</time>
      </trkpt>
      <trkpt lat="47.8552" lon="-1.77157">
        <ele>62</ele>
        <time>2015-06-07T09:19:39Z</time>
      </trkpt>
      <trkpt lat="47.85517" lon="-1.77155">
        <ele>62</ele>
        <time>2015-06-07T09:19:40Z</time>
      </trkpt>
      <trkpt lat="47.85514" lon="-1.77152">
        <ele>61</ele>
        <time>2015-06-07T09:19:41Z</time>
      </trkpt>
      <trkpt lat="47.85512" lon="-1.7715">
        <ele>61</ele>
        <time>2015-06-07T09:19:42Z</time>
      </trkpt>
      <trkpt lat="47.8551" lon="-1.77148">
        <ele>61</ele>
        <time>2015-06-07T09:19:43Z</time>
      </trkpt>
      <trkpt lat="47.85508" lon="-1.77146">
        <ele>61</ele>
        <time>2015-06-07T09:19:44Z</time>
      </trkpt>
      <trkpt lat="47.85506" lon="-1.77143">
        <ele>61</ele>
        <time>2015-06-07T09:19:45Z</time>
      </trkpt>
      <trkpt lat="47.85505" lon="-1.77141">
        <ele>61</ele>
        <time>2015-06-07T09:19:46Z</time>
      </trkpt>
      <trkpt lat="47.85505" lon="-1.77141">
        <ele>61</ele>
        <time>2015-06-07T09:19:47Z</time>
      </trkpt>
      <trkpt lat="47.85505" lon="-1.77141">
        <ele>61</ele>
        <time>2015-06-07T09:19:48Z</time>
      </trkpt>
      <trkpt lat="47.85504" lon="-1.77141">
        <ele>61</ele>
        <time>2015-06-07T09:19:49Z</time>
      </trkpt>
      <trkpt lat="47.85504" lon="-1.77141">
        <ele>61</ele>
        <time>2015-06-07T09:19:50Z</time>
      </trkpt>
      <trkpt lat="47.85504" lon="-1.77141">
        <ele>61</ele>
        <time>2015-06-07T09:19:51Z</time>
      </trkpt>
      <trkpt lat="47.85504" lon="-1.77141">
        <ele>61</ele>
        <time>2015-06-07T09:19:52Z</time>
      </trkpt>
      <trkpt lat="47.85504" lon="-1.77141">
        <ele>61</ele>
        <time>2015-06-07T09:19:53Z</time>
      </trkpt>
      <trkpt lat="47.85505" lon="-1.77141">
        <ele>61</ele>
        <time>2015-06-07T09:19:54Z</time>
      </trkpt>
      <trkpt lat="47.85505" lon="-1.77141">
        <ele>61</ele>
        <time>2015-06-07T09:19:55Z</time>
      </trkpt>
      <trkpt lat="47.85505" lon="-1.77141">
        <ele>61</ele>
        <time>2015-06-07T09:19:56Z</time>
      </trkpt>
      <trkpt lat="47.85506" lon="-1.77141">
        <ele>62</ele>
        <time>2015-06-07T09:19:57Z</time>
      </trkpt>
      <trkpt lat="47.85507" lon="-1.7714">
        <ele>62</ele>
        <time>2015-06-07T09:19:58Z</time>
      </trkpt>
      <trkpt lat="47.85507" lon="-1.7714">
        <ele>62</ele>
        <time>2015-06-07T09:19:59Z</time>
      </trkpt>
      <trkpt lat="47.85508" lon="-1.77141">
        <ele>63</ele>
        <time>2015-06-07T09:20:00Z</time>
      </trkpt>
      <trkpt lat="47.85509" lon="-1.77141">
        <ele>63</ele>
        <time>2015-06-07T09:20:01Z</time>
      </trkpt>
      <trkpt lat="47.85511" lon="-1.77142">
        <ele>63</ele>
        <time>2015-06-07T09:20:02Z</time>
      </trkpt>
      <trkpt lat="47.85512" lon="-1.77143">
        <ele>64</ele>
        <time>2015-06-07T09:20:03Z</time>
      </trkpt>
      <trkpt lat="47.85513" lon="-1.77145">
        <ele>64</ele>
        <time>2015-06-07T09:20:04Z</time>
      </trkpt>
      <trkpt lat="47.85514" lon="-1.77147">
        <ele>64</ele>
        <time>2015-06-07T09:20:05Z</time>
      </trkpt>
      <trkpt lat="47.85516" lon="-1.7715">
        <ele>64</ele>
        <time>2015-06-07T09:20:06Z</time>
      </trkpt>
      <trkpt lat="47.85518" lon="-1.77152">
        <ele>64</ele>
        <time>2015-06-07T09:20:07Z</time>
      </trkpt>
      <trkpt lat="47.8552" lon="-1.77152">
        <ele>65</ele>
        <time>2015-06-07T09:20:08Z</time>
      </trkpt>
      <trkpt lat="47.85522" lon="-1.77153">
        <ele>65</ele>
        <time>2015-06-07T09:20:09Z</time>
      </trkpt>
      <trkpt lat="47.85524" lon="-1.77153">
        <ele>66</ele>
        <time>2015-06-07T09:20:10Z</time>
      </trkpt>
      <trkpt lat="47.85526" lon="-1.77153">
        <ele>66</ele>
        <time>2015-06-07T09:20:11Z</time>
      </trkpt>
      <trkpt lat="47.85527" lon="-1.77153">
        <ele>66</ele>
        <time>2015-06-07T09:20:12Z</time>
      </trkpt>
      <trkpt lat="47.85529" lon="-1.77154">
        <ele>67</ele>
        <time>2015-06-07T09:20:13Z</time>
      </trkpt>
      <trkpt lat="47.8553" lon="-1.77155">
        <ele>67</ele>
        <time>2015-06-07T09:20:14Z</time>
      </trkpt>
      <trkpt lat="47.85531" lon="-1.77155">
        <ele>67</ele>
        <time>2015-06-07T09:20:15Z</time>
      </trkpt>
      <trkpt lat="47.85533" lon="-1.77156">
        <ele>67</ele>
        <time>2015-06-07T09:20:16Z</time>
      </trkpt>
      <trkpt lat="47.85535" lon="-1.77158">
        <ele>68</ele>
        <time>2015-06-07T09:20:17Z</time>
      </trkpt>
      <trkpt lat="47.85537" lon="-1.77159">
        <ele>68</ele>
        <time>2015-06-07T09:20:18Z</time>
      </trkpt>
      <trkpt lat="47.85539" lon="-1.77161">
        <ele>68</ele>
        <time>2015-06-07T09:20:19Z</time>
      </trkpt>
      <trkpt lat="47.85541" lon="-1.77164">
        <ele>68</ele>
        <time>2015-06-07T09:20:20Z</time>
      </trkpt>
      <trkpt lat="47.85543" lon="-1.77168">
        <ele>68</ele>
        <time>2015-06-07T09:20:21Z</time>
      </trkpt>
      <trkpt lat="47.85545" lon="-1.77172">
        <ele>67</ele>
        <time>2015-06-07T09:20:22Z</time>
      </trkpt>
      <trkpt lat="47.85545" lon="-1.77177">
        <ele>67</ele>
        <time>2015-06-07T09:20:23Z</time>
      </trkpt>
      <trkpt lat="47.85545" lon="-1.77183">
        <ele>67</ele>
        <time>2015-06-07T09:20:24Z</time>
      </trkpt>
      <trkpt lat="47.85546" lon="-1.77189">
        <ele>67</ele>
        <time>2015-06-07T09:20:25Z</time>
      </trkpt>
      <trkpt lat="47.85547" lon="-1.77196">
        <ele>66</ele>
        <time>2015-06-07T09:20:26Z</time>
      </trkpt>
      <trkpt lat="47.85549" lon="-1.77204">
        <ele>66</ele>
        <time>2015-06-07T09:20:27Z</time>
      </trkpt>
      <trkpt lat="47.8555" lon="-1.77211">
        <ele>66</ele>
        <time>2015-06-07T09:20:28Z</time>
      </trkpt>
      <trkpt lat="47.85551" lon="-1.77219">
        <ele>65</ele>
        <time>2015-06-07T09:20:29Z</time>
      </trkpt>
      <trkpt lat="47.85553" lon="-1.77226">
        <ele>65</ele>
        <time>2015-06-07T09:20:30Z</time>
      </trkpt>
      <trkpt lat="47.85557" lon="-1.77232">
        <ele>65</ele>
        <time>2015-06-07T09:20:31Z</time>
      </trkpt>
      <trkpt lat="47.85562" lon="-1.77236">
        <ele>64</ele>
        <time>2015-06-07T09:20:32Z</time>
      </trkpt>
      <trkpt lat="47.85567" lon="-1.77241">
        <ele>64</ele>
        <time>2015-06-07T09:20:33Z</time>
      </trkpt>
      <trkpt lat="47.85572" lon="-1.77245">
        <ele>64</ele>
        <time>2015-06-07T09:20:34Z</time>
      </trkpt>
      <trkpt lat="47.85575" lon="-1.77248">
        <ele>63</ele>
        <time>2015-06-07T09:20:35Z</time>
      </trkpt>
      <trkpt lat="47.85577" lon="-1.77251">
        <ele>63</ele>
        <time>2015-06-07T09:20:36Z</time>
      </trkpt>
      <trkpt lat="47.85578" lon="-1.77256">
        <ele>63</ele>
        <time>2015-06-07T09:20:37Z</time>
      </trkpt>
      <trkpt lat="47.8558" lon="-1.7726">
        <ele>63</ele>
        <time>2015-06-07T09:20:38Z</time>
      </trkpt>
      <trkpt lat="47.85582" lon="-1.77263">
        <ele>62</ele>
        <time>2015-06-07T09:20:39Z</time>
      </trkpt>
      <trkpt lat="47.85584" lon="-1.77264">
        <ele>62</ele>
        <time>2015-06-07T09:20:40Z</time>
      </trkpt>
      <trkpt lat="47.85587" lon="-1.77266">
        <ele>62</ele>
        <time>2015-06-07T09:20:41Z</time>
      </trkpt>
      <trkpt lat="47.85589" lon="-1.77267">
        <ele>62</ele>
        <time>2015-06-07T09:20:42Z</time>
      </trkpt>
      <trkpt lat="47.85592" lon="-1.77268">
        <ele>61</ele>
        <time>2015-06-07T09:20:43Z</time>
      </trkpt>
      <trkpt lat="47.85596" lon="-1.7727">
        <ele>61</ele>
        <time>2015-06-07T09:20:44Z</time>
      </trkpt>
      <trkpt lat="47.85599" lon="-1.7727">
        <ele>61</ele>
        <time>2015-06-07T09:20:45Z</time>
      </trkpt>
      <trkpt lat="47.85602" lon="-1.77271">
        <ele>60</ele>
        <time>2015-06-07T09:20:46Z</time>
      </trkpt>
      <trkpt lat="47.85605" lon="-1.77272">
        <ele>60</ele>
        <time>2015-06-07T09:20:47Z</time>
      </trkpt>
      <trkpt lat="47.85609" lon="-1.77272">
        <ele>60</ele>
        <time>2015-06-07T09:20:48Z</time>
      </trkpt>
      <trkpt lat="47.85613" lon="-1.77272">
        <ele>60</ele>
        <time>2015-06-07T09:20:49Z</time>
      </trkpt>
      <trkpt lat="47.85617" lon="-1.77273">
        <ele>60</ele>
        <time>2015-06-07T09:20:50Z</time>
      </trkpt>
      <trkpt lat="47.8562" lon="-1.77274">
        <ele>60</ele>
        <time>2015-06-07T09:20:51Z</time>
      </trkpt>
      <trkpt lat="47.85623" lon="-1.77276">
        <ele>59</ele>
        <time>2015-06-07T09:20:52Z</time>
      </trkpt>
      <trkpt lat="47.85626" lon="-1.77276">
        <ele>59</ele>
        <time>2015-06-07T09:20:53Z</time>
      </trkpt>
      <trkpt lat="47.85628" lon="-1.77277">
        <ele>59</ele>
        <time>2015-06-07T09:20:54Z</time>
      </trkpt>
      <trkpt lat="47.8563" lon="-1.77277">
        <ele>59</ele>
        <time>2015-06-07T09:20:55Z</time>
      </trkpt>
      <trkpt lat="47.85632" lon="-1.77276">
        <ele>59</ele>
        <time>2015-06-07T09:20:56Z</time>
      </trkpt>
      <trkpt lat="47.85634" lon="-1.77275">
        <ele>58</ele>
        <time>2015-06-07T09:20:57Z</time>
      </trkpt>
      <trkpt lat="47.85637" lon="-1.77275">
        <ele>58</ele>
        <time>2015-06-07T09:20:58Z</time>
      </trkpt>
      <trkpt lat="47.85639" lon="-1.77276">
        <ele>58</ele>
        <time>2015-06-07T09:20:59Z</time>
      </trkpt>
      <trkpt lat="47.85642" lon="-1.77275">
        <ele>58</ele>
        <time>2015-06-07T09:21:00Z</time>
      </trkpt>
      <trkpt lat="47.85645" lon="-1.77276">
        <ele>58</ele>
        <time>2015-06-07T09:21:01Z</time>
      </trkpt>
      <trkpt lat="47.85649" lon="-1.77277">
        <ele>58</ele>
        <time>2015-06-07T09:21:02Z</time>
      </trkpt>
      <trkpt lat="47.85653" lon="-1.77277">
        <ele>58</ele>
        <time>2015-06-07T09:21:03Z</time>
      </trkpt>
      <trkpt lat="47.85656" lon="-1.77276">
        <ele>58</ele>
        <time>2015-06-07T09:21:04Z</time>
      </trkpt>
      <trkpt lat="47.85658" lon="-1.77274">
        <ele>58</ele>
        <time>2015-06-07T09:21:05Z</time>
      </trkpt>
      <trkpt lat="47.8566" lon="-1.77273">
        <ele>58</ele>
        <time>2015-06-07T09:21:06Z</time>
      </trkpt>
      <trkpt lat="47.85663" lon="-1.77272">
        <ele>58</ele>
        <time>2015-06-07T09:21:07Z</time>
      </trkpt>
      <trkpt lat="47.85666" lon="-1.77272">
        <ele>57</ele>
        <time>2015-06-07T09:21:08Z</time>
      </trkpt>
      <trkpt lat="47.85669" lon="-1.77272">
        <ele>57</ele>
        <time>2015-06-07T09:21:09Z</time>
      </trkpt>
      <trkpt lat="47.85671" lon="-1.77271">
        <ele>57</ele>
        <time>2015-06-07T09:21:10Z</time>
      </trkpt>
      <trkpt lat="47.85673" lon="-1.77269">
        <ele>57</ele>
        <time>2015-06-07T09:21:11Z</time>
      </trkpt>
      <trkpt lat="47.85675" lon="-1.77268">
        <ele>57</ele>
        <time>2015-06-07T09:21:12Z</time>
      </trkpt>
      <trkpt lat="47.85676" lon="-1.77266">
        <ele>57</ele>
        <time>2015-06-07T09:21:13Z</time>
      </trkpt>
      <trkpt lat="47.85678" lon="-1.77264">
        <ele>57</ele>
        <time>2015-06-07T09:21:14Z</time>
      </trkpt>
      <trkpt lat="47.85678" lon="-1.77262">
        <ele>57</ele>
        <time>2015-06-07T09:21:15Z</time>
      </trkpt>
      <trkpt lat="47.85679" lon="-1.77261">
        <ele>56</ele>
        <time>2015-06-07T09:21:16Z</time>
      </trkpt>
      <trkpt lat="47.85679" lon="-1.77259">
        <ele>56</ele>
        <time>2015-06-07T09:21:17Z</time>
      </trkpt>
      <trkpt lat="47.85678" lon="-1.77257">
        <ele>57</ele>
        <time>2015-06-07T09:21:18Z</time>
      </trkpt>
      <trkpt lat="47.85677" lon="-1.77256">
        <ele>57</ele>
        <time>2015-06-07T09:21:19Z</time>
      </trkpt>
      <trkpt lat="47.85676" lon="-1.77254">
        <ele>57</ele>
        <time>2015-06-07T09:21:20Z</time>
      </trkpt>
      <trkpt lat="47.85674" lon="-1.77253">
        <ele>57</ele>
        <time>2015-06-07T09:21:21Z</time>
      </trkpt>
      <trkpt lat="47.85673" lon="-1.77251">
        <ele>57</ele>
        <time>2015-06-07T09:21:22Z</time>
      </trkpt>
      <trkpt lat="47.85672" lon="-1.77249">
        <ele>57</ele>
        <time>2015-06-07T09:21:23Z</time>
      </trkpt>
      <trkpt lat="47.85671" lon="-1.77248">
        <ele>57</ele>
        <time>2015-06-07T09:21:24Z</time>
      </trkpt>
      <trkpt lat="47.8567" lon="-1.77246">
        <ele>57</ele>
        <time>2015-06-07T09:21:25Z</time>
      </trkpt>
      <trkpt lat="47.85669" lon="-1.77243">
        <ele>57</ele>
        <time>2015-06-07T09:21:26Z</time>
      </trkpt>
      <trkpt lat="47.85669" lon="-1.77241">
        <ele>57</ele>
        <time>2015-06-07T09:21:27Z</time>
      </trkpt>
      <trkpt lat="47.8567" lon="-1.77239">
        <ele>57</ele>
        <time>2015-06-07T09:21:28Z</time>
      </trkpt>
      <trkpt lat="47.85671" lon="-1.77237">
        <ele>58</ele>
        <time>2015-06-07T09:21:29Z</time>
      </trkpt>
      <trkpt lat="47.85673" lon="-1.77235">
        <ele>58</ele>
        <time>2015-06-07T09:21:30Z</time>
      </trkpt>
      <trkpt lat="47.85674" lon="-1.77234">
        <ele>58</ele>
        <time>2015-06-07T09:21:31Z</time>
      </trkpt>
      <trkpt lat="47.85676" lon="-1.77233">
        <ele>58</ele>
        <time>2015-06-07T09:21:32Z</time>
      </trkpt>
      <trkpt lat="47.85677" lon="-1.77231">
        <ele>58</ele>
        <time>2015-06-07T09:21:33Z</time>
      </trkpt>
      <trkpt lat="47.85679" lon="-1.7723">
        <ele>58</ele>
        <time>2015-06-07T09:21:34Z</time>
      </trkpt>
      <trkpt lat="47.8568" lon="-1.77228">
        <ele>59</ele>
        <time>2015-06-07T09:21:35Z</time>
      </trkpt>
      <trkpt lat="47.85681" lon="-1.77227">
        <ele>59</ele>
        <time>2015-06-07T09:21:36Z</time>
      </trkpt>
      <trkpt lat="47.85682" lon="-1.77225">
        <ele>59</ele>
        <time>2015-06-07T09:21:37Z</time>
      </trkpt>
      <trkpt lat="47.85683" lon="-1.77223">
        <ele>59</ele>
        <time>2015-06-07T09:21:38Z</time>
      </trkpt>
      <trkpt lat="47.85684" lon="-1.77222">
        <ele>59</ele>
        <time>2015-06-07T09:21:39Z</time>
      </trkpt>
      <trkpt lat="47.85686" lon="-1.77221">
        <ele>59</ele>
        <time>2015-06-07T09:21:40Z</time>
      </trkpt>
      <trkpt lat="47.85687" lon="-1.7722">
        <ele>59</ele>
        <time>2015-06-07T09:21:41Z</time>
      </trkpt>
      <trkpt lat="47.85689" lon="-1.77218">
        <ele>59</ele>
        <time>2015-06-07T09:21:42Z</time>
      </trkpt>
      <trkpt lat="47.8569" lon="-1.77217">
        <ele>59</ele>
        <time>2015-06-07T09:21:43Z</time>
      </trkpt>
      <trkpt lat="47.85691" lon="-1.77216">
        <ele>60</ele>
        <time>2015-06-07T09:21:44Z</time>
      </trkpt>
      <trkpt lat="47.85693" lon="-1.77216">
        <ele>60</ele>
        <time>2015-06-07T09:21:45Z</time>
      </trkpt>
      <trkpt lat="47.85694" lon="-1.77214">
        <ele>60</ele>
        <time>2015-06-07T09:21:46Z</time>
      </trkpt>
      <trkpt lat="47.85694" lon="-1.77213">
        <ele>60</ele>
        <time>2015-06-07T09:21:47Z</time>
      </trkpt>
      <trkpt lat="47.85693" lon="-1.77212">
        <ele>60</ele>
        <time>2015-06-07T09:21:48Z</time>
      </trkpt>
      <trkpt lat="47.85693" lon="-1.77211">
        <ele>60</ele>
        <time>2015-06-07T09:21:49Z</time>
      </trkpt>
      <trkpt lat="47.85692" lon="-1.77211">
        <ele>61</ele>
        <time>2015-06-07T09:21:50Z</time>
      </trkpt>
      <trkpt lat="47.8569" lon="-1.77211">
        <ele>61</ele>
        <time>2015-06-07T09:21:51Z</time>
      </trkpt>
      <trkpt lat="47.85687" lon="-1.77213">
        <ele>61</ele>
        <time>2015-06-07T09:21:52Z</time>
      </trkpt>
      <trkpt lat="47.85685" lon="-1.77214">
        <ele>61</ele>
        <time>2015-06-07T09:21:53Z</time>
      </trkpt>
      <trkpt lat="47.85683" lon="-1.77214">
        <ele>61</ele>
        <time>2015-06-07T09:21:54Z</time>
      </trkpt>
      <trkpt lat="47.85681" lon="-1.77214">
        <ele>61</ele>
        <time>2015-06-07T09:21:55Z</time>
      </trkpt>
      <trkpt lat="47.8568" lon="-1.77214">
        <ele>61</ele>
        <time>2015-06-07T09:21:56Z</time>
      </trkpt>
      <trkpt lat="47.85677" lon="-1.77214">
        <ele>61</ele>
        <time>2015-06-07T09:21:57Z</time>
      </trkpt>
      <trkpt lat="47.85675" lon="-1.77214">
        <ele>61</ele>
        <time>2015-06-07T09:21:58Z</time>
      </trkpt>
      <trkpt lat="47.85673" lon="-1.77214">
        <ele>61</ele>
        <time>2015-06-07T09:21:59Z</time>
      </trkpt>
      <trkpt lat="47.85672" lon="-1.77214">
        <ele>61</ele>
        <time>2015-06-07T09:22:00Z</time>
      </trkpt>
      <trkpt lat="47.8567" lon="-1.77214">
        <ele>61</ele>
        <time>2015-06-07T09:22:01Z</time>
      </trkpt>
      <trkpt lat="47.85669" lon="-1.77213">
        <ele>61</ele>
        <time>2015-06-07T09:22:02Z</time>
      </trkpt>
      <trkpt lat="47.85667" lon="-1.77212">
        <ele>61</ele>
        <time>2015-06-07T09:22:03Z</time>
      </trkpt>
      <trkpt lat="47.85666" lon="-1.7721">
        <ele>61</ele>
        <time>2015-06-07T09:22:04Z</time>
      </trkpt>
      <trkpt lat="47.85665" lon="-1.77209">
        <ele>61</ele>
        <time>2015-06-07T09:22:05Z</time>
      </trkpt>
      <trkpt lat="47.85664" lon="-1.77207">
        <ele>61</ele>
        <time>2015-06-07T09:22:06Z</time>
      </trkpt>
      <trkpt lat="47.85662" lon="-1.77206">
        <ele>61</ele>
        <time>2015-06-07T09:22:07Z</time>
      </trkpt>
      <trkpt lat="47.85661" lon="-1.77205">
        <ele>61</ele>
        <time>2015-06-07T09:22:08Z</time>
      </trkpt>
      <trkpt lat="47.85659" lon="-1.77204">
        <ele>61</ele>
        <time>2015-06-07T09:22:09Z</time>
      </trkpt>
      <trkpt lat="47.85657" lon="-1.77204">
        <ele>61</ele>
        <time>2015-06-07T09:22:10Z</time>
      </trkpt>
      <trkpt lat="47.85654" lon="-1.77203">
        <ele>61</ele>
        <time>2015-06-07T09:22:11Z</time>
      </trkpt>
      <trkpt lat="47.85652" lon="-1.77202">
        <ele>61</ele>
        <time>2015-06-07T09:22:12Z</time>
      </trkpt>
      <trkpt lat="47.8565" lon="-1.77201">
        <ele>61</ele>
        <time>2015-06-07T09:22:13Z</time>
      </trkpt>
      <trkpt lat="47.85647" lon="-1.772">
        <ele>61</ele>
        <time>2015-06-07T09:22:14Z</time>
      </trkpt>
      <trkpt lat="47.85646" lon="-1.77198">
        <ele>61</ele>
        <time>2015-06-07T09:22:15Z</time>
      </trkpt>
      <trkpt lat="47.85643" lon="-1.77196">
        <ele>61</ele>
        <time>2015-06-07T09:22:16Z</time>
      </trkpt>
      <trkpt lat="47.85641" lon="-1.77195">
        <ele>61</ele>
        <time>2015-06-07T09:22:17Z</time>
      </trkpt>
      <trkpt lat="47.8564" lon="-1.77193">
        <ele>61</ele>
        <time>2015-06-07T09:22:18Z</time>
      </trkpt>
      <trkpt lat="47.85638" lon="-1.77191">
        <ele>61</ele>
        <time>2015-06-07T09:22:19Z</time>
      </trkpt>
      <trkpt lat="47.85637" lon="-1.7719">
        <ele>61</ele>
        <time>2015-06-07T09:22:20Z</time>
      </trkpt>
      <trkpt lat="47.85635" lon="-1.77188">
        <ele>61</ele>
        <time>2015-06-07T09:22:21Z</time>
      </trkpt>
      <trkpt lat="47.85633" lon="-1.77187">
        <ele>62</ele>
        <time>2015-06-07T09:22:22Z</time>
      </trkpt>
      <trkpt lat="47.85631" lon="-1.77185">
        <ele>62</ele>
        <time>2015-06-07T09:22:23Z</time>
      </trkpt>
      <trkpt lat="47.8563" lon="-1.77184">
        <ele>62</ele>
        <time>2015-06-07T09:22:24Z</time>
      </trkpt>
      <trkpt lat="47.85629" lon="-1.77182">
        <ele>63</ele>
        <time>2015-06-07T09:22:25Z</time>
      </trkpt>
      <trkpt lat="47.85628" lon="-1.7718">
        <ele>63</ele>
        <time>2015-06-07T09:22:26Z</time>
      </trkpt>
      <trkpt lat="47.85627" lon="-1.77178">
        <ele>63</ele>
        <time>2015-06-07T09:22:27Z</time>
      </trkpt>
      <trkpt lat="47.85626" lon="-1.77176">
        <ele>63</ele>
        <time>2015-06-07T09:22:28Z</time>
      </trkpt>
      <trkpt lat="47.85625" lon="-1.77174">
        <ele>64</ele>
        <time>2015-06-07T09:22:29Z</time>
      </trkpt>
      <trkpt lat="47.85624" lon="-1.77172">
        <ele>64</ele>
        <time>2015-06-07T09:22:30Z</time>
      </trkpt>
      <trkpt lat="47.85624" lon="-1.7717">
        <ele>64</ele>
        <time>2015-06-07T09:22:31Z</time>
      </trkpt>
      <trkpt lat="47.85624" lon="-1.77168">
        <ele>64</ele>
        <time>2015-06-07T09:22:32Z</time>
      </trkpt>
      <trkpt lat="47.85624" lon="-1.77166">
        <ele>65</ele>
        <time>2015-06-07T09:22:33Z</time>
      </trkpt>
      <trkpt lat="47.85624" lon="-1.77164">
        <ele>65</ele>
        <time>2015-06-07T09:22:34Z</time>
      </trkpt>
      <trkpt lat="47.85624" lon="-1.77162">
        <ele>65</ele>
        <time>2015-06-07T09:22:35Z</time>
      </trkpt>
      <trkpt lat="47.85623" lon="-1.7716">
        <ele>65</ele>
        <time>2015-06-07T09:22:36Z</time>
      </trkpt>
      <trkpt lat="47.85623" lon="-1.77158">
        <ele>65</ele>
        <time>2015-06-07T09:22:37Z</time>
      </trkpt>
      <trkpt lat="47.85622" lon="-1.77156">
        <ele>66</ele>
        <time>2015-06-07T09:22:38Z</time>
      </trkpt>
      <trkpt lat="47.85621" lon="-1.77154">
        <ele>66</ele>
        <time>2015-06-07T09:22:39Z</time>
      </trkpt>
      <trkpt lat="47.85621" lon="-1.77153">
        <ele>66</ele>
        <time>2015-06-07T09:22:40Z</time>
      </trkpt>
      <trkpt lat="47.8562" lon="-1.77151">
        <ele>66</ele>
        <time>2015-06-07T09:22:41Z</time>
      </trkpt>
      <trkpt lat="47.8562" lon="-1.7715">
        <ele>67</ele>
        <time>2015-06-07T09:22:42Z</time>
      </trkpt>
      <trkpt lat="47.8562" lon="-1.77149">
        <ele>67</ele>
        <time>2015-06-07T09:22:43Z</time>
      </trkpt>
      <trkpt lat="47.8562" lon="-1.77149">
        <ele>67</ele>
        <time>2015-06-07T09:22:44Z</time>
      </trkpt>
      <trkpt lat="47.85621" lon="-1.77148">
        <ele>67</ele>
        <time>2015-06-07T09:22:45Z</time>
      </trkpt>
      <trkpt lat="47.85621" lon="-1.77148">
        <ele>68</ele>
        <time>2015-06-07T09:22:46Z</time>
      </trkpt>
      <trkpt lat="47.85622" lon="-1.77147">
        <ele>68</ele>
        <time>2015-06-07T09:22:47Z</time>
      </trkpt>
      <trkpt lat="47.85623" lon="-1.77145">
        <ele>69</ele>
        <time>2015-06-07T09:22:48Z</time>
      </trkpt>
      <trkpt lat="47.85624" lon="-1.77144">
        <ele>69</ele>
        <time>2015-06-07T09:22:49Z</time>
      </trkpt>
      <trkpt lat="47.85625" lon="-1.77144">
        <ele>70</ele>
        <time>2015-06-07T09:22:50Z</time>
      </trkpt>
      <trkpt lat="47.85626" lon="-1.77143">
        <ele>70</ele>
        <time>2015-06-07T09:22:51Z</time>
      </trkpt>
      <trkpt lat="47.85627" lon="-1.77145">
        <ele>71</ele>
        <time>2015-06-07T09:22:52Z</time>
      </trkpt>
      <trkpt lat="47.85628" lon="-1.77147">
        <ele>71</ele>
        <time>2015-06-07T09:22:53Z</time>
      </trkpt>
      <trkpt lat="47.8563" lon="-1.7715">
        <ele>71</ele>
        <time>2015-06-07T09:22:54Z</time>
      </trkpt>
      <trkpt lat="47.85633" lon="-1.77153">
        <ele>71</ele>
        <time>2015-06-07T09:22:55Z</time>
      </trkpt>
      <trkpt lat="47.85635" lon="-1.77157">
        <ele>71</ele>
        <time>2015-06-07T09:22:56Z</time>
      </trkpt>
      <trkpt lat="47.85639" lon="-1.7716">
        <ele>71</ele>
        <time>2015-06-07T09:22:57Z</time>
      </trkpt>
      <trkpt lat="47.85642" lon="-1.77163">
        <ele>71</ele>
        <time>2015-06-07T09:22:58Z</time>
      </trkpt>
      <trkpt lat="47.85645" lon="-1.77165">
        <ele>71</ele>
        <time>2015-06-07T09:22:59Z</time>
      </trkpt>
      <trkpt lat="47.85648" lon="-1.77168">
        <ele>71</ele>
        <time>2015-06-07T09:23:00Z</time>
      </trkpt>
      <trkpt lat="47.85652" lon="-1.77169">
        <ele>71</ele>
        <time>2015-06-07T09:23:01Z</time>
      </trkpt>
      <trkpt lat="47.85655" lon="-1.7717">
        <ele>71</ele>
        <time>2015-06-07T09:23:02Z</time>
      </trkpt>
      <trkpt lat="47.85658" lon="-1.77171">
        <ele>71</ele>
        <time>2015-06-07T09:23:03Z</time>
      </trkpt>
      <trkpt lat="47.8566" lon="-1.77174">
        <ele>71</ele>
        <time>2015-06-07T09:23:04Z</time>
      </trkpt>
      <trkpt lat="47.85663" lon="-1.77175">
        <ele>71</ele>
        <time>2015-06-07T09:23:05Z</time>
      </trkpt>
      <trkpt lat="47.85665" lon="-1.77175">
        <ele>71</ele>
        <time>2015-06-07T09:23:06Z</time>
      </trkpt>
      <trkpt lat="47.85667" lon="-1.77176">
        <ele>71</ele>
        <time>2015-06-07T09:23:07Z</time>
      </trkpt>
      <trkpt lat="47.8567" lon="-1.77176">
        <ele>71</ele>
        <time>2015-06-07T09:23:08Z</time>
      </trkpt>
      <trkpt lat="47.85672" lon="-1.77176">
        <ele>71</ele>
        <time>2015-06-07T09:23:09Z</time>
      </trkpt>
      <trkpt lat="47.85674" lon="-1.77176">
        <ele>71</ele>
        <time>2015-06-07T09:23:10Z</time>
      </trkpt>
      <trkpt lat="47.85677" lon="-1.77177">
        <ele>71</ele>
        <time>2015-06-07T09:23:11Z</time>
      </trkpt>
      <trkpt lat="47.85679" lon="-1.77179">
        <ele>71</ele>
        <time>2015-06-07T09:23:12Z</time>
      </trkpt>
      <trkpt lat="47.85682" lon="-1.7718">
        <ele>71</ele>
        <time>2015-06-07T09:23:13Z</time>
      </trkpt>
      <trkpt lat="47.85685" lon="-1.77181">
        <ele>71</ele>
        <time>2015-06-07T09:23:14Z</time>
      </trkpt>
      <trkpt lat="47.85687" lon="-1.77182">
        <ele>70</ele>
        <time>2015-06-07T09:23:15Z</time>
      </trkpt>
      <trkpt lat="47.8569" lon="-1.77183">
        <ele>70</ele>
        <time>2015-06-07T09:23:16Z</time>
      </trkpt>
      <trkpt lat="47.85692" lon="-1.77182">
        <ele>70</ele>
        <time>2015-06-07T09:23:17Z</time>
      </trkpt>
      <trkpt lat="47.85693" lon="-1.7718">
        <ele>70</ele>
        <time>2015-06-07T09:23:18Z</time>
      </trkpt>
      <trkpt lat="47.85695" lon="-1.77177">
        <ele>70</ele>
        <time>2015-06-07T09:23:19Z</time>
      </trkpt>
      <trkpt lat="47.85695" lon="-1.77176">
        <ele>70</ele>
        <time>2015-06-07T09:23:20Z</time>
      </trkpt>
      <trkpt lat="47.85696" lon="-1.77175">
        <ele>70</ele>
        <time>2015-06-07T09:23:21Z</time>
      </trkpt>
      <trkpt lat="47.85697" lon="-1.77174">
        <ele>70</ele>
        <time>2015-06-07T09:23:22Z</time>
      </trkpt>
      <trkpt lat="47.85699" lon="-1.77174">
        <ele>70</ele>
        <time>2015-06-07T09:23:23Z</time>
      </trkpt>
      <trkpt lat="47.85701" lon="-1.77176">
        <ele>70</ele>
        <time>2015-06-07T09:23:24Z</time>
      </trkpt>
      <trkpt lat="47.85703" lon="-1.77177">
        <ele>70</ele>
        <time>2015-06-07T09:23:25Z</time>
      </trkpt>
      <trkpt lat="47.85705" lon="-1.77177">
        <ele>70</ele>
        <time>2015-06-07T09:23:26Z</time>
      </trkpt>
      <trkpt lat="47.85706" lon="-1.77176">
        <ele>70</ele>
        <time>2015-06-07T09:23:27Z</time>
      </trkpt>
      <trkpt lat="47.85708" lon="-1.77174">
        <ele>70</ele>
        <time>2015-06-07T09:23:28Z</time>
      </trkpt>
      <trkpt lat="47.8571" lon="-1.77173">
        <ele>70</ele>
        <time>2015-06-07T09:23:29Z</time>
      </trkpt>
      <trkpt lat="47.85712" lon="-1.77171">
        <ele>70</ele>
        <time>2015-06-07T09:23:30Z</time>
      </trkpt>
      <trkpt lat="47.85714" lon="-1.77171">
        <ele>70</ele>
        <time>2015-06-07T09:23:31Z</time>
      </trkpt>
      <trkpt lat="47.85716" lon="-1.7717">
        <ele>70</ele>
        <time>2015-06-07T09:23:32Z</time>
      </trkpt>
      <trkpt lat="47.85719" lon="-1.77169">
        <ele>70</ele>
        <time>2015-06-07T09:23:33Z</time>
      </trkpt>
      <trkpt lat="47.85722" lon="-1.77168">
        <ele>70</ele>
        <time>2015-06-07T09:23:34Z</time>
      </trkpt>
      <trkpt lat="47.85724" lon="-1.77168">
        <ele>70</ele>
        <time>2015-06-07T09:23:35Z</time>
      </trkpt>
      <trkpt lat="47.85726" lon="-1.77167">
        <ele>70</ele>
        <time>2015-06-07T09:23:36Z</time>
      </trkpt>
      <trkpt lat="47.85728" lon="-1.77167">
        <ele>70</ele>
        <time>2015-06-07T09:23:37Z</time>
      </trkpt>
      <trkpt lat="47.85729" lon="-1.77166">
        <ele>71</ele>
        <time>2015-06-07T09:23:38Z</time>
      </trkpt>
      <trkpt lat="47.85731" lon="-1.77164">
        <ele>71</ele>
        <time>2015-06-07T09:23:39Z</time>
      </trkpt>
      <trkpt lat="47.85732" lon="-1.77162">
        <ele>71</ele>
        <time>2015-06-07T09:23:40Z</time>
      </trkpt>
      <trkpt lat="47.85733" lon="-1.7716">
        <ele>71</ele>
        <time>2015-06-07T09:23:41Z</time>
      </trkpt>
      <trkpt lat="47.85734" lon="-1.77158">
        <ele>72</ele>
        <time>2015-06-07T09:23:42Z</time>
      </trkpt>
      <trkpt lat="47.85735" lon="-1.77156">
        <ele>72</ele>
        <time>2015-06-07T09:23:43Z</time>
      </trkpt>
      <trkpt lat="47.85736" lon="-1.77154">
        <ele>72</ele>
        <time>2015-06-07T09:23:44Z</time>
      </trkpt>
      <trkpt lat="47.85737" lon="-1.77152">
        <ele>73</ele>
        <time>2015-06-07T09:23:45Z</time>
      </trkpt>
      <trkpt lat="47.85737" lon="-1.77151">
        <ele>73</ele>
        <time>2015-06-07T09:23:46Z</time>
      </trkpt>
      <trkpt lat="47.85738" lon="-1.7715">
        <ele>73</ele>
        <time>2015-06-07T09:23:47Z</time>
      </trkpt>
      <trkpt lat="47.85739" lon="-1.77148">
        <ele>73</ele>
        <time>2015-06-07T09:23:48Z</time>
      </trkpt>
      <trkpt lat="47.85739" lon="-1.77146">
        <ele>74</ele>
        <time>2015-06-07T09:23:49Z</time>
      </trkpt>
      <trkpt lat="47.85739" lon="-1.77144">
        <ele>74</ele>
        <time>2015-06-07T09:23:50Z</time>
      </trkpt>
      <trkpt lat="47.85739" lon="-1.77144">
        <ele>74</ele>
        <time>2015-06-07T09:23:51Z</time>
      </trkpt>
      <trkpt lat="47.85739" lon="-1.77142">
        <ele>74</ele>
        <time>2015-06-07T09:23:52Z</time>
      </trkpt>
      <trkpt lat="47.85739" lon="-1.77141">
        <ele>74</ele>
        <time>2015-06-07T09:23:53Z</time>
      </trkpt>
      <trkpt lat="47.85739" lon="-1.77138">
        <ele>75</ele>
        <time>2015-06-07T09:23:54Z</time>
      </trkpt>
      <trkpt lat="47.85739" lon="-1.77137">
        <ele>75</ele>
        <time>2015-06-07T09:23:55Z</time>
      </trkpt>
      <trkpt lat="47.85739" lon="-1.77134">
        <ele>75</ele>
        <time>2015-06-07T09:23:56Z</time>
      </trkpt>
      <trkpt lat="47.8574" lon="-1.77131">
        <ele>75</ele>
        <time>2015-06-07T09:23:57Z</time>
      </trkpt>
      <trkpt lat="47.85741" lon="-1.7713">
        <ele>76</ele>
        <time>2015-06-07T09:23:58Z</time>
      </trkpt>
      <trkpt lat="47.85742" lon="-1.77129">
        <ele>76</ele>
        <time>2015-06-07T09:23:59Z</time>
      </trkpt>
      <trkpt lat="47.85743" lon="-1.77129">
        <ele>76</ele>
        <time>2015-06-07T09:24:00Z</time>
      </trkpt>
      <trkpt lat="47.85745" lon="-1.77129">
        <ele>76</ele>
        <time>2015-06-07T09:24:01Z</time>
      </trkpt>
      <trkpt lat="47.85746" lon="-1.77131">
        <ele>76</ele>
        <time>2015-06-07T09:24:02Z</time>
      </trkpt>
      <trkpt lat="47.85748" lon="-1.77134">
        <ele>76</ele>
        <time>2015-06-07T09:24:03Z</time>
      </trkpt>
      <trkpt lat="47.8575" lon="-1.77138">
        <ele>76</ele>
        <time>2015-06-07T09:24:04Z</time>
      </trkpt>
      <trkpt lat="47.85751" lon="-1.77141">
        <ele>76</ele>
        <time>2015-06-07T09:24:05Z</time>
      </trkpt>
      <trkpt lat="47.85753" lon="-1.77144">
        <ele>76</ele>
        <time>2015-06-07T09:24:06Z</time>
      </trkpt>
      <trkpt lat="47.85755" lon="-1.77145">
        <ele>76</ele>
        <time>2015-06-07T09:24:07Z</time>
      </trkpt>
      <trkpt lat="47.85757" lon="-1.77145">
        <ele>76</ele>
        <time>2015-06-07T09:24:08Z</time>
      </trkpt>
      <trkpt lat="47.85758" lon="-1.77144">
        <ele>76</ele>
        <time>2015-06-07T09:24:09Z</time>
      </trkpt>
      <trkpt lat="47.85759" lon="-1.77142">
        <ele>76</ele>
        <time>2015-06-07T09:24:10Z</time>
      </trkpt>
      <trkpt lat="47.85761" lon="-1.7714">
        <ele>76</ele>
        <time>2015-06-07T09:24:11Z</time>
      </trkpt>
      <trkpt lat="47.85763" lon="-1.77139">
        <ele>77</ele>
        <time>2015-06-07T09:24:12Z</time>
      </trkpt>
      <trkpt lat="47.85765" lon="-1.77139">
        <ele>76</ele>
        <time>2015-06-07T09:24:13Z</time>
      </trkpt>
      <trkpt lat="47.85767" lon="-1.77139">
        <ele>76</ele>
        <time>2015-06-07T09:24:14Z</time>
      </trkpt>
      <trkpt lat="47.85769" lon="-1.77139">
        <ele>76</ele>
        <time>2015-06-07T09:24:15Z</time>
      </trkpt>
      <trkpt lat="47.8577" lon="-1.77138">
        <ele>76</ele>
        <time>2015-06-07T09:24:16Z</time>
      </trkpt>
      <trkpt lat="47.85771" lon="-1.77139">
        <ele>76</ele>
        <time>2015-06-07T09:24:17Z</time>
      </trkpt>
      <trkpt lat="47.85772" lon="-1.77139">
        <ele>76</ele>
        <time>2015-06-07T09:24:18Z</time>
      </trkpt>
      <trkpt lat="47.85773" lon="-1.7714">
        <ele>76</ele>
        <time>2015-06-07T09:24:19Z</time>
      </trkpt>
      <trkpt lat="47.85774" lon="-1.77141">
        <ele>76</ele>
        <time>2015-06-07T09:24:20Z</time>
      </trkpt>
      <trkpt lat="47.85774" lon="-1.77141">
        <ele>76</ele>
        <time>2015-06-07T09:24:21Z</time>
      </trkpt>
      <trkpt lat="47.85774" lon="-1.77143">
        <ele>76</ele>
        <time>2015-06-07T09:24:22Z</time>
      </trkpt>
      <trkpt lat="47.85775" lon="-1.77145">
        <ele>76</ele>
        <time>2015-06-07T09:24:23Z</time>
      </trkpt>
      <trkpt lat="47.85775" lon="-1.77147">
        <ele>76</ele>
        <time>2015-06-07T09:24:24Z</time>
      </trkpt>
      <trkpt lat="47.85775" lon="-1.7715">
        <ele>76</ele>
        <time>2015-06-07T09:24:25Z</time>
      </trkpt>
      <trkpt lat="47.85775" lon="-1.77153">
        <ele>76</ele>
        <time>2015-06-07T09:24:26Z</time>
      </trkpt>
      <trkpt lat="47.85775" lon="-1.77157">
        <ele>76</ele>
        <time>2015-06-07T09:24:27Z</time>
      </trkpt>
      <trkpt lat="47.85775" lon="-1.77162">
        <ele>76</ele>
        <time>2015-06-07T09:24:28Z</time>
      </trkpt>
      <trkpt lat="47.85776" lon="-1.77165">
        <ele>76</ele>
        <time>2015-06-07T09:24:29Z</time>
      </trkpt>
      <trkpt lat="47.85776" lon="-1.77167">
        <ele>75</ele>
        <time>2015-06-07T09:24:30Z</time>
      </trkpt>
      <trkpt lat="47.85775" lon="-1.7717">
        <ele>75</ele>
        <time>2015-06-07T09:24:31Z</time>
      </trkpt>
      <trkpt lat="47.85774" lon="-1.77172">
        <ele>75</ele>
        <time>2015-06-07T09:24:32Z</time>
      </trkpt>
      <trkpt lat="47.85772" lon="-1.77174">
        <ele>75</ele>
        <time>2015-06-07T09:24:33Z</time>
      </trkpt>
      <trkpt lat="47.85771" lon="-1.77178">
        <ele>75</ele>
        <time>2015-06-07T09:24:34Z</time>
      </trkpt>
      <trkpt lat="47.85771" lon="-1.77182">
        <ele>74</ele>
        <time>2015-06-07T09:24:35Z</time>
      </trkpt>
      <trkpt lat="47.85772" lon="-1.77185">
        <ele>74</ele>
        <time>2015-06-07T09:24:36Z</time>
      </trkpt>
      <trkpt lat="47.85774" lon="-1.77186">
        <ele>74</ele>
        <time>2015-06-07T09:24:37Z</time>
      </trkpt>
      <trkpt lat="47.85776" lon="-1.77187">
        <ele>74</ele>
        <time>2015-06-07T09:24:38Z</time>
      </trkpt>
      <trkpt lat="47.85778" lon="-1.77188">
        <ele>73</ele>
        <time>2015-06-07T09:24:39Z</time>
      </trkpt>
      <trkpt lat="47.85779" lon="-1.7719">
        <ele>73</ele>
        <time>2015-06-07T09:24:40Z</time>
      </trkpt>
      <trkpt lat="47.85779" lon="-1.77192">
        <ele>73</ele>
        <time>2015-06-07T09:24:41Z</time>
      </trkpt>
      <trkpt lat="47.85779" lon="-1.77194">
        <ele>73</ele>
        <time>2015-06-07T09:24:42Z</time>
      </trkpt>
      <trkpt lat="47.85778" lon="-1.77196">
        <ele>72</ele>
        <time>2015-06-07T09:24:43Z</time>
      </trkpt>
      <trkpt lat="47.85778" lon="-1.77199">
        <ele>72</ele>
        <time>2015-06-07T09:24:44Z</time>
      </trkpt>
      <trkpt lat="47.85777" lon="-1.77203">
        <ele>72</ele>
        <time>2015-06-07T09:24:45Z</time>
      </trkpt>
      <trkpt lat="47.85777" lon="-1.77207">
        <ele>72</ele>
        <time>2015-06-07T09:24:46Z</time>
      </trkpt>
      <trkpt lat="47.85778" lon="-1.7721">
        <ele>72</ele>
        <time>2015-06-07T09:24:47Z</time>
      </trkpt>
      <trkpt lat="47.85778" lon="-1.77214">
        <ele>71</ele>
        <time>2015-06-07T09:24:48Z</time>
      </trkpt>
      <trkpt lat="47.85778" lon="-1.77217">
        <ele>71</ele>
        <time>2015-06-07T09:24:49Z</time>
      </trkpt>
      <trkpt lat="47.85778" lon="-1.77218">
        <ele>71</ele>
        <time>2015-06-07T09:24:50Z</time>
      </trkpt>
      <trkpt lat="47.85778" lon="-1.77219">
        <ele>70</ele>
        <time>2015-06-07T09:24:51Z</time>
      </trkpt>
      <trkpt lat="47.85778" lon="-1.77219">
        <ele>70</ele>
        <time>2015-06-07T09:24:52Z</time>
      </trkpt>
      <trkpt lat="47.85778" lon="-1.7722">
        <ele>70</ele>
        <time>2015-06-07T09:24:53Z</time>
      </trkpt>
      <trkpt lat="47.85778" lon="-1.7722">
        <ele>70</ele>
        <time>2015-06-07T09:24:54Z</time>
      </trkpt>
      <trkpt lat="47.85778" lon="-1.77221">
        <ele>69</ele>
        <time>2015-06-07T09:24:55Z</time>
      </trkpt>
      <trkpt lat="47.85782" lon="-1.77223">
        <ele>67</ele>
        <time>2015-06-07T09:24:56Z</time>
      </trkpt>
      <trkpt lat="47.85784" lon="-1.77222">
        <ele>67</ele>
        <time>2015-06-07T09:24:57Z</time>
      </trkpt>
      <trkpt lat="47.85784" lon="-1.77221">
        <ele>67</ele>
        <time>2015-06-07T09:24:58Z</time>
      </trkpt>
      <trkpt lat="47.85785" lon="-1.7722">
        <ele>66</ele>
        <time>2015-06-07T09:24:59Z</time>
      </trkpt>
      <trkpt lat="47.85787" lon="-1.77219">
        <ele>66</ele>
        <time>2015-06-07T09:25:00Z</time>
      </trkpt>
      <trkpt lat="47.85788" lon="-1.77217">
        <ele>66</ele>
        <time>2015-06-07T09:25:01Z</time>
      </trkpt>
      <trkpt lat="47.85789" lon="-1.77215">
        <ele>66</ele>
        <time>2015-06-07T09:25:02Z</time>
      </trkpt>
      <trkpt lat="47.85791" lon="-1.77213">
        <ele>66</ele>
        <time>2015-06-07T09:25:03Z</time>
      </trkpt>
      <trkpt lat="47.85791" lon="-1.77212">
        <ele>66</ele>
        <time>2015-06-07T09:25:04Z</time>
      </trkpt>
      <trkpt lat="47.85792" lon="-1.77211">
        <ele>66</ele>
        <time>2015-06-07T09:25:05Z</time>
      </trkpt>
      <trkpt lat="47.85794" lon="-1.77209">
        <ele>65</ele>
        <time>2015-06-07T09:25:06Z</time>
      </trkpt>
      <trkpt lat="47.85795" lon="-1.77207">
        <ele>65</ele>
        <time>2015-06-07T09:25:07Z</time>
      </trkpt>
      <trkpt lat="47.85795" lon="-1.77206">
        <ele>65</ele>
        <time>2015-06-07T09:25:08Z</time>
      </trkpt>
      <trkpt lat="47.85796" lon="-1.77204">
        <ele>65</ele>
        <time>2015-06-07T09:25:09Z</time>
      </trkpt>
      <trkpt lat="47.85797" lon="-1.77202">
        <ele>65</ele>
        <time>2015-06-07T09:25:10Z</time>
      </trkpt>
      <trkpt lat="47.85798" lon="-1.772">
        <ele>65</ele>
        <time>2015-06-07T09:25:11Z</time>
      </trkpt>
      <trkpt lat="47.85798" lon="-1.77198">
        <ele>65</ele>
        <time>2015-06-07T09:25:12Z</time>
      </trkpt>
      <trkpt lat="47.85799" lon="-1.77197">
        <ele>65</ele>
        <time>2015-06-07T09:25:13Z</time>
      </trkpt>
      <trkpt lat="47.858" lon="-1.77196">
        <ele>65</ele>
        <time>2015-06-07T09:25:14Z</time>
      </trkpt>
      <trkpt lat="47.85801" lon="-1.77194">
        <ele>65</ele>
        <time>2015-06-07T09:25:15Z</time>
      </trkpt>
      <trkpt lat="47.85803" lon="-1.77192">
        <ele>65</ele>
        <time>2015-06-07T09:25:16Z</time>
      </trkpt>
      <trkpt lat="47.85804" lon="-1.7719">
        <ele>65</ele>
        <time>2015-06-07T09:25:17Z</time>
      </trkpt>
      <trkpt lat="47.85804" lon="-1.77188">
        <ele>65</ele>
        <time>2015-06-07T09:25:18Z</time>
      </trkpt>
      <trkpt lat="47.85805" lon="-1.77187">
        <ele>65</ele>
        <time>2015-06-07T09:25:19Z</time>
      </trkpt>
      <trkpt lat="47.85806" lon="-1.77185">
        <ele>65</ele>
        <time>2015-06-07T09:25:20Z</time>
      </trkpt>
      <trkpt lat="47.85808" lon="-1.77184">
        <ele>65</ele>
        <time>2015-06-07T09:25:21Z</time>
      </trkpt>
      <trkpt lat="47.85808" lon="-1.77181">
        <ele>65</ele>
        <time>2015-06-07T09:25:22Z</time>
      </trkpt>
      <trkpt lat="47.85809" lon="-1.7718">
        <ele>65</ele>
        <time>2015-06-07T09:25:23Z</time>
      </trkpt>
      <trkpt lat="47.8581" lon="-1.77178">
        <ele>65</ele>
        <time>2015-06-07T09:25:24Z</time>
      </trkpt>
      <trkpt lat="47.85811" lon="-1.77177">
        <ele>65</ele>
        <time>2015-06-07T09:25:25Z</time>
      </trkpt>
      <trkpt lat="47.85812" lon="-1.77175">
        <ele>65</ele>
        <time>2015-06-07T09:25:26Z</time>
      </trkpt>
      <trkpt lat="47.85813" lon="-1.77174">
        <ele>65</ele>
        <time>2015-06-07T09:25:27Z</time>
      </trkpt>
      <trkpt lat="47.85814" lon="-1.77171">
        <ele>65</ele>
        <time>2015-06-07T09:25:28Z</time>
      </trkpt>
      <trkpt lat="47.85815" lon="-1.7717">
        <ele>66</ele>
        <time>2015-06-07T09:25:29Z</time>
      </trkpt>
      <trkpt lat="47.85816" lon="-1.77168">
        <ele>66</ele>
        <time>2015-06-07T09:25:30Z</time>
      </trkpt>
      <trkpt lat="47.85818" lon="-1.77166">
        <ele>66</ele>
        <time>2015-06-07T09:25:31Z</time>
      </trkpt>
      <trkpt lat="47.85819" lon="-1.77164">
        <ele>66</ele>
        <time>2015-06-07T09:25:32Z</time>
      </trkpt>
      <trkpt lat="47.8582" lon="-1.77161">
        <ele>66</ele>
        <time>2015-06-07T09:25:33Z</time>
      </trkpt>
      <trkpt lat="47.85821" lon="-1.7716">
        <ele>66</ele>
        <time>2015-06-07T09:25:34Z</time>
      </trkpt>
      <trkpt lat="47.85822" lon="-1.77158">
        <ele>67</ele>
        <time>2015-06-07T09:25:35Z</time>
      </trkpt>
      <trkpt lat="47.85822" lon="-1.77155">
        <ele>67</ele>
        <time>2015-06-07T09:25:36Z</time>
      </trkpt>
      <trkpt lat="47.85823" lon="-1.77153">
        <ele>67</ele>
        <time>2015-06-07T09:25:37Z</time>
      </trkpt>
      <trkpt lat="47.85824" lon="-1.77152">
        <ele>67</ele>
        <time>2015-06-07T09:25:38Z</time>
      </trkpt>
      <trkpt lat="47.85824" lon="-1.7715">
        <ele>67</ele>
        <time>2015-06-07T09:25:39Z</time>
      </trkpt>
      <trkpt lat="47.85825" lon="-1.77148">
        <ele>68</ele>
        <time>2015-06-07T09:25:40Z</time>
      </trkpt>
      <trkpt lat="47.85825" lon="-1.77145">
        <ele>68</ele>
        <time>2015-06-07T09:25:41Z</time>
      </trkpt>
      <trkpt lat="47.85826" lon="-1.77143">
        <ele>68</ele>
        <time>2015-06-07T09:25:42Z</time>
      </trkpt>
      <trkpt lat="47.85826" lon="-1.77141">
        <ele>68</ele>
        <time>2015-06-07T09:25:43Z</time>
      </trkpt>
      <trkpt lat="47.85827" lon="-1.77138">
        <ele>68</ele>
        <time>2015-06-07T09:25:44Z</time>
      </trkpt>
      <trkpt lat="47.85827" lon="-1.77137">
        <ele>68</ele>
        <time>2015-06-07T09:25:45Z</time>
      </trkpt>
      <trkpt lat="47.85828" lon="-1.77135">
        <ele>68</ele>
        <time>2015-06-07T09:25:46Z</time>
      </trkpt>
      <trkpt lat="47.85829" lon="-1.77133">
        <ele>69</ele>
        <time>2015-06-07T09:25:47Z</time>
      </trkpt>
      <trkpt lat="47.8583" lon="-1.77131">
        <ele>69</ele>
        <time>2015-06-07T09:25:48Z</time>
      </trkpt>
      <trkpt lat="47.85831" lon="-1.77129">
        <ele>69</ele>
        <time>2015-06-07T09:25:49Z</time>
      </trkpt>
      <trkpt lat="47.85831" lon="-1.77127">
        <ele>69</ele>
        <time>2015-06-07T09:25:50Z</time>
      </trkpt>
      <trkpt lat="47.85832" lon="-1.77126">
        <ele>69</ele>
        <time>2015-06-07T09:25:51Z</time>
      </trkpt>
      <trkpt lat="47.85833" lon="-1.77124">
        <ele>69</ele>
        <time>2015-06-07T09:25:52Z</time>
      </trkpt>
      <trkpt lat="47.85834" lon="-1.77121">
        <ele>69</ele>
        <time>2015-06-07T09:25:53Z</time>
      </trkpt>
      <trkpt lat="47.85835" lon="-1.77119">
        <ele>70</ele>
        <time>2015-06-07T09:25:54Z</time>
      </trkpt>
      <trkpt lat="47.85836" lon="-1.77117">
        <ele>70</ele>
        <time>2015-06-07T09:25:55Z</time>
      </trkpt>
      <trkpt lat="47.85837" lon="-1.77115">
        <ele>70</ele>
        <time>2015-06-07T09:25:56Z</time>
      </trkpt>
      <trkpt lat="47.85837" lon="-1.77113">
        <ele>70</ele>
        <time>2015-06-07T09:25:57Z</time>
      </trkpt>
      <trkpt lat="47.85837" lon="-1.77111">
        <ele>71</ele>
        <time>2015-06-07T09:25:58Z</time>
      </trkpt>
      <trkpt lat="47.85837" lon="-1.77109">
        <ele>71</ele>
        <time>2015-06-07T09:25:59Z</time>
      </trkpt>
      <trkpt lat="47.85837" lon="-1.77108">
        <ele>71</ele>
        <time>2015-06-07T09:26:00Z</time>
      </trkpt>
      <trkpt lat="47.85837" lon="-1.77106">
        <ele>71</ele>
        <time>2015-06-07T09:26:01Z</time>
      </trkpt>
      <trkpt lat="47.85836" lon="-1.77106">
        <ele>71</ele>
        <time>2015-06-07T09:26:02Z</time>
      </trkpt>
      <trkpt lat="47.85835" lon="-1.77105">
        <ele>71</ele>
        <time>2015-06-07T09:26:03Z</time>
      </trkpt>
      <trkpt lat="47.85835" lon="-1.77103">
        <ele>71</ele>
        <time>2015-06-07T09:26:04Z</time>
      </trkpt>
      <trkpt lat="47.85833" lon="-1.77102">
        <ele>72</ele>
        <time>2015-06-07T09:26:05Z</time>
      </trkpt>
      <trkpt lat="47.85832" lon="-1.77101">
        <ele>72</ele>
        <time>2015-06-07T09:26:06Z</time>
      </trkpt>
      <trkpt lat="47.85831" lon="-1.77101">
        <ele>72</ele>
        <time>2015-06-07T09:26:07Z</time>
      </trkpt>
      <trkpt lat="47.85829" lon="-1.77101">
        <ele>72</ele>
        <time>2015-06-07T09:26:08Z</time>
      </trkpt>
      <trkpt lat="47.85828" lon="-1.771">
        <ele>72</ele>
        <time>2015-06-07T09:26:09Z</time>
      </trkpt>
      <trkpt lat="47.85826" lon="-1.77098">
        <ele>72</ele>
        <time>2015-06-07T09:26:10Z</time>
      </trkpt>
      <trkpt lat="47.85825" lon="-1.77097">
        <ele>72</ele>
        <time>2015-06-07T09:26:11Z</time>
      </trkpt>
      <trkpt lat="47.85824" lon="-1.77095">
        <ele>72</ele>
        <time>2015-06-07T09:26:12Z</time>
      </trkpt>
      <trkpt lat="47.85823" lon="-1.77094">
        <ele>72</ele>
        <time>2015-06-07T09:26:13Z</time>
      </trkpt>
      <trkpt lat="47.85822" lon="-1.77092">
        <ele>72</ele>
        <time>2015-06-07T09:26:14Z</time>
      </trkpt>
      <trkpt lat="47.85821" lon="-1.7709">
        <ele>72</ele>
        <time>2015-06-07T09:26:15Z</time>
      </trkpt>
      <trkpt lat="47.85821" lon="-1.77088">
        <ele>73</ele>
        <time>2015-06-07T09:26:16Z</time>
      </trkpt>
      <trkpt lat="47.85821" lon="-1.77085">
        <ele>73</ele>
        <time>2015-06-07T09:26:17Z</time>
      </trkpt>
      <trkpt lat="47.85822" lon="-1.77083">
        <ele>73</ele>
        <time>2015-06-07T09:26:18Z</time>
      </trkpt>
      <trkpt lat="47.85822" lon="-1.77081">
        <ele>73</ele>
        <time>2015-06-07T09:26:19Z</time>
      </trkpt>
      <trkpt lat="47.85823" lon="-1.77079">
        <ele>73</ele>
        <time>2015-06-07T09:26:20Z</time>
      </trkpt>
      <trkpt lat="47.85823" lon="-1.77078">
        <ele>74</ele>
        <time>2015-06-07T09:26:21Z</time>
      </trkpt>
      <trkpt lat="47.85824" lon="-1.77076">
        <ele>74</ele>
        <time>2015-06-07T09:26:22Z</time>
      </trkpt>
      <trkpt lat="47.85825" lon="-1.77075">
        <ele>74</ele>
        <time>2015-06-07T09:26:23Z</time>
      </trkpt>
      <trkpt lat="47.85825" lon="-1.77072">
        <ele>74</ele>
        <time>2015-06-07T09:26:24Z</time>
      </trkpt>
      <trkpt lat="47.85825" lon="-1.7707">
        <ele>74</ele>
        <time>2015-06-07T09:26:25Z</time>
      </trkpt>
      <trkpt lat="47.85825" lon="-1.77067">
        <ele>74</ele>
        <time>2015-06-07T09:26:26Z</time>
      </trkpt>
      <trkpt lat="47.85826" lon="-1.77065">
        <ele>75</ele>
        <time>2015-06-07T09:26:27Z</time>
      </trkpt>
      <trkpt lat="47.85827" lon="-1.77065">
        <ele>75</ele>
        <time>2015-06-07T09:26:28Z</time>
      </trkpt>
      <trkpt lat="47.85828" lon="-1.77066">
        <ele>75</ele>
        <time>2015-06-07T09:26:29Z</time>
      </trkpt>
      <trkpt lat="47.85828" lon="-1.77068">
        <ele>75</ele>
        <time>2015-06-07T09:26:30Z</time>
      </trkpt>
      <trkpt lat="47.85828" lon="-1.77069">
        <ele>75</ele>
        <time>2015-06-07T09:26:31Z</time>
      </trkpt>
      <trkpt lat="47.85827" lon="-1.77071">
        <ele>75</ele>
        <time>2015-06-07T09:26:32Z</time>
      </trkpt>
      <trkpt lat="47.85827" lon="-1.77073">
        <ele>75</ele>
        <time>2015-06-07T09:26:33Z</time>
      </trkpt>
      <trkpt lat="47.85828" lon="-1.77075">
        <ele>75</ele>
        <time>2015-06-07T09:26:34Z</time>
      </trkpt>
      <trkpt lat="47.85829" lon="-1.77076">
        <ele>75</ele>
        <time>2015-06-07T09:26:35Z</time>
      </trkpt>
      <trkpt lat="47.8583" lon="-1.77074">
        <ele>74</ele>
        <time>2015-06-07T09:26:36Z</time>
      </trkpt>
      <trkpt lat="47.85831" lon="-1.77072">
        <ele>74</ele>
        <time>2015-06-07T09:26:37Z</time>
      </trkpt>
      <trkpt lat="47.85833" lon="-1.7707">
        <ele>74</ele>
        <time>2015-06-07T09:26:38Z</time>
      </trkpt>
      <trkpt lat="47.85834" lon="-1.77067">
        <ele>74</ele>
        <time>2015-06-07T09:26:39Z</time>
      </trkpt>
      <trkpt lat="47.85835" lon="-1.77063">
        <ele>74</ele>
        <time>2015-06-07T09:26:40Z</time>
      </trkpt>
      <trkpt lat="47.85837" lon="-1.77061">
        <ele>74</ele>
        <time>2015-06-07T09:26:41Z</time>
      </trkpt>
      <trkpt lat="47.85839" lon="-1.77059">
        <ele>74</ele>
        <time>2015-06-07T09:26:42Z</time>
      </trkpt>
      <trkpt lat="47.85841" lon="-1.77059">
        <ele>74</ele>
        <time>2015-06-07T09:26:43Z</time>
      </trkpt>
      <trkpt lat="47.85843" lon="-1.77061">
        <ele>74</ele>
        <time>2015-06-07T09:26:44Z</time>
      </trkpt>
      <trkpt lat="47.85844" lon="-1.77063">
        <ele>74</ele>
        <time>2015-06-07T09:26:45Z</time>
      </trkpt>
      <trkpt lat="47.85846" lon="-1.77064">
        <ele>74</ele>
        <time>2015-06-07T09:26:46Z</time>
      </trkpt>
      <trkpt lat="47.85847" lon="-1.77063">
        <ele>74</ele>
        <time>2015-06-07T09:26:47Z</time>
      </trkpt>
      <trkpt lat="47.85848" lon="-1.77062">
        <ele>74</ele>
        <time>2015-06-07T09:26:48Z</time>
      </trkpt>
      <trkpt lat="47.8585" lon="-1.77062">
        <ele>73</ele>
        <time>2015-06-07T09:26:49Z</time>
      </trkpt>
      <trkpt lat="47.85852" lon="-1.77064">
        <ele>73</ele>
        <time>2015-06-07T09:26:50Z</time>
      </trkpt>
      <trkpt lat="47.85854" lon="-1.77067">
        <ele>73</ele>
        <time>2015-06-07T09:26:51Z</time>
      </trkpt>
      <trkpt lat="47.85856" lon="-1.77068">
        <ele>73</ele>
        <time>2015-06-07T09:26:52Z</time>
      </trkpt>
      <trkpt lat="47.85859" lon="-1.77066">
        <ele>73</ele>
        <time>2015-06-07T09:26:53Z</time>
      </trkpt>
      <trkpt lat="47.85862" lon="-1.77064">
        <ele>73</ele>
        <time>2015-06-07T09:26:54Z</time>
      </trkpt>
      <trkpt lat="47.85863" lon="-1.77063">
        <ele>73</ele>
        <time>2015-06-07T09:26:55Z</time>
      </trkpt>
      <trkpt lat="47.85864" lon="-1.77061">
        <ele>72</ele>
        <time>2015-06-07T09:26:56Z</time>
      </trkpt>
      <trkpt lat="47.85865" lon="-1.77058">
        <ele>72</ele>
        <time>2015-06-07T09:26:57Z</time>
      </trkpt>
      <trkpt lat="47.85865" lon="-1.77056">
        <ele>72</ele>
        <time>2015-06-07T09:26:58Z</time>
      </trkpt>
      <trkpt lat="47.85864" lon="-1.77052">
        <ele>72</ele>
        <time>2015-06-07T09:26:59Z</time>
      </trkpt>
      <trkpt lat="47.85862" lon="-1.77049">
        <ele>72</ele>
        <time>2015-06-07T09:27:00Z</time>
      </trkpt>
      <trkpt lat="47.8586" lon="-1.77048">
        <ele>72</ele>
        <time>2015-06-07T09:27:01Z</time>
      </trkpt>
      <trkpt lat="47.85858" lon="-1.77048">
        <ele>72</ele>
        <time>2015-06-07T09:27:02Z</time>
      </trkpt>
      <trkpt lat="47.85856" lon="-1.77047">
        <ele>72</ele>
        <time>2015-06-07T09:27:03Z</time>
      </trkpt>
      <trkpt lat="47.85854" lon="-1.77047">
        <ele>72</ele>
        <time>2015-06-07T09:27:04Z</time>
      </trkpt>
      <trkpt lat="47.85851" lon="-1.77046">
        <ele>72</ele>
        <time>2015-06-07T09:27:05Z</time>
      </trkpt>
      <trkpt lat="47.85849" lon="-1.77045">
        <ele>73</ele>
        <time>2015-06-07T09:27:06Z</time>
      </trkpt>
      <trkpt lat="47.85847" lon="-1.77044">
        <ele>73</ele>
        <time>2015-06-07T09:27:07Z</time>
      </trkpt>
      <trkpt lat="47.85845" lon="-1.77043">
        <ele>73</ele>
        <time>2015-06-07T09:27:08Z</time>
      </trkpt>
      <trkpt lat="47.85843" lon="-1.77042">
        <ele>73</ele>
        <time>2015-06-07T09:27:09Z</time>
      </trkpt>
      <trkpt lat="47.85841" lon="-1.77041">
        <ele>73</ele>
        <time>2015-06-07T09:27:10Z</time>
      </trkpt>
      <trkpt lat="47.85838" lon="-1.77039">
        <ele>73</ele>
        <time>2015-06-07T09:27:11Z</time>
      </trkpt>
      <trkpt lat="47.85836" lon="-1.77038">
        <ele>73</ele>
        <time>2015-06-07T09:27:12Z</time>
      </trkpt>
      <trkpt lat="47.85834" lon="-1.77038">
        <ele>73</ele>
        <time>2015-06-07T09:27:13Z</time>
      </trkpt>
      <trkpt lat="47.85832" lon="-1.77037">
        <ele>73</ele>
        <time>2015-06-07T09:27:14Z</time>
      </trkpt>
      <trkpt lat="47.8583" lon="-1.77036">
        <ele>74</ele>
        <time>2015-06-07T09:27:15Z</time>
      </trkpt>
      <trkpt lat="47.85828" lon="-1.77035">
        <ele>74</ele>
        <time>2015-06-07T09:27:16Z</time>
      </trkpt>
      <trkpt lat="47.85826" lon="-1.77033">
        <ele>74</ele>
        <time>2015-06-07T09:27:17Z</time>
      </trkpt>
      <trkpt lat="47.85824" lon="-1.77032">
        <ele>74</ele>
        <time>2015-06-07T09:27:18Z</time>
      </trkpt>
      <trkpt lat="47.85821" lon="-1.7703">
        <ele>75</ele>
        <time>2015-06-07T09:27:19Z</time>
      </trkpt>
      <trkpt lat="47.85819" lon="-1.77028">
        <ele>75</ele>
        <time>2015-06-07T09:27:20Z</time>
      </trkpt>
      <trkpt lat="47.85817" lon="-1.77026">
        <ele>75</ele>
        <time>2015-06-07T09:27:21Z</time>
      </trkpt>
      <trkpt lat="47.85815" lon="-1.77024">
        <ele>75</ele>
        <time>2015-06-07T09:27:22Z</time>
      </trkpt>
      <trkpt lat="47.85813" lon="-1.77022">
        <ele>75</ele>
        <time>2015-06-07T09:27:23Z</time>
      </trkpt>
      <trkpt lat="47.85811" lon="-1.7702">
        <ele>75</ele>
        <time>2015-06-07T09:27:24Z</time>
      </trkpt>
      <trkpt lat="47.85809" lon="-1.77016">
        <ele>76</ele>
        <time>2015-06-07T09:27:25Z</time>
      </trkpt>
      <trkpt lat="47.85808" lon="-1.77014">
        <ele>76</ele>
        <time>2015-06-07T09:27:26Z</time>
      </trkpt>
      <trkpt lat="47.85806" lon="-1.7701">
        <ele>76</ele>
        <time>2015-06-07T09:27:27Z</time>
      </trkpt>
      <trkpt lat="47.85805" lon="-1.77007">
        <ele>76</ele>
        <time>2015-06-07T09:27:28Z</time>
      </trkpt>
      <trkpt lat="47.85804" lon="-1.77003">
        <ele>76</ele>
        <time>2015-06-07T09:27:29Z</time>
      </trkpt>
      <trkpt lat="47.85803" lon="-1.77">
        <ele>76</ele>
        <time>2015-06-07T09:27:30Z</time>
      </trkpt>
      <trkpt lat="47.85802" lon="-1.76996">
        <ele>76</ele>
        <time>2015-06-07T09:27:31Z</time>
      </trkpt>
      <trkpt lat="47.85801" lon="-1.76993">
        <ele>76</ele>
        <time>2015-06-07T09:27:32Z</time>
      </trkpt>
      <trkpt lat="47.85801" lon="-1.76989">
        <ele>76</ele>
        <time>2015-06-07T09:27:33Z</time>
      </trkpt>
      <trkpt lat="47.85801" lon="-1.76985">
        <ele>76</ele>
        <time>2015-06-07T09:27:34Z</time>
      </trkpt>
      <trkpt lat="47.858" lon="-1.76981">
        <ele>76</ele>
        <time>2015-06-07T09:27:35Z</time>
      </trkpt>
      <trkpt lat="47.85799" lon="-1.76977">
        <ele>76</ele>
        <time>2015-06-07T09:27:36Z</time>
      </trkpt>
      <trkpt lat="47.85798" lon="-1.76974">
        <ele>76</ele>
        <time>2015-06-07T09:27:37Z</time>
      </trkpt>
      <trkpt lat="47.85798" lon="-1.76971">
        <ele>76</ele>
        <time>2015-06-07T09:27:38Z</time>
      </trkpt>
      <trkpt lat="47.85797" lon="-1.76967">
        <ele>77</ele>
        <time>2015-06-07T09:27:39Z</time>
      </trkpt>
      <trkpt lat="47.85798" lon="-1.76964">
        <ele>77</ele>
        <time>2015-06-07T09:27:40Z</time>
      </trkpt>
      <trkpt lat="47.85797" lon="-1.7696">
        <ele>77</ele>
        <time>2015-06-07T09:27:41Z</time>
      </trkpt>
      <trkpt lat="47.85798" lon="-1.76957">
        <ele>78</ele>
        <time>2015-06-07T09:27:42Z</time>
      </trkpt>
      <trkpt lat="47.85798" lon="-1.76954">
        <ele>78</ele>
        <time>2015-06-07T09:27:43Z</time>
      </trkpt>
      <trkpt lat="47.85797" lon="-1.76951">
        <ele>78</ele>
        <time>2015-06-07T09:27:44Z</time>
      </trkpt>
      <trkpt lat="47.85797" lon="-1.76948">
        <ele>79</ele>
        <time>2015-06-07T09:27:45Z</time>
      </trkpt>
      <trkpt lat="47.85797" lon="-1.76945">
        <ele>79</ele>
        <time>2015-06-07T09:27:46Z</time>
      </trkpt>
      <trkpt lat="47.85798" lon="-1.76942">
        <ele>80</ele>
        <time>2015-06-07T09:27:47Z</time>
      </trkpt>
      <trkpt lat="47.85798" lon="-1.76938">
        <ele>80</ele>
        <time>2015-06-07T09:27:48Z</time>
      </trkpt>
      <trkpt lat="47.85797" lon="-1.76935">
        <ele>80</ele>
        <time>2015-06-07T09:27:49Z</time>
      </trkpt>
      <trkpt lat="47.85798" lon="-1.76931">
        <ele>81</ele>
        <time>2015-06-07T09:27:50Z</time>
      </trkpt>
      <trkpt lat="47.85798" lon="-1.76927">
        <ele>81</ele>
        <time>2015-06-07T09:27:51Z</time>
      </trkpt>
      <trkpt lat="47.85798" lon="-1.76923">
        <ele>82</ele>
        <time>2015-06-07T09:27:52Z</time>
      </trkpt>
      <trkpt lat="47.85798" lon="-1.76919">
        <ele>82</ele>
        <time>2015-06-07T09:27:53Z</time>
      </trkpt>
      <trkpt lat="47.85798" lon="-1.76915">
        <ele>83</ele>
        <time>2015-06-07T09:27:54Z</time>
      </trkpt>
      <trkpt lat="47.85798" lon="-1.76911">
        <ele>83</ele>
        <time>2015-06-07T09:27:55Z</time>
      </trkpt>
      <trkpt lat="47.85798" lon="-1.76907">
        <ele>83</ele>
        <time>2015-06-07T09:27:56Z</time>
      </trkpt>
      <trkpt lat="47.85798" lon="-1.76902">
        <ele>84</ele>
        <time>2015-06-07T09:27:57Z</time>
      </trkpt>
      <trkpt lat="47.85798" lon="-1.76898">
        <ele>84</ele>
        <time>2015-06-07T09:27:58Z</time>
      </trkpt>
      <trkpt lat="47.85799" lon="-1.76894">
        <ele>85</ele>
        <time>2015-06-07T09:27:59Z</time>
      </trkpt>
      <trkpt lat="47.85799" lon="-1.7689">
        <ele>85</ele>
        <time>2015-06-07T09:28:00Z</time>
      </trkpt>
      <trkpt lat="47.85799" lon="-1.76886">
        <ele>85</ele>
        <time>2015-06-07T09:28:01Z</time>
      </trkpt>
      <trkpt lat="47.85799" lon="-1.76882">
        <ele>85</ele>
        <time>2015-06-07T09:28:02Z</time>
      </trkpt>
      <trkpt lat="47.85799" lon="-1.76878">
        <ele>86</ele>
        <time>2015-06-07T09:28:03Z</time>
      </trkpt>
      <trkpt lat="47.85799" lon="-1.76875">
        <ele>86</ele>
        <time>2015-06-07T09:28:04Z</time>
      </trkpt>
      <trkpt lat="47.85799" lon="-1.76871">
        <ele>86</ele>
        <time>2015-06-07T09:28:05Z</time>
      </trkpt>
      <trkpt lat="47.85799" lon="-1.76867">
        <ele>86</ele>
        <time>2015-06-07T09:28:06Z</time>
      </trkpt>
      <trkpt lat="47.85799" lon="-1.76863">
        <ele>87</ele>
        <time>2015-06-07T09:28:07Z</time>
      </trkpt>
      <trkpt lat="47.85799" lon="-1.76859">
        <ele>87</ele>
        <time>2015-06-07T09:28:08Z</time>
      </trkpt>
      <trkpt lat="47.85799" lon="-1.76856">
        <ele>87</ele>
        <time>2015-06-07T09:28:09Z</time>
      </trkpt>
      <trkpt lat="47.85799" lon="-1.76852">
        <ele>87</ele>
        <time>2015-06-07T09:28:10Z</time>
      </trkpt>
      <trkpt lat="47.85799" lon="-1.76848">
        <ele>87</ele>
        <time>2015-06-07T09:28:11Z</time>
      </trkpt>
      <trkpt lat="47.85798" lon="-1.76844">
        <ele>88</ele>
        <time>2015-06-07T09:28:12Z</time>
      </trkpt>
      <trkpt lat="47.85798" lon="-1.7684">
        <ele>88</ele>
        <time>2015-06-07T09:28:13Z</time>
      </trkpt>
      <trkpt lat="47.85797" lon="-1.76836">
        <ele>88</ele>
        <time>2015-06-07T09:28:14Z</time>
      </trkpt>
      <trkpt lat="47.85797" lon="-1.76832">
        <ele>88</ele>
        <time>2015-06-07T09:28:15Z</time>
      </trkpt>
      <trkpt lat="47.85796" lon="-1.76827">
        <ele>89</ele>
        <time>2015-06-07T09:28:16Z</time>
      </trkpt>
      <trkpt lat="47.85795" lon="-1.76823">
        <ele>89</ele>
        <time>2015-06-07T09:28:17Z</time>
      </trkpt>
      <trkpt lat="47.85795" lon="-1.76819">
        <ele>89</ele>
        <time>2015-06-07T09:28:18Z</time>
      </trkpt>
      <trkpt lat="47.85794" lon="-1.76815">
        <ele>90</ele>
        <time>2015-06-07T09:28:19Z</time>
      </trkpt>
      <trkpt lat="47.85793" lon="-1.76811">
        <ele>90</ele>
        <time>2015-06-07T09:28:20Z</time>
      </trkpt>
      <trkpt lat="47.85792" lon="-1.76806">
        <ele>90</ele>
        <time>2015-06-07T09:28:21Z</time>
      </trkpt>
      <trkpt lat="47.85792" lon="-1.76802">
        <ele>91</ele>
        <time>2015-06-07T09:28:22Z</time>
      </trkpt>
      <trkpt lat="47.85791" lon="-1.76798">
        <ele>91</ele>
        <time>2015-06-07T09:28:23Z</time>
      </trkpt>
      <trkpt lat="47.8579" lon="-1.76793">
        <ele>91</ele>
        <time>2015-06-07T09:28:24Z</time>
      </trkpt>
      <trkpt lat="47.85789" lon="-1.76789">
        <ele>92</ele>
        <time>2015-06-07T09:28:25Z</time>
      </trkpt>
      <trkpt lat="47.85788" lon="-1.76785">
        <ele>92</ele>
        <time>2015-06-07T09:28:26Z</time>
      </trkpt>
      <trkpt lat="47.85787" lon="-1.7678">
        <ele>92</ele>
        <time>2015-06-07T09:28:27Z</time>
      </trkpt>
      <trkpt lat="47.85786" lon="-1.76776">
        <ele>93</ele>
        <time>2015-06-07T09:28:28Z</time>
      </trkpt>
      <trkpt lat="47.85785" lon="-1.76771">
        <ele>93</ele>
        <time>2015-06-07T09:28:29Z</time>
      </trkpt>
      <trkpt lat="47.85784" lon="-1.76767">
        <ele>93</ele>
        <time>2015-06-07T09:28:30Z</time>
      </trkpt>
      <trkpt lat="47.85784" lon="-1.76763">
        <ele>94</ele>
        <time>2015-06-07T09:28:31Z</time>
      </trkpt>
      <trkpt lat="47.85783" lon="-1.76758">
        <ele>94</ele>
        <time>2015-06-07T09:28:32Z</time>
      </trkpt>
      <trkpt lat="47.85782" lon="-1.76754">
        <ele>94</ele>
        <time>2015-06-07T09:28:33Z</time>
      </trkpt>
      <trkpt lat="47.85781" lon="-1.7675">
        <ele>94</ele>
        <time>2015-06-07T09:28:34Z</time>
      </trkpt>
      <trkpt lat="47.8578" lon="-1.76746">
        <ele>95</ele>
        <time>2015-06-07T09:28:35Z</time>
      </trkpt>
      <trkpt lat="47.8578" lon="-1.76742">
        <ele>95</ele>
        <time>2015-06-07T09:28:36Z</time>
      </trkpt>
      <trkpt lat="47.85779" lon="-1.76738">
        <ele>95</ele>
        <time>2015-06-07T09:28:37Z</time>
      </trkpt>
      <trkpt lat="47.85778" lon="-1.76734">
        <ele>95</ele>
        <time>2015-06-07T09:28:38Z</time>
      </trkpt>
      <trkpt lat="47.85778" lon="-1.7673">
        <ele>95</ele>
        <time>2015-06-07T09:28:39Z</time>
      </trkpt>
      <trkpt lat="47.85778" lon="-1.76726">
        <ele>95</ele>
        <time>2015-06-07T09:28:40Z</time>
      </trkpt>
      <trkpt lat="47.85778" lon="-1.76721">
        <ele>95</ele>
        <time>2015-06-07T09:28:41Z</time>
      </trkpt>
      <trkpt lat="47.85777" lon="-1.76717">
        <ele>96</ele>
        <time>2015-06-07T09:28:42Z</time>
      </trkpt>
      <trkpt lat="47.85777" lon="-1.76713">
        <ele>96</ele>
        <time>2015-06-07T09:28:43Z</time>
      </trkpt>
      <trkpt lat="47.85776" lon="-1.76708">
        <ele>96</ele>
        <time>2015-06-07T09:28:44Z</time>
      </trkpt>
      <trkpt lat="47.85775" lon="-1.76704">
        <ele>96</ele>
        <time>2015-06-07T09:28:45Z</time>
      </trkpt>
      <trkpt lat="47.85775" lon="-1.767">
        <ele>96</ele>
        <time>2015-06-07T09:28:46Z</time>
      </trkpt>
      <trkpt lat="47.85774" lon="-1.76695">
        <ele>96</ele>
        <time>2015-06-07T09:28:47Z</time>
      </trkpt>
      <trkpt lat="47.85773" lon="-1.76691">
        <ele>96</ele>
        <time>2015-06-07T09:28:48Z</time>
      </trkpt>
      <trkpt lat="47.85772" lon="-1.76687">
        <ele>96</ele>
        <time>2015-06-07T09:28:49Z</time>
      </trkpt>
      <trkpt lat="47.85772" lon="-1.76682">
        <ele>96</ele>
        <time>2015-06-07T09:28:50Z</time>
      </trkpt>
      <trkpt lat="47.85771" lon="-1.76678">
        <ele>96</ele>
        <time>2015-06-07T09:28:51Z</time>
      </trkpt>
      <trkpt lat="47.85771" lon="-1.76674">
        <ele>96</ele>
        <time>2015-06-07T09:28:52Z</time>
      </trkpt>
      <trkpt lat="47.8577" lon="-1.76669">
        <ele>96</ele>
        <time>2015-06-07T09:28:53Z</time>
      </trkpt>
      <trkpt lat="47.85769" lon="-1.76665">
        <ele>96</ele>
        <time>2015-06-07T09:28:54Z</time>
      </trkpt>
      <trkpt lat="47.85768" lon="-1.76661">
        <ele>96</ele>
        <time>2015-06-07T09:28:55Z</time>
      </trkpt>
      <trkpt lat="47.85766" lon="-1.76657">
        <ele>96</ele>
        <time>2015-06-07T09:28:56Z</time>
      </trkpt>
      <trkpt lat="47.85765" lon="-1.76652">
        <ele>96</ele>
        <time>2015-06-07T09:28:57Z</time>
      </trkpt>
      <trkpt lat="47.85764" lon="-1.76648">
        <ele>96</ele>
        <time>2015-06-07T09:28:58Z</time>
      </trkpt>
      <trkpt lat="47.85763" lon="-1.76644">
        <ele>96</ele>
        <time>2015-06-07T09:28:59Z</time>
      </trkpt>
      <trkpt lat="47.85762" lon="-1.7664">
        <ele>96</ele>
        <time>2015-06-07T09:29:00Z</time>
      </trkpt>
      <trkpt lat="47.85761" lon="-1.76636">
        <ele>96</ele>
        <time>2015-06-07T09:29:01Z</time>
      </trkpt>
      <trkpt lat="47.8576" lon="-1.76632">
        <ele>96</ele>
        <time>2015-06-07T09:29:02Z</time>
      </trkpt>
      <trkpt lat="47.85759" lon="-1.76628">
        <ele>97</ele>
        <time>2015-06-07T09:29:03Z</time>
      </trkpt>
      <trkpt lat="47.85758" lon="-1.76623">
        <ele>97</ele>
        <time>2015-06-07T09:29:04Z</time>
      </trkpt>
      <trkpt lat="47.85758" lon="-1.76619">
        <ele>97</ele>
        <time>2015-06-07T09:29:05Z</time>
      </trkpt>
      <trkpt lat="47.85757" lon="-1.76615">
        <ele>97</ele>
        <time>2015-06-07T09:29:06Z</time>
      </trkpt>
      <trkpt lat="47.85756" lon="-1.7661">
        <ele>97</ele>
        <time>2015-06-07T09:29:07Z</time>
      </trkpt>
      <trkpt lat="47.85755" lon="-1.76607">
        <ele>97</ele>
        <time>2015-06-07T09:29:08Z</time>
      </trkpt>
      <trkpt lat="47.85754" lon="-1.76603">
        <ele>97</ele>
        <time>2015-06-07T09:29:09Z</time>
      </trkpt>
      <trkpt lat="47.85753" lon="-1.76599">
        <ele>97</ele>
        <time>2015-06-07T09:29:10Z</time>
      </trkpt>
      <trkpt lat="47.85752" lon="-1.76595">
        <ele>97</ele>
        <time>2015-06-07T09:29:11Z</time>
      </trkpt>
      <trkpt lat="47.85751" lon="-1.7659">
        <ele>97</ele>
        <time>2015-06-07T09:29:12Z</time>
      </trkpt>
      <trkpt lat="47.85749" lon="-1.76586">
        <ele>97</ele>
        <time>2015-06-07T09:29:13Z</time>
      </trkpt>
      <trkpt lat="47.85748" lon="-1.76582">
        <ele>98</ele>
        <time>2015-06-07T09:29:14Z</time>
      </trkpt>
      <trkpt lat="47.85747" lon="-1.76578">
        <ele>98</ele>
        <time>2015-06-07T09:29:15Z</time>
      </trkpt>
      <trkpt lat="47.85746" lon="-1.76574">
        <ele>98</ele>
        <time>2015-06-07T09:29:16Z</time>
      </trkpt>
      <trkpt lat="47.85745" lon="-1.7657">
        <ele>98</ele>
        <time>2015-06-07T09:29:17Z</time>
      </trkpt>
      <trkpt lat="47.85744" lon="-1.76566">
        <ele>98</ele>
        <time>2015-06-07T09:29:18Z</time>
      </trkpt>
      <trkpt lat="47.85743" lon="-1.76561">
        <ele>98</ele>
        <time>2015-06-07T09:29:19Z</time>
      </trkpt>
      <trkpt lat="47.85741" lon="-1.76557">
        <ele>99</ele>
        <time>2015-06-07T09:29:20Z</time>
      </trkpt>
      <trkpt lat="47.85739" lon="-1.76552">
        <ele>99</ele>
        <time>2015-06-07T09:29:21Z</time>
      </trkpt>
      <trkpt lat="47.85738" lon="-1.76547">
        <ele>99</ele>
        <time>2015-06-07T09:29:22Z</time>
      </trkpt>
      <trkpt lat="47.85736" lon="-1.76543">
        <ele>99</ele>
        <time>2015-06-07T09:29:23Z</time>
      </trkpt>
      <trkpt lat="47.85735" lon="-1.76539">
        <ele>99</ele>
        <time>2015-06-07T09:29:24Z</time>
      </trkpt>
      <trkpt lat="47.85733" lon="-1.76535">
        <ele>99</ele>
        <time>2015-06-07T09:29:25Z</time>
      </trkpt>
      <trkpt lat="47.85732" lon="-1.7653">
        <ele>99</ele>
        <time>2015-06-07T09:29:26Z</time>
      </trkpt>
      <trkpt lat="47.8573" lon="-1.76525">
        <ele>99</ele>
        <time>2015-06-07T09:29:27Z</time>
      </trkpt>
      <trkpt lat="47.85729" lon="-1.7652">
        <ele>99</ele>
        <time>2015-06-07T09:29:28Z</time>
      </trkpt>
      <trkpt lat="47.85727" lon="-1.76515">
        <ele>99</ele>
        <time>2015-06-07T09:29:29Z</time>
      </trkpt>
      <trkpt lat="47.85725" lon="-1.76511">
        <ele>99</ele>
        <time>2015-06-07T09:29:30Z</time>
      </trkpt>
      <trkpt lat="47.85723" lon="-1.76506">
        <ele>99</ele>
        <time>2015-06-07T09:29:31Z</time>
      </trkpt>
      <trkpt lat="47.85721" lon="-1.76501">
        <ele>99</ele>
        <time>2015-06-07T09:29:32Z</time>
      </trkpt>
      <trkpt lat="47.85719" lon="-1.76496">
        <ele>100</ele>
        <time>2015-06-07T09:29:33Z</time>
      </trkpt>
      <trkpt lat="47.85717" lon="-1.76491">
        <ele>100</ele>
        <time>2015-06-07T09:29:34Z</time>
      </trkpt>
      <trkpt lat="47.85715" lon="-1.76486">
        <ele>100</ele>
        <time>2015-06-07T09:29:35Z</time>
      </trkpt>
      <trkpt lat="47.85713" lon="-1.76481">
        <ele>100</ele>
        <time>2015-06-07T09:29:36Z</time>
      </trkpt>
      <trkpt lat="47.85712" lon="-1.76477">
        <ele>100</ele>
        <time>2015-06-07T09:29:37Z</time>
      </trkpt>
      <trkpt lat="47.8571" lon="-1.76472">
        <ele>100</ele>
        <time>2015-06-07T09:29:38Z</time>
      </trkpt>
      <trkpt lat="47.85708" lon="-1.76467">
        <ele>100</ele>
        <time>2015-06-07T09:29:39Z</time>
      </trkpt>
      <trkpt lat="47.85706" lon="-1.76463">
        <ele>100</ele>
        <time>2015-06-07T09:29:40Z</time>
      </trkpt>
      <trkpt lat="47.85705" lon="-1.76458">
        <ele>100</ele>
        <time>2015-06-07T09:29:41Z</time>
      </trkpt>
      <trkpt lat="47.85703" lon="-1.76454">
        <ele>100</ele>
        <time>2015-06-07T09:29:42Z</time>
      </trkpt>
      <trkpt lat="47.85701" lon="-1.76449">
        <ele>101</ele>
        <time>2015-06-07T09:29:43Z</time>
      </trkpt>
      <trkpt lat="47.85699" lon="-1.76445">
        <ele>101</ele>
        <time>2015-06-07T09:29:44Z</time>
      </trkpt>
      <trkpt lat="47.85697" lon="-1.7644">
        <ele>101</ele>
        <time>2015-06-07T09:29:45Z</time>
      </trkpt>
      <trkpt lat="47.85696" lon="-1.76436">
        <ele>101</ele>
        <time>2015-06-07T09:29:46Z</time>
      </trkpt>
      <trkpt lat="47.85694" lon="-1.76431">
        <ele>101</ele>
        <time>2015-06-07T09:29:47Z</time>
      </trkpt>
      <trkpt lat="47.85692" lon="-1.76427">
        <ele>101</ele>
        <time>2015-06-07T09:29:48Z</time>
      </trkpt>
      <trkpt lat="47.8569" lon="-1.76422">
        <ele>102</ele>
        <time>2015-06-07T09:29:49Z</time>
      </trkpt>
      <trkpt lat="47.85687" lon="-1.76418">
        <ele>102</ele>
        <time>2015-06-07T09:29:50Z</time>
      </trkpt>
      <trkpt lat="47.85685" lon="-1.76414">
        <ele>102</ele>
        <time>2015-06-07T09:29:51Z</time>
      </trkpt>
      <trkpt lat="47.85683" lon="-1.7641">
        <ele>102</ele>
        <time>2015-06-07T09:29:52Z</time>
      </trkpt>
      <trkpt lat="47.85682" lon="-1.76405">
        <ele>102</ele>
        <time>2015-06-07T09:29:53Z</time>
      </trkpt>
      <trkpt lat="47.8568" lon="-1.76401">
        <ele>102</ele>
        <time>2015-06-07T09:29:54Z</time>
      </trkpt>
      <trkpt lat="47.85679" lon="-1.76398">
        <ele>102</ele>
        <time>2015-06-07T09:29:55Z</time>
      </trkpt>
      <trkpt lat="47.85678" lon="-1.76394">
        <ele>102</ele>
        <time>2015-06-07T09:29:56Z</time>
      </trkpt>
      <trkpt lat="47.85676" lon="-1.7639">
        <ele>102</ele>
        <time>2015-06-07T09:29:57Z</time>
      </trkpt>
      <trkpt lat="47.85675" lon="-1.76387">
        <ele>102</ele>
        <time>2015-06-07T09:29:58Z</time>
      </trkpt>
      <trkpt lat="47.85673" lon="-1.76383">
        <ele>102</ele>
        <time>2015-06-07T09:29:59Z</time>
      </trkpt>
      <trkpt lat="47.85673" lon="-1.7638">
        <ele>102</ele>
        <time>2015-06-07T09:30:00Z</time>
      </trkpt>
      <trkpt lat="47.85671" lon="-1.76376">
        <ele>103</ele>
        <time>2015-06-07T09:30:01Z</time>
      </trkpt>
      <trkpt lat="47.85671" lon="-1.76372">
        <ele>103</ele>
        <time>2015-06-07T09:30:02Z</time>
      </trkpt>
      <trkpt lat="47.8567" lon="-1.76367">
        <ele>103</ele>
        <time>2015-06-07T09:30:03Z</time>
      </trkpt>
      <trkpt lat="47.85668" lon="-1.76362">
        <ele>104</ele>
        <time>2015-06-07T09:30:04Z</time>
      </trkpt>
      <trkpt lat="47.85667" lon="-1.76357">
        <ele>104</ele>
        <time>2015-06-07T09:30:05Z</time>
      </trkpt>
      <trkpt lat="47.85665" lon="-1.76352">
        <ele>104</ele>
        <time>2015-06-07T09:30:06Z</time>
      </trkpt>
      <trkpt lat="47.85663" lon="-1.76347">
        <ele>105</ele>
        <time>2015-06-07T09:30:07Z</time>
      </trkpt>
      <trkpt lat="47.85662" lon="-1.76342">
        <ele>105</ele>
        <time>2015-06-07T09:30:08Z</time>
      </trkpt>
      <trkpt lat="47.85661" lon="-1.76337">
        <ele>105</ele>
        <time>2015-06-07T09:30:09Z</time>
      </trkpt>
      <trkpt lat="47.8566" lon="-1.76332">
        <ele>106</ele>
        <time>2015-06-07T09:30:10Z</time>
      </trkpt>
      <trkpt lat="47.85658" lon="-1.76327">
        <ele>106</ele>
        <time>2015-06-07T09:30:11Z</time>
      </trkpt>
      <trkpt lat="47.85657" lon="-1.76322">
        <ele>106</ele>
        <time>2015-06-07T09:30:12Z</time>
      </trkpt>
      <trkpt lat="47.85655" lon="-1.76317">
        <ele>107</ele>
        <time>2015-06-07T09:30:13Z</time>
      </trkpt>
      <trkpt lat="47.85654" lon="-1.76313">
        <ele>107</ele>
        <time>2015-06-07T09:30:14Z</time>
      </trkpt>
      <trkpt lat="47.85653" lon="-1.76308">
        <ele>107</ele>
        <time>2015-06-07T09:30:15Z</time>
      </trkpt>
      <trkpt lat="47.85651" lon="-1.76304">
        <ele>107</ele>
        <time>2015-06-07T09:30:16Z</time>
      </trkpt>
      <trkpt lat="47.8565" lon="-1.76299">
        <ele>107</ele>
        <time>2015-06-07T09:30:17Z</time>
      </trkpt>
      <trkpt lat="47.85649" lon="-1.76294">
        <ele>107</ele>
        <time>2015-06-07T09:30:18Z</time>
      </trkpt>
      <trkpt lat="47.85647" lon="-1.7629">
        <ele>107</ele>
        <time>2015-06-07T09:30:19Z</time>
      </trkpt>
      <trkpt lat="47.85646" lon="-1.76285">
        <ele>107</ele>
        <time>2015-06-07T09:30:20Z</time>
      </trkpt>
      <trkpt lat="47.85644" lon="-1.76281">
        <ele>108</ele>
        <time>2015-06-07T09:30:21Z</time>
      </trkpt>
      <trkpt lat="47.85643" lon="-1.76276">
        <ele>108</ele>
        <time>2015-06-07T09:30:22Z</time>
      </trkpt>
      <trkpt lat="47.85641" lon="-1.76271">
        <ele>108</ele>
        <time>2015-06-07T09:30:23Z</time>
      </trkpt>
      <trkpt lat="47.85639" lon="-1.76267">
        <ele>108</ele>
        <time>2015-06-07T09:30:24Z</time>
      </trkpt>
      <trkpt lat="47.85638" lon="-1.76262">
        <ele>108</ele>
        <time>2015-06-07T09:30:25Z</time>
      </trkpt>
      <trkpt lat="47.85636" lon="-1.76258">
        <ele>109</ele>
        <time>2015-06-07T09:30:26Z</time>
      </trkpt>
      <trkpt lat="47.85634" lon="-1.76254">
        <ele>109</ele>
        <time>2015-06-07T09:30:27Z</time>
      </trkpt>
      <trkpt lat="47.85633" lon="-1.76248">
        <ele>109</ele>
        <time>2015-06-07T09:30:28Z</time>
      </trkpt>
      <trkpt lat="47.85632" lon="-1.76243">
        <ele>109</ele>
        <time>2015-06-07T09:30:29Z</time>
      </trkpt>
      <trkpt lat="47.8563" lon="-1.76238">
        <ele>109</ele>
        <time>2015-06-07T09:30:30Z</time>
      </trkpt>
      <trkpt lat="47.85629" lon="-1.76233">
        <ele>109</ele>
        <time>2015-06-07T09:30:31Z</time>
      </trkpt>
      <trkpt lat="47.85628" lon="-1.76227">
        <ele>109</ele>
        <time>2015-06-07T09:30:32Z</time>
      </trkpt>
      <trkpt lat="47.85627" lon="-1.76221">
        <ele>110</ele>
        <time>2015-06-07T09:30:33Z</time>
      </trkpt>
      <trkpt lat="47.85627" lon="-1.76216">
        <ele>110</ele>
        <time>2015-06-07T09:30:34Z</time>
      </trkpt>
      <trkpt lat="47.85626" lon="-1.76213">
        <ele>110</ele>
        <time>2015-06-07T09:30:35Z</time>
      </trkpt>
      <trkpt lat="47.85625" lon="-1.76208">
        <ele>110</ele>
        <time>2015-06-07T09:30:36Z</time>
      </trkpt>
      <trkpt lat="47.85625" lon="-1.76203">
        <ele>111</ele>
        <time>2015-06-07T09:30:37Z</time>
      </trkpt>
      <trkpt lat="47.85624" lon="-1.76197">
        <ele>111</ele>
        <time>2015-06-07T09:30:38Z</time>
      </trkpt>
      <trkpt lat="47.85625" lon="-1.7619">
        <ele>111</ele>
        <time>2015-06-07T09:30:39Z</time>
      </trkpt>
      <trkpt lat="47.85625" lon="-1.76183">
        <ele>111</ele>
        <time>2015-06-07T09:30:40Z</time>
      </trkpt>
      <trkpt lat="47.85625" lon="-1.76176">
        <ele>112</ele>
        <time>2015-06-07T09:30:41Z</time>
      </trkpt>
      <trkpt lat="47.85625" lon="-1.76169">
        <ele>112</ele>
        <time>2015-06-07T09:30:42Z</time>
      </trkpt>
      <trkpt lat="47.85625" lon="-1.76162">
        <ele>112</ele>
        <time>2015-06-07T09:30:43Z</time>
      </trkpt>
      <trkpt lat="47.85626" lon="-1.76155">
        <ele>112</ele>
        <time>2015-06-07T09:30:44Z</time>
      </trkpt>
      <trkpt lat="47.85626" lon="-1.76148">
        <ele>112</ele>
        <time>2015-06-07T09:30:45Z</time>
      </trkpt>
      <trkpt lat="47.85626" lon="-1.76141">
        <ele>112</ele>
        <time>2015-06-07T09:30:46Z</time>
      </trkpt>
      <trkpt lat="47.85627" lon="-1.76134">
        <ele>112</ele>
        <time>2015-06-07T09:30:47Z</time>
      </trkpt>
      <trkpt lat="47.85627" lon="-1.76127">
        <ele>112</ele>
        <time>2015-06-07T09:30:48Z</time>
      </trkpt>
      <trkpt lat="47.85627" lon="-1.76119">
        <ele>113</ele>
        <time>2015-06-07T09:30:49Z</time>
      </trkpt>
      <trkpt lat="47.85627" lon="-1.76113">
        <ele>113</ele>
        <time>2015-06-07T09:30:50Z</time>
      </trkpt>
      <trkpt lat="47.85627" lon="-1.76106">
        <ele>113</ele>
        <time>2015-06-07T09:30:51Z</time>
      </trkpt>
      <trkpt lat="47.85627" lon="-1.76098">
        <ele>113</ele>
        <time>2015-06-07T09:30:52Z</time>
      </trkpt>
      <trkpt lat="47.85627" lon="-1.76092">
        <ele>114</ele>
        <time>2015-06-07T09:30:53Z</time>
      </trkpt>
      <trkpt lat="47.85627" lon="-1.76085">
        <ele>114</ele>
        <time>2015-06-07T09:30:54Z</time>
      </trkpt>
      <trkpt lat="47.85627" lon="-1.76079">
        <ele>114</ele>
        <time>2015-06-07T09:30:55Z</time>
      </trkpt>
      <trkpt lat="47.85627" lon="-1.76073">
        <ele>114</ele>
        <time>2015-06-07T09:30:56Z</time>
      </trkpt>
      <trkpt lat="47.85626" lon="-1.76067">
        <ele>114</ele>
        <time>2015-06-07T09:30:57Z</time>
      </trkpt>
      <trkpt lat="47.85626" lon="-1.76062">
        <ele>115</ele>
        <time>2015-06-07T09:30:58Z</time>
      </trkpt>
      <trkpt lat="47.85625" lon="-1.76056">
        <ele>115</ele>
        <time>2015-06-07T09:30:59Z</time>
      </trkpt>
      <trkpt lat="47.85625" lon="-1.76049">
        <ele>115</ele>
        <time>2015-06-07T09:31:00Z</time>
      </trkpt>
      <trkpt lat="47.85625" lon="-1.76042">
        <ele>115</ele>
        <time>2015-06-07T09:31:01Z</time>
      </trkpt>
      <trkpt lat="47.85625" lon="-1.76035">
        <ele>116</ele>
        <time>2015-06-07T09:31:02Z</time>
      </trkpt>
      <trkpt lat="47.85625" lon="-1.76028">
        <ele>116</ele>
        <time>2015-06-07T09:31:03Z</time>
      </trkpt>
      <trkpt lat="47.85624" lon="-1.76021">
        <ele>116</ele>
        <time>2015-06-07T09:31:04Z</time>
      </trkpt>
      <trkpt lat="47.85624" lon="-1.76013">
        <ele>116</ele>
        <time>2015-06-07T09:31:05Z</time>
      </trkpt>
      <trkpt lat="47.85623" lon="-1.76006">
        <ele>116</ele>
        <time>2015-06-07T09:31:06Z</time>
      </trkpt>
      <trkpt lat="47.85623" lon="-1.75998">
        <ele>116</ele>
        <time>2015-06-07T09:31:07Z</time>
      </trkpt>
      <trkpt lat="47.85622" lon="-1.75991">
        <ele>117</ele>
        <time>2015-06-07T09:31:08Z</time>
      </trkpt>
      <trkpt lat="47.85622" lon="-1.75984">
        <ele>117</ele>
        <time>2015-06-07T09:31:09Z</time>
      </trkpt>
      <trkpt lat="47.85621" lon="-1.75977">
        <ele>117</ele>
        <time>2015-06-07T09:31:10Z</time>
      </trkpt>
      <trkpt lat="47.85621" lon="-1.75969">
        <ele>117</ele>
        <time>2015-06-07T09:31:11Z</time>
      </trkpt>
      <trkpt lat="47.85621" lon="-1.75961">
        <ele>117</ele>
        <time>2015-06-07T09:31:12Z</time>
      </trkpt>
      <trkpt lat="47.85621" lon="-1.75954">
        <ele>117</ele>
        <time>2015-06-07T09:31:13Z</time>
      </trkpt>
      <trkpt lat="47.8562" lon="-1.75947">
        <ele>117</ele>
        <time>2015-06-07T09:31:14Z</time>
      </trkpt>
      <trkpt lat="47.8562" lon="-1.7594">
        <ele>117</ele>
        <time>2015-06-07T09:31:15Z</time>
      </trkpt>
      <trkpt lat="47.8562" lon="-1.75933">
        <ele>117</ele>
        <time>2015-06-07T09:31:16Z</time>
      </trkpt>
      <trkpt lat="47.8562" lon="-1.75926">
        <ele>117</ele>
        <time>2015-06-07T09:31:17Z</time>
      </trkpt>
      <trkpt lat="47.85619" lon="-1.75918">
        <ele>117</ele>
        <time>2015-06-07T09:31:18Z</time>
      </trkpt>
      <trkpt lat="47.85619" lon="-1.7591">
        <ele>117</ele>
        <time>2015-06-07T09:31:19Z</time>
      </trkpt>
      <trkpt lat="47.85618" lon="-1.75902">
        <ele>118</ele>
        <time>2015-06-07T09:31:20Z</time>
      </trkpt>
      <trkpt lat="47.85618" lon="-1.75894">
        <ele>118</ele>
        <time>2015-06-07T09:31:21Z</time>
      </trkpt>
      <trkpt lat="47.85618" lon="-1.75887">
        <ele>118</ele>
        <time>2015-06-07T09:31:22Z</time>
      </trkpt>
      <trkpt lat="47.85618" lon="-1.7588">
        <ele>118</ele>
        <time>2015-06-07T09:31:23Z</time>
      </trkpt>
      <trkpt lat="47.85618" lon="-1.75872">
        <ele>118</ele>
        <time>2015-06-07T09:31:24Z</time>
      </trkpt>
      <trkpt lat="47.85617" lon="-1.75864">
        <ele>118</ele>
        <time>2015-06-07T09:31:25Z</time>
      </trkpt>
      <trkpt lat="47.85617" lon="-1.75857">
        <ele>118</ele>
        <time>2015-06-07T09:31:26Z</time>
      </trkpt>
      <trkpt lat="47.85617" lon="-1.7585">
        <ele>118</ele>
        <time>2015-06-07T09:31:27Z</time>
      </trkpt>
      <trkpt lat="47.85616" lon="-1.75843">
        <ele>118</ele>
        <time>2015-06-07T09:31:28Z</time>
      </trkpt>
      <trkpt lat="47.85616" lon="-1.75835">
        <ele>118</ele>
        <time>2015-06-07T09:31:29Z</time>
      </trkpt>
      <trkpt lat="47.85615" lon="-1.75827">
        <ele>118</ele>
        <time>2015-06-07T09:31:30Z</time>
      </trkpt>
      <trkpt lat="47.85615" lon="-1.75819">
        <ele>118</ele>
        <time>2015-06-07T09:31:31Z</time>
      </trkpt>
      <trkpt lat="47.85615" lon="-1.75811">
        <ele>118</ele>
        <time>2015-06-07T09:31:32Z</time>
      </trkpt>
      <trkpt lat="47.85616" lon="-1.75805">
        <ele>118</ele>
        <time>2015-06-07T09:31:33Z</time>
      </trkpt>
      <trkpt lat="47.85617" lon="-1.75799">
        <ele>118</ele>
        <time>2015-06-07T09:31:34Z</time>
      </trkpt>
      <trkpt lat="47.8562" lon="-1.75796">
        <ele>118</ele>
        <time>2015-06-07T09:31:35Z</time>
      </trkpt>
      <trkpt lat="47.85622" lon="-1.75796">
        <ele>118</ele>
        <time>2015-06-07T09:31:36Z</time>
      </trkpt>
      <trkpt lat="47.85624" lon="-1.75799">
        <ele>118</ele>
        <time>2015-06-07T09:31:37Z</time>
      </trkpt>
      <trkpt lat="47.85625" lon="-1.75803">
        <ele>118</ele>
        <time>2015-06-07T09:31:38Z</time>
      </trkpt>
      <trkpt lat="47.85626" lon="-1.75808">
        <ele>118</ele>
        <time>2015-06-07T09:31:39Z</time>
      </trkpt>
      <trkpt lat="47.85627" lon="-1.75813">
        <ele>118</ele>
        <time>2015-06-07T09:31:40Z</time>
      </trkpt>
      <trkpt lat="47.85629" lon="-1.75818">
        <ele>118</ele>
        <time>2015-06-07T09:31:41Z</time>
      </trkpt>
      <trkpt lat="47.8563" lon="-1.75825">
        <ele>118</ele>
        <time>2015-06-07T09:31:42Z</time>
      </trkpt>
      <trkpt lat="47.85631" lon="-1.7583">
        <ele>118</ele>
        <time>2015-06-07T09:31:43Z</time>
      </trkpt>
      <trkpt lat="47.85633" lon="-1.75836">
        <ele>117</ele>
        <time>2015-06-07T09:31:44Z</time>
      </trkpt>
      <trkpt lat="47.85634" lon="-1.75843">
        <ele>117</ele>
        <time>2015-06-07T09:31:45Z</time>
      </trkpt>
      <trkpt lat="47.85635" lon="-1.7585">
        <ele>117</ele>
        <time>2015-06-07T09:31:46Z</time>
      </trkpt>
      <trkpt lat="47.85636" lon="-1.75857">
        <ele>117</ele>
        <time>2015-06-07T09:31:47Z</time>
      </trkpt>
      <trkpt lat="47.85637" lon="-1.75864">
        <ele>117</ele>
        <time>2015-06-07T09:31:48Z</time>
      </trkpt>
      <trkpt lat="47.85639" lon="-1.75871">
        <ele>117</ele>
        <time>2015-06-07T09:31:49Z</time>
      </trkpt>
      <trkpt lat="47.8564" lon="-1.75878">
        <ele>116</ele>
        <time>2015-06-07T09:31:50Z</time>
      </trkpt>
      <trkpt lat="47.85642" lon="-1.75885">
        <ele>116</ele>
        <time>2015-06-07T09:31:51Z</time>
      </trkpt>
      <trkpt lat="47.85643" lon="-1.75893">
        <ele>116</ele>
        <time>2015-06-07T09:31:52Z</time>
      </trkpt>
      <trkpt lat="47.85645" lon="-1.759">
        <ele>116</ele>
        <time>2015-06-07T09:31:53Z</time>
      </trkpt>
      <trkpt lat="47.85646" lon="-1.75907">
        <ele>116</ele>
        <time>2015-06-07T09:31:54Z</time>
      </trkpt>
      <trkpt lat="47.85648" lon="-1.75914">
        <ele>116</ele>
        <time>2015-06-07T09:31:55Z</time>
      </trkpt>
      <trkpt lat="47.8565" lon="-1.75921">
        <ele>116</ele>
        <time>2015-06-07T09:31:56Z</time>
      </trkpt>
      <trkpt lat="47.85652" lon="-1.75929">
        <ele>116</ele>
        <time>2015-06-07T09:31:57Z</time>
      </trkpt>
      <trkpt lat="47.85654" lon="-1.75936">
        <ele>116</ele>
        <time>2015-06-07T09:31:58Z</time>
      </trkpt>
      <trkpt lat="47.85657" lon="-1.75943">
        <ele>116</ele>
        <time>2015-06-07T09:31:59Z</time>
      </trkpt>
      <trkpt lat="47.85659" lon="-1.75951">
        <ele>116</ele>
        <time>2015-06-07T09:32:00Z</time>
      </trkpt>
      <trkpt lat="47.85661" lon="-1.75958">
        <ele>115</ele>
        <time>2015-06-07T09:32:01Z</time>
      </trkpt>
      <trkpt lat="47.85662" lon="-1.75966">
        <ele>115</ele>
        <time>2015-06-07T09:32:02Z</time>
      </trkpt>
      <trkpt lat="47.85664" lon="-1.75972">
        <ele>115</ele>
        <time>2015-06-07T09:32:03Z</time>
      </trkpt>
      <trkpt lat="47.85667" lon="-1.75979">
        <ele>115</ele>
        <time>2015-06-07T09:32:04Z</time>
      </trkpt>
      <trkpt lat="47.85669" lon="-1.75986">
        <ele>115</ele>
        <time>2015-06-07T09:32:05Z</time>
      </trkpt>
      <trkpt lat="47.85672" lon="-1.75994">
        <ele>115</ele>
        <time>2015-06-07T09:32:06Z</time>
      </trkpt>
      <trkpt lat="47.85674" lon="-1.76001">
        <ele>115</ele>
        <time>2015-06-07T09:32:07Z</time>
      </trkpt>
      <trkpt lat="47.85677" lon="-1.76008">
        <ele>115</ele>
        <time>2015-06-07T09:32:08Z</time>
      </trkpt>
      <trkpt lat="47.85681" lon="-1.76015">
        <ele>115</ele>
        <time>2015-06-07T09:32:09Z</time>
      </trkpt>
      <trkpt lat="47.85683" lon="-1.76023">
        <ele>114</ele>
        <time>2015-06-07T09:32:10Z</time>
      </trkpt>
      <trkpt lat="47.85686" lon="-1.76029">
        <ele>114</ele>
        <time>2015-06-07T09:32:11Z</time>
      </trkpt>
      <trkpt lat="47.85689" lon="-1.76035">
        <ele>114</ele>
        <time>2015-06-07T09:32:12Z</time>
      </trkpt>
      <trkpt lat="47.85692" lon="-1.76041">
        <ele>114</ele>
        <time>2015-06-07T09:32:13Z</time>
      </trkpt>
      <trkpt lat="47.85694" lon="-1.76046">
        <ele>114</ele>
        <time>2015-06-07T09:32:14Z</time>
      </trkpt>
      <trkpt lat="47.85696" lon="-1.76052">
        <ele>114</ele>
        <time>2015-06-07T09:32:15Z</time>
      </trkpt>
      <trkpt lat="47.85698" lon="-1.76058">
        <ele>114</ele>
        <time>2015-06-07T09:32:16Z</time>
      </trkpt>
      <trkpt lat="47.85701" lon="-1.76064">
        <ele>114</ele>
        <time>2015-06-07T09:32:17Z</time>
      </trkpt>
      <trkpt lat="47.85704" lon="-1.7607">
        <ele>114</ele>
        <time>2015-06-07T09:32:18Z</time>
      </trkpt>
      <trkpt lat="47.85707" lon="-1.76076">
        <ele>114</ele>
        <time>2015-06-07T09:32:19Z</time>
      </trkpt>
      <trkpt lat="47.8571" lon="-1.76082">
        <ele>114</ele>
        <time>2015-06-07T09:32:20Z</time>
      </trkpt>
      <trkpt lat="47.85713" lon="-1.76088">
        <ele>114</ele>
        <time>2015-06-07T09:32:21Z</time>
      </trkpt>
      <trkpt lat="47.85716" lon="-1.76093">
        <ele>114</ele>
        <time>2015-06-07T09:32:22Z</time>
      </trkpt>
      <trkpt lat="47.85719" lon="-1.761">
        <ele>114</ele>
        <time>2015-06-07T09:32:23Z</time>
      </trkpt>
      <trkpt lat="47.85722" lon="-1.76105">
        <ele>114</ele>
        <time>2015-06-07T09:32:24Z</time>
      </trkpt>
      <trkpt lat="47.85724" lon="-1.7611">
        <ele>114</ele>
        <time>2015-06-07T09:32:25Z</time>
      </trkpt>
      <trkpt lat="47.85727" lon="-1.76115">
        <ele>114</ele>
        <time>2015-06-07T09:32:26Z</time>
      </trkpt>
      <trkpt lat="47.8573" lon="-1.7612">
        <ele>114</ele>
        <time>2015-06-07T09:32:27Z</time>
      </trkpt>
      <trkpt lat="47.85733" lon="-1.76126">
        <ele>114</ele>
        <time>2015-06-07T09:32:28Z</time>
      </trkpt>
      <trkpt lat="47.85736" lon="-1.76131">
        <ele>115</ele>
        <time>2015-06-07T09:32:29Z</time>
      </trkpt>
      <trkpt lat="47.85739" lon="-1.76136">
        <ele>115</ele>
        <time>2015-06-07T09:32:30Z</time>
      </trkpt>
      <trkpt lat="47.85742" lon="-1.76141">
        <ele>115</ele>
        <time>2015-06-07T09:32:31Z</time>
      </trkpt>
      <trkpt lat="47.85746" lon="-1.76147">
        <ele>115</ele>
        <time>2015-06-07T09:32:32Z</time>
      </trkpt>
      <trkpt lat="47.85749" lon="-1.76153">
        <ele>115</ele>
        <time>2015-06-07T09:32:33Z</time>
      </trkpt>
      <trkpt lat="47.85753" lon="-1.76159">
        <ele>115</ele>
        <time>2015-06-07T09:32:34Z</time>
      </trkpt>
      <trkpt lat="47.85756" lon="-1.76165">
        <ele>115</ele>
        <time>2015-06-07T09:32:35Z</time>
      </trkpt>
      <trkpt lat="47.8576" lon="-1.7617">
        <ele>115</ele>
        <time>2015-06-07T09:32:36Z</time>
      </trkpt>
      <trkpt lat="47.85764" lon="-1.76176">
        <ele>116</ele>
        <time>2015-06-07T09:32:37Z</time>
      </trkpt>
      <trkpt lat="47.85767" lon="-1.76182">
        <ele>116</ele>
        <time>2015-06-07T09:32:38Z</time>
      </trkpt>
      <trkpt lat="47.85771" lon="-1.76189">
        <ele>116</ele>
        <time>2015-06-07T09:32:39Z</time>
      </trkpt>
      <trkpt lat="47.85775" lon="-1.76194">
        <ele>116</ele>
        <time>2015-06-07T09:32:40Z</time>
      </trkpt>
      <trkpt lat="47.8578" lon="-1.76201">
        <ele>116</ele>
        <time>2015-06-07T09:32:41Z</time>
      </trkpt>
      <trkpt lat="47.85785" lon="-1.76208">
        <ele>116</ele>
        <time>2015-06-07T09:32:42Z</time>
      </trkpt>
      <trkpt lat="47.85789" lon="-1.76214">
        <ele>116</ele>
        <time>2015-06-07T09:32:43Z</time>
      </trkpt>
      <trkpt lat="47.85794" lon="-1.7622">
        <ele>116</ele>
        <time>2015-06-07T09:32:44Z</time>
      </trkpt>
      <trkpt lat="47.85798" lon="-1.76225">
        <ele>116</ele>
        <time>2015-06-07T09:32:45Z</time>
      </trkpt>
      <trkpt lat="47.85803" lon="-1.76231">
        <ele>116</ele>
        <time>2015-06-07T09:32:46Z</time>
      </trkpt>
      <trkpt lat="47.85808" lon="-1.76236">
        <ele>116</ele>
        <time>2015-06-07T09:32:47Z</time>
      </trkpt>
      <trkpt lat="47.85812" lon="-1.76241">
        <ele>115</ele>
        <time>2015-06-07T09:32:48Z</time>
      </trkpt>
      <trkpt lat="47.85817" lon="-1.76245">
        <ele>115</ele>
        <time>2015-06-07T09:32:49Z</time>
      </trkpt>
      <trkpt lat="47.85822" lon="-1.76249">
        <ele>115</ele>
        <time>2015-06-07T09:32:50Z</time>
      </trkpt>
      <trkpt lat="47.85828" lon="-1.76253">
        <ele>115</ele>
        <time>2015-06-07T09:32:51Z</time>
      </trkpt>
      <trkpt lat="47.85834" lon="-1.76257">
        <ele>115</ele>
        <time>2015-06-07T09:32:52Z</time>
      </trkpt>
      <trkpt lat="47.8584" lon="-1.76261">
        <ele>115</ele>
        <time>2015-06-07T09:32:53Z</time>
      </trkpt>
      <trkpt lat="47.85846" lon="-1.76265">
        <ele>115</ele>
        <time>2015-06-07T09:32:54Z</time>
      </trkpt>
      <trkpt lat="47.85852" lon="-1.76269">
        <ele>115</ele>
        <time>2015-06-07T09:32:55Z</time>
      </trkpt>
      <trkpt lat="47.85858" lon="-1.76273">
        <ele>115</ele>
        <time>2015-06-07T09:32:56Z</time>
      </trkpt>
      <trkpt lat="47.85864" lon="-1.76277">
        <ele>115</ele>
        <time>2015-06-07T09:32:57Z</time>
      </trkpt>
      <trkpt lat="47.8587" lon="-1.76281">
        <ele>115</ele>
        <time>2015-06-07T09:32:58Z</time>
      </trkpt>
      <trkpt lat="47.85876" lon="-1.76285">
        <ele>115</ele>
        <time>2015-06-07T09:32:59Z</time>
      </trkpt>
      <trkpt lat="47.85882" lon="-1.7629">
        <ele>115</ele>
        <time>2015-06-07T09:33:00Z</time>
      </trkpt>
      <trkpt lat="47.85888" lon="-1.76295">
        <ele>115</ele>
        <time>2015-06-07T09:33:01Z</time>
      </trkpt>
      <trkpt lat="47.85894" lon="-1.76302">
        <ele>115</ele>
        <time>2015-06-07T09:33:02Z</time>
      </trkpt>
      <trkpt lat="47.859" lon="-1.7631">
        <ele>114</ele>
        <time>2015-06-07T09:33:03Z</time>
      </trkpt>
      <trkpt lat="47.85906" lon="-1.76319">
        <ele>113</ele>
        <time>2015-06-07T09:33:04Z</time>
      </trkpt>
      <trkpt lat="47.85913" lon="-1.76329">
        <ele>112</ele>
        <time>2015-06-07T09:33:05Z</time>
      </trkpt>
      <trkpt lat="47.85919" lon="-1.7634">
        <ele>112</ele>
        <time>2015-06-07T09:33:06Z</time>
      </trkpt>
      <trkpt lat="47.85926" lon="-1.7635">
        <ele>111</ele>
        <time>2015-06-07T09:33:07Z</time>
      </trkpt>
      <trkpt lat="47.85932" lon="-1.76361">
        <ele>110</ele>
        <time>2015-06-07T09:33:08Z</time>
      </trkpt>
      <trkpt lat="47.85937" lon="-1.76371">
        <ele>109</ele>
        <time>2015-06-07T09:33:09Z</time>
      </trkpt>
      <trkpt lat="47.85943" lon="-1.7638">
        <ele>108</ele>
        <time>2015-06-07T09:33:10Z</time>
      </trkpt>
      <trkpt lat="47.8595" lon="-1.76389">
        <ele>107</ele>
        <time>2015-06-07T09:33:11Z</time>
      </trkpt>
      <trkpt lat="47.85957" lon="-1.76398">
        <ele>106</ele>
        <time>2015-06-07T09:33:12Z</time>
      </trkpt>
      <trkpt lat="47.85963" lon="-1.76407">
        <ele>106</ele>
        <time>2015-06-07T09:33:13Z</time>
      </trkpt>
      <trkpt lat="47.8597" lon="-1.76416">
        <ele>105</ele>
        <time>2015-06-07T09:33:14Z</time>
      </trkpt>
      <trkpt lat="47.85977" lon="-1.76424">
        <ele>104</ele>
        <time>2015-06-07T09:33:15Z</time>
      </trkpt>
      <trkpt lat="47.85983" lon="-1.76432">
        <ele>103</ele>
        <time>2015-06-07T09:33:16Z</time>
      </trkpt>
      <trkpt lat="47.85989" lon="-1.7644">
        <ele>102</ele>
        <time>2015-06-07T09:33:17Z</time>
      </trkpt>
      <trkpt lat="47.85994" lon="-1.76449">
        <ele>102</ele>
        <time>2015-06-07T09:33:18Z</time>
      </trkpt>
      <trkpt lat="47.85998" lon="-1.7646">
        <ele>101</ele>
        <time>2015-06-07T09:33:19Z</time>
      </trkpt>
      <trkpt lat="47.86002" lon="-1.76471">
        <ele>100</ele>
        <time>2015-06-07T09:33:20Z</time>
      </trkpt>
      <trkpt lat="47.86005" lon="-1.76482">
        <ele>100</ele>
        <time>2015-06-07T09:33:21Z</time>
      </trkpt>
      <trkpt lat="47.86008" lon="-1.76494">
        <ele>99</ele>
        <time>2015-06-07T09:33:22Z</time>
      </trkpt>
      <trkpt lat="47.86011" lon="-1.76505">
        <ele>98</ele>
        <time>2015-06-07T09:33:23Z</time>
      </trkpt>
      <trkpt lat="47.86015" lon="-1.76517">
        <ele>97</ele>
        <time>2015-06-07T09:33:24Z</time>
      </trkpt>
      <trkpt lat="47.86018" lon="-1.76529">
        <ele>97</ele>
        <time>2015-06-07T09:33:25Z</time>
      </trkpt>
      <trkpt lat="47.86021" lon="-1.76541">
        <ele>96</ele>
        <time>2015-06-07T09:33:26Z</time>
      </trkpt>
      <trkpt lat="47.86023" lon="-1.76555">
        <ele>95</ele>
        <time>2015-06-07T09:33:27Z</time>
      </trkpt>
      <trkpt lat="47.86025" lon="-1.76568">
        <ele>94</ele>
        <time>2015-06-07T09:33:28Z</time>
      </trkpt>
      <trkpt lat="47.86026" lon="-1.7658">
        <ele>93</ele>
        <time>2015-06-07T09:33:29Z</time>
      </trkpt>
      <trkpt lat="47.86027" lon="-1.76593">
        <ele>92</ele>
        <time>2015-06-07T09:33:30Z</time>
      </trkpt>
      <trkpt lat="47.86028" lon="-1.76606">
        <ele>92</ele>
        <time>2015-06-07T09:33:31Z</time>
      </trkpt>
      <trkpt lat="47.86029" lon="-1.7662">
        <ele>91</ele>
        <time>2015-06-07T09:33:32Z</time>
      </trkpt>
      <trkpt lat="47.86029" lon="-1.76634">
        <ele>90</ele>
        <time>2015-06-07T09:33:33Z</time>
      </trkpt>
      <trkpt lat="47.8603" lon="-1.76647">
        <ele>89</ele>
        <time>2015-06-07T09:33:34Z</time>
      </trkpt>
      <trkpt lat="47.8603" lon="-1.76659">
        <ele>88</ele>
        <time>2015-06-07T09:33:35Z</time>
      </trkpt>
      <trkpt lat="47.8603" lon="-1.7667">
        <ele>87</ele>
        <time>2015-06-07T09:33:36Z</time>
      </trkpt>
      <trkpt lat="47.86028" lon="-1.7668">
        <ele>85</ele>
        <time>2015-06-07T09:33:37Z</time>
      </trkpt>
      <trkpt lat="47.86027" lon="-1.76689">
        <ele>84</ele>
        <time>2015-06-07T09:33:38Z</time>
      </trkpt>
      <trkpt lat="47.86026" lon="-1.76698">
        <ele>83</ele>
        <time>2015-06-07T09:33:39Z</time>
      </trkpt>
      <trkpt lat="47.86027" lon="-1.76707">
        <ele>82</ele>
        <time>2015-06-07T09:33:40Z</time>
      </trkpt>
      <trkpt lat="47.86029" lon="-1.76714">
        <ele>81</ele>
        <time>2015-06-07T09:33:41Z</time>
      </trkpt>
      <trkpt lat="47.86032" lon="-1.76717">
        <ele>80</ele>
        <time>2015-06-07T09:33:42Z</time>
      </trkpt>
      <trkpt lat="47.86037" lon="-1.76718">
        <ele>80</ele>
        <time>2015-06-07T09:33:43Z</time>
      </trkpt>
      <trkpt lat="47.86042" lon="-1.76719">
        <ele>79</ele>
        <time>2015-06-07T09:33:44Z</time>
      </trkpt>
      <trkpt lat="47.86047" lon="-1.76719">
        <ele>79</ele>
        <time>2015-06-07T09:33:45Z</time>
      </trkpt>
      <trkpt lat="47.86054" lon="-1.76719">
        <ele>79</ele>
        <time>2015-06-07T09:33:46Z</time>
      </trkpt>
      <trkpt lat="47.8606" lon="-1.76718">
        <ele>78</ele>
        <time>2015-06-07T09:33:47Z</time>
      </trkpt>
      <trkpt lat="47.86066" lon="-1.76717">
        <ele>78</ele>
        <time>2015-06-07T09:33:48Z</time>
      </trkpt>
      <trkpt lat="47.86073" lon="-1.76716">
        <ele>77</ele>
        <time>2015-06-07T09:33:49Z</time>
      </trkpt>
      <trkpt lat="47.86079" lon="-1.76715">
        <ele>77</ele>
        <time>2015-06-07T09:33:50Z</time>
      </trkpt>
      <trkpt lat="47.86086" lon="-1.76713">
        <ele>76</ele>
        <time>2015-06-07T09:33:51Z</time>
      </trkpt>
      <trkpt lat="47.86093" lon="-1.76713">
        <ele>76</ele>
        <time>2015-06-07T09:33:52Z</time>
      </trkpt>
      <trkpt lat="47.86101" lon="-1.76712">
        <ele>75</ele>
        <time>2015-06-07T09:33:53Z</time>
      </trkpt>
      <trkpt lat="47.86108" lon="-1.76712">
        <ele>74</ele>
        <time>2015-06-07T09:33:54Z</time>
      </trkpt>
      <trkpt lat="47.86116" lon="-1.76711">
        <ele>74</ele>
        <time>2015-06-07T09:33:55Z</time>
      </trkpt>
      <trkpt lat="47.86123" lon="-1.7671">
        <ele>73</ele>
        <time>2015-06-07T09:33:56Z</time>
      </trkpt>
      <trkpt lat="47.86129" lon="-1.76709">
        <ele>72</ele>
        <time>2015-06-07T09:33:57Z</time>
      </trkpt>
      <trkpt lat="47.86137" lon="-1.76707">
        <ele>72</ele>
        <time>2015-06-07T09:33:58Z</time>
      </trkpt>
      <trkpt lat="47.86143" lon="-1.76704">
        <ele>71</ele>
        <time>2015-06-07T09:33:59Z</time>
      </trkpt>
      <trkpt lat="47.86148" lon="-1.76702">
        <ele>70</ele>
        <time>2015-06-07T09:34:00Z</time>
      </trkpt>
      <trkpt lat="47.86153" lon="-1.76702">
        <ele>70</ele>
        <time>2015-06-07T09:34:01Z</time>
      </trkpt>
      <trkpt lat="47.86158" lon="-1.76702">
        <ele>69</ele>
        <time>2015-06-07T09:34:02Z</time>
      </trkpt>
      <trkpt lat="47.86164" lon="-1.76702">
        <ele>69</ele>
        <time>2015-06-07T09:34:03Z</time>
      </trkpt>
      <trkpt lat="47.8617" lon="-1.76703">
        <ele>69</ele>
        <time>2015-06-07T09:34:04Z</time>
      </trkpt>
      <trkpt lat="47.86175" lon="-1.76704">
        <ele>68</ele>
        <time>2015-06-07T09:34:05Z</time>
      </trkpt>
      <trkpt lat="47.86182" lon="-1.76707">
        <ele>68</ele>
        <time>2015-06-07T09:34:06Z</time>
      </trkpt>
      <trkpt lat="47.86188" lon="-1.7671">
        <ele>67</ele>
        <time>2015-06-07T09:34:07Z</time>
      </trkpt>
      <trkpt lat="47.86194" lon="-1.76713">
        <ele>67</ele>
        <time>2015-06-07T09:34:08Z</time>
      </trkpt>
      <trkpt lat="47.86201" lon="-1.76717">
        <ele>66</ele>
        <time>2015-06-07T09:34:09Z</time>
      </trkpt>
      <trkpt lat="47.86208" lon="-1.76721">
        <ele>66</ele>
        <time>2015-06-07T09:34:10Z</time>
      </trkpt>
      <trkpt lat="47.86214" lon="-1.76724">
        <ele>65</ele>
        <time>2015-06-07T09:34:11Z</time>
      </trkpt>
      <trkpt lat="47.86221" lon="-1.76727">
        <ele>65</ele>
        <time>2015-06-07T09:34:12Z</time>
      </trkpt>
      <trkpt lat="47.86228" lon="-1.7673">
        <ele>64</ele>
        <time>2015-06-07T09:34:13Z</time>
      </trkpt>
      <trkpt lat="47.86234" lon="-1.76733">
        <ele>64</ele>
        <time>2015-06-07T09:34:14Z</time>
      </trkpt>
      <trkpt lat="47.8624" lon="-1.76736">
        <ele>64</ele>
        <time>2015-06-07T09:34:15Z</time>
      </trkpt>
      <trkpt lat="47.86247" lon="-1.76739">
        <ele>63</ele>
        <time>2015-06-07T09:34:16Z</time>
      </trkpt>
      <trkpt lat="47.86254" lon="-1.76742">
        <ele>62</ele>
        <time>2015-06-07T09:34:17Z</time>
      </trkpt>
      <trkpt lat="47.86261" lon="-1.76746">
        <ele>62</ele>
        <time>2015-06-07T09:34:18Z</time>
      </trkpt>
      <trkpt lat="47.86269" lon="-1.76749">
        <ele>61</ele>
        <time>2015-06-07T09:34:19Z</time>
      </trkpt>
      <trkpt lat="47.86277" lon="-1.76753">
        <ele>59</ele>
        <time>2015-06-07T09:34:20Z</time>
      </trkpt>
      <trkpt lat="47.86285" lon="-1.76757">
        <ele>58</ele>
        <time>2015-06-07T09:34:21Z</time>
      </trkpt>
      <trkpt lat="47.86294" lon="-1.7676">
        <ele>57</ele>
        <time>2015-06-07T09:34:22Z</time>
      </trkpt>
      <trkpt lat="47.86302" lon="-1.76764">
        <ele>56</ele>
        <time>2015-06-07T09:34:23Z</time>
      </trkpt>
      <trkpt lat="47.8631" lon="-1.76767">
        <ele>55</ele>
        <time>2015-06-07T09:34:24Z</time>
      </trkpt>
      <trkpt lat="47.86318" lon="-1.76768">
        <ele>53</ele>
        <time>2015-06-07T09:34:25Z</time>
      </trkpt>
      <trkpt lat="47.86326" lon="-1.76771">
        <ele>52</ele>
        <time>2015-06-07T09:34:26Z</time>
      </trkpt>
      <trkpt lat="47.86334" lon="-1.76774">
        <ele>51</ele>
        <time>2015-06-07T09:34:27Z</time>
      </trkpt>
      <trkpt lat="47.86342" lon="-1.76777">
        <ele>49</ele>
        <time>2015-06-07T09:34:28Z</time>
      </trkpt>
      <trkpt lat="47.86351" lon="-1.7678">
        <ele>48</ele>
        <time>2015-06-07T09:34:29Z</time>
      </trkpt>
      <trkpt lat="47.86359" lon="-1.76783">
        <ele>47</ele>
        <time>2015-06-07T09:34:30Z</time>
      </trkpt>
      <trkpt lat="47.86368" lon="-1.76785">
        <ele>46</ele>
        <time>2015-06-07T09:34:31Z</time>
      </trkpt>
      <trkpt lat="47.86375" lon="-1.76785">
        <ele>45</ele>
        <time>2015-06-07T09:34:32Z</time>
      </trkpt>
      <trkpt lat="47.86381" lon="-1.76785">
        <ele>44</ele>
        <time>2015-06-07T09:34:33Z</time>
      </trkpt>
      <trkpt lat="47.86386" lon="-1.76785">
        <ele>44</ele>
        <time>2015-06-07T09:34:34Z</time>
      </trkpt>
      <trkpt lat="47.8639" lon="-1.76784">
        <ele>44</ele>
        <time>2015-06-07T09:34:35Z</time>
      </trkpt>
      <trkpt lat="47.86393" lon="-1.76781">
        <ele>43</ele>
        <time>2015-06-07T09:34:36Z</time>
      </trkpt>
      <trkpt lat="47.86396" lon="-1.76778">
        <ele>43</ele>
        <time>2015-06-07T09:34:37Z</time>
      </trkpt>
      <trkpt lat="47.86399" lon="-1.76775">
        <ele>43</ele>
        <time>2015-06-07T09:34:38Z</time>
      </trkpt>
      <trkpt lat="47.86403" lon="-1.76773">
        <ele>42</ele>
        <time>2015-06-07T09:34:39Z</time>
      </trkpt>
      <trkpt lat="47.86406" lon="-1.76769">
        <ele>42</ele>
        <time>2015-06-07T09:34:40Z</time>
      </trkpt>
      <trkpt lat="47.8641" lon="-1.76764">
        <ele>42</ele>
        <time>2015-06-07T09:34:41Z</time>
      </trkpt>
      <trkpt lat="47.86414" lon="-1.7676">
        <ele>41</ele>
        <time>2015-06-07T09:34:42Z</time>
      </trkpt>
      <trkpt lat="47.86418" lon="-1.76757">
        <ele>41</ele>
        <time>2015-06-07T09:34:43Z</time>
      </trkpt>
      <trkpt lat="47.86423" lon="-1.76755">
        <ele>41</ele>
        <time>2015-06-07T09:34:44Z</time>
      </trkpt>
      <trkpt lat="47.86428" lon="-1.76754">
        <ele>40</ele>
        <time>2015-06-07T09:34:45Z</time>
      </trkpt>
      <trkpt lat="47.86434" lon="-1.76753">
        <ele>40</ele>
        <time>2015-06-07T09:34:46Z</time>
      </trkpt>
      <trkpt lat="47.86439" lon="-1.76754">
        <ele>40</ele>
        <time>2015-06-07T09:34:47Z</time>
      </trkpt>
      <trkpt lat="47.86445" lon="-1.76755">
        <ele>40</ele>
        <time>2015-06-07T09:34:48Z</time>
      </trkpt>
      <trkpt lat="47.86451" lon="-1.76757">
        <ele>39</ele>
        <time>2015-06-07T09:34:49Z</time>
      </trkpt>
      <trkpt lat="47.86457" lon="-1.7676">
        <ele>39</ele>
        <time>2015-06-07T09:34:50Z</time>
      </trkpt>
      <trkpt lat="47.86463" lon="-1.76762">
        <ele>39</ele>
        <time>2015-06-07T09:34:51Z</time>
      </trkpt>
      <trkpt lat="47.86468" lon="-1.76765">
        <ele>38</ele>
        <time>2015-06-07T09:34:52Z</time>
      </trkpt>
      <trkpt lat="47.86474" lon="-1.76767">
        <ele>38</ele>
        <time>2015-06-07T09:34:53Z</time>
      </trkpt>
      <trkpt lat="47.8648" lon="-1.7677">
        <ele>38</ele>
        <time>2015-06-07T09:34:54Z</time>
      </trkpt>
      <trkpt lat="47.86486" lon="-1.76772">
        <ele>38</ele>
        <time>2015-06-07T09:34:55Z</time>
      </trkpt>
      <trkpt lat="47.86492" lon="-1.76775">
        <ele>38</ele>
        <time>2015-06-07T09:34:56Z</time>
      </trkpt>
      <trkpt lat="47.86498" lon="-1.76777">
        <ele>38</ele>
        <time>2015-06-07T09:34:57Z</time>
      </trkpt>
      <trkpt lat="47.86505" lon="-1.76779">
        <ele>37</ele>
        <time>2015-06-07T09:34:58Z</time>
      </trkpt>
      <trkpt lat="47.86511" lon="-1.76782">
        <ele>37</ele>
        <time>2015-06-07T09:34:59Z</time>
      </trkpt>
      <trkpt lat="47.86518" lon="-1.76784">
        <ele>37</ele>
        <time>2015-06-07T09:35:00Z</time>
      </trkpt>
      <trkpt lat="47.86524" lon="-1.76786">
        <ele>37</ele>
        <time>2015-06-07T09:35:01Z</time>
      </trkpt>
      <trkpt lat="47.86529" lon="-1.76787">
        <ele>37</ele>
        <time>2015-06-07T09:35:02Z</time>
      </trkpt>
      <trkpt lat="47.86533" lon="-1.76788">
        <ele>37</ele>
        <time>2015-06-07T09:35:03Z</time>
      </trkpt>
      <trkpt lat="47.86536" lon="-1.76789">
        <ele>36</ele>
        <time>2015-06-07T09:35:04Z</time>
      </trkpt>
      <trkpt lat="47.86539" lon="-1.76789">
        <ele>36</ele>
        <time>2015-06-07T09:35:05Z</time>
      </trkpt>
      <trkpt lat="47.86541" lon="-1.7679">
        <ele>36</ele>
        <time>2015-06-07T09:35:06Z</time>
      </trkpt>
      <trkpt lat="47.86544" lon="-1.7679">
        <ele>35</ele>
        <time>2015-06-07T09:35:07Z</time>
      </trkpt>
      <trkpt lat="47.86547" lon="-1.7679">
        <ele>35</ele>
        <time>2015-06-07T09:35:08Z</time>
      </trkpt>
      <trkpt lat="47.8655" lon="-1.76788">
        <ele>34</ele>
        <time>2015-06-07T09:35:09Z</time>
      </trkpt>
      <trkpt lat="47.86553" lon="-1.76784">
        <ele>34</ele>
        <time>2015-06-07T09:35:10Z</time>
      </trkpt>
      <trkpt lat="47.86555" lon="-1.7678">
        <ele>34</ele>
        <time>2015-06-07T09:35:11Z</time>
      </trkpt>
      <trkpt lat="47.86556" lon="-1.76775">
        <ele>33</ele>
        <time>2015-06-07T09:35:12Z</time>
      </trkpt>
      <trkpt lat="47.86557" lon="-1.7677">
        <ele>33</ele>
        <time>2015-06-07T09:35:13Z</time>
      </trkpt>
      <trkpt lat="47.86557" lon="-1.76766">
        <ele>33</ele>
        <time>2015-06-07T09:35:14Z</time>
      </trkpt>
      <trkpt lat="47.86558" lon="-1.76761">
        <ele>33</ele>
        <time>2015-06-07T09:35:15Z</time>
      </trkpt>
      <trkpt lat="47.86559" lon="-1.76756">
        <ele>33</ele>
        <time>2015-06-07T09:35:16Z</time>
      </trkpt>
      <trkpt lat="47.8656" lon="-1.7675">
        <ele>34</ele>
        <time>2015-06-07T09:35:17Z</time>
      </trkpt>
      <trkpt lat="47.86562" lon="-1.76745">
        <ele>34</ele>
        <time>2015-06-07T09:35:18Z</time>
      </trkpt>
      <trkpt lat="47.86563" lon="-1.76739">
        <ele>34</ele>
        <time>2015-06-07T09:35:19Z</time>
      </trkpt>
      <trkpt lat="47.86565" lon="-1.76734">
        <ele>34</ele>
        <time>2015-06-07T09:35:20Z</time>
      </trkpt>
      <trkpt lat="47.86566" lon="-1.76728">
        <ele>34</ele>
        <time>2015-06-07T09:35:21Z</time>
      </trkpt>
      <trkpt lat="47.86568" lon="-1.76723">
        <ele>34</ele>
        <time>2015-06-07T09:35:22Z</time>
      </trkpt>
      <trkpt lat="47.8657" lon="-1.76717">
        <ele>34</ele>
        <time>2015-06-07T09:35:23Z</time>
      </trkpt>
      <trkpt lat="47.86572" lon="-1.76712">
        <ele>35</ele>
        <time>2015-06-07T09:35:24Z</time>
      </trkpt>
      <trkpt lat="47.86573" lon="-1.76707">
        <ele>35</ele>
        <time>2015-06-07T09:35:25Z</time>
      </trkpt>
      <trkpt lat="47.86575" lon="-1.76702">
        <ele>35</ele>
        <time>2015-06-07T09:35:26Z</time>
      </trkpt>
      <trkpt lat="47.86578" lon="-1.76698">
        <ele>35</ele>
        <time>2015-06-07T09:35:27Z</time>
      </trkpt>
      <trkpt lat="47.8658" lon="-1.76694">
        <ele>35</ele>
        <time>2015-06-07T09:35:28Z</time>
      </trkpt>
      <trkpt lat="47.86582" lon="-1.7669">
        <ele>36</ele>
        <time>2015-06-07T09:35:29Z</time>
      </trkpt>
      <trkpt lat="47.86585" lon="-1.76688">
        <ele>36</ele>
        <time>2015-06-07T09:35:30Z</time>
      </trkpt>
      <trkpt lat="47.86587" lon="-1.76687">
        <ele>36</ele>
        <time>2015-06-07T09:35:31Z</time>
      </trkpt>
      <trkpt lat="47.8659" lon="-1.76688">
        <ele>37</ele>
        <time>2015-06-07T09:35:32Z</time>
      </trkpt>
      <trkpt lat="47.86593" lon="-1.7669">
        <ele>37</ele>
        <time>2015-06-07T09:35:33Z</time>
      </trkpt>
      <trkpt lat="47.86597" lon="-1.76693">
        <ele>37</ele>
        <time>2015-06-07T09:35:34Z</time>
      </trkpt>
      <trkpt lat="47.86601" lon="-1.76695">
        <ele>37</ele>
        <time>2015-06-07T09:35:35Z</time>
      </trkpt>
      <trkpt lat="47.86605" lon="-1.76698">
        <ele>37</ele>
        <time>2015-06-07T09:35:36Z</time>
      </trkpt>
      <trkpt lat="47.86609" lon="-1.76698">
        <ele>37</ele>
        <time>2015-06-07T09:35:37Z</time>
      </trkpt>
      <trkpt lat="47.86613" lon="-1.76701">
        <ele>37</ele>
        <time>2015-06-07T09:35:38Z</time>
      </trkpt>
      <trkpt lat="47.86617" lon="-1.76704">
        <ele>37</ele>
        <time>2015-06-07T09:35:39Z</time>
      </trkpt>
      <trkpt lat="47.86621" lon="-1.76706">
        <ele>37</ele>
        <time>2015-06-07T09:35:40Z</time>
      </trkpt>
      <trkpt lat="47.86625" lon="-1.76708">
        <ele>37</ele>
        <time>2015-06-07T09:35:41Z</time>
      </trkpt>
      <trkpt lat="47.86629" lon="-1.76708">
        <ele>37</ele>
        <time>2015-06-07T09:35:42Z</time>
      </trkpt>
      <trkpt lat="47.86633" lon="-1.76709">
        <ele>37</ele>
        <time>2015-06-07T09:35:43Z</time>
      </trkpt>
      <trkpt lat="47.86638" lon="-1.7671">
        <ele>37</ele>
        <time>2015-06-07T09:35:44Z</time>
      </trkpt>
      <trkpt lat="47.86642" lon="-1.76709">
        <ele>37</ele>
        <time>2015-06-07T09:35:45Z</time>
      </trkpt>
      <trkpt lat="47.86645" lon="-1.76705">
        <ele>37</ele>
        <time>2015-06-07T09:35:46Z</time>
      </trkpt>
      <trkpt lat="47.86648" lon="-1.76701">
        <ele>37</ele>
        <time>2015-06-07T09:35:47Z</time>
      </trkpt>
      <trkpt lat="47.86651" lon="-1.76696">
        <ele>37</ele>
        <time>2015-06-07T09:35:48Z</time>
      </trkpt>
      <trkpt lat="47.86654" lon="-1.76691">
        <ele>36</ele>
        <time>2015-06-07T09:35:49Z</time>
      </trkpt>
      <trkpt lat="47.86657" lon="-1.76685">
        <ele>36</ele>
        <time>2015-06-07T09:35:50Z</time>
      </trkpt>
      <trkpt lat="47.8666" lon="-1.7668">
        <ele>36</ele>
        <time>2015-06-07T09:35:51Z</time>
      </trkpt>
      <trkpt lat="47.86664" lon="-1.76674">
        <ele>36</ele>
        <time>2015-06-07T09:35:52Z</time>
      </trkpt>
      <trkpt lat="47.86667" lon="-1.76668">
        <ele>36</ele>
        <time>2015-06-07T09:35:53Z</time>
      </trkpt>
      <trkpt lat="47.8667" lon="-1.76661">
        <ele>36</ele>
        <time>2015-06-07T09:35:54Z</time>
      </trkpt>
      <trkpt lat="47.86672" lon="-1.76655">
        <ele>36</ele>
        <time>2015-06-07T09:35:55Z</time>
      </trkpt>
      <trkpt lat="47.86675" lon="-1.76649">
        <ele>36</ele>
        <time>2015-06-07T09:35:56Z</time>
      </trkpt>
      <trkpt lat="47.86677" lon="-1.76643">
        <ele>36</ele>
        <time>2015-06-07T09:35:57Z</time>
      </trkpt>
      <trkpt lat="47.86679" lon="-1.76637">
        <ele>36</ele>
        <time>2015-06-07T09:35:58Z</time>
      </trkpt>
      <trkpt lat="47.86681" lon="-1.7663">
        <ele>36</ele>
        <time>2015-06-07T09:35:59Z</time>
      </trkpt>
      <trkpt lat="47.86682" lon="-1.76625">
        <ele>36</ele>
        <time>2015-06-07T09:36:00Z</time>
      </trkpt>
      <trkpt lat="47.86685" lon="-1.7662">
        <ele>36</ele>
        <time>2015-06-07T09:36:01Z</time>
      </trkpt>
      <trkpt lat="47.86686" lon="-1.76616">
        <ele>36</ele>
        <time>2015-06-07T09:36:02Z</time>
      </trkpt>
      <trkpt lat="47.86688" lon="-1.76612">
        <ele>36</ele>
        <time>2015-06-07T09:36:03Z</time>
      </trkpt>
      <trkpt lat="47.86689" lon="-1.76609">
        <ele>37</ele>
        <time>2015-06-07T09:36:04Z</time>
      </trkpt>
      <trkpt lat="47.8669" lon="-1.76605">
        <ele>37</ele>
        <time>2015-06-07T09:36:05Z</time>
      </trkpt>
      <trkpt lat="47.86691" lon="-1.76601">
        <ele>37</ele>
        <time>2015-06-07T09:36:06Z</time>
      </trkpt>
      <trkpt lat="47.86693" lon="-1.76597">
        <ele>37</ele>
        <time>2015-06-07T09:36:07Z</time>
      </trkpt>
      <trkpt lat="47.86694" lon="-1.76593">
        <ele>37</ele>
        <time>2015-06-07T09:36:08Z</time>
      </trkpt>
      <trkpt lat="47.86695" lon="-1.76589">
        <ele>38</ele>
        <time>2015-06-07T09:36:09Z</time>
      </trkpt>
      <trkpt lat="47.86696" lon="-1.76585">
        <ele>38</ele>
        <time>2015-06-07T09:36:10Z</time>
      </trkpt>
      <trkpt lat="47.86698" lon="-1.76581">
        <ele>38</ele>
        <time>2015-06-07T09:36:11Z</time>
      </trkpt>
      <trkpt lat="47.86699" lon="-1.76579">
        <ele>38</ele>
        <time>2015-06-07T09:36:12Z</time>
      </trkpt>
      <trkpt lat="47.867" lon="-1.76576">
        <ele>39</ele>
        <time>2015-06-07T09:36:13Z</time>
      </trkpt>
      <trkpt lat="47.867" lon="-1.76574">
        <ele>39</ele>
        <time>2015-06-07T09:36:14Z</time>
      </trkpt>
      <trkpt lat="47.867" lon="-1.76572">
        <ele>39</ele>
        <time>2015-06-07T09:36:15Z</time>
      </trkpt>
      <trkpt lat="47.86701" lon="-1.7657">
        <ele>39</ele>
        <time>2015-06-07T09:36:16Z</time>
      </trkpt>
      <trkpt lat="47.86701" lon="-1.76568">
        <ele>40</ele>
        <time>2015-06-07T09:36:17Z</time>
      </trkpt>
      <trkpt lat="47.86702" lon="-1.76567">
        <ele>40</ele>
        <time>2015-06-07T09:36:18Z</time>
      </trkpt>
      <trkpt lat="47.86703" lon="-1.76564">
        <ele>41</ele>
        <time>2015-06-07T09:36:19Z</time>
      </trkpt>
      <trkpt lat="47.86704" lon="-1.76562">
        <ele>41</ele>
        <time>2015-06-07T09:36:20Z</time>
      </trkpt>
      <trkpt lat="47.86704" lon="-1.7656">
        <ele>42</ele>
        <time>2015-06-07T09:36:21Z</time>
      </trkpt>
      <trkpt lat="47.86704" lon="-1.76558">
        <ele>42</ele>
        <time>2015-06-07T09:36:22Z</time>
      </trkpt>
      <trkpt lat="47.86705" lon="-1.76556">
        <ele>42</ele>
        <time>2015-06-07T09:36:23Z</time>
      </trkpt>
      <trkpt lat="47.86706" lon="-1.76553">
        <ele>43</ele>
        <time>2015-06-07T09:36:24Z</time>
      </trkpt>
      <trkpt lat="47.86706" lon="-1.7655">
        <ele>43</ele>
        <time>2015-06-07T09:36:25Z</time>
      </trkpt>
      <trkpt lat="47.86707" lon="-1.76547">
        <ele>44</ele>
        <time>2015-06-07T09:36:26Z</time>
      </trkpt>
      <trkpt lat="47.86707" lon="-1.76544">
        <ele>44</ele>
        <time>2015-06-07T09:36:27Z</time>
      </trkpt>
      <trkpt lat="47.86708" lon="-1.76541">
        <ele>45</ele>
        <time>2015-06-07T09:36:28Z</time>
      </trkpt>
      <trkpt lat="47.86709" lon="-1.76537">
        <ele>45</ele>
        <time>2015-06-07T09:36:29Z</time>
      </trkpt>
      <trkpt lat="47.8671" lon="-1.76534">
        <ele>46</ele>
        <time>2015-06-07T09:36:30Z</time>
      </trkpt>
      <trkpt lat="47.8671" lon="-1.76531">
        <ele>46</ele>
        <time>2015-06-07T09:36:31Z</time>
      </trkpt>
      <trkpt lat="47.86711" lon="-1.76528">
        <ele>46</ele>
        <time>2015-06-07T09:36:32Z</time>
      </trkpt>
      <trkpt lat="47.86711" lon="-1.76524">
        <ele>47</ele>
        <time>2015-06-07T09:36:33Z</time>
      </trkpt>
      <trkpt lat="47.86712" lon="-1.76519">
        <ele>47</ele>
        <time>2015-06-07T09:36:34Z</time>
      </trkpt>
      <trkpt lat="47.86713" lon="-1.76515">
        <ele>48</ele>
        <time>2015-06-07T09:36:35Z</time>
      </trkpt>
      <trkpt lat="47.86713" lon="-1.76511">
        <ele>48</ele>
        <time>2015-06-07T09:36:36Z</time>
      </trkpt>
      <trkpt lat="47.86714" lon="-1.76507">
        <ele>48</ele>
        <time>2015-06-07T09:36:37Z</time>
      </trkpt>
      <trkpt lat="47.86714" lon="-1.76503">
        <ele>49</ele>
        <time>2015-06-07T09:36:38Z</time>
      </trkpt>
      <trkpt lat="47.86714" lon="-1.76499">
        <ele>49</ele>
        <time>2015-06-07T09:36:39Z</time>
      </trkpt>
      <trkpt lat="47.86715" lon="-1.76495">
        <ele>50</ele>
        <time>2015-06-07T09:36:40Z</time>
      </trkpt>
      <trkpt lat="47.86715" lon="-1.76491">
        <ele>50</ele>
        <time>2015-06-07T09:36:41Z</time>
      </trkpt>
      <trkpt lat="47.86716" lon="-1.76487">
        <ele>51</ele>
        <time>2015-06-07T09:36:42Z</time>
      </trkpt>
      <trkpt lat="47.86717" lon="-1.76483">
        <ele>51</ele>
        <time>2015-06-07T09:36:43Z</time>
      </trkpt>
      <trkpt lat="47.86717" lon="-1.7648">
        <ele>51</ele>
        <time>2015-06-07T09:36:44Z</time>
      </trkpt>
      <trkpt lat="47.86718" lon="-1.76476">
        <ele>52</ele>
        <time>2015-06-07T09:36:45Z</time>
      </trkpt>
      <trkpt lat="47.86718" lon="-1.76473">
        <ele>52</ele>
        <time>2015-06-07T09:36:46Z</time>
      </trkpt>
      <trkpt lat="47.86718" lon="-1.76469">
        <ele>52</ele>
        <time>2015-06-07T09:36:47Z</time>
      </trkpt>
      <trkpt lat="47.86719" lon="-1.76465">
        <ele>53</ele>
        <time>2015-06-07T09:36:48Z</time>
      </trkpt>
      <trkpt lat="47.8672" lon="-1.76462">
        <ele>53</ele>
        <time>2015-06-07T09:36:49Z</time>
      </trkpt>
      <trkpt lat="47.8672" lon="-1.76457">
        <ele>53</ele>
        <time>2015-06-07T09:36:50Z</time>
      </trkpt>
      <trkpt lat="47.86721" lon="-1.76453">
        <ele>54</ele>
        <time>2015-06-07T09:36:51Z</time>
      </trkpt>
      <trkpt lat="47.86722" lon="-1.76449">
        <ele>54</ele>
        <time>2015-06-07T09:36:52Z</time>
      </trkpt>
      <trkpt lat="47.86722" lon="-1.76445">
        <ele>54</ele>
        <time>2015-06-07T09:36:53Z</time>
      </trkpt>
      <trkpt lat="47.86724" lon="-1.76441">
        <ele>54</ele>
        <time>2015-06-07T09:36:54Z</time>
      </trkpt>
      <trkpt lat="47.86724" lon="-1.76437">
        <ele>54</ele>
        <time>2015-06-07T09:36:55Z</time>
      </trkpt>
      <trkpt lat="47.86725" lon="-1.76433">
        <ele>54</ele>
        <time>2015-06-07T09:36:56Z</time>
      </trkpt>
      <trkpt lat="47.86726" lon="-1.76429">
        <ele>54</ele>
        <time>2015-06-07T09:36:57Z</time>
      </trkpt>
      <trkpt lat="47.86727" lon="-1.76425">
        <ele>54</ele>
        <time>2015-06-07T09:36:58Z</time>
      </trkpt>
      <trkpt lat="47.86729" lon="-1.76421">
        <ele>55</ele>
        <time>2015-06-07T09:36:59Z</time>
      </trkpt>
      <trkpt lat="47.86729" lon="-1.76417">
        <ele>55</ele>
        <time>2015-06-07T09:37:00Z</time>
      </trkpt>
      <trkpt lat="47.8673" lon="-1.76412">
        <ele>55</ele>
        <time>2015-06-07T09:37:01Z</time>
      </trkpt>
      <trkpt lat="47.86731" lon="-1.76409">
        <ele>55</ele>
        <time>2015-06-07T09:37:02Z</time>
      </trkpt>
      <trkpt lat="47.86732" lon="-1.76404">
        <ele>55</ele>
        <time>2015-06-07T09:37:03Z</time>
      </trkpt>
      <trkpt lat="47.86733" lon="-1.764">
        <ele>55</ele>
        <time>2015-06-07T09:37:04Z</time>
      </trkpt>
      <trkpt lat="47.86734" lon="-1.76396">
        <ele>55</ele>
        <time>2015-06-07T09:37:05Z</time>
      </trkpt>
      <trkpt lat="47.86735" lon="-1.76392">
        <ele>55</ele>
        <time>2015-06-07T09:37:06Z</time>
      </trkpt>
      <trkpt lat="47.86736" lon="-1.76387">
        <ele>55</ele>
        <time>2015-06-07T09:37:07Z</time>
      </trkpt>
      <trkpt lat="47.86737" lon="-1.76383">
        <ele>55</ele>
        <time>2015-06-07T09:37:08Z</time>
      </trkpt>
      <trkpt lat="47.86737" lon="-1.76379">
        <ele>55</ele>
        <time>2015-06-07T09:37:09Z</time>
      </trkpt>
      <trkpt lat="47.86738" lon="-1.76374">
        <ele>55</ele>
        <time>2015-06-07T09:37:10Z</time>
      </trkpt>
      <trkpt lat="47.86739" lon="-1.7637">
        <ele>55</ele>
        <time>2015-06-07T09:37:11Z</time>
      </trkpt>
      <trkpt lat="47.8674" lon="-1.76366">
        <ele>55</ele>
        <time>2015-06-07T09:37:12Z</time>
      </trkpt>
      <trkpt lat="47.8674" lon="-1.76361">
        <ele>55</ele>
        <time>2015-06-07T09:37:13Z</time>
      </trkpt>
      <trkpt lat="47.86741" lon="-1.76357">
        <ele>55</ele>
        <time>2015-06-07T09:37:14Z</time>
      </trkpt>
      <trkpt lat="47.86742" lon="-1.76352">
        <ele>55</ele>
        <time>2015-06-07T09:37:15Z</time>
      </trkpt>
      <trkpt lat="47.86743" lon="-1.76347">
        <ele>55</ele>
        <time>2015-06-07T09:37:16Z</time>
      </trkpt>
      <trkpt lat="47.86743" lon="-1.76343">
        <ele>55</ele>
        <time>2015-06-07T09:37:17Z</time>
      </trkpt>
      <trkpt lat="47.86744" lon="-1.76338">
        <ele>56</ele>
        <time>2015-06-07T09:37:18Z</time>
      </trkpt>
      <trkpt lat="47.86744" lon="-1.76333">
        <ele>56</ele>
        <time>2015-06-07T09:37:19Z</time>
      </trkpt>
      <trkpt lat="47.86745" lon="-1.76328">
        <ele>56</ele>
        <time>2015-06-07T09:37:20Z</time>
      </trkpt>
      <trkpt lat="47.86745" lon="-1.76323">
        <ele>56</ele>
        <time>2015-06-07T09:37:21Z</time>
      </trkpt>
      <trkpt lat="47.86746" lon="-1.76318">
        <ele>56</ele>
        <time>2015-06-07T09:37:22Z</time>
      </trkpt>
      <trkpt lat="47.86747" lon="-1.76313">
        <ele>56</ele>
        <time>2015-06-07T09:37:23Z</time>
      </trkpt>
      <trkpt lat="47.86747" lon="-1.76307">
        <ele>56</ele>
        <time>2015-06-07T09:37:24Z</time>
      </trkpt>
      <trkpt lat="47.86748" lon="-1.76302">
        <ele>56</ele>
        <time>2015-06-07T09:37:25Z</time>
      </trkpt>
      <trkpt lat="47.86748" lon="-1.76297">
        <ele>57</ele>
        <time>2015-06-07T09:37:26Z</time>
      </trkpt>
      <trkpt lat="47.86749" lon="-1.76291">
        <ele>57</ele>
        <time>2015-06-07T09:37:27Z</time>
      </trkpt>
      <trkpt lat="47.8675" lon="-1.76286">
        <ele>57</ele>
        <time>2015-06-07T09:37:28Z</time>
      </trkpt>
      <trkpt lat="47.8675" lon="-1.7628">
        <ele>57</ele>
        <time>2015-06-07T09:37:29Z</time>
      </trkpt>
      <trkpt lat="47.86751" lon="-1.76274">
        <ele>57</ele>
        <time>2015-06-07T09:37:30Z</time>
      </trkpt>
      <trkpt lat="47.86752" lon="-1.76268">
        <ele>57</ele>
        <time>2015-06-07T09:37:31Z</time>
      </trkpt>
      <trkpt lat="47.86753" lon="-1.76261">
        <ele>57</ele>
        <time>2015-06-07T09:37:32Z</time>
      </trkpt>
      <trkpt lat="47.86753" lon="-1.76255">
        <ele>57</ele>
        <time>2015-06-07T09:37:33Z</time>
      </trkpt>
      <trkpt lat="47.86754" lon="-1.7625">
        <ele>57</ele>
        <time>2015-06-07T09:37:34Z</time>
      </trkpt>
      <trkpt lat="47.86755" lon="-1.76244">
        <ele>57</ele>
        <time>2015-06-07T09:37:35Z</time>
      </trkpt>
      <trkpt lat="47.86756" lon="-1.76237">
        <ele>57</ele>
        <time>2015-06-07T09:37:36Z</time>
      </trkpt>
      <trkpt lat="47.86757" lon="-1.76231">
        <ele>57</ele>
        <time>2015-06-07T09:37:37Z</time>
      </trkpt>
      <trkpt lat="47.86759" lon="-1.76225">
        <ele>57</ele>
        <time>2015-06-07T09:37:38Z</time>
      </trkpt>
      <trkpt lat="47.8676" lon="-1.76218">
        <ele>57</ele>
        <time>2015-06-07T09:37:39Z</time>
      </trkpt>
      <trkpt lat="47.86761" lon="-1.76211">
        <ele>56</ele>
        <time>2015-06-07T09:37:40Z</time>
      </trkpt>
      <trkpt lat="47.86763" lon="-1.76205">
        <ele>56</ele>
        <time>2015-06-07T09:37:41Z</time>
      </trkpt>
      <trkpt lat="47.86764" lon="-1.76198">
        <ele>56</ele>
        <time>2015-06-07T09:37:42Z</time>
      </trkpt>
      <trkpt lat="47.86766" lon="-1.76191">
        <ele>56</ele>
        <time>2015-06-07T09:37:43Z</time>
      </trkpt>
      <trkpt lat="47.86767" lon="-1.76185">
        <ele>56</ele>
        <time>2015-06-07T09:37:44Z</time>
      </trkpt>
      <trkpt lat="47.86769" lon="-1.76179">
        <ele>56</ele>
        <time>2015-06-07T09:37:45Z</time>
      </trkpt>
      <trkpt lat="47.86771" lon="-1.76172">
        <ele>56</ele>
        <time>2015-06-07T09:37:46Z</time>
      </trkpt>
      <trkpt lat="47.86773" lon="-1.76165">
        <ele>55</ele>
        <time>2015-06-07T09:37:47Z</time>
      </trkpt>
      <trkpt lat="47.86775" lon="-1.76159">
        <ele>55</ele>
        <time>2015-06-07T09:37:48Z</time>
      </trkpt>
      <trkpt lat="47.86777" lon="-1.76153">
        <ele>55</ele>
        <time>2015-06-07T09:37:49Z</time>
      </trkpt>
      <trkpt lat="47.86779" lon="-1.76148">
        <ele>55</ele>
        <time>2015-06-07T09:37:50Z</time>
      </trkpt>
      <trkpt lat="47.86782" lon="-1.76144">
        <ele>55</ele>
        <time>2015-06-07T09:37:51Z</time>
      </trkpt>
      <trkpt lat="47.86786" lon="-1.76142">
        <ele>55</ele>
        <time>2015-06-07T09:37:52Z</time>
      </trkpt>
      <trkpt lat="47.86789" lon="-1.76141">
        <ele>55</ele>
        <time>2015-06-07T09:37:53Z</time>
      </trkpt>
      <trkpt lat="47.86792" lon="-1.76141">
        <ele>56</ele>
        <time>2015-06-07T09:37:54Z</time>
      </trkpt>
      <trkpt lat="47.86795" lon="-1.76142">
        <ele>56</ele>
        <time>2015-06-07T09:37:55Z</time>
      </trkpt>
      <trkpt lat="47.86798" lon="-1.76143">
        <ele>56</ele>
        <time>2015-06-07T09:37:56Z</time>
      </trkpt>
      <trkpt lat="47.86801" lon="-1.76144">
        <ele>56</ele>
        <time>2015-06-07T09:37:57Z</time>
      </trkpt>
      <trkpt lat="47.86804" lon="-1.76145">
        <ele>56</ele>
        <time>2015-06-07T09:37:58Z</time>
      </trkpt>
      <trkpt lat="47.86807" lon="-1.76146">
        <ele>57</ele>
        <time>2015-06-07T09:37:59Z</time>
      </trkpt>
      <trkpt lat="47.8681" lon="-1.76147">
        <ele>57</ele>
        <time>2015-06-07T09:38:00Z</time>
      </trkpt>
      <trkpt lat="47.86812" lon="-1.76149">
        <ele>57</ele>
        <time>2015-06-07T09:38:01Z</time>
      </trkpt>
      <trkpt lat="47.86815" lon="-1.7615">
        <ele>57</ele>
        <time>2015-06-07T09:38:02Z</time>
      </trkpt>
      <trkpt lat="47.86818" lon="-1.7615">
        <ele>57</ele>
        <time>2015-06-07T09:38:03Z</time>
      </trkpt>
      <trkpt lat="47.86821" lon="-1.76151">
        <ele>57</ele>
        <time>2015-06-07T09:38:04Z</time>
      </trkpt>
      <trkpt lat="47.86823" lon="-1.76152">
        <ele>57</ele>
        <time>2015-06-07T09:38:05Z</time>
      </trkpt>
      <trkpt lat="47.86826" lon="-1.76153">
        <ele>57</ele>
        <time>2015-06-07T09:38:06Z</time>
      </trkpt>
      <trkpt lat="47.86828" lon="-1.76155">
        <ele>58</ele>
        <time>2015-06-07T09:38:07Z</time>
      </trkpt>
      <trkpt lat="47.86831" lon="-1.76157">
        <ele>58</ele>
        <time>2015-06-07T09:38:08Z</time>
      </trkpt>
      <trkpt lat="47.86833" lon="-1.76159">
        <ele>58</ele>
        <time>2015-06-07T09:38:09Z</time>
      </trkpt>
      <trkpt lat="47.86835" lon="-1.7616">
        <ele>58</ele>
        <time>2015-06-07T09:38:10Z</time>
      </trkpt>
      <trkpt lat="47.86838" lon="-1.76162">
        <ele>58</ele>
        <time>2015-06-07T09:38:11Z</time>
      </trkpt>
      <trkpt lat="47.86841" lon="-1.76162">
        <ele>58</ele>
        <time>2015-06-07T09:38:12Z</time>
      </trkpt>
      <trkpt lat="47.86843" lon="-1.76163">
        <ele>59</ele>
        <time>2015-06-07T09:38:13Z</time>
      </trkpt>
      <trkpt lat="47.86845" lon="-1.76163">
        <ele>59</ele>
        <time>2015-06-07T09:38:14Z</time>
      </trkpt>
      <trkpt lat="47.86848" lon="-1.76163">
        <ele>59</ele>
        <time>2015-06-07T09:38:15Z</time>
      </trkpt>
      <trkpt lat="47.8685" lon="-1.76164">
        <ele>59</ele>
        <time>2015-06-07T09:38:16Z</time>
      </trkpt>
      <trkpt lat="47.86852" lon="-1.76164">
        <ele>60</ele>
        <time>2015-06-07T09:38:17Z</time>
      </trkpt>
      <trkpt lat="47.86855" lon="-1.76166">
        <ele>60</ele>
        <time>2015-06-07T09:38:18Z</time>
      </trkpt>
      <trkpt lat="47.86857" lon="-1.76167">
        <ele>60</ele>
        <time>2015-06-07T09:38:19Z</time>
      </trkpt>
      <trkpt lat="47.86859" lon="-1.76168">
        <ele>60</ele>
        <time>2015-06-07T09:38:20Z</time>
      </trkpt>
      <trkpt lat="47.86861" lon="-1.76169">
        <ele>61</ele>
        <time>2015-06-07T09:38:21Z</time>
      </trkpt>
      <trkpt lat="47.86864" lon="-1.7617">
        <ele>61</ele>
        <time>2015-06-07T09:38:22Z</time>
      </trkpt>
      <trkpt lat="47.86866" lon="-1.7617">
        <ele>61</ele>
        <time>2015-06-07T09:38:23Z</time>
      </trkpt>
      <trkpt lat="47.86868" lon="-1.76171">
        <ele>61</ele>
        <time>2015-06-07T09:38:24Z</time>
      </trkpt>
      <trkpt lat="47.8687" lon="-1.76172">
        <ele>62</ele>
        <time>2015-06-07T09:38:25Z</time>
      </trkpt>
      <trkpt lat="47.86872" lon="-1.76172">
        <ele>62</ele>
        <time>2015-06-07T09:38:26Z</time>
      </trkpt>
      <trkpt lat="47.86875" lon="-1.76173">
        <ele>62</ele>
        <time>2015-06-07T09:38:27Z</time>
      </trkpt>
      <trkpt lat="47.86877" lon="-1.76173">
        <ele>63</ele>
        <time>2015-06-07T09:38:28Z</time>
      </trkpt>
      <trkpt lat="47.86879" lon="-1.76173">
        <ele>63</ele>
        <time>2015-06-07T09:38:29Z</time>
      </trkpt>
      <trkpt lat="47.86881" lon="-1.76174">
        <ele>63</ele>
        <time>2015-06-07T09:38:30Z</time>
      </trkpt>
      <trkpt lat="47.86883" lon="-1.76175">
        <ele>63</ele>
        <time>2015-06-07T09:38:31Z</time>
      </trkpt>
      <trkpt lat="47.86885" lon="-1.76176">
        <ele>64</ele>
        <time>2015-06-07T09:38:32Z</time>
      </trkpt>
      <trkpt lat="47.86887" lon="-1.76177">
        <ele>64</ele>
        <time>2015-06-07T09:38:33Z</time>
      </trkpt>
      <trkpt lat="47.86889" lon="-1.76177">
        <ele>64</ele>
        <time>2015-06-07T09:38:34Z</time>
      </trkpt>
      <trkpt lat="47.86891" lon="-1.76177">
        <ele>65</ele>
        <time>2015-06-07T09:38:35Z</time>
      </trkpt>
      <trkpt lat="47.86894" lon="-1.76178">
        <ele>65</ele>
        <time>2015-06-07T09:38:36Z</time>
      </trkpt>
      <trkpt lat="47.86896" lon="-1.76178">
        <ele>65</ele>
        <time>2015-06-07T09:38:37Z</time>
      </trkpt>
      <trkpt lat="47.86898" lon="-1.76179">
        <ele>66</ele>
        <time>2015-06-07T09:38:38Z</time>
      </trkpt>
      <trkpt lat="47.869" lon="-1.76179">
        <ele>66</ele>
        <time>2015-06-07T09:38:39Z</time>
      </trkpt>
      <trkpt lat="47.86902" lon="-1.7618">
        <ele>66</ele>
        <time>2015-06-07T09:38:40Z</time>
      </trkpt>
      <trkpt lat="47.86904" lon="-1.7618">
        <ele>66</ele>
        <time>2015-06-07T09:38:41Z</time>
      </trkpt>
      <trkpt lat="47.86906" lon="-1.7618">
        <ele>67</ele>
        <time>2015-06-07T09:38:42Z</time>
      </trkpt>
      <trkpt lat="47.86908" lon="-1.7618">
        <ele>67</ele>
        <time>2015-06-07T09:38:43Z</time>
      </trkpt>
      <trkpt lat="47.86911" lon="-1.7618">
        <ele>67</ele>
        <time>2015-06-07T09:38:44Z</time>
      </trkpt>
      <trkpt lat="47.86913" lon="-1.76181">
        <ele>68</ele>
        <time>2015-06-07T09:38:45Z</time>
      </trkpt>
      <trkpt lat="47.86915" lon="-1.76181">
        <ele>68</ele>
        <time>2015-06-07T09:38:46Z</time>
      </trkpt>
      <trkpt lat="47.86917" lon="-1.76181">
        <ele>68</ele>
        <time>2015-06-07T09:38:47Z</time>
      </trkpt>
      <trkpt lat="47.86919" lon="-1.76181">
        <ele>69</ele>
        <time>2015-06-07T09:38:48Z</time>
      </trkpt>
      <trkpt lat="47.86921" lon="-1.76181">
        <ele>69</ele>
        <time>2015-06-07T09:38:49Z</time>
      </trkpt>
      <trkpt lat="47.86923" lon="-1.7618">
        <ele>69</ele>
        <time>2015-06-07T09:38:50Z</time>
      </trkpt>
      <trkpt lat="47.86925" lon="-1.7618">
        <ele>69</ele>
        <time>2015-06-07T09:38:51Z</time>
      </trkpt>
      <trkpt lat="47.86927" lon="-1.76181">
        <ele>70</ele>
        <time>2015-06-07T09:38:52Z</time>
      </trkpt>
      <trkpt lat="47.8693" lon="-1.7618">
        <ele>70</ele>
        <time>2015-06-07T09:38:53Z</time>
      </trkpt>
      <trkpt lat="47.86932" lon="-1.76179">
        <ele>70</ele>
        <time>2015-06-07T09:38:54Z</time>
      </trkpt>
      <trkpt lat="47.86934" lon="-1.76179">
        <ele>70</ele>
        <time>2015-06-07T09:38:55Z</time>
      </trkpt>
      <trkpt lat="47.86936" lon="-1.76179">
        <ele>70</ele>
        <time>2015-06-07T09:38:56Z</time>
      </trkpt>
      <trkpt lat="47.86938" lon="-1.76178">
        <ele>71</ele>
        <time>2015-06-07T09:38:57Z</time>
      </trkpt>
      <trkpt lat="47.8694" lon="-1.76179">
        <ele>71</ele>
        <time>2015-06-07T09:38:58Z</time>
      </trkpt>
      <trkpt lat="47.86943" lon="-1.76179">
        <ele>71</ele>
        <time>2015-06-07T09:38:59Z</time>
      </trkpt>
      <trkpt lat="47.86945" lon="-1.76178">
        <ele>71</ele>
        <time>2015-06-07T09:39:00Z</time>
      </trkpt>
      <trkpt lat="47.86947" lon="-1.76178">
        <ele>71</ele>
        <time>2015-06-07T09:39:01Z</time>
      </trkpt>
      <trkpt lat="47.86949" lon="-1.76177">
        <ele>71</ele>
        <time>2015-06-07T09:39:02Z</time>
      </trkpt>
      <trkpt lat="47.86951" lon="-1.76177">
        <ele>72</ele>
        <time>2015-06-07T09:39:03Z</time>
      </trkpt>
      <trkpt lat="47.86953" lon="-1.76177">
        <ele>72</ele>
        <time>2015-06-07T09:39:04Z</time>
      </trkpt>
      <trkpt lat="47.86956" lon="-1.76177">
        <ele>72</ele>
        <time>2015-06-07T09:39:05Z</time>
      </trkpt>
      <trkpt lat="47.86958" lon="-1.76176">
        <ele>73</ele>
        <time>2015-06-07T09:39:06Z</time>
      </trkpt>
      <trkpt lat="47.8696" lon="-1.76176">
        <ele>73</ele>
        <time>2015-06-07T09:39:07Z</time>
      </trkpt>
      <trkpt lat="47.86963" lon="-1.76175">
        <ele>73</ele>
        <time>2015-06-07T09:39:08Z</time>
      </trkpt>
      <trkpt lat="47.86965" lon="-1.76175">
        <ele>73</ele>
        <time>2015-06-07T09:39:09Z</time>
      </trkpt>
      <trkpt lat="47.86967" lon="-1.76175">
        <ele>74</ele>
        <time>2015-06-07T09:39:10Z</time>
      </trkpt>
      <trkpt lat="47.8697" lon="-1.76175">
        <ele>74</ele>
        <time>2015-06-07T09:39:11Z</time>
      </trkpt>
      <trkpt lat="47.86972" lon="-1.76175">
        <ele>74</ele>
        <time>2015-06-07T09:39:12Z</time>
      </trkpt>
      <trkpt lat="47.86974" lon="-1.76175">
        <ele>75</ele>
        <time>2015-06-07T09:39:13Z</time>
      </trkpt>
      <trkpt lat="47.86977" lon="-1.76175">
        <ele>75</ele>
        <time>2015-06-07T09:39:14Z</time>
      </trkpt>
      <trkpt lat="47.86979" lon="-1.76174">
        <ele>75</ele>
        <time>2015-06-07T09:39:15Z</time>
      </trkpt>
      <trkpt lat="47.86982" lon="-1.76174">
        <ele>75</ele>
        <time>2015-06-07T09:39:16Z</time>
      </trkpt>
      <trkpt lat="47.86984" lon="-1.76174">
        <ele>76</ele>
        <time>2015-06-07T09:39:17Z</time>
      </trkpt>
      <trkpt lat="47.86987" lon="-1.76174">
        <ele>76</ele>
        <time>2015-06-07T09:39:18Z</time>
      </trkpt>
      <trkpt lat="47.8699" lon="-1.76174">
        <ele>76</ele>
        <time>2015-06-07T09:39:19Z</time>
      </trkpt>
      <trkpt lat="47.86992" lon="-1.76174">
        <ele>77</ele>
        <time>2015-06-07T09:39:20Z</time>
      </trkpt>
      <trkpt lat="47.86995" lon="-1.76174">
        <ele>77</ele>
        <time>2015-06-07T09:39:21Z</time>
      </trkpt>
      <trkpt lat="47.86997" lon="-1.76174">
        <ele>77</ele>
        <time>2015-06-07T09:39:22Z</time>
      </trkpt>
      <trkpt lat="47.87" lon="-1.76175">
        <ele>78</ele>
        <time>2015-06-07T09:39:23Z</time>
      </trkpt>
      <trkpt lat="47.87002" lon="-1.76175">
        <ele>78</ele>
        <time>2015-06-07T09:39:24Z</time>
      </trkpt>
      <trkpt lat="47.87005" lon="-1.76175">
        <ele>78</ele>
        <time>2015-06-07T09:39:25Z</time>
      </trkpt>
      <trkpt lat="47.87007" lon="-1.76176">
        <ele>79</ele>
        <time>2015-06-07T09:39:26Z</time>
      </trkpt>
      <trkpt lat="47.8701" lon="-1.76176">
        <ele>79</ele>
        <time>2015-06-07T09:39:27Z</time>
      </trkpt>
      <trkpt lat="47.87012" lon="-1.76176">
        <ele>79</ele>
        <time>2015-06-07T09:39:28Z</time>
      </trkpt>
      <trkpt lat="47.87015" lon="-1.76176">
        <ele>80</ele>
        <time>2015-06-07T09:39:29Z</time>
      </trkpt>
      <trkpt lat="47.87017" lon="-1.76178">
        <ele>80</ele>
        <time>2015-06-07T09:39:30Z</time>
      </trkpt>
      <trkpt lat="47.87019" lon="-1.76178">
        <ele>80</ele>
        <time>2015-06-07T09:39:31Z</time>
      </trkpt>
      <trkpt lat="47.87022" lon="-1.76179">
        <ele>80</ele>
        <time>2015-06-07T09:39:32Z</time>
      </trkpt>
      <trkpt lat="47.87024" lon="-1.76179">
        <ele>81</ele>
        <time>2015-06-07T09:39:33Z</time>
      </trkpt>
      <trkpt lat="47.87026" lon="-1.7618">
        <ele>81</ele>
        <time>2015-06-07T09:39:34Z</time>
      </trkpt>
      <trkpt lat="47.87029" lon="-1.7618">
        <ele>81</ele>
        <time>2015-06-07T09:39:35Z</time>
      </trkpt>
      <trkpt lat="47.87031" lon="-1.76181">
        <ele>82</ele>
        <time>2015-06-07T09:39:36Z</time>
      </trkpt>
      <trkpt lat="47.87034" lon="-1.76182">
        <ele>82</ele>
        <time>2015-06-07T09:39:37Z</time>
      </trkpt>
      <trkpt lat="47.87036" lon="-1.76183">
        <ele>82</ele>
        <time>2015-06-07T09:39:38Z</time>
      </trkpt>
      <trkpt lat="47.87038" lon="-1.76183">
        <ele>82</ele>
        <time>2015-06-07T09:39:39Z</time>
      </trkpt>
      <trkpt lat="47.87041" lon="-1.76184">
        <ele>83</ele>
        <time>2015-06-07T09:39:40Z</time>
      </trkpt>
      <trkpt lat="47.87043" lon="-1.76185">
        <ele>83</ele>
        <time>2015-06-07T09:39:41Z</time>
      </trkpt>
      <trkpt lat="47.87045" lon="-1.76186">
        <ele>83</ele>
        <time>2015-06-07T09:39:42Z</time>
      </trkpt>
      <trkpt lat="47.87047" lon="-1.76187">
        <ele>83</ele>
        <time>2015-06-07T09:39:43Z</time>
      </trkpt>
      <trkpt lat="47.87049" lon="-1.76188">
        <ele>84</ele>
        <time>2015-06-07T09:39:44Z</time>
      </trkpt>
      <trkpt lat="47.87052" lon="-1.76189">
        <ele>84</ele>
        <time>2015-06-07T09:39:45Z</time>
      </trkpt>
      <trkpt lat="47.87054" lon="-1.76189">
        <ele>84</ele>
        <time>2015-06-07T09:39:46Z</time>
      </trkpt>
      <trkpt lat="47.87056" lon="-1.7619">
        <ele>84</ele>
        <time>2015-06-07T09:39:47Z</time>
      </trkpt>
      <trkpt lat="47.87059" lon="-1.76191">
        <ele>85</ele>
        <time>2015-06-07T09:39:48Z</time>
      </trkpt>
      <trkpt lat="47.87061" lon="-1.76192">
        <ele>85</ele>
        <time>2015-06-07T09:39:49Z</time>
      </trkpt>
      <trkpt lat="47.87064" lon="-1.76192">
        <ele>85</ele>
        <time>2015-06-07T09:39:50Z</time>
      </trkpt>
      <trkpt lat="47.87066" lon="-1.76193">
        <ele>85</ele>
        <time>2015-06-07T09:39:51Z</time>
      </trkpt>
      <trkpt lat="47.87068" lon="-1.76193">
        <ele>86</ele>
        <time>2015-06-07T09:39:52Z</time>
      </trkpt>
      <trkpt lat="47.87071" lon="-1.76194">
        <ele>86</ele>
        <time>2015-06-07T09:39:53Z</time>
      </trkpt>
      <trkpt lat="47.87073" lon="-1.76195">
        <ele>86</ele>
        <time>2015-06-07T09:39:54Z</time>
      </trkpt>
      <trkpt lat="47.87075" lon="-1.76196">
        <ele>86</ele>
        <time>2015-06-07T09:39:55Z</time>
      </trkpt>
      <trkpt lat="47.87078" lon="-1.76196">
        <ele>87</ele>
        <time>2015-06-07T09:39:56Z</time>
      </trkpt>
      <trkpt lat="47.8708" lon="-1.76197">
        <ele>87</ele>
        <time>2015-06-07T09:39:57Z</time>
      </trkpt>
      <trkpt lat="47.87082" lon="-1.76198">
        <ele>87</ele>
        <time>2015-06-07T09:39:58Z</time>
      </trkpt>
      <trkpt lat="47.87084" lon="-1.76199">
        <ele>87</ele>
        <time>2015-06-07T09:39:59Z</time>
      </trkpt>
      <trkpt lat="47.87087" lon="-1.762">
        <ele>88</ele>
        <time>2015-06-07T09:40:00Z</time>
      </trkpt>
      <trkpt lat="47.87089" lon="-1.762">
        <ele>88</ele>
        <time>2015-06-07T09:40:01Z</time>
      </trkpt>
      <trkpt lat="47.87091" lon="-1.76201">
        <ele>88</ele>
        <time>2015-06-07T09:40:02Z</time>
      </trkpt>
      <trkpt lat="47.87094" lon="-1.76202">
        <ele>88</ele>
        <time>2015-06-07T09:40:03Z</time>
      </trkpt>
      <trkpt lat="47.87096" lon="-1.76203">
        <ele>88</ele>
        <time>2015-06-07T09:40:04Z</time>
      </trkpt>
      <trkpt lat="47.87099" lon="-1.76204">
        <ele>88</ele>
        <time>2015-06-07T09:40:05Z</time>
      </trkpt>
      <trkpt lat="47.87101" lon="-1.76205">
        <ele>89</ele>
        <time>2015-06-07T09:40:06Z</time>
      </trkpt>
      <trkpt lat="47.87104" lon="-1.76206">
        <ele>89</ele>
        <time>2015-06-07T09:40:07Z</time>
      </trkpt>
      <trkpt lat="47.87106" lon="-1.76207">
        <ele>89</ele>
        <time>2015-06-07T09:40:08Z</time>
      </trkpt>
      <trkpt lat="47.87109" lon="-1.76208">
        <ele>89</ele>
        <time>2015-06-07T09:40:09Z</time>
      </trkpt>
      <trkpt lat="47.87111" lon="-1.76209">
        <ele>89</ele>
        <time>2015-06-07T09:40:10Z</time>
      </trkpt>
      <trkpt lat="47.87114" lon="-1.7621">
        <ele>90</ele>
        <time>2015-06-07T09:40:11Z</time>
      </trkpt>
      <trkpt lat="47.87116" lon="-1.76211">
        <ele>90</ele>
        <time>2015-06-07T09:40:12Z</time>
      </trkpt>
      <trkpt lat="47.87118" lon="-1.76211">
        <ele>90</ele>
        <time>2015-06-07T09:40:13Z</time>
      </trkpt>
      <trkpt lat="47.8712" lon="-1.76209">
        <ele>90</ele>
        <time>2015-06-07T09:40:14Z</time>
      </trkpt>
      <trkpt lat="47.87121" lon="-1.76206">
        <ele>91</ele>
        <time>2015-06-07T09:40:15Z</time>
      </trkpt>
      <trkpt lat="47.87122" lon="-1.76203">
        <ele>91</ele>
        <time>2015-06-07T09:40:16Z</time>
      </trkpt>
      <trkpt lat="47.87123" lon="-1.76199">
        <ele>91</ele>
        <time>2015-06-07T09:40:17Z</time>
      </trkpt>
      <trkpt lat="47.87123" lon="-1.76195">
        <ele>92</ele>
        <time>2015-06-07T09:40:18Z</time>
      </trkpt>
      <trkpt lat="47.87125" lon="-1.76192">
        <ele>92</ele>
        <time>2015-06-07T09:40:19Z</time>
      </trkpt>
      <trkpt lat="47.87126" lon="-1.76188">
        <ele>92</ele>
        <time>2015-06-07T09:40:20Z</time>
      </trkpt>
      <trkpt lat="47.87127" lon="-1.76184">
        <ele>92</ele>
        <time>2015-06-07T09:40:21Z</time>
      </trkpt>
      <trkpt lat="47.87128" lon="-1.7618">
        <ele>93</ele>
        <time>2015-06-07T09:40:22Z</time>
      </trkpt>
      <trkpt lat="47.8713" lon="-1.76176">
        <ele>93</ele>
        <time>2015-06-07T09:40:23Z</time>
      </trkpt>
      <trkpt lat="47.87131" lon="-1.76172">
        <ele>93</ele>
        <time>2015-06-07T09:40:24Z</time>
      </trkpt>
      <trkpt lat="47.87131" lon="-1.76168">
        <ele>93</ele>
        <time>2015-06-07T09:40:25Z</time>
      </trkpt>
      <trkpt lat="47.87133" lon="-1.76165">
        <ele>94</ele>
        <time>2015-06-07T09:40:26Z</time>
      </trkpt>
      <trkpt lat="47.87134" lon="-1.7616">
        <ele>94</ele>
        <time>2015-06-07T09:40:27Z</time>
      </trkpt>
      <trkpt lat="47.87134" lon="-1.76156">
        <ele>94</ele>
        <time>2015-06-07T09:40:28Z</time>
      </trkpt>
      <trkpt lat="47.87136" lon="-1.76153">
        <ele>94</ele>
        <time>2015-06-07T09:40:29Z</time>
      </trkpt>
      <trkpt lat="47.87136" lon="-1.76148">
        <ele>95</ele>
        <time>2015-06-07T09:40:30Z</time>
      </trkpt>
      <trkpt lat="47.87137" lon="-1.76144">
        <ele>95</ele>
        <time>2015-06-07T09:40:31Z</time>
      </trkpt>
      <trkpt lat="47.87138" lon="-1.7614">
        <ele>95</ele>
        <time>2015-06-07T09:40:32Z</time>
      </trkpt>
      <trkpt lat="47.87139" lon="-1.76137">
        <ele>95</ele>
        <time>2015-06-07T09:40:33Z</time>
      </trkpt>
      <trkpt lat="47.8714" lon="-1.76132">
        <ele>95</ele>
        <time>2015-06-07T09:40:34Z</time>
      </trkpt>
      <trkpt lat="47.87141" lon="-1.76128">
        <ele>96</ele>
        <time>2015-06-07T09:40:35Z</time>
      </trkpt>
      <trkpt lat="47.87142" lon="-1.76124">
        <ele>96</ele>
        <time>2015-06-07T09:40:36Z</time>
      </trkpt>
      <trkpt lat="47.87143" lon="-1.7612">
        <ele>96</ele>
        <time>2015-06-07T09:40:37Z</time>
      </trkpt>
      <trkpt lat="47.87144" lon="-1.76115">
        <ele>96</ele>
        <time>2015-06-07T09:40:38Z</time>
      </trkpt>
      <trkpt lat="47.87145" lon="-1.76111">
        <ele>97</ele>
        <time>2015-06-07T09:40:39Z</time>
      </trkpt>
      <trkpt lat="47.87146" lon="-1.76107">
        <ele>97</ele>
        <time>2015-06-07T09:40:40Z</time>
      </trkpt>
      <trkpt lat="47.87147" lon="-1.76102">
        <ele>97</ele>
        <time>2015-06-07T09:40:41Z</time>
      </trkpt>
      <trkpt lat="47.87147" lon="-1.76098">
        <ele>97</ele>
        <time>2015-06-07T09:40:42Z</time>
      </trkpt>
      <trkpt lat="47.87148" lon="-1.76094">
        <ele>98</ele>
        <time>2015-06-07T09:40:43Z</time>
      </trkpt>
      <trkpt lat="47.87149" lon="-1.7609">
        <ele>98</ele>
        <time>2015-06-07T09:40:44Z</time>
      </trkpt>
      <trkpt lat="47.8715" lon="-1.76085">
        <ele>98</ele>
        <time>2015-06-07T09:40:45Z</time>
      </trkpt>
      <trkpt lat="47.87151" lon="-1.76081">
        <ele>98</ele>
        <time>2015-06-07T09:40:46Z</time>
      </trkpt>
      <trkpt lat="47.87152" lon="-1.76077">
        <ele>99</ele>
        <time>2015-06-07T09:40:47Z</time>
      </trkpt>
      <trkpt lat="47.87153" lon="-1.76073">
        <ele>99</ele>
        <time>2015-06-07T09:40:48Z</time>
      </trkpt>
      <trkpt lat="47.87154" lon="-1.76069">
        <ele>99</ele>
        <time>2015-06-07T09:40:49Z</time>
      </trkpt>
      <trkpt lat="47.87155" lon="-1.76065">
        <ele>99</ele>
        <time>2015-06-07T09:40:50Z</time>
      </trkpt>
      <trkpt lat="47.87156" lon="-1.7606">
        <ele>99</ele>
        <time>2015-06-07T09:40:51Z</time>
      </trkpt>
      <trkpt lat="47.87157" lon="-1.76056">
        <ele>100</ele>
        <time>2015-06-07T09:40:52Z</time>
      </trkpt>
      <trkpt lat="47.87158" lon="-1.76052">
        <ele>100</ele>
        <time>2015-06-07T09:40:53Z</time>
      </trkpt>
      <trkpt lat="47.87159" lon="-1.76048">
        <ele>100</ele>
        <time>2015-06-07T09:40:54Z</time>
      </trkpt>
      <trkpt lat="47.8716" lon="-1.76044">
        <ele>100</ele>
        <time>2015-06-07T09:40:55Z</time>
      </trkpt>
      <trkpt lat="47.87161" lon="-1.76039">
        <ele>100</ele>
        <time>2015-06-07T09:40:56Z</time>
      </trkpt>
      <trkpt lat="47.87163" lon="-1.76035">
        <ele>100</ele>
        <time>2015-06-07T09:40:57Z</time>
      </trkpt>
      <trkpt lat="47.87164" lon="-1.76031">
        <ele>101</ele>
        <time>2015-06-07T09:40:58Z</time>
      </trkpt>
      <trkpt lat="47.87165" lon="-1.76027">
        <ele>101</ele>
        <time>2015-06-07T09:40:59Z</time>
      </trkpt>
      <trkpt lat="47.87167" lon="-1.76022">
        <ele>101</ele>
        <time>2015-06-07T09:41:00Z</time>
      </trkpt>
      <trkpt lat="47.87168" lon="-1.76018">
        <ele>101</ele>
        <time>2015-06-07T09:41:01Z</time>
      </trkpt>
      <trkpt lat="47.8717" lon="-1.76014">
        <ele>101</ele>
        <time>2015-06-07T09:41:02Z</time>
      </trkpt>
      <trkpt lat="47.87171" lon="-1.7601">
        <ele>101</ele>
        <time>2015-06-07T09:41:03Z</time>
      </trkpt>
      <trkpt lat="47.87173" lon="-1.76006">
        <ele>101</ele>
        <time>2015-06-07T09:41:04Z</time>
      </trkpt>
      <trkpt lat="47.87175" lon="-1.76002">
        <ele>101</ele>
        <time>2015-06-07T09:41:05Z</time>
      </trkpt>
      <trkpt lat="47.87177" lon="-1.75999">
        <ele>102</ele>
        <time>2015-06-07T09:41:06Z</time>
      </trkpt>
      <trkpt lat="47.87178" lon="-1.75995">
        <ele>102</ele>
        <time>2015-06-07T09:41:07Z</time>
      </trkpt>
      <trkpt lat="47.8718" lon="-1.75992">
        <ele>102</ele>
        <time>2015-06-07T09:41:08Z</time>
      </trkpt>
      <trkpt lat="47.87182" lon="-1.75988">
        <ele>102</ele>
        <time>2015-06-07T09:41:09Z</time>
      </trkpt>
      <trkpt lat="47.87184" lon="-1.75984">
        <ele>102</ele>
        <time>2015-06-07T09:41:10Z</time>
      </trkpt>
      <trkpt lat="47.87185" lon="-1.7598">
        <ele>103</ele>
        <time>2015-06-07T09:41:11Z</time>
      </trkpt>
      <trkpt lat="47.87186" lon="-1.75976">
        <ele>103</ele>
        <time>2015-06-07T09:41:12Z</time>
      </trkpt>
      <trkpt lat="47.87188" lon="-1.75972">
        <ele>103</ele>
        <time>2015-06-07T09:41:13Z</time>
      </trkpt>
      <trkpt lat="47.8719" lon="-1.75968">
        <ele>103</ele>
        <time>2015-06-07T09:41:14Z</time>
      </trkpt>
      <trkpt lat="47.87191" lon="-1.75964">
        <ele>103</ele>
        <time>2015-06-07T09:41:15Z</time>
      </trkpt>
      <trkpt lat="47.87193" lon="-1.7596">
        <ele>103</ele>
        <time>2015-06-07T09:41:16Z</time>
      </trkpt>
      <trkpt lat="47.87195" lon="-1.75956">
        <ele>103</ele>
        <time>2015-06-07T09:41:17Z</time>
      </trkpt>
      <trkpt lat="47.87197" lon="-1.75953">
        <ele>103</ele>
        <time>2015-06-07T09:41:18Z</time>
      </trkpt>
      <trkpt lat="47.87199" lon="-1.7595">
        <ele>104</ele>
        <time>2015-06-07T09:41:19Z</time>
      </trkpt>
      <trkpt lat="47.87201" lon="-1.75947">
        <ele>104</ele>
        <time>2015-06-07T09:41:20Z</time>
      </trkpt>
      <trkpt lat="47.87203" lon="-1.75943">
        <ele>104</ele>
        <time>2015-06-07T09:41:21Z</time>
      </trkpt>
      <trkpt lat="47.87205" lon="-1.75939">
        <ele>104</ele>
        <time>2015-06-07T09:41:22Z</time>
      </trkpt>
      <trkpt lat="47.87208" lon="-1.75935">
        <ele>104</ele>
        <time>2015-06-07T09:41:23Z</time>
      </trkpt>
      <trkpt lat="47.8721" lon="-1.7593">
        <ele>104</ele>
        <time>2015-06-07T09:41:24Z</time>
      </trkpt>
      <trkpt lat="47.87213" lon="-1.75926">
        <ele>104</ele>
        <time>2015-06-07T09:41:25Z</time>
      </trkpt>
      <trkpt lat="47.87215" lon="-1.75921">
        <ele>104</ele>
        <time>2015-06-07T09:41:26Z</time>
      </trkpt>
      <trkpt lat="47.87217" lon="-1.75917">
        <ele>104</ele>
        <time>2015-06-07T09:41:27Z</time>
      </trkpt>
      <trkpt lat="47.8722" lon="-1.75912">
        <ele>104</ele>
        <time>2015-06-07T09:41:28Z</time>
      </trkpt>
      <trkpt lat="47.87222" lon="-1.75907">
        <ele>105</ele>
        <time>2015-06-07T09:41:29Z</time>
      </trkpt>
      <trkpt lat="47.87225" lon="-1.75903">
        <ele>105</ele>
        <time>2015-06-07T09:41:30Z</time>
      </trkpt>
      <trkpt lat="47.87228" lon="-1.75898">
        <ele>105</ele>
        <time>2015-06-07T09:41:31Z</time>
      </trkpt>
      <trkpt lat="47.8723" lon="-1.75894">
        <ele>105</ele>
        <time>2015-06-07T09:41:32Z</time>
      </trkpt>
      <trkpt lat="47.87233" lon="-1.75889">
        <ele>105</ele>
        <time>2015-06-07T09:41:33Z</time>
      </trkpt>
      <trkpt lat="47.87236" lon="-1.75884">
        <ele>105</ele>
        <time>2015-06-07T09:41:34Z</time>
      </trkpt>
      <trkpt lat="47.87239" lon="-1.75878">
        <ele>105</ele>
        <time>2015-06-07T09:41:35Z</time>
      </trkpt>
      <trkpt lat="47.87241" lon="-1.75872">
        <ele>105</ele>
        <time>2015-06-07T09:41:36Z</time>
      </trkpt>
      <trkpt lat="47.87244" lon="-1.75866">
        <ele>105</ele>
        <time>2015-06-07T09:41:37Z</time>
      </trkpt>
      <trkpt lat="47.87246" lon="-1.75861">
        <ele>105</ele>
        <time>2015-06-07T09:41:38Z</time>
      </trkpt>
      <trkpt lat="47.87248" lon="-1.75854">
        <ele>105</ele>
        <time>2015-06-07T09:41:39Z</time>
      </trkpt>
      <trkpt lat="47.8725" lon="-1.75848">
        <ele>106</ele>
        <time>2015-06-07T09:41:40Z</time>
      </trkpt>
      <trkpt lat="47.87252" lon="-1.75842">
        <ele>106</ele>
        <time>2015-06-07T09:41:41Z</time>
      </trkpt>
      <trkpt lat="47.87255" lon="-1.75835">
        <ele>106</ele>
        <time>2015-06-07T09:41:42Z</time>
      </trkpt>
      <trkpt lat="47.87258" lon="-1.75829">
        <ele>106</ele>
        <time>2015-06-07T09:41:43Z</time>
      </trkpt>
      <trkpt lat="47.87261" lon="-1.75822">
        <ele>106</ele>
        <time>2015-06-07T09:41:44Z</time>
      </trkpt>
      <trkpt lat="47.87263" lon="-1.75815">
        <ele>106</ele>
        <time>2015-06-07T09:41:45Z</time>
      </trkpt>
      <trkpt lat="47.87266" lon="-1.75808">
        <ele>106</ele>
        <time>2015-06-07T09:41:46Z</time>
      </trkpt>
      <trkpt lat="47.87268" lon="-1.75801">
        <ele>106</ele>
        <time>2015-06-07T09:41:47Z</time>
      </trkpt>
      <trkpt lat="47.8727" lon="-1.75794">
        <ele>105</ele>
        <time>2015-06-07T09:41:48Z</time>
      </trkpt>
      <trkpt lat="47.87272" lon="-1.75788">
        <ele>105</ele>
        <time>2015-06-07T09:41:49Z</time>
      </trkpt>
      <trkpt lat="47.87274" lon="-1.75781">
        <ele>105</ele>
        <time>2015-06-07T09:41:50Z</time>
      </trkpt>
      <trkpt lat="47.87275" lon="-1.75775">
        <ele>105</ele>
        <time>2015-06-07T09:41:51Z</time>
      </trkpt>
      <trkpt lat="47.87277" lon="-1.75768">
        <ele>104</ele>
        <time>2015-06-07T09:41:52Z</time>
      </trkpt>
      <trkpt lat="47.87279" lon="-1.75762">
        <ele>104</ele>
        <time>2015-06-07T09:41:53Z</time>
      </trkpt>
      <trkpt lat="47.87281" lon="-1.75755">
        <ele>103</ele>
        <time>2015-06-07T09:41:54Z</time>
      </trkpt>
      <trkpt lat="47.87282" lon="-1.75749">
        <ele>103</ele>
        <time>2015-06-07T09:41:55Z</time>
      </trkpt>
      <trkpt lat="47.87284" lon="-1.75744">
        <ele>103</ele>
        <time>2015-06-07T09:41:56Z</time>
      </trkpt>
      <trkpt lat="47.87285" lon="-1.75738">
        <ele>103</ele>
        <time>2015-06-07T09:41:57Z</time>
      </trkpt>
      <trkpt lat="47.87287" lon="-1.75732">
        <ele>102</ele>
        <time>2015-06-07T09:41:58Z</time>
      </trkpt>
      <trkpt lat="47.87289" lon="-1.75726">
        <ele>102</ele>
        <time>2015-06-07T09:41:59Z</time>
      </trkpt>
      <trkpt lat="47.8729" lon="-1.7572">
        <ele>102</ele>
        <time>2015-06-07T09:42:00Z</time>
      </trkpt>
      <trkpt lat="47.87292" lon="-1.75714">
        <ele>102</ele>
        <time>2015-06-07T09:42:01Z</time>
      </trkpt>
      <trkpt lat="47.87294" lon="-1.75709">
        <ele>102</ele>
        <time>2015-06-07T09:42:02Z</time>
      </trkpt>
      <trkpt lat="47.87295" lon="-1.75703">
        <ele>102</ele>
        <time>2015-06-07T09:42:03Z</time>
      </trkpt>
      <trkpt lat="47.87297" lon="-1.75697">
        <ele>101</ele>
        <time>2015-06-07T09:42:04Z</time>
      </trkpt>
      <trkpt lat="47.87298" lon="-1.75691">
        <ele>101</ele>
        <time>2015-06-07T09:42:05Z</time>
      </trkpt>
      <trkpt lat="47.873" lon="-1.75685">
        <ele>101</ele>
        <time>2015-06-07T09:42:06Z</time>
      </trkpt>
      <trkpt lat="47.87301" lon="-1.75679">
        <ele>101</ele>
        <time>2015-06-07T09:42:07Z</time>
      </trkpt>
      <trkpt lat="47.87303" lon="-1.75673">
        <ele>101</ele>
        <time>2015-06-07T09:42:08Z</time>
      </trkpt>
      <trkpt lat="47.87305" lon="-1.75667">
        <ele>101</ele>
        <time>2015-06-07T09:42:09Z</time>
      </trkpt>
      <trkpt lat="47.87306" lon="-1.75661">
        <ele>100</ele>
        <time>2015-06-07T09:42:10Z</time>
      </trkpt>
      <trkpt lat="47.87308" lon="-1.75654">
        <ele>100</ele>
        <time>2015-06-07T09:42:11Z</time>
      </trkpt>
      <trkpt lat="47.87309" lon="-1.75649">
        <ele>100</ele>
        <time>2015-06-07T09:42:12Z</time>
      </trkpt>
      <trkpt lat="47.8731" lon="-1.75644">
        <ele>100</ele>
        <time>2015-06-07T09:42:13Z</time>
      </trkpt>
      <trkpt lat="47.87311" lon="-1.75638">
        <ele>100</ele>
        <time>2015-06-07T09:42:14Z</time>
      </trkpt>
      <trkpt lat="47.87313" lon="-1.75634">
        <ele>100</ele>
        <time>2015-06-07T09:42:15Z</time>
      </trkpt>
      <trkpt lat="47.87314" lon="-1.75629">
        <ele>100</ele>
        <time>2015-06-07T09:42:16Z</time>
      </trkpt>
      <trkpt lat="47.87315" lon="-1.75625">
        <ele>100</ele>
        <time>2015-06-07T09:42:17Z</time>
      </trkpt>
      <trkpt lat="47.87316" lon="-1.7562">
        <ele>100</ele>
        <time>2015-06-07T09:42:18Z</time>
      </trkpt>
      <trkpt lat="47.87317" lon="-1.75616">
        <ele>100</ele>
        <time>2015-06-07T09:42:19Z</time>
      </trkpt>
      <trkpt lat="47.87318" lon="-1.75612">
        <ele>100</ele>
        <time>2015-06-07T09:42:20Z</time>
      </trkpt>
      <trkpt lat="47.87319" lon="-1.75608">
        <ele>100</ele>
        <time>2015-06-07T09:42:21Z</time>
      </trkpt>
      <trkpt lat="47.8732" lon="-1.75604">
        <ele>100</ele>
        <time>2015-06-07T09:42:22Z</time>
      </trkpt>
      <trkpt lat="47.87321" lon="-1.756">
        <ele>100</ele>
        <time>2015-06-07T09:42:23Z</time>
      </trkpt>
      <trkpt lat="47.87321" lon="-1.75596">
        <ele>100</ele>
        <time>2015-06-07T09:42:24Z</time>
      </trkpt>
      <trkpt lat="47.87322" lon="-1.75593">
        <ele>100</ele>
        <time>2015-06-07T09:42:25Z</time>
      </trkpt>
      <trkpt lat="47.87323" lon="-1.75589">
        <ele>100</ele>
        <time>2015-06-07T09:42:26Z</time>
      </trkpt>
      <trkpt lat="47.87324" lon="-1.75586">
        <ele>100</ele>
        <time>2015-06-07T09:42:27Z</time>
      </trkpt>
      <trkpt lat="47.87324" lon="-1.75583">
        <ele>100</ele>
        <time>2015-06-07T09:42:28Z</time>
      </trkpt>
      <trkpt lat="47.87325" lon="-1.7558">
        <ele>100</ele>
        <time>2015-06-07T09:42:29Z</time>
      </trkpt>
      <trkpt lat="47.87327" lon="-1.75578">
        <ele>100</ele>
        <time>2015-06-07T09:42:30Z</time>
      </trkpt>
      <trkpt lat="47.87329" lon="-1.75578">
        <ele>100</ele>
        <time>2015-06-07T09:42:31Z</time>
      </trkpt>
      <trkpt lat="47.87332" lon="-1.75579">
        <ele>100</ele>
        <time>2015-06-07T09:42:32Z</time>
      </trkpt>
      <trkpt lat="47.87334" lon="-1.75579">
        <ele>100</ele>
        <time>2015-06-07T09:42:33Z</time>
      </trkpt>
      <trkpt lat="47.87337" lon="-1.75579">
        <ele>101</ele>
        <time>2015-06-07T09:42:34Z</time>
      </trkpt>
      <trkpt lat="47.87339" lon="-1.75581">
        <ele>101</ele>
        <time>2015-06-07T09:42:35Z</time>
      </trkpt>
      <trkpt lat="47.87341" lon="-1.75582">
        <ele>101</ele>
        <time>2015-06-07T09:42:36Z</time>
      </trkpt>
      <trkpt lat="47.87344" lon="-1.75584">
        <ele>101</ele>
        <time>2015-06-07T09:42:37Z</time>
      </trkpt>
      <trkpt lat="47.87346" lon="-1.75585">
        <ele>101</ele>
        <time>2015-06-07T09:42:38Z</time>
      </trkpt>
      <trkpt lat="47.87349" lon="-1.75586">
        <ele>102</ele>
        <time>2015-06-07T09:42:39Z</time>
      </trkpt>
      <trkpt lat="47.87351" lon="-1.75588">
        <ele>102</ele>
        <time>2015-06-07T09:42:40Z</time>
      </trkpt>
      <trkpt lat="47.87354" lon="-1.75589">
        <ele>102</ele>
        <time>2015-06-07T09:42:41Z</time>
      </trkpt>
      <trkpt lat="47.87356" lon="-1.7559">
        <ele>103</ele>
        <time>2015-06-07T09:42:42Z</time>
      </trkpt>
      <trkpt lat="47.87358" lon="-1.75591">
        <ele>103</ele>
        <time>2015-06-07T09:42:43Z</time>
      </trkpt>
      <trkpt lat="47.8736" lon="-1.75591">
        <ele>103</ele>
        <time>2015-06-07T09:42:44Z</time>
      </trkpt>
      <trkpt lat="47.87363" lon="-1.75589">
        <ele>104</ele>
        <time>2015-06-07T09:42:45Z</time>
      </trkpt>
      <trkpt lat="47.87364" lon="-1.75586">
        <ele>104</ele>
        <time>2015-06-07T09:42:46Z</time>
      </trkpt>
      <trkpt lat="47.87365" lon="-1.75582">
        <ele>104</ele>
        <time>2015-06-07T09:42:47Z</time>
      </trkpt>
      <trkpt lat="47.87365" lon="-1.75578">
        <ele>104</ele>
        <time>2015-06-07T09:42:48Z</time>
      </trkpt>
      <trkpt lat="47.87366" lon="-1.75574">
        <ele>104</ele>
        <time>2015-06-07T09:42:49Z</time>
      </trkpt>
      <trkpt lat="47.87366" lon="-1.75569">
        <ele>104</ele>
        <time>2015-06-07T09:42:50Z</time>
      </trkpt>
      <trkpt lat="47.87367" lon="-1.75564">
        <ele>105</ele>
        <time>2015-06-07T09:42:51Z</time>
      </trkpt>
      <trkpt lat="47.87368" lon="-1.75559">
        <ele>105</ele>
        <time>2015-06-07T09:42:52Z</time>
      </trkpt>
      <trkpt lat="47.87369" lon="-1.75554">
        <ele>105</ele>
        <time>2015-06-07T09:42:53Z</time>
      </trkpt>
      <trkpt lat="47.8737" lon="-1.75549">
        <ele>105</ele>
        <time>2015-06-07T09:42:54Z</time>
      </trkpt>
      <trkpt lat="47.87371" lon="-1.75543">
        <ele>105</ele>
        <time>2015-06-07T09:42:55Z</time>
      </trkpt>
      <trkpt lat="47.87371" lon="-1.75537">
        <ele>105</ele>
        <time>2015-06-07T09:42:56Z</time>
      </trkpt>
      <trkpt lat="47.87371" lon="-1.75532">
        <ele>105</ele>
        <time>2015-06-07T09:42:57Z</time>
      </trkpt>
      <trkpt lat="47.87372" lon="-1.75526">
        <ele>105</ele>
        <time>2015-06-07T09:42:58Z</time>
      </trkpt>
      <trkpt lat="47.87373" lon="-1.7552">
        <ele>106</ele>
        <time>2015-06-07T09:42:59Z</time>
      </trkpt>
      <trkpt lat="47.87374" lon="-1.75515">
        <ele>106</ele>
        <time>2015-06-07T09:43:00Z</time>
      </trkpt>
      <trkpt lat="47.87374" lon="-1.75509">
        <ele>106</ele>
        <time>2015-06-07T09:43:01Z</time>
      </trkpt>
      <trkpt lat="47.87375" lon="-1.75504">
        <ele>106</ele>
        <time>2015-06-07T09:43:02Z</time>
      </trkpt>
      <trkpt lat="47.87375" lon="-1.75498">
        <ele>106</ele>
        <time>2015-06-07T09:43:03Z</time>
      </trkpt>
      <trkpt lat="47.87376" lon="-1.75492">
        <ele>106</ele>
        <time>2015-06-07T09:43:04Z</time>
      </trkpt>
      <trkpt lat="47.87376" lon="-1.75487">
        <ele>106</ele>
        <time>2015-06-07T09:43:05Z</time>
      </trkpt>
      <trkpt lat="47.87377" lon="-1.7548">
        <ele>106</ele>
        <time>2015-06-07T09:43:06Z</time>
      </trkpt>
      <trkpt lat="47.87378" lon="-1.75474">
        <ele>106</ele>
        <time>2015-06-07T09:43:07Z</time>
      </trkpt>
      <trkpt lat="47.87379" lon="-1.75467">
        <ele>105</ele>
        <time>2015-06-07T09:43:08Z</time>
      </trkpt>
      <trkpt lat="47.87379" lon="-1.75461">
        <ele>105</ele>
        <time>2015-06-07T09:43:09Z</time>
      </trkpt>
      <trkpt lat="47.8738" lon="-1.75454">
        <ele>105</ele>
        <time>2015-06-07T09:43:10Z</time>
      </trkpt>
      <trkpt lat="47.87381" lon="-1.75447">
        <ele>105</ele>
        <time>2015-06-07T09:43:11Z</time>
      </trkpt>
      <trkpt lat="47.87382" lon="-1.75439">
        <ele>105</ele>
        <time>2015-06-07T09:43:12Z</time>
      </trkpt>
      <trkpt lat="47.87382" lon="-1.75431">
        <ele>104</ele>
        <time>2015-06-07T09:43:13Z</time>
      </trkpt>
      <trkpt lat="47.87383" lon="-1.75424">
        <ele>104</ele>
        <time>2015-06-07T09:43:14Z</time>
      </trkpt>
      <trkpt lat="47.87384" lon="-1.75415">
        <ele>104</ele>
        <time>2015-06-07T09:43:15Z</time>
      </trkpt>
      <trkpt lat="47.87385" lon="-1.75407">
        <ele>104</ele>
        <time>2015-06-07T09:43:16Z</time>
      </trkpt>
      <trkpt lat="47.87386" lon="-1.75398">
        <ele>103</ele>
        <time>2015-06-07T09:43:17Z</time>
      </trkpt>
      <trkpt lat="47.87387" lon="-1.75389">
        <ele>103</ele>
        <time>2015-06-07T09:43:18Z</time>
      </trkpt>
      <trkpt lat="47.87387" lon="-1.7538">
        <ele>103</ele>
        <time>2015-06-07T09:43:19Z</time>
      </trkpt>
      <trkpt lat="47.87388" lon="-1.75371">
        <ele>102</ele>
        <time>2015-06-07T09:43:20Z</time>
      </trkpt>
      <trkpt lat="47.87388" lon="-1.75362">
        <ele>102</ele>
        <time>2015-06-07T09:43:21Z</time>
      </trkpt>
      <trkpt lat="47.87389" lon="-1.75353">
        <ele>102</ele>
        <time>2015-06-07T09:43:22Z</time>
      </trkpt>
      <trkpt lat="47.87389" lon="-1.75344">
        <ele>102</ele>
        <time>2015-06-07T09:43:23Z</time>
      </trkpt>
      <trkpt lat="47.87389" lon="-1.75336">
        <ele>102</ele>
        <time>2015-06-07T09:43:24Z</time>
      </trkpt>
      <trkpt lat="47.8739" lon="-1.75327">
        <ele>102</ele>
        <time>2015-06-07T09:43:25Z</time>
      </trkpt>
      <trkpt lat="47.87389" lon="-1.75318">
        <ele>102</ele>
        <time>2015-06-07T09:43:26Z</time>
      </trkpt>
      <trkpt lat="47.87389" lon="-1.75309">
        <ele>101</ele>
        <time>2015-06-07T09:43:27Z</time>
      </trkpt>
      <trkpt lat="47.87389" lon="-1.753">
        <ele>101</ele>
        <time>2015-06-07T09:43:28Z</time>
      </trkpt>
      <trkpt lat="47.87388" lon="-1.7529">
        <ele>101</ele>
        <time>2015-06-07T09:43:29Z</time>
      </trkpt>
      <trkpt lat="47.87387" lon="-1.75281">
        <ele>101</ele>
        <time>2015-06-07T09:43:30Z</time>
      </trkpt>
      <trkpt lat="47.87386" lon="-1.75272">
        <ele>101</ele>
        <time>2015-06-07T09:43:31Z</time>
      </trkpt>
      <trkpt lat="47.87385" lon="-1.75262">
        <ele>100</ele>
        <time>2015-06-07T09:43:32Z</time>
      </trkpt>
      <trkpt lat="47.87384" lon="-1.75253">
        <ele>100</ele>
        <time>2015-06-07T09:43:33Z</time>
      </trkpt>
      <trkpt lat="47.87384" lon="-1.75243">
        <ele>100</ele>
        <time>2015-06-07T09:43:34Z</time>
      </trkpt>
      <trkpt lat="47.87384" lon="-1.75233">
        <ele>100</ele>
        <time>2015-06-07T09:43:35Z</time>
      </trkpt>
      <trkpt lat="47.87386" lon="-1.75223">
        <ele>100</ele>
        <time>2015-06-07T09:43:36Z</time>
      </trkpt>
      <trkpt lat="47.87387" lon="-1.75213">
        <ele>99</ele>
        <time>2015-06-07T09:43:37Z</time>
      </trkpt>
      <trkpt lat="47.87388" lon="-1.75204">
        <ele>99</ele>
        <time>2015-06-07T09:43:38Z</time>
      </trkpt>
      <trkpt lat="47.8739" lon="-1.75195">
        <ele>99</ele>
        <time>2015-06-07T09:43:39Z</time>
      </trkpt>
      <trkpt lat="47.87391" lon="-1.75186">
        <ele>99</ele>
        <time>2015-06-07T09:43:40Z</time>
      </trkpt>
      <trkpt lat="47.87392" lon="-1.75178">
        <ele>99</ele>
        <time>2015-06-07T09:43:41Z</time>
      </trkpt>
      <trkpt lat="47.87393" lon="-1.7517">
        <ele>99</ele>
        <time>2015-06-07T09:43:42Z</time>
      </trkpt>
      <trkpt lat="47.87394" lon="-1.75162">
        <ele>99</ele>
        <time>2015-06-07T09:43:43Z</time>
      </trkpt>
      <trkpt lat="47.87396" lon="-1.75153">
        <ele>99</ele>
        <time>2015-06-07T09:43:44Z</time>
      </trkpt>
      <trkpt lat="47.87397" lon="-1.75145">
        <ele>99</ele>
        <time>2015-06-07T09:43:45Z</time>
      </trkpt>
      <trkpt lat="47.87398" lon="-1.75136">
        <ele>100</ele>
        <time>2015-06-07T09:43:46Z</time>
      </trkpt>
      <trkpt lat="47.87399" lon="-1.75128">
        <ele>100</ele>
        <time>2015-06-07T09:43:47Z</time>
      </trkpt>
      <trkpt lat="47.874" lon="-1.7512">
        <ele>100</ele>
        <time>2015-06-07T09:43:48Z</time>
      </trkpt>
      <trkpt lat="47.87401" lon="-1.75111">
        <ele>100</ele>
        <time>2015-06-07T09:43:49Z</time>
      </trkpt>
      <trkpt lat="47.87402" lon="-1.75103">
        <ele>100</ele>
        <time>2015-06-07T09:43:50Z</time>
      </trkpt>
      <trkpt lat="47.87403" lon="-1.75095">
        <ele>100</ele>
        <time>2015-06-07T09:43:51Z</time>
      </trkpt>
      <trkpt lat="47.87404" lon="-1.75086">
        <ele>100</ele>
        <time>2015-06-07T09:43:52Z</time>
      </trkpt>
      <trkpt lat="47.87406" lon="-1.75079">
        <ele>100</ele>
        <time>2015-06-07T09:43:53Z</time>
      </trkpt>
      <trkpt lat="47.87408" lon="-1.75071">
        <ele>100</ele>
        <time>2015-06-07T09:43:54Z</time>
      </trkpt>
      <trkpt lat="47.87411" lon="-1.75065">
        <ele>100</ele>
        <time>2015-06-07T09:43:55Z</time>
      </trkpt>
      <trkpt lat="47.87415" lon="-1.75059">
        <ele>100</ele>
        <time>2015-06-07T09:43:56Z</time>
      </trkpt>
      <trkpt lat="47.87419" lon="-1.75054">
        <ele>100</ele>
        <time>2015-06-07T09:43:57Z</time>
      </trkpt>
      <trkpt lat="47.87424" lon="-1.75051">
        <ele>100</ele>
        <time>2015-06-07T09:43:58Z</time>
      </trkpt>
      <trkpt lat="47.87429" lon="-1.75049">
        <ele>100</ele>
        <time>2015-06-07T09:43:59Z</time>
      </trkpt>
      <trkpt lat="47.87434" lon="-1.75047">
        <ele>101</ele>
        <time>2015-06-07T09:44:00Z</time>
      </trkpt>
      <trkpt lat="47.87439" lon="-1.75046">
        <ele>101</ele>
        <time>2015-06-07T09:44:01Z</time>
      </trkpt>
      <trkpt lat="47.87444" lon="-1.75044">
        <ele>101</ele>
        <time>2015-06-07T09:44:02Z</time>
      </trkpt>
      <trkpt lat="47.87449" lon="-1.75041">
        <ele>102</ele>
        <time>2015-06-07T09:44:03Z</time>
      </trkpt>
      <trkpt lat="47.87453" lon="-1.75039">
        <ele>102</ele>
        <time>2015-06-07T09:44:04Z</time>
      </trkpt>
      <trkpt lat="47.87459" lon="-1.75037">
        <ele>102</ele>
        <time>2015-06-07T09:44:05Z</time>
      </trkpt>
      <trkpt lat="47.87464" lon="-1.75036">
        <ele>102</ele>
        <time>2015-06-07T09:44:06Z</time>
      </trkpt>
      <trkpt lat="47.87469" lon="-1.75033">
        <ele>103</ele>
        <time>2015-06-07T09:44:07Z</time>
      </trkpt>
      <trkpt lat="47.87474" lon="-1.75031">
        <ele>103</ele>
        <time>2015-06-07T09:44:08Z</time>
      </trkpt>
      <trkpt lat="47.87479" lon="-1.7503">
        <ele>103</ele>
        <time>2015-06-07T09:44:09Z</time>
      </trkpt>
      <trkpt lat="47.87484" lon="-1.75028">
        <ele>103</ele>
        <time>2015-06-07T09:44:10Z</time>
      </trkpt>
      <trkpt lat="47.87489" lon="-1.75026">
        <ele>103</ele>
        <time>2015-06-07T09:44:11Z</time>
      </trkpt>
      <trkpt lat="47.87494" lon="-1.75024">
        <ele>103</ele>
        <time>2015-06-07T09:44:12Z</time>
      </trkpt>
      <trkpt lat="47.87498" lon="-1.7502">
        <ele>104</ele>
        <time>2015-06-07T09:44:13Z</time>
      </trkpt>
      <trkpt lat="47.87501" lon="-1.75015">
        <ele>104</ele>
        <time>2015-06-07T09:44:14Z</time>
      </trkpt>
      <trkpt lat="47.87504" lon="-1.75009">
        <ele>104</ele>
        <time>2015-06-07T09:44:15Z</time>
      </trkpt>
      <trkpt lat="47.87505" lon="-1.75002">
        <ele>104</ele>
        <time>2015-06-07T09:44:16Z</time>
      </trkpt>
      <trkpt lat="47.87505" lon="-1.74995">
        <ele>104</ele>
        <time>2015-06-07T09:44:17Z</time>
      </trkpt>
      <trkpt lat="47.87505" lon="-1.74987">
        <ele>103</ele>
        <time>2015-06-07T09:44:18Z</time>
      </trkpt>
      <trkpt lat="47.87504" lon="-1.7498">
        <ele>103</ele>
        <time>2015-06-07T09:44:19Z</time>
      </trkpt>
      <trkpt lat="47.87502" lon="-1.74972">
        <ele>103</ele>
        <time>2015-06-07T09:44:20Z</time>
      </trkpt>
      <trkpt lat="47.87501" lon="-1.74965">
        <ele>103</ele>
        <time>2015-06-07T09:44:21Z</time>
      </trkpt>
      <trkpt lat="47.87499" lon="-1.74957">
        <ele>103</ele>
        <time>2015-06-07T09:44:22Z</time>
      </trkpt>
      <trkpt lat="47.87498" lon="-1.74949">
        <ele>103</ele>
        <time>2015-06-07T09:44:23Z</time>
      </trkpt>
      <trkpt lat="47.87497" lon="-1.74941">
        <ele>103</ele>
        <time>2015-06-07T09:44:24Z</time>
      </trkpt>
      <trkpt lat="47.87495" lon="-1.74934">
        <ele>103</ele>
        <time>2015-06-07T09:44:25Z</time>
      </trkpt>
      <trkpt lat="47.87494" lon="-1.74927">
        <ele>103</ele>
        <time>2015-06-07T09:44:26Z</time>
      </trkpt>
      <trkpt lat="47.87493" lon="-1.74919">
        <ele>103</ele>
        <time>2015-06-07T09:44:27Z</time>
      </trkpt>
      <trkpt lat="47.87492" lon="-1.74913">
        <ele>103</ele>
        <time>2015-06-07T09:44:28Z</time>
      </trkpt>
      <trkpt lat="47.87492" lon="-1.74906">
        <ele>103</ele>
        <time>2015-06-07T09:44:29Z</time>
      </trkpt>
      <trkpt lat="47.87492" lon="-1.74899">
        <ele>103</ele>
        <time>2015-06-07T09:44:30Z</time>
      </trkpt>
      <trkpt lat="47.87494" lon="-1.74894">
        <ele>103</ele>
        <time>2015-06-07T09:44:31Z</time>
      </trkpt>
      <trkpt lat="47.87497" lon="-1.7489">
        <ele>103</ele>
        <time>2015-06-07T09:44:32Z</time>
      </trkpt>
      <trkpt lat="47.87501" lon="-1.74889">
        <ele>103</ele>
        <time>2015-06-07T09:44:33Z</time>
      </trkpt>
      <trkpt lat="47.87505" lon="-1.74889">
        <ele>103</ele>
        <time>2015-06-07T09:44:34Z</time>
      </trkpt>
      <trkpt lat="47.87509" lon="-1.74889">
        <ele>104</ele>
        <time>2015-06-07T09:44:35Z</time>
      </trkpt>
      <trkpt lat="47.87513" lon="-1.74889">
        <ele>104</ele>
        <time>2015-06-07T09:44:36Z</time>
      </trkpt>
      <trkpt lat="47.87518" lon="-1.7489">
        <ele>104</ele>
        <time>2015-06-07T09:44:37Z</time>
      </trkpt>
      <trkpt lat="47.87522" lon="-1.7489">
        <ele>104</ele>
        <time>2015-06-07T09:44:38Z</time>
      </trkpt>
      <trkpt lat="47.87527" lon="-1.74892">
        <ele>104</ele>
        <time>2015-06-07T09:44:39Z</time>
      </trkpt>
      <trkpt lat="47.87531" lon="-1.74895">
        <ele>104</ele>
        <time>2015-06-07T09:44:40Z</time>
      </trkpt>
      <trkpt lat="47.87536" lon="-1.74898">
        <ele>104</ele>
        <time>2015-06-07T09:44:41Z</time>
      </trkpt>
      <trkpt lat="47.8754" lon="-1.74901">
        <ele>104</ele>
        <time>2015-06-07T09:44:42Z</time>
      </trkpt>
      <trkpt lat="47.87544" lon="-1.74906">
        <ele>104</ele>
        <time>2015-06-07T09:44:43Z</time>
      </trkpt>
      <trkpt lat="47.87548" lon="-1.74911">
        <ele>104</ele>
        <time>2015-06-07T09:44:44Z</time>
      </trkpt>
      <trkpt lat="47.87552" lon="-1.74916">
        <ele>104</ele>
        <time>2015-06-07T09:44:45Z</time>
      </trkpt>
      <trkpt lat="47.87556" lon="-1.74922">
        <ele>104</ele>
        <time>2015-06-07T09:44:46Z</time>
      </trkpt>
      <trkpt lat="47.8756" lon="-1.74928">
        <ele>104</ele>
        <time>2015-06-07T09:44:47Z</time>
      </trkpt>
      <trkpt lat="47.87564" lon="-1.74932">
        <ele>103</ele>
        <time>2015-06-07T09:44:48Z</time>
      </trkpt>
      <trkpt lat="47.87569" lon="-1.74937">
        <ele>103</ele>
        <time>2015-06-07T09:44:49Z</time>
      </trkpt>
      <trkpt lat="47.87574" lon="-1.74942">
        <ele>103</ele>
        <time>2015-06-07T09:44:50Z</time>
      </trkpt>
      <trkpt lat="47.87578" lon="-1.74946">
        <ele>103</ele>
        <time>2015-06-07T09:44:51Z</time>
      </trkpt>
      <trkpt lat="47.87583" lon="-1.74951">
        <ele>103</ele>
        <time>2015-06-07T09:44:52Z</time>
      </trkpt>
      <trkpt lat="47.87588" lon="-1.74955">
        <ele>103</ele>
        <time>2015-06-07T09:44:53Z</time>
      </trkpt>
      <trkpt lat="47.87592" lon="-1.74959">
        <ele>102</ele>
        <time>2015-06-07T09:44:54Z</time>
      </trkpt>
      <trkpt lat="47.87597" lon="-1.74964">
        <ele>102</ele>
        <time>2015-06-07T09:44:55Z</time>
      </trkpt>
      <trkpt lat="47.87602" lon="-1.74969">
        <ele>102</ele>
        <time>2015-06-07T09:44:56Z</time>
      </trkpt>
      <trkpt lat="47.87606" lon="-1.74975">
        <ele>102</ele>
        <time>2015-06-07T09:44:57Z</time>
      </trkpt>
      <trkpt lat="47.8761" lon="-1.74981">
        <ele>102</ele>
        <time>2015-06-07T09:44:58Z</time>
      </trkpt>
      <trkpt lat="47.87613" lon="-1.74988">
        <ele>101</ele>
        <time>2015-06-07T09:44:59Z</time>
      </trkpt>
      <trkpt lat="47.87616" lon="-1.74993">
        <ele>101</ele>
        <time>2015-06-07T09:45:00Z</time>
      </trkpt>
      <trkpt lat="47.8762" lon="-1.74995">
        <ele>101</ele>
        <time>2015-06-07T09:45:01Z</time>
      </trkpt>
      <trkpt lat="47.87625" lon="-1.74996">
        <ele>101</ele>
        <time>2015-06-07T09:45:02Z</time>
      </trkpt>
      <trkpt lat="47.8763" lon="-1.74995">
        <ele>100</ele>
        <time>2015-06-07T09:45:03Z</time>
      </trkpt>
      <trkpt lat="47.87635" lon="-1.74995">
        <ele>100</ele>
        <time>2015-06-07T09:45:04Z</time>
      </trkpt>
      <trkpt lat="47.87641" lon="-1.74994">
        <ele>100</ele>
        <time>2015-06-07T09:45:05Z</time>
      </trkpt>
      <trkpt lat="47.87646" lon="-1.74994">
        <ele>100</ele>
        <time>2015-06-07T09:45:06Z</time>
      </trkpt>
      <trkpt lat="47.87652" lon="-1.74995">
        <ele>99</ele>
        <time>2015-06-07T09:45:07Z</time>
      </trkpt>
      <trkpt lat="47.87657" lon="-1.74996">
        <ele>99</ele>
        <time>2015-06-07T09:45:08Z</time>
      </trkpt>
      <trkpt lat="47.87662" lon="-1.74997">
        <ele>99</ele>
        <time>2015-06-07T09:45:09Z</time>
      </trkpt>
      <trkpt lat="47.87667" lon="-1.74999">
        <ele>99</ele>
        <time>2015-06-07T09:45:10Z</time>
      </trkpt>
      <trkpt lat="47.87672" lon="-1.75003">
        <ele>99</ele>
        <time>2015-06-07T09:45:11Z</time>
      </trkpt>
      <trkpt lat="47.87676" lon="-1.75009">
        <ele>98</ele>
        <time>2015-06-07T09:45:12Z</time>
      </trkpt>
      <trkpt lat="47.87681" lon="-1.75013">
        <ele>98</ele>
        <time>2015-06-07T09:45:13Z</time>
      </trkpt>
      <trkpt lat="47.87686" lon="-1.75015">
        <ele>98</ele>
        <time>2015-06-07T09:45:14Z</time>
      </trkpt>
      <trkpt lat="47.87692" lon="-1.75017">
        <ele>98</ele>
        <time>2015-06-07T09:45:15Z</time>
      </trkpt>
      <trkpt lat="47.87697" lon="-1.75018">
        <ele>98</ele>
        <time>2015-06-07T09:45:16Z</time>
      </trkpt>
      <trkpt lat="47.87702" lon="-1.7502">
        <ele>98</ele>
        <time>2015-06-07T09:45:17Z</time>
      </trkpt>
      <trkpt lat="47.87707" lon="-1.75021">
        <ele>97</ele>
        <time>2015-06-07T09:45:18Z</time>
      </trkpt>
      <trkpt lat="47.8771" lon="-1.75023">
        <ele>97</ele>
        <time>2015-06-07T09:45:19Z</time>
      </trkpt>
      <trkpt lat="47.87712" lon="-1.75024">
        <ele>97</ele>
        <time>2015-06-07T09:45:20Z</time>
      </trkpt>
      <trkpt lat="47.87713" lon="-1.75026">
        <ele>97</ele>
        <time>2015-06-07T09:45:21Z</time>
      </trkpt>
      <trkpt lat="47.87713" lon="-1.75026">
        <ele>97</ele>
        <time>2015-06-07T09:45:22Z</time>
      </trkpt>
      <trkpt lat="47.87713" lon="-1.75026">
        <ele>97</ele>
        <time>2015-06-07T09:45:23Z</time>
      </trkpt>
      <trkpt lat="47.87713" lon="-1.75026">
        <ele>97</ele>
        <time>2015-06-07T09:45:24Z</time>
      </trkpt>
      <trkpt lat="47.87714" lon="-1.75027">
        <ele>97</ele>
        <time>2015-06-07T09:45:25Z</time>
      </trkpt>
      <trkpt lat="47.87714" lon="-1.75027">
        <ele>97</ele>
        <time>2015-06-07T09:45:26Z</time>
      </trkpt>
      <trkpt lat="47.87714" lon="-1.75027">
        <ele>97</ele>
        <time>2015-06-07T09:45:27Z</time>
      </trkpt>
      <trkpt lat="47.87714" lon="-1.75027">
        <ele>97</ele>
        <time>2015-06-07T09:45:28Z</time>
      </trkpt>
      <trkpt lat="47.87714" lon="-1.75027">
        <ele>97</ele>
        <time>2015-06-07T09:45:29Z</time>
      </trkpt>
      <trkpt lat="47.87714" lon="-1.75031">
        <ele>96</ele>
        <time>2015-06-07T09:45:30Z</time>
      </trkpt>
      <trkpt lat="47.87714" lon="-1.75031">
        <ele>96</ele>
        <time>2015-06-07T09:45:31Z</time>
      </trkpt>
      <trkpt lat="47.87714" lon="-1.75031">
        <ele>96</ele>
        <time>2015-06-07T09:45:32Z</time>
      </trkpt>
      <trkpt lat="47.87715" lon="-1.7503">
        <ele>96</ele>
        <time>2015-06-07T09:45:33Z</time>
      </trkpt>
      <trkpt lat="47.87714" lon="-1.7503">
        <ele>96</ele>
        <time>2015-06-07T09:45:34Z</time>
      </trkpt>
      <trkpt lat="47.87714" lon="-1.7503">
        <ele>96</ele>
        <time>2015-06-07T09:45:35Z</time>
      </trkpt>
      <trkpt lat="47.87714" lon="-1.7503">
        <ele>96</ele>
        <time>2015-06-07T09:45:36Z</time>
      </trkpt>
      <trkpt lat="47.87714" lon="-1.75029">
        <ele>96</ele>
        <time>2015-06-07T09:45:37Z</time>
      </trkpt>
      <trkpt lat="47.87719" lon="-1.7502">
        <ele>99</ele>
        <time>2015-06-07T09:45:38Z</time>
      </trkpt>
      <trkpt lat="47.87721" lon="-1.75019">
        <ele>99</ele>
        <time>2015-06-07T09:45:39Z</time>
      </trkpt>
      <trkpt lat="47.87722" lon="-1.75017">
        <ele>99</ele>
        <time>2015-06-07T09:45:40Z</time>
      </trkpt>
      <trkpt lat="47.87724" lon="-1.75016">
        <ele>99</ele>
        <time>2015-06-07T09:45:41Z</time>
      </trkpt>
      <trkpt lat="47.87726" lon="-1.75016">
        <ele>99</ele>
        <time>2015-06-07T09:45:42Z</time>
      </trkpt>
      <trkpt lat="47.87728" lon="-1.75015">
        <ele>99</ele>
        <time>2015-06-07T09:45:43Z</time>
      </trkpt>
      <trkpt lat="47.8773" lon="-1.75016">
        <ele>99</ele>
        <time>2015-06-07T09:45:44Z</time>
      </trkpt>
      <trkpt lat="47.87732" lon="-1.75017">
        <ele>99</ele>
        <time>2015-06-07T09:45:45Z</time>
      </trkpt>
      <trkpt lat="47.87735" lon="-1.75017">
        <ele>99</ele>
        <time>2015-06-07T09:45:46Z</time>
      </trkpt>
      <trkpt lat="47.87738" lon="-1.75016">
        <ele>99</ele>
        <time>2015-06-07T09:45:47Z</time>
      </trkpt>
      <trkpt lat="47.87742" lon="-1.75015">
        <ele>99</ele>
        <time>2015-06-07T09:45:48Z</time>
      </trkpt>
      <trkpt lat="47.87745" lon="-1.75013">
        <ele>99</ele>
        <time>2015-06-07T09:45:49Z</time>
      </trkpt>
      <trkpt lat="47.87748" lon="-1.75012">
        <ele>99</ele>
        <time>2015-06-07T09:45:50Z</time>
      </trkpt>
      <trkpt lat="47.87751" lon="-1.75013">
        <ele>99</ele>
        <time>2015-06-07T09:45:51Z</time>
      </trkpt>
      <trkpt lat="47.87753" lon="-1.75014">
        <ele>99</ele>
        <time>2015-06-07T09:45:52Z</time>
      </trkpt>
      <trkpt lat="47.87755" lon="-1.75017">
        <ele>99</ele>
        <time>2015-06-07T09:45:53Z</time>
      </trkpt>
      <trkpt lat="47.87756" lon="-1.7502">
        <ele>98</ele>
        <time>2015-06-07T09:45:54Z</time>
      </trkpt>
      <trkpt lat="47.87757" lon="-1.75023">
        <ele>98</ele>
        <time>2015-06-07T09:45:55Z</time>
      </trkpt>
      <trkpt lat="47.87757" lon="-1.75024">
        <ele>98</ele>
        <time>2015-06-07T09:45:56Z</time>
      </trkpt>
      <trkpt lat="47.87757" lon="-1.75024">
        <ele>98</ele>
        <time>2015-06-07T09:45:57Z</time>
      </trkpt>
      <trkpt lat="47.87756" lon="-1.75025">
        <ele>98</ele>
        <time>2015-06-07T09:45:58Z</time>
      </trkpt>
      <trkpt lat="47.87755" lon="-1.75025">
        <ele>98</ele>
        <time>2015-06-07T09:45:59Z</time>
      </trkpt>
      <trkpt lat="47.87754" lon="-1.75025">
        <ele>98</ele>
        <time>2015-06-07T09:46:00Z</time>
      </trkpt>
      <trkpt lat="47.87752" lon="-1.75025">
        <ele>98</ele>
        <time>2015-06-07T09:46:01Z</time>
      </trkpt>
      <trkpt lat="47.87751" lon="-1.75026">
        <ele>98</ele>
        <time>2015-06-07T09:46:02Z</time>
      </trkpt>
      <trkpt lat="47.8775" lon="-1.75028">
        <ele>98</ele>
        <time>2015-06-07T09:46:03Z</time>
      </trkpt>
      <trkpt lat="47.8775" lon="-1.75031">
        <ele>98</ele>
        <time>2015-06-07T09:46:04Z</time>
      </trkpt>
      <trkpt lat="47.87752" lon="-1.75032">
        <ele>97</ele>
        <time>2015-06-07T09:46:05Z</time>
      </trkpt>
      <trkpt lat="47.87754" lon="-1.75033">
        <ele>97</ele>
        <time>2015-06-07T09:46:06Z</time>
      </trkpt>
      <trkpt lat="47.87757" lon="-1.75033">
        <ele>97</ele>
        <time>2015-06-07T09:46:07Z</time>
      </trkpt>
      <trkpt lat="47.8776" lon="-1.75032">
        <ele>97</ele>
        <time>2015-06-07T09:46:08Z</time>
      </trkpt>
      <trkpt lat="47.87764" lon="-1.75032">
        <ele>97</ele>
        <time>2015-06-07T09:46:09Z</time>
      </trkpt>
      <trkpt lat="47.87769" lon="-1.75032">
        <ele>96</ele>
        <time>2015-06-07T09:46:10Z</time>
      </trkpt>
      <trkpt lat="47.87774" lon="-1.75032">
        <ele>96</ele>
        <time>2015-06-07T09:46:11Z</time>
      </trkpt>
      <trkpt lat="47.87777" lon="-1.7503">
        <ele>96</ele>
        <time>2015-06-07T09:46:12Z</time>
      </trkpt>
      <trkpt lat="47.87781" lon="-1.7503">
        <ele>96</ele>
        <time>2015-06-07T09:46:13Z</time>
      </trkpt>
      <trkpt lat="47.87784" lon="-1.75029">
        <ele>96</ele>
        <time>2015-06-07T09:46:14Z</time>
      </trkpt>
      <trkpt lat="47.87787" lon="-1.7503">
        <ele>96</ele>
        <time>2015-06-07T09:46:15Z</time>
      </trkpt>
      <trkpt lat="47.87791" lon="-1.75031">
        <ele>95</ele>
        <time>2015-06-07T09:46:16Z</time>
      </trkpt>
      <trkpt lat="47.87795" lon="-1.75032">
        <ele>95</ele>
        <time>2015-06-07T09:46:17Z</time>
      </trkpt>
      <trkpt lat="47.87799" lon="-1.75034">
        <ele>95</ele>
        <time>2015-06-07T09:46:18Z</time>
      </trkpt>
      <trkpt lat="47.87802" lon="-1.75036">
        <ele>95</ele>
        <time>2015-06-07T09:46:19Z</time>
      </trkpt>
      <trkpt lat="47.87803" lon="-1.75038">
        <ele>94</ele>
        <time>2015-06-07T09:46:20Z</time>
      </trkpt>
      <trkpt lat="47.87805" lon="-1.75041">
        <ele>94</ele>
        <time>2015-06-07T09:46:21Z</time>
      </trkpt>
      <trkpt lat="47.87808" lon="-1.75041">
        <ele>94</ele>
        <time>2015-06-07T09:46:22Z</time>
      </trkpt>
      <trkpt lat="47.87811" lon="-1.7504">
        <ele>94</ele>
        <time>2015-06-07T09:46:23Z</time>
      </trkpt>
      <trkpt lat="47.87814" lon="-1.75038">
        <ele>94</ele>
        <time>2015-06-07T09:46:24Z</time>
      </trkpt>
      <trkpt lat="47.87817" lon="-1.75037">
        <ele>94</ele>
        <time>2015-06-07T09:46:25Z</time>
      </trkpt>
      <trkpt lat="47.87819" lon="-1.75037">
        <ele>94</ele>
        <time>2015-06-07T09:46:26Z</time>
      </trkpt>
      <trkpt lat="47.87823" lon="-1.75035">
        <ele>94</ele>
        <time>2015-06-07T09:46:27Z</time>
      </trkpt>
      <trkpt lat="47.87825" lon="-1.75033">
        <ele>94</ele>
        <time>2015-06-07T09:46:28Z</time>
      </trkpt>
      <trkpt lat="47.87827" lon="-1.7503">
        <ele>94</ele>
        <time>2015-06-07T09:46:29Z</time>
      </trkpt>
      <trkpt lat="47.87828" lon="-1.75027">
        <ele>94</ele>
        <time>2015-06-07T09:46:30Z</time>
      </trkpt>
      <trkpt lat="47.87828" lon="-1.75024">
        <ele>94</ele>
        <time>2015-06-07T09:46:31Z</time>
      </trkpt>
      <trkpt lat="47.87829" lon="-1.75022">
        <ele>93</ele>
        <time>2015-06-07T09:46:32Z</time>
      </trkpt>
      <trkpt lat="47.8783" lon="-1.75022">
        <ele>93</ele>
        <time>2015-06-07T09:46:33Z</time>
      </trkpt>
      <trkpt lat="47.87832" lon="-1.75023">
        <ele>93</ele>
        <time>2015-06-07T09:46:34Z</time>
      </trkpt>
      <trkpt lat="47.87833" lon="-1.75024">
        <ele>93</ele>
        <time>2015-06-07T09:46:35Z</time>
      </trkpt>
      <trkpt lat="47.87836" lon="-1.75026">
        <ele>93</ele>
        <time>2015-06-07T09:46:36Z</time>
      </trkpt>
      <trkpt lat="47.87838" lon="-1.75028">
        <ele>92</ele>
        <time>2015-06-07T09:46:37Z</time>
      </trkpt>
      <trkpt lat="47.8784" lon="-1.75029">
        <ele>92</ele>
        <time>2015-06-07T09:46:38Z</time>
      </trkpt>
      <trkpt lat="47.87843" lon="-1.75028">
        <ele>92</ele>
        <time>2015-06-07T09:46:39Z</time>
      </trkpt>
      <trkpt lat="47.87846" lon="-1.75028">
        <ele>92</ele>
        <time>2015-06-07T09:46:40Z</time>
      </trkpt>
      <trkpt lat="47.8785" lon="-1.75028">
        <ele>92</ele>
        <time>2015-06-07T09:46:41Z</time>
      </trkpt>
      <trkpt lat="47.87854" lon="-1.75029">
        <ele>92</ele>
        <time>2015-06-07T09:46:42Z</time>
      </trkpt>
      <trkpt lat="47.87857" lon="-1.75029">
        <ele>92</ele>
        <time>2015-06-07T09:46:43Z</time>
      </trkpt>
      <trkpt lat="47.87859" lon="-1.75027">
        <ele>92</ele>
        <time>2015-06-07T09:46:44Z</time>
      </trkpt>
      <trkpt lat="47.87862" lon="-1.75024">
        <ele>92</ele>
        <time>2015-06-07T09:46:45Z</time>
      </trkpt>
      <trkpt lat="47.87864" lon="-1.75024">
        <ele>92</ele>
        <time>2015-06-07T09:46:46Z</time>
      </trkpt>
      <trkpt lat="47.87866" lon="-1.75025">
        <ele>92</ele>
        <time>2015-06-07T09:46:47Z</time>
      </trkpt>
      <trkpt lat="47.87867" lon="-1.75028">
        <ele>91</ele>
        <time>2015-06-07T09:46:48Z</time>
      </trkpt>
      <trkpt lat="47.87869" lon="-1.75031">
        <ele>91</ele>
        <time>2015-06-07T09:46:49Z</time>
      </trkpt>
      <trkpt lat="47.87872" lon="-1.75033">
        <ele>91</ele>
        <time>2015-06-07T09:46:50Z</time>
      </trkpt>
      <trkpt lat="47.87874" lon="-1.75032">
        <ele>91</ele>
        <time>2015-06-07T09:46:51Z</time>
      </trkpt>
      <trkpt lat="47.87876" lon="-1.75033">
        <ele>91</ele>
        <time>2015-06-07T09:46:52Z</time>
      </trkpt>
      <trkpt lat="47.87878" lon="-1.75036">
        <ele>90</ele>
        <time>2015-06-07T09:46:53Z</time>
      </trkpt>
      <trkpt lat="47.87879" lon="-1.75039">
        <ele>90</ele>
        <time>2015-06-07T09:46:54Z</time>
      </trkpt>
      <trkpt lat="47.87881" lon="-1.75043">
        <ele>90</ele>
        <time>2015-06-07T09:46:55Z</time>
      </trkpt>
      <trkpt lat="47.87882" lon="-1.75047">
        <ele>90</ele>
        <time>2015-06-07T09:46:56Z</time>
      </trkpt>
      <trkpt lat="47.87883" lon="-1.75051">
        <ele>90</ele>
        <time>2015-06-07T09:46:57Z</time>
      </trkpt>
      <trkpt lat="47.87885" lon="-1.75054">
        <ele>90</ele>
        <time>2015-06-07T09:46:58Z</time>
      </trkpt>
      <trkpt lat="47.87887" lon="-1.75058">
        <ele>90</ele>
        <time>2015-06-07T09:46:59Z</time>
      </trkpt>
      <trkpt lat="47.87889" lon="-1.75061">
        <ele>90</ele>
        <time>2015-06-07T09:47:00Z</time>
      </trkpt>
      <trkpt lat="47.87892" lon="-1.75064">
        <ele>90</ele>
        <time>2015-06-07T09:47:01Z</time>
      </trkpt>
      <trkpt lat="47.87895" lon="-1.75068">
        <ele>90</ele>
        <time>2015-06-07T09:47:02Z</time>
      </trkpt>
      <trkpt lat="47.87898" lon="-1.75072">
        <ele>89</ele>
        <time>2015-06-07T09:47:03Z</time>
      </trkpt>
      <trkpt lat="47.87899" lon="-1.75074">
        <ele>89</ele>
        <time>2015-06-07T09:47:04Z</time>
      </trkpt>
      <trkpt lat="47.87901" lon="-1.75075">
        <ele>89</ele>
        <time>2015-06-07T09:47:05Z</time>
      </trkpt>
      <trkpt lat="47.87902" lon="-1.75078">
        <ele>89</ele>
        <time>2015-06-07T09:47:06Z</time>
      </trkpt>
      <trkpt lat="47.87905" lon="-1.75081">
        <ele>89</ele>
        <time>2015-06-07T09:47:07Z</time>
      </trkpt>
      <trkpt lat="47.87908" lon="-1.75084">
        <ele>89</ele>
        <time>2015-06-07T09:47:08Z</time>
      </trkpt>
      <trkpt lat="47.8791" lon="-1.75087">
        <ele>89</ele>
        <time>2015-06-07T09:47:09Z</time>
      </trkpt>
      <trkpt lat="47.87913" lon="-1.75091">
        <ele>88</ele>
        <time>2015-06-07T09:47:10Z</time>
      </trkpt>
      <trkpt lat="47.87916" lon="-1.75094">
        <ele>88</ele>
        <time>2015-06-07T09:47:11Z</time>
      </trkpt>
      <trkpt lat="47.87919" lon="-1.75097">
        <ele>88</ele>
        <time>2015-06-07T09:47:12Z</time>
      </trkpt>
      <trkpt lat="47.87923" lon="-1.75102">
        <ele>88</ele>
        <time>2015-06-07T09:47:13Z</time>
      </trkpt>
      <trkpt lat="47.87925" lon="-1.75106">
        <ele>88</ele>
        <time>2015-06-07T09:47:14Z</time>
      </trkpt>
      <trkpt lat="47.87928" lon="-1.75111">
        <ele>88</ele>
        <time>2015-06-07T09:47:15Z</time>
      </trkpt>
      <trkpt lat="47.87929" lon="-1.75116">
        <ele>88</ele>
        <time>2015-06-07T09:47:16Z</time>
      </trkpt>
      <trkpt lat="47.87931" lon="-1.7512">
        <ele>87</ele>
        <time>2015-06-07T09:47:17Z</time>
      </trkpt>
      <trkpt lat="47.87935" lon="-1.75123">
        <ele>87</ele>
        <time>2015-06-07T09:47:18Z</time>
      </trkpt>
      <trkpt lat="47.87938" lon="-1.75128">
        <ele>87</ele>
        <time>2015-06-07T09:47:19Z</time>
      </trkpt>
      <trkpt lat="47.87941" lon="-1.75133">
        <ele>87</ele>
        <time>2015-06-07T09:47:20Z</time>
      </trkpt>
      <trkpt lat="47.87943" lon="-1.75139">
        <ele>87</ele>
        <time>2015-06-07T09:47:21Z</time>
      </trkpt>
      <trkpt lat="47.87945" lon="-1.75142">
        <ele>86</ele>
        <time>2015-06-07T09:47:22Z</time>
      </trkpt>
      <trkpt lat="47.87946" lon="-1.75145">
        <ele>86</ele>
        <time>2015-06-07T09:47:23Z</time>
      </trkpt>
      <trkpt lat="47.87946" lon="-1.75148">
        <ele>86</ele>
        <time>2015-06-07T09:47:24Z</time>
      </trkpt>
      <trkpt lat="47.87945" lon="-1.75151">
        <ele>86</ele>
        <time>2015-06-07T09:47:25Z</time>
      </trkpt>
      <trkpt lat="47.87943" lon="-1.75152">
        <ele>86</ele>
        <time>2015-06-07T09:47:26Z</time>
      </trkpt>
      <trkpt lat="47.87941" lon="-1.75151">
        <ele>86</ele>
        <time>2015-06-07T09:47:27Z</time>
      </trkpt>
      <trkpt lat="47.87938" lon="-1.75152">
        <ele>86</ele>
        <time>2015-06-07T09:47:28Z</time>
      </trkpt>
      <trkpt lat="47.87936" lon="-1.75153">
        <ele>86</ele>
        <time>2015-06-07T09:47:29Z</time>
      </trkpt>
      <trkpt lat="47.87934" lon="-1.75154">
        <ele>86</ele>
        <time>2015-06-07T09:47:30Z</time>
      </trkpt>
      <trkpt lat="47.87931" lon="-1.75155">
        <ele>86</ele>
        <time>2015-06-07T09:47:31Z</time>
      </trkpt>
      <trkpt lat="47.87928" lon="-1.75156">
        <ele>86</ele>
        <time>2015-06-07T09:47:32Z</time>
      </trkpt>
      <trkpt lat="47.87925" lon="-1.75156">
        <ele>86</ele>
        <time>2015-06-07T09:47:33Z</time>
      </trkpt>
      <trkpt lat="47.87922" lon="-1.75157">
        <ele>87</ele>
        <time>2015-06-07T09:47:34Z</time>
      </trkpt>
      <trkpt lat="47.87918" lon="-1.75158">
        <ele>87</ele>
        <time>2015-06-07T09:47:35Z</time>
      </trkpt>
      <trkpt lat="47.87915" lon="-1.75159">
        <ele>87</ele>
        <time>2015-06-07T09:47:36Z</time>
      </trkpt>
      <trkpt lat="47.87912" lon="-1.75159">
        <ele>87</ele>
        <time>2015-06-07T09:47:37Z</time>
      </trkpt>
      <trkpt lat="47.87909" lon="-1.75159">
        <ele>88</ele>
        <time>2015-06-07T09:47:38Z</time>
      </trkpt>
      <trkpt lat="47.87907" lon="-1.75159">
        <ele>88</ele>
        <time>2015-06-07T09:47:39Z</time>
      </trkpt>
      <trkpt lat="47.87904" lon="-1.75159">
        <ele>88</ele>
        <time>2015-06-07T09:47:40Z</time>
      </trkpt>
      <trkpt lat="47.87903" lon="-1.75159">
        <ele>88</ele>
        <time>2015-06-07T09:47:41Z</time>
      </trkpt>
      <trkpt lat="47.87902" lon="-1.7516">
        <ele>88</ele>
        <time>2015-06-07T09:47:42Z</time>
      </trkpt>
      <trkpt lat="47.87902" lon="-1.75161">
        <ele>89</ele>
        <time>2015-06-07T09:47:43Z</time>
      </trkpt>
      <trkpt lat="47.87901" lon="-1.75163">
        <ele>89</ele>
        <time>2015-06-07T09:47:44Z</time>
      </trkpt>
      <trkpt lat="47.87899" lon="-1.75166">
        <ele>89</ele>
        <time>2015-06-07T09:47:45Z</time>
      </trkpt>
      <trkpt lat="47.87899" lon="-1.75169">
        <ele>89</ele>
        <time>2015-06-07T09:47:46Z</time>
      </trkpt>
      <trkpt lat="47.87898" lon="-1.75173">
        <ele>90</ele>
        <time>2015-06-07T09:47:47Z</time>
      </trkpt>
      <trkpt lat="47.87898" lon="-1.75177">
        <ele>90</ele>
        <time>2015-06-07T09:47:48Z</time>
      </trkpt>
      <trkpt lat="47.87897" lon="-1.75181">
        <ele>90</ele>
        <time>2015-06-07T09:47:49Z</time>
      </trkpt>
      <trkpt lat="47.87895" lon="-1.75182">
        <ele>90</ele>
        <time>2015-06-07T09:47:50Z</time>
      </trkpt>
      <trkpt lat="47.87893" lon="-1.75184">
        <ele>90</ele>
        <time>2015-06-07T09:47:51Z</time>
      </trkpt>
      <trkpt lat="47.87891" lon="-1.75186">
        <ele>91</ele>
        <time>2015-06-07T09:47:52Z</time>
      </trkpt>
      <trkpt lat="47.87889" lon="-1.75188">
        <ele>91</ele>
        <time>2015-06-07T09:47:53Z</time>
      </trkpt>
      <trkpt lat="47.87887" lon="-1.75191">
        <ele>91</ele>
        <time>2015-06-07T09:47:54Z</time>
      </trkpt>
      <trkpt lat="47.87885" lon="-1.75193">
        <ele>91</ele>
        <time>2015-06-07T09:47:55Z</time>
      </trkpt>
      <trkpt lat="47.87883" lon="-1.75195">
        <ele>92</ele>
        <time>2015-06-07T09:47:56Z</time>
      </trkpt>
      <trkpt lat="47.87881" lon="-1.75195">
        <ele>92</ele>
        <time>2015-06-07T09:47:57Z</time>
      </trkpt>
      <trkpt lat="47.87879" lon="-1.75195">
        <ele>92</ele>
        <time>2015-06-07T09:47:58Z</time>
      </trkpt>
      <trkpt lat="47.87876" lon="-1.75194">
        <ele>93</ele>
        <time>2015-06-07T09:47:59Z</time>
      </trkpt>
      <trkpt lat="47.87873" lon="-1.75192">
        <ele>93</ele>
        <time>2015-06-07T09:48:00Z</time>
      </trkpt>
      <trkpt lat="47.8787" lon="-1.75192">
        <ele>93</ele>
        <time>2015-06-07T09:48:01Z</time>
      </trkpt>
      <trkpt lat="47.87867" lon="-1.75191">
        <ele>93</ele>
        <time>2015-06-07T09:48:02Z</time>
      </trkpt>
      <trkpt lat="47.87864" lon="-1.7519">
        <ele>94</ele>
        <time>2015-06-07T09:48:03Z</time>
      </trkpt>
      <trkpt lat="47.87861" lon="-1.7519">
        <ele>94</ele>
        <time>2015-06-07T09:48:04Z</time>
      </trkpt>
      <trkpt lat="47.87857" lon="-1.7519">
        <ele>94</ele>
        <time>2015-06-07T09:48:05Z</time>
      </trkpt>
      <trkpt lat="47.87854" lon="-1.75189">
        <ele>95</ele>
        <time>2015-06-07T09:48:06Z</time>
      </trkpt>
      <trkpt lat="47.87851" lon="-1.7519">
        <ele>95</ele>
        <time>2015-06-07T09:48:07Z</time>
      </trkpt>
      <trkpt lat="47.8785" lon="-1.75192">
        <ele>95</ele>
        <time>2015-06-07T09:48:08Z</time>
      </trkpt>
      <trkpt lat="47.87849" lon="-1.75196">
        <ele>95</ele>
        <time>2015-06-07T09:48:09Z</time>
      </trkpt>
      <trkpt lat="47.8785" lon="-1.752">
        <ele>95</ele>
        <time>2015-06-07T09:48:10Z</time>
      </trkpt>
      <trkpt lat="47.87851" lon="-1.75204">
        <ele>95</ele>
        <time>2015-06-07T09:48:11Z</time>
      </trkpt>
      <trkpt lat="47.87853" lon="-1.75209">
        <ele>95</ele>
        <time>2015-06-07T09:48:12Z</time>
      </trkpt>
      <trkpt lat="47.87853" lon="-1.75214">
        <ele>95</ele>
        <time>2015-06-07T09:48:13Z</time>
      </trkpt>
      <trkpt lat="47.87853" lon="-1.7522">
        <ele>95</ele>
        <time>2015-06-07T09:48:14Z</time>
      </trkpt>
      <trkpt lat="47.87851" lon="-1.75225">
        <ele>95</ele>
        <time>2015-06-07T09:48:15Z</time>
      </trkpt>
      <trkpt lat="47.87849" lon="-1.7523">
        <ele>95</ele>
        <time>2015-06-07T09:48:16Z</time>
      </trkpt>
      <trkpt lat="47.87847" lon="-1.75235">
        <ele>95</ele>
        <time>2015-06-07T09:48:17Z</time>
      </trkpt>
      <trkpt lat="47.87846" lon="-1.7524">
        <ele>95</ele>
        <time>2015-06-07T09:48:18Z</time>
      </trkpt>
      <trkpt lat="47.87844" lon="-1.75244">
        <ele>95</ele>
        <time>2015-06-07T09:48:19Z</time>
      </trkpt>
      <trkpt lat="47.87844" lon="-1.75249">
        <ele>95</ele>
        <time>2015-06-07T09:48:20Z</time>
      </trkpt>
      <trkpt lat="47.87844" lon="-1.75254">
        <ele>95</ele>
        <time>2015-06-07T09:48:21Z</time>
      </trkpt>
      <trkpt lat="47.87844" lon="-1.7526">
        <ele>95</ele>
        <time>2015-06-07T09:48:22Z</time>
      </trkpt>
      <trkpt lat="47.87844" lon="-1.75265">
        <ele>96</ele>
        <time>2015-06-07T09:48:23Z</time>
      </trkpt>
      <trkpt lat="47.87843" lon="-1.7527">
        <ele>96</ele>
        <time>2015-06-07T09:48:24Z</time>
      </trkpt>
      <trkpt lat="47.87843" lon="-1.75274">
        <ele>96</ele>
        <time>2015-06-07T09:48:25Z</time>
      </trkpt>
      <trkpt lat="47.87843" lon="-1.75279">
        <ele>96</ele>
        <time>2015-06-07T09:48:26Z</time>
      </trkpt>
      <trkpt lat="47.87842" lon="-1.75281">
        <ele>96</ele>
        <time>2015-06-07T09:48:27Z</time>
      </trkpt>
      <trkpt lat="47.8784" lon="-1.75282">
        <ele>96</ele>
        <time>2015-06-07T09:48:28Z</time>
      </trkpt>
      <trkpt lat="47.87839" lon="-1.75284">
        <ele>96</ele>
        <time>2015-06-07T09:48:29Z</time>
      </trkpt>
      <trkpt lat="47.87837" lon="-1.75286">
        <ele>96</ele>
        <time>2015-06-07T09:48:30Z</time>
      </trkpt>
      <trkpt lat="47.87835" lon="-1.75287">
        <ele>96</ele>
        <time>2015-06-07T09:48:31Z</time>
      </trkpt>
      <trkpt lat="47.87833" lon="-1.75288">
        <ele>96</ele>
        <time>2015-06-07T09:48:32Z</time>
      </trkpt>
      <trkpt lat="47.8783" lon="-1.75287">
        <ele>97</ele>
        <time>2015-06-07T09:48:33Z</time>
      </trkpt>
      <trkpt lat="47.87829" lon="-1.75286">
        <ele>97</ele>
        <time>2015-06-07T09:48:34Z</time>
      </trkpt>
      <trkpt lat="47.87827" lon="-1.75285">
        <ele>97</ele>
        <time>2015-06-07T09:48:35Z</time>
      </trkpt>
      <trkpt lat="47.87826" lon="-1.75285">
        <ele>97</ele>
        <time>2015-06-07T09:48:36Z</time>
      </trkpt>
      <trkpt lat="47.87824" lon="-1.75287">
        <ele>97</ele>
        <time>2015-06-07T09:48:37Z</time>
      </trkpt>
      <trkpt lat="47.87823" lon="-1.75289">
        <ele>97</ele>
        <time>2015-06-07T09:48:38Z</time>
      </trkpt>
      <trkpt lat="47.87823" lon="-1.75293">
        <ele>97</ele>
        <time>2015-06-07T09:48:39Z</time>
      </trkpt>
      <trkpt lat="47.87823" lon="-1.75296">
        <ele>97</ele>
        <time>2015-06-07T09:48:40Z</time>
      </trkpt>
      <trkpt lat="47.87821" lon="-1.75301">
        <ele>97</ele>
        <time>2015-06-07T09:48:41Z</time>
      </trkpt>
      <trkpt lat="47.87819" lon="-1.75304">
        <ele>97</ele>
        <time>2015-06-07T09:48:42Z</time>
      </trkpt>
      <trkpt lat="47.87817" lon="-1.75306">
        <ele>97</ele>
        <time>2015-06-07T09:48:43Z</time>
      </trkpt>
      <trkpt lat="47.87815" lon="-1.75306">
        <ele>97</ele>
        <time>2015-06-07T09:48:44Z</time>
      </trkpt>
      <trkpt lat="47.87813" lon="-1.75305">
        <ele>97</ele>
        <time>2015-06-07T09:48:45Z</time>
      </trkpt>
      <trkpt lat="47.87811" lon="-1.75303">
        <ele>97</ele>
        <time>2015-06-07T09:48:46Z</time>
      </trkpt>
      <trkpt lat="47.87809" lon="-1.753">
        <ele>97</ele>
        <time>2015-06-07T09:48:47Z</time>
      </trkpt>
      <trkpt lat="47.87808" lon="-1.75299">
        <ele>97</ele>
        <time>2015-06-07T09:48:48Z</time>
      </trkpt>
      <trkpt lat="47.87807" lon="-1.75299">
        <ele>97</ele>
        <time>2015-06-07T09:48:49Z</time>
      </trkpt>
      <trkpt lat="47.87807" lon="-1.75299">
        <ele>97</ele>
        <time>2015-06-07T09:48:50Z</time>
      </trkpt>
      <trkpt lat="47.87807" lon="-1.75299">
        <ele>97</ele>
        <time>2015-06-07T09:48:51Z</time>
      </trkpt>
      <trkpt lat="47.87806" lon="-1.753">
        <ele>97</ele>
        <time>2015-06-07T09:48:52Z</time>
      </trkpt>
      <trkpt lat="47.87806" lon="-1.75302">
        <ele>97</ele>
        <time>2015-06-07T09:48:53Z</time>
      </trkpt>
      <trkpt lat="47.87806" lon="-1.75304">
        <ele>97</ele>
        <time>2015-06-07T09:48:54Z</time>
      </trkpt>
      <trkpt lat="47.87807" lon="-1.75306">
        <ele>97</ele>
        <time>2015-06-07T09:48:55Z</time>
      </trkpt>
      <trkpt lat="47.87807" lon="-1.75308">
        <ele>97</ele>
        <time>2015-06-07T09:48:56Z</time>
      </trkpt>
      <trkpt lat="47.87806" lon="-1.7531">
        <ele>97</ele>
        <time>2015-06-07T09:48:57Z</time>
      </trkpt>
      <trkpt lat="47.87805" lon="-1.75312">
        <ele>97</ele>
        <time>2015-06-07T09:48:58Z</time>
      </trkpt>
      <trkpt lat="47.87803" lon="-1.75313">
        <ele>98</ele>
        <time>2015-06-07T09:48:59Z</time>
      </trkpt>
      <trkpt lat="47.87802" lon="-1.75315">
        <ele>98</ele>
        <time>2015-06-07T09:49:00Z</time>
      </trkpt>
      <trkpt lat="47.87801" lon="-1.75319">
        <ele>98</ele>
        <time>2015-06-07T09:49:01Z</time>
      </trkpt>
      <trkpt lat="47.87799" lon="-1.75323">
        <ele>98</ele>
        <time>2015-06-07T09:49:02Z</time>
      </trkpt>
      <trkpt lat="47.87798" lon="-1.75327">
        <ele>98</ele>
        <time>2015-06-07T09:49:03Z</time>
      </trkpt>
      <trkpt lat="47.87798" lon="-1.75331">
        <ele>98</ele>
        <time>2015-06-07T09:49:04Z</time>
      </trkpt>
      <trkpt lat="47.87798" lon="-1.75336">
        <ele>98</ele>
        <time>2015-06-07T09:49:05Z</time>
      </trkpt>
      <trkpt lat="47.878" lon="-1.7534">
        <ele>98</ele>
        <time>2015-06-07T09:49:06Z</time>
      </trkpt>
      <trkpt lat="47.87801" lon="-1.75345">
        <ele>98</ele>
        <time>2015-06-07T09:49:07Z</time>
      </trkpt>
      <trkpt lat="47.87802" lon="-1.7535">
        <ele>99</ele>
        <time>2015-06-07T09:49:08Z</time>
      </trkpt>
      <trkpt lat="47.87803" lon="-1.75355">
        <ele>99</ele>
        <time>2015-06-07T09:49:09Z</time>
      </trkpt>
      <trkpt lat="47.87804" lon="-1.7536">
        <ele>99</ele>
        <time>2015-06-07T09:49:10Z</time>
      </trkpt>
      <trkpt lat="47.87805" lon="-1.75365">
        <ele>99</ele>
        <time>2015-06-07T09:49:11Z</time>
      </trkpt>
      <trkpt lat="47.87806" lon="-1.75371">
        <ele>99</ele>
        <time>2015-06-07T09:49:12Z</time>
      </trkpt>
      <trkpt lat="47.87807" lon="-1.75377">
        <ele>99</ele>
        <time>2015-06-07T09:49:13Z</time>
      </trkpt>
      <trkpt lat="47.87809" lon="-1.75382">
        <ele>99</ele>
        <time>2015-06-07T09:49:14Z</time>
      </trkpt>
      <trkpt lat="47.87811" lon="-1.75388">
        <ele>99</ele>
        <time>2015-06-07T09:49:15Z</time>
      </trkpt>
      <trkpt lat="47.87813" lon="-1.75393">
        <ele>99</ele>
        <time>2015-06-07T09:49:16Z</time>
      </trkpt>
      <trkpt lat="47.87814" lon="-1.75398">
        <ele>99</ele>
        <time>2015-06-07T09:49:17Z</time>
      </trkpt>
      <trkpt lat="47.87815" lon="-1.75404">
        <ele>99</ele>
        <time>2015-06-07T09:49:18Z</time>
      </trkpt>
      <trkpt lat="47.87817" lon="-1.7541">
        <ele>99</ele>
        <time>2015-06-07T09:49:19Z</time>
      </trkpt>
      <trkpt lat="47.87819" lon="-1.75416">
        <ele>99</ele>
        <time>2015-06-07T09:49:20Z</time>
      </trkpt>
      <trkpt lat="47.87819" lon="-1.75421">
        <ele>99</ele>
        <time>2015-06-07T09:49:21Z</time>
      </trkpt>
      <trkpt lat="47.8782" lon="-1.75426">
        <ele>99</ele>
        <time>2015-06-07T09:49:22Z</time>
      </trkpt>
      <trkpt lat="47.87821" lon="-1.75431">
        <ele>99</ele>
        <time>2015-06-07T09:49:23Z</time>
      </trkpt>
      <trkpt lat="47.87823" lon="-1.75436">
        <ele>99</ele>
        <time>2015-06-07T09:49:24Z</time>
      </trkpt>
      <trkpt lat="47.87823" lon="-1.75439">
        <ele>99</ele>
        <time>2015-06-07T09:49:25Z</time>
      </trkpt>
      <trkpt lat="47.87824" lon="-1.75442">
        <ele>99</ele>
        <time>2015-06-07T09:49:26Z</time>
      </trkpt>
      <trkpt lat="47.87823" lon="-1.75444">
        <ele>99</ele>
        <time>2015-06-07T09:49:27Z</time>
      </trkpt>
      <trkpt lat="47.87823" lon="-1.75448">
        <ele>99</ele>
        <time>2015-06-07T09:49:28Z</time>
      </trkpt>
      <trkpt lat="47.87822" lon="-1.75453">
        <ele>100</ele>
        <time>2015-06-07T09:49:29Z</time>
      </trkpt>
      <trkpt lat="47.87821" lon="-1.75456">
        <ele>100</ele>
        <time>2015-06-07T09:49:30Z</time>
      </trkpt>
      <trkpt lat="47.8782" lon="-1.7546">
        <ele>100</ele>
        <time>2015-06-07T09:49:31Z</time>
      </trkpt>
      <trkpt lat="47.87819" lon="-1.75463">
        <ele>100</ele>
        <time>2015-06-07T09:49:32Z</time>
      </trkpt>
      <trkpt lat="47.87818" lon="-1.75466">
        <ele>100</ele>
        <time>2015-06-07T09:49:33Z</time>
      </trkpt>
      <trkpt lat="47.87817" lon="-1.7547">
        <ele>100</ele>
        <time>2015-06-07T09:49:34Z</time>
      </trkpt>
      <trkpt lat="47.87816" lon="-1.75474">
        <ele>100</ele>
        <time>2015-06-07T09:49:35Z</time>
      </trkpt>
      <trkpt lat="47.87814" lon="-1.75478">
        <ele>101</ele>
        <time>2015-06-07T09:49:36Z</time>
      </trkpt>
      <trkpt lat="47.87813" lon="-1.75481">
        <ele>101</ele>
        <time>2015-06-07T09:49:37Z</time>
      </trkpt>
      <trkpt lat="47.87812" lon="-1.75485">
        <ele>101</ele>
        <time>2015-06-07T09:49:38Z</time>
      </trkpt>
      <trkpt lat="47.87812" lon="-1.75488">
        <ele>101</ele>
        <time>2015-06-07T09:49:39Z</time>
      </trkpt>
      <trkpt lat="47.87811" lon="-1.75492">
        <ele>102</ele>
        <time>2015-06-07T09:49:40Z</time>
      </trkpt>
      <trkpt lat="47.8781" lon="-1.75497">
        <ele>102</ele>
        <time>2015-06-07T09:49:41Z</time>
      </trkpt>
      <trkpt lat="47.87809" lon="-1.75502">
        <ele>102</ele>
        <time>2015-06-07T09:49:42Z</time>
      </trkpt>
      <trkpt lat="47.87808" lon="-1.75507">
        <ele>102</ele>
        <time>2015-06-07T09:49:43Z</time>
      </trkpt>
      <trkpt lat="47.87808" lon="-1.75511">
        <ele>102</ele>
        <time>2015-06-07T09:49:44Z</time>
      </trkpt>
      <trkpt lat="47.87808" lon="-1.75516">
        <ele>102</ele>
        <time>2015-06-07T09:49:45Z</time>
      </trkpt>
      <trkpt lat="47.87808" lon="-1.75522">
        <ele>102</ele>
        <time>2015-06-07T09:49:46Z</time>
      </trkpt>
      <trkpt lat="47.87808" lon="-1.75527">
        <ele>102</ele>
        <time>2015-06-07T09:49:47Z</time>
      </trkpt>
      <trkpt lat="47.87808" lon="-1.75532">
        <ele>102</ele>
        <time>2015-06-07T09:49:48Z</time>
      </trkpt>
      <trkpt lat="47.87807" lon="-1.75536">
        <ele>102</ele>
        <time>2015-06-07T09:49:49Z</time>
      </trkpt>
      <trkpt lat="47.87805" lon="-1.7554">
        <ele>102</ele>
        <time>2015-06-07T09:49:50Z</time>
      </trkpt>
      <trkpt lat="47.87804" lon="-1.75544">
        <ele>102</ele>
        <time>2015-06-07T09:49:51Z</time>
      </trkpt>
      <trkpt lat="47.87803" lon="-1.75549">
        <ele>102</ele>
        <time>2015-06-07T09:49:52Z</time>
      </trkpt>
      <trkpt lat="47.87804" lon="-1.75553">
        <ele>102</ele>
        <time>2015-06-07T09:49:53Z</time>
      </trkpt>
      <trkpt lat="47.87804" lon="-1.75558">
        <ele>102</ele>
        <time>2015-06-07T09:49:54Z</time>
      </trkpt>
      <trkpt lat="47.87804" lon="-1.75562">
        <ele>102</ele>
        <time>2015-06-07T09:49:55Z</time>
      </trkpt>
      <trkpt lat="47.87803" lon="-1.75567">
        <ele>102</ele>
        <time>2015-06-07T09:49:56Z</time>
      </trkpt>
      <trkpt lat="47.87802" lon="-1.75572">
        <ele>103</ele>
        <time>2015-06-07T09:49:57Z</time>
      </trkpt>
      <trkpt lat="47.87801" lon="-1.75576">
        <ele>103</ele>
        <time>2015-06-07T09:49:58Z</time>
      </trkpt>
      <trkpt lat="47.87801" lon="-1.75582">
        <ele>103</ele>
        <time>2015-06-07T09:49:59Z</time>
      </trkpt>
      <trkpt lat="47.878" lon="-1.75586">
        <ele>103</ele>
        <time>2015-06-07T09:50:00Z</time>
      </trkpt>
      <trkpt lat="47.878" lon="-1.75591">
        <ele>104</ele>
        <time>2015-06-07T09:50:01Z</time>
      </trkpt>
      <trkpt lat="47.87798" lon="-1.75595">
        <ele>104</ele>
        <time>2015-06-07T09:50:02Z</time>
      </trkpt>
      <trkpt lat="47.87796" lon="-1.756">
        <ele>104</ele>
        <time>2015-06-07T09:50:03Z</time>
      </trkpt>
      <trkpt lat="47.87795" lon="-1.75604">
        <ele>104</ele>
        <time>2015-06-07T09:50:04Z</time>
      </trkpt>
      <trkpt lat="47.87793" lon="-1.75607">
        <ele>104</ele>
        <time>2015-06-07T09:50:05Z</time>
      </trkpt>
      <trkpt lat="47.87791" lon="-1.75609">
        <ele>104</ele>
        <time>2015-06-07T09:50:06Z</time>
      </trkpt>
      <trkpt lat="47.87789" lon="-1.75613">
        <ele>104</ele>
        <time>2015-06-07T09:50:07Z</time>
      </trkpt>
      <trkpt lat="47.87787" lon="-1.75616">
        <ele>105</ele>
        <time>2015-06-07T09:50:08Z</time>
      </trkpt>
      <trkpt lat="47.87785" lon="-1.75619">
        <ele>105</ele>
        <time>2015-06-07T09:50:09Z</time>
      </trkpt>
      <trkpt lat="47.87783" lon="-1.75622">
        <ele>105</ele>
        <time>2015-06-07T09:50:10Z</time>
      </trkpt>
      <trkpt lat="47.87781" lon="-1.75626">
        <ele>105</ele>
        <time>2015-06-07T09:50:11Z</time>
      </trkpt>
      <trkpt lat="47.87779" lon="-1.75628">
        <ele>105</ele>
        <time>2015-06-07T09:50:12Z</time>
      </trkpt>
      <trkpt lat="47.87777" lon="-1.7563">
        <ele>106</ele>
        <time>2015-06-07T09:50:13Z</time>
      </trkpt>
      <trkpt lat="47.87774" lon="-1.75632">
        <ele>106</ele>
        <time>2015-06-07T09:50:14Z</time>
      </trkpt>
      <trkpt lat="47.87772" lon="-1.75634">
        <ele>106</ele>
        <time>2015-06-07T09:50:15Z</time>
      </trkpt>
      <trkpt lat="47.8777" lon="-1.75637">
        <ele>106</ele>
        <time>2015-06-07T09:50:16Z</time>
      </trkpt>
      <trkpt lat="47.87767" lon="-1.75638">
        <ele>106</ele>
        <time>2015-06-07T09:50:17Z</time>
      </trkpt>
      <trkpt lat="47.87765" lon="-1.75641">
        <ele>106</ele>
        <time>2015-06-07T09:50:18Z</time>
      </trkpt>
      <trkpt lat="47.87763" lon="-1.75644">
        <ele>107</ele>
        <time>2015-06-07T09:50:19Z</time>
      </trkpt>
      <trkpt lat="47.8776" lon="-1.75646">
        <ele>107</ele>
        <time>2015-06-07T09:50:20Z</time>
      </trkpt>
      <trkpt lat="47.87757" lon="-1.75647">
        <ele>107</ele>
        <time>2015-06-07T09:50:21Z</time>
      </trkpt>
      <trkpt lat="47.87754" lon="-1.7565">
        <ele>107</ele>
        <time>2015-06-07T09:50:22Z</time>
      </trkpt>
      <trkpt lat="47.87752" lon="-1.75653">
        <ele>107</ele>
        <time>2015-06-07T09:50:23Z</time>
      </trkpt>
      <trkpt lat="47.87751" lon="-1.75655">
        <ele>107</ele>
        <time>2015-06-07T09:50:24Z</time>
      </trkpt>
      <trkpt lat="47.87749" lon="-1.75658">
        <ele>107</ele>
        <time>2015-06-07T09:50:25Z</time>
      </trkpt>
      <trkpt lat="47.87747" lon="-1.7566">
        <ele>107</ele>
        <time>2015-06-07T09:50:26Z</time>
      </trkpt>
      <trkpt lat="47.87744" lon="-1.75661">
        <ele>107</ele>
        <time>2015-06-07T09:50:27Z</time>
      </trkpt>
      <trkpt lat="47.87741" lon="-1.75662">
        <ele>107</ele>
        <time>2015-06-07T09:50:28Z</time>
      </trkpt>
      <trkpt lat="47.87739" lon="-1.75664">
        <ele>107</ele>
        <time>2015-06-07T09:50:29Z</time>
      </trkpt>
      <trkpt lat="47.87736" lon="-1.75665">
        <ele>107</ele>
        <time>2015-06-07T09:50:30Z</time>
      </trkpt>
      <trkpt lat="47.87733" lon="-1.75667">
        <ele>107</ele>
        <time>2015-06-07T09:50:31Z</time>
      </trkpt>
      <trkpt lat="47.87731" lon="-1.75669">
        <ele>107</ele>
        <time>2015-06-07T09:50:32Z</time>
      </trkpt>
      <trkpt lat="47.87728" lon="-1.7567">
        <ele>107</ele>
        <time>2015-06-07T09:50:33Z</time>
      </trkpt>
      <trkpt lat="47.87726" lon="-1.75673">
        <ele>107</ele>
        <time>2015-06-07T09:50:34Z</time>
      </trkpt>
      <trkpt lat="47.87724" lon="-1.75674">
        <ele>108</ele>
        <time>2015-06-07T09:50:35Z</time>
      </trkpt>
      <trkpt lat="47.87721" lon="-1.75674">
        <ele>108</ele>
        <time>2015-06-07T09:50:36Z</time>
      </trkpt>
      <trkpt lat="47.87718" lon="-1.75675">
        <ele>108</ele>
        <time>2015-06-07T09:50:37Z</time>
      </trkpt>
      <trkpt lat="47.87715" lon="-1.75676">
        <ele>108</ele>
        <time>2015-06-07T09:50:38Z</time>
      </trkpt>
      <trkpt lat="47.87713" lon="-1.75678">
        <ele>108</ele>
        <time>2015-06-07T09:50:39Z</time>
      </trkpt>
      <trkpt lat="47.87711" lon="-1.7568">
        <ele>108</ele>
        <time>2015-06-07T09:50:40Z</time>
      </trkpt>
      <trkpt lat="47.87708" lon="-1.75681">
        <ele>108</ele>
        <time>2015-06-07T09:50:41Z</time>
      </trkpt>
      <trkpt lat="47.87706" lon="-1.75681">
        <ele>108</ele>
        <time>2015-06-07T09:50:42Z</time>
      </trkpt>
      <trkpt lat="47.87704" lon="-1.75683">
        <ele>108</ele>
        <time>2015-06-07T09:50:43Z</time>
      </trkpt>
      <trkpt lat="47.87703" lon="-1.75686">
        <ele>108</ele>
        <time>2015-06-07T09:50:44Z</time>
      </trkpt>
      <trkpt lat="47.87701" lon="-1.75689">
        <ele>108</ele>
        <time>2015-06-07T09:50:45Z</time>
      </trkpt>
      <trkpt lat="47.87699" lon="-1.75692">
        <ele>109</ele>
        <time>2015-06-07T09:50:46Z</time>
      </trkpt>
      <trkpt lat="47.87697" lon="-1.75694">
        <ele>109</ele>
        <time>2015-06-07T09:50:47Z</time>
      </trkpt>
      <trkpt lat="47.87695" lon="-1.75695">
        <ele>109</ele>
        <time>2015-06-07T09:50:48Z</time>
      </trkpt>
      <trkpt lat="47.87692" lon="-1.75697">
        <ele>109</ele>
        <time>2015-06-07T09:50:49Z</time>
      </trkpt>
      <trkpt lat="47.8769" lon="-1.757">
        <ele>109</ele>
        <time>2015-06-07T09:50:50Z</time>
      </trkpt>
      <trkpt lat="47.87688" lon="-1.75702">
        <ele>109</ele>
        <time>2015-06-07T09:50:51Z</time>
      </trkpt>
      <trkpt lat="47.87684" lon="-1.75704">
        <ele>109</ele>
        <time>2015-06-07T09:50:52Z</time>
      </trkpt>
      <trkpt lat="47.8768" lon="-1.75706">
        <ele>109</ele>
        <time>2015-06-07T09:50:53Z</time>
      </trkpt>
      <trkpt lat="47.87677" lon="-1.75708">
        <ele>109</ele>
        <time>2015-06-07T09:50:54Z</time>
      </trkpt>
      <trkpt lat="47.87673" lon="-1.7571">
        <ele>110</ele>
        <time>2015-06-07T09:50:55Z</time>
      </trkpt>
      <trkpt lat="47.8767" lon="-1.75712">
        <ele>110</ele>
        <time>2015-06-07T09:50:56Z</time>
      </trkpt>
      <trkpt lat="47.87666" lon="-1.75714">
        <ele>110</ele>
        <time>2015-06-07T09:50:57Z</time>
      </trkpt>
      <trkpt lat="47.87663" lon="-1.75715">
        <ele>110</ele>
        <time>2015-06-07T09:50:58Z</time>
      </trkpt>
      <trkpt lat="47.87659" lon="-1.75716">
        <ele>110</ele>
        <time>2015-06-07T09:50:59Z</time>
      </trkpt>
      <trkpt lat="47.87655" lon="-1.75718">
        <ele>110</ele>
        <time>2015-06-07T09:51:00Z</time>
      </trkpt>
      <trkpt lat="47.87652" lon="-1.7572">
        <ele>110</ele>
        <time>2015-06-07T09:51:01Z</time>
      </trkpt>
      <trkpt lat="47.87648" lon="-1.75722">
        <ele>110</ele>
        <time>2015-06-07T09:51:02Z</time>
      </trkpt>
      <trkpt lat="47.87645" lon="-1.75724">
        <ele>110</ele>
        <time>2015-06-07T09:51:03Z</time>
      </trkpt>
      <trkpt lat="47.87642" lon="-1.75726">
        <ele>110</ele>
        <time>2015-06-07T09:51:04Z</time>
      </trkpt>
      <trkpt lat="47.87639" lon="-1.75728">
        <ele>111</ele>
        <time>2015-06-07T09:51:05Z</time>
      </trkpt>
      <trkpt lat="47.87635" lon="-1.7573">
        <ele>111</ele>
        <time>2015-06-07T09:51:06Z</time>
      </trkpt>
      <trkpt lat="47.87632" lon="-1.75731">
        <ele>111</ele>
        <time>2015-06-07T09:51:07Z</time>
      </trkpt>
      <trkpt lat="47.87629" lon="-1.75733">
        <ele>111</ele>
        <time>2015-06-07T09:51:08Z</time>
      </trkpt>
      <trkpt lat="47.87626" lon="-1.75734">
        <ele>111</ele>
        <time>2015-06-07T09:51:09Z</time>
      </trkpt>
      <trkpt lat="47.87623" lon="-1.75736">
        <ele>111</ele>
        <time>2015-06-07T09:51:10Z</time>
      </trkpt>
      <trkpt lat="47.87621" lon="-1.75739">
        <ele>111</ele>
        <time>2015-06-07T09:51:11Z</time>
      </trkpt>
      <trkpt lat="47.8762" lon="-1.75742">
        <ele>111</ele>
        <time>2015-06-07T09:51:12Z</time>
      </trkpt>
      <trkpt lat="47.87617" lon="-1.75744">
        <ele>111</ele>
        <time>2015-06-07T09:51:13Z</time>
      </trkpt>
      <trkpt lat="47.87616" lon="-1.75746">
        <ele>111</ele>
        <time>2015-06-07T09:51:14Z</time>
      </trkpt>
      <trkpt lat="47.87613" lon="-1.75747">
        <ele>111</ele>
        <time>2015-06-07T09:51:15Z</time>
      </trkpt>
      <trkpt lat="47.87611" lon="-1.75749">
        <ele>111</ele>
        <time>2015-06-07T09:51:16Z</time>
      </trkpt>
      <trkpt lat="47.87609" lon="-1.7575">
        <ele>111</ele>
        <time>2015-06-07T09:51:17Z</time>
      </trkpt>
      <trkpt lat="47.87608" lon="-1.75749">
        <ele>111</ele>
        <time>2015-06-07T09:51:18Z</time>
      </trkpt>
      <trkpt lat="47.87607" lon="-1.75747">
        <ele>111</ele>
        <time>2015-06-07T09:51:19Z</time>
      </trkpt>
      <trkpt lat="47.87606" lon="-1.75745">
        <ele>111</ele>
        <time>2015-06-07T09:51:20Z</time>
      </trkpt>
      <trkpt lat="47.87603" lon="-1.75745">
        <ele>111</ele>
        <time>2015-06-07T09:51:21Z</time>
      </trkpt>
      <trkpt lat="47.87601" lon="-1.75746">
        <ele>111</ele>
        <time>2015-06-07T09:51:22Z</time>
      </trkpt>
      <trkpt lat="47.87599" lon="-1.75748">
        <ele>111</ele>
        <time>2015-06-07T09:51:23Z</time>
      </trkpt>
      <trkpt lat="47.87597" lon="-1.75751">
        <ele>111</ele>
        <time>2015-06-07T09:51:24Z</time>
      </trkpt>
      <trkpt lat="47.87594" lon="-1.75755">
        <ele>112</ele>
        <time>2015-06-07T09:51:25Z</time>
      </trkpt>
      <trkpt lat="47.87592" lon="-1.75759">
        <ele>112</ele>
        <time>2015-06-07T09:51:26Z</time>
      </trkpt>
      <trkpt lat="47.8759" lon="-1.75764">
        <ele>112</ele>
        <time>2015-06-07T09:51:27Z</time>
      </trkpt>
      <trkpt lat="47.87587" lon="-1.75768">
        <ele>112</ele>
        <time>2015-06-07T09:51:28Z</time>
      </trkpt>
      <trkpt lat="47.87584" lon="-1.75772">
        <ele>112</ele>
        <time>2015-06-07T09:51:29Z</time>
      </trkpt>
      <trkpt lat="47.87581" lon="-1.75776">
        <ele>112</ele>
        <time>2015-06-07T09:51:30Z</time>
      </trkpt>
      <trkpt lat="47.87577" lon="-1.7578">
        <ele>112</ele>
        <time>2015-06-07T09:51:31Z</time>
      </trkpt>
      <trkpt lat="47.87574" lon="-1.75784">
        <ele>112</ele>
        <time>2015-06-07T09:51:32Z</time>
      </trkpt>
      <trkpt lat="47.8757" lon="-1.75789">
        <ele>112</ele>
        <time>2015-06-07T09:51:33Z</time>
      </trkpt>
      <trkpt lat="47.87566" lon="-1.75793">
        <ele>111</ele>
        <time>2015-06-07T09:51:34Z</time>
      </trkpt>
      <trkpt lat="47.87561" lon="-1.75796">
        <ele>111</ele>
        <time>2015-06-07T09:51:35Z</time>
      </trkpt>
      <trkpt lat="47.87557" lon="-1.75799">
        <ele>111</ele>
        <time>2015-06-07T09:51:36Z</time>
      </trkpt>
      <trkpt lat="47.87552" lon="-1.75801">
        <ele>111</ele>
        <time>2015-06-07T09:51:37Z</time>
      </trkpt>
      <trkpt lat="47.87547" lon="-1.75804">
        <ele>111</ele>
        <time>2015-06-07T09:51:38Z</time>
      </trkpt>
      <trkpt lat="47.87542" lon="-1.75806">
        <ele>111</ele>
        <time>2015-06-07T09:51:39Z</time>
      </trkpt>
      <trkpt lat="47.87538" lon="-1.75809">
        <ele>111</ele>
        <time>2015-06-07T09:51:40Z</time>
      </trkpt>
      <trkpt lat="47.87533" lon="-1.75812">
        <ele>111</ele>
        <time>2015-06-07T09:51:41Z</time>
      </trkpt>
      <trkpt lat="47.87527" lon="-1.75816">
        <ele>110</ele>
        <time>2015-06-07T09:51:42Z</time>
      </trkpt>
      <trkpt lat="47.87522" lon="-1.75819">
        <ele>110</ele>
        <time>2015-06-07T09:51:43Z</time>
      </trkpt>
      <trkpt lat="47.87517" lon="-1.75823">
        <ele>110</ele>
        <time>2015-06-07T09:51:44Z</time>
      </trkpt>
      <trkpt lat="47.87511" lon="-1.75826">
        <ele>110</ele>
        <time>2015-06-07T09:51:45Z</time>
      </trkpt>
      <trkpt lat="47.87506" lon="-1.7583">
        <ele>110</ele>
        <time>2015-06-07T09:51:46Z</time>
      </trkpt>
      <trkpt lat="47.87501" lon="-1.75833">
        <ele>109</ele>
        <time>2015-06-07T09:51:47Z</time>
      </trkpt>
      <trkpt lat="47.87495" lon="-1.75837">
        <ele>109</ele>
        <time>2015-06-07T09:51:48Z</time>
      </trkpt>
      <trkpt lat="47.87489" lon="-1.75841">
        <ele>109</ele>
        <time>2015-06-07T09:51:49Z</time>
      </trkpt>
      <trkpt lat="47.87483" lon="-1.75844">
        <ele>109</ele>
        <time>2015-06-07T09:51:50Z</time>
      </trkpt>
      <trkpt lat="47.87477" lon="-1.75848">
        <ele>109</ele>
        <time>2015-06-07T09:51:51Z</time>
      </trkpt>
      <trkpt lat="47.87471" lon="-1.75851">
        <ele>108</ele>
        <time>2015-06-07T09:51:52Z</time>
      </trkpt>
      <trkpt lat="47.87465" lon="-1.75855">
        <ele>108</ele>
        <time>2015-06-07T09:51:53Z</time>
      </trkpt>
      <trkpt lat="47.87459" lon="-1.75858">
        <ele>108</ele>
        <time>2015-06-07T09:51:54Z</time>
      </trkpt>
      <trkpt lat="47.87453" lon="-1.75862">
        <ele>108</ele>
        <time>2015-06-07T09:51:55Z</time>
      </trkpt>
      <trkpt lat="47.87448" lon="-1.75866">
        <ele>108</ele>
        <time>2015-06-07T09:51:56Z</time>
      </trkpt>
      <trkpt lat="47.87442" lon="-1.75869">
        <ele>108</ele>
        <time>2015-06-07T09:51:57Z</time>
      </trkpt>
      <trkpt lat="47.87436" lon="-1.75873">
        <ele>108</ele>
        <time>2015-06-07T09:51:58Z</time>
      </trkpt>
      <trkpt lat="47.8743" lon="-1.75877">
        <ele>107</ele>
        <time>2015-06-07T09:51:59Z</time>
      </trkpt>
      <trkpt lat="47.87424" lon="-1.75881">
        <ele>107</ele>
        <time>2015-06-07T09:52:00Z</time>
      </trkpt>
      <trkpt lat="47.87418" lon="-1.75886">
        <ele>107</ele>
        <time>2015-06-07T09:52:01Z</time>
      </trkpt>
      <trkpt lat="47.87412" lon="-1.75892">
        <ele>107</ele>
        <time>2015-06-07T09:52:02Z</time>
      </trkpt>
      <trkpt lat="47.87406" lon="-1.75898">
        <ele>107</ele>
        <time>2015-06-07T09:52:03Z</time>
      </trkpt>
      <trkpt lat="47.87401" lon="-1.75905">
        <ele>106</ele>
        <time>2015-06-07T09:52:04Z</time>
      </trkpt>
      <trkpt lat="47.87396" lon="-1.75913">
        <ele>106</ele>
        <time>2015-06-07T09:52:05Z</time>
      </trkpt>
      <trkpt lat="47.87391" lon="-1.7592">
        <ele>106</ele>
        <time>2015-06-07T09:52:06Z</time>
      </trkpt>
      <trkpt lat="47.87387" lon="-1.75929">
        <ele>106</ele>
        <time>2015-06-07T09:52:07Z</time>
      </trkpt>
      <trkpt lat="47.87382" lon="-1.75937">
        <ele>105</ele>
        <time>2015-06-07T09:52:08Z</time>
      </trkpt>
      <trkpt lat="47.87377" lon="-1.75944">
        <ele>105</ele>
        <time>2015-06-07T09:52:09Z</time>
      </trkpt>
      <trkpt lat="47.87372" lon="-1.75952">
        <ele>105</ele>
        <time>2015-06-07T09:52:10Z</time>
      </trkpt>
      <trkpt lat="47.87367" lon="-1.7596">
        <ele>105</ele>
        <time>2015-06-07T09:52:11Z</time>
      </trkpt>
      <trkpt lat="47.87363" lon="-1.75968">
        <ele>105</ele>
        <time>2015-06-07T09:52:12Z</time>
      </trkpt>
      <trkpt lat="47.87358" lon="-1.75976">
        <ele>105</ele>
        <time>2015-06-07T09:52:13Z</time>
      </trkpt>
      <trkpt lat="47.87354" lon="-1.75984">
        <ele>105</ele>
        <time>2015-06-07T09:52:14Z</time>
      </trkpt>
      <trkpt lat="47.87349" lon="-1.75992">
        <ele>105</ele>
        <time>2015-06-07T09:52:15Z</time>
      </trkpt>
      <trkpt lat="47.87344" lon="-1.76">
        <ele>104</ele>
        <time>2015-06-07T09:52:16Z</time>
      </trkpt>
      <trkpt lat="47.87339" lon="-1.76008">
        <ele>104</ele>
        <time>2015-06-07T09:52:17Z</time>
      </trkpt>
      <trkpt lat="47.87334" lon="-1.76016">
        <ele>104</ele>
        <time>2015-06-07T09:52:18Z</time>
      </trkpt>
      <trkpt lat="47.87329" lon="-1.76024">
        <ele>104</ele>
        <time>2015-06-07T09:52:19Z</time>
      </trkpt>
      <trkpt lat="47.87324" lon="-1.76032">
        <ele>104</ele>
        <time>2015-06-07T09:52:20Z</time>
      </trkpt>
      <trkpt lat="47.87319" lon="-1.7604">
        <ele>104</ele>
        <time>2015-06-07T09:52:21Z</time>
      </trkpt>
      <trkpt lat="47.87314" lon="-1.76049">
        <ele>104</ele>
        <time>2015-06-07T09:52:22Z</time>
      </trkpt>
      <trkpt lat="47.87309" lon="-1.76058">
        <ele>104</ele>
        <time>2015-06-07T09:52:23Z</time>
      </trkpt>
      <trkpt lat="47.87304" lon="-1.76066">
        <ele>104</ele>
        <time>2015-06-07T09:52:24Z</time>
      </trkpt>
      <trkpt lat="47.87299" lon="-1.76074">
        <ele>104</ele>
        <time>2015-06-07T09:52:25Z</time>
      </trkpt>
      <trkpt lat="47.87294" lon="-1.76083">
        <ele>104</ele>
        <time>2015-06-07T09:52:26Z</time>
      </trkpt>
      <trkpt lat="47.87289" lon="-1.76091">
        <ele>104</ele>
        <time>2015-06-07T09:52:27Z</time>
      </trkpt>
      <trkpt lat="47.87284" lon="-1.76101">
        <ele>103</ele>
        <time>2015-06-07T09:52:28Z</time>
      </trkpt>
      <trkpt lat="47.8728" lon="-1.7611">
        <ele>103</ele>
        <time>2015-06-07T09:52:29Z</time>
      </trkpt>
      <trkpt lat="47.87276" lon="-1.76119">
        <ele>103</ele>
        <time>2015-06-07T09:52:30Z</time>
      </trkpt>
      <trkpt lat="47.87272" lon="-1.76129">
        <ele>103</ele>
        <time>2015-06-07T09:52:31Z</time>
      </trkpt>
      <trkpt lat="47.87268" lon="-1.76139">
        <ele>103</ele>
        <time>2015-06-07T09:52:32Z</time>
      </trkpt>
      <trkpt lat="47.87265" lon="-1.76149">
        <ele>103</ele>
        <time>2015-06-07T09:52:33Z</time>
      </trkpt>
      <trkpt lat="47.87262" lon="-1.76159">
        <ele>102</ele>
        <time>2015-06-07T09:52:34Z</time>
      </trkpt>
      <trkpt lat="47.87259" lon="-1.76169">
        <ele>102</ele>
        <time>2015-06-07T09:52:35Z</time>
      </trkpt>
      <trkpt lat="47.87256" lon="-1.76179">
        <ele>102</ele>
        <time>2015-06-07T09:52:36Z</time>
      </trkpt>
      <trkpt lat="47.87253" lon="-1.76189">
        <ele>102</ele>
        <time>2015-06-07T09:52:37Z</time>
      </trkpt>
      <trkpt lat="47.87251" lon="-1.762">
        <ele>102</ele>
        <time>2015-06-07T09:52:38Z</time>
      </trkpt>
      <trkpt lat="47.87248" lon="-1.7621">
        <ele>102</ele>
        <time>2015-06-07T09:52:39Z</time>
      </trkpt>
      <trkpt lat="47.87245" lon="-1.7622">
        <ele>101</ele>
        <time>2015-06-07T09:52:40Z</time>
      </trkpt>
      <trkpt lat="47.87243" lon="-1.76231">
        <ele>101</ele>
        <time>2015-06-07T09:52:41Z</time>
      </trkpt>
      <trkpt lat="47.8724" lon="-1.76241">
        <ele>101</ele>
        <time>2015-06-07T09:52:42Z</time>
      </trkpt>
      <trkpt lat="47.87238" lon="-1.76251">
        <ele>101</ele>
        <time>2015-06-07T09:52:43Z</time>
      </trkpt>
      <trkpt lat="47.87235" lon="-1.76262">
        <ele>100</ele>
        <time>2015-06-07T09:52:44Z</time>
      </trkpt>
      <trkpt lat="47.87232" lon="-1.76273">
        <ele>100</ele>
        <time>2015-06-07T09:52:45Z</time>
      </trkpt>
      <trkpt lat="47.8723" lon="-1.76284">
        <ele>100</ele>
        <time>2015-06-07T09:52:46Z</time>
      </trkpt>
      <trkpt lat="47.87227" lon="-1.76295">
        <ele>99</ele>
        <time>2015-06-07T09:52:47Z</time>
      </trkpt>
      <trkpt lat="47.87224" lon="-1.76307">
        <ele>99</ele>
        <time>2015-06-07T09:52:48Z</time>
      </trkpt>
      <trkpt lat="47.87222" lon="-1.76318">
        <ele>99</ele>
        <time>2015-06-07T09:52:49Z</time>
      </trkpt>
      <trkpt lat="47.87219" lon="-1.76329">
        <ele>99</ele>
        <time>2015-06-07T09:52:50Z</time>
      </trkpt>
      <trkpt lat="47.87216" lon="-1.7634">
        <ele>98</ele>
        <time>2015-06-07T09:52:51Z</time>
      </trkpt>
      <trkpt lat="47.87214" lon="-1.76352">
        <ele>98</ele>
        <time>2015-06-07T09:52:52Z</time>
      </trkpt>
      <trkpt lat="47.87211" lon="-1.76363">
        <ele>98</ele>
        <time>2015-06-07T09:52:53Z</time>
      </trkpt>
      <trkpt lat="47.87209" lon="-1.76374">
        <ele>98</ele>
        <time>2015-06-07T09:52:54Z</time>
      </trkpt>
      <trkpt lat="47.87206" lon="-1.76385">
        <ele>97</ele>
        <time>2015-06-07T09:52:55Z</time>
      </trkpt>
      <trkpt lat="47.87203" lon="-1.76396">
        <ele>97</ele>
        <time>2015-06-07T09:52:56Z</time>
      </trkpt>
      <trkpt lat="47.87202" lon="-1.76407">
        <ele>97</ele>
        <time>2015-06-07T09:52:57Z</time>
      </trkpt>
      <trkpt lat="47.87199" lon="-1.76418">
        <ele>97</ele>
        <time>2015-06-07T09:52:58Z</time>
      </trkpt>
      <trkpt lat="47.87198" lon="-1.7643">
        <ele>96</ele>
        <time>2015-06-07T09:52:59Z</time>
      </trkpt>
      <trkpt lat="47.87197" lon="-1.76442">
        <ele>96</ele>
        <time>2015-06-07T09:53:00Z</time>
      </trkpt>
      <trkpt lat="47.87197" lon="-1.76454">
        <ele>95</ele>
        <time>2015-06-07T09:53:01Z</time>
      </trkpt>
      <trkpt lat="47.87199" lon="-1.76467">
        <ele>95</ele>
        <time>2015-06-07T09:53:02Z</time>
      </trkpt>
      <trkpt lat="47.87202" lon="-1.76479">
        <ele>95</ele>
        <time>2015-06-07T09:53:03Z</time>
      </trkpt>
      <trkpt lat="47.87206" lon="-1.76492">
        <ele>94</ele>
        <time>2015-06-07T09:53:04Z</time>
      </trkpt>
      <trkpt lat="47.8721" lon="-1.76504">
        <ele>94</ele>
        <time>2015-06-07T09:53:05Z</time>
      </trkpt>
      <trkpt lat="47.87215" lon="-1.76515">
        <ele>93</ele>
        <time>2015-06-07T09:53:06Z</time>
      </trkpt>
      <trkpt lat="47.8722" lon="-1.76527">
        <ele>92</ele>
        <time>2015-06-07T09:53:07Z</time>
      </trkpt>
      <trkpt lat="47.87225" lon="-1.76538">
        <ele>92</ele>
        <time>2015-06-07T09:53:08Z</time>
      </trkpt>
      <trkpt lat="47.8723" lon="-1.7655">
        <ele>91</ele>
        <time>2015-06-07T09:53:09Z</time>
      </trkpt>
      <trkpt lat="47.87234" lon="-1.76562">
        <ele>91</ele>
        <time>2015-06-07T09:53:10Z</time>
      </trkpt>
      <trkpt lat="47.87238" lon="-1.76575">
        <ele>90</ele>
        <time>2015-06-07T09:53:11Z</time>
      </trkpt>
      <trkpt lat="47.8724" lon="-1.76588">
        <ele>89</ele>
        <time>2015-06-07T09:53:12Z</time>
      </trkpt>
      <trkpt lat="47.87241" lon="-1.76602">
        <ele>89</ele>
        <time>2015-06-07T09:53:13Z</time>
      </trkpt>
      <trkpt lat="47.87241" lon="-1.76616">
        <ele>88</ele>
        <time>2015-06-07T09:53:14Z</time>
      </trkpt>
      <trkpt lat="47.87241" lon="-1.76629">
        <ele>88</ele>
        <time>2015-06-07T09:53:15Z</time>
      </trkpt>
      <trkpt lat="47.8724" lon="-1.76643">
        <ele>87</ele>
        <time>2015-06-07T09:53:16Z</time>
      </trkpt>
      <trkpt lat="47.87239" lon="-1.76657">
        <ele>86</ele>
        <time>2015-06-07T09:53:17Z</time>
      </trkpt>
      <trkpt lat="47.87237" lon="-1.76672">
        <ele>85</ele>
        <time>2015-06-07T09:53:18Z</time>
      </trkpt>
      <trkpt lat="47.87235" lon="-1.76686">
        <ele>85</ele>
        <time>2015-06-07T09:53:19Z</time>
      </trkpt>
      <trkpt lat="47.87234" lon="-1.76701">
        <ele>84</ele>
        <time>2015-06-07T09:53:20Z</time>
      </trkpt>
      <trkpt lat="47.87234" lon="-1.76716">
        <ele>83</ele>
        <time>2015-06-07T09:53:21Z</time>
      </trkpt>
      <trkpt lat="47.87235" lon="-1.76731">
        <ele>82</ele>
        <time>2015-06-07T09:53:22Z</time>
      </trkpt>
      <trkpt lat="47.87236" lon="-1.76746">
        <ele>81</ele>
        <time>2015-06-07T09:53:23Z</time>
      </trkpt>
      <trkpt lat="47.87239" lon="-1.7676">
        <ele>81</ele>
        <time>2015-06-07T09:53:24Z</time>
      </trkpt>
      <trkpt lat="47.87243" lon="-1.76774">
        <ele>80</ele>
        <time>2015-06-07T09:53:25Z</time>
      </trkpt>
      <trkpt lat="47.87247" lon="-1.76787">
        <ele>79</ele>
        <time>2015-06-07T09:53:26Z</time>
      </trkpt>
      <trkpt lat="47.87251" lon="-1.76799">
        <ele>79</ele>
        <time>2015-06-07T09:53:27Z</time>
      </trkpt>
      <trkpt lat="47.87256" lon="-1.76809">
        <ele>78</ele>
        <time>2015-06-07T09:53:28Z</time>
      </trkpt>
      <trkpt lat="47.87262" lon="-1.76817">
        <ele>78</ele>
        <time>2015-06-07T09:53:29Z</time>
      </trkpt>
      <trkpt lat="47.8727" lon="-1.76821">
        <ele>78</ele>
        <time>2015-06-07T09:53:30Z</time>
      </trkpt>
      <trkpt lat="47.87277" lon="-1.76823">
        <ele>79</ele>
        <time>2015-06-07T09:53:31Z</time>
      </trkpt>
      <trkpt lat="47.87283" lon="-1.76823">
        <ele>79</ele>
        <time>2015-06-07T09:53:32Z</time>
      </trkpt>
      <trkpt lat="47.87289" lon="-1.76824">
        <ele>79</ele>
        <time>2015-06-07T09:53:33Z</time>
      </trkpt>
      <trkpt lat="47.87295" lon="-1.76823">
        <ele>80</ele>
        <time>2015-06-07T09:53:34Z</time>
      </trkpt>
      <trkpt lat="47.87301" lon="-1.76823">
        <ele>80</ele>
        <time>2015-06-07T09:53:35Z</time>
      </trkpt>
      <trkpt lat="47.87307" lon="-1.76823">
        <ele>80</ele>
        <time>2015-06-07T09:53:36Z</time>
      </trkpt>
      <trkpt lat="47.87312" lon="-1.76823">
        <ele>80</ele>
        <time>2015-06-07T09:53:37Z</time>
      </trkpt>
      <trkpt lat="47.87316" lon="-1.76825">
        <ele>81</ele>
        <time>2015-06-07T09:53:38Z</time>
      </trkpt>
      <trkpt lat="47.87319" lon="-1.76829">
        <ele>81</ele>
        <time>2015-06-07T09:53:39Z</time>
      </trkpt>
      <trkpt lat="47.87322" lon="-1.76835">
        <ele>81</ele>
        <time>2015-06-07T09:53:40Z</time>
      </trkpt>
      <trkpt lat="47.87324" lon="-1.76841">
        <ele>81</ele>
        <time>2015-06-07T09:53:41Z</time>
      </trkpt>
      <trkpt lat="47.87325" lon="-1.76848">
        <ele>81</ele>
        <time>2015-06-07T09:53:42Z</time>
      </trkpt>
      <trkpt lat="47.87326" lon="-1.76856">
        <ele>81</ele>
        <time>2015-06-07T09:53:43Z</time>
      </trkpt>
      <trkpt lat="47.87327" lon="-1.76865">
        <ele>81</ele>
        <time>2015-06-07T09:53:44Z</time>
      </trkpt>
      <trkpt lat="47.87329" lon="-1.76875">
        <ele>81</ele>
        <time>2015-06-07T09:53:45Z</time>
      </trkpt>
      <trkpt lat="47.8733" lon="-1.76885">
        <ele>81</ele>
        <time>2015-06-07T09:53:46Z</time>
      </trkpt>
      <trkpt lat="47.87331" lon="-1.76895">
        <ele>81</ele>
        <time>2015-06-07T09:53:47Z</time>
      </trkpt>
      <trkpt lat="47.87333" lon="-1.76905">
        <ele>81</ele>
        <time>2015-06-07T09:53:48Z</time>
      </trkpt>
      <trkpt lat="47.87334" lon="-1.76915">
        <ele>81</ele>
        <time>2015-06-07T09:53:49Z</time>
      </trkpt>
      <trkpt lat="47.87335" lon="-1.76925">
        <ele>81</ele>
        <time>2015-06-07T09:53:50Z</time>
      </trkpt>
      <trkpt lat="47.87336" lon="-1.76935">
        <ele>81</ele>
        <time>2015-06-07T09:53:51Z</time>
      </trkpt>
      <trkpt lat="47.87337" lon="-1.76945">
        <ele>81</ele>
        <time>2015-06-07T09:53:52Z</time>
      </trkpt>
      <trkpt lat="47.87338" lon="-1.76955">
        <ele>81</ele>
        <time>2015-06-07T09:53:53Z</time>
      </trkpt>
      <trkpt lat="47.87338" lon="-1.76966">
        <ele>81</ele>
        <time>2015-06-07T09:53:54Z</time>
      </trkpt>
      <trkpt lat="47.87339" lon="-1.76976">
        <ele>81</ele>
        <time>2015-06-07T09:53:55Z</time>
      </trkpt>
      <trkpt lat="47.87338" lon="-1.76986">
        <ele>81</ele>
        <time>2015-06-07T09:53:56Z</time>
      </trkpt>
      <trkpt lat="47.87338" lon="-1.76995">
        <ele>81</ele>
        <time>2015-06-07T09:53:57Z</time>
      </trkpt>
      <trkpt lat="47.87337" lon="-1.77005">
        <ele>81</ele>
        <time>2015-06-07T09:53:58Z</time>
      </trkpt>
      <trkpt lat="47.87337" lon="-1.77014">
        <ele>81</ele>
        <time>2015-06-07T09:53:59Z</time>
      </trkpt>
      <trkpt lat="47.87336" lon="-1.77024">
        <ele>80</ele>
        <time>2015-06-07T09:54:00Z</time>
      </trkpt>
      <trkpt lat="47.87335" lon="-1.77034">
        <ele>80</ele>
        <time>2015-06-07T09:54:01Z</time>
      </trkpt>
      <trkpt lat="47.87334" lon="-1.77045">
        <ele>80</ele>
        <time>2015-06-07T09:54:02Z</time>
      </trkpt>
      <trkpt lat="47.87333" lon="-1.77055">
        <ele>80</ele>
        <time>2015-06-07T09:54:03Z</time>
      </trkpt>
      <trkpt lat="47.87332" lon="-1.77066">
        <ele>80</ele>
        <time>2015-06-07T09:54:04Z</time>
      </trkpt>
      <trkpt lat="47.87331" lon="-1.77078">
        <ele>80</ele>
        <time>2015-06-07T09:54:05Z</time>
      </trkpt>
      <trkpt lat="47.8733" lon="-1.77089">
        <ele>79</ele>
        <time>2015-06-07T09:54:06Z</time>
      </trkpt>
      <trkpt lat="47.87329" lon="-1.771">
        <ele>79</ele>
        <time>2015-06-07T09:54:07Z</time>
      </trkpt>
      <trkpt lat="47.87328" lon="-1.77111">
        <ele>79</ele>
        <time>2015-06-07T09:54:08Z</time>
      </trkpt>
      <trkpt lat="47.87327" lon="-1.77122">
        <ele>79</ele>
        <time>2015-06-07T09:54:09Z</time>
      </trkpt>
      <trkpt lat="47.87325" lon="-1.77133">
        <ele>79</ele>
        <time>2015-06-07T09:54:10Z</time>
      </trkpt>
      <trkpt lat="47.87324" lon="-1.77144">
        <ele>78</ele>
        <time>2015-06-07T09:54:11Z</time>
      </trkpt>
      <trkpt lat="47.87323" lon="-1.77156">
        <ele>78</ele>
        <time>2015-06-07T09:54:12Z</time>
      </trkpt>
      <trkpt lat="47.87322" lon="-1.77167">
        <ele>78</ele>
        <time>2015-06-07T09:54:13Z</time>
      </trkpt>
      <trkpt lat="47.87321" lon="-1.77178">
        <ele>78</ele>
        <time>2015-06-07T09:54:14Z</time>
      </trkpt>
      <trkpt lat="47.87321" lon="-1.77189">
        <ele>77</ele>
        <time>2015-06-07T09:54:15Z</time>
      </trkpt>
      <trkpt lat="47.87321" lon="-1.772">
        <ele>77</ele>
        <time>2015-06-07T09:54:16Z</time>
      </trkpt>
      <trkpt lat="47.87322" lon="-1.77211">
        <ele>77</ele>
        <time>2015-06-07T09:54:17Z</time>
      </trkpt>
      <trkpt lat="47.87322" lon="-1.77223">
        <ele>77</ele>
        <time>2015-06-07T09:54:18Z</time>
      </trkpt>
      <trkpt lat="47.87322" lon="-1.77234">
        <ele>77</ele>
        <time>2015-06-07T09:54:19Z</time>
      </trkpt>
      <trkpt lat="47.87323" lon="-1.77245">
        <ele>76</ele>
        <time>2015-06-07T09:54:20Z</time>
      </trkpt>
      <trkpt lat="47.87323" lon="-1.77256">
        <ele>76</ele>
        <time>2015-06-07T09:54:21Z</time>
      </trkpt>
      <trkpt lat="47.87323" lon="-1.77268">
        <ele>76</ele>
        <time>2015-06-07T09:54:22Z</time>
      </trkpt>
      <trkpt lat="47.87324" lon="-1.77279">
        <ele>75</ele>
        <time>2015-06-07T09:54:23Z</time>
      </trkpt>
      <trkpt lat="47.87323" lon="-1.77291">
        <ele>75</ele>
        <time>2015-06-07T09:54:24Z</time>
      </trkpt>
      <trkpt lat="47.87322" lon="-1.77302">
        <ele>75</ele>
        <time>2015-06-07T09:54:25Z</time>
      </trkpt>
      <trkpt lat="47.8732" lon="-1.77314">
        <ele>74</ele>
        <time>2015-06-07T09:54:26Z</time>
      </trkpt>
      <trkpt lat="47.87317" lon="-1.77326">
        <ele>73</ele>
        <time>2015-06-07T09:54:27Z</time>
      </trkpt>
      <trkpt lat="47.87314" lon="-1.77338">
        <ele>73</ele>
        <time>2015-06-07T09:54:28Z</time>
      </trkpt>
      <trkpt lat="47.87311" lon="-1.77351">
        <ele>72</ele>
        <time>2015-06-07T09:54:29Z</time>
      </trkpt>
      <trkpt lat="47.87309" lon="-1.77364">
        <ele>71</ele>
        <time>2015-06-07T09:54:30Z</time>
      </trkpt>
      <trkpt lat="47.87306" lon="-1.77378">
        <ele>70</ele>
        <time>2015-06-07T09:54:31Z</time>
      </trkpt>
      <trkpt lat="47.87302" lon="-1.77391">
        <ele>69</ele>
        <time>2015-06-07T09:54:32Z</time>
      </trkpt>
      <trkpt lat="47.87299" lon="-1.77405">
        <ele>67</ele>
        <time>2015-06-07T09:54:33Z</time>
      </trkpt>
      <trkpt lat="47.87296" lon="-1.77418">
        <ele>66</ele>
        <time>2015-06-07T09:54:34Z</time>
      </trkpt>
      <trkpt lat="47.87293" lon="-1.77431">
        <ele>65</ele>
        <time>2015-06-07T09:54:35Z</time>
      </trkpt>
      <trkpt lat="47.8729" lon="-1.77443">
        <ele>63</ele>
        <time>2015-06-07T09:54:36Z</time>
      </trkpt>
      <trkpt lat="47.87288" lon="-1.77452">
        <ele>62</ele>
        <time>2015-06-07T09:54:37Z</time>
      </trkpt>
      <trkpt lat="47.87287" lon="-1.77459">
        <ele>61</ele>
        <time>2015-06-07T09:54:38Z</time>
      </trkpt>
      <trkpt lat="47.87286" lon="-1.77463">
        <ele>61</ele>
        <time>2015-06-07T09:54:39Z</time>
      </trkpt>
      <trkpt lat="47.87286" lon="-1.77465">
        <ele>60</ele>
        <time>2015-06-07T09:54:40Z</time>
      </trkpt>
      <trkpt lat="47.87286" lon="-1.77469">
        <ele>60</ele>
        <time>2015-06-07T09:54:41Z</time>
      </trkpt>
      <trkpt lat="47.87285" lon="-1.77473">
        <ele>59</ele>
        <time>2015-06-07T09:54:42Z</time>
      </trkpt>
      <trkpt lat="47.87286" lon="-1.77477">
        <ele>59</ele>
        <time>2015-06-07T09:54:43Z</time>
      </trkpt>
      <trkpt lat="47.87286" lon="-1.7748">
        <ele>59</ele>
        <time>2015-06-07T09:54:44Z</time>
      </trkpt>
      <trkpt lat="47.87286" lon="-1.77483">
        <ele>59</ele>
        <time>2015-06-07T09:54:45Z</time>
      </trkpt>
      <trkpt lat="47.87287" lon="-1.77486">
        <ele>58</ele>
        <time>2015-06-07T09:54:46Z</time>
      </trkpt>
      <trkpt lat="47.87288" lon="-1.77488">
        <ele>58</ele>
        <time>2015-06-07T09:54:47Z</time>
      </trkpt>
      <trkpt lat="47.8729" lon="-1.77489">
        <ele>58</ele>
        <time>2015-06-07T09:54:48Z</time>
      </trkpt>
      <trkpt lat="47.87291" lon="-1.7749">
        <ele>58</ele>
        <time>2015-06-07T09:54:49Z</time>
      </trkpt>
      <trkpt lat="47.87293" lon="-1.77491">
        <ele>58</ele>
        <time>2015-06-07T09:54:50Z</time>
      </trkpt>
      <trkpt lat="47.87296" lon="-1.77492">
        <ele>57</ele>
        <time>2015-06-07T09:54:51Z</time>
      </trkpt>
      <trkpt lat="47.87298" lon="-1.77493">
        <ele>57</ele>
        <time>2015-06-07T09:54:52Z</time>
      </trkpt>
      <trkpt lat="47.873" lon="-1.77492">
        <ele>57</ele>
        <time>2015-06-07T09:54:53Z</time>
      </trkpt>
      <trkpt lat="47.87301" lon="-1.77491">
        <ele>57</ele>
        <time>2015-06-07T09:54:54Z</time>
      </trkpt>
      <trkpt lat="47.87302" lon="-1.77491">
        <ele>57</ele>
        <time>2015-06-07T09:54:55Z</time>
      </trkpt>
      <trkpt lat="47.87304" lon="-1.77492">
        <ele>57</ele>
        <time>2015-06-07T09:54:56Z</time>
      </trkpt>
      <trkpt lat="47.87307" lon="-1.77492">
        <ele>57</ele>
        <time>2015-06-07T09:54:57Z</time>
      </trkpt>
      <trkpt lat="47.87308" lon="-1.77491">
        <ele>57</ele>
        <time>2015-06-07T09:54:58Z</time>
      </trkpt>
      <trkpt lat="47.8731" lon="-1.77491">
        <ele>58</ele>
        <time>2015-06-07T09:54:59Z</time>
      </trkpt>
      <trkpt lat="47.87312" lon="-1.7749">
        <ele>58</ele>
        <time>2015-06-07T09:55:00Z</time>
      </trkpt>
      <trkpt lat="47.87314" lon="-1.77489">
        <ele>58</ele>
        <time>2015-06-07T09:55:01Z</time>
      </trkpt>
      <trkpt lat="47.87315" lon="-1.7749">
        <ele>58</ele>
        <time>2015-06-07T09:55:02Z</time>
      </trkpt>
      <trkpt lat="47.87316" lon="-1.7749">
        <ele>58</ele>
        <time>2015-06-07T09:55:03Z</time>
      </trkpt>
      <trkpt lat="47.87317" lon="-1.7749">
        <ele>59</ele>
        <time>2015-06-07T09:55:04Z</time>
      </trkpt>
      <trkpt lat="47.87318" lon="-1.77489">
        <ele>59</ele>
        <time>2015-06-07T09:55:05Z</time>
      </trkpt>
      <trkpt lat="47.87319" lon="-1.77489">
        <ele>59</ele>
        <time>2015-06-07T09:55:06Z</time>
      </trkpt>
      <trkpt lat="47.8732" lon="-1.77488">
        <ele>59</ele>
        <time>2015-06-07T09:55:07Z</time>
      </trkpt>
      <trkpt lat="47.87321" lon="-1.77488">
        <ele>59</ele>
        <time>2015-06-07T09:55:08Z</time>
      </trkpt>
      <trkpt lat="47.87322" lon="-1.77488">
        <ele>59</ele>
        <time>2015-06-07T09:55:09Z</time>
      </trkpt>
      <trkpt lat="47.87323" lon="-1.77488">
        <ele>59</ele>
        <time>2015-06-07T09:55:10Z</time>
      </trkpt>
      <trkpt lat="47.87324" lon="-1.77488">
        <ele>60</ele>
        <time>2015-06-07T09:55:11Z</time>
      </trkpt>
      <trkpt lat="47.87325" lon="-1.77489">
        <ele>60</ele>
        <time>2015-06-07T09:55:12Z</time>
      </trkpt>
      <trkpt lat="47.87326" lon="-1.77489">
        <ele>60</ele>
        <time>2015-06-07T09:55:13Z</time>
      </trkpt>
      <trkpt lat="47.87327" lon="-1.77489">
        <ele>60</ele>
        <time>2015-06-07T09:55:14Z</time>
      </trkpt>
      <trkpt lat="47.87328" lon="-1.77489">
        <ele>61</ele>
        <time>2015-06-07T09:55:15Z</time>
      </trkpt>
      <trkpt lat="47.87329" lon="-1.77489">
        <ele>61</ele>
        <time>2015-06-07T09:55:16Z</time>
      </trkpt>
      <trkpt lat="47.8733" lon="-1.7749">
        <ele>61</ele>
        <time>2015-06-07T09:55:17Z</time>
      </trkpt>
      <trkpt lat="47.87331" lon="-1.7749">
        <ele>61</ele>
        <time>2015-06-07T09:55:18Z</time>
      </trkpt>
      <trkpt lat="47.87331" lon="-1.7749">
        <ele>61</ele>
        <time>2015-06-07T09:55:19Z</time>
      </trkpt>
      <trkpt lat="47.87332" lon="-1.7749">
        <ele>61</ele>
        <time>2015-06-07T09:55:20Z</time>
      </trkpt>
      <trkpt lat="47.87332" lon="-1.7749">
        <ele>61</ele>
        <time>2015-06-07T09:55:21Z</time>
      </trkpt>
      <trkpt lat="47.87333" lon="-1.7749">
        <ele>61</ele>
        <time>2015-06-07T09:55:22Z</time>
      </trkpt>
      <trkpt lat="47.87334" lon="-1.7749">
        <ele>61</ele>
        <time>2015-06-07T09:55:23Z</time>
      </trkpt>
      <trkpt lat="47.87334" lon="-1.7749">
        <ele>61</ele>
        <time>2015-06-07T09:55:24Z</time>
      </trkpt>
      <trkpt lat="47.87335" lon="-1.7749">
        <ele>61</ele>
        <time>2015-06-07T09:55:25Z</time>
      </trkpt>
      <trkpt lat="47.87335" lon="-1.7749">
        <ele>62</ele>
        <time>2015-06-07T09:55:26Z</time>
      </trkpt>
      <trkpt lat="47.87336" lon="-1.7749">
        <ele>62</ele>
        <time>2015-06-07T09:55:27Z</time>
      </trkpt>
      <trkpt lat="47.87337" lon="-1.7749">
        <ele>62</ele>
        <time>2015-06-07T09:55:28Z</time>
      </trkpt>
      <trkpt lat="47.87338" lon="-1.7749">
        <ele>62</ele>
        <time>2015-06-07T09:55:29Z</time>
      </trkpt>
      <trkpt lat="47.87338" lon="-1.77491">
        <ele>63</ele>
        <time>2015-06-07T09:55:30Z</time>
      </trkpt>
      <trkpt lat="47.87339" lon="-1.77492">
        <ele>63</ele>
        <time>2015-06-07T09:55:31Z</time>
      </trkpt>
      <trkpt lat="47.8734" lon="-1.77492">
        <ele>63</ele>
        <time>2015-06-07T09:55:32Z</time>
      </trkpt>
      <trkpt lat="47.8734" lon="-1.77493">
        <ele>63</ele>
        <time>2015-06-07T09:55:33Z</time>
      </trkpt>
      <trkpt lat="47.87341" lon="-1.77495">
        <ele>64</ele>
        <time>2015-06-07T09:55:34Z</time>
      </trkpt>
      <trkpt lat="47.87341" lon="-1.77496">
        <ele>64</ele>
        <time>2015-06-07T09:55:35Z</time>
      </trkpt>
      <trkpt lat="47.87341" lon="-1.77496">
        <ele>64</ele>
        <time>2015-06-07T09:55:36Z</time>
      </trkpt>
      <trkpt lat="47.87342" lon="-1.77496">
        <ele>65</ele>
        <time>2015-06-07T09:55:37Z</time>
      </trkpt>
      <trkpt lat="47.87342" lon="-1.77497">
        <ele>65</ele>
        <time>2015-06-07T09:55:38Z</time>
      </trkpt>
      <trkpt lat="47.87343" lon="-1.77497">
        <ele>65</ele>
        <time>2015-06-07T09:55:39Z</time>
      </trkpt>
      <trkpt lat="47.87348" lon="-1.77502">
        <ele>66</ele>
        <time>2015-06-07T09:55:40Z</time>
      </trkpt>
      <trkpt lat="47.8735" lon="-1.77503">
        <ele>66</ele>
        <time>2015-06-07T09:55:41Z</time>
      </trkpt>
      <trkpt lat="47.87351" lon="-1.77504">
        <ele>67</ele>
        <time>2015-06-07T09:55:42Z</time>
      </trkpt>
      <trkpt lat="47.87352" lon="-1.77504">
        <ele>67</ele>
        <time>2015-06-07T09:55:43Z</time>
      </trkpt>
      <trkpt lat="47.87354" lon="-1.77504">
        <ele>67</ele>
        <time>2015-06-07T09:55:44Z</time>
      </trkpt>
      <trkpt lat="47.87355" lon="-1.77504">
        <ele>67</ele>
        <time>2015-06-07T09:55:45Z</time>
      </trkpt>
      <trkpt lat="47.87356" lon="-1.77505">
        <ele>67</ele>
        <time>2015-06-07T09:55:46Z</time>
      </trkpt>
      <trkpt lat="47.87356" lon="-1.77506">
        <ele>67</ele>
        <time>2015-06-07T09:55:47Z</time>
      </trkpt>
      <trkpt lat="47.87357" lon="-1.77508">
        <ele>67</ele>
        <time>2015-06-07T09:55:48Z</time>
      </trkpt>
      <trkpt lat="47.87359" lon="-1.7751">
        <ele>67</ele>
        <time>2015-06-07T09:55:49Z</time>
      </trkpt>
      <trkpt lat="47.8736" lon="-1.77512">
        <ele>67</ele>
        <time>2015-06-07T09:55:50Z</time>
      </trkpt>
      <trkpt lat="47.87361" lon="-1.77514">
        <ele>67</ele>
        <time>2015-06-07T09:55:51Z</time>
      </trkpt>
      <trkpt lat="47.87362" lon="-1.77516">
        <ele>67</ele>
        <time>2015-06-07T09:55:52Z</time>
      </trkpt>
      <trkpt lat="47.87363" lon="-1.77519">
        <ele>68</ele>
        <time>2015-06-07T09:55:53Z</time>
      </trkpt>
      <trkpt lat="47.87364" lon="-1.77521">
        <ele>68</ele>
        <time>2015-06-07T09:55:54Z</time>
      </trkpt>
      <trkpt lat="47.87365" lon="-1.77525">
        <ele>68</ele>
        <time>2015-06-07T09:55:55Z</time>
      </trkpt>
      <trkpt lat="47.87366" lon="-1.77527">
        <ele>68</ele>
        <time>2015-06-07T09:55:56Z</time>
      </trkpt>
      <trkpt lat="47.87368" lon="-1.7753">
        <ele>68</ele>
        <time>2015-06-07T09:55:57Z</time>
      </trkpt>
      <trkpt lat="47.87368" lon="-1.77533">
        <ele>68</ele>
        <time>2015-06-07T09:55:58Z</time>
      </trkpt>
      <trkpt lat="47.87369" lon="-1.77537">
        <ele>68</ele>
        <time>2015-06-07T09:55:59Z</time>
      </trkpt>
      <trkpt lat="47.87371" lon="-1.77541">
        <ele>68</ele>
        <time>2015-06-07T09:56:00Z</time>
      </trkpt>
      <trkpt lat="47.87373" lon="-1.77547">
        <ele>68</ele>
        <time>2015-06-07T09:56:01Z</time>
      </trkpt>
      <trkpt lat="47.87374" lon="-1.77551">
        <ele>68</ele>
        <time>2015-06-07T09:56:02Z</time>
      </trkpt>
      <trkpt lat="47.87376" lon="-1.77553">
        <ele>68</ele>
        <time>2015-06-07T09:56:03Z</time>
      </trkpt>
      <trkpt lat="47.87377" lon="-1.77555">
        <ele>68</ele>
        <time>2015-06-07T09:56:04Z</time>
      </trkpt>
      <trkpt lat="47.87379" lon="-1.77558">
        <ele>68</ele>
        <time>2015-06-07T09:56:05Z</time>
      </trkpt>
      <trkpt lat="47.8738" lon="-1.77559">
        <ele>68</ele>
        <time>2015-06-07T09:56:06Z</time>
      </trkpt>
      <trkpt lat="47.87381" lon="-1.77559">
        <ele>68</ele>
        <time>2015-06-07T09:56:07Z</time>
      </trkpt>
      <trkpt lat="47.87383" lon="-1.77559">
        <ele>68</ele>
        <time>2015-06-07T09:56:08Z</time>
      </trkpt>
      <trkpt lat="47.87386" lon="-1.7756">
        <ele>69</ele>
        <time>2015-06-07T09:56:09Z</time>
      </trkpt>
      <trkpt lat="47.87387" lon="-1.7756">
        <ele>69</ele>
        <time>2015-06-07T09:56:10Z</time>
      </trkpt>
      <trkpt lat="47.87389" lon="-1.7756">
        <ele>69</ele>
        <time>2015-06-07T09:56:11Z</time>
      </trkpt>
      <trkpt lat="47.87389" lon="-1.7756">
        <ele>69</ele>
        <time>2015-06-07T09:56:12Z</time>
      </trkpt>
      <trkpt lat="47.87389" lon="-1.77559">
        <ele>69</ele>
        <time>2015-06-07T09:56:13Z</time>
      </trkpt>
      <trkpt lat="47.87388" lon="-1.77559">
        <ele>70</ele>
        <time>2015-06-07T09:56:14Z</time>
      </trkpt>
      <trkpt lat="47.87388" lon="-1.77557">
        <ele>70</ele>
        <time>2015-06-07T09:56:15Z</time>
      </trkpt>
      <trkpt lat="47.87387" lon="-1.77555">
        <ele>70</ele>
        <time>2015-06-07T09:56:16Z</time>
      </trkpt>
      <trkpt lat="47.87387" lon="-1.77552">
        <ele>70</ele>
        <time>2015-06-07T09:56:17Z</time>
      </trkpt>
      <trkpt lat="47.87388" lon="-1.77549">
        <ele>71</ele>
        <time>2015-06-07T09:56:18Z</time>
      </trkpt>
      <trkpt lat="47.87388" lon="-1.77548">
        <ele>71</ele>
        <time>2015-06-07T09:56:19Z</time>
      </trkpt>
      <trkpt lat="47.87388" lon="-1.77546">
        <ele>71</ele>
        <time>2015-06-07T09:56:20Z</time>
      </trkpt>
      <trkpt lat="47.87388" lon="-1.77544">
        <ele>71</ele>
        <time>2015-06-07T09:56:21Z</time>
      </trkpt>
      <trkpt lat="47.87389" lon="-1.77543">
        <ele>71</ele>
        <time>2015-06-07T09:56:22Z</time>
      </trkpt>
      <trkpt lat="47.8739" lon="-1.77543">
        <ele>72</ele>
        <time>2015-06-07T09:56:23Z</time>
      </trkpt>
      <trkpt lat="47.87391" lon="-1.77542">
        <ele>72</ele>
        <time>2015-06-07T09:56:24Z</time>
      </trkpt>
      <trkpt lat="47.87392" lon="-1.77544">
        <ele>72</ele>
        <time>2015-06-07T09:56:25Z</time>
      </trkpt>
      <trkpt lat="47.87393" lon="-1.77545">
        <ele>72</ele>
        <time>2015-06-07T09:56:26Z</time>
      </trkpt>
      <trkpt lat="47.87396" lon="-1.77545">
        <ele>72</ele>
        <time>2015-06-07T09:56:27Z</time>
      </trkpt>
      <trkpt lat="47.87398" lon="-1.77544">
        <ele>72</ele>
        <time>2015-06-07T09:56:28Z</time>
      </trkpt>
      <trkpt lat="47.87399" lon="-1.77542">
        <ele>72</ele>
        <time>2015-06-07T09:56:29Z</time>
      </trkpt>
      <trkpt lat="47.874" lon="-1.77541">
        <ele>73</ele>
        <time>2015-06-07T09:56:30Z</time>
      </trkpt>
      <trkpt lat="47.874" lon="-1.77539">
        <ele>73</ele>
        <time>2015-06-07T09:56:31Z</time>
      </trkpt>
      <trkpt lat="47.87401" lon="-1.77538">
        <ele>73</ele>
        <time>2015-06-07T09:56:32Z</time>
      </trkpt>
      <trkpt lat="47.87401" lon="-1.77537">
        <ele>73</ele>
        <time>2015-06-07T09:56:33Z</time>
      </trkpt>
      <trkpt lat="47.87401" lon="-1.77536">
        <ele>73</ele>
        <time>2015-06-07T09:56:34Z</time>
      </trkpt>
      <trkpt lat="47.87402" lon="-1.77534">
        <ele>73</ele>
        <time>2015-06-07T09:56:35Z</time>
      </trkpt>
      <trkpt lat="47.87402" lon="-1.77531">
        <ele>73</ele>
        <time>2015-06-07T09:56:36Z</time>
      </trkpt>
      <trkpt lat="47.87402" lon="-1.77527">
        <ele>73</ele>
        <time>2015-06-07T09:56:37Z</time>
      </trkpt>
      <trkpt lat="47.87402" lon="-1.77524">
        <ele>73</ele>
        <time>2015-06-07T09:56:38Z</time>
      </trkpt>
      <trkpt lat="47.87402" lon="-1.77522">
        <ele>73</ele>
        <time>2015-06-07T09:56:39Z</time>
      </trkpt>
      <trkpt lat="47.87401" lon="-1.7752">
        <ele>73</ele>
        <time>2015-06-07T09:56:40Z</time>
      </trkpt>
      <trkpt lat="47.87402" lon="-1.77517">
        <ele>74</ele>
        <time>2015-06-07T09:56:41Z</time>
      </trkpt>
      <trkpt lat="47.87402" lon="-1.77515">
        <ele>74</ele>
        <time>2015-06-07T09:56:42Z</time>
      </trkpt>
      <trkpt lat="47.87401" lon="-1.77513">
        <ele>74</ele>
        <time>2015-06-07T09:56:43Z</time>
      </trkpt>
      <trkpt lat="47.87401" lon="-1.77511">
        <ele>74</ele>
        <time>2015-06-07T09:56:44Z</time>
      </trkpt>
      <trkpt lat="47.87401" lon="-1.77509">
        <ele>75</ele>
        <time>2015-06-07T09:56:45Z</time>
      </trkpt>
      <trkpt lat="47.87401" lon="-1.77507">
        <ele>75</ele>
        <time>2015-06-07T09:56:46Z</time>
      </trkpt>
      <trkpt lat="47.874" lon="-1.77504">
        <ele>75</ele>
        <time>2015-06-07T09:56:47Z</time>
      </trkpt>
      <trkpt lat="47.87399" lon="-1.77501">
        <ele>75</ele>
        <time>2015-06-07T09:56:48Z</time>
      </trkpt>
      <trkpt lat="47.87397" lon="-1.77498">
        <ele>76</ele>
        <time>2015-06-07T09:56:49Z</time>
      </trkpt>
      <trkpt lat="47.87395" lon="-1.77495">
        <ele>76</ele>
        <time>2015-06-07T09:56:50Z</time>
      </trkpt>
      <trkpt lat="47.87393" lon="-1.77492">
        <ele>76</ele>
        <time>2015-06-07T09:56:51Z</time>
      </trkpt>
      <trkpt lat="47.87391" lon="-1.77489">
        <ele>76</ele>
        <time>2015-06-07T09:56:52Z</time>
      </trkpt>
      <trkpt lat="47.87389" lon="-1.77486">
        <ele>76</ele>
        <time>2015-06-07T09:56:53Z</time>
      </trkpt>
      <trkpt lat="47.87387" lon="-1.77484">
        <ele>76</ele>
        <time>2015-06-07T09:56:54Z</time>
      </trkpt>
      <trkpt lat="47.87383" lon="-1.77482">
        <ele>76</ele>
        <time>2015-06-07T09:56:55Z</time>
      </trkpt>
      <trkpt lat="47.87379" lon="-1.7748">
        <ele>76</ele>
        <time>2015-06-07T09:56:56Z</time>
      </trkpt>
      <trkpt lat="47.87375" lon="-1.77479">
        <ele>76</ele>
        <time>2015-06-07T09:56:57Z</time>
      </trkpt>
      <trkpt lat="47.87371" lon="-1.77477">
        <ele>77</ele>
        <time>2015-06-07T09:56:58Z</time>
      </trkpt>
      <trkpt lat="47.87367" lon="-1.77474">
        <ele>77</ele>
        <time>2015-06-07T09:56:59Z</time>
      </trkpt>
      <trkpt lat="47.87363" lon="-1.77471">
        <ele>77</ele>
        <time>2015-06-07T09:57:00Z</time>
      </trkpt>
      <trkpt lat="47.87359" lon="-1.77468">
        <ele>77</ele>
        <time>2015-06-07T09:57:01Z</time>
      </trkpt>
      <trkpt lat="47.87356" lon="-1.77465">
        <ele>76</ele>
        <time>2015-06-07T09:57:02Z</time>
      </trkpt>
      <trkpt lat="47.87354" lon="-1.77461">
        <ele>76</ele>
        <time>2015-06-07T09:57:03Z</time>
      </trkpt>
      <trkpt lat="47.87353" lon="-1.77458">
        <ele>76</ele>
        <time>2015-06-07T09:57:04Z</time>
      </trkpt>
      <trkpt lat="47.87352" lon="-1.77455">
        <ele>76</ele>
        <time>2015-06-07T09:57:05Z</time>
      </trkpt>
      <trkpt lat="47.87351" lon="-1.77453">
        <ele>76</ele>
        <time>2015-06-07T09:57:06Z</time>
      </trkpt>
      <trkpt lat="47.87351" lon="-1.7745">
        <ele>76</ele>
        <time>2015-06-07T09:57:07Z</time>
      </trkpt>
      <trkpt lat="47.87351" lon="-1.77449">
        <ele>75</ele>
        <time>2015-06-07T09:57:08Z</time>
      </trkpt>
      <trkpt lat="47.87351" lon="-1.77447">
        <ele>75</ele>
        <time>2015-06-07T09:57:09Z</time>
      </trkpt>
      <trkpt lat="47.87352" lon="-1.77447">
        <ele>75</ele>
        <time>2015-06-07T09:57:10Z</time>
      </trkpt>
      <trkpt lat="47.87353" lon="-1.77448">
        <ele>75</ele>
        <time>2015-06-07T09:57:11Z</time>
      </trkpt>
      <trkpt lat="47.87353" lon="-1.77448">
        <ele>75</ele>
        <time>2015-06-07T09:57:12Z</time>
      </trkpt>
      <trkpt lat="47.87354" lon="-1.77449">
        <ele>75</ele>
        <time>2015-06-07T09:57:13Z</time>
      </trkpt>
      <trkpt lat="47.87354" lon="-1.7745">
        <ele>75</ele>
        <time>2015-06-07T09:57:14Z</time>
      </trkpt>
      <trkpt lat="47.87354" lon="-1.77451">
        <ele>75</ele>
        <time>2015-06-07T09:57:15Z</time>
      </trkpt>
      <trkpt lat="47.87354" lon="-1.77451">
        <ele>75</ele>
        <time>2015-06-07T09:57:16Z</time>
      </trkpt>
      <trkpt lat="47.87355" lon="-1.7745">
        <ele>75</ele>
        <time>2015-06-07T09:57:17Z</time>
      </trkpt>
      <trkpt lat="47.87356" lon="-1.77449">
        <ele>75</ele>
        <time>2015-06-07T09:57:18Z</time>
      </trkpt>
      <trkpt lat="47.87357" lon="-1.77449">
        <ele>75</ele>
        <time>2015-06-07T09:57:19Z</time>
      </trkpt>
      <trkpt lat="47.87357" lon="-1.77449">
        <ele>75</ele>
        <time>2015-06-07T09:57:20Z</time>
      </trkpt>
      <trkpt lat="47.87358" lon="-1.77448">
        <ele>75</ele>
        <time>2015-06-07T09:57:21Z</time>
      </trkpt>
      <trkpt lat="47.8736" lon="-1.77446">
        <ele>75</ele>
        <time>2015-06-07T09:57:22Z</time>
      </trkpt>
      <trkpt lat="47.87362" lon="-1.77446">
        <ele>75</ele>
        <time>2015-06-07T09:57:23Z</time>
      </trkpt>
      <trkpt lat="47.87363" lon="-1.77446">
        <ele>75</ele>
        <time>2015-06-07T09:57:24Z</time>
      </trkpt>
      <trkpt lat="47.87363" lon="-1.77446">
        <ele>75</ele>
        <time>2015-06-07T09:57:25Z</time>
      </trkpt>
      <trkpt lat="47.87364" lon="-1.77447">
        <ele>75</ele>
        <time>2015-06-07T09:57:26Z</time>
      </trkpt>
      <trkpt lat="47.87365" lon="-1.77447">
        <ele>75</ele>
        <time>2015-06-07T09:57:27Z</time>
      </trkpt>
      <trkpt lat="47.87367" lon="-1.77447">
        <ele>75</ele>
        <time>2015-06-07T09:57:28Z</time>
      </trkpt>
      <trkpt lat="47.87368" lon="-1.77448">
        <ele>75</ele>
        <time>2015-06-07T09:57:29Z</time>
      </trkpt>
      <trkpt lat="47.87369" lon="-1.77447">
        <ele>76</ele>
        <time>2015-06-07T09:57:30Z</time>
      </trkpt>
      <trkpt lat="47.8737" lon="-1.77447">
        <ele>76</ele>
        <time>2015-06-07T09:57:31Z</time>
      </trkpt>
      <trkpt lat="47.87372" lon="-1.77446">
        <ele>76</ele>
        <time>2015-06-07T09:57:32Z</time>
      </trkpt>
      <trkpt lat="47.87374" lon="-1.77446">
        <ele>76</ele>
        <time>2015-06-07T09:57:33Z</time>
      </trkpt>
      <trkpt lat="47.87376" lon="-1.77446">
        <ele>76</ele>
        <time>2015-06-07T09:57:34Z</time>
      </trkpt>
      <trkpt lat="47.87377" lon="-1.77445">
        <ele>76</ele>
        <time>2015-06-07T09:57:35Z</time>
      </trkpt>
      <trkpt lat="47.87379" lon="-1.77445">
        <ele>76</ele>
        <time>2015-06-07T09:57:36Z</time>
      </trkpt>
      <trkpt lat="47.87381" lon="-1.77445">
        <ele>76</ele>
        <time>2015-06-07T09:57:37Z</time>
      </trkpt>
      <trkpt lat="47.87382" lon="-1.77445">
        <ele>76</ele>
        <time>2015-06-07T09:57:38Z</time>
      </trkpt>
      <trkpt lat="47.87383" lon="-1.77445">
        <ele>76</ele>
        <time>2015-06-07T09:57:39Z</time>
      </trkpt>
      <trkpt lat="47.87385" lon="-1.77446">
        <ele>76</ele>
        <time>2015-06-07T09:57:40Z</time>
      </trkpt>
      <trkpt lat="47.87387" lon="-1.77445">
        <ele>77</ele>
        <time>2015-06-07T09:57:41Z</time>
      </trkpt>
      <trkpt lat="47.87388" lon="-1.77445">
        <ele>77</ele>
        <time>2015-06-07T09:57:42Z</time>
      </trkpt>
      <trkpt lat="47.8739" lon="-1.77445">
        <ele>77</ele>
        <time>2015-06-07T09:57:43Z</time>
      </trkpt>
      <trkpt lat="47.87391" lon="-1.77443">
        <ele>77</ele>
        <time>2015-06-07T09:57:44Z</time>
      </trkpt>
      <trkpt lat="47.87393" lon="-1.77443">
        <ele>77</ele>
        <time>2015-06-07T09:57:45Z</time>
      </trkpt>
      <trkpt lat="47.87395" lon="-1.77443">
        <ele>78</ele>
        <time>2015-06-07T09:57:46Z</time>
      </trkpt>
      <trkpt lat="47.87396" lon="-1.77444">
        <ele>78</ele>
        <time>2015-06-07T09:57:47Z</time>
      </trkpt>
      <trkpt lat="47.87398" lon="-1.77444">
        <ele>78</ele>
        <time>2015-06-07T09:57:48Z</time>
      </trkpt>
      <trkpt lat="47.874" lon="-1.77445">
        <ele>78</ele>
        <time>2015-06-07T09:57:49Z</time>
      </trkpt>
      <trkpt lat="47.87402" lon="-1.77446">
        <ele>78</ele>
        <time>2015-06-07T09:57:50Z</time>
      </trkpt>
      <trkpt lat="47.87405" lon="-1.77444">
        <ele>78</ele>
        <time>2015-06-07T09:57:51Z</time>
      </trkpt>
      <trkpt lat="47.87406" lon="-1.77443">
        <ele>78</ele>
        <time>2015-06-07T09:57:52Z</time>
      </trkpt>
      <trkpt lat="47.87407" lon="-1.77442">
        <ele>78</ele>
        <time>2015-06-07T09:57:53Z</time>
      </trkpt>
      <trkpt lat="47.87409" lon="-1.77442">
        <ele>79</ele>
        <time>2015-06-07T09:57:54Z</time>
      </trkpt>
      <trkpt lat="47.87409" lon="-1.77442">
        <ele>79</ele>
        <time>2015-06-07T09:57:55Z</time>
      </trkpt>
      <trkpt lat="47.8741" lon="-1.77442">
        <ele>79</ele>
        <time>2015-06-07T09:57:56Z</time>
      </trkpt>
      <trkpt lat="47.8741" lon="-1.77442">
        <ele>79</ele>
        <time>2015-06-07T09:57:57Z</time>
      </trkpt>
      <trkpt lat="47.87411" lon="-1.77441">
        <ele>79</ele>
        <time>2015-06-07T09:57:58Z</time>
      </trkpt>
      <trkpt lat="47.87411" lon="-1.7744">
        <ele>79</ele>
        <time>2015-06-07T09:57:59Z</time>
      </trkpt>
      <trkpt lat="47.87412" lon="-1.7744">
        <ele>79</ele>
        <time>2015-06-07T09:58:00Z</time>
      </trkpt>
      <trkpt lat="47.87413" lon="-1.77439">
        <ele>79</ele>
        <time>2015-06-07T09:58:01Z</time>
      </trkpt>
      <trkpt lat="47.87419" lon="-1.77437">
        <ele>81</ele>
        <time>2015-06-07T09:58:02Z</time>
      </trkpt>
      <trkpt lat="47.87419" lon="-1.77437">
        <ele>81</ele>
        <time>2015-06-07T09:58:03Z</time>
      </trkpt>
      <trkpt lat="47.8742" lon="-1.77437">
        <ele>81</ele>
        <time>2015-06-07T09:58:04Z</time>
      </trkpt>
      <trkpt lat="47.87422" lon="-1.77437">
        <ele>81</ele>
        <time>2015-06-07T09:58:05Z</time>
      </trkpt>
      <trkpt lat="47.87423" lon="-1.77436">
        <ele>82</ele>
        <time>2015-06-07T09:58:06Z</time>
      </trkpt>
      <trkpt lat="47.87424" lon="-1.77434">
        <ele>82</ele>
        <time>2015-06-07T09:58:07Z</time>
      </trkpt>
      <trkpt lat="47.87426" lon="-1.7743">
        <ele>82</ele>
        <time>2015-06-07T09:58:08Z</time>
      </trkpt>
      <trkpt lat="47.87426" lon="-1.7743">
        <ele>82</ele>
        <time>2015-06-07T09:58:09Z</time>
      </trkpt>
      <trkpt lat="47.87428" lon="-1.77427">
        <ele>82</ele>
        <time>2015-06-07T09:58:10Z</time>
      </trkpt>
      <trkpt lat="47.8743" lon="-1.77421">
        <ele>83</ele>
        <time>2015-06-07T09:58:11Z</time>
      </trkpt>
      <trkpt lat="47.8743" lon="-1.77421">
        <ele>83</ele>
        <time>2015-06-07T09:58:12Z</time>
      </trkpt>
      <trkpt lat="47.87434" lon="-1.77419">
        <ele>83</ele>
        <time>2015-06-07T09:58:13Z</time>
      </trkpt>
      <trkpt lat="47.87436" lon="-1.77419">
        <ele>83</ele>
        <time>2015-06-07T09:58:14Z</time>
      </trkpt>
      <trkpt lat="47.87436" lon="-1.77419">
        <ele>83</ele>
        <time>2015-06-07T09:58:15Z</time>
      </trkpt>
      <trkpt lat="47.87438" lon="-1.77419">
        <ele>83</ele>
        <time>2015-06-07T09:58:16Z</time>
      </trkpt>
      <trkpt lat="47.87441" lon="-1.77423">
        <ele>83</ele>
        <time>2015-06-07T09:58:17Z</time>
      </trkpt>
      <trkpt lat="47.87442" lon="-1.77426">
        <ele>83</ele>
        <time>2015-06-07T09:58:18Z</time>
      </trkpt>
      <trkpt lat="47.87443" lon="-1.77429">
        <ele>83</ele>
        <time>2015-06-07T09:58:19Z</time>
      </trkpt>
      <trkpt lat="47.87444" lon="-1.77432">
        <ele>84</ele>
        <time>2015-06-07T09:58:20Z</time>
      </trkpt>
      <trkpt lat="47.87445" lon="-1.77435">
        <ele>84</ele>
        <time>2015-06-07T09:58:21Z</time>
      </trkpt>
      <trkpt lat="47.87445" lon="-1.77437">
        <ele>84</ele>
        <time>2015-06-07T09:58:22Z</time>
      </trkpt>
      <trkpt lat="47.87445" lon="-1.77439">
        <ele>84</ele>
        <time>2015-06-07T09:58:23Z</time>
      </trkpt>
      <trkpt lat="47.87445" lon="-1.77439">
        <ele>84</ele>
        <time>2015-06-07T09:58:24Z</time>
      </trkpt>
      <trkpt lat="47.87441" lon="-1.77444">
        <ele>84</ele>
        <time>2015-06-07T09:58:25Z</time>
      </trkpt>
      <trkpt lat="47.87441" lon="-1.77444">
        <ele>84</ele>
        <time>2015-06-07T09:58:26Z</time>
      </trkpt>
      <trkpt lat="47.87439" lon="-1.77446">
        <ele>84</ele>
        <time>2015-06-07T09:58:27Z</time>
      </trkpt>
      <trkpt lat="47.87438" lon="-1.77446">
        <ele>84</ele>
        <time>2015-06-07T09:58:28Z</time>
      </trkpt>
      <trkpt lat="47.87437" lon="-1.77446">
        <ele>84</ele>
        <time>2015-06-07T09:58:29Z</time>
      </trkpt>
      <trkpt lat="47.87435" lon="-1.77445">
        <ele>84</ele>
        <time>2015-06-07T09:58:30Z</time>
      </trkpt>
      <trkpt lat="47.87432" lon="-1.77443">
        <ele>84</ele>
        <time>2015-06-07T09:58:31Z</time>
      </trkpt>
      <trkpt lat="47.87427" lon="-1.77443">
        <ele>84</ele>
        <time>2015-06-07T09:58:32Z</time>
      </trkpt>
      <trkpt lat="47.87425" lon="-1.77443">
        <ele>84</ele>
        <time>2015-06-07T09:58:33Z</time>
      </trkpt>
      <trkpt lat="47.87423" lon="-1.77444">
        <ele>85</ele>
        <time>2015-06-07T09:58:34Z</time>
      </trkpt>
      <trkpt lat="47.87422" lon="-1.77447">
        <ele>85</ele>
        <time>2015-06-07T09:58:35Z</time>
      </trkpt>
      <trkpt lat="47.87422" lon="-1.77447">
        <ele>85</ele>
        <time>2015-06-07T09:58:36Z</time>
      </trkpt>
      <trkpt lat="47.87419" lon="-1.77451">
        <ele>85</ele>
        <time>2015-06-07T09:58:37Z</time>
      </trkpt>
      <trkpt lat="47.87418" lon="-1.77456">
        <ele>85</ele>
        <time>2015-06-07T09:58:38Z</time>
      </trkpt>
      <trkpt lat="47.87417" lon="-1.7746">
        <ele>85</ele>
        <time>2015-06-07T09:58:39Z</time>
      </trkpt>
      <trkpt lat="47.87416" lon="-1.77462">
        <ele>85</ele>
        <time>2015-06-07T09:58:40Z</time>
      </trkpt>
      <trkpt lat="47.87414" lon="-1.77464">
        <ele>85</ele>
        <time>2015-06-07T09:58:41Z</time>
      </trkpt>
      <trkpt lat="47.87411" lon="-1.77469">
        <ele>85</ele>
        <time>2015-06-07T09:58:42Z</time>
      </trkpt>
      <trkpt lat="47.87411" lon="-1.77469">
        <ele>85</ele>
        <time>2015-06-07T09:58:43Z</time>
      </trkpt>
      <trkpt lat="47.87411" lon="-1.77473">
        <ele>85</ele>
        <time>2015-06-07T09:58:44Z</time>
      </trkpt>
      <trkpt lat="47.87411" lon="-1.77473">
        <ele>85</ele>
        <time>2015-06-07T09:58:45Z</time>
      </trkpt>
      <trkpt lat="47.87412" lon="-1.77479">
        <ele>85</ele>
        <time>2015-06-07T09:58:46Z</time>
      </trkpt>
      <trkpt lat="47.87412" lon="-1.77479">
        <ele>85</ele>
        <time>2015-06-07T09:58:47Z</time>
      </trkpt>
      <trkpt lat="47.87413" lon="-1.77488">
        <ele>84</ele>
        <time>2015-06-07T09:58:48Z</time>
      </trkpt>
      <trkpt lat="47.87413" lon="-1.77492">
        <ele>84</ele>
        <time>2015-06-07T09:58:49Z</time>
      </trkpt>
      <trkpt lat="47.87413" lon="-1.77496">
        <ele>84</ele>
        <time>2015-06-07T09:58:50Z</time>
      </trkpt>
      <trkpt lat="47.87413" lon="-1.77496">
        <ele>84</ele>
        <time>2015-06-07T09:58:51Z</time>
      </trkpt>
      <trkpt lat="47.87412" lon="-1.775">
        <ele>83</ele>
        <time>2015-06-07T09:58:52Z</time>
      </trkpt>
      <trkpt lat="47.87411" lon="-1.77502">
        <ele>83</ele>
        <time>2015-06-07T09:58:53Z</time>
      </trkpt>
      <trkpt lat="47.87408" lon="-1.77507">
        <ele>83</ele>
        <time>2015-06-07T09:58:54Z</time>
      </trkpt>
      <trkpt lat="47.87408" lon="-1.77507">
        <ele>83</ele>
        <time>2015-06-07T09:58:55Z</time>
      </trkpt>
      <trkpt lat="47.87409" lon="-1.77512">
        <ele>83</ele>
        <time>2015-06-07T09:58:56Z</time>
      </trkpt>
      <trkpt lat="47.87411" lon="-1.77519">
        <ele>82</ele>
        <time>2015-06-07T09:58:57Z</time>
      </trkpt>
      <trkpt lat="47.87411" lon="-1.77519">
        <ele>82</ele>
        <time>2015-06-07T09:58:58Z</time>
      </trkpt>
      <trkpt lat="47.87412" lon="-1.77524">
        <ele>82</ele>
        <time>2015-06-07T09:58:59Z</time>
      </trkpt>
      <trkpt lat="47.87413" lon="-1.77533">
        <ele>81</ele>
        <time>2015-06-07T09:59:00Z</time>
      </trkpt>
      <trkpt lat="47.87413" lon="-1.77533">
        <ele>81</ele>
        <time>2015-06-07T09:59:01Z</time>
      </trkpt>
      <trkpt lat="47.8741" lon="-1.7754">
        <ele>81</ele>
        <time>2015-06-07T09:59:02Z</time>
      </trkpt>
      <trkpt lat="47.8741" lon="-1.7754">
        <ele>81</ele>
        <time>2015-06-07T09:59:03Z</time>
      </trkpt>
      <trkpt lat="47.87407" lon="-1.77542">
        <ele>80</ele>
        <time>2015-06-07T09:59:04Z</time>
      </trkpt>
      <trkpt lat="47.87405" lon="-1.77545">
        <ele>80</ele>
        <time>2015-06-07T09:59:05Z</time>
      </trkpt>
      <trkpt lat="47.87404" lon="-1.77555">
        <ele>79</ele>
        <time>2015-06-07T09:59:06Z</time>
      </trkpt>
      <trkpt lat="47.87404" lon="-1.77555">
        <ele>79</ele>
        <time>2015-06-07T09:59:07Z</time>
      </trkpt>
      <trkpt lat="47.87403" lon="-1.77565">
        <ele>78</ele>
        <time>2015-06-07T09:59:08Z</time>
      </trkpt>
      <trkpt lat="47.87403" lon="-1.77565">
        <ele>78</ele>
        <time>2015-06-07T09:59:09Z</time>
      </trkpt>
      <trkpt lat="47.87403" lon="-1.7757">
        <ele>78</ele>
        <time>2015-06-07T09:59:10Z</time>
      </trkpt>
      <trkpt lat="47.87402" lon="-1.77577">
        <ele>78</ele>
        <time>2015-06-07T09:59:11Z</time>
      </trkpt>
      <trkpt lat="47.87402" lon="-1.77577">
        <ele>78</ele>
        <time>2015-06-07T09:59:12Z</time>
      </trkpt>
      <trkpt lat="47.87402" lon="-1.77584">
        <ele>77</ele>
        <time>2015-06-07T09:59:13Z</time>
      </trkpt>
      <trkpt lat="47.87404" lon="-1.77588">
        <ele>76</ele>
        <time>2015-06-07T09:59:14Z</time>
      </trkpt>
      <trkpt lat="47.87404" lon="-1.77588">
        <ele>76</ele>
        <time>2015-06-07T09:59:15Z</time>
      </trkpt>
      <trkpt lat="47.8741" lon="-1.77597">
        <ele>75</ele>
        <time>2015-06-07T09:59:16Z</time>
      </trkpt>
      <trkpt lat="47.8741" lon="-1.77597">
        <ele>75</ele>
        <time>2015-06-07T09:59:17Z</time>
      </trkpt>
      <trkpt lat="47.87416" lon="-1.77596">
        <ele>74</ele>
        <time>2015-06-07T09:59:18Z</time>
      </trkpt>
      <trkpt lat="47.87418" lon="-1.77594">
        <ele>74</ele>
        <time>2015-06-07T09:59:19Z</time>
      </trkpt>
      <trkpt lat="47.87419" lon="-1.77592">
        <ele>74</ele>
        <time>2015-06-07T09:59:20Z</time>
      </trkpt>
      <trkpt lat="47.87419" lon="-1.77591">
        <ele>73</ele>
        <time>2015-06-07T09:59:21Z</time>
      </trkpt>
      <trkpt lat="47.87419" lon="-1.7759">
        <ele>73</ele>
        <time>2015-06-07T09:59:22Z</time>
      </trkpt>
      <trkpt lat="47.87419" lon="-1.7759">
        <ele>73</ele>
        <time>2015-06-07T09:59:23Z</time>
      </trkpt>
      <trkpt lat="47.87418" lon="-1.77589">
        <ele>73</ele>
        <time>2015-06-07T09:59:24Z</time>
      </trkpt>
      <trkpt lat="47.87418" lon="-1.77588">
        <ele>72</ele>
        <time>2015-06-07T09:59:25Z</time>
      </trkpt>
      <trkpt lat="47.87418" lon="-1.77588">
        <ele>72</ele>
        <time>2015-06-07T09:59:26Z</time>
      </trkpt>
      <trkpt lat="47.87417" lon="-1.77587">
        <ele>72</ele>
        <time>2015-06-07T09:59:27Z</time>
      </trkpt>
      <trkpt lat="47.87417" lon="-1.77587">
        <ele>72</ele>
        <time>2015-06-07T09:59:28Z</time>
      </trkpt>
      <trkpt lat="47.87417" lon="-1.77586">
        <ele>72</ele>
        <time>2015-06-07T09:59:29Z</time>
      </trkpt>
      <trkpt lat="47.87417" lon="-1.77585">
        <ele>72</ele>
        <time>2015-06-07T09:59:30Z</time>
      </trkpt>
      <trkpt lat="47.87417" lon="-1.77583">
        <ele>72</ele>
        <time>2015-06-07T09:59:31Z</time>
      </trkpt>
      <trkpt lat="47.87417" lon="-1.77582">
        <ele>72</ele>
        <time>2015-06-07T09:59:32Z</time>
      </trkpt>
      <trkpt lat="47.87419" lon="-1.7758">
        <ele>71</ele>
        <time>2015-06-07T09:59:33Z</time>
      </trkpt>
      <trkpt lat="47.87419" lon="-1.7758">
        <ele>71</ele>
        <time>2015-06-07T09:59:34Z</time>
      </trkpt>
      <trkpt lat="47.8742" lon="-1.7758">
        <ele>71</ele>
        <time>2015-06-07T09:59:35Z</time>
      </trkpt>
      <trkpt lat="47.8742" lon="-1.77581">
        <ele>71</ele>
        <time>2015-06-07T09:59:36Z</time>
      </trkpt>
      <trkpt lat="47.87421" lon="-1.77582">
        <ele>71</ele>
        <time>2015-06-07T09:59:37Z</time>
      </trkpt>
      <trkpt lat="47.87421" lon="-1.77585">
        <ele>71</ele>
        <time>2015-06-07T09:59:38Z</time>
      </trkpt>
      <trkpt lat="47.87422" lon="-1.7759">
        <ele>71</ele>
        <time>2015-06-07T09:59:39Z</time>
      </trkpt>
      <trkpt lat="47.87424" lon="-1.77593">
        <ele>71</ele>
        <time>2015-06-07T09:59:40Z</time>
      </trkpt>
      <trkpt lat="47.87426" lon="-1.77594">
        <ele>70</ele>
        <time>2015-06-07T09:59:41Z</time>
      </trkpt>
      <trkpt lat="47.87429" lon="-1.77596">
        <ele>70</ele>
        <time>2015-06-07T09:59:42Z</time>
      </trkpt>
      <trkpt lat="47.87429" lon="-1.77599">
        <ele>70</ele>
        <time>2015-06-07T09:59:43Z</time>
      </trkpt>
      <trkpt lat="47.87431" lon="-1.77601">
        <ele>70</ele>
        <time>2015-06-07T09:59:44Z</time>
      </trkpt>
      <trkpt lat="47.87432" lon="-1.77602">
        <ele>69</ele>
        <time>2015-06-07T09:59:45Z</time>
      </trkpt>
      <trkpt lat="47.87432" lon="-1.77602">
        <ele>69</ele>
        <time>2015-06-07T09:59:46Z</time>
      </trkpt>
      <trkpt lat="47.87434" lon="-1.77603">
        <ele>69</ele>
        <time>2015-06-07T09:59:47Z</time>
      </trkpt>
      <trkpt lat="47.87436" lon="-1.776">
        <ele>69</ele>
        <time>2015-06-07T09:59:48Z</time>
      </trkpt>
      <trkpt lat="47.87438" lon="-1.77598">
        <ele>69</ele>
        <time>2015-06-07T09:59:49Z</time>
      </trkpt>
      <trkpt lat="47.87438" lon="-1.77598">
        <ele>69</ele>
        <time>2015-06-07T09:59:50Z</time>
      </trkpt>
      <trkpt lat="47.87439" lon="-1.77595">
        <ele>69</ele>
        <time>2015-06-07T09:59:51Z</time>
      </trkpt>
      <trkpt lat="47.8744" lon="-1.77592">
        <ele>69</ele>
        <time>2015-06-07T09:59:52Z</time>
      </trkpt>
      <trkpt lat="47.87441" lon="-1.7759">
        <ele>69</ele>
        <time>2015-06-07T09:59:53Z</time>
      </trkpt>
      <trkpt lat="47.87443" lon="-1.77587">
        <ele>69</ele>
        <time>2015-06-07T09:59:54Z</time>
      </trkpt>
      <trkpt lat="47.87445" lon="-1.77584">
        <ele>69</ele>
        <time>2015-06-07T09:59:55Z</time>
      </trkpt>
      <trkpt lat="47.87447" lon="-1.77582">
        <ele>69</ele>
        <time>2015-06-07T09:59:56Z</time>
      </trkpt>
      <trkpt lat="47.87449" lon="-1.7758">
        <ele>69</ele>
        <time>2015-06-07T09:59:57Z</time>
      </trkpt>
      <trkpt lat="47.87451" lon="-1.77577">
        <ele>69</ele>
        <time>2015-06-07T09:59:58Z</time>
      </trkpt>
      <trkpt lat="47.87453" lon="-1.77574">
        <ele>70</ele>
        <time>2015-06-07T09:59:59Z</time>
      </trkpt>
      <trkpt lat="47.87455" lon="-1.77571">
        <ele>69</ele>
        <time>2015-06-07T10:00:00Z</time>
      </trkpt>
      <trkpt lat="47.87457" lon="-1.77569">
        <ele>69</ele>
        <time>2015-06-07T10:00:01Z</time>
      </trkpt>
      <trkpt lat="47.8746" lon="-1.77568">
        <ele>69</ele>
        <time>2015-06-07T10:00:02Z</time>
      </trkpt>
      <trkpt lat="47.87465" lon="-1.77566">
        <ele>69</ele>
        <time>2015-06-07T10:00:03Z</time>
      </trkpt>
      <trkpt lat="47.87468" lon="-1.77565">
        <ele>69</ele>
        <time>2015-06-07T10:00:04Z</time>
      </trkpt>
      <trkpt lat="47.8747" lon="-1.77563">
        <ele>69</ele>
        <time>2015-06-07T10:00:05Z</time>
      </trkpt>
      <trkpt lat="47.87473" lon="-1.77562">
        <ele>69</ele>
        <time>2015-06-07T10:00:06Z</time>
      </trkpt>
      <trkpt lat="47.87476" lon="-1.77561">
        <ele>69</ele>
        <time>2015-06-07T10:00:07Z</time>
      </trkpt>
      <trkpt lat="47.87479" lon="-1.77561">
        <ele>69</ele>
        <time>2015-06-07T10:00:08Z</time>
      </trkpt>
      <trkpt lat="47.87481" lon="-1.7756">
        <ele>69</ele>
        <time>2015-06-07T10:00:09Z</time>
      </trkpt>
      <trkpt lat="47.87483" lon="-1.77558">
        <ele>69</ele>
        <time>2015-06-07T10:00:10Z</time>
      </trkpt>
      <trkpt lat="47.87483" lon="-1.77558">
        <ele>69</ele>
        <time>2015-06-07T10:00:11Z</time>
      </trkpt>
      <trkpt lat="47.87484" lon="-1.77555">
        <ele>70</ele>
        <time>2015-06-07T10:00:12Z</time>
      </trkpt>
      <trkpt lat="47.87485" lon="-1.77554">
        <ele>70</ele>
        <time>2015-06-07T10:00:13Z</time>
      </trkpt>
      <trkpt lat="47.87486" lon="-1.77552">
        <ele>70</ele>
        <time>2015-06-07T10:00:14Z</time>
      </trkpt>
      <trkpt lat="47.87486" lon="-1.7755">
        <ele>70</ele>
        <time>2015-06-07T10:00:15Z</time>
      </trkpt>
      <trkpt lat="47.87486" lon="-1.77548">
        <ele>70</ele>
        <time>2015-06-07T10:00:16Z</time>
      </trkpt>
      <trkpt lat="47.87486" lon="-1.77546">
        <ele>71</ele>
        <time>2015-06-07T10:00:17Z</time>
      </trkpt>
      <trkpt lat="47.87486" lon="-1.77544">
        <ele>71</ele>
        <time>2015-06-07T10:00:18Z</time>
      </trkpt>
      <trkpt lat="47.87486" lon="-1.77542">
        <ele>71</ele>
        <time>2015-06-07T10:00:19Z</time>
      </trkpt>
      <trkpt lat="47.87486" lon="-1.7754">
        <ele>71</ele>
        <time>2015-06-07T10:00:20Z</time>
      </trkpt>
      <trkpt lat="47.87486" lon="-1.77538">
        <ele>72</ele>
        <time>2015-06-07T10:00:21Z</time>
      </trkpt>
      <trkpt lat="47.87486" lon="-1.77536">
        <ele>72</ele>
        <time>2015-06-07T10:00:22Z</time>
      </trkpt>
      <trkpt lat="47.87486" lon="-1.77534">
        <ele>73</ele>
        <time>2015-06-07T10:00:23Z</time>
      </trkpt>
      <trkpt lat="47.87486" lon="-1.77532">
        <ele>73</ele>
        <time>2015-06-07T10:00:24Z</time>
      </trkpt>
      <trkpt lat="47.87486" lon="-1.7753">
        <ele>73</ele>
        <time>2015-06-07T10:00:25Z</time>
      </trkpt>
      <trkpt lat="47.87486" lon="-1.77528">
        <ele>74</ele>
        <time>2015-06-07T10:00:26Z</time>
      </trkpt>
      <trkpt lat="47.87486" lon="-1.77525">
        <ele>74</ele>
        <time>2015-06-07T10:00:27Z</time>
      </trkpt>
      <trkpt lat="47.87486" lon="-1.77524">
        <ele>75</ele>
        <time>2015-06-07T10:00:28Z</time>
      </trkpt>
      <trkpt lat="47.87486" lon="-1.77521">
        <ele>75</ele>
        <time>2015-06-07T10:00:29Z</time>
      </trkpt>
      <trkpt lat="47.87486" lon="-1.77519">
        <ele>76</ele>
        <time>2015-06-07T10:00:30Z</time>
      </trkpt>
      <trkpt lat="47.87487" lon="-1.77516">
        <ele>76</ele>
        <time>2015-06-07T10:00:31Z</time>
      </trkpt>
      <trkpt lat="47.87487" lon="-1.77514">
        <ele>77</ele>
        <time>2015-06-07T10:00:32Z</time>
      </trkpt>
      <trkpt lat="47.87487" lon="-1.77512">
        <ele>77</ele>
        <time>2015-06-07T10:00:33Z</time>
      </trkpt>
      <trkpt lat="47.87488" lon="-1.7751">
        <ele>78</ele>
        <time>2015-06-07T10:00:34Z</time>
      </trkpt>
      <trkpt lat="47.87488" lon="-1.77509">
        <ele>78</ele>
        <time>2015-06-07T10:00:35Z</time>
      </trkpt>
      <trkpt lat="47.87488" lon="-1.77506">
        <ele>79</ele>
        <time>2015-06-07T10:00:36Z</time>
      </trkpt>
      <trkpt lat="47.87488" lon="-1.77504">
        <ele>79</ele>
        <time>2015-06-07T10:00:37Z</time>
      </trkpt>
      <trkpt lat="47.87488" lon="-1.77502">
        <ele>79</ele>
        <time>2015-06-07T10:00:38Z</time>
      </trkpt>
      <trkpt lat="47.87488" lon="-1.77499">
        <ele>80</ele>
        <time>2015-06-07T10:00:39Z</time>
      </trkpt>
      <trkpt lat="47.87488" lon="-1.77496">
        <ele>80</ele>
        <time>2015-06-07T10:00:40Z</time>
      </trkpt>
      <trkpt lat="47.87488" lon="-1.77493">
        <ele>80</ele>
        <time>2015-06-07T10:00:41Z</time>
      </trkpt>
      <trkpt lat="47.87489" lon="-1.7749">
        <ele>81</ele>
        <time>2015-06-07T10:00:42Z</time>
      </trkpt>
      <trkpt lat="47.87489" lon="-1.77488">
        <ele>81</ele>
        <time>2015-06-07T10:00:43Z</time>
      </trkpt>
      <trkpt lat="47.87489" lon="-1.77485">
        <ele>81</ele>
        <time>2015-06-07T10:00:44Z</time>
      </trkpt>
      <trkpt lat="47.87489" lon="-1.77482">
        <ele>82</ele>
        <time>2015-06-07T10:00:45Z</time>
      </trkpt>
      <trkpt lat="47.8749" lon="-1.77479">
        <ele>82</ele>
        <time>2015-06-07T10:00:46Z</time>
      </trkpt>
      <trkpt lat="47.87491" lon="-1.77477">
        <ele>83</ele>
        <time>2015-06-07T10:00:47Z</time>
      </trkpt>
      <trkpt lat="47.87492" lon="-1.77475">
        <ele>83</ele>
        <time>2015-06-07T10:00:48Z</time>
      </trkpt>
      <trkpt lat="47.87494" lon="-1.77473">
        <ele>83</ele>
        <time>2015-06-07T10:00:49Z</time>
      </trkpt>
      <trkpt lat="47.87497" lon="-1.77469">
        <ele>84</ele>
        <time>2015-06-07T10:00:50Z</time>
      </trkpt>
      <trkpt lat="47.87497" lon="-1.77469">
        <ele>84</ele>
        <time>2015-06-07T10:00:51Z</time>
      </trkpt>
      <trkpt lat="47.87499" lon="-1.77467">
        <ele>84</ele>
        <time>2015-06-07T10:00:52Z</time>
      </trkpt>
      <trkpt lat="47.875" lon="-1.77464">
        <ele>84</ele>
        <time>2015-06-07T10:00:53Z</time>
      </trkpt>
      <trkpt lat="47.87502" lon="-1.77463">
        <ele>84</ele>
        <time>2015-06-07T10:00:54Z</time>
      </trkpt>
      <trkpt lat="47.87503" lon="-1.77461">
        <ele>84</ele>
        <time>2015-06-07T10:00:55Z</time>
      </trkpt>
      <trkpt lat="47.87505" lon="-1.77459">
        <ele>85</ele>
        <time>2015-06-07T10:00:56Z</time>
      </trkpt>
      <trkpt lat="47.87506" lon="-1.77458">
        <ele>85</ele>
        <time>2015-06-07T10:00:57Z</time>
      </trkpt>
      <trkpt lat="47.87507" lon="-1.77456">
        <ele>85</ele>
        <time>2015-06-07T10:00:58Z</time>
      </trkpt>
      <trkpt lat="47.87508" lon="-1.77455">
        <ele>85</ele>
        <time>2015-06-07T10:00:59Z</time>
      </trkpt>
      <trkpt lat="47.87509" lon="-1.77454">
        <ele>85</ele>
        <time>2015-06-07T10:01:00Z</time>
      </trkpt>
      <trkpt lat="47.87511" lon="-1.77453">
        <ele>85</ele>
        <time>2015-06-07T10:01:01Z</time>
      </trkpt>
      <trkpt lat="47.87512" lon="-1.77452">
        <ele>85</ele>
        <time>2015-06-07T10:01:02Z</time>
      </trkpt>
      <trkpt lat="47.87514" lon="-1.77451">
        <ele>85</ele>
        <time>2015-06-07T10:01:03Z</time>
      </trkpt>
      <trkpt lat="47.87515" lon="-1.7745">
        <ele>85</ele>
        <time>2015-06-07T10:01:04Z</time>
      </trkpt>
      <trkpt lat="47.87517" lon="-1.7745">
        <ele>85</ele>
        <time>2015-06-07T10:01:05Z</time>
      </trkpt>
      <trkpt lat="47.87519" lon="-1.77449">
        <ele>85</ele>
        <time>2015-06-07T10:01:06Z</time>
      </trkpt>
      <trkpt lat="47.87521" lon="-1.77448">
        <ele>85</ele>
        <time>2015-06-07T10:01:07Z</time>
      </trkpt>
      <trkpt lat="47.87522" lon="-1.77448">
        <ele>85</ele>
        <time>2015-06-07T10:01:08Z</time>
      </trkpt>
      <trkpt lat="47.87524" lon="-1.77448">
        <ele>85</ele>
        <time>2015-06-07T10:01:09Z</time>
      </trkpt>
      <trkpt lat="47.87526" lon="-1.77447">
        <ele>85</ele>
        <time>2015-06-07T10:01:10Z</time>
      </trkpt>
      <trkpt lat="47.87528" lon="-1.77446">
        <ele>85</ele>
        <time>2015-06-07T10:01:11Z</time>
      </trkpt>
      <trkpt lat="47.87529" lon="-1.77445">
        <ele>85</ele>
        <time>2015-06-07T10:01:12Z</time>
      </trkpt>
      <trkpt lat="47.87531" lon="-1.77444">
        <ele>86</ele>
        <time>2015-06-07T10:01:13Z</time>
      </trkpt>
      <trkpt lat="47.87532" lon="-1.77444">
        <ele>86</ele>
        <time>2015-06-07T10:01:14Z</time>
      </trkpt>
      <trkpt lat="47.87534" lon="-1.77444">
        <ele>86</ele>
        <time>2015-06-07T10:01:15Z</time>
      </trkpt>
      <trkpt lat="47.87535" lon="-1.77444">
        <ele>86</ele>
        <time>2015-06-07T10:01:16Z</time>
      </trkpt>
      <trkpt lat="47.87537" lon="-1.77446">
        <ele>86</ele>
        <time>2015-06-07T10:01:17Z</time>
      </trkpt>
      <trkpt lat="47.87538" lon="-1.77447">
        <ele>86</ele>
        <time>2015-06-07T10:01:18Z</time>
      </trkpt>
      <trkpt lat="47.8754" lon="-1.77448">
        <ele>86</ele>
        <time>2015-06-07T10:01:19Z</time>
      </trkpt>
      <trkpt lat="47.87541" lon="-1.77448">
        <ele>86</ele>
        <time>2015-06-07T10:01:20Z</time>
      </trkpt>
      <trkpt lat="47.87543" lon="-1.77449">
        <ele>86</ele>
        <time>2015-06-07T10:01:21Z</time>
      </trkpt>
      <trkpt lat="47.87544" lon="-1.7745">
        <ele>86</ele>
        <time>2015-06-07T10:01:22Z</time>
      </trkpt>
      <trkpt lat="47.87546" lon="-1.7745">
        <ele>86</ele>
        <time>2015-06-07T10:01:23Z</time>
      </trkpt>
      <trkpt lat="47.87548" lon="-1.77452">
        <ele>87</ele>
        <time>2015-06-07T10:01:24Z</time>
      </trkpt>
      <trkpt lat="47.8755" lon="-1.77454">
        <ele>87</ele>
        <time>2015-06-07T10:01:25Z</time>
      </trkpt>
      <trkpt lat="47.87552" lon="-1.77454">
        <ele>87</ele>
        <time>2015-06-07T10:01:26Z</time>
      </trkpt>
      <trkpt lat="47.87554" lon="-1.77455">
        <ele>87</ele>
        <time>2015-06-07T10:01:27Z</time>
      </trkpt>
      <trkpt lat="47.87556" lon="-1.77456">
        <ele>88</ele>
        <time>2015-06-07T10:01:28Z</time>
      </trkpt>
      <trkpt lat="47.87558" lon="-1.77457">
        <ele>88</ele>
        <time>2015-06-07T10:01:29Z</time>
      </trkpt>
      <trkpt lat="47.8756" lon="-1.77459">
        <ele>88</ele>
        <time>2015-06-07T10:01:30Z</time>
      </trkpt>
      <trkpt lat="47.87563" lon="-1.77462">
        <ele>88</ele>
        <time>2015-06-07T10:01:31Z</time>
      </trkpt>
      <trkpt lat="47.87565" lon="-1.77465">
        <ele>89</ele>
        <time>2015-06-07T10:01:32Z</time>
      </trkpt>
      <trkpt lat="47.87567" lon="-1.77468">
        <ele>89</ele>
        <time>2015-06-07T10:01:33Z</time>
      </trkpt>
      <trkpt lat="47.87569" lon="-1.7747">
        <ele>89</ele>
        <time>2015-06-07T10:01:34Z</time>
      </trkpt>
      <trkpt lat="47.87571" lon="-1.77472">
        <ele>89</ele>
        <time>2015-06-07T10:01:35Z</time>
      </trkpt>
      <trkpt lat="47.87574" lon="-1.77475">
        <ele>89</ele>
        <time>2015-06-07T10:01:36Z</time>
      </trkpt>
      <trkpt lat="47.87576" lon="-1.77478">
        <ele>89</ele>
        <time>2015-06-07T10:01:37Z</time>
      </trkpt>
      <trkpt lat="47.87578" lon="-1.7748">
        <ele>89</ele>
        <time>2015-06-07T10:01:38Z</time>
      </trkpt>
      <trkpt lat="47.87581" lon="-1.77483">
        <ele>90</ele>
        <time>2015-06-07T10:01:39Z</time>
      </trkpt>
      <trkpt lat="47.87584" lon="-1.77486">
        <ele>90</ele>
        <time>2015-06-07T10:01:40Z</time>
      </trkpt>
      <trkpt lat="47.87587" lon="-1.77488">
        <ele>90</ele>
        <time>2015-06-07T10:01:41Z</time>
      </trkpt>
      <trkpt lat="47.87591" lon="-1.77489">
        <ele>90</ele>
        <time>2015-06-07T10:01:42Z</time>
      </trkpt>
      <trkpt lat="47.87595" lon="-1.77491">
        <ele>90</ele>
        <time>2015-06-07T10:01:43Z</time>
      </trkpt>
      <trkpt lat="47.876" lon="-1.77491">
        <ele>90</ele>
        <time>2015-06-07T10:01:44Z</time>
      </trkpt>
      <trkpt lat="47.87604" lon="-1.7749">
        <ele>91</ele>
        <time>2015-06-07T10:01:45Z</time>
      </trkpt>
      <trkpt lat="47.87607" lon="-1.77488">
        <ele>91</ele>
        <time>2015-06-07T10:01:46Z</time>
      </trkpt>
      <trkpt lat="47.87612" lon="-1.77486">
        <ele>91</ele>
        <time>2015-06-07T10:01:47Z</time>
      </trkpt>
      <trkpt lat="47.87616" lon="-1.77484">
        <ele>91</ele>
        <time>2015-06-07T10:01:48Z</time>
      </trkpt>
      <trkpt lat="47.8762" lon="-1.77484">
        <ele>91</ele>
        <time>2015-06-07T10:01:49Z</time>
      </trkpt>
      <trkpt lat="47.87623" lon="-1.77486">
        <ele>91</ele>
        <time>2015-06-07T10:01:50Z</time>
      </trkpt>
      <trkpt lat="47.87626" lon="-1.77489">
        <ele>91</ele>
        <time>2015-06-07T10:01:51Z</time>
      </trkpt>
      <trkpt lat="47.87628" lon="-1.77493">
        <ele>91</ele>
        <time>2015-06-07T10:01:52Z</time>
      </trkpt>
      <trkpt lat="47.87629" lon="-1.77498">
        <ele>91</ele>
        <time>2015-06-07T10:01:53Z</time>
      </trkpt>
      <trkpt lat="47.87632" lon="-1.77503">
        <ele>91</ele>
        <time>2015-06-07T10:01:54Z</time>
      </trkpt>
      <trkpt lat="47.87635" lon="-1.77508">
        <ele>91</ele>
        <time>2015-06-07T10:01:55Z</time>
      </trkpt>
      <trkpt lat="47.87638" lon="-1.77513">
        <ele>91</ele>
        <time>2015-06-07T10:01:56Z</time>
      </trkpt>
      <trkpt lat="47.8764" lon="-1.77518">
        <ele>91</ele>
        <time>2015-06-07T10:01:57Z</time>
      </trkpt>
      <trkpt lat="47.87643" lon="-1.77523">
        <ele>90</ele>
        <time>2015-06-07T10:01:58Z</time>
      </trkpt>
      <trkpt lat="47.87644" lon="-1.77534">
        <ele>90</ele>
        <time>2015-06-07T10:01:59Z</time>
      </trkpt>
      <trkpt lat="47.87644" lon="-1.77534">
        <ele>90</ele>
        <time>2015-06-07T10:02:00Z</time>
      </trkpt>
      <trkpt lat="47.87644" lon="-1.77539">
        <ele>89</ele>
        <time>2015-06-07T10:02:01Z</time>
      </trkpt>
      <trkpt lat="47.87644" lon="-1.77544">
        <ele>89</ele>
        <time>2015-06-07T10:02:02Z</time>
      </trkpt>
      <trkpt lat="47.87644" lon="-1.7755">
        <ele>89</ele>
        <time>2015-06-07T10:02:03Z</time>
      </trkpt>
      <trkpt lat="47.87646" lon="-1.77554">
        <ele>88</ele>
        <time>2015-06-07T10:02:04Z</time>
      </trkpt>
      <trkpt lat="47.87649" lon="-1.77558">
        <ele>88</ele>
        <time>2015-06-07T10:02:05Z</time>
      </trkpt>
      <trkpt lat="47.87652" lon="-1.77563">
        <ele>87</ele>
        <time>2015-06-07T10:02:06Z</time>
      </trkpt>
      <trkpt lat="47.87655" lon="-1.77568">
        <ele>87</ele>
        <time>2015-06-07T10:02:07Z</time>
      </trkpt>
      <trkpt lat="47.87659" lon="-1.77572">
        <ele>86</ele>
        <time>2015-06-07T10:02:08Z</time>
      </trkpt>
      <trkpt lat="47.87662" lon="-1.77578">
        <ele>86</ele>
        <time>2015-06-07T10:02:09Z</time>
      </trkpt>
      <trkpt lat="47.87666" lon="-1.77584">
        <ele>85</ele>
        <time>2015-06-07T10:02:10Z</time>
      </trkpt>
      <trkpt lat="47.87673" lon="-1.77594">
        <ele>84</ele>
        <time>2015-06-07T10:02:11Z</time>
      </trkpt>
      <trkpt lat="47.87673" lon="-1.77594">
        <ele>84</ele>
        <time>2015-06-07T10:02:12Z</time>
      </trkpt>
      <trkpt lat="47.87681" lon="-1.77601">
        <ele>83</ele>
        <time>2015-06-07T10:02:13Z</time>
      </trkpt>
      <trkpt lat="47.87684" lon="-1.77606">
        <ele>83</ele>
        <time>2015-06-07T10:02:14Z</time>
      </trkpt>
      <trkpt lat="47.87688" lon="-1.7761">
        <ele>82</ele>
        <time>2015-06-07T10:02:15Z</time>
      </trkpt>
      <trkpt lat="47.87692" lon="-1.77613">
        <ele>81</ele>
        <time>2015-06-07T10:02:16Z</time>
      </trkpt>
      <trkpt lat="47.87692" lon="-1.77613">
        <ele>81</ele>
        <time>2015-06-07T10:02:17Z</time>
      </trkpt>
      <trkpt lat="47.87701" lon="-1.77615">
        <ele>80</ele>
        <time>2015-06-07T10:02:18Z</time>
      </trkpt>
      <trkpt lat="47.87701" lon="-1.77615">
        <ele>80</ele>
        <time>2015-06-07T10:02:19Z</time>
      </trkpt>
      <trkpt lat="47.87711" lon="-1.77616">
        <ele>79</ele>
        <time>2015-06-07T10:02:20Z</time>
      </trkpt>
      <trkpt lat="47.87715" lon="-1.77618">
        <ele>78</ele>
        <time>2015-06-07T10:02:21Z</time>
      </trkpt>
      <trkpt lat="47.87715" lon="-1.77618">
        <ele>78</ele>
        <time>2015-06-07T10:02:22Z</time>
      </trkpt>
      <trkpt lat="47.8772" lon="-1.77622">
        <ele>78</ele>
        <time>2015-06-07T10:02:23Z</time>
      </trkpt>
      <trkpt lat="47.87728" lon="-1.77629">
        <ele>77</ele>
        <time>2015-06-07T10:02:24Z</time>
      </trkpt>
      <trkpt lat="47.87732" lon="-1.77631">
        <ele>76</ele>
        <time>2015-06-07T10:02:25Z</time>
      </trkpt>
      <trkpt lat="47.87736" lon="-1.77631">
        <ele>76</ele>
        <time>2015-06-07T10:02:26Z</time>
      </trkpt>
      <trkpt lat="47.87741" lon="-1.7763">
        <ele>75</ele>
        <time>2015-06-07T10:02:27Z</time>
      </trkpt>
      <trkpt lat="47.87744" lon="-1.77629">
        <ele>75</ele>
        <time>2015-06-07T10:02:28Z</time>
      </trkpt>
      <trkpt lat="47.87744" lon="-1.77629">
        <ele>75</ele>
        <time>2015-06-07T10:02:29Z</time>
      </trkpt>
      <trkpt lat="47.87747" lon="-1.77631">
        <ele>74</ele>
        <time>2015-06-07T10:02:30Z</time>
      </trkpt>
      <trkpt lat="47.87748" lon="-1.77635">
        <ele>73</ele>
        <time>2015-06-07T10:02:31Z</time>
      </trkpt>
      <trkpt lat="47.87748" lon="-1.77635">
        <ele>73</ele>
        <time>2015-06-07T10:02:32Z</time>
      </trkpt>
      <trkpt lat="47.87747" lon="-1.77644">
        <ele>72</ele>
        <time>2015-06-07T10:02:33Z</time>
      </trkpt>
      <trkpt lat="47.87747" lon="-1.77648">
        <ele>71</ele>
        <time>2015-06-07T10:02:34Z</time>
      </trkpt>
      <trkpt lat="47.87747" lon="-1.77653">
        <ele>70</ele>
        <time>2015-06-07T10:02:35Z</time>
      </trkpt>
      <trkpt lat="47.87748" lon="-1.77657">
        <ele>69</ele>
        <time>2015-06-07T10:02:36Z</time>
      </trkpt>
      <trkpt lat="47.8775" lon="-1.77662">
        <ele>68</ele>
        <time>2015-06-07T10:02:37Z</time>
      </trkpt>
      <trkpt lat="47.8775" lon="-1.77662">
        <ele>68</ele>
        <time>2015-06-07T10:02:38Z</time>
      </trkpt>
      <trkpt lat="47.87757" lon="-1.77673">
        <ele>66</ele>
        <time>2015-06-07T10:02:39Z</time>
      </trkpt>
      <trkpt lat="47.87759" lon="-1.7768">
        <ele>65</ele>
        <time>2015-06-07T10:02:40Z</time>
      </trkpt>
      <trkpt lat="47.87761" lon="-1.77686">
        <ele>63</ele>
        <time>2015-06-07T10:02:41Z</time>
      </trkpt>
      <trkpt lat="47.87764" lon="-1.77693">
        <ele>61</ele>
        <time>2015-06-07T10:02:42Z</time>
      </trkpt>
      <trkpt lat="47.87766" lon="-1.77699">
        <ele>59</ele>
        <time>2015-06-07T10:02:43Z</time>
      </trkpt>
      <trkpt lat="47.87768" lon="-1.77704">
        <ele>58</ele>
        <time>2015-06-07T10:02:44Z</time>
      </trkpt>
      <trkpt lat="47.87771" lon="-1.77709">
        <ele>56</ele>
        <time>2015-06-07T10:02:45Z</time>
      </trkpt>
      <trkpt lat="47.87775" lon="-1.77713">
        <ele>54</ele>
        <time>2015-06-07T10:02:46Z</time>
      </trkpt>
      <trkpt lat="47.87779" lon="-1.77715">
        <ele>52</ele>
        <time>2015-06-07T10:02:47Z</time>
      </trkpt>
      <trkpt lat="47.87784" lon="-1.77715">
        <ele>51</ele>
        <time>2015-06-07T10:02:48Z</time>
      </trkpt>
      <trkpt lat="47.87789" lon="-1.77715">
        <ele>50</ele>
        <time>2015-06-07T10:02:49Z</time>
      </trkpt>
      <trkpt lat="47.87789" lon="-1.77715">
        <ele>50</ele>
        <time>2015-06-07T10:02:50Z</time>
      </trkpt>
      <trkpt lat="47.87798" lon="-1.77714">
        <ele>47</ele>
        <time>2015-06-07T10:02:51Z</time>
      </trkpt>
      <trkpt lat="47.87802" lon="-1.77713">
        <ele>46</ele>
        <time>2015-06-07T10:02:52Z</time>
      </trkpt>
      <trkpt lat="47.87802" lon="-1.77713">
        <ele>46</ele>
        <time>2015-06-07T10:02:53Z</time>
      </trkpt>
      <trkpt lat="47.87805" lon="-1.77713">
        <ele>45</ele>
        <time>2015-06-07T10:02:54Z</time>
      </trkpt>
      <trkpt lat="47.87812" lon="-1.77715">
        <ele>43</ele>
        <time>2015-06-07T10:02:55Z</time>
      </trkpt>
      <trkpt lat="47.87815" lon="-1.77713">
        <ele>42</ele>
        <time>2015-06-07T10:02:56Z</time>
      </trkpt>
      <trkpt lat="47.87815" lon="-1.77713">
        <ele>42</ele>
        <time>2015-06-07T10:02:57Z</time>
      </trkpt>
      <trkpt lat="47.87818" lon="-1.77711">
        <ele>41</ele>
        <time>2015-06-07T10:02:58Z</time>
      </trkpt>
      <trkpt lat="47.87821" lon="-1.77708">
        <ele>39</ele>
        <time>2015-06-07T10:02:59Z</time>
      </trkpt>
      <trkpt lat="47.87823" lon="-1.77709">
        <ele>39</ele>
        <time>2015-06-07T10:03:00Z</time>
      </trkpt>
      <trkpt lat="47.87823" lon="-1.77709">
        <ele>39</ele>
        <time>2015-06-07T10:03:01Z</time>
      </trkpt>
      <trkpt lat="47.87829" lon="-1.77712">
        <ele>38</ele>
        <time>2015-06-07T10:03:02Z</time>
      </trkpt>
      <trkpt lat="47.87831" lon="-1.77713">
        <ele>37</ele>
        <time>2015-06-07T10:03:03Z</time>
      </trkpt>
      <trkpt lat="47.87832" lon="-1.77713">
        <ele>37</ele>
        <time>2015-06-07T10:03:04Z</time>
      </trkpt>
      <trkpt lat="47.87832" lon="-1.77713">
        <ele>37</ele>
        <time>2015-06-07T10:03:05Z</time>
      </trkpt>
      <trkpt lat="47.87834" lon="-1.77711">
        <ele>36</ele>
        <time>2015-06-07T10:03:06Z</time>
      </trkpt>
      <trkpt lat="47.87834" lon="-1.77711">
        <ele>36</ele>
        <time>2015-06-07T10:03:07Z</time>
      </trkpt>
      <trkpt lat="47.87836" lon="-1.77706">
        <ele>35</ele>
        <time>2015-06-07T10:03:08Z</time>
      </trkpt>
      <trkpt lat="47.87836" lon="-1.77706">
        <ele>35</ele>
        <time>2015-06-07T10:03:09Z</time>
      </trkpt>
      <trkpt lat="47.87836" lon="-1.77704">
        <ele>35</ele>
        <time>2015-06-07T10:03:10Z</time>
      </trkpt>
      <trkpt lat="47.87837" lon="-1.77702">
        <ele>34</ele>
        <time>2015-06-07T10:03:11Z</time>
      </trkpt>
      <trkpt lat="47.87837" lon="-1.77699">
        <ele>34</ele>
        <time>2015-06-07T10:03:12Z</time>
      </trkpt>
      <trkpt lat="47.87838" lon="-1.77696">
        <ele>33</ele>
        <time>2015-06-07T10:03:13Z</time>
      </trkpt>
      <trkpt lat="47.87839" lon="-1.77692">
        <ele>33</ele>
        <time>2015-06-07T10:03:14Z</time>
      </trkpt>
      <trkpt lat="47.8784" lon="-1.77686">
        <ele>33</ele>
        <time>2015-06-07T10:03:15Z</time>
      </trkpt>
      <trkpt lat="47.87841" lon="-1.77682">
        <ele>32</ele>
        <time>2015-06-07T10:03:16Z</time>
      </trkpt>
      <trkpt lat="47.87841" lon="-1.77682">
        <ele>32</ele>
        <time>2015-06-07T10:03:17Z</time>
      </trkpt>
      <trkpt lat="47.87843" lon="-1.77675">
        <ele>32</ele>
        <time>2015-06-07T10:03:18Z</time>
      </trkpt>
      <trkpt lat="47.87843" lon="-1.77675">
        <ele>32</ele>
        <time>2015-06-07T10:03:19Z</time>
      </trkpt>
      <trkpt lat="47.87844" lon="-1.7767">
        <ele>32</ele>
        <time>2015-06-07T10:03:20Z</time>
      </trkpt>
      <trkpt lat="47.87846" lon="-1.77668">
        <ele>32</ele>
        <time>2015-06-07T10:03:21Z</time>
      </trkpt>
      <trkpt lat="47.8785" lon="-1.77666">
        <ele>32</ele>
        <time>2015-06-07T10:03:22Z</time>
      </trkpt>
      <trkpt lat="47.87853" lon="-1.77665">
        <ele>32</ele>
        <time>2015-06-07T10:03:23Z</time>
      </trkpt>
      <trkpt lat="47.87853" lon="-1.77665">
        <ele>32</ele>
        <time>2015-06-07T10:03:24Z</time>
      </trkpt>
      <trkpt lat="47.87855" lon="-1.77662">
        <ele>32</ele>
        <time>2015-06-07T10:03:25Z</time>
      </trkpt>
      <trkpt lat="47.87857" lon="-1.77659">
        <ele>32</ele>
        <time>2015-06-07T10:03:26Z</time>
      </trkpt>
      <trkpt lat="47.87859" lon="-1.77654">
        <ele>32</ele>
        <time>2015-06-07T10:03:27Z</time>
      </trkpt>
      <trkpt lat="47.8786" lon="-1.77651">
        <ele>32</ele>
        <time>2015-06-07T10:03:28Z</time>
      </trkpt>
      <trkpt lat="47.87861" lon="-1.77648">
        <ele>32</ele>
        <time>2015-06-07T10:03:29Z</time>
      </trkpt>
      <trkpt lat="47.87863" lon="-1.77646">
        <ele>32</ele>
        <time>2015-06-07T10:03:30Z</time>
      </trkpt>
      <trkpt lat="47.87864" lon="-1.77643">
        <ele>32</ele>
        <time>2015-06-07T10:03:31Z</time>
      </trkpt>
      <trkpt lat="47.87866" lon="-1.7764">
        <ele>32</ele>
        <time>2015-06-07T10:03:32Z</time>
      </trkpt>
      <trkpt lat="47.87867" lon="-1.77637">
        <ele>32</ele>
        <time>2015-06-07T10:03:33Z</time>
      </trkpt>
      <trkpt lat="47.87868" lon="-1.77635">
        <ele>32</ele>
        <time>2015-06-07T10:03:34Z</time>
      </trkpt>
      <trkpt lat="47.87869" lon="-1.77633">
        <ele>32</ele>
        <time>2015-06-07T10:03:35Z</time>
      </trkpt>
      <trkpt lat="47.8787" lon="-1.77631">
        <ele>32</ele>
        <time>2015-06-07T10:03:36Z</time>
      </trkpt>
      <trkpt lat="47.87871" lon="-1.77629">
        <ele>32</ele>
        <time>2015-06-07T10:03:37Z</time>
      </trkpt>
      <trkpt lat="47.87873" lon="-1.77626">
        <ele>32</ele>
        <time>2015-06-07T10:03:38Z</time>
      </trkpt>
      <trkpt lat="47.87873" lon="-1.77624">
        <ele>32</ele>
        <time>2015-06-07T10:03:39Z</time>
      </trkpt>
      <trkpt lat="47.87873" lon="-1.77624">
        <ele>32</ele>
        <time>2015-06-07T10:03:40Z</time>
      </trkpt>
      <trkpt lat="47.87874" lon="-1.77624">
        <ele>32</ele>
        <time>2015-06-07T10:03:41Z</time>
      </trkpt>
      <trkpt lat="47.87874" lon="-1.77623">
        <ele>32</ele>
        <time>2015-06-07T10:03:42Z</time>
      </trkpt>
      <trkpt lat="47.87875" lon="-1.77621">
        <ele>32</ele>
        <time>2015-06-07T10:03:43Z</time>
      </trkpt>
      <trkpt lat="47.87875" lon="-1.77619">
        <ele>32</ele>
        <time>2015-06-07T10:03:44Z</time>
      </trkpt>
      <trkpt lat="47.87875" lon="-1.77616">
        <ele>32</ele>
        <time>2015-06-07T10:03:45Z</time>
      </trkpt>
      <trkpt lat="47.87876" lon="-1.77614">
        <ele>32</ele>
        <time>2015-06-07T10:03:46Z</time>
      </trkpt>
      <trkpt lat="47.87877" lon="-1.77611">
        <ele>32</ele>
        <time>2015-06-07T10:03:47Z</time>
      </trkpt>
      <trkpt lat="47.87878" lon="-1.77609">
        <ele>32</ele>
        <time>2015-06-07T10:03:48Z</time>
      </trkpt>
      <trkpt lat="47.87879" lon="-1.77608">
        <ele>32</ele>
        <time>2015-06-07T10:03:49Z</time>
      </trkpt>
      <trkpt lat="47.87882" lon="-1.77606">
        <ele>32</ele>
        <time>2015-06-07T10:03:50Z</time>
      </trkpt>
      <trkpt lat="47.87883" lon="-1.77604">
        <ele>32</ele>
        <time>2015-06-07T10:03:51Z</time>
      </trkpt>
      <trkpt lat="47.87885" lon="-1.77601">
        <ele>32</ele>
        <time>2015-06-07T10:03:52Z</time>
      </trkpt>
      <trkpt lat="47.87888" lon="-1.77596">
        <ele>32</ele>
        <time>2015-06-07T10:03:53Z</time>
      </trkpt>
      <trkpt lat="47.87889" lon="-1.77594">
        <ele>32</ele>
        <time>2015-06-07T10:03:54Z</time>
      </trkpt>
      <trkpt lat="47.87889" lon="-1.77594">
        <ele>32</ele>
        <time>2015-06-07T10:03:55Z</time>
      </trkpt>
      <trkpt lat="47.8789" lon="-1.77592">
        <ele>32</ele>
        <time>2015-06-07T10:03:56Z</time>
      </trkpt>
      <trkpt lat="47.8789" lon="-1.77591">
        <ele>31</ele>
        <time>2015-06-07T10:03:57Z</time>
      </trkpt>
      <trkpt lat="47.87891" lon="-1.7759">
        <ele>31</ele>
        <time>2015-06-07T10:03:58Z</time>
      </trkpt>
      <trkpt lat="47.87891" lon="-1.77588">
        <ele>31</ele>
        <time>2015-06-07T10:03:59Z</time>
      </trkpt>
      <trkpt lat="47.87892" lon="-1.77587">
        <ele>31</ele>
        <time>2015-06-07T10:04:00Z</time>
      </trkpt>
      <trkpt lat="47.87894" lon="-1.77583">
        <ele>31</ele>
        <time>2015-06-07T10:04:01Z</time>
      </trkpt>
      <trkpt lat="47.87894" lon="-1.77583">
        <ele>31</ele>
        <time>2015-06-07T10:04:02Z</time>
      </trkpt>
      <trkpt lat="47.87895" lon="-1.77582">
        <ele>30</ele>
        <time>2015-06-07T10:04:03Z</time>
      </trkpt>
      <trkpt lat="47.87897" lon="-1.7758">
        <ele>30</ele>
        <time>2015-06-07T10:04:04Z</time>
      </trkpt>
      <trkpt lat="47.87899" lon="-1.77579">
        <ele>30</ele>
        <time>2015-06-07T10:04:05Z</time>
      </trkpt>
      <trkpt lat="47.87901" lon="-1.77574">
        <ele>30</ele>
        <time>2015-06-07T10:04:06Z</time>
      </trkpt>
      <trkpt lat="47.87901" lon="-1.77574">
        <ele>30</ele>
        <time>2015-06-07T10:04:07Z</time>
      </trkpt>
      <trkpt lat="47.87901" lon="-1.77572">
        <ele>30</ele>
        <time>2015-06-07T10:04:08Z</time>
      </trkpt>
      <trkpt lat="47.87902" lon="-1.7757">
        <ele>30</ele>
        <time>2015-06-07T10:04:09Z</time>
      </trkpt>
      <trkpt lat="47.87904" lon="-1.77568">
        <ele>30</ele>
        <time>2015-06-07T10:04:10Z</time>
      </trkpt>
      <trkpt lat="47.87905" lon="-1.77566">
        <ele>30</ele>
        <time>2015-06-07T10:04:11Z</time>
      </trkpt>
      <trkpt lat="47.87906" lon="-1.77563">
        <ele>30</ele>
        <time>2015-06-07T10:04:12Z</time>
      </trkpt>
      <trkpt lat="47.87907" lon="-1.7756">
        <ele>30</ele>
        <time>2015-06-07T10:04:13Z</time>
      </trkpt>
      <trkpt lat="47.87907" lon="-1.77558">
        <ele>30</ele>
        <time>2015-06-07T10:04:14Z</time>
      </trkpt>
      <trkpt lat="47.87908" lon="-1.77556">
        <ele>30</ele>
        <time>2015-06-07T10:04:15Z</time>
      </trkpt>
      <trkpt lat="47.87908" lon="-1.77554">
        <ele>30</ele>
        <time>2015-06-07T10:04:16Z</time>
      </trkpt>
      <trkpt lat="47.87909" lon="-1.77552">
        <ele>30</ele>
        <time>2015-06-07T10:04:17Z</time>
      </trkpt>
      <trkpt lat="47.87909" lon="-1.7755">
        <ele>30</ele>
        <time>2015-06-07T10:04:18Z</time>
      </trkpt>
      <trkpt lat="47.87909" lon="-1.77547">
        <ele>30</ele>
        <time>2015-06-07T10:04:19Z</time>
      </trkpt>
      <trkpt lat="47.8791" lon="-1.77545">
        <ele>30</ele>
        <time>2015-06-07T10:04:20Z</time>
      </trkpt>
      <trkpt lat="47.87911" lon="-1.77542">
        <ele>30</ele>
        <time>2015-06-07T10:04:21Z</time>
      </trkpt>
      <trkpt lat="47.87911" lon="-1.77539">
        <ele>30</ele>
        <time>2015-06-07T10:04:22Z</time>
      </trkpt>
      <trkpt lat="47.87911" lon="-1.77536">
        <ele>30</ele>
        <time>2015-06-07T10:04:23Z</time>
      </trkpt>
      <trkpt lat="47.87912" lon="-1.77534">
        <ele>30</ele>
        <time>2015-06-07T10:04:24Z</time>
      </trkpt>
      <trkpt lat="47.87912" lon="-1.77532">
        <ele>29</ele>
        <time>2015-06-07T10:04:25Z</time>
      </trkpt>
      <trkpt lat="47.87912" lon="-1.77529">
        <ele>29</ele>
        <time>2015-06-07T10:04:26Z</time>
      </trkpt>
      <trkpt lat="47.87913" lon="-1.77527">
        <ele>29</ele>
        <time>2015-06-07T10:04:27Z</time>
      </trkpt>
      <trkpt lat="47.87914" lon="-1.77525">
        <ele>29</ele>
        <time>2015-06-07T10:04:28Z</time>
      </trkpt>
      <trkpt lat="47.87914" lon="-1.77524">
        <ele>29</ele>
        <time>2015-06-07T10:04:29Z</time>
      </trkpt>
      <trkpt lat="47.87915" lon="-1.77517">
        <ele>29</ele>
        <time>2015-06-07T10:04:30Z</time>
      </trkpt>
      <trkpt lat="47.87915" lon="-1.77517">
        <ele>29</ele>
        <time>2015-06-07T10:04:31Z</time>
      </trkpt>
      <trkpt lat="47.87917" lon="-1.7751">
        <ele>28</ele>
        <time>2015-06-07T10:04:32Z</time>
      </trkpt>
      <trkpt lat="47.87918" lon="-1.77506">
        <ele>28</ele>
        <time>2015-06-07T10:04:33Z</time>
      </trkpt>
      <trkpt lat="47.87918" lon="-1.77506">
        <ele>28</ele>
        <time>2015-06-07T10:04:34Z</time>
      </trkpt>
      <trkpt lat="47.8792" lon="-1.77504">
        <ele>28</ele>
        <time>2015-06-07T10:04:35Z</time>
      </trkpt>
      <trkpt lat="47.87921" lon="-1.77501">
        <ele>28</ele>
        <time>2015-06-07T10:04:36Z</time>
      </trkpt>
      <trkpt lat="47.87924" lon="-1.77495">
        <ele>28</ele>
        <time>2015-06-07T10:04:37Z</time>
      </trkpt>
      <trkpt lat="47.87924" lon="-1.77495">
        <ele>28</ele>
        <time>2015-06-07T10:04:38Z</time>
      </trkpt>
      <trkpt lat="47.87925" lon="-1.77492">
        <ele>27</ele>
        <time>2015-06-07T10:04:39Z</time>
      </trkpt>
      <trkpt lat="47.87926" lon="-1.77489">
        <ele>27</ele>
        <time>2015-06-07T10:04:40Z</time>
      </trkpt>
      <trkpt lat="47.87926" lon="-1.77485">
        <ele>27</ele>
        <time>2015-06-07T10:04:41Z</time>
      </trkpt>
      <trkpt lat="47.87928" lon="-1.77479">
        <ele>27</ele>
        <time>2015-06-07T10:04:42Z</time>
      </trkpt>
      <trkpt lat="47.87928" lon="-1.77479">
        <ele>27</ele>
        <time>2015-06-07T10:04:43Z</time>
      </trkpt>
      <trkpt lat="47.8793" lon="-1.77475">
        <ele>27</ele>
        <time>2015-06-07T10:04:44Z</time>
      </trkpt>
      <trkpt lat="47.8793" lon="-1.77475">
        <ele>27</ele>
        <time>2015-06-07T10:04:45Z</time>
      </trkpt>
      <trkpt lat="47.87931" lon="-1.77472">
        <ele>27</ele>
        <time>2015-06-07T10:04:46Z</time>
      </trkpt>
      <trkpt lat="47.87931" lon="-1.77469">
        <ele>28</ele>
        <time>2015-06-07T10:04:47Z</time>
      </trkpt>
      <trkpt lat="47.87932" lon="-1.77467">
        <ele>28</ele>
        <time>2015-06-07T10:04:48Z</time>
      </trkpt>
      <trkpt lat="47.87933" lon="-1.77465">
        <ele>28</ele>
        <time>2015-06-07T10:04:49Z</time>
      </trkpt>
      <trkpt lat="47.87934" lon="-1.7746">
        <ele>28</ele>
        <time>2015-06-07T10:04:50Z</time>
      </trkpt>
      <trkpt lat="47.87934" lon="-1.7746">
        <ele>28</ele>
        <time>2015-06-07T10:04:51Z</time>
      </trkpt>
      <trkpt lat="47.87934" lon="-1.77458">
        <ele>28</ele>
        <time>2015-06-07T10:04:52Z</time>
      </trkpt>
      <trkpt lat="47.87933" lon="-1.77456">
        <ele>28</ele>
        <time>2015-06-07T10:04:53Z</time>
      </trkpt>
      <trkpt lat="47.87932" lon="-1.77455">
        <ele>29</ele>
        <time>2015-06-07T10:04:54Z</time>
      </trkpt>
      <trkpt lat="47.87932" lon="-1.77454">
        <ele>29</ele>
        <time>2015-06-07T10:04:55Z</time>
      </trkpt>
      <trkpt lat="47.87932" lon="-1.77453">
        <ele>29</ele>
        <time>2015-06-07T10:04:56Z</time>
      </trkpt>
      <trkpt lat="47.87932" lon="-1.77452">
        <ele>29</ele>
        <time>2015-06-07T10:04:57Z</time>
      </trkpt>
      <trkpt lat="47.87931" lon="-1.77452">
        <ele>30</ele>
        <time>2015-06-07T10:04:58Z</time>
      </trkpt>
      <trkpt lat="47.8793" lon="-1.7745">
        <ele>30</ele>
        <time>2015-06-07T10:04:59Z</time>
      </trkpt>
      <trkpt lat="47.87928" lon="-1.77448">
        <ele>31</ele>
        <time>2015-06-07T10:05:00Z</time>
      </trkpt>
      <trkpt lat="47.87928" lon="-1.77448">
        <ele>31</ele>
        <time>2015-06-07T10:05:01Z</time>
      </trkpt>
      <trkpt lat="47.87925" lon="-1.77444">
        <ele>31</ele>
        <time>2015-06-07T10:05:02Z</time>
      </trkpt>
      <trkpt lat="47.87924" lon="-1.77442">
        <ele>31</ele>
        <time>2015-06-07T10:05:03Z</time>
      </trkpt>
      <trkpt lat="47.87924" lon="-1.77442">
        <ele>31</ele>
        <time>2015-06-07T10:05:04Z</time>
      </trkpt>
      <trkpt lat="47.87922" lon="-1.7744">
        <ele>32</ele>
        <time>2015-06-07T10:05:05Z</time>
      </trkpt>
      <trkpt lat="47.87922" lon="-1.7744">
        <ele>32</ele>
        <time>2015-06-07T10:05:06Z</time>
      </trkpt>
      <trkpt lat="47.87921" lon="-1.77438">
        <ele>32</ele>
        <time>2015-06-07T10:05:07Z</time>
      </trkpt>
      <trkpt lat="47.87919" lon="-1.77437">
        <ele>32</ele>
        <time>2015-06-07T10:05:08Z</time>
      </trkpt>
      <trkpt lat="47.87916" lon="-1.77434">
        <ele>33</ele>
        <time>2015-06-07T10:05:09Z</time>
      </trkpt>
      <trkpt lat="47.87915" lon="-1.77434">
        <ele>33</ele>
        <time>2015-06-07T10:05:10Z</time>
      </trkpt>
      <trkpt lat="47.87915" lon="-1.77434">
        <ele>33</ele>
        <time>2015-06-07T10:05:11Z</time>
      </trkpt>
      <trkpt lat="47.87914" lon="-1.77433">
        <ele>33</ele>
        <time>2015-06-07T10:05:12Z</time>
      </trkpt>
      <trkpt lat="47.8791" lon="-1.77433">
        <ele>34</ele>
        <time>2015-06-07T10:05:13Z</time>
      </trkpt>
      <trkpt lat="47.8791" lon="-1.77433">
        <ele>34</ele>
        <time>2015-06-07T10:05:14Z</time>
      </trkpt>
      <trkpt lat="47.87909" lon="-1.77433">
        <ele>34</ele>
        <time>2015-06-07T10:05:15Z</time>
      </trkpt>
      <trkpt lat="47.87908" lon="-1.77433">
        <ele>34</ele>
        <time>2015-06-07T10:05:16Z</time>
      </trkpt>
      <trkpt lat="47.87906" lon="-1.77433">
        <ele>34</ele>
        <time>2015-06-07T10:05:17Z</time>
      </trkpt>
      <trkpt lat="47.87905" lon="-1.77434">
        <ele>34</ele>
        <time>2015-06-07T10:05:18Z</time>
      </trkpt>
      <trkpt lat="47.87903" lon="-1.77435">
        <ele>35</ele>
        <time>2015-06-07T10:05:19Z</time>
      </trkpt>
      <trkpt lat="47.87902" lon="-1.77435">
        <ele>35</ele>
        <time>2015-06-07T10:05:20Z</time>
      </trkpt>
      <trkpt lat="47.87902" lon="-1.77435">
        <ele>35</ele>
        <time>2015-06-07T10:05:21Z</time>
      </trkpt>
      <trkpt lat="47.879" lon="-1.77436">
        <ele>36</ele>
        <time>2015-06-07T10:05:22Z</time>
      </trkpt>
      <trkpt lat="47.87899" lon="-1.77436">
        <ele>36</ele>
        <time>2015-06-07T10:05:23Z</time>
      </trkpt>
      <trkpt lat="47.87898" lon="-1.77437">
        <ele>37</ele>
        <time>2015-06-07T10:05:24Z</time>
      </trkpt>
      <trkpt lat="47.87896" lon="-1.77438">
        <ele>37</ele>
        <time>2015-06-07T10:05:25Z</time>
      </trkpt>
      <trkpt lat="47.87895" lon="-1.77439">
        <ele>38</ele>
        <time>2015-06-07T10:05:26Z</time>
      </trkpt>
      <trkpt lat="47.87893" lon="-1.77439">
        <ele>38</ele>
        <time>2015-06-07T10:05:27Z</time>
      </trkpt>
      <trkpt lat="47.87892" lon="-1.7744">
        <ele>38</ele>
        <time>2015-06-07T10:05:28Z</time>
      </trkpt>
      <trkpt lat="47.8789" lon="-1.77441">
        <ele>39</ele>
        <time>2015-06-07T10:05:29Z</time>
      </trkpt>
      <trkpt lat="47.87889" lon="-1.7744">
        <ele>39</ele>
        <time>2015-06-07T10:05:30Z</time>
      </trkpt>
      <trkpt lat="47.87887" lon="-1.77441">
        <ele>39</ele>
        <time>2015-06-07T10:05:31Z</time>
      </trkpt>
      <trkpt lat="47.87885" lon="-1.77441">
        <ele>39</ele>
        <time>2015-06-07T10:05:32Z</time>
      </trkpt>
      <trkpt lat="47.87883" lon="-1.77441">
        <ele>39</ele>
        <time>2015-06-07T10:05:33Z</time>
      </trkpt>
      <trkpt lat="47.87882" lon="-1.7744">
        <ele>39</ele>
        <time>2015-06-07T10:05:34Z</time>
      </trkpt>
      <trkpt lat="47.87881" lon="-1.7744">
        <ele>39</ele>
        <time>2015-06-07T10:05:35Z</time>
      </trkpt>
      <trkpt lat="47.87879" lon="-1.7744">
        <ele>39</ele>
        <time>2015-06-07T10:05:36Z</time>
      </trkpt>
      <trkpt lat="47.87878" lon="-1.77442">
        <ele>39</ele>
        <time>2015-06-07T10:05:37Z</time>
      </trkpt>
      <trkpt lat="47.87876" lon="-1.77444">
        <ele>39</ele>
        <time>2015-06-07T10:05:38Z</time>
      </trkpt>
      <trkpt lat="47.87874" lon="-1.77447">
        <ele>39</ele>
        <time>2015-06-07T10:05:39Z</time>
      </trkpt>
      <trkpt lat="47.87872" lon="-1.7745">
        <ele>39</ele>
        <time>2015-06-07T10:05:40Z</time>
      </trkpt>
      <trkpt lat="47.87872" lon="-1.77453">
        <ele>39</ele>
        <time>2015-06-07T10:05:41Z</time>
      </trkpt>
      <trkpt lat="47.87869" lon="-1.77456">
        <ele>39</ele>
        <time>2015-06-07T10:05:42Z</time>
      </trkpt>
      <trkpt lat="47.87868" lon="-1.77459">
        <ele>40</ele>
        <time>2015-06-07T10:05:43Z</time>
      </trkpt>
      <trkpt lat="47.87866" lon="-1.77461">
        <ele>40</ele>
        <time>2015-06-07T10:05:44Z</time>
      </trkpt>
      <trkpt lat="47.87864" lon="-1.77463">
        <ele>40</ele>
        <time>2015-06-07T10:05:45Z</time>
      </trkpt>
      <trkpt lat="47.87862" lon="-1.77465">
        <ele>41</ele>
        <time>2015-06-07T10:05:46Z</time>
      </trkpt>
      <trkpt lat="47.8786" lon="-1.77467">
        <ele>41</ele>
        <time>2015-06-07T10:05:47Z</time>
      </trkpt>
      <trkpt lat="47.87859" lon="-1.77471">
        <ele>41</ele>
        <time>2015-06-07T10:05:48Z</time>
      </trkpt>
      <trkpt lat="47.87856" lon="-1.77482">
        <ele>42</ele>
        <time>2015-06-07T10:05:49Z</time>
      </trkpt>
      <trkpt lat="47.87856" lon="-1.77482">
        <ele>42</ele>
        <time>2015-06-07T10:05:50Z</time>
      </trkpt>
      <trkpt lat="47.87853" lon="-1.77488">
        <ele>42</ele>
        <time>2015-06-07T10:05:51Z</time>
      </trkpt>
      <trkpt lat="47.87851" lon="-1.77493">
        <ele>42</ele>
        <time>2015-06-07T10:05:52Z</time>
      </trkpt>
      <trkpt lat="47.87848" lon="-1.77497">
        <ele>43</ele>
        <time>2015-06-07T10:05:53Z</time>
      </trkpt>
      <trkpt lat="47.87846" lon="-1.77499">
        <ele>43</ele>
        <time>2015-06-07T10:05:54Z</time>
      </trkpt>
      <trkpt lat="47.87844" lon="-1.77501">
        <ele>43</ele>
        <time>2015-06-07T10:05:55Z</time>
      </trkpt>
      <trkpt lat="47.87843" lon="-1.77503">
        <ele>43</ele>
        <time>2015-06-07T10:05:56Z</time>
      </trkpt>
      <trkpt lat="47.8784" lon="-1.77506">
        <ele>44</ele>
        <time>2015-06-07T10:05:57Z</time>
      </trkpt>
      <trkpt lat="47.8784" lon="-1.77506">
        <ele>44</ele>
        <time>2015-06-07T10:05:58Z</time>
      </trkpt>
      <trkpt lat="47.87838" lon="-1.77508">
        <ele>44</ele>
        <time>2015-06-07T10:05:59Z</time>
      </trkpt>
      <trkpt lat="47.87836" lon="-1.7751">
        <ele>44</ele>
        <time>2015-06-07T10:06:00Z</time>
      </trkpt>
      <trkpt lat="47.87835" lon="-1.77512">
        <ele>44</ele>
        <time>2015-06-07T10:06:01Z</time>
      </trkpt>
      <trkpt lat="47.87833" lon="-1.77513">
        <ele>45</ele>
        <time>2015-06-07T10:06:02Z</time>
      </trkpt>
      <trkpt lat="47.87832" lon="-1.77514">
        <ele>45</ele>
        <time>2015-06-07T10:06:03Z</time>
      </trkpt>
      <trkpt lat="47.87831" lon="-1.77515">
        <ele>45</ele>
        <time>2015-06-07T10:06:04Z</time>
      </trkpt>
      <trkpt lat="47.87829" lon="-1.77516">
        <ele>45</ele>
        <time>2015-06-07T10:06:05Z</time>
      </trkpt>
      <trkpt lat="47.87828" lon="-1.77518">
        <ele>46</ele>
        <time>2015-06-07T10:06:06Z</time>
      </trkpt>
      <trkpt lat="47.87826" lon="-1.77519">
        <ele>46</ele>
        <time>2015-06-07T10:06:07Z</time>
      </trkpt>
      <trkpt lat="47.87824" lon="-1.77521">
        <ele>46</ele>
        <time>2015-06-07T10:06:08Z</time>
      </trkpt>
      <trkpt lat="47.87823" lon="-1.77524">
        <ele>47</ele>
        <time>2015-06-07T10:06:09Z</time>
      </trkpt>
      <trkpt lat="47.87821" lon="-1.77525">
        <ele>47</ele>
        <time>2015-06-07T10:06:10Z</time>
      </trkpt>
      <trkpt lat="47.87819" lon="-1.77528">
        <ele>48</ele>
        <time>2015-06-07T10:06:11Z</time>
      </trkpt>
      <trkpt lat="47.87818" lon="-1.77531">
        <ele>48</ele>
        <time>2015-06-07T10:06:12Z</time>
      </trkpt>
      <trkpt lat="47.87816" lon="-1.77533">
        <ele>48</ele>
        <time>2015-06-07T10:06:13Z</time>
      </trkpt>
      <trkpt lat="47.87815" lon="-1.77535">
        <ele>49</ele>
        <time>2015-06-07T10:06:14Z</time>
      </trkpt>
      <trkpt lat="47.87813" lon="-1.77536">
        <ele>49</ele>
        <time>2015-06-07T10:06:15Z</time>
      </trkpt>
      <trkpt lat="47.87812" lon="-1.77538">
        <ele>50</ele>
        <time>2015-06-07T10:06:16Z</time>
      </trkpt>
      <trkpt lat="47.8781" lon="-1.7754">
        <ele>50</ele>
        <time>2015-06-07T10:06:17Z</time>
      </trkpt>
      <trkpt lat="47.87809" lon="-1.77541">
        <ele>50</ele>
        <time>2015-06-07T10:06:18Z</time>
      </trkpt>
      <trkpt lat="47.87808" lon="-1.77543">
        <ele>51</ele>
        <time>2015-06-07T10:06:19Z</time>
      </trkpt>
      <trkpt lat="47.87806" lon="-1.77544">
        <ele>51</ele>
        <time>2015-06-07T10:06:20Z</time>
      </trkpt>
      <trkpt lat="47.87805" lon="-1.77545">
        <ele>52</ele>
        <time>2015-06-07T10:06:21Z</time>
      </trkpt>
      <trkpt lat="47.87804" lon="-1.77546">
        <ele>52</ele>
        <time>2015-06-07T10:06:22Z</time>
      </trkpt>
      <trkpt lat="47.87802" lon="-1.77547">
        <ele>53</ele>
        <time>2015-06-07T10:06:23Z</time>
      </trkpt>
      <trkpt lat="47.87801" lon="-1.77548">
        <ele>53</ele>
        <time>2015-06-07T10:06:24Z</time>
      </trkpt>
      <trkpt lat="47.87799" lon="-1.77548">
        <ele>54</ele>
        <time>2015-06-07T10:06:25Z</time>
      </trkpt>
      <trkpt lat="47.87798" lon="-1.77548">
        <ele>54</ele>
        <time>2015-06-07T10:06:26Z</time>
      </trkpt>
      <trkpt lat="47.87797" lon="-1.77548">
        <ele>55</ele>
        <time>2015-06-07T10:06:27Z</time>
      </trkpt>
      <trkpt lat="47.87796" lon="-1.77549">
        <ele>55</ele>
        <time>2015-06-07T10:06:28Z</time>
      </trkpt>
      <trkpt lat="47.87795" lon="-1.77548">
        <ele>55</ele>
        <time>2015-06-07T10:06:29Z</time>
      </trkpt>
      <trkpt lat="47.87793" lon="-1.77548">
        <ele>56</ele>
        <time>2015-06-07T10:06:30Z</time>
      </trkpt>
      <trkpt lat="47.87793" lon="-1.77549">
        <ele>56</ele>
        <time>2015-06-07T10:06:31Z</time>
      </trkpt>
      <trkpt lat="47.87791" lon="-1.7755">
        <ele>56</ele>
        <time>2015-06-07T10:06:32Z</time>
      </trkpt>
      <trkpt lat="47.87789" lon="-1.7755">
        <ele>56</ele>
        <time>2015-06-07T10:06:33Z</time>
      </trkpt>
      <trkpt lat="47.87787" lon="-1.7755">
        <ele>57</ele>
        <time>2015-06-07T10:06:34Z</time>
      </trkpt>
      <trkpt lat="47.87786" lon="-1.7755">
        <ele>57</ele>
        <time>2015-06-07T10:06:35Z</time>
      </trkpt>
      <trkpt lat="47.87784" lon="-1.77551">
        <ele>57</ele>
        <time>2015-06-07T10:06:36Z</time>
      </trkpt>
      <trkpt lat="47.87782" lon="-1.77551">
        <ele>57</ele>
        <time>2015-06-07T10:06:37Z</time>
      </trkpt>
      <trkpt lat="47.87781" lon="-1.77551">
        <ele>57</ele>
        <time>2015-06-07T10:06:38Z</time>
      </trkpt>
      <trkpt lat="47.8778" lon="-1.77552">
        <ele>57</ele>
        <time>2015-06-07T10:06:39Z</time>
      </trkpt>
      <trkpt lat="47.87778" lon="-1.77552">
        <ele>58</ele>
        <time>2015-06-07T10:06:40Z</time>
      </trkpt>
      <trkpt lat="47.87777" lon="-1.77551">
        <ele>58</ele>
        <time>2015-06-07T10:06:41Z</time>
      </trkpt>
      <trkpt lat="47.87776" lon="-1.77551">
        <ele>58</ele>
        <time>2015-06-07T10:06:42Z</time>
      </trkpt>
      <trkpt lat="47.87775" lon="-1.77551">
        <ele>58</ele>
        <time>2015-06-07T10:06:43Z</time>
      </trkpt>
      <trkpt lat="47.87774" lon="-1.77551">
        <ele>58</ele>
        <time>2015-06-07T10:06:44Z</time>
      </trkpt>
      <trkpt lat="47.87772" lon="-1.7755">
        <ele>59</ele>
        <time>2015-06-07T10:06:45Z</time>
      </trkpt>
      <trkpt lat="47.87771" lon="-1.77549">
        <ele>59</ele>
        <time>2015-06-07T10:06:46Z</time>
      </trkpt>
      <trkpt lat="47.8777" lon="-1.77548">
        <ele>59</ele>
        <time>2015-06-07T10:06:47Z</time>
      </trkpt>
      <trkpt lat="47.87768" lon="-1.77547">
        <ele>59</ele>
        <time>2015-06-07T10:06:48Z</time>
      </trkpt>
      <trkpt lat="47.87767" lon="-1.77546">
        <ele>60</ele>
        <time>2015-06-07T10:06:49Z</time>
      </trkpt>
      <trkpt lat="47.87766" lon="-1.77545">
        <ele>60</ele>
        <time>2015-06-07T10:06:50Z</time>
      </trkpt>
      <trkpt lat="47.87766" lon="-1.77545">
        <ele>60</ele>
        <time>2015-06-07T10:06:51Z</time>
      </trkpt>
      <trkpt lat="47.87765" lon="-1.77544">
        <ele>61</ele>
        <time>2015-06-07T10:06:52Z</time>
      </trkpt>
      <trkpt lat="47.87765" lon="-1.77544">
        <ele>61</ele>
        <time>2015-06-07T10:06:53Z</time>
      </trkpt>
      <trkpt lat="47.87764" lon="-1.77543">
        <ele>61</ele>
        <time>2015-06-07T10:06:54Z</time>
      </trkpt>
      <trkpt lat="47.87763" lon="-1.77542">
        <ele>62</ele>
        <time>2015-06-07T10:06:55Z</time>
      </trkpt>
      <trkpt lat="47.87762" lon="-1.77541">
        <ele>62</ele>
        <time>2015-06-07T10:06:56Z</time>
      </trkpt>
      <trkpt lat="47.87761" lon="-1.77539">
        <ele>62</ele>
        <time>2015-06-07T10:06:57Z</time>
      </trkpt>
      <trkpt lat="47.87761" lon="-1.77538">
        <ele>63</ele>
        <time>2015-06-07T10:06:58Z</time>
      </trkpt>
      <trkpt lat="47.8776" lon="-1.77536">
        <ele>63</ele>
        <time>2015-06-07T10:06:59Z</time>
      </trkpt>
      <trkpt lat="47.87759" lon="-1.77534">
        <ele>63</ele>
        <time>2015-06-07T10:07:00Z</time>
      </trkpt>
      <trkpt lat="47.87759" lon="-1.77532">
        <ele>64</ele>
        <time>2015-06-07T10:07:01Z</time>
      </trkpt>
      <trkpt lat="47.87759" lon="-1.7753">
        <ele>64</ele>
        <time>2015-06-07T10:07:02Z</time>
      </trkpt>
      <trkpt lat="47.87758" lon="-1.77528">
        <ele>64</ele>
        <time>2015-06-07T10:07:03Z</time>
      </trkpt>
      <trkpt lat="47.87757" lon="-1.77526">
        <ele>64</ele>
        <time>2015-06-07T10:07:04Z</time>
      </trkpt>
      <trkpt lat="47.87757" lon="-1.77524">
        <ele>64</ele>
        <time>2015-06-07T10:07:05Z</time>
      </trkpt>
      <trkpt lat="47.87756" lon="-1.77522">
        <ele>65</ele>
        <time>2015-06-07T10:07:06Z</time>
      </trkpt>
      <trkpt lat="47.87755" lon="-1.77519">
        <ele>65</ele>
        <time>2015-06-07T10:07:07Z</time>
      </trkpt>
      <trkpt lat="47.87754" lon="-1.77517">
        <ele>65</ele>
        <time>2015-06-07T10:07:08Z</time>
      </trkpt>
      <trkpt lat="47.87754" lon="-1.77515">
        <ele>65</ele>
        <time>2015-06-07T10:07:09Z</time>
      </trkpt>
      <trkpt lat="47.87754" lon="-1.77511">
        <ele>65</ele>
        <time>2015-06-07T10:07:10Z</time>
      </trkpt>
      <trkpt lat="47.87754" lon="-1.77509">
        <ele>66</ele>
        <time>2015-06-07T10:07:11Z</time>
      </trkpt>
      <trkpt lat="47.87754" lon="-1.77506">
        <ele>66</ele>
        <time>2015-06-07T10:07:12Z</time>
      </trkpt>
      <trkpt lat="47.87753" lon="-1.77504">
        <ele>66</ele>
        <time>2015-06-07T10:07:13Z</time>
      </trkpt>
      <trkpt lat="47.87752" lon="-1.77502">
        <ele>67</ele>
        <time>2015-06-07T10:07:14Z</time>
      </trkpt>
      <trkpt lat="47.87752" lon="-1.775">
        <ele>67</ele>
        <time>2015-06-07T10:07:15Z</time>
      </trkpt>
      <trkpt lat="47.87751" lon="-1.77498">
        <ele>67</ele>
        <time>2015-06-07T10:07:16Z</time>
      </trkpt>
      <trkpt lat="47.87751" lon="-1.77496">
        <ele>68</ele>
        <time>2015-06-07T10:07:17Z</time>
      </trkpt>
      <trkpt lat="47.8775" lon="-1.77495">
        <ele>68</ele>
        <time>2015-06-07T10:07:18Z</time>
      </trkpt>
      <trkpt lat="47.87749" lon="-1.77493">
        <ele>68</ele>
        <time>2015-06-07T10:07:19Z</time>
      </trkpt>
      <trkpt lat="47.87749" lon="-1.77492">
        <ele>69</ele>
        <time>2015-06-07T10:07:20Z</time>
      </trkpt>
      <trkpt lat="47.87748" lon="-1.77491">
        <ele>69</ele>
        <time>2015-06-07T10:07:21Z</time>
      </trkpt>
      <trkpt lat="47.87747" lon="-1.7749">
        <ele>70</ele>
        <time>2015-06-07T10:07:22Z</time>
      </trkpt>
      <trkpt lat="47.87745" lon="-1.77489">
        <ele>70</ele>
        <time>2015-06-07T10:07:23Z</time>
      </trkpt>
      <trkpt lat="47.87744" lon="-1.77487">
        <ele>70</ele>
        <time>2015-06-07T10:07:24Z</time>
      </trkpt>
      <trkpt lat="47.87742" lon="-1.77486">
        <ele>71</ele>
        <time>2015-06-07T10:07:25Z</time>
      </trkpt>
      <trkpt lat="47.87742" lon="-1.77484">
        <ele>71</ele>
        <time>2015-06-07T10:07:26Z</time>
      </trkpt>
      <trkpt lat="47.87741" lon="-1.77482">
        <ele>71</ele>
        <time>2015-06-07T10:07:27Z</time>
      </trkpt>
      <trkpt lat="47.87739" lon="-1.77481">
        <ele>71</ele>
        <time>2015-06-07T10:07:28Z</time>
      </trkpt>
      <trkpt lat="47.87738" lon="-1.77479">
        <ele>72</ele>
        <time>2015-06-07T10:07:29Z</time>
      </trkpt>
      <trkpt lat="47.87737" lon="-1.77478">
        <ele>72</ele>
        <time>2015-06-07T10:07:30Z</time>
      </trkpt>
      <trkpt lat="47.87735" lon="-1.77477">
        <ele>72</ele>
        <time>2015-06-07T10:07:31Z</time>
      </trkpt>
      <trkpt lat="47.87734" lon="-1.77476">
        <ele>72</ele>
        <time>2015-06-07T10:07:32Z</time>
      </trkpt>
      <trkpt lat="47.87733" lon="-1.77475">
        <ele>72</ele>
        <time>2015-06-07T10:07:33Z</time>
      </trkpt>
      <trkpt lat="47.87731" lon="-1.77474">
        <ele>73</ele>
        <time>2015-06-07T10:07:34Z</time>
      </trkpt>
      <trkpt lat="47.8773" lon="-1.77473">
        <ele>73</ele>
        <time>2015-06-07T10:07:35Z</time>
      </trkpt>
      <trkpt lat="47.87728" lon="-1.77472">
        <ele>73</ele>
        <time>2015-06-07T10:07:36Z</time>
      </trkpt>
      <trkpt lat="47.87727" lon="-1.7747">
        <ele>73</ele>
        <time>2015-06-07T10:07:37Z</time>
      </trkpt>
      <trkpt lat="47.87725" lon="-1.77469">
        <ele>73</ele>
        <time>2015-06-07T10:07:38Z</time>
      </trkpt>
      <trkpt lat="47.87724" lon="-1.77468">
        <ele>74</ele>
        <time>2015-06-07T10:07:39Z</time>
      </trkpt>
      <trkpt lat="47.87722" lon="-1.77466">
        <ele>74</ele>
        <time>2015-06-07T10:07:40Z</time>
      </trkpt>
      <trkpt lat="47.87721" lon="-1.77465">
        <ele>74</ele>
        <time>2015-06-07T10:07:41Z</time>
      </trkpt>
      <trkpt lat="47.8772" lon="-1.77464">
        <ele>74</ele>
        <time>2015-06-07T10:07:42Z</time>
      </trkpt>
      <trkpt lat="47.8772" lon="-1.77463">
        <ele>74</ele>
        <time>2015-06-07T10:07:43Z</time>
      </trkpt>
      <trkpt lat="47.8772" lon="-1.77461">
        <ele>74</ele>
        <time>2015-06-07T10:07:44Z</time>
      </trkpt>
      <trkpt lat="47.87719" lon="-1.77459">
        <ele>74</ele>
        <time>2015-06-07T10:07:45Z</time>
      </trkpt>
      <trkpt lat="47.87719" lon="-1.77458">
        <ele>75</ele>
        <time>2015-06-07T10:07:46Z</time>
      </trkpt>
      <trkpt lat="47.87719" lon="-1.77456">
        <ele>75</ele>
        <time>2015-06-07T10:07:47Z</time>
      </trkpt>
      <trkpt lat="47.87719" lon="-1.77454">
        <ele>75</ele>
        <time>2015-06-07T10:07:48Z</time>
      </trkpt>
      <trkpt lat="47.87718" lon="-1.77452">
        <ele>75</ele>
        <time>2015-06-07T10:07:49Z</time>
      </trkpt>
      <trkpt lat="47.87719" lon="-1.7745">
        <ele>76</ele>
        <time>2015-06-07T10:07:50Z</time>
      </trkpt>
      <trkpt lat="47.87719" lon="-1.77447">
        <ele>76</ele>
        <time>2015-06-07T10:07:51Z</time>
      </trkpt>
      <trkpt lat="47.87719" lon="-1.77444">
        <ele>76</ele>
        <time>2015-06-07T10:07:52Z</time>
      </trkpt>
      <trkpt lat="47.87719" lon="-1.77441">
        <ele>77</ele>
        <time>2015-06-07T10:07:53Z</time>
      </trkpt>
      <trkpt lat="47.8772" lon="-1.77438">
        <ele>77</ele>
        <time>2015-06-07T10:07:54Z</time>
      </trkpt>
      <trkpt lat="47.87721" lon="-1.77435">
        <ele>77</ele>
        <time>2015-06-07T10:07:55Z</time>
      </trkpt>
      <trkpt lat="47.87721" lon="-1.77431">
        <ele>77</ele>
        <time>2015-06-07T10:07:56Z</time>
      </trkpt>
      <trkpt lat="47.87721" lon="-1.77428">
        <ele>78</ele>
        <time>2015-06-07T10:07:57Z</time>
      </trkpt>
      <trkpt lat="47.87721" lon="-1.77426">
        <ele>78</ele>
        <time>2015-06-07T10:07:58Z</time>
      </trkpt>
      <trkpt lat="47.8772" lon="-1.77423">
        <ele>78</ele>
        <time>2015-06-07T10:07:59Z</time>
      </trkpt>
      <trkpt lat="47.87719" lon="-1.77421">
        <ele>78</ele>
        <time>2015-06-07T10:08:00Z</time>
      </trkpt>
      <trkpt lat="47.87719" lon="-1.7742">
        <ele>78</ele>
        <time>2015-06-07T10:08:01Z</time>
      </trkpt>
      <trkpt lat="47.87718" lon="-1.77418">
        <ele>79</ele>
        <time>2015-06-07T10:08:02Z</time>
      </trkpt>
      <trkpt lat="47.87717" lon="-1.77417">
        <ele>79</ele>
        <time>2015-06-07T10:08:03Z</time>
      </trkpt>
      <trkpt lat="47.87716" lon="-1.77417">
        <ele>79</ele>
        <time>2015-06-07T10:08:04Z</time>
      </trkpt>
      <trkpt lat="47.87715" lon="-1.77416">
        <ele>79</ele>
        <time>2015-06-07T10:08:05Z</time>
      </trkpt>
      <trkpt lat="47.87714" lon="-1.77415">
        <ele>80</ele>
        <time>2015-06-07T10:08:06Z</time>
      </trkpt>
      <trkpt lat="47.87713" lon="-1.77414">
        <ele>80</ele>
        <time>2015-06-07T10:08:07Z</time>
      </trkpt>
      <trkpt lat="47.87712" lon="-1.77414">
        <ele>80</ele>
        <time>2015-06-07T10:08:08Z</time>
      </trkpt>
      <trkpt lat="47.87711" lon="-1.77413">
        <ele>81</ele>
        <time>2015-06-07T10:08:09Z</time>
      </trkpt>
      <trkpt lat="47.8771" lon="-1.77412">
        <ele>81</ele>
        <time>2015-06-07T10:08:10Z</time>
      </trkpt>
      <trkpt lat="47.87709" lon="-1.77412">
        <ele>81</ele>
        <time>2015-06-07T10:08:11Z</time>
      </trkpt>
      <trkpt lat="47.87709" lon="-1.77411">
        <ele>82</ele>
        <time>2015-06-07T10:08:12Z</time>
      </trkpt>
      <trkpt lat="47.87708" lon="-1.7741">
        <ele>82</ele>
        <time>2015-06-07T10:08:13Z</time>
      </trkpt>
      <trkpt lat="47.87706" lon="-1.77408">
        <ele>82</ele>
        <time>2015-06-07T10:08:14Z</time>
      </trkpt>
      <trkpt lat="47.87705" lon="-1.77406">
        <ele>82</ele>
        <time>2015-06-07T10:08:15Z</time>
      </trkpt>
      <trkpt lat="47.87705" lon="-1.77404">
        <ele>83</ele>
        <time>2015-06-07T10:08:16Z</time>
      </trkpt>
      <trkpt lat="47.87705" lon="-1.77402">
        <ele>83</ele>
        <time>2015-06-07T10:08:17Z</time>
      </trkpt>
      <trkpt lat="47.87705" lon="-1.774">
        <ele>83</ele>
        <time>2015-06-07T10:08:18Z</time>
      </trkpt>
      <trkpt lat="47.87705" lon="-1.77397">
        <ele>83</ele>
        <time>2015-06-07T10:08:19Z</time>
      </trkpt>
      <trkpt lat="47.87705" lon="-1.77395">
        <ele>84</ele>
        <time>2015-06-07T10:08:20Z</time>
      </trkpt>
      <trkpt lat="47.87706" lon="-1.77392">
        <ele>84</ele>
        <time>2015-06-07T10:08:21Z</time>
      </trkpt>
      <trkpt lat="47.87706" lon="-1.77389">
        <ele>84</ele>
        <time>2015-06-07T10:08:22Z</time>
      </trkpt>
      <trkpt lat="47.87707" lon="-1.77385">
        <ele>84</ele>
        <time>2015-06-07T10:08:23Z</time>
      </trkpt>
      <trkpt lat="47.87707" lon="-1.77382">
        <ele>85</ele>
        <time>2015-06-07T10:08:24Z</time>
      </trkpt>
      <trkpt lat="47.87707" lon="-1.77378">
        <ele>85</ele>
        <time>2015-06-07T10:08:25Z</time>
      </trkpt>
      <trkpt lat="47.87707" lon="-1.77376">
        <ele>85</ele>
        <time>2015-06-07T10:08:26Z</time>
      </trkpt>
      <trkpt lat="47.87708" lon="-1.77373">
        <ele>85</ele>
        <time>2015-06-07T10:08:27Z</time>
      </trkpt>
      <trkpt lat="47.87708" lon="-1.7737">
        <ele>85</ele>
        <time>2015-06-07T10:08:28Z</time>
      </trkpt>
      <trkpt lat="47.87708" lon="-1.77368">
        <ele>85</ele>
        <time>2015-06-07T10:08:29Z</time>
      </trkpt>
      <trkpt lat="47.87707" lon="-1.77366">
        <ele>85</ele>
        <time>2015-06-07T10:08:30Z</time>
      </trkpt>
      <trkpt lat="47.87707" lon="-1.77364">
        <ele>85</ele>
        <time>2015-06-07T10:08:31Z</time>
      </trkpt>
      <trkpt lat="47.87706" lon="-1.77362">
        <ele>85</ele>
        <time>2015-06-07T10:08:32Z</time>
      </trkpt>
      <trkpt lat="47.87705" lon="-1.77361">
        <ele>86</ele>
        <time>2015-06-07T10:08:33Z</time>
      </trkpt>
      <trkpt lat="47.87703" lon="-1.7736">
        <ele>86</ele>
        <time>2015-06-07T10:08:34Z</time>
      </trkpt>
      <trkpt lat="47.87701" lon="-1.77359">
        <ele>86</ele>
        <time>2015-06-07T10:08:35Z</time>
      </trkpt>
      <trkpt lat="47.877" lon="-1.77359">
        <ele>87</ele>
        <time>2015-06-07T10:08:36Z</time>
      </trkpt>
      <trkpt lat="47.87698" lon="-1.77359">
        <ele>87</ele>
        <time>2015-06-07T10:08:37Z</time>
      </trkpt>
      <trkpt lat="47.87696" lon="-1.77359">
        <ele>87</ele>
        <time>2015-06-07T10:08:38Z</time>
      </trkpt>
      <trkpt lat="47.87695" lon="-1.77358">
        <ele>88</ele>
        <time>2015-06-07T10:08:39Z</time>
      </trkpt>
      <trkpt lat="47.87693" lon="-1.77358">
        <ele>88</ele>
        <time>2015-06-07T10:08:40Z</time>
      </trkpt>
      <trkpt lat="47.87692" lon="-1.77358">
        <ele>89</ele>
        <time>2015-06-07T10:08:41Z</time>
      </trkpt>
      <trkpt lat="47.87691" lon="-1.77357">
        <ele>89</ele>
        <time>2015-06-07T10:08:42Z</time>
      </trkpt>
      <trkpt lat="47.87689" lon="-1.77356">
        <ele>89</ele>
        <time>2015-06-07T10:08:43Z</time>
      </trkpt>
      <trkpt lat="47.87688" lon="-1.77355">
        <ele>90</ele>
        <time>2015-06-07T10:08:44Z</time>
      </trkpt>
      <trkpt lat="47.87686" lon="-1.77354">
        <ele>90</ele>
        <time>2015-06-07T10:08:45Z</time>
      </trkpt>
      <trkpt lat="47.87685" lon="-1.77352">
        <ele>90</ele>
        <time>2015-06-07T10:08:46Z</time>
      </trkpt>
      <trkpt lat="47.87684" lon="-1.77351">
        <ele>90</ele>
        <time>2015-06-07T10:08:47Z</time>
      </trkpt>
      <trkpt lat="47.87684" lon="-1.77349">
        <ele>91</ele>
        <time>2015-06-07T10:08:48Z</time>
      </trkpt>
      <trkpt lat="47.87684" lon="-1.77346">
        <ele>91</ele>
        <time>2015-06-07T10:08:49Z</time>
      </trkpt>
      <trkpt lat="47.87684" lon="-1.77343">
        <ele>91</ele>
        <time>2015-06-07T10:08:50Z</time>
      </trkpt>
      <trkpt lat="47.87683" lon="-1.77341">
        <ele>91</ele>
        <time>2015-06-07T10:08:51Z</time>
      </trkpt>
      <trkpt lat="47.87683" lon="-1.77338">
        <ele>92</ele>
        <time>2015-06-07T10:08:52Z</time>
      </trkpt>
      <trkpt lat="47.87683" lon="-1.77335">
        <ele>92</ele>
        <time>2015-06-07T10:08:53Z</time>
      </trkpt>
      <trkpt lat="47.87682" lon="-1.77333">
        <ele>92</ele>
        <time>2015-06-07T10:08:54Z</time>
      </trkpt>
      <trkpt lat="47.87682" lon="-1.7733">
        <ele>92</ele>
        <time>2015-06-07T10:08:55Z</time>
      </trkpt>
      <trkpt lat="47.87681" lon="-1.77328">
        <ele>93</ele>
        <time>2015-06-07T10:08:56Z</time>
      </trkpt>
      <trkpt lat="47.87681" lon="-1.77326">
        <ele>93</ele>
        <time>2015-06-07T10:08:57Z</time>
      </trkpt>
      <trkpt lat="47.87681" lon="-1.77323">
        <ele>93</ele>
        <time>2015-06-07T10:08:58Z</time>
      </trkpt>
      <trkpt lat="47.87681" lon="-1.77321">
        <ele>94</ele>
        <time>2015-06-07T10:08:59Z</time>
      </trkpt>
      <trkpt lat="47.8768" lon="-1.77318">
        <ele>94</ele>
        <time>2015-06-07T10:09:00Z</time>
      </trkpt>
      <trkpt lat="47.87681" lon="-1.77315">
        <ele>94</ele>
        <time>2015-06-07T10:09:01Z</time>
      </trkpt>
      <trkpt lat="47.87681" lon="-1.77311">
        <ele>94</ele>
        <time>2015-06-07T10:09:02Z</time>
      </trkpt>
      <trkpt lat="47.8768" lon="-1.77308">
        <ele>95</ele>
        <time>2015-06-07T10:09:03Z</time>
      </trkpt>
      <trkpt lat="47.8768" lon="-1.77305">
        <ele>95</ele>
        <time>2015-06-07T10:09:04Z</time>
      </trkpt>
      <trkpt lat="47.8768" lon="-1.77303">
        <ele>95</ele>
        <time>2015-06-07T10:09:05Z</time>
      </trkpt>
      <trkpt lat="47.8768" lon="-1.77301">
        <ele>96</ele>
        <time>2015-06-07T10:09:06Z</time>
      </trkpt>
      <trkpt lat="47.8768" lon="-1.77298">
        <ele>96</ele>
        <time>2015-06-07T10:09:07Z</time>
      </trkpt>
      <trkpt lat="47.8768" lon="-1.77295">
        <ele>96</ele>
        <time>2015-06-07T10:09:08Z</time>
      </trkpt>
      <trkpt lat="47.8768" lon="-1.77292">
        <ele>97</ele>
        <time>2015-06-07T10:09:09Z</time>
      </trkpt>
      <trkpt lat="47.8768" lon="-1.77288">
        <ele>97</ele>
        <time>2015-06-07T10:09:10Z</time>
      </trkpt>
      <trkpt lat="47.8768" lon="-1.77284">
        <ele>97</ele>
        <time>2015-06-07T10:09:11Z</time>
      </trkpt>
      <trkpt lat="47.8768" lon="-1.7728">
        <ele>97</ele>
        <time>2015-06-07T10:09:12Z</time>
      </trkpt>
      <trkpt lat="47.8768" lon="-1.77277">
        <ele>98</ele>
        <time>2015-06-07T10:09:13Z</time>
      </trkpt>
      <trkpt lat="47.87681" lon="-1.77274">
        <ele>98</ele>
        <time>2015-06-07T10:09:14Z</time>
      </trkpt>
      <trkpt lat="47.87681" lon="-1.7727">
        <ele>98</ele>
        <time>2015-06-07T10:09:15Z</time>
      </trkpt>
      <trkpt lat="47.87681" lon="-1.77266">
        <ele>98</ele>
        <time>2015-06-07T10:09:16Z</time>
      </trkpt>
      <trkpt lat="47.87681" lon="-1.77262">
        <ele>98</ele>
        <time>2015-06-07T10:09:17Z</time>
      </trkpt>
      <trkpt lat="47.87681" lon="-1.77258">
        <ele>98</ele>
        <time>2015-06-07T10:09:18Z</time>
      </trkpt>
      <trkpt lat="47.8768" lon="-1.77253">
        <ele>98</ele>
        <time>2015-06-07T10:09:19Z</time>
      </trkpt>
      <trkpt lat="47.87679" lon="-1.77249">
        <ele>99</ele>
        <time>2015-06-07T10:09:20Z</time>
      </trkpt>
      <trkpt lat="47.87679" lon="-1.77245">
        <ele>99</ele>
        <time>2015-06-07T10:09:21Z</time>
      </trkpt>
      <trkpt lat="47.87679" lon="-1.7724">
        <ele>99</ele>
        <time>2015-06-07T10:09:22Z</time>
      </trkpt>
      <trkpt lat="47.8768" lon="-1.77236">
        <ele>99</ele>
        <time>2015-06-07T10:09:23Z</time>
      </trkpt>
      <trkpt lat="47.87679" lon="-1.77231">
        <ele>99</ele>
        <time>2015-06-07T10:09:24Z</time>
      </trkpt>
      <trkpt lat="47.87679" lon="-1.77227">
        <ele>99</ele>
        <time>2015-06-07T10:09:25Z</time>
      </trkpt>
      <trkpt lat="47.87678" lon="-1.77223">
        <ele>99</ele>
        <time>2015-06-07T10:09:26Z</time>
      </trkpt>
      <trkpt lat="47.87677" lon="-1.77219">
        <ele>99</ele>
        <time>2015-06-07T10:09:27Z</time>
      </trkpt>
      <trkpt lat="47.87677" lon="-1.77213">
        <ele>99</ele>
        <time>2015-06-07T10:09:28Z</time>
      </trkpt>
      <trkpt lat="47.87676" lon="-1.77208">
        <ele>99</ele>
        <time>2015-06-07T10:09:29Z</time>
      </trkpt>
      <trkpt lat="47.87676" lon="-1.77204">
        <ele>99</ele>
        <time>2015-06-07T10:09:30Z</time>
      </trkpt>
      <trkpt lat="47.87677" lon="-1.77199">
        <ele>99</ele>
        <time>2015-06-07T10:09:31Z</time>
      </trkpt>
      <trkpt lat="47.87677" lon="-1.77194">
        <ele>100</ele>
        <time>2015-06-07T10:09:32Z</time>
      </trkpt>
      <trkpt lat="47.87678" lon="-1.77189">
        <ele>100</ele>
        <time>2015-06-07T10:09:33Z</time>
      </trkpt>
      <trkpt lat="47.87678" lon="-1.77184">
        <ele>100</ele>
        <time>2015-06-07T10:09:34Z</time>
      </trkpt>
      <trkpt lat="47.87679" lon="-1.7718">
        <ele>100</ele>
        <time>2015-06-07T10:09:35Z</time>
      </trkpt>
      <trkpt lat="47.87679" lon="-1.77175">
        <ele>100</ele>
        <time>2015-06-07T10:09:36Z</time>
      </trkpt>
      <trkpt lat="47.8768" lon="-1.77169">
        <ele>100</ele>
        <time>2015-06-07T10:09:37Z</time>
      </trkpt>
      <trkpt lat="47.8768" lon="-1.77164">
        <ele>100</ele>
        <time>2015-06-07T10:09:38Z</time>
      </trkpt>
      <trkpt lat="47.8768" lon="-1.77158">
        <ele>100</ele>
        <time>2015-06-07T10:09:39Z</time>
      </trkpt>
      <trkpt lat="47.87679" lon="-1.77152">
        <ele>100</ele>
        <time>2015-06-07T10:09:40Z</time>
      </trkpt>
      <trkpt lat="47.87679" lon="-1.77145">
        <ele>99</ele>
        <time>2015-06-07T10:09:41Z</time>
      </trkpt>
      <trkpt lat="47.87679" lon="-1.77139">
        <ele>99</ele>
        <time>2015-06-07T10:09:42Z</time>
      </trkpt>
      <trkpt lat="47.87679" lon="-1.77133">
        <ele>99</ele>
        <time>2015-06-07T10:09:43Z</time>
      </trkpt>
      <trkpt lat="47.87679" lon="-1.77127">
        <ele>99</ele>
        <time>2015-06-07T10:09:44Z</time>
      </trkpt>
      <trkpt lat="47.87679" lon="-1.77121">
        <ele>99</ele>
        <time>2015-06-07T10:09:45Z</time>
      </trkpt>
      <trkpt lat="47.87679" lon="-1.77114">
        <ele>99</ele>
        <time>2015-06-07T10:09:46Z</time>
      </trkpt>
      <trkpt lat="47.87678" lon="-1.77108">
        <ele>99</ele>
        <time>2015-06-07T10:09:47Z</time>
      </trkpt>
      <trkpt lat="47.87678" lon="-1.77102">
        <ele>99</ele>
        <time>2015-06-07T10:09:48Z</time>
      </trkpt>
      <trkpt lat="47.87678" lon="-1.77096">
        <ele>98</ele>
        <time>2015-06-07T10:09:49Z</time>
      </trkpt>
      <trkpt lat="47.87678" lon="-1.7709">
        <ele>98</ele>
        <time>2015-06-07T10:09:50Z</time>
      </trkpt>
      <trkpt lat="47.87677" lon="-1.77083">
        <ele>98</ele>
        <time>2015-06-07T10:09:51Z</time>
      </trkpt>
      <trkpt lat="47.87677" lon="-1.77077">
        <ele>98</ele>
        <time>2015-06-07T10:09:52Z</time>
      </trkpt>
      <trkpt lat="47.87677" lon="-1.77071">
        <ele>97</ele>
        <time>2015-06-07T10:09:53Z</time>
      </trkpt>
      <trkpt lat="47.87677" lon="-1.77065">
        <ele>97</ele>
        <time>2015-06-07T10:09:54Z</time>
      </trkpt>
      <trkpt lat="47.87677" lon="-1.77058">
        <ele>97</ele>
        <time>2015-06-07T10:09:55Z</time>
      </trkpt>
      <trkpt lat="47.87676" lon="-1.77052">
        <ele>97</ele>
        <time>2015-06-07T10:09:56Z</time>
      </trkpt>
      <trkpt lat="47.87677" lon="-1.77046">
        <ele>97</ele>
        <time>2015-06-07T10:09:57Z</time>
      </trkpt>
      <trkpt lat="47.87677" lon="-1.77039">
        <ele>97</ele>
        <time>2015-06-07T10:09:58Z</time>
      </trkpt>
      <trkpt lat="47.87677" lon="-1.77033">
        <ele>96</ele>
        <time>2015-06-07T10:09:59Z</time>
      </trkpt>
      <trkpt lat="47.87678" lon="-1.77026">
        <ele>96</ele>
        <time>2015-06-07T10:10:00Z</time>
      </trkpt>
      <trkpt lat="47.87679" lon="-1.7702">
        <ele>96</ele>
        <time>2015-06-07T10:10:01Z</time>
      </trkpt>
      <trkpt lat="47.87682" lon="-1.77015">
        <ele>96</ele>
        <time>2015-06-07T10:10:02Z</time>
      </trkpt>
      <trkpt lat="47.87685" lon="-1.7701">
        <ele>96</ele>
        <time>2015-06-07T10:10:03Z</time>
      </trkpt>
      <trkpt lat="47.87689" lon="-1.77006">
        <ele>96</ele>
        <time>2015-06-07T10:10:04Z</time>
      </trkpt>
      <trkpt lat="47.87692" lon="-1.77003">
        <ele>96</ele>
        <time>2015-06-07T10:10:05Z</time>
      </trkpt>
      <trkpt lat="47.87697" lon="-1.77">
        <ele>96</ele>
        <time>2015-06-07T10:10:06Z</time>
      </trkpt>
      <trkpt lat="47.87701" lon="-1.76996">
        <ele>95</ele>
        <time>2015-06-07T10:10:07Z</time>
      </trkpt>
      <trkpt lat="47.87705" lon="-1.76993">
        <ele>95</ele>
        <time>2015-06-07T10:10:08Z</time>
      </trkpt>
      <trkpt lat="47.8771" lon="-1.7699">
        <ele>95</ele>
        <time>2015-06-07T10:10:09Z</time>
      </trkpt>
      <trkpt lat="47.87715" lon="-1.76987">
        <ele>95</ele>
        <time>2015-06-07T10:10:10Z</time>
      </trkpt>
      <trkpt lat="47.87719" lon="-1.76985">
        <ele>94</ele>
        <time>2015-06-07T10:10:11Z</time>
      </trkpt>
      <trkpt lat="47.87724" lon="-1.76982">
        <ele>94</ele>
        <time>2015-06-07T10:10:12Z</time>
      </trkpt>
      <trkpt lat="47.87729" lon="-1.76979">
        <ele>94</ele>
        <time>2015-06-07T10:10:13Z</time>
      </trkpt>
      <trkpt lat="47.87735" lon="-1.76976">
        <ele>94</ele>
        <time>2015-06-07T10:10:14Z</time>
      </trkpt>
      <trkpt lat="47.8774" lon="-1.76974">
        <ele>93</ele>
        <time>2015-06-07T10:10:15Z</time>
      </trkpt>
      <trkpt lat="47.87745" lon="-1.76971">
        <ele>93</ele>
        <time>2015-06-07T10:10:16Z</time>
      </trkpt>
      <trkpt lat="47.87751" lon="-1.76968">
        <ele>93</ele>
        <time>2015-06-07T10:10:17Z</time>
      </trkpt>
      <trkpt lat="47.87756" lon="-1.76965">
        <ele>92</ele>
        <time>2015-06-07T10:10:18Z</time>
      </trkpt>
      <trkpt lat="47.87762" lon="-1.76962">
        <ele>92</ele>
        <time>2015-06-07T10:10:19Z</time>
      </trkpt>
      <trkpt lat="47.87768" lon="-1.76959">
        <ele>91</ele>
        <time>2015-06-07T10:10:20Z</time>
      </trkpt>
      <trkpt lat="47.87774" lon="-1.76956">
        <ele>91</ele>
        <time>2015-06-07T10:10:21Z</time>
      </trkpt>
      <trkpt lat="47.8778" lon="-1.76952">
        <ele>90</ele>
        <time>2015-06-07T10:10:22Z</time>
      </trkpt>
      <trkpt lat="47.87786" lon="-1.76948">
        <ele>90</ele>
        <time>2015-06-07T10:10:23Z</time>
      </trkpt>
      <trkpt lat="47.87792" lon="-1.76942">
        <ele>89</ele>
        <time>2015-06-07T10:10:24Z</time>
      </trkpt>
      <trkpt lat="47.87796" lon="-1.76935">
        <ele>89</ele>
        <time>2015-06-07T10:10:25Z</time>
      </trkpt>
      <trkpt lat="47.878" lon="-1.76927">
        <ele>89</ele>
        <time>2015-06-07T10:10:26Z</time>
      </trkpt>
      <trkpt lat="47.87802" lon="-1.76919">
        <ele>88</ele>
        <time>2015-06-07T10:10:27Z</time>
      </trkpt>
      <trkpt lat="47.87804" lon="-1.7691">
        <ele>88</ele>
        <time>2015-06-07T10:10:28Z</time>
      </trkpt>
      <trkpt lat="47.87806" lon="-1.76901">
        <ele>88</ele>
        <time>2015-06-07T10:10:29Z</time>
      </trkpt>
      <trkpt lat="47.87807" lon="-1.76893">
        <ele>88</ele>
        <time>2015-06-07T10:10:30Z</time>
      </trkpt>
      <trkpt lat="47.87808" lon="-1.76885">
        <ele>87</ele>
        <time>2015-06-07T10:10:31Z</time>
      </trkpt>
      <trkpt lat="47.87809" lon="-1.76876">
        <ele>87</ele>
        <time>2015-06-07T10:10:32Z</time>
      </trkpt>
      <trkpt lat="47.8781" lon="-1.76868">
        <ele>87</ele>
        <time>2015-06-07T10:10:33Z</time>
      </trkpt>
      <trkpt lat="47.87811" lon="-1.7686">
        <ele>87</ele>
        <time>2015-06-07T10:10:34Z</time>
      </trkpt>
      <trkpt lat="47.87811" lon="-1.76852">
        <ele>87</ele>
        <time>2015-06-07T10:10:35Z</time>
      </trkpt>
      <trkpt lat="47.87811" lon="-1.76844">
        <ele>87</ele>
        <time>2015-06-07T10:10:36Z</time>
      </trkpt>
      <trkpt lat="47.87812" lon="-1.76837">
        <ele>88</ele>
        <time>2015-06-07T10:10:37Z</time>
      </trkpt>
      <trkpt lat="47.87812" lon="-1.76831">
        <ele>88</ele>
        <time>2015-06-07T10:10:38Z</time>
      </trkpt>
      <trkpt lat="47.87813" lon="-1.76825">
        <ele>88</ele>
        <time>2015-06-07T10:10:39Z</time>
      </trkpt>
      <trkpt lat="47.87813" lon="-1.76818">
        <ele>88</ele>
        <time>2015-06-07T10:10:40Z</time>
      </trkpt>
      <trkpt lat="47.87814" lon="-1.76812">
        <ele>89</ele>
        <time>2015-06-07T10:10:41Z</time>
      </trkpt>
      <trkpt lat="47.87814" lon="-1.76806">
        <ele>89</ele>
        <time>2015-06-07T10:10:42Z</time>
      </trkpt>
      <trkpt lat="47.87815" lon="-1.768">
        <ele>89</ele>
        <time>2015-06-07T10:10:43Z</time>
      </trkpt>
      <trkpt lat="47.87816" lon="-1.76794">
        <ele>89</ele>
        <time>2015-06-07T10:10:44Z</time>
      </trkpt>
      <trkpt lat="47.87817" lon="-1.76788">
        <ele>90</ele>
        <time>2015-06-07T10:10:45Z</time>
      </trkpt>
      <trkpt lat="47.87818" lon="-1.76782">
        <ele>90</ele>
        <time>2015-06-07T10:10:46Z</time>
      </trkpt>
      <trkpt lat="47.87819" lon="-1.76777">
        <ele>90</ele>
        <time>2015-06-07T10:10:47Z</time>
      </trkpt>
      <trkpt lat="47.8782" lon="-1.76771">
        <ele>90</ele>
        <time>2015-06-07T10:10:48Z</time>
      </trkpt>
      <trkpt lat="47.87822" lon="-1.76765">
        <ele>91</ele>
        <time>2015-06-07T10:10:49Z</time>
      </trkpt>
      <trkpt lat="47.87823" lon="-1.7676">
        <ele>91</ele>
        <time>2015-06-07T10:10:50Z</time>
      </trkpt>
      <trkpt lat="47.87826" lon="-1.76755">
        <ele>91</ele>
        <time>2015-06-07T10:10:51Z</time>
      </trkpt>
      <trkpt lat="47.87828" lon="-1.76752">
        <ele>91</ele>
        <time>2015-06-07T10:10:52Z</time>
      </trkpt>
      <trkpt lat="47.87831" lon="-1.76749">
        <ele>91</ele>
        <time>2015-06-07T10:10:53Z</time>
      </trkpt>
      <trkpt lat="47.87834" lon="-1.76746">
        <ele>91</ele>
        <time>2015-06-07T10:10:54Z</time>
      </trkpt>
      <trkpt lat="47.87836" lon="-1.76743">
        <ele>91</ele>
        <time>2015-06-07T10:10:55Z</time>
      </trkpt>
      <trkpt lat="47.87838" lon="-1.76741">
        <ele>91</ele>
        <time>2015-06-07T10:10:56Z</time>
      </trkpt>
      <trkpt lat="47.8784" lon="-1.7674">
        <ele>91</ele>
        <time>2015-06-07T10:10:57Z</time>
      </trkpt>
      <trkpt lat="47.87842" lon="-1.76738">
        <ele>91</ele>
        <time>2015-06-07T10:10:58Z</time>
      </trkpt>
      <trkpt lat="47.87844" lon="-1.76737">
        <ele>92</ele>
        <time>2015-06-07T10:10:59Z</time>
      </trkpt>
      <trkpt lat="47.87845" lon="-1.76736">
        <ele>92</ele>
        <time>2015-06-07T10:11:00Z</time>
      </trkpt>
      <trkpt lat="47.87846" lon="-1.76734">
        <ele>92</ele>
        <time>2015-06-07T10:11:01Z</time>
      </trkpt>
      <trkpt lat="47.87848" lon="-1.76733">
        <ele>92</ele>
        <time>2015-06-07T10:11:02Z</time>
      </trkpt>
      <trkpt lat="47.87849" lon="-1.76731">
        <ele>92</ele>
        <time>2015-06-07T10:11:03Z</time>
      </trkpt>
      <trkpt lat="47.8785" lon="-1.7673">
        <ele>92</ele>
        <time>2015-06-07T10:11:04Z</time>
      </trkpt>
      <trkpt lat="47.87851" lon="-1.76727">
        <ele>92</ele>
        <time>2015-06-07T10:11:05Z</time>
      </trkpt>
      <trkpt lat="47.87852" lon="-1.76725">
        <ele>93</ele>
        <time>2015-06-07T10:11:06Z</time>
      </trkpt>
      <trkpt lat="47.87853" lon="-1.76723">
        <ele>93</ele>
        <time>2015-06-07T10:11:07Z</time>
      </trkpt>
      <trkpt lat="47.87855" lon="-1.76721">
        <ele>93</ele>
        <time>2015-06-07T10:11:08Z</time>
      </trkpt>
      <trkpt lat="47.87857" lon="-1.76721">
        <ele>93</ele>
        <time>2015-06-07T10:11:09Z</time>
      </trkpt>
      <trkpt lat="47.87858" lon="-1.76721">
        <ele>94</ele>
        <time>2015-06-07T10:11:10Z</time>
      </trkpt>
      <trkpt lat="47.8786" lon="-1.76721">
        <ele>94</ele>
        <time>2015-06-07T10:11:11Z</time>
      </trkpt>
      <trkpt lat="47.87862" lon="-1.76722">
        <ele>94</ele>
        <time>2015-06-07T10:11:12Z</time>
      </trkpt>
      <trkpt lat="47.87865" lon="-1.76724">
        <ele>94</ele>
        <time>2015-06-07T10:11:13Z</time>
      </trkpt>
      <trkpt lat="47.87868" lon="-1.76727">
        <ele>95</ele>
        <time>2015-06-07T10:11:14Z</time>
      </trkpt>
      <trkpt lat="47.87871" lon="-1.76731">
        <ele>95</ele>
        <time>2015-06-07T10:11:15Z</time>
      </trkpt>
      <trkpt lat="47.87874" lon="-1.76735">
        <ele>95</ele>
        <time>2015-06-07T10:11:16Z</time>
      </trkpt>
      <trkpt lat="47.87876" lon="-1.76738">
        <ele>95</ele>
        <time>2015-06-07T10:11:17Z</time>
      </trkpt>
      <trkpt lat="47.87879" lon="-1.7674">
        <ele>95</ele>
        <time>2015-06-07T10:11:18Z</time>
      </trkpt>
      <trkpt lat="47.87882" lon="-1.76742">
        <ele>96</ele>
        <time>2015-06-07T10:11:19Z</time>
      </trkpt>
      <trkpt lat="47.87884" lon="-1.76744">
        <ele>96</ele>
        <time>2015-06-07T10:11:20Z</time>
      </trkpt>
      <trkpt lat="47.87886" lon="-1.76745">
        <ele>96</ele>
        <time>2015-06-07T10:11:21Z</time>
      </trkpt>
      <trkpt lat="47.87889" lon="-1.76744">
        <ele>96</ele>
        <time>2015-06-07T10:11:22Z</time>
      </trkpt>
      <trkpt lat="47.87892" lon="-1.76744">
        <ele>97</ele>
        <time>2015-06-07T10:11:23Z</time>
      </trkpt>
      <trkpt lat="47.87896" lon="-1.76743">
        <ele>97</ele>
        <time>2015-06-07T10:11:24Z</time>
      </trkpt>
      <trkpt lat="47.879" lon="-1.76743">
        <ele>97</ele>
        <time>2015-06-07T10:11:25Z</time>
      </trkpt>
      <trkpt lat="47.87903" lon="-1.76742">
        <ele>97</ele>
        <time>2015-06-07T10:11:26Z</time>
      </trkpt>
      <trkpt lat="47.87907" lon="-1.76743">
        <ele>97</ele>
        <time>2015-06-07T10:11:27Z</time>
      </trkpt>
      <trkpt lat="47.87909" lon="-1.76745">
        <ele>98</ele>
        <time>2015-06-07T10:11:28Z</time>
      </trkpt>
      <trkpt lat="47.87911" lon="-1.76747">
        <ele>98</ele>
        <time>2015-06-07T10:11:29Z</time>
      </trkpt>
      <trkpt lat="47.87914" lon="-1.7675">
        <ele>98</ele>
        <time>2015-06-07T10:11:30Z</time>
      </trkpt>
      <trkpt lat="47.87915" lon="-1.76753">
        <ele>98</ele>
        <time>2015-06-07T10:11:31Z</time>
      </trkpt>
      <trkpt lat="47.87918" lon="-1.76754">
        <ele>98</ele>
        <time>2015-06-07T10:11:32Z</time>
      </trkpt>
      <trkpt lat="47.8792" lon="-1.76754">
        <ele>98</ele>
        <time>2015-06-07T10:11:33Z</time>
      </trkpt>
      <trkpt lat="47.87923" lon="-1.76755">
        <ele>98</ele>
        <time>2015-06-07T10:11:34Z</time>
      </trkpt>
      <trkpt lat="47.87926" lon="-1.76757">
        <ele>98</ele>
        <time>2015-06-07T10:11:35Z</time>
      </trkpt>
      <trkpt lat="47.87929" lon="-1.76759">
        <ele>98</ele>
        <time>2015-06-07T10:11:36Z</time>
      </trkpt>
      <trkpt lat="47.87932" lon="-1.7676">
        <ele>98</ele>
        <time>2015-06-07T10:11:37Z</time>
      </trkpt>
      <trkpt lat="47.87935" lon="-1.76762">
        <ele>98</ele>
        <time>2015-06-07T10:11:38Z</time>
      </trkpt>
      <trkpt lat="47.87939" lon="-1.76763">
        <ele>98</ele>
        <time>2015-06-07T10:11:39Z</time>
      </trkpt>
      <trkpt lat="47.87942" lon="-1.76763">
        <ele>98</ele>
        <time>2015-06-07T10:11:40Z</time>
      </trkpt>
      <trkpt lat="47.87945" lon="-1.76762">
        <ele>98</ele>
        <time>2015-06-07T10:11:41Z</time>
      </trkpt>
      <trkpt lat="47.87948" lon="-1.7676">
        <ele>98</ele>
        <time>2015-06-07T10:11:42Z</time>
      </trkpt>
      <trkpt lat="47.87951" lon="-1.76759">
        <ele>98</ele>
        <time>2015-06-07T10:11:43Z</time>
      </trkpt>
      <trkpt lat="47.87954" lon="-1.76759">
        <ele>98</ele>
        <time>2015-06-07T10:11:44Z</time>
      </trkpt>
      <trkpt lat="47.87957" lon="-1.76758">
        <ele>98</ele>
        <time>2015-06-07T10:11:45Z</time>
      </trkpt>
      <trkpt lat="47.87959" lon="-1.76756">
        <ele>98</ele>
        <time>2015-06-07T10:11:46Z</time>
      </trkpt>
      <trkpt lat="47.87961" lon="-1.76754">
        <ele>98</ele>
        <time>2015-06-07T10:11:47Z</time>
      </trkpt>
      <trkpt lat="47.87964" lon="-1.76751">
        <ele>98</ele>
        <time>2015-06-07T10:11:48Z</time>
      </trkpt>
      <trkpt lat="47.87966" lon="-1.76748">
        <ele>98</ele>
        <time>2015-06-07T10:11:49Z</time>
      </trkpt>
      <trkpt lat="47.87968" lon="-1.76744">
        <ele>98</ele>
        <time>2015-06-07T10:11:50Z</time>
      </trkpt>
      <trkpt lat="47.8797" lon="-1.76739">
        <ele>98</ele>
        <time>2015-06-07T10:11:51Z</time>
      </trkpt>
      <trkpt lat="47.87973" lon="-1.76736">
        <ele>98</ele>
        <time>2015-06-07T10:11:52Z</time>
      </trkpt>
      <trkpt lat="47.87976" lon="-1.76733">
        <ele>97</ele>
        <time>2015-06-07T10:11:53Z</time>
      </trkpt>
      <trkpt lat="47.87978" lon="-1.7673">
        <ele>97</ele>
        <time>2015-06-07T10:11:54Z</time>
      </trkpt>
      <trkpt lat="47.8798" lon="-1.76726">
        <ele>97</ele>
        <time>2015-06-07T10:11:55Z</time>
      </trkpt>
      <trkpt lat="47.87982" lon="-1.76721">
        <ele>97</ele>
        <time>2015-06-07T10:11:56Z</time>
      </trkpt>
      <trkpt lat="47.87984" lon="-1.76716">
        <ele>97</ele>
        <time>2015-06-07T10:11:57Z</time>
      </trkpt>
      <trkpt lat="47.87986" lon="-1.76712">
        <ele>96</ele>
        <time>2015-06-07T10:11:58Z</time>
      </trkpt>
      <trkpt lat="47.87988" lon="-1.7671">
        <ele>96</ele>
        <time>2015-06-07T10:11:59Z</time>
      </trkpt>
      <trkpt lat="47.87991" lon="-1.76706">
        <ele>96</ele>
        <time>2015-06-07T10:12:00Z</time>
      </trkpt>
      <trkpt lat="47.87992" lon="-1.76701">
        <ele>95</ele>
        <time>2015-06-07T10:12:01Z</time>
      </trkpt>
      <trkpt lat="47.87993" lon="-1.76696">
        <ele>95</ele>
        <time>2015-06-07T10:12:02Z</time>
      </trkpt>
      <trkpt lat="47.87994" lon="-1.76692">
        <ele>95</ele>
        <time>2015-06-07T10:12:03Z</time>
      </trkpt>
      <trkpt lat="47.87995" lon="-1.76688">
        <ele>94</ele>
        <time>2015-06-07T10:12:04Z</time>
      </trkpt>
      <trkpt lat="47.87996" lon="-1.76683">
        <ele>94</ele>
        <time>2015-06-07T10:12:05Z</time>
      </trkpt>
      <trkpt lat="47.87999" lon="-1.7668">
        <ele>94</ele>
        <time>2015-06-07T10:12:06Z</time>
      </trkpt>
      <trkpt lat="47.88003" lon="-1.76679">
        <ele>94</ele>
        <time>2015-06-07T10:12:07Z</time>
      </trkpt>
      <trkpt lat="47.88006" lon="-1.7668">
        <ele>94</ele>
        <time>2015-06-07T10:12:08Z</time>
      </trkpt>
      <trkpt lat="47.88009" lon="-1.76682">
        <ele>94</ele>
        <time>2015-06-07T10:12:09Z</time>
      </trkpt>
      <trkpt lat="47.88012" lon="-1.76685">
        <ele>94</ele>
        <time>2015-06-07T10:12:10Z</time>
      </trkpt>
      <trkpt lat="47.88015" lon="-1.76687">
        <ele>94</ele>
        <time>2015-06-07T10:12:11Z</time>
      </trkpt>
      <trkpt lat="47.88019" lon="-1.76688">
        <ele>94</ele>
        <time>2015-06-07T10:12:12Z</time>
      </trkpt>
      <trkpt lat="47.88023" lon="-1.76688">
        <ele>94</ele>
        <time>2015-06-07T10:12:13Z</time>
      </trkpt>
      <trkpt lat="47.88027" lon="-1.76689">
        <ele>94</ele>
        <time>2015-06-07T10:12:14Z</time>
      </trkpt>
      <trkpt lat="47.88032" lon="-1.76691">
        <ele>94</ele>
        <time>2015-06-07T10:12:15Z</time>
      </trkpt>
      <trkpt lat="47.88037" lon="-1.76692">
        <ele>94</ele>
        <time>2015-06-07T10:12:16Z</time>
      </trkpt>
      <trkpt lat="47.88043" lon="-1.76693">
        <ele>93</ele>
        <time>2015-06-07T10:12:17Z</time>
      </trkpt>
      <trkpt lat="47.88049" lon="-1.76692">
        <ele>93</ele>
        <time>2015-06-07T10:12:18Z</time>
      </trkpt>
      <trkpt lat="47.88054" lon="-1.76691">
        <ele>93</ele>
        <time>2015-06-07T10:12:19Z</time>
      </trkpt>
      <trkpt lat="47.8806" lon="-1.7669">
        <ele>93</ele>
        <time>2015-06-07T10:12:20Z</time>
      </trkpt>
      <trkpt lat="47.88063" lon="-1.76686">
        <ele>93</ele>
        <time>2015-06-07T10:12:21Z</time>
      </trkpt>
      <trkpt lat="47.88065" lon="-1.76681">
        <ele>93</ele>
        <time>2015-06-07T10:12:22Z</time>
      </trkpt>
      <trkpt lat="47.88067" lon="-1.76675">
        <ele>93</ele>
        <time>2015-06-07T10:12:23Z</time>
      </trkpt>
      <trkpt lat="47.8807" lon="-1.76671">
        <ele>93</ele>
        <time>2015-06-07T10:12:24Z</time>
      </trkpt>
      <trkpt lat="47.88073" lon="-1.76668">
        <ele>93</ele>
        <time>2015-06-07T10:12:25Z</time>
      </trkpt>
      <trkpt lat="47.88077" lon="-1.76665">
        <ele>93</ele>
        <time>2015-06-07T10:12:26Z</time>
      </trkpt>
      <trkpt lat="47.88081" lon="-1.76663">
        <ele>93</ele>
        <time>2015-06-07T10:12:27Z</time>
      </trkpt>
      <trkpt lat="47.88086" lon="-1.76662">
        <ele>92</ele>
        <time>2015-06-07T10:12:28Z</time>
      </trkpt>
      <trkpt lat="47.8809" lon="-1.76658">
        <ele>92</ele>
        <time>2015-06-07T10:12:29Z</time>
      </trkpt>
      <trkpt lat="47.88095" lon="-1.76655">
        <ele>92</ele>
        <time>2015-06-07T10:12:30Z</time>
      </trkpt>
      <trkpt lat="47.88098" lon="-1.76652">
        <ele>92</ele>
        <time>2015-06-07T10:12:31Z</time>
      </trkpt>
      <trkpt lat="47.881" lon="-1.76648">
        <ele>92</ele>
        <time>2015-06-07T10:12:32Z</time>
      </trkpt>
      <trkpt lat="47.88103" lon="-1.76646">
        <ele>92</ele>
        <time>2015-06-07T10:12:33Z</time>
      </trkpt>
      <trkpt lat="47.88105" lon="-1.76643">
        <ele>92</ele>
        <time>2015-06-07T10:12:34Z</time>
      </trkpt>
      <trkpt lat="47.88108" lon="-1.76638">
        <ele>92</ele>
        <time>2015-06-07T10:12:35Z</time>
      </trkpt>
      <trkpt lat="47.8811" lon="-1.76632">
        <ele>91</ele>
        <time>2015-06-07T10:12:36Z</time>
      </trkpt>
      <trkpt lat="47.88112" lon="-1.76628">
        <ele>91</ele>
        <time>2015-06-07T10:12:37Z</time>
      </trkpt>
      <trkpt lat="47.88114" lon="-1.76625">
        <ele>91</ele>
        <time>2015-06-07T10:12:38Z</time>
      </trkpt>
      <trkpt lat="47.88117" lon="-1.76623">
        <ele>91</ele>
        <time>2015-06-07T10:12:39Z</time>
      </trkpt>
      <trkpt lat="47.8812" lon="-1.76621">
        <ele>90</ele>
        <time>2015-06-07T10:12:40Z</time>
      </trkpt>
      <trkpt lat="47.88123" lon="-1.76616">
        <ele>90</ele>
        <time>2015-06-07T10:12:41Z</time>
      </trkpt>
      <trkpt lat="47.88126" lon="-1.7661">
        <ele>90</ele>
        <time>2015-06-07T10:12:42Z</time>
      </trkpt>
      <trkpt lat="47.88128" lon="-1.76604">
        <ele>90</ele>
        <time>2015-06-07T10:12:43Z</time>
      </trkpt>
      <trkpt lat="47.88128" lon="-1.76597">
        <ele>90</ele>
        <time>2015-06-07T10:12:44Z</time>
      </trkpt>
      <trkpt lat="47.8813" lon="-1.76592">
        <ele>90</ele>
        <time>2015-06-07T10:12:45Z</time>
      </trkpt>
      <trkpt lat="47.88133" lon="-1.76581">
        <ele>90</ele>
        <time>2015-06-07T10:12:46Z</time>
      </trkpt>
      <trkpt lat="47.88133" lon="-1.76581">
        <ele>90</ele>
        <time>2015-06-07T10:12:47Z</time>
      </trkpt>
      <trkpt lat="47.88133" lon="-1.76577">
        <ele>90</ele>
        <time>2015-06-07T10:12:48Z</time>
      </trkpt>
      <trkpt lat="47.88131" lon="-1.76575">
        <ele>90</ele>
        <time>2015-06-07T10:12:49Z</time>
      </trkpt>
      <trkpt lat="47.8813" lon="-1.76574">
        <ele>89</ele>
        <time>2015-06-07T10:12:50Z</time>
      </trkpt>
      <trkpt lat="47.88129" lon="-1.76573">
        <ele>89</ele>
        <time>2015-06-07T10:12:51Z</time>
      </trkpt>
      <trkpt lat="47.88128" lon="-1.76573">
        <ele>89</ele>
        <time>2015-06-07T10:12:52Z</time>
      </trkpt>
      <trkpt lat="47.88127" lon="-1.76572">
        <ele>89</ele>
        <time>2015-06-07T10:12:53Z</time>
      </trkpt>
      <trkpt lat="47.88126" lon="-1.76569">
        <ele>89</ele>
        <time>2015-06-07T10:12:54Z</time>
      </trkpt>
      <trkpt lat="47.88127" lon="-1.76565">
        <ele>89</ele>
        <time>2015-06-07T10:12:55Z</time>
      </trkpt>
      <trkpt lat="47.88128" lon="-1.76561">
        <ele>89</ele>
        <time>2015-06-07T10:12:56Z</time>
      </trkpt>
      <trkpt lat="47.88129" lon="-1.7656">
        <ele>89</ele>
        <time>2015-06-07T10:12:57Z</time>
      </trkpt>
      <trkpt lat="47.88131" lon="-1.7656">
        <ele>89</ele>
        <time>2015-06-07T10:12:58Z</time>
      </trkpt>
      <trkpt lat="47.88134" lon="-1.76561">
        <ele>89</ele>
        <time>2015-06-07T10:12:59Z</time>
      </trkpt>
      <trkpt lat="47.88137" lon="-1.76562">
        <ele>89</ele>
        <time>2015-06-07T10:13:00Z</time>
      </trkpt>
      <trkpt lat="47.88138" lon="-1.76564">
        <ele>89</ele>
        <time>2015-06-07T10:13:01Z</time>
      </trkpt>
      <trkpt lat="47.88138" lon="-1.76565">
        <ele>89</ele>
        <time>2015-06-07T10:13:02Z</time>
      </trkpt>
      <trkpt lat="47.88138" lon="-1.76566">
        <ele>89</ele>
        <time>2015-06-07T10:13:03Z</time>
      </trkpt>
      <trkpt lat="47.88137" lon="-1.76567">
        <ele>89</ele>
        <time>2015-06-07T10:13:04Z</time>
      </trkpt>
      <trkpt lat="47.88136" lon="-1.76569">
        <ele>89</ele>
        <time>2015-06-07T10:13:05Z</time>
      </trkpt>
      <trkpt lat="47.88136" lon="-1.76571">
        <ele>89</ele>
        <time>2015-06-07T10:13:06Z</time>
      </trkpt>
      <trkpt lat="47.88138" lon="-1.76573">
        <ele>89</ele>
        <time>2015-06-07T10:13:07Z</time>
      </trkpt>
      <trkpt lat="47.88139" lon="-1.76574">
        <ele>89</ele>
        <time>2015-06-07T10:13:08Z</time>
      </trkpt>
      <trkpt lat="47.88142" lon="-1.76573">
        <ele>89</ele>
        <time>2015-06-07T10:13:09Z</time>
      </trkpt>
      <trkpt lat="47.88144" lon="-1.76573">
        <ele>88</ele>
        <time>2015-06-07T10:13:10Z</time>
      </trkpt>
      <trkpt lat="47.88147" lon="-1.76571">
        <ele>89</ele>
        <time>2015-06-07T10:13:11Z</time>
      </trkpt>
      <trkpt lat="47.88149" lon="-1.76569">
        <ele>88</ele>
        <time>2015-06-07T10:13:12Z</time>
      </trkpt>
      <trkpt lat="47.88152" lon="-1.76566">
        <ele>88</ele>
        <time>2015-06-07T10:13:13Z</time>
      </trkpt>
      <trkpt lat="47.88155" lon="-1.76565">
        <ele>88</ele>
        <time>2015-06-07T10:13:14Z</time>
      </trkpt>
      <trkpt lat="47.88158" lon="-1.76567">
        <ele>88</ele>
        <time>2015-06-07T10:13:15Z</time>
      </trkpt>
      <trkpt lat="47.88161" lon="-1.76571">
        <ele>88</ele>
        <time>2015-06-07T10:13:16Z</time>
      </trkpt>
      <trkpt lat="47.88162" lon="-1.76576">
        <ele>88</ele>
        <time>2015-06-07T10:13:17Z</time>
      </trkpt>
      <trkpt lat="47.88164" lon="-1.76582">
        <ele>87</ele>
        <time>2015-06-07T10:13:18Z</time>
      </trkpt>
      <trkpt lat="47.88164" lon="-1.76588">
        <ele>87</ele>
        <time>2015-06-07T10:13:19Z</time>
      </trkpt>
      <trkpt lat="47.88164" lon="-1.76593">
        <ele>86</ele>
        <time>2015-06-07T10:13:20Z</time>
      </trkpt>
      <trkpt lat="47.88164" lon="-1.76599">
        <ele>86</ele>
        <time>2015-06-07T10:13:21Z</time>
      </trkpt>
      <trkpt lat="47.88164" lon="-1.76606">
        <ele>85</ele>
        <time>2015-06-07T10:13:22Z</time>
      </trkpt>
      <trkpt lat="47.88163" lon="-1.76612">
        <ele>85</ele>
        <time>2015-06-07T10:13:23Z</time>
      </trkpt>
      <trkpt lat="47.88163" lon="-1.76617">
        <ele>84</ele>
        <time>2015-06-07T10:13:24Z</time>
      </trkpt>
      <trkpt lat="47.88162" lon="-1.76622">
        <ele>84</ele>
        <time>2015-06-07T10:13:25Z</time>
      </trkpt>
      <trkpt lat="47.88162" lon="-1.76629">
        <ele>83</ele>
        <time>2015-06-07T10:13:26Z</time>
      </trkpt>
      <trkpt lat="47.88162" lon="-1.76635">
        <ele>82</ele>
        <time>2015-06-07T10:13:27Z</time>
      </trkpt>
      <trkpt lat="47.88162" lon="-1.76642">
        <ele>82</ele>
        <time>2015-06-07T10:13:28Z</time>
      </trkpt>
      <trkpt lat="47.88162" lon="-1.76648">
        <ele>81</ele>
        <time>2015-06-07T10:13:29Z</time>
      </trkpt>
      <trkpt lat="47.88161" lon="-1.76655">
        <ele>81</ele>
        <time>2015-06-07T10:13:30Z</time>
      </trkpt>
      <trkpt lat="47.88161" lon="-1.76662">
        <ele>80</ele>
        <time>2015-06-07T10:13:31Z</time>
      </trkpt>
      <trkpt lat="47.88161" lon="-1.76668">
        <ele>80</ele>
        <time>2015-06-07T10:13:32Z</time>
      </trkpt>
      <trkpt lat="47.8816" lon="-1.76675">
        <ele>79</ele>
        <time>2015-06-07T10:13:33Z</time>
      </trkpt>
      <trkpt lat="47.8816" lon="-1.76681">
        <ele>79</ele>
        <time>2015-06-07T10:13:34Z</time>
      </trkpt>
      <trkpt lat="47.88161" lon="-1.76687">
        <ele>78</ele>
        <time>2015-06-07T10:13:35Z</time>
      </trkpt>
      <trkpt lat="47.88165" lon="-1.76692">
        <ele>78</ele>
        <time>2015-06-07T10:13:36Z</time>
      </trkpt>
      <trkpt lat="47.88171" lon="-1.76697">
        <ele>78</ele>
        <time>2015-06-07T10:13:37Z</time>
      </trkpt>
      <trkpt lat="47.88177" lon="-1.76699">
        <ele>77</ele>
        <time>2015-06-07T10:13:38Z</time>
      </trkpt>
      <trkpt lat="47.88184" lon="-1.76703">
        <ele>77</ele>
        <time>2015-06-07T10:13:39Z</time>
      </trkpt>
      <trkpt lat="47.88192" lon="-1.76707">
        <ele>76</ele>
        <time>2015-06-07T10:13:40Z</time>
      </trkpt>
      <trkpt lat="47.88201" lon="-1.7671">
        <ele>76</ele>
        <time>2015-06-07T10:13:41Z</time>
      </trkpt>
      <trkpt lat="47.88211" lon="-1.76715">
        <ele>76</ele>
        <time>2015-06-07T10:13:42Z</time>
      </trkpt>
      <trkpt lat="47.88221" lon="-1.76718">
        <ele>75</ele>
        <time>2015-06-07T10:13:43Z</time>
      </trkpt>
      <trkpt lat="47.8823" lon="-1.76722">
        <ele>74</ele>
        <time>2015-06-07T10:13:44Z</time>
      </trkpt>
      <trkpt lat="47.8824" lon="-1.76726">
        <ele>73</ele>
        <time>2015-06-07T10:13:45Z</time>
      </trkpt>
      <trkpt lat="47.8825" lon="-1.7673">
        <ele>71</ele>
        <time>2015-06-07T10:13:46Z</time>
      </trkpt>
      <trkpt lat="47.8826" lon="-1.76734">
        <ele>70</ele>
        <time>2015-06-07T10:13:47Z</time>
      </trkpt>
      <trkpt lat="47.88271" lon="-1.76737">
        <ele>69</ele>
        <time>2015-06-07T10:13:48Z</time>
      </trkpt>
      <trkpt lat="47.88281" lon="-1.76741">
        <ele>67</ele>
        <time>2015-06-07T10:13:49Z</time>
      </trkpt>
      <trkpt lat="47.88292" lon="-1.76745">
        <ele>66</ele>
        <time>2015-06-07T10:13:50Z</time>
      </trkpt>
      <trkpt lat="47.88302" lon="-1.76748">
        <ele>65</ele>
        <time>2015-06-07T10:13:51Z</time>
      </trkpt>
      <trkpt lat="47.88312" lon="-1.76752">
        <ele>64</ele>
        <time>2015-06-07T10:13:52Z</time>
      </trkpt>
      <trkpt lat="47.88321" lon="-1.76756">
        <ele>64</ele>
        <time>2015-06-07T10:13:53Z</time>
      </trkpt>
      <trkpt lat="47.8833" lon="-1.76759">
        <ele>63</ele>
        <time>2015-06-07T10:13:54Z</time>
      </trkpt>
      <trkpt lat="47.88338" lon="-1.76761">
        <ele>62</ele>
        <time>2015-06-07T10:13:55Z</time>
      </trkpt>
      <trkpt lat="47.88345" lon="-1.76764">
        <ele>62</ele>
        <time>2015-06-07T10:13:56Z</time>
      </trkpt>
      <trkpt lat="47.88351" lon="-1.76766">
        <ele>62</ele>
        <time>2015-06-07T10:13:57Z</time>
      </trkpt>
      <trkpt lat="47.88357" lon="-1.76769">
        <ele>62</ele>
        <time>2015-06-07T10:13:58Z</time>
      </trkpt>
      <trkpt lat="47.88363" lon="-1.7677">
        <ele>62</ele>
        <time>2015-06-07T10:13:59Z</time>
      </trkpt>
      <trkpt lat="47.88368" lon="-1.76773">
        <ele>62</ele>
        <time>2015-06-07T10:14:00Z</time>
      </trkpt>
      <trkpt lat="47.88372" lon="-1.76776">
        <ele>62</ele>
        <time>2015-06-07T10:14:01Z</time>
      </trkpt>
      <trkpt lat="47.88376" lon="-1.76779">
        <ele>61</ele>
        <time>2015-06-07T10:14:02Z</time>
      </trkpt>
      <trkpt lat="47.88379" lon="-1.76782">
        <ele>61</ele>
        <time>2015-06-07T10:14:03Z</time>
      </trkpt>
      <trkpt lat="47.88382" lon="-1.76786">
        <ele>61</ele>
        <time>2015-06-07T10:14:04Z</time>
      </trkpt>
      <trkpt lat="47.88384" lon="-1.7679">
        <ele>61</ele>
        <time>2015-06-07T10:14:05Z</time>
      </trkpt>
      <trkpt lat="47.88384" lon="-1.76794">
        <ele>61</ele>
        <time>2015-06-07T10:14:06Z</time>
      </trkpt>
      <trkpt lat="47.88384" lon="-1.76799">
        <ele>61</ele>
        <time>2015-06-07T10:14:07Z</time>
      </trkpt>
      <trkpt lat="47.88383" lon="-1.76804">
        <ele>61</ele>
        <time>2015-06-07T10:14:08Z</time>
      </trkpt>
      <trkpt lat="47.88382" lon="-1.76809">
        <ele>62</ele>
        <time>2015-06-07T10:14:09Z</time>
      </trkpt>
      <trkpt lat="47.8838" lon="-1.76814">
        <ele>62</ele>
        <time>2015-06-07T10:14:10Z</time>
      </trkpt>
      <trkpt lat="47.88379" lon="-1.76819">
        <ele>61</ele>
        <time>2015-06-07T10:14:11Z</time>
      </trkpt>
      <trkpt lat="47.88379" lon="-1.76825">
        <ele>61</ele>
        <time>2015-06-07T10:14:12Z</time>
      </trkpt>
      <trkpt lat="47.88378" lon="-1.7683">
        <ele>61</ele>
        <time>2015-06-07T10:14:13Z</time>
      </trkpt>
      <trkpt lat="47.88379" lon="-1.76834">
        <ele>61</ele>
        <time>2015-06-07T10:14:14Z</time>
      </trkpt>
      <trkpt lat="47.88381" lon="-1.76835">
        <ele>62</ele>
        <time>2015-06-07T10:14:15Z</time>
      </trkpt>
      <trkpt lat="47.88383" lon="-1.76834">
        <ele>62</ele>
        <time>2015-06-07T10:14:16Z</time>
      </trkpt>
      <trkpt lat="47.88384" lon="-1.76831">
        <ele>62</ele>
        <time>2015-06-07T10:14:17Z</time>
      </trkpt>
      <trkpt lat="47.88386" lon="-1.76827">
        <ele>62</ele>
        <time>2015-06-07T10:14:18Z</time>
      </trkpt>
      <trkpt lat="47.88387" lon="-1.76822">
        <ele>62</ele>
        <time>2015-06-07T10:14:19Z</time>
      </trkpt>
      <trkpt lat="47.88388" lon="-1.76817">
        <ele>63</ele>
        <time>2015-06-07T10:14:20Z</time>
      </trkpt>
      <trkpt lat="47.88389" lon="-1.76812">
        <ele>63</ele>
        <time>2015-06-07T10:14:21Z</time>
      </trkpt>
      <trkpt lat="47.8839" lon="-1.76807">
        <ele>63</ele>
        <time>2015-06-07T10:14:22Z</time>
      </trkpt>
      <trkpt lat="47.88391" lon="-1.76802">
        <ele>63</ele>
        <time>2015-06-07T10:14:23Z</time>
      </trkpt>
      <trkpt lat="47.88392" lon="-1.76797">
        <ele>63</ele>
        <time>2015-06-07T10:14:24Z</time>
      </trkpt>
      <trkpt lat="47.88394" lon="-1.76793">
        <ele>63</ele>
        <time>2015-06-07T10:14:25Z</time>
      </trkpt>
      <trkpt lat="47.88395" lon="-1.76788">
        <ele>64</ele>
        <time>2015-06-07T10:14:26Z</time>
      </trkpt>
      <trkpt lat="47.88396" lon="-1.76784">
        <ele>64</ele>
        <time>2015-06-07T10:14:27Z</time>
      </trkpt>
      <trkpt lat="47.88397" lon="-1.7678">
        <ele>64</ele>
        <time>2015-06-07T10:14:28Z</time>
      </trkpt>
      <trkpt lat="47.88398" lon="-1.76777">
        <ele>64</ele>
        <time>2015-06-07T10:14:29Z</time>
      </trkpt>
      <trkpt lat="47.884" lon="-1.76774">
        <ele>64</ele>
        <time>2015-06-07T10:14:30Z</time>
      </trkpt>
      <trkpt lat="47.88401" lon="-1.76773">
        <ele>64</ele>
        <time>2015-06-07T10:14:31Z</time>
      </trkpt>
      <trkpt lat="47.88403" lon="-1.76773">
        <ele>64</ele>
        <time>2015-06-07T10:14:32Z</time>
      </trkpt>
      <trkpt lat="47.88406" lon="-1.76773">
        <ele>64</ele>
        <time>2015-06-07T10:14:33Z</time>
      </trkpt>
      <trkpt lat="47.88409" lon="-1.76772">
        <ele>64</ele>
        <time>2015-06-07T10:14:34Z</time>
      </trkpt>
      <trkpt lat="47.88411" lon="-1.76771">
        <ele>64</ele>
        <time>2015-06-07T10:14:35Z</time>
      </trkpt>
      <trkpt lat="47.88413" lon="-1.7677">
        <ele>65</ele>
        <time>2015-06-07T10:14:36Z</time>
      </trkpt>
      <trkpt lat="47.88415" lon="-1.76769">
        <ele>65</ele>
        <time>2015-06-07T10:14:37Z</time>
      </trkpt>
      <trkpt lat="47.88417" lon="-1.76768">
        <ele>65</ele>
        <time>2015-06-07T10:14:38Z</time>
      </trkpt>
      <trkpt lat="47.88419" lon="-1.76767">
        <ele>65</ele>
        <time>2015-06-07T10:14:39Z</time>
      </trkpt>
      <trkpt lat="47.88422" lon="-1.76766">
        <ele>65</ele>
        <time>2015-06-07T10:14:40Z</time>
      </trkpt>
      <trkpt lat="47.88424" lon="-1.76766">
        <ele>65</ele>
        <time>2015-06-07T10:14:41Z</time>
      </trkpt>
      <trkpt lat="47.88427" lon="-1.76765">
        <ele>65</ele>
        <time>2015-06-07T10:14:42Z</time>
      </trkpt>
      <trkpt lat="47.88429" lon="-1.76764">
        <ele>66</ele>
        <time>2015-06-07T10:14:43Z</time>
      </trkpt>
      <trkpt lat="47.88432" lon="-1.76764">
        <ele>66</ele>
        <time>2015-06-07T10:14:44Z</time>
      </trkpt>
      <trkpt lat="47.88434" lon="-1.76764">
        <ele>66</ele>
        <time>2015-06-07T10:14:45Z</time>
      </trkpt>
      <trkpt lat="47.88437" lon="-1.76764">
        <ele>66</ele>
        <time>2015-06-07T10:14:46Z</time>
      </trkpt>
      <trkpt lat="47.88439" lon="-1.76763">
        <ele>67</ele>
        <time>2015-06-07T10:14:47Z</time>
      </trkpt>
      <trkpt lat="47.88441" lon="-1.76763">
        <ele>67</ele>
        <time>2015-06-07T10:14:48Z</time>
      </trkpt>
      <trkpt lat="47.88443" lon="-1.76762">
        <ele>67</ele>
        <time>2015-06-07T10:14:49Z</time>
      </trkpt>
      <trkpt lat="47.88444" lon="-1.76763">
        <ele>67</ele>
        <time>2015-06-07T10:14:50Z</time>
      </trkpt>
      <trkpt lat="47.88446" lon="-1.76763">
        <ele>68</ele>
        <time>2015-06-07T10:14:51Z</time>
      </trkpt>
      <trkpt lat="47.88447" lon="-1.76762">
        <ele>68</ele>
        <time>2015-06-07T10:14:52Z</time>
      </trkpt>
      <trkpt lat="47.8845" lon="-1.7676">
        <ele>68</ele>
        <time>2015-06-07T10:14:53Z</time>
      </trkpt>
      <trkpt lat="47.88451" lon="-1.7676">
        <ele>68</ele>
        <time>2015-06-07T10:14:54Z</time>
      </trkpt>
      <trkpt lat="47.88452" lon="-1.76762">
        <ele>69</ele>
        <time>2015-06-07T10:14:55Z</time>
      </trkpt>
      <trkpt lat="47.88454" lon="-1.76764">
        <ele>69</ele>
        <time>2015-06-07T10:14:56Z</time>
      </trkpt>
      <trkpt lat="47.88456" lon="-1.76764">
        <ele>69</ele>
        <time>2015-06-07T10:14:57Z</time>
      </trkpt>
      <trkpt lat="47.88458" lon="-1.76764">
        <ele>69</ele>
        <time>2015-06-07T10:14:58Z</time>
      </trkpt>
      <trkpt lat="47.8846" lon="-1.76763">
        <ele>70</ele>
        <time>2015-06-07T10:14:59Z</time>
      </trkpt>
      <trkpt lat="47.88463" lon="-1.76761">
        <ele>70</ele>
        <time>2015-06-07T10:15:00Z</time>
      </trkpt>
      <trkpt lat="47.88465" lon="-1.76761">
        <ele>70</ele>
        <time>2015-06-07T10:15:01Z</time>
      </trkpt>
      <trkpt lat="47.88467" lon="-1.76763">
        <ele>70</ele>
        <time>2015-06-07T10:15:02Z</time>
      </trkpt>
      <trkpt lat="47.88469" lon="-1.76765">
        <ele>70</ele>
        <time>2015-06-07T10:15:03Z</time>
      </trkpt>
      <trkpt lat="47.88472" lon="-1.76767">
        <ele>71</ele>
        <time>2015-06-07T10:15:04Z</time>
      </trkpt>
      <trkpt lat="47.88474" lon="-1.76769">
        <ele>71</ele>
        <time>2015-06-07T10:15:05Z</time>
      </trkpt>
      <trkpt lat="47.88476" lon="-1.76773">
        <ele>71</ele>
        <time>2015-06-07T10:15:06Z</time>
      </trkpt>
      <trkpt lat="47.88479" lon="-1.76776">
        <ele>71</ele>
        <time>2015-06-07T10:15:07Z</time>
      </trkpt>
      <trkpt lat="47.88481" lon="-1.76778">
        <ele>71</ele>
        <time>2015-06-07T10:15:08Z</time>
      </trkpt>
      <trkpt lat="47.88483" lon="-1.76779">
        <ele>72</ele>
        <time>2015-06-07T10:15:09Z</time>
      </trkpt>
      <trkpt lat="47.88486" lon="-1.7678">
        <ele>72</ele>
        <time>2015-06-07T10:15:10Z</time>
      </trkpt>
      <trkpt lat="47.88489" lon="-1.7678">
        <ele>72</ele>
        <time>2015-06-07T10:15:11Z</time>
      </trkpt>
      <trkpt lat="47.88492" lon="-1.76783">
        <ele>73</ele>
        <time>2015-06-07T10:15:12Z</time>
      </trkpt>
      <trkpt lat="47.88493" lon="-1.76787">
        <ele>73</ele>
        <time>2015-06-07T10:15:13Z</time>
      </trkpt>
      <trkpt lat="47.88495" lon="-1.76792">
        <ele>73</ele>
        <time>2015-06-07T10:15:14Z</time>
      </trkpt>
      <trkpt lat="47.88496" lon="-1.76797">
        <ele>73</ele>
        <time>2015-06-07T10:15:15Z</time>
      </trkpt>
      <trkpt lat="47.88498" lon="-1.76803">
        <ele>72</ele>
        <time>2015-06-07T10:15:16Z</time>
      </trkpt>
      <trkpt lat="47.885" lon="-1.76808">
        <ele>72</ele>
        <time>2015-06-07T10:15:17Z</time>
      </trkpt>
      <trkpt lat="47.88502" lon="-1.76814">
        <ele>72</ele>
        <time>2015-06-07T10:15:18Z</time>
      </trkpt>
      <trkpt lat="47.88503" lon="-1.7682">
        <ele>72</ele>
        <time>2015-06-07T10:15:19Z</time>
      </trkpt>
      <trkpt lat="47.88505" lon="-1.76826">
        <ele>72</ele>
        <time>2015-06-07T10:15:20Z</time>
      </trkpt>
      <trkpt lat="47.88506" lon="-1.76833">
        <ele>72</ele>
        <time>2015-06-07T10:15:21Z</time>
      </trkpt>
      <trkpt lat="47.88508" lon="-1.7684">
        <ele>71</ele>
        <time>2015-06-07T10:15:22Z</time>
      </trkpt>
      <trkpt lat="47.8851" lon="-1.76847">
        <ele>71</ele>
        <time>2015-06-07T10:15:23Z</time>
      </trkpt>
      <trkpt lat="47.88511" lon="-1.76854">
        <ele>71</ele>
        <time>2015-06-07T10:15:24Z</time>
      </trkpt>
      <trkpt lat="47.88512" lon="-1.76862">
        <ele>71</ele>
        <time>2015-06-07T10:15:25Z</time>
      </trkpt>
      <trkpt lat="47.88513" lon="-1.7687">
        <ele>71</ele>
        <time>2015-06-07T10:15:26Z</time>
      </trkpt>
      <trkpt lat="47.88515" lon="-1.76878">
        <ele>70</ele>
        <time>2015-06-07T10:15:27Z</time>
      </trkpt>
      <trkpt lat="47.88515" lon="-1.76885">
        <ele>70</ele>
        <time>2015-06-07T10:15:28Z</time>
      </trkpt>
      <trkpt lat="47.88516" lon="-1.76893">
        <ele>70</ele>
        <time>2015-06-07T10:15:29Z</time>
      </trkpt>
      <trkpt lat="47.88517" lon="-1.76901">
        <ele>70</ele>
        <time>2015-06-07T10:15:30Z</time>
      </trkpt>
      <trkpt lat="47.88518" lon="-1.76908">
        <ele>70</ele>
        <time>2015-06-07T10:15:31Z</time>
      </trkpt>
      <trkpt lat="47.88519" lon="-1.76916">
        <ele>70</ele>
        <time>2015-06-07T10:15:32Z</time>
      </trkpt>
      <trkpt lat="47.88519" lon="-1.76923">
        <ele>70</ele>
        <time>2015-06-07T10:15:33Z</time>
      </trkpt>
      <trkpt lat="47.8852" lon="-1.76931">
        <ele>70</ele>
        <time>2015-06-07T10:15:34Z</time>
      </trkpt>
      <trkpt lat="47.88521" lon="-1.76938">
        <ele>71</ele>
        <time>2015-06-07T10:15:35Z</time>
      </trkpt>
      <trkpt lat="47.88522" lon="-1.76945">
        <ele>71</ele>
        <time>2015-06-07T10:15:36Z</time>
      </trkpt>
      <trkpt lat="47.88522" lon="-1.76953">
        <ele>71</ele>
        <time>2015-06-07T10:15:37Z</time>
      </trkpt>
      <trkpt lat="47.88522" lon="-1.7696">
        <ele>71</ele>
        <time>2015-06-07T10:15:38Z</time>
      </trkpt>
      <trkpt lat="47.88523" lon="-1.76967">
        <ele>71</ele>
        <time>2015-06-07T10:15:39Z</time>
      </trkpt>
      <trkpt lat="47.88523" lon="-1.76973">
        <ele>71</ele>
        <time>2015-06-07T10:15:40Z</time>
      </trkpt>
      <trkpt lat="47.88523" lon="-1.7698">
        <ele>71</ele>
        <time>2015-06-07T10:15:41Z</time>
      </trkpt>
      <trkpt lat="47.88523" lon="-1.76987">
        <ele>72</ele>
        <time>2015-06-07T10:15:42Z</time>
      </trkpt>
      <trkpt lat="47.88523" lon="-1.76994">
        <ele>72</ele>
        <time>2015-06-07T10:15:43Z</time>
      </trkpt>
      <trkpt lat="47.88524" lon="-1.77001">
        <ele>72</ele>
        <time>2015-06-07T10:15:44Z</time>
      </trkpt>
      <trkpt lat="47.88523" lon="-1.77007">
        <ele>72</ele>
        <time>2015-06-07T10:15:45Z</time>
      </trkpt>
      <trkpt lat="47.88523" lon="-1.77014">
        <ele>72</ele>
        <time>2015-06-07T10:15:46Z</time>
      </trkpt>
      <trkpt lat="47.88523" lon="-1.77021">
        <ele>72</ele>
        <time>2015-06-07T10:15:47Z</time>
      </trkpt>
      <trkpt lat="47.88522" lon="-1.77028">
        <ele>72</ele>
        <time>2015-06-07T10:15:48Z</time>
      </trkpt>
      <trkpt lat="47.88522" lon="-1.77035">
        <ele>73</ele>
        <time>2015-06-07T10:15:49Z</time>
      </trkpt>
      <trkpt lat="47.88521" lon="-1.77042">
        <ele>73</ele>
        <time>2015-06-07T10:15:50Z</time>
      </trkpt>
      <trkpt lat="47.8852" lon="-1.77048">
        <ele>73</ele>
        <time>2015-06-07T10:15:51Z</time>
      </trkpt>
      <trkpt lat="47.8852" lon="-1.77055">
        <ele>73</ele>
        <time>2015-06-07T10:15:52Z</time>
      </trkpt>
      <trkpt lat="47.88519" lon="-1.77062">
        <ele>73</ele>
        <time>2015-06-07T10:15:53Z</time>
      </trkpt>
      <trkpt lat="47.88518" lon="-1.77068">
        <ele>73</ele>
        <time>2015-06-07T10:15:54Z</time>
      </trkpt>
      <trkpt lat="47.88517" lon="-1.77075">
        <ele>73</ele>
        <time>2015-06-07T10:15:55Z</time>
      </trkpt>
      <trkpt lat="47.88516" lon="-1.77082">
        <ele>74</ele>
        <time>2015-06-07T10:15:56Z</time>
      </trkpt>
      <trkpt lat="47.88515" lon="-1.77088">
        <ele>74</ele>
        <time>2015-06-07T10:15:57Z</time>
      </trkpt>
      <trkpt lat="47.88514" lon="-1.77095">
        <ele>74</ele>
        <time>2015-06-07T10:15:58Z</time>
      </trkpt>
      <trkpt lat="47.88513" lon="-1.77101">
        <ele>74</ele>
        <time>2015-06-07T10:15:59Z</time>
      </trkpt>
      <trkpt lat="47.88511" lon="-1.77108">
        <ele>74</ele>
        <time>2015-06-07T10:16:00Z</time>
      </trkpt>
      <trkpt lat="47.88509" lon="-1.77115">
        <ele>74</ele>
        <time>2015-06-07T10:16:01Z</time>
      </trkpt>
      <trkpt lat="47.88507" lon="-1.77121">
        <ele>75</ele>
        <time>2015-06-07T10:16:02Z</time>
      </trkpt>
      <trkpt lat="47.88505" lon="-1.77128">
        <ele>75</ele>
        <time>2015-06-07T10:16:03Z</time>
      </trkpt>
      <trkpt lat="47.88503" lon="-1.77134">
        <ele>75</ele>
        <time>2015-06-07T10:16:04Z</time>
      </trkpt>
      <trkpt lat="47.88502" lon="-1.77141">
        <ele>75</ele>
        <time>2015-06-07T10:16:05Z</time>
      </trkpt>
      <trkpt lat="47.88501" lon="-1.77148">
        <ele>75</ele>
        <time>2015-06-07T10:16:06Z</time>
      </trkpt>
      <trkpt lat="47.885" lon="-1.77155">
        <ele>75</ele>
        <time>2015-06-07T10:16:07Z</time>
      </trkpt>
      <trkpt lat="47.88499" lon="-1.77163">
        <ele>75</ele>
        <time>2015-06-07T10:16:08Z</time>
      </trkpt>
      <trkpt lat="47.88498" lon="-1.77171">
        <ele>75</ele>
        <time>2015-06-07T10:16:09Z</time>
      </trkpt>
      <trkpt lat="47.88498" lon="-1.77178">
        <ele>75</ele>
        <time>2015-06-07T10:16:10Z</time>
      </trkpt>
      <trkpt lat="47.88496" lon="-1.77187">
        <ele>75</ele>
        <time>2015-06-07T10:16:11Z</time>
      </trkpt>
      <trkpt lat="47.88496" lon="-1.77196">
        <ele>75</ele>
        <time>2015-06-07T10:16:12Z</time>
      </trkpt>
      <trkpt lat="47.88495" lon="-1.77203">
        <ele>75</ele>
        <time>2015-06-07T10:16:13Z</time>
      </trkpt>
      <trkpt lat="47.88493" lon="-1.77211">
        <ele>75</ele>
        <time>2015-06-07T10:16:14Z</time>
      </trkpt>
      <trkpt lat="47.88491" lon="-1.7722">
        <ele>75</ele>
        <time>2015-06-07T10:16:15Z</time>
      </trkpt>
      <trkpt lat="47.8849" lon="-1.77227">
        <ele>75</ele>
        <time>2015-06-07T10:16:16Z</time>
      </trkpt>
      <trkpt lat="47.88489" lon="-1.77235">
        <ele>74</ele>
        <time>2015-06-07T10:16:17Z</time>
      </trkpt>
      <trkpt lat="47.88487" lon="-1.77243">
        <ele>74</ele>
        <time>2015-06-07T10:16:18Z</time>
      </trkpt>
      <trkpt lat="47.88486" lon="-1.77251">
        <ele>74</ele>
        <time>2015-06-07T10:16:19Z</time>
      </trkpt>
      <trkpt lat="47.88485" lon="-1.77259">
        <ele>74</ele>
        <time>2015-06-07T10:16:20Z</time>
      </trkpt>
      <trkpt lat="47.88484" lon="-1.77267">
        <ele>74</ele>
        <time>2015-06-07T10:16:21Z</time>
      </trkpt>
      <trkpt lat="47.88483" lon="-1.77274">
        <ele>74</ele>
        <time>2015-06-07T10:16:22Z</time>
      </trkpt>
      <trkpt lat="47.88481" lon="-1.77282">
        <ele>74</ele>
        <time>2015-06-07T10:16:23Z</time>
      </trkpt>
      <trkpt lat="47.88479" lon="-1.7729">
        <ele>74</ele>
        <time>2015-06-07T10:16:24Z</time>
      </trkpt>
      <trkpt lat="47.88478" lon="-1.77298">
        <ele>74</ele>
        <time>2015-06-07T10:16:25Z</time>
      </trkpt>
      <trkpt lat="47.88476" lon="-1.77307">
        <ele>74</ele>
        <time>2015-06-07T10:16:26Z</time>
      </trkpt>
      <trkpt lat="47.88473" lon="-1.77317">
        <ele>73</ele>
        <time>2015-06-07T10:16:27Z</time>
      </trkpt>
      <trkpt lat="47.88471" lon="-1.77327">
        <ele>73</ele>
        <time>2015-06-07T10:16:28Z</time>
      </trkpt>
      <trkpt lat="47.88469" lon="-1.77338">
        <ele>73</ele>
        <time>2015-06-07T10:16:29Z</time>
      </trkpt>
      <trkpt lat="47.88467" lon="-1.7735">
        <ele>73</ele>
        <time>2015-06-07T10:16:30Z</time>
      </trkpt>
      <trkpt lat="47.88464" lon="-1.77362">
        <ele>73</ele>
        <time>2015-06-07T10:16:31Z</time>
      </trkpt>
      <trkpt lat="47.88463" lon="-1.77374">
        <ele>73</ele>
        <time>2015-06-07T10:16:32Z</time>
      </trkpt>
      <trkpt lat="47.88462" lon="-1.77386">
        <ele>72</ele>
        <time>2015-06-07T10:16:33Z</time>
      </trkpt>
      <trkpt lat="47.88461" lon="-1.77397">
        <ele>72</ele>
        <time>2015-06-07T10:16:34Z</time>
      </trkpt>
      <trkpt lat="47.8846" lon="-1.77404">
        <ele>71</ele>
        <time>2015-06-07T10:16:35Z</time>
      </trkpt>
      <trkpt lat="47.88459" lon="-1.7741">
        <ele>71</ele>
        <time>2015-06-07T10:16:36Z</time>
      </trkpt>
      <trkpt lat="47.88459" lon="-1.77414">
        <ele>71</ele>
        <time>2015-06-07T10:16:37Z</time>
      </trkpt>
      <trkpt lat="47.88461" lon="-1.77416">
        <ele>70</ele>
        <time>2015-06-07T10:16:38Z</time>
      </trkpt>
      <trkpt lat="47.88464" lon="-1.77417">
        <ele>70</ele>
        <time>2015-06-07T10:16:39Z</time>
      </trkpt>
      <trkpt lat="47.88466" lon="-1.77415">
        <ele>70</ele>
        <time>2015-06-07T10:16:40Z</time>
      </trkpt>
      <trkpt lat="47.88468" lon="-1.77414">
        <ele>70</ele>
        <time>2015-06-07T10:16:41Z</time>
      </trkpt>
      <trkpt lat="47.88471" lon="-1.77411">
        <ele>70</ele>
        <time>2015-06-07T10:16:42Z</time>
      </trkpt>
      <trkpt lat="47.88473" lon="-1.77407">
        <ele>70</ele>
        <time>2015-06-07T10:16:43Z</time>
      </trkpt>
      <trkpt lat="47.88476" lon="-1.77404">
        <ele>70</ele>
        <time>2015-06-07T10:16:44Z</time>
      </trkpt>
      <trkpt lat="47.88479" lon="-1.774">
        <ele>70</ele>
        <time>2015-06-07T10:16:45Z</time>
      </trkpt>
      <trkpt lat="47.88482" lon="-1.77398">
        <ele>70</ele>
        <time>2015-06-07T10:16:46Z</time>
      </trkpt>
      <trkpt lat="47.88485" lon="-1.77398">
        <ele>70</ele>
        <time>2015-06-07T10:16:47Z</time>
      </trkpt>
      <trkpt lat="47.88487" lon="-1.774">
        <ele>69</ele>
        <time>2015-06-07T10:16:48Z</time>
      </trkpt>
      <trkpt lat="47.88489" lon="-1.77404">
        <ele>69</ele>
        <time>2015-06-07T10:16:49Z</time>
      </trkpt>
      <trkpt lat="47.8849" lon="-1.77408">
        <ele>69</ele>
        <time>2015-06-07T10:16:50Z</time>
      </trkpt>
      <trkpt lat="47.8849" lon="-1.77412">
        <ele>69</ele>
        <time>2015-06-07T10:16:51Z</time>
      </trkpt>
      <trkpt lat="47.88489" lon="-1.77416">
        <ele>69</ele>
        <time>2015-06-07T10:16:52Z</time>
      </trkpt>
      <trkpt lat="47.88488" lon="-1.77421">
        <ele>69</ele>
        <time>2015-06-07T10:16:53Z</time>
      </trkpt>
      <trkpt lat="47.88488" lon="-1.77427">
        <ele>69</ele>
        <time>2015-06-07T10:16:54Z</time>
      </trkpt>
      <trkpt lat="47.88489" lon="-1.77434">
        <ele>69</ele>
        <time>2015-06-07T10:16:55Z</time>
      </trkpt>
      <trkpt lat="47.88489" lon="-1.77439">
        <ele>68</ele>
        <time>2015-06-07T10:16:56Z</time>
      </trkpt>
      <trkpt lat="47.8849" lon="-1.77446">
        <ele>68</ele>
        <time>2015-06-07T10:16:57Z</time>
      </trkpt>
      <trkpt lat="47.8849" lon="-1.77453">
        <ele>68</ele>
        <time>2015-06-07T10:16:58Z</time>
      </trkpt>
      <trkpt lat="47.8849" lon="-1.77459">
        <ele>68</ele>
        <time>2015-06-07T10:16:59Z</time>
      </trkpt>
      <trkpt lat="47.8849" lon="-1.77463">
        <ele>68</ele>
        <time>2015-06-07T10:17:00Z</time>
      </trkpt>
      <trkpt lat="47.8849" lon="-1.77468">
        <ele>68</ele>
        <time>2015-06-07T10:17:01Z</time>
      </trkpt>
      <trkpt lat="47.88489" lon="-1.77471">
        <ele>68</ele>
        <time>2015-06-07T10:17:02Z</time>
      </trkpt>
      <trkpt lat="47.88487" lon="-1.77475">
        <ele>68</ele>
        <time>2015-06-07T10:17:03Z</time>
      </trkpt>
      <trkpt lat="47.88485" lon="-1.77479">
        <ele>67</ele>
        <time>2015-06-07T10:17:04Z</time>
      </trkpt>
      <trkpt lat="47.88483" lon="-1.77482">
        <ele>67</ele>
        <time>2015-06-07T10:17:05Z</time>
      </trkpt>
      <trkpt lat="47.88481" lon="-1.77485">
        <ele>67</ele>
        <time>2015-06-07T10:17:06Z</time>
      </trkpt>
      <trkpt lat="47.88479" lon="-1.77488">
        <ele>67</ele>
        <time>2015-06-07T10:17:07Z</time>
      </trkpt>
      <trkpt lat="47.88477" lon="-1.77492">
        <ele>67</ele>
        <time>2015-06-07T10:17:08Z</time>
      </trkpt>
      <trkpt lat="47.88476" lon="-1.77497">
        <ele>67</ele>
        <time>2015-06-07T10:17:09Z</time>
      </trkpt>
      <trkpt lat="47.88477" lon="-1.77501">
        <ele>67</ele>
        <time>2015-06-07T10:17:10Z</time>
      </trkpt>
      <trkpt lat="47.88478" lon="-1.77506">
        <ele>67</ele>
        <time>2015-06-07T10:17:11Z</time>
      </trkpt>
      <trkpt lat="47.88479" lon="-1.77512">
        <ele>67</ele>
        <time>2015-06-07T10:17:12Z</time>
      </trkpt>
      <trkpt lat="47.8848" lon="-1.77518">
        <ele>66</ele>
        <time>2015-06-07T10:17:13Z</time>
      </trkpt>
      <trkpt lat="47.8848" lon="-1.77524">
        <ele>66</ele>
        <time>2015-06-07T10:17:14Z</time>
      </trkpt>
      <trkpt lat="47.8848" lon="-1.77528">
        <ele>66</ele>
        <time>2015-06-07T10:17:15Z</time>
      </trkpt>
      <trkpt lat="47.88477" lon="-1.7753">
        <ele>66</ele>
        <time>2015-06-07T10:17:16Z</time>
      </trkpt>
      <trkpt lat="47.88473" lon="-1.7753">
        <ele>66</ele>
        <time>2015-06-07T10:17:17Z</time>
      </trkpt>
      <trkpt lat="47.8847" lon="-1.7753">
        <ele>66</ele>
        <time>2015-06-07T10:17:18Z</time>
      </trkpt>
      <trkpt lat="47.88467" lon="-1.77528">
        <ele>65</ele>
        <time>2015-06-07T10:17:19Z</time>
      </trkpt>
      <trkpt lat="47.88465" lon="-1.77526">
        <ele>65</ele>
        <time>2015-06-07T10:17:20Z</time>
      </trkpt>
      <trkpt lat="47.88462" lon="-1.77524">
        <ele>65</ele>
        <time>2015-06-07T10:17:21Z</time>
      </trkpt>
      <trkpt lat="47.88459" lon="-1.77524">
        <ele>64</ele>
        <time>2015-06-07T10:17:22Z</time>
      </trkpt>
      <trkpt lat="47.88455" lon="-1.77526">
        <ele>64</ele>
        <time>2015-06-07T10:17:23Z</time>
      </trkpt>
      <trkpt lat="47.88453" lon="-1.77528">
        <ele>64</ele>
        <time>2015-06-07T10:17:24Z</time>
      </trkpt>
      <trkpt lat="47.8845" lon="-1.77532">
        <ele>64</ele>
        <time>2015-06-07T10:17:25Z</time>
      </trkpt>
      <trkpt lat="47.88448" lon="-1.77535">
        <ele>63</ele>
        <time>2015-06-07T10:17:26Z</time>
      </trkpt>
      <trkpt lat="47.88445" lon="-1.7754">
        <ele>63</ele>
        <time>2015-06-07T10:17:27Z</time>
      </trkpt>
      <trkpt lat="47.88443" lon="-1.77544">
        <ele>63</ele>
        <time>2015-06-07T10:17:28Z</time>
      </trkpt>
      <trkpt lat="47.8844" lon="-1.77547">
        <ele>62</ele>
        <time>2015-06-07T10:17:29Z</time>
      </trkpt>
      <trkpt lat="47.88437" lon="-1.7755">
        <ele>62</ele>
        <time>2015-06-07T10:17:30Z</time>
      </trkpt>
      <trkpt lat="47.88436" lon="-1.77552">
        <ele>62</ele>
        <time>2015-06-07T10:17:31Z</time>
      </trkpt>
      <trkpt lat="47.88436" lon="-1.77556">
        <ele>62</ele>
        <time>2015-06-07T10:17:32Z</time>
      </trkpt>
      <trkpt lat="47.88436" lon="-1.77559">
        <ele>62</ele>
        <time>2015-06-07T10:17:33Z</time>
      </trkpt>
      <trkpt lat="47.88437" lon="-1.77563">
        <ele>62</ele>
        <time>2015-06-07T10:17:34Z</time>
      </trkpt>
      <trkpt lat="47.88436" lon="-1.77567">
        <ele>62</ele>
        <time>2015-06-07T10:17:35Z</time>
      </trkpt>
      <trkpt lat="47.88435" lon="-1.77571">
        <ele>62</ele>
        <time>2015-06-07T10:17:36Z</time>
      </trkpt>
      <trkpt lat="47.88433" lon="-1.77573">
        <ele>61</ele>
        <time>2015-06-07T10:17:37Z</time>
      </trkpt>
      <trkpt lat="47.8843" lon="-1.77575">
        <ele>61</ele>
        <time>2015-06-07T10:17:38Z</time>
      </trkpt>
      <trkpt lat="47.88426" lon="-1.77578">
        <ele>61</ele>
        <time>2015-06-07T10:17:39Z</time>
      </trkpt>
      <trkpt lat="47.88422" lon="-1.7758">
        <ele>61</ele>
        <time>2015-06-07T10:17:40Z</time>
      </trkpt>
      <trkpt lat="47.88418" lon="-1.7758">
        <ele>61</ele>
        <time>2015-06-07T10:17:41Z</time>
      </trkpt>
      <trkpt lat="47.88415" lon="-1.77578">
        <ele>61</ele>
        <time>2015-06-07T10:17:42Z</time>
      </trkpt>
      <trkpt lat="47.88413" lon="-1.77575">
        <ele>60</ele>
        <time>2015-06-07T10:17:43Z</time>
      </trkpt>
      <trkpt lat="47.88412" lon="-1.77572">
        <ele>60</ele>
        <time>2015-06-07T10:17:44Z</time>
      </trkpt>
      <trkpt lat="47.88412" lon="-1.77569">
        <ele>60</ele>
        <time>2015-06-07T10:17:45Z</time>
      </trkpt>
      <trkpt lat="47.88412" lon="-1.77565">
        <ele>60</ele>
        <time>2015-06-07T10:17:46Z</time>
      </trkpt>
      <trkpt lat="47.88412" lon="-1.77561">
        <ele>60</ele>
        <time>2015-06-07T10:17:47Z</time>
      </trkpt>
      <trkpt lat="47.88412" lon="-1.77558">
        <ele>60</ele>
        <time>2015-06-07T10:17:48Z</time>
      </trkpt>
      <trkpt lat="47.88412" lon="-1.77554">
        <ele>60</ele>
        <time>2015-06-07T10:17:49Z</time>
      </trkpt>
      <trkpt lat="47.88413" lon="-1.77551">
        <ele>60</ele>
        <time>2015-06-07T10:17:50Z</time>
      </trkpt>
      <trkpt lat="47.88413" lon="-1.77548">
        <ele>60</ele>
        <time>2015-06-07T10:17:51Z</time>
      </trkpt>
      <trkpt lat="47.88414" lon="-1.77544">
        <ele>60</ele>
        <time>2015-06-07T10:17:52Z</time>
      </trkpt>
      <trkpt lat="47.88414" lon="-1.7754">
        <ele>60</ele>
        <time>2015-06-07T10:17:53Z</time>
      </trkpt>
      <trkpt lat="47.88415" lon="-1.77536">
        <ele>60</ele>
        <time>2015-06-07T10:17:54Z</time>
      </trkpt>
      <trkpt lat="47.88415" lon="-1.77532">
        <ele>60</ele>
        <time>2015-06-07T10:17:55Z</time>
      </trkpt>
      <trkpt lat="47.88416" lon="-1.77528">
        <ele>61</ele>
        <time>2015-06-07T10:17:56Z</time>
      </trkpt>
      <trkpt lat="47.88415" lon="-1.77524">
        <ele>61</ele>
        <time>2015-06-07T10:17:57Z</time>
      </trkpt>
      <trkpt lat="47.88415" lon="-1.77521">
        <ele>61</ele>
        <time>2015-06-07T10:17:58Z</time>
      </trkpt>
      <trkpt lat="47.88414" lon="-1.77518">
        <ele>61</ele>
        <time>2015-06-07T10:17:59Z</time>
      </trkpt>
      <trkpt lat="47.88411" lon="-1.77515">
        <ele>61</ele>
        <time>2015-06-07T10:18:00Z</time>
      </trkpt>
      <trkpt lat="47.88408" lon="-1.77514">
        <ele>61</ele>
        <time>2015-06-07T10:18:01Z</time>
      </trkpt>
      <trkpt lat="47.88405" lon="-1.77513">
        <ele>61</ele>
        <time>2015-06-07T10:18:02Z</time>
      </trkpt>
      <trkpt lat="47.88401" lon="-1.77513">
        <ele>61</ele>
        <time>2015-06-07T10:18:03Z</time>
      </trkpt>
      <trkpt lat="47.88397" lon="-1.77514">
        <ele>61</ele>
        <time>2015-06-07T10:18:04Z</time>
      </trkpt>
      <trkpt lat="47.88393" lon="-1.77514">
        <ele>61</ele>
        <time>2015-06-07T10:18:05Z</time>
      </trkpt>
      <trkpt lat="47.88389" lon="-1.77514">
        <ele>60</ele>
        <time>2015-06-07T10:18:06Z</time>
      </trkpt>
      <trkpt lat="47.88384" lon="-1.77515">
        <ele>60</ele>
        <time>2015-06-07T10:18:07Z</time>
      </trkpt>
      <trkpt lat="47.8838" lon="-1.77515">
        <ele>60</ele>
        <time>2015-06-07T10:18:08Z</time>
      </trkpt>
      <trkpt lat="47.88376" lon="-1.77515">
        <ele>60</ele>
        <time>2015-06-07T10:18:09Z</time>
      </trkpt>
      <trkpt lat="47.88372" lon="-1.77513">
        <ele>59</ele>
        <time>2015-06-07T10:18:10Z</time>
      </trkpt>
      <trkpt lat="47.88368" lon="-1.77513">
        <ele>59</ele>
        <time>2015-06-07T10:18:11Z</time>
      </trkpt>
      <trkpt lat="47.88364" lon="-1.77512">
        <ele>59</ele>
        <time>2015-06-07T10:18:12Z</time>
      </trkpt>
      <trkpt lat="47.88359" lon="-1.7751">
        <ele>59</ele>
        <time>2015-06-07T10:18:13Z</time>
      </trkpt>
      <trkpt lat="47.88355" lon="-1.77508">
        <ele>59</ele>
        <time>2015-06-07T10:18:14Z</time>
      </trkpt>
      <trkpt lat="47.88351" lon="-1.77505">
        <ele>59</ele>
        <time>2015-06-07T10:18:15Z</time>
      </trkpt>
      <trkpt lat="47.88347" lon="-1.77502">
        <ele>59</ele>
        <time>2015-06-07T10:18:16Z</time>
      </trkpt>
      <trkpt lat="47.88343" lon="-1.77499">
        <ele>59</ele>
        <time>2015-06-07T10:18:17Z</time>
      </trkpt>
      <trkpt lat="47.88339" lon="-1.77495">
        <ele>59</ele>
        <time>2015-06-07T10:18:18Z</time>
      </trkpt>
      <trkpt lat="47.88336" lon="-1.7749">
        <ele>58</ele>
        <time>2015-06-07T10:18:19Z</time>
      </trkpt>
      <trkpt lat="47.88333" lon="-1.77486">
        <ele>59</ele>
        <time>2015-06-07T10:18:20Z</time>
      </trkpt>
      <trkpt lat="47.8833" lon="-1.77481">
        <ele>59</ele>
        <time>2015-06-07T10:18:21Z</time>
      </trkpt>
      <trkpt lat="47.88327" lon="-1.77475">
        <ele>59</ele>
        <time>2015-06-07T10:18:22Z</time>
      </trkpt>
      <trkpt lat="47.88324" lon="-1.7747">
        <ele>59</ele>
        <time>2015-06-07T10:18:23Z</time>
      </trkpt>
      <trkpt lat="47.88322" lon="-1.77464">
        <ele>59</ele>
        <time>2015-06-07T10:18:24Z</time>
      </trkpt>
      <trkpt lat="47.8832" lon="-1.77458">
        <ele>59</ele>
        <time>2015-06-07T10:18:25Z</time>
      </trkpt>
      <trkpt lat="47.88319" lon="-1.77451">
        <ele>59</ele>
        <time>2015-06-07T10:18:26Z</time>
      </trkpt>
      <trkpt lat="47.88318" lon="-1.77444">
        <ele>59</ele>
        <time>2015-06-07T10:18:27Z</time>
      </trkpt>
      <trkpt lat="47.88317" lon="-1.77437">
        <ele>59</ele>
        <time>2015-06-07T10:18:28Z</time>
      </trkpt>
      <trkpt lat="47.88316" lon="-1.77429">
        <ele>59</ele>
        <time>2015-06-07T10:18:29Z</time>
      </trkpt>
      <trkpt lat="47.88316" lon="-1.77422">
        <ele>59</ele>
        <time>2015-06-07T10:18:30Z</time>
      </trkpt>
      <trkpt lat="47.88316" lon="-1.77414">
        <ele>59</ele>
        <time>2015-06-07T10:18:31Z</time>
      </trkpt>
      <trkpt lat="47.88315" lon="-1.77406">
        <ele>59</ele>
        <time>2015-06-07T10:18:32Z</time>
      </trkpt>
      <trkpt lat="47.88315" lon="-1.77398">
        <ele>59</ele>
        <time>2015-06-07T10:18:33Z</time>
      </trkpt>
      <trkpt lat="47.88315" lon="-1.7739">
        <ele>59</ele>
        <time>2015-06-07T10:18:34Z</time>
      </trkpt>
      <trkpt lat="47.88316" lon="-1.77382">
        <ele>59</ele>
        <time>2015-06-07T10:18:35Z</time>
      </trkpt>
      <trkpt lat="47.88316" lon="-1.77374">
        <ele>59</ele>
        <time>2015-06-07T10:18:36Z</time>
      </trkpt>
      <trkpt lat="47.88316" lon="-1.77366">
        <ele>59</ele>
        <time>2015-06-07T10:18:37Z</time>
      </trkpt>
      <trkpt lat="47.88317" lon="-1.77358">
        <ele>59</ele>
        <time>2015-06-07T10:18:38Z</time>
      </trkpt>
      <trkpt lat="47.88317" lon="-1.7735">
        <ele>59</ele>
        <time>2015-06-07T10:18:39Z</time>
      </trkpt>
      <trkpt lat="47.88317" lon="-1.77342">
        <ele>59</ele>
        <time>2015-06-07T10:18:40Z</time>
      </trkpt>
      <trkpt lat="47.88317" lon="-1.77335">
        <ele>59</ele>
        <time>2015-06-07T10:18:41Z</time>
      </trkpt>
      <trkpt lat="47.88317" lon="-1.77328">
        <ele>59</ele>
        <time>2015-06-07T10:18:42Z</time>
      </trkpt>
      <trkpt lat="47.88316" lon="-1.77321">
        <ele>59</ele>
        <time>2015-06-07T10:18:43Z</time>
      </trkpt>
      <trkpt lat="47.88315" lon="-1.77314">
        <ele>59</ele>
        <time>2015-06-07T10:18:44Z</time>
      </trkpt>
      <trkpt lat="47.88313" lon="-1.77308">
        <ele>59</ele>
        <time>2015-06-07T10:18:45Z</time>
      </trkpt>
      <trkpt lat="47.88309" lon="-1.77302">
        <ele>59</ele>
        <time>2015-06-07T10:18:46Z</time>
      </trkpt>
      <trkpt lat="47.88305" lon="-1.77296">
        <ele>59</ele>
        <time>2015-06-07T10:18:47Z</time>
      </trkpt>
      <trkpt lat="47.88301" lon="-1.7729">
        <ele>59</ele>
        <time>2015-06-07T10:18:48Z</time>
      </trkpt>
      <trkpt lat="47.88296" lon="-1.77284">
        <ele>59</ele>
        <time>2015-06-07T10:18:49Z</time>
      </trkpt>
      <trkpt lat="47.88292" lon="-1.77278">
        <ele>59</ele>
        <time>2015-06-07T10:18:50Z</time>
      </trkpt>
      <trkpt lat="47.88287" lon="-1.77272">
        <ele>58</ele>
        <time>2015-06-07T10:18:51Z</time>
      </trkpt>
      <trkpt lat="47.88283" lon="-1.77264">
        <ele>58</ele>
        <time>2015-06-07T10:18:52Z</time>
      </trkpt>
      <trkpt lat="47.88281" lon="-1.77255">
        <ele>58</ele>
        <time>2015-06-07T10:18:53Z</time>
      </trkpt>
      <trkpt lat="47.8828" lon="-1.77245">
        <ele>58</ele>
        <time>2015-06-07T10:18:54Z</time>
      </trkpt>
      <trkpt lat="47.88281" lon="-1.77234">
        <ele>58</ele>
        <time>2015-06-07T10:18:55Z</time>
      </trkpt>
      <trkpt lat="47.88283" lon="-1.77224">
        <ele>58</ele>
        <time>2015-06-07T10:18:56Z</time>
      </trkpt>
      <trkpt lat="47.88285" lon="-1.77214">
        <ele>57</ele>
        <time>2015-06-07T10:18:57Z</time>
      </trkpt>
      <trkpt lat="47.88288" lon="-1.77205">
        <ele>57</ele>
        <time>2015-06-07T10:18:58Z</time>
      </trkpt>
      <trkpt lat="47.88292" lon="-1.77195">
        <ele>57</ele>
        <time>2015-06-07T10:18:59Z</time>
      </trkpt>
      <trkpt lat="47.88295" lon="-1.77186">
        <ele>56</ele>
        <time>2015-06-07T10:19:00Z</time>
      </trkpt>
      <trkpt lat="47.88298" lon="-1.77177">
        <ele>56</ele>
        <time>2015-06-07T10:19:01Z</time>
      </trkpt>
      <trkpt lat="47.88302" lon="-1.77169">
        <ele>56</ele>
        <time>2015-06-07T10:19:02Z</time>
      </trkpt>
      <trkpt lat="47.88305" lon="-1.77161">
        <ele>56</ele>
        <time>2015-06-07T10:19:03Z</time>
      </trkpt>
      <trkpt lat="47.88308" lon="-1.77153">
        <ele>56</ele>
        <time>2015-06-07T10:19:04Z</time>
      </trkpt>
      <trkpt lat="47.88312" lon="-1.77146">
        <ele>56</ele>
        <time>2015-06-07T10:19:05Z</time>
      </trkpt>
      <trkpt lat="47.88315" lon="-1.77138">
        <ele>56</ele>
        <time>2015-06-07T10:19:06Z</time>
      </trkpt>
      <trkpt lat="47.88318" lon="-1.77131">
        <ele>56</ele>
        <time>2015-06-07T10:19:07Z</time>
      </trkpt>
      <trkpt lat="47.88321" lon="-1.77126">
        <ele>56</ele>
        <time>2015-06-07T10:19:08Z</time>
      </trkpt>
      <trkpt lat="47.88323" lon="-1.77119">
        <ele>56</ele>
        <time>2015-06-07T10:19:09Z</time>
      </trkpt>
      <trkpt lat="47.88323" lon="-1.77114">
        <ele>56</ele>
        <time>2015-06-07T10:19:10Z</time>
      </trkpt>
      <trkpt lat="47.88322" lon="-1.77111">
        <ele>56</ele>
        <time>2015-06-07T10:19:11Z</time>
      </trkpt>
      <trkpt lat="47.88321" lon="-1.77108">
        <ele>56</ele>
        <time>2015-06-07T10:19:12Z</time>
      </trkpt>
      <trkpt lat="47.88318" lon="-1.77105">
        <ele>55</ele>
        <time>2015-06-07T10:19:13Z</time>
      </trkpt>
      <trkpt lat="47.88315" lon="-1.77099">
        <ele>55</ele>
        <time>2015-06-07T10:19:14Z</time>
      </trkpt>
      <trkpt lat="47.88311" lon="-1.77095">
        <ele>55</ele>
        <time>2015-06-07T10:19:15Z</time>
      </trkpt>
      <trkpt lat="47.88307" lon="-1.7709">
        <ele>55</ele>
        <time>2015-06-07T10:19:16Z</time>
      </trkpt>
      <trkpt lat="47.88304" lon="-1.77087">
        <ele>55</ele>
        <time>2015-06-07T10:19:17Z</time>
      </trkpt>
      <trkpt lat="47.88302" lon="-1.77084">
        <ele>55</ele>
        <time>2015-06-07T10:19:18Z</time>
      </trkpt>
      <trkpt lat="47.883" lon="-1.77083">
        <ele>55</ele>
        <time>2015-06-07T10:19:19Z</time>
      </trkpt>
      <trkpt lat="47.88297" lon="-1.77082">
        <ele>54</ele>
        <time>2015-06-07T10:19:20Z</time>
      </trkpt>
      <trkpt lat="47.88293" lon="-1.77081">
        <ele>54</ele>
        <time>2015-06-07T10:19:21Z</time>
      </trkpt>
      <trkpt lat="47.88289" lon="-1.77078">
        <ele>54</ele>
        <time>2015-06-07T10:19:22Z</time>
      </trkpt>
      <trkpt lat="47.88286" lon="-1.77075">
        <ele>54</ele>
        <time>2015-06-07T10:19:23Z</time>
      </trkpt>
      <trkpt lat="47.88281" lon="-1.7707">
        <ele>53</ele>
        <time>2015-06-07T10:19:24Z</time>
      </trkpt>
      <trkpt lat="47.88276" lon="-1.77065">
        <ele>53</ele>
        <time>2015-06-07T10:19:25Z</time>
      </trkpt>
      <trkpt lat="47.88272" lon="-1.7706">
        <ele>53</ele>
        <time>2015-06-07T10:19:26Z</time>
      </trkpt>
      <trkpt lat="47.88268" lon="-1.77054">
        <ele>53</ele>
        <time>2015-06-07T10:19:27Z</time>
      </trkpt>
      <trkpt lat="47.88263" lon="-1.77048">
        <ele>53</ele>
        <time>2015-06-07T10:19:28Z</time>
      </trkpt>
      <trkpt lat="47.88257" lon="-1.77042">
        <ele>53</ele>
        <time>2015-06-07T10:19:29Z</time>
      </trkpt>
      <trkpt lat="47.88252" lon="-1.77036">
        <ele>53</ele>
        <time>2015-06-07T10:19:30Z</time>
      </trkpt>
      <trkpt lat="47.88246" lon="-1.77031">
        <ele>53</ele>
        <time>2015-06-07T10:19:31Z</time>
      </trkpt>
      <trkpt lat="47.8824" lon="-1.77025">
        <ele>53</ele>
        <time>2015-06-07T10:19:32Z</time>
      </trkpt>
      <trkpt lat="47.88235" lon="-1.77021">
        <ele>53</ele>
        <time>2015-06-07T10:19:33Z</time>
      </trkpt>
      <trkpt lat="47.8823" lon="-1.77016">
        <ele>53</ele>
        <time>2015-06-07T10:19:34Z</time>
      </trkpt>
      <trkpt lat="47.88225" lon="-1.77012">
        <ele>53</ele>
        <time>2015-06-07T10:19:35Z</time>
      </trkpt>
      <trkpt lat="47.88221" lon="-1.77008">
        <ele>53</ele>
        <time>2015-06-07T10:19:36Z</time>
      </trkpt>
      <trkpt lat="47.88217" lon="-1.77005">
        <ele>53</ele>
        <time>2015-06-07T10:19:37Z</time>
      </trkpt>
      <trkpt lat="47.88213" lon="-1.77002">
        <ele>53</ele>
        <time>2015-06-07T10:19:38Z</time>
      </trkpt>
      <trkpt lat="47.8821" lon="-1.76999">
        <ele>53</ele>
        <time>2015-06-07T10:19:39Z</time>
      </trkpt>
      <trkpt lat="47.88207" lon="-1.76996">
        <ele>53</ele>
        <time>2015-06-07T10:19:40Z</time>
      </trkpt>
      <trkpt lat="47.88204" lon="-1.76994">
        <ele>53</ele>
        <time>2015-06-07T10:19:41Z</time>
      </trkpt>
      <trkpt lat="47.88201" lon="-1.76991">
        <ele>53</ele>
        <time>2015-06-07T10:19:42Z</time>
      </trkpt>
      <trkpt lat="47.88199" lon="-1.76989">
        <ele>54</ele>
        <time>2015-06-07T10:19:43Z</time>
      </trkpt>
      <trkpt lat="47.88196" lon="-1.76987">
        <ele>54</ele>
        <time>2015-06-07T10:19:44Z</time>
      </trkpt>
      <trkpt lat="47.88194" lon="-1.76984">
        <ele>54</ele>
        <time>2015-06-07T10:19:45Z</time>
      </trkpt>
      <trkpt lat="47.88191" lon="-1.76982">
        <ele>55</ele>
        <time>2015-06-07T10:19:46Z</time>
      </trkpt>
      <trkpt lat="47.88188" lon="-1.7698">
        <ele>55</ele>
        <time>2015-06-07T10:19:47Z</time>
      </trkpt>
      <trkpt lat="47.88185" lon="-1.76977">
        <ele>55</ele>
        <time>2015-06-07T10:19:48Z</time>
      </trkpt>
      <trkpt lat="47.88183" lon="-1.76975">
        <ele>55</ele>
        <time>2015-06-07T10:19:49Z</time>
      </trkpt>
      <trkpt lat="47.8818" lon="-1.76973">
        <ele>55</ele>
        <time>2015-06-07T10:19:50Z</time>
      </trkpt>
      <trkpt lat="47.88177" lon="-1.76971">
        <ele>56</ele>
        <time>2015-06-07T10:19:51Z</time>
      </trkpt>
      <trkpt lat="47.88174" lon="-1.76968">
        <ele>56</ele>
        <time>2015-06-07T10:19:52Z</time>
      </trkpt>
      <trkpt lat="47.88171" lon="-1.76966">
        <ele>56</ele>
        <time>2015-06-07T10:19:53Z</time>
      </trkpt>
      <trkpt lat="47.88169" lon="-1.76964">
        <ele>56</ele>
        <time>2015-06-07T10:19:54Z</time>
      </trkpt>
      <trkpt lat="47.88166" lon="-1.76961">
        <ele>56</ele>
        <time>2015-06-07T10:19:55Z</time>
      </trkpt>
      <trkpt lat="47.88163" lon="-1.76959">
        <ele>56</ele>
        <time>2015-06-07T10:19:56Z</time>
      </trkpt>
      <trkpt lat="47.88161" lon="-1.76956">
        <ele>56</ele>
        <time>2015-06-07T10:19:57Z</time>
      </trkpt>
      <trkpt lat="47.88158" lon="-1.76954">
        <ele>57</ele>
        <time>2015-06-07T10:19:58Z</time>
      </trkpt>
      <trkpt lat="47.88156" lon="-1.76953">
        <ele>57</ele>
        <time>2015-06-07T10:19:59Z</time>
      </trkpt>
      <trkpt lat="47.88153" lon="-1.7695">
        <ele>57</ele>
        <time>2015-06-07T10:20:00Z</time>
      </trkpt>
      <trkpt lat="47.8815" lon="-1.76948">
        <ele>57</ele>
        <time>2015-06-07T10:20:01Z</time>
      </trkpt>
      <trkpt lat="47.88148" lon="-1.76947">
        <ele>57</ele>
        <time>2015-06-07T10:20:02Z</time>
      </trkpt>
      <trkpt lat="47.88145" lon="-1.76945">
        <ele>57</ele>
        <time>2015-06-07T10:20:03Z</time>
      </trkpt>
      <trkpt lat="47.88143" lon="-1.76943">
        <ele>57</ele>
        <time>2015-06-07T10:20:04Z</time>
      </trkpt>
      <trkpt lat="47.88141" lon="-1.76941">
        <ele>57</ele>
        <time>2015-06-07T10:20:05Z</time>
      </trkpt>
      <trkpt lat="47.88138" lon="-1.76939">
        <ele>57</ele>
        <time>2015-06-07T10:20:06Z</time>
      </trkpt>
      <trkpt lat="47.88136" lon="-1.76937">
        <ele>58</ele>
        <time>2015-06-07T10:20:07Z</time>
      </trkpt>
      <trkpt lat="47.88133" lon="-1.76935">
        <ele>58</ele>
        <time>2015-06-07T10:20:08Z</time>
      </trkpt>
      <trkpt lat="47.88131" lon="-1.76934">
        <ele>58</ele>
        <time>2015-06-07T10:20:09Z</time>
      </trkpt>
      <trkpt lat="47.88128" lon="-1.76932">
        <ele>58</ele>
        <time>2015-06-07T10:20:10Z</time>
      </trkpt>
      <trkpt lat="47.88127" lon="-1.7693">
        <ele>58</ele>
        <time>2015-06-07T10:20:11Z</time>
      </trkpt>
      <trkpt lat="47.88124" lon="-1.76928">
        <ele>58</ele>
        <time>2015-06-07T10:20:12Z</time>
      </trkpt>
      <trkpt lat="47.88122" lon="-1.76926">
        <ele>59</ele>
        <time>2015-06-07T10:20:13Z</time>
      </trkpt>
      <trkpt lat="47.8812" lon="-1.76925">
        <ele>59</ele>
        <time>2015-06-07T10:20:14Z</time>
      </trkpt>
      <trkpt lat="47.88118" lon="-1.76924">
        <ele>59</ele>
        <time>2015-06-07T10:20:15Z</time>
      </trkpt>
      <trkpt lat="47.88116" lon="-1.76922">
        <ele>59</ele>
        <time>2015-06-07T10:20:16Z</time>
      </trkpt>
      <trkpt lat="47.88114" lon="-1.7692">
        <ele>60</ele>
        <time>2015-06-07T10:20:17Z</time>
      </trkpt>
      <trkpt lat="47.88112" lon="-1.76918">
        <ele>60</ele>
        <time>2015-06-07T10:20:18Z</time>
      </trkpt>
      <trkpt lat="47.8811" lon="-1.76917">
        <ele>60</ele>
        <time>2015-06-07T10:20:19Z</time>
      </trkpt>
      <trkpt lat="47.88108" lon="-1.76915">
        <ele>60</ele>
        <time>2015-06-07T10:20:20Z</time>
      </trkpt>
      <trkpt lat="47.88105" lon="-1.76913">
        <ele>61</ele>
        <time>2015-06-07T10:20:21Z</time>
      </trkpt>
      <trkpt lat="47.88103" lon="-1.76911">
        <ele>61</ele>
        <time>2015-06-07T10:20:22Z</time>
      </trkpt>
      <trkpt lat="47.88102" lon="-1.76909">
        <ele>61</ele>
        <time>2015-06-07T10:20:23Z</time>
      </trkpt>
      <trkpt lat="47.881" lon="-1.76907">
        <ele>61</ele>
        <time>2015-06-07T10:20:24Z</time>
      </trkpt>
      <trkpt lat="47.88099" lon="-1.76905">
        <ele>62</ele>
        <time>2015-06-07T10:20:25Z</time>
      </trkpt>
      <trkpt lat="47.88097" lon="-1.76903">
        <ele>62</ele>
        <time>2015-06-07T10:20:26Z</time>
      </trkpt>
      <trkpt lat="47.88096" lon="-1.76901">
        <ele>62</ele>
        <time>2015-06-07T10:20:27Z</time>
      </trkpt>
      <trkpt lat="47.88094" lon="-1.76901">
        <ele>63</ele>
        <time>2015-06-07T10:20:28Z</time>
      </trkpt>
      <trkpt lat="47.88092" lon="-1.769">
        <ele>63</ele>
        <time>2015-06-07T10:20:29Z</time>
      </trkpt>
      <trkpt lat="47.88091" lon="-1.769">
        <ele>63</ele>
        <time>2015-06-07T10:20:30Z</time>
      </trkpt>
      <trkpt lat="47.8809" lon="-1.769">
        <ele>63</ele>
        <time>2015-06-07T10:20:31Z</time>
      </trkpt>
      <trkpt lat="47.88089" lon="-1.769">
        <ele>63</ele>
        <time>2015-06-07T10:20:32Z</time>
      </trkpt>
      <trkpt lat="47.88089" lon="-1.76901">
        <ele>63</ele>
        <time>2015-06-07T10:20:33Z</time>
      </trkpt>
      <trkpt lat="47.88089" lon="-1.76901">
        <ele>63</ele>
        <time>2015-06-07T10:20:34Z</time>
      </trkpt>
      <trkpt lat="47.88088" lon="-1.76901">
        <ele>63</ele>
        <time>2015-06-07T10:20:35Z</time>
      </trkpt>
      <trkpt lat="47.88087" lon="-1.76903">
        <ele>64</ele>
        <time>2015-06-07T10:20:36Z</time>
      </trkpt>
      <trkpt lat="47.88086" lon="-1.76905">
        <ele>64</ele>
        <time>2015-06-07T10:20:37Z</time>
      </trkpt>
      <trkpt lat="47.88085" lon="-1.76907">
        <ele>64</ele>
        <time>2015-06-07T10:20:38Z</time>
      </trkpt>
      <trkpt lat="47.88083" lon="-1.76909">
        <ele>64</ele>
        <time>2015-06-07T10:20:39Z</time>
      </trkpt>
      <trkpt lat="47.88082" lon="-1.76912">
        <ele>64</ele>
        <time>2015-06-07T10:20:40Z</time>
      </trkpt>
      <trkpt lat="47.8808" lon="-1.76914">
        <ele>64</ele>
        <time>2015-06-07T10:20:41Z</time>
      </trkpt>
      <trkpt lat="47.88078" lon="-1.76916">
        <ele>64</ele>
        <time>2015-06-07T10:20:42Z</time>
      </trkpt>
      <trkpt lat="47.88076" lon="-1.76916">
        <ele>64</ele>
        <time>2015-06-07T10:20:43Z</time>
      </trkpt>
      <trkpt lat="47.88073" lon="-1.76918">
        <ele>64</ele>
        <time>2015-06-07T10:20:44Z</time>
      </trkpt>
      <trkpt lat="47.88071" lon="-1.7692">
        <ele>64</ele>
        <time>2015-06-07T10:20:45Z</time>
      </trkpt>
      <trkpt lat="47.88068" lon="-1.76921">
        <ele>64</ele>
        <time>2015-06-07T10:20:46Z</time>
      </trkpt>
      <trkpt lat="47.88066" lon="-1.76921">
        <ele>64</ele>
        <time>2015-06-07T10:20:47Z</time>
      </trkpt>
      <trkpt lat="47.88064" lon="-1.7692">
        <ele>64</ele>
        <time>2015-06-07T10:20:48Z</time>
      </trkpt>
      <trkpt lat="47.88063" lon="-1.76919">
        <ele>64</ele>
        <time>2015-06-07T10:20:49Z</time>
      </trkpt>
      <trkpt lat="47.88062" lon="-1.76918">
        <ele>64</ele>
        <time>2015-06-07T10:20:50Z</time>
      </trkpt>
      <trkpt lat="47.88062" lon="-1.76918">
        <ele>65</ele>
        <time>2015-06-07T10:20:51Z</time>
      </trkpt>
      <trkpt lat="47.88061" lon="-1.76917">
        <ele>65</ele>
        <time>2015-06-07T10:20:52Z</time>
      </trkpt>
      <trkpt lat="47.88061" lon="-1.76915">
        <ele>65</ele>
        <time>2015-06-07T10:20:53Z</time>
      </trkpt>
      <trkpt lat="47.88062" lon="-1.76913">
        <ele>65</ele>
        <time>2015-06-07T10:20:54Z</time>
      </trkpt>
      <trkpt lat="47.88062" lon="-1.76911">
        <ele>65</ele>
        <time>2015-06-07T10:20:55Z</time>
      </trkpt>
      <trkpt lat="47.88063" lon="-1.76909">
        <ele>65</ele>
        <time>2015-06-07T10:20:56Z</time>
      </trkpt>
      <trkpt lat="47.88063" lon="-1.76908">
        <ele>66</ele>
        <time>2015-06-07T10:20:57Z</time>
      </trkpt>
      <trkpt lat="47.88062" lon="-1.76907">
        <ele>66</ele>
        <time>2015-06-07T10:20:58Z</time>
      </trkpt>
      <trkpt lat="47.88061" lon="-1.76906">
        <ele>66</ele>
        <time>2015-06-07T10:20:59Z</time>
      </trkpt>
      <trkpt lat="47.8806" lon="-1.76905">
        <ele>66</ele>
        <time>2015-06-07T10:21:00Z</time>
      </trkpt>
      <trkpt lat="47.8806" lon="-1.76904">
        <ele>67</ele>
        <time>2015-06-07T10:21:01Z</time>
      </trkpt>
      <trkpt lat="47.8806" lon="-1.76902">
        <ele>67</ele>
        <time>2015-06-07T10:21:02Z</time>
      </trkpt>
      <trkpt lat="47.8806" lon="-1.769">
        <ele>67</ele>
        <time>2015-06-07T10:21:03Z</time>
      </trkpt>
      <trkpt lat="47.88061" lon="-1.76898">
        <ele>68</ele>
        <time>2015-06-07T10:21:04Z</time>
      </trkpt>
      <trkpt lat="47.8806" lon="-1.76896">
        <ele>68</ele>
        <time>2015-06-07T10:21:05Z</time>
      </trkpt>
      <trkpt lat="47.88059" lon="-1.76895">
        <ele>68</ele>
        <time>2015-06-07T10:21:06Z</time>
      </trkpt>
      <trkpt lat="47.88057" lon="-1.76895">
        <ele>69</ele>
        <time>2015-06-07T10:21:07Z</time>
      </trkpt>
      <trkpt lat="47.88056" lon="-1.76895">
        <ele>69</ele>
        <time>2015-06-07T10:21:08Z</time>
      </trkpt>
      <trkpt lat="47.88055" lon="-1.76897">
        <ele>70</ele>
        <time>2015-06-07T10:21:09Z</time>
      </trkpt>
      <trkpt lat="47.88053" lon="-1.76898">
        <ele>70</ele>
        <time>2015-06-07T10:21:10Z</time>
      </trkpt>
      <trkpt lat="47.88052" lon="-1.76897">
        <ele>71</ele>
        <time>2015-06-07T10:21:11Z</time>
      </trkpt>
      <trkpt lat="47.8805" lon="-1.76897">
        <ele>71</ele>
        <time>2015-06-07T10:21:12Z</time>
      </trkpt>
      <trkpt lat="47.88049" lon="-1.76896">
        <ele>72</ele>
        <time>2015-06-07T10:21:13Z</time>
      </trkpt>
      <trkpt lat="47.88048" lon="-1.76895">
        <ele>72</ele>
        <time>2015-06-07T10:21:14Z</time>
      </trkpt>
      <trkpt lat="47.88047" lon="-1.76895">
        <ele>72</ele>
        <time>2015-06-07T10:21:15Z</time>
      </trkpt>
      <trkpt lat="47.88046" lon="-1.76895">
        <ele>72</ele>
        <time>2015-06-07T10:21:16Z</time>
      </trkpt>
      <trkpt lat="47.88045" lon="-1.76894">
        <ele>72</ele>
        <time>2015-06-07T10:21:17Z</time>
      </trkpt>
      <trkpt lat="47.88045" lon="-1.76893">
        <ele>73</ele>
        <time>2015-06-07T10:21:18Z</time>
      </trkpt>
      <trkpt lat="47.88044" lon="-1.76892">
        <ele>73</ele>
        <time>2015-06-07T10:21:19Z</time>
      </trkpt>
      <trkpt lat="47.88044" lon="-1.76891">
        <ele>73</ele>
        <time>2015-06-07T10:21:20Z</time>
      </trkpt>
      <trkpt lat="47.88044" lon="-1.7689">
        <ele>73</ele>
        <time>2015-06-07T10:21:21Z</time>
      </trkpt>
      <trkpt lat="47.88043" lon="-1.76889">
        <ele>73</ele>
        <time>2015-06-07T10:21:22Z</time>
      </trkpt>
      <trkpt lat="47.88042" lon="-1.76888">
        <ele>74</ele>
        <time>2015-06-07T10:21:23Z</time>
      </trkpt>
      <trkpt lat="47.88042" lon="-1.76886">
        <ele>74</ele>
        <time>2015-06-07T10:21:24Z</time>
      </trkpt>
      <trkpt lat="47.88041" lon="-1.76884">
        <ele>74</ele>
        <time>2015-06-07T10:21:25Z</time>
      </trkpt>
      <trkpt lat="47.8804" lon="-1.76882">
        <ele>74</ele>
        <time>2015-06-07T10:21:26Z</time>
      </trkpt>
      <trkpt lat="47.88039" lon="-1.76881">
        <ele>74</ele>
        <time>2015-06-07T10:21:27Z</time>
      </trkpt>
      <trkpt lat="47.88038" lon="-1.76881">
        <ele>74</ele>
        <time>2015-06-07T10:21:28Z</time>
      </trkpt>
      <trkpt lat="47.88037" lon="-1.76882">
        <ele>74</ele>
        <time>2015-06-07T10:21:29Z</time>
      </trkpt>
      <trkpt lat="47.88035" lon="-1.76883">
        <ele>75</ele>
        <time>2015-06-07T10:21:30Z</time>
      </trkpt>
      <trkpt lat="47.88033" lon="-1.76884">
        <ele>75</ele>
        <time>2015-06-07T10:21:31Z</time>
      </trkpt>
      <trkpt lat="47.88032" lon="-1.76885">
        <ele>75</ele>
        <time>2015-06-07T10:21:32Z</time>
      </trkpt>
      <trkpt lat="47.8803" lon="-1.76886">
        <ele>75</ele>
        <time>2015-06-07T10:21:33Z</time>
      </trkpt>
      <trkpt lat="47.88029" lon="-1.76886">
        <ele>75</ele>
        <time>2015-06-07T10:21:34Z</time>
      </trkpt>
      <trkpt lat="47.88027" lon="-1.76886">
        <ele>75</ele>
        <time>2015-06-07T10:21:35Z</time>
      </trkpt>
      <trkpt lat="47.88026" lon="-1.76886">
        <ele>75</ele>
        <time>2015-06-07T10:21:36Z</time>
      </trkpt>
      <trkpt lat="47.88024" lon="-1.76885">
        <ele>75</ele>
        <time>2015-06-07T10:21:37Z</time>
      </trkpt>
      <trkpt lat="47.88023" lon="-1.76884">
        <ele>76</ele>
        <time>2015-06-07T10:21:38Z</time>
      </trkpt>
      <trkpt lat="47.88022" lon="-1.76882">
        <ele>76</ele>
        <time>2015-06-07T10:21:39Z</time>
      </trkpt>
      <trkpt lat="47.8802" lon="-1.76881">
        <ele>76</ele>
        <time>2015-06-07T10:21:40Z</time>
      </trkpt>
      <trkpt lat="47.88019" lon="-1.7688">
        <ele>76</ele>
        <time>2015-06-07T10:21:41Z</time>
      </trkpt>
      <trkpt lat="47.88017" lon="-1.76879">
        <ele>76</ele>
        <time>2015-06-07T10:21:42Z</time>
      </trkpt>
      <trkpt lat="47.88015" lon="-1.76879">
        <ele>76</ele>
        <time>2015-06-07T10:21:43Z</time>
      </trkpt>
      <trkpt lat="47.88012" lon="-1.76878">
        <ele>76</ele>
        <time>2015-06-07T10:21:44Z</time>
      </trkpt>
      <trkpt lat="47.8801" lon="-1.76878">
        <ele>76</ele>
        <time>2015-06-07T10:21:45Z</time>
      </trkpt>
      <trkpt lat="47.88008" lon="-1.76878">
        <ele>76</ele>
        <time>2015-06-07T10:21:46Z</time>
      </trkpt>
      <trkpt lat="47.88006" lon="-1.76879">
        <ele>77</ele>
        <time>2015-06-07T10:21:47Z</time>
      </trkpt>
      <trkpt lat="47.88005" lon="-1.76881">
        <ele>77</ele>
        <time>2015-06-07T10:21:48Z</time>
      </trkpt>
      <trkpt lat="47.88004" lon="-1.76883">
        <ele>77</ele>
        <time>2015-06-07T10:21:49Z</time>
      </trkpt>
      <trkpt lat="47.88004" lon="-1.76886">
        <ele>77</ele>
        <time>2015-06-07T10:21:50Z</time>
      </trkpt>
      <trkpt lat="47.88004" lon="-1.76888">
        <ele>78</ele>
        <time>2015-06-07T10:21:51Z</time>
      </trkpt>
      <trkpt lat="47.88005" lon="-1.76889">
        <ele>78</ele>
        <time>2015-06-07T10:21:52Z</time>
      </trkpt>
      <trkpt lat="47.88006" lon="-1.7689">
        <ele>78</ele>
        <time>2015-06-07T10:21:53Z</time>
      </trkpt>
      <trkpt lat="47.88007" lon="-1.76892">
        <ele>78</ele>
        <time>2015-06-07T10:21:54Z</time>
      </trkpt>
      <trkpt lat="47.88008" lon="-1.76895">
        <ele>78</ele>
        <time>2015-06-07T10:21:55Z</time>
      </trkpt>
      <trkpt lat="47.88008" lon="-1.76898">
        <ele>78</ele>
        <time>2015-06-07T10:21:56Z</time>
      </trkpt>
      <trkpt lat="47.88009" lon="-1.76902">
        <ele>78</ele>
        <time>2015-06-07T10:21:57Z</time>
      </trkpt>
      <trkpt lat="47.8801" lon="-1.76907">
        <ele>79</ele>
        <time>2015-06-07T10:21:58Z</time>
      </trkpt>
      <trkpt lat="47.8801" lon="-1.76911">
        <ele>79</ele>
        <time>2015-06-07T10:21:59Z</time>
      </trkpt>
      <trkpt lat="47.88009" lon="-1.76915">
        <ele>79</ele>
        <time>2015-06-07T10:22:00Z</time>
      </trkpt>
      <trkpt lat="47.88007" lon="-1.76917">
        <ele>79</ele>
        <time>2015-06-07T10:22:01Z</time>
      </trkpt>
      <trkpt lat="47.88004" lon="-1.7692">
        <ele>79</ele>
        <time>2015-06-07T10:22:02Z</time>
      </trkpt>
      <trkpt lat="47.88003" lon="-1.76921">
        <ele>79</ele>
        <time>2015-06-07T10:22:03Z</time>
      </trkpt>
      <trkpt lat="47.88001" lon="-1.7692">
        <ele>80</ele>
        <time>2015-06-07T10:22:04Z</time>
      </trkpt>
      <trkpt lat="47.88" lon="-1.7692">
        <ele>80</ele>
        <time>2015-06-07T10:22:05Z</time>
      </trkpt>
      <trkpt lat="47.88" lon="-1.76919">
        <ele>80</ele>
        <time>2015-06-07T10:22:06Z</time>
      </trkpt>
      <trkpt lat="47.87999" lon="-1.76919">
        <ele>80</ele>
        <time>2015-06-07T10:22:07Z</time>
      </trkpt>
      <trkpt lat="47.87999" lon="-1.76919">
        <ele>80</ele>
        <time>2015-06-07T10:22:08Z</time>
      </trkpt>
      <trkpt lat="47.87998" lon="-1.76921">
        <ele>81</ele>
        <time>2015-06-07T10:22:09Z</time>
      </trkpt>
      <trkpt lat="47.87997" lon="-1.76922">
        <ele>81</ele>
        <time>2015-06-07T10:22:10Z</time>
      </trkpt>
      <trkpt lat="47.87997" lon="-1.76925">
        <ele>81</ele>
        <time>2015-06-07T10:22:11Z</time>
      </trkpt>
      <trkpt lat="47.87997" lon="-1.76929">
        <ele>82</ele>
        <time>2015-06-07T10:22:12Z</time>
      </trkpt>
      <trkpt lat="47.87998" lon="-1.76932">
        <ele>82</ele>
        <time>2015-06-07T10:22:13Z</time>
      </trkpt>
      <trkpt lat="47.88001" lon="-1.76934">
        <ele>82</ele>
        <time>2015-06-07T10:22:14Z</time>
      </trkpt>
      <trkpt lat="47.88003" lon="-1.76937">
        <ele>82</ele>
        <time>2015-06-07T10:22:15Z</time>
      </trkpt>
      <trkpt lat="47.88005" lon="-1.76941">
        <ele>82</ele>
        <time>2015-06-07T10:22:16Z</time>
      </trkpt>
      <trkpt lat="47.88005" lon="-1.76944">
        <ele>83</ele>
        <time>2015-06-07T10:22:17Z</time>
      </trkpt>
      <trkpt lat="47.88004" lon="-1.76947">
        <ele>83</ele>
        <time>2015-06-07T10:22:18Z</time>
      </trkpt>
      <trkpt lat="47.88004" lon="-1.7695">
        <ele>83</ele>
        <time>2015-06-07T10:22:19Z</time>
      </trkpt>
      <trkpt lat="47.88004" lon="-1.76953">
        <ele>83</ele>
        <time>2015-06-07T10:22:20Z</time>
      </trkpt>
      <trkpt lat="47.88006" lon="-1.76957">
        <ele>83</ele>
        <time>2015-06-07T10:22:21Z</time>
      </trkpt>
      <trkpt lat="47.88008" lon="-1.76961">
        <ele>83</ele>
        <time>2015-06-07T10:22:22Z</time>
      </trkpt>
      <trkpt lat="47.8801" lon="-1.76964">
        <ele>82</ele>
        <time>2015-06-07T10:22:23Z</time>
      </trkpt>
      <trkpt lat="47.88012" lon="-1.76966">
        <ele>82</ele>
        <time>2015-06-07T10:22:24Z</time>
      </trkpt>
      <trkpt lat="47.88014" lon="-1.76966">
        <ele>82</ele>
        <time>2015-06-07T10:22:25Z</time>
      </trkpt>
      <trkpt lat="47.88016" lon="-1.76965">
        <ele>82</ele>
        <time>2015-06-07T10:22:26Z</time>
      </trkpt>
      <trkpt lat="47.88018" lon="-1.76965">
        <ele>82</ele>
        <time>2015-06-07T10:22:27Z</time>
      </trkpt>
      <trkpt lat="47.8802" lon="-1.76964">
        <ele>81</ele>
        <time>2015-06-07T10:22:28Z</time>
      </trkpt>
      <trkpt lat="47.88022" lon="-1.76964">
        <ele>81</ele>
        <time>2015-06-07T10:22:29Z</time>
      </trkpt>
      <trkpt lat="47.88023" lon="-1.76962">
        <ele>81</ele>
        <time>2015-06-07T10:22:30Z</time>
      </trkpt>
      <trkpt lat="47.88024" lon="-1.76961">
        <ele>81</ele>
        <time>2015-06-07T10:22:31Z</time>
      </trkpt>
      <trkpt lat="47.88024" lon="-1.7696">
        <ele>80</ele>
        <time>2015-06-07T10:22:32Z</time>
      </trkpt>
      <trkpt lat="47.88024" lon="-1.76961">
        <ele>80</ele>
        <time>2015-06-07T10:22:33Z</time>
      </trkpt>
      <trkpt lat="47.88024" lon="-1.76962">
        <ele>80</ele>
        <time>2015-06-07T10:22:34Z</time>
      </trkpt>
      <trkpt lat="47.88023" lon="-1.76963">
        <ele>80</ele>
        <time>2015-06-07T10:22:35Z</time>
      </trkpt>
      <trkpt lat="47.88022" lon="-1.76964">
        <ele>80</ele>
        <time>2015-06-07T10:22:36Z</time>
      </trkpt>
      <trkpt lat="47.88021" lon="-1.76965">
        <ele>79</ele>
        <time>2015-06-07T10:22:37Z</time>
      </trkpt>
      <trkpt lat="47.8802" lon="-1.76967">
        <ele>79</ele>
        <time>2015-06-07T10:22:38Z</time>
      </trkpt>
      <trkpt lat="47.88019" lon="-1.76967">
        <ele>79</ele>
        <time>2015-06-07T10:22:39Z</time>
      </trkpt>
      <trkpt lat="47.88018" lon="-1.76969">
        <ele>79</ele>
        <time>2015-06-07T10:22:40Z</time>
      </trkpt>
      <trkpt lat="47.88016" lon="-1.76973">
        <ele>78</ele>
        <time>2015-06-07T10:22:41Z</time>
      </trkpt>
      <trkpt lat="47.88015" lon="-1.76975">
        <ele>78</ele>
        <time>2015-06-07T10:22:42Z</time>
      </trkpt>
      <trkpt lat="47.88015" lon="-1.76976">
        <ele>78</ele>
        <time>2015-06-07T10:22:43Z</time>
      </trkpt>
      <trkpt lat="47.88014" lon="-1.76976">
        <ele>78</ele>
        <time>2015-06-07T10:22:44Z</time>
      </trkpt>
      <trkpt lat="47.88013" lon="-1.76976">
        <ele>78</ele>
        <time>2015-06-07T10:22:45Z</time>
      </trkpt>
      <trkpt lat="47.88013" lon="-1.76976">
        <ele>78</ele>
        <time>2015-06-07T10:22:46Z</time>
      </trkpt>
      <trkpt lat="47.88011" lon="-1.76976">
        <ele>78</ele>
        <time>2015-06-07T10:22:47Z</time>
      </trkpt>
      <trkpt lat="47.88011" lon="-1.76975">
        <ele>78</ele>
        <time>2015-06-07T10:22:48Z</time>
      </trkpt>
      <trkpt lat="47.88011" lon="-1.76974">
        <ele>77</ele>
        <time>2015-06-07T10:22:49Z</time>
      </trkpt>
      <trkpt lat="47.8801" lon="-1.76973">
        <ele>77</ele>
        <time>2015-06-07T10:22:50Z</time>
      </trkpt>
      <trkpt lat="47.8801" lon="-1.76973">
        <ele>77</ele>
        <time>2015-06-07T10:22:51Z</time>
      </trkpt>
      <trkpt lat="47.8801" lon="-1.76972">
        <ele>77</ele>
        <time>2015-06-07T10:22:52Z</time>
      </trkpt>
      <trkpt lat="47.88009" lon="-1.76972">
        <ele>77</ele>
        <time>2015-06-07T10:22:53Z</time>
      </trkpt>
      <trkpt lat="47.88008" lon="-1.76971">
        <ele>77</ele>
        <time>2015-06-07T10:22:54Z</time>
      </trkpt>
      <trkpt lat="47.88007" lon="-1.7697">
        <ele>77</ele>
        <time>2015-06-07T10:22:55Z</time>
      </trkpt>
      <trkpt lat="47.88006" lon="-1.7697">
        <ele>77</ele>
        <time>2015-06-07T10:22:56Z</time>
      </trkpt>
      <trkpt lat="47.88005" lon="-1.76968">
        <ele>77</ele>
        <time>2015-06-07T10:22:57Z</time>
      </trkpt>
      <trkpt lat="47.88003" lon="-1.76969">
        <ele>77</ele>
        <time>2015-06-07T10:22:58Z</time>
      </trkpt>
      <trkpt lat="47.88003" lon="-1.76971">
        <ele>77</ele>
        <time>2015-06-07T10:22:59Z</time>
      </trkpt>
      <trkpt lat="47.88003" lon="-1.76974">
        <ele>76</ele>
        <time>2015-06-07T10:23:00Z</time>
      </trkpt>
      <trkpt lat="47.88004" lon="-1.76976">
        <ele>76</ele>
        <time>2015-06-07T10:23:01Z</time>
      </trkpt>
      <trkpt lat="47.88006" lon="-1.76978">
        <ele>76</ele>
        <time>2015-06-07T10:23:02Z</time>
      </trkpt>
      <trkpt lat="47.88008" lon="-1.76981">
        <ele>76</ele>
        <time>2015-06-07T10:23:03Z</time>
      </trkpt>
      <trkpt lat="47.88011" lon="-1.76984">
        <ele>76</ele>
        <time>2015-06-07T10:23:04Z</time>
      </trkpt>
      <trkpt lat="47.88013" lon="-1.76988">
        <ele>76</ele>
        <time>2015-06-07T10:23:05Z</time>
      </trkpt>
      <trkpt lat="47.88015" lon="-1.7699">
        <ele>76</ele>
        <time>2015-06-07T10:23:06Z</time>
      </trkpt>
      <trkpt lat="47.88016" lon="-1.76992">
        <ele>76</ele>
        <time>2015-06-07T10:23:07Z</time>
      </trkpt>
      <trkpt lat="47.88018" lon="-1.76994">
        <ele>76</ele>
        <time>2015-06-07T10:23:08Z</time>
      </trkpt>
      <trkpt lat="47.8802" lon="-1.76995">
        <ele>76</ele>
        <time>2015-06-07T10:23:09Z</time>
      </trkpt>
      <trkpt lat="47.8802" lon="-1.76995">
        <ele>76</ele>
        <time>2015-06-07T10:23:10Z</time>
      </trkpt>
      <trkpt lat="47.88021" lon="-1.76995">
        <ele>76</ele>
        <time>2015-06-07T10:23:11Z</time>
      </trkpt>
      <trkpt lat="47.88023" lon="-1.76993">
        <ele>76</ele>
        <time>2015-06-07T10:23:12Z</time>
      </trkpt>
      <trkpt lat="47.88024" lon="-1.76992">
        <ele>76</ele>
        <time>2015-06-07T10:23:13Z</time>
      </trkpt>
      <trkpt lat="47.88026" lon="-1.7699">
        <ele>76</ele>
        <time>2015-06-07T10:23:14Z</time>
      </trkpt>
      <trkpt lat="47.88027" lon="-1.76989">
        <ele>76</ele>
        <time>2015-06-07T10:23:15Z</time>
      </trkpt>
      <trkpt lat="47.88028" lon="-1.76986">
        <ele>76</ele>
        <time>2015-06-07T10:23:16Z</time>
      </trkpt>
      <trkpt lat="47.8803" lon="-1.76983">
        <ele>76</ele>
        <time>2015-06-07T10:23:17Z</time>
      </trkpt>
      <trkpt lat="47.88032" lon="-1.76979">
        <ele>76</ele>
        <time>2015-06-07T10:23:18Z</time>
      </trkpt>
      <trkpt lat="47.88034" lon="-1.76978">
        <ele>75</ele>
        <time>2015-06-07T10:23:19Z</time>
      </trkpt>
      <trkpt lat="47.88035" lon="-1.76979">
        <ele>75</ele>
        <time>2015-06-07T10:23:20Z</time>
      </trkpt>
      <trkpt lat="47.88036" lon="-1.7698">
        <ele>75</ele>
        <time>2015-06-07T10:23:21Z</time>
      </trkpt>
      <trkpt lat="47.88035" lon="-1.7698">
        <ele>75</ele>
        <time>2015-06-07T10:23:22Z</time>
      </trkpt>
      <trkpt lat="47.88034" lon="-1.76981">
        <ele>75</ele>
        <time>2015-06-07T10:23:23Z</time>
      </trkpt>
      <trkpt lat="47.88033" lon="-1.76981">
        <ele>75</ele>
        <time>2015-06-07T10:23:24Z</time>
      </trkpt>
      <trkpt lat="47.88031" lon="-1.76982">
        <ele>75</ele>
        <time>2015-06-07T10:23:25Z</time>
      </trkpt>
      <trkpt lat="47.8803" lon="-1.76983">
        <ele>75</ele>
        <time>2015-06-07T10:23:26Z</time>
      </trkpt>
      <trkpt lat="47.88029" lon="-1.76983">
        <ele>75</ele>
        <time>2015-06-07T10:23:27Z</time>
      </trkpt>
      <trkpt lat="47.88027" lon="-1.76985">
        <ele>75</ele>
        <time>2015-06-07T10:23:28Z</time>
      </trkpt>
      <trkpt lat="47.88026" lon="-1.76989">
        <ele>75</ele>
        <time>2015-06-07T10:23:29Z</time>
      </trkpt>
      <trkpt lat="47.88026" lon="-1.76992">
        <ele>75</ele>
        <time>2015-06-07T10:23:30Z</time>
      </trkpt>
      <trkpt lat="47.88026" lon="-1.76995">
        <ele>75</ele>
        <time>2015-06-07T10:23:31Z</time>
      </trkpt>
      <trkpt lat="47.88025" lon="-1.76999">
        <ele>75</ele>
        <time>2015-06-07T10:23:32Z</time>
      </trkpt>
      <trkpt lat="47.88025" lon="-1.77002">
        <ele>75</ele>
        <time>2015-06-07T10:23:33Z</time>
      </trkpt>
      <trkpt lat="47.88026" lon="-1.77003">
        <ele>75</ele>
        <time>2015-06-07T10:23:34Z</time>
      </trkpt>
      <trkpt lat="47.88027" lon="-1.77004">
        <ele>75</ele>
        <time>2015-06-07T10:23:35Z</time>
      </trkpt>
      <trkpt lat="47.88029" lon="-1.77005">
        <ele>75</ele>
        <time>2015-06-07T10:23:36Z</time>
      </trkpt>
      <trkpt lat="47.88032" lon="-1.77007">
        <ele>75</ele>
        <time>2015-06-07T10:23:37Z</time>
      </trkpt>
      <trkpt lat="47.88034" lon="-1.77009">
        <ele>75</ele>
        <time>2015-06-07T10:23:38Z</time>
      </trkpt>
      <trkpt lat="47.88036" lon="-1.77011">
        <ele>75</ele>
        <time>2015-06-07T10:23:39Z</time>
      </trkpt>
      <trkpt lat="47.88036" lon="-1.77012">
        <ele>74</ele>
        <time>2015-06-07T10:23:40Z</time>
      </trkpt>
      <trkpt lat="47.88036" lon="-1.77014">
        <ele>74</ele>
        <time>2015-06-07T10:23:41Z</time>
      </trkpt>
      <trkpt lat="47.88036" lon="-1.77015">
        <ele>74</ele>
        <time>2015-06-07T10:23:42Z</time>
      </trkpt>
      <trkpt lat="47.88037" lon="-1.77017">
        <ele>74</ele>
        <time>2015-06-07T10:23:43Z</time>
      </trkpt>
      <trkpt lat="47.88038" lon="-1.77019">
        <ele>73</ele>
        <time>2015-06-07T10:23:44Z</time>
      </trkpt>
      <trkpt lat="47.88039" lon="-1.77022">
        <ele>73</ele>
        <time>2015-06-07T10:23:45Z</time>
      </trkpt>
      <trkpt lat="47.88039" lon="-1.77025">
        <ele>73</ele>
        <time>2015-06-07T10:23:46Z</time>
      </trkpt>
      <trkpt lat="47.8804" lon="-1.77027">
        <ele>73</ele>
        <time>2015-06-07T10:23:47Z</time>
      </trkpt>
      <trkpt lat="47.8804" lon="-1.77028">
        <ele>73</ele>
        <time>2015-06-07T10:23:48Z</time>
      </trkpt>
      <trkpt lat="47.8804" lon="-1.77029">
        <ele>72</ele>
        <time>2015-06-07T10:23:49Z</time>
      </trkpt>
      <trkpt lat="47.8804" lon="-1.77028">
        <ele>72</ele>
        <time>2015-06-07T10:23:50Z</time>
      </trkpt>
      <trkpt lat="47.8804" lon="-1.77027">
        <ele>72</ele>
        <time>2015-06-07T10:23:51Z</time>
      </trkpt>
      <trkpt lat="47.88039" lon="-1.77028">
        <ele>72</ele>
        <time>2015-06-07T10:23:52Z</time>
      </trkpt>
      <trkpt lat="47.88037" lon="-1.77028">
        <ele>72</ele>
        <time>2015-06-07T10:23:53Z</time>
      </trkpt>
      <trkpt lat="47.88036" lon="-1.77029">
        <ele>73</ele>
        <time>2015-06-07T10:23:54Z</time>
      </trkpt>
      <trkpt lat="47.88034" lon="-1.77029">
        <ele>73</ele>
        <time>2015-06-07T10:23:55Z</time>
      </trkpt>
      <trkpt lat="47.88033" lon="-1.77029">
        <ele>73</ele>
        <time>2015-06-07T10:23:56Z</time>
      </trkpt>
      <trkpt lat="47.88031" lon="-1.77029">
        <ele>73</ele>
        <time>2015-06-07T10:23:57Z</time>
      </trkpt>
      <trkpt lat="47.8803" lon="-1.77027">
        <ele>73</ele>
        <time>2015-06-07T10:23:58Z</time>
      </trkpt>
      <trkpt lat="47.88029" lon="-1.77026">
        <ele>73</ele>
        <time>2015-06-07T10:23:59Z</time>
      </trkpt>
      <trkpt lat="47.88028" lon="-1.77025">
        <ele>73</ele>
        <time>2015-06-07T10:24:00Z</time>
      </trkpt>
      <trkpt lat="47.88027" lon="-1.77026">
        <ele>73</ele>
        <time>2015-06-07T10:24:01Z</time>
      </trkpt>
      <trkpt lat="47.88025" lon="-1.77028">
        <ele>73</ele>
        <time>2015-06-07T10:24:02Z</time>
      </trkpt>
      <trkpt lat="47.88023" lon="-1.7703">
        <ele>73</ele>
        <time>2015-06-07T10:24:03Z</time>
      </trkpt>
      <trkpt lat="47.88022" lon="-1.77033">
        <ele>73</ele>
        <time>2015-06-07T10:24:04Z</time>
      </trkpt>
      <trkpt lat="47.88022" lon="-1.77036">
        <ele>73</ele>
        <time>2015-06-07T10:24:05Z</time>
      </trkpt>
      <trkpt lat="47.88023" lon="-1.77039">
        <ele>73</ele>
        <time>2015-06-07T10:24:06Z</time>
      </trkpt>
      <trkpt lat="47.88023" lon="-1.77042">
        <ele>73</ele>
        <time>2015-06-07T10:24:07Z</time>
      </trkpt>
      <trkpt lat="47.88025" lon="-1.77043">
        <ele>73</ele>
        <time>2015-06-07T10:24:08Z</time>
      </trkpt>
      <trkpt lat="47.88027" lon="-1.77043">
        <ele>73</ele>
        <time>2015-06-07T10:24:09Z</time>
      </trkpt>
      <trkpt lat="47.88029" lon="-1.77044">
        <ele>73</ele>
        <time>2015-06-07T10:24:10Z</time>
      </trkpt>
      <trkpt lat="47.88031" lon="-1.77046">
        <ele>72</ele>
        <time>2015-06-07T10:24:11Z</time>
      </trkpt>
      <trkpt lat="47.88033" lon="-1.77048">
        <ele>72</ele>
        <time>2015-06-07T10:24:12Z</time>
      </trkpt>
      <trkpt lat="47.88035" lon="-1.77051">
        <ele>72</ele>
        <time>2015-06-07T10:24:13Z</time>
      </trkpt>
      <trkpt lat="47.88037" lon="-1.77053">
        <ele>72</ele>
        <time>2015-06-07T10:24:14Z</time>
      </trkpt>
      <trkpt lat="47.88039" lon="-1.77056">
        <ele>71</ele>
        <time>2015-06-07T10:24:15Z</time>
      </trkpt>
      <trkpt lat="47.8804" lon="-1.77059">
        <ele>71</ele>
        <time>2015-06-07T10:24:16Z</time>
      </trkpt>
      <trkpt lat="47.88042" lon="-1.77062">
        <ele>71</ele>
        <time>2015-06-07T10:24:17Z</time>
      </trkpt>
      <trkpt lat="47.88044" lon="-1.77063">
        <ele>71</ele>
        <time>2015-06-07T10:24:18Z</time>
      </trkpt>
      <trkpt lat="47.88046" lon="-1.77066">
        <ele>70</ele>
        <time>2015-06-07T10:24:19Z</time>
      </trkpt>
      <trkpt lat="47.88047" lon="-1.77069">
        <ele>70</ele>
        <time>2015-06-07T10:24:20Z</time>
      </trkpt>
      <trkpt lat="47.88047" lon="-1.77071">
        <ele>70</ele>
        <time>2015-06-07T10:24:21Z</time>
      </trkpt>
      <trkpt lat="47.88046" lon="-1.77071">
        <ele>70</ele>
        <time>2015-06-07T10:24:22Z</time>
      </trkpt>
      <trkpt lat="47.88045" lon="-1.77072">
        <ele>69</ele>
        <time>2015-06-07T10:24:23Z</time>
      </trkpt>
      <trkpt lat="47.88044" lon="-1.77073">
        <ele>69</ele>
        <time>2015-06-07T10:24:24Z</time>
      </trkpt>
      <trkpt lat="47.88042" lon="-1.77073">
        <ele>69</ele>
        <time>2015-06-07T10:24:25Z</time>
      </trkpt>
      <trkpt lat="47.88041" lon="-1.77072">
        <ele>69</ele>
        <time>2015-06-07T10:24:26Z</time>
      </trkpt>
      <trkpt lat="47.88039" lon="-1.77072">
        <ele>69</ele>
        <time>2015-06-07T10:24:27Z</time>
      </trkpt>
      <trkpt lat="47.88038" lon="-1.77072">
        <ele>68</ele>
        <time>2015-06-07T10:24:28Z</time>
      </trkpt>
      <trkpt lat="47.88037" lon="-1.77073">
        <ele>68</ele>
        <time>2015-06-07T10:24:29Z</time>
      </trkpt>
      <trkpt lat="47.88036" lon="-1.77072">
        <ele>68</ele>
        <time>2015-06-07T10:24:30Z</time>
      </trkpt>
      <trkpt lat="47.88036" lon="-1.7707">
        <ele>68</ele>
        <time>2015-06-07T10:24:31Z</time>
      </trkpt>
      <trkpt lat="47.88036" lon="-1.7707">
        <ele>68</ele>
        <time>2015-06-07T10:24:32Z</time>
      </trkpt>
      <trkpt lat="47.88034" lon="-1.7707">
        <ele>68</ele>
        <time>2015-06-07T10:24:33Z</time>
      </trkpt>
      <trkpt lat="47.88033" lon="-1.7707">
        <ele>69</ele>
        <time>2015-06-07T10:24:34Z</time>
      </trkpt>
      <trkpt lat="47.88031" lon="-1.7707">
        <ele>69</ele>
        <time>2015-06-07T10:24:35Z</time>
      </trkpt>
      <trkpt lat="47.8803" lon="-1.77071">
        <ele>69</ele>
        <time>2015-06-07T10:24:36Z</time>
      </trkpt>
      <trkpt lat="47.88028" lon="-1.77071">
        <ele>69</ele>
        <time>2015-06-07T10:24:37Z</time>
      </trkpt>
      <trkpt lat="47.88027" lon="-1.77072">
        <ele>69</ele>
        <time>2015-06-07T10:24:38Z</time>
      </trkpt>
      <trkpt lat="47.88025" lon="-1.77074">
        <ele>69</ele>
        <time>2015-06-07T10:24:39Z</time>
      </trkpt>
      <trkpt lat="47.88024" lon="-1.77076">
        <ele>68</ele>
        <time>2015-06-07T10:24:40Z</time>
      </trkpt>
      <trkpt lat="47.88022" lon="-1.77077">
        <ele>68</ele>
        <time>2015-06-07T10:24:41Z</time>
      </trkpt>
      <trkpt lat="47.88021" lon="-1.77077">
        <ele>68</ele>
        <time>2015-06-07T10:24:42Z</time>
      </trkpt>
      <trkpt lat="47.88019" lon="-1.77076">
        <ele>68</ele>
        <time>2015-06-07T10:24:43Z</time>
      </trkpt>
      <trkpt lat="47.88018" lon="-1.77075">
        <ele>68</ele>
        <time>2015-06-07T10:24:44Z</time>
      </trkpt>
      <trkpt lat="47.88017" lon="-1.77075">
        <ele>68</ele>
        <time>2015-06-07T10:24:45Z</time>
      </trkpt>
      <trkpt lat="47.88016" lon="-1.77076">
        <ele>69</ele>
        <time>2015-06-07T10:24:46Z</time>
      </trkpt>
      <trkpt lat="47.88014" lon="-1.77077">
        <ele>69</ele>
        <time>2015-06-07T10:24:47Z</time>
      </trkpt>
      <trkpt lat="47.88012" lon="-1.77077">
        <ele>69</ele>
        <time>2015-06-07T10:24:48Z</time>
      </trkpt>
      <trkpt lat="47.8801" lon="-1.77076">
        <ele>69</ele>
        <time>2015-06-07T10:24:49Z</time>
      </trkpt>
      <trkpt lat="47.88009" lon="-1.77075">
        <ele>70</ele>
        <time>2015-06-07T10:24:50Z</time>
      </trkpt>
      <trkpt lat="47.88008" lon="-1.77074">
        <ele>70</ele>
        <time>2015-06-07T10:24:51Z</time>
      </trkpt>
      <trkpt lat="47.88007" lon="-1.77074">
        <ele>70</ele>
        <time>2015-06-07T10:24:52Z</time>
      </trkpt>
      <trkpt lat="47.88006" lon="-1.77073">
        <ele>71</ele>
        <time>2015-06-07T10:24:53Z</time>
      </trkpt>
      <trkpt lat="47.88004" lon="-1.77073">
        <ele>71</ele>
        <time>2015-06-07T10:24:54Z</time>
      </trkpt>
      <trkpt lat="47.88002" lon="-1.77073">
        <ele>71</ele>
        <time>2015-06-07T10:24:55Z</time>
      </trkpt>
      <trkpt lat="47.88001" lon="-1.77072">
        <ele>72</ele>
        <time>2015-06-07T10:24:56Z</time>
      </trkpt>
      <trkpt lat="47.87999" lon="-1.77072">
        <ele>72</ele>
        <time>2015-06-07T10:24:57Z</time>
      </trkpt>
      <trkpt lat="47.87997" lon="-1.77071">
        <ele>72</ele>
        <time>2015-06-07T10:24:58Z</time>
      </trkpt>
      <trkpt lat="47.87996" lon="-1.7707">
        <ele>72</ele>
        <time>2015-06-07T10:24:59Z</time>
      </trkpt>
      <trkpt lat="47.87994" lon="-1.77069">
        <ele>72</ele>
        <time>2015-06-07T10:25:00Z</time>
      </trkpt>
      <trkpt lat="47.87992" lon="-1.77068">
        <ele>73</ele>
        <time>2015-06-07T10:25:01Z</time>
      </trkpt>
      <trkpt lat="47.87989" lon="-1.77068">
        <ele>73</ele>
        <time>2015-06-07T10:25:02Z</time>
      </trkpt>
      <trkpt lat="47.87988" lon="-1.77069">
        <ele>73</ele>
        <time>2015-06-07T10:25:03Z</time>
      </trkpt>
      <trkpt lat="47.87986" lon="-1.77071">
        <ele>73</ele>
        <time>2015-06-07T10:25:04Z</time>
      </trkpt>
      <trkpt lat="47.87984" lon="-1.77073">
        <ele>73</ele>
        <time>2015-06-07T10:25:05Z</time>
      </trkpt>
      <trkpt lat="47.87982" lon="-1.77076">
        <ele>73</ele>
        <time>2015-06-07T10:25:06Z</time>
      </trkpt>
      <trkpt lat="47.87981" lon="-1.77079">
        <ele>73</ele>
        <time>2015-06-07T10:25:07Z</time>
      </trkpt>
      <trkpt lat="47.87979" lon="-1.77082">
        <ele>74</ele>
        <time>2015-06-07T10:25:08Z</time>
      </trkpt>
      <trkpt lat="47.87978" lon="-1.77086">
        <ele>74</ele>
        <time>2015-06-07T10:25:09Z</time>
      </trkpt>
      <trkpt lat="47.87977" lon="-1.77091">
        <ele>74</ele>
        <time>2015-06-07T10:25:10Z</time>
      </trkpt>
      <trkpt lat="47.87975" lon="-1.77096">
        <ele>74</ele>
        <time>2015-06-07T10:25:11Z</time>
      </trkpt>
      <trkpt lat="47.87973" lon="-1.77101">
        <ele>74</ele>
        <time>2015-06-07T10:25:12Z</time>
      </trkpt>
      <trkpt lat="47.87971" lon="-1.77107">
        <ele>75</ele>
        <time>2015-06-07T10:25:13Z</time>
      </trkpt>
      <trkpt lat="47.8797" lon="-1.77113">
        <ele>75</ele>
        <time>2015-06-07T10:25:14Z</time>
      </trkpt>
      <trkpt lat="47.87968" lon="-1.77121">
        <ele>75</ele>
        <time>2015-06-07T10:25:15Z</time>
      </trkpt>
      <trkpt lat="47.87967" lon="-1.77128">
        <ele>75</ele>
        <time>2015-06-07T10:25:16Z</time>
      </trkpt>
      <trkpt lat="47.87965" lon="-1.77136">
        <ele>74</ele>
        <time>2015-06-07T10:25:17Z</time>
      </trkpt>
      <trkpt lat="47.87964" lon="-1.77144">
        <ele>74</ele>
        <time>2015-06-07T10:25:18Z</time>
      </trkpt>
      <trkpt lat="47.87962" lon="-1.77153">
        <ele>74</ele>
        <time>2015-06-07T10:25:19Z</time>
      </trkpt>
      <trkpt lat="47.87961" lon="-1.77164">
        <ele>74</ele>
        <time>2015-06-07T10:25:20Z</time>
      </trkpt>
      <trkpt lat="47.8796" lon="-1.77175">
        <ele>74</ele>
        <time>2015-06-07T10:25:21Z</time>
      </trkpt>
      <trkpt lat="47.87958" lon="-1.77186">
        <ele>74</ele>
        <time>2015-06-07T10:25:22Z</time>
      </trkpt>
      <trkpt lat="47.87957" lon="-1.77197">
        <ele>73</ele>
        <time>2015-06-07T10:25:23Z</time>
      </trkpt>
      <trkpt lat="47.87956" lon="-1.7721">
        <ele>73</ele>
        <time>2015-06-07T10:25:24Z</time>
      </trkpt>
      <trkpt lat="47.87955" lon="-1.77223">
        <ele>72</ele>
        <time>2015-06-07T10:25:25Z</time>
      </trkpt>
      <trkpt lat="47.87955" lon="-1.77237">
        <ele>71</ele>
        <time>2015-06-07T10:25:26Z</time>
      </trkpt>
      <trkpt lat="47.87953" lon="-1.7725">
        <ele>71</ele>
        <time>2015-06-07T10:25:27Z</time>
      </trkpt>
      <trkpt lat="47.87952" lon="-1.77264">
        <ele>69</ele>
        <time>2015-06-07T10:25:28Z</time>
      </trkpt>
      <trkpt lat="47.87953" lon="-1.77278">
        <ele>68</ele>
        <time>2015-06-07T10:25:29Z</time>
      </trkpt>
      <trkpt lat="47.87952" lon="-1.77292">
        <ele>66</ele>
        <time>2015-06-07T10:25:30Z</time>
      </trkpt>
      <trkpt lat="47.87952" lon="-1.77305">
        <ele>64</ele>
        <time>2015-06-07T10:25:31Z</time>
      </trkpt>
      <trkpt lat="47.87951" lon="-1.77318">
        <ele>62</ele>
        <time>2015-06-07T10:25:32Z</time>
      </trkpt>
      <trkpt lat="47.87949" lon="-1.77329">
        <ele>60</ele>
        <time>2015-06-07T10:25:33Z</time>
      </trkpt>
      <trkpt lat="47.87948" lon="-1.7734">
        <ele>58</ele>
        <time>2015-06-07T10:25:34Z</time>
      </trkpt>
      <trkpt lat="47.87946" lon="-1.77351">
        <ele>55</ele>
        <time>2015-06-07T10:25:35Z</time>
      </trkpt>
      <trkpt lat="47.87945" lon="-1.77362">
        <ele>53</ele>
        <time>2015-06-07T10:25:36Z</time>
      </trkpt>
      <trkpt lat="47.87944" lon="-1.77373">
        <ele>51</ele>
        <time>2015-06-07T10:25:37Z</time>
      </trkpt>
      <trkpt lat="47.87943" lon="-1.77384">
        <ele>49</ele>
        <time>2015-06-07T10:25:38Z</time>
      </trkpt>
      <trkpt lat="47.87942" lon="-1.77393">
        <ele>47</ele>
        <time>2015-06-07T10:25:39Z</time>
      </trkpt>
      <trkpt lat="47.87942" lon="-1.774">
        <ele>45</ele>
        <time>2015-06-07T10:25:40Z</time>
      </trkpt>
      <trkpt lat="47.87942" lon="-1.77406">
        <ele>44</ele>
        <time>2015-06-07T10:25:41Z</time>
      </trkpt>
      <trkpt lat="47.87945" lon="-1.77411">
        <ele>42</ele>
        <time>2015-06-07T10:25:42Z</time>
      </trkpt>
      <trkpt lat="47.87949" lon="-1.77414">
        <ele>42</ele>
        <time>2015-06-07T10:25:43Z</time>
      </trkpt>
      <trkpt lat="47.87954" lon="-1.77416">
        <ele>41</ele>
        <time>2015-06-07T10:25:44Z</time>
      </trkpt>
      <trkpt lat="47.87958" lon="-1.77417">
        <ele>41</ele>
        <time>2015-06-07T10:25:45Z</time>
      </trkpt>
      <trkpt lat="47.87964" lon="-1.77417">
        <ele>41</ele>
        <time>2015-06-07T10:25:46Z</time>
      </trkpt>
      <trkpt lat="47.8797" lon="-1.77417">
        <ele>41</ele>
        <time>2015-06-07T10:25:47Z</time>
      </trkpt>
      <trkpt lat="47.87975" lon="-1.77416">
        <ele>41</ele>
        <time>2015-06-07T10:25:48Z</time>
      </trkpt>
      <trkpt lat="47.87981" lon="-1.77413">
        <ele>41</ele>
        <time>2015-06-07T10:25:49Z</time>
      </trkpt>
      <trkpt lat="47.87987" lon="-1.7741">
        <ele>41</ele>
        <time>2015-06-07T10:25:50Z</time>
      </trkpt>
      <trkpt lat="47.87991" lon="-1.77406">
        <ele>41</ele>
        <time>2015-06-07T10:25:51Z</time>
      </trkpt>
      <trkpt lat="47.87994" lon="-1.77401">
        <ele>41</ele>
        <time>2015-06-07T10:25:52Z</time>
      </trkpt>
      <trkpt lat="47.87996" lon="-1.77397">
        <ele>41</ele>
        <time>2015-06-07T10:25:53Z</time>
      </trkpt>
      <trkpt lat="47.87998" lon="-1.77393">
        <ele>41</ele>
        <time>2015-06-07T10:25:54Z</time>
      </trkpt>
      <trkpt lat="47.88" lon="-1.77389">
        <ele>41</ele>
        <time>2015-06-07T10:25:55Z</time>
      </trkpt>
      <trkpt lat="47.88003" lon="-1.77384">
        <ele>41</ele>
        <time>2015-06-07T10:25:56Z</time>
      </trkpt>
      <trkpt lat="47.88005" lon="-1.7738">
        <ele>41</ele>
        <time>2015-06-07T10:25:57Z</time>
      </trkpt>
      <trkpt lat="47.88007" lon="-1.77377">
        <ele>41</ele>
        <time>2015-06-07T10:25:58Z</time>
      </trkpt>
      <trkpt lat="47.88008" lon="-1.77375">
        <ele>40</ele>
        <time>2015-06-07T10:25:59Z</time>
      </trkpt>
      <trkpt lat="47.88011" lon="-1.77372">
        <ele>40</ele>
        <time>2015-06-07T10:26:00Z</time>
      </trkpt>
      <trkpt lat="47.88013" lon="-1.77368">
        <ele>40</ele>
        <time>2015-06-07T10:26:01Z</time>
      </trkpt>
      <trkpt lat="47.88015" lon="-1.77365">
        <ele>40</ele>
        <time>2015-06-07T10:26:02Z</time>
      </trkpt>
      <trkpt lat="47.88017" lon="-1.77362">
        <ele>40</ele>
        <time>2015-06-07T10:26:03Z</time>
      </trkpt>
      <trkpt lat="47.88019" lon="-1.77358">
        <ele>40</ele>
        <time>2015-06-07T10:26:04Z</time>
      </trkpt>
      <trkpt lat="47.88022" lon="-1.77354">
        <ele>40</ele>
        <time>2015-06-07T10:26:05Z</time>
      </trkpt>
      <trkpt lat="47.88024" lon="-1.77351">
        <ele>40</ele>
        <time>2015-06-07T10:26:06Z</time>
      </trkpt>
      <trkpt lat="47.88027" lon="-1.77349">
        <ele>40</ele>
        <time>2015-06-07T10:26:07Z</time>
      </trkpt>
      <trkpt lat="47.88029" lon="-1.77347">
        <ele>40</ele>
        <time>2015-06-07T10:26:08Z</time>
      </trkpt>
      <trkpt lat="47.88032" lon="-1.77344">
        <ele>39</ele>
        <time>2015-06-07T10:26:09Z</time>
      </trkpt>
      <trkpt lat="47.88035" lon="-1.77341">
        <ele>39</ele>
        <time>2015-06-07T10:26:10Z</time>
      </trkpt>
      <trkpt lat="47.88038" lon="-1.77338">
        <ele>39</ele>
        <time>2015-06-07T10:26:11Z</time>
      </trkpt>
      <trkpt lat="47.88041" lon="-1.77335">
        <ele>39</ele>
        <time>2015-06-07T10:26:12Z</time>
      </trkpt>
      <trkpt lat="47.88044" lon="-1.77333">
        <ele>39</ele>
        <time>2015-06-07T10:26:13Z</time>
      </trkpt>
      <trkpt lat="47.88046" lon="-1.7733">
        <ele>40</ele>
        <time>2015-06-07T10:26:14Z</time>
      </trkpt>
      <trkpt lat="47.88049" lon="-1.77328">
        <ele>40</ele>
        <time>2015-06-07T10:26:15Z</time>
      </trkpt>
      <trkpt lat="47.88051" lon="-1.77326">
        <ele>40</ele>
        <time>2015-06-07T10:26:16Z</time>
      </trkpt>
      <trkpt lat="47.88053" lon="-1.77324">
        <ele>40</ele>
        <time>2015-06-07T10:26:17Z</time>
      </trkpt>
      <trkpt lat="47.88055" lon="-1.77322">
        <ele>40</ele>
        <time>2015-06-07T10:26:18Z</time>
      </trkpt>
      <trkpt lat="47.88058" lon="-1.7732">
        <ele>41</ele>
        <time>2015-06-07T10:26:19Z</time>
      </trkpt>
      <trkpt lat="47.8806" lon="-1.77317">
        <ele>41</ele>
        <time>2015-06-07T10:26:20Z</time>
      </trkpt>
      <trkpt lat="47.88062" lon="-1.77314">
        <ele>41</ele>
        <time>2015-06-07T10:26:21Z</time>
      </trkpt>
      <trkpt lat="47.88064" lon="-1.77312">
        <ele>41</ele>
        <time>2015-06-07T10:26:22Z</time>
      </trkpt>
      <trkpt lat="47.88066" lon="-1.7731">
        <ele>42</ele>
        <time>2015-06-07T10:26:23Z</time>
      </trkpt>
      <trkpt lat="47.88068" lon="-1.77308">
        <ele>42</ele>
        <time>2015-06-07T10:26:24Z</time>
      </trkpt>
      <trkpt lat="47.8807" lon="-1.77306">
        <ele>43</ele>
        <time>2015-06-07T10:26:25Z</time>
      </trkpt>
      <trkpt lat="47.88073" lon="-1.77304">
        <ele>43</ele>
        <time>2015-06-07T10:26:26Z</time>
      </trkpt>
      <trkpt lat="47.88075" lon="-1.77304">
        <ele>43</ele>
        <time>2015-06-07T10:26:27Z</time>
      </trkpt>
      <trkpt lat="47.88077" lon="-1.77302">
        <ele>43</ele>
        <time>2015-06-07T10:26:28Z</time>
      </trkpt>
      <trkpt lat="47.8808" lon="-1.773">
        <ele>43</ele>
        <time>2015-06-07T10:26:29Z</time>
      </trkpt>
      <trkpt lat="47.88083" lon="-1.77298">
        <ele>44</ele>
        <time>2015-06-07T10:26:30Z</time>
      </trkpt>
      <trkpt lat="47.88086" lon="-1.77297">
        <ele>44</ele>
        <time>2015-06-07T10:26:31Z</time>
      </trkpt>
      <trkpt lat="47.88089" lon="-1.77295">
        <ele>44</ele>
        <time>2015-06-07T10:26:32Z</time>
      </trkpt>
      <trkpt lat="47.88092" lon="-1.77293">
        <ele>44</ele>
        <time>2015-06-07T10:26:33Z</time>
      </trkpt>
      <trkpt lat="47.88095" lon="-1.77289">
        <ele>44</ele>
        <time>2015-06-07T10:26:34Z</time>
      </trkpt>
      <trkpt lat="47.88098" lon="-1.77286">
        <ele>44</ele>
        <time>2015-06-07T10:26:35Z</time>
      </trkpt>
      <trkpt lat="47.881" lon="-1.77282">
        <ele>44</ele>
        <time>2015-06-07T10:26:36Z</time>
      </trkpt>
      <trkpt lat="47.88103" lon="-1.77278">
        <ele>44</ele>
        <time>2015-06-07T10:26:37Z</time>
      </trkpt>
      <trkpt lat="47.88106" lon="-1.77274">
        <ele>44</ele>
        <time>2015-06-07T10:26:38Z</time>
      </trkpt>
      <trkpt lat="47.88109" lon="-1.7727">
        <ele>44</ele>
        <time>2015-06-07T10:26:39Z</time>
      </trkpt>
      <trkpt lat="47.88112" lon="-1.77267">
        <ele>44</ele>
        <time>2015-06-07T10:26:40Z</time>
      </trkpt>
      <trkpt lat="47.88115" lon="-1.77264">
        <ele>45</ele>
        <time>2015-06-07T10:26:41Z</time>
      </trkpt>
      <trkpt lat="47.88118" lon="-1.77261">
        <ele>45</ele>
        <time>2015-06-07T10:26:42Z</time>
      </trkpt>
      <trkpt lat="47.88121" lon="-1.77258">
        <ele>45</ele>
        <time>2015-06-07T10:26:43Z</time>
      </trkpt>
      <trkpt lat="47.88125" lon="-1.77255">
        <ele>45</ele>
        <time>2015-06-07T10:26:44Z</time>
      </trkpt>
      <trkpt lat="47.88127" lon="-1.77252">
        <ele>45</ele>
        <time>2015-06-07T10:26:45Z</time>
      </trkpt>
      <trkpt lat="47.8813" lon="-1.77249">
        <ele>45</ele>
        <time>2015-06-07T10:26:46Z</time>
      </trkpt>
      <trkpt lat="47.88133" lon="-1.77245">
        <ele>45</ele>
        <time>2015-06-07T10:26:47Z</time>
      </trkpt>
      <trkpt lat="47.88136" lon="-1.77242">
        <ele>45</ele>
        <time>2015-06-07T10:26:48Z</time>
      </trkpt>
      <trkpt lat="47.88139" lon="-1.77239">
        <ele>45</ele>
        <time>2015-06-07T10:26:49Z</time>
      </trkpt>
      <trkpt lat="47.88142" lon="-1.77236">
        <ele>45</ele>
        <time>2015-06-07T10:26:50Z</time>
      </trkpt>
      <trkpt lat="47.88145" lon="-1.77234">
        <ele>45</ele>
        <time>2015-06-07T10:26:51Z</time>
      </trkpt>
      <trkpt lat="47.88148" lon="-1.77232">
        <ele>45</ele>
        <time>2015-06-07T10:26:52Z</time>
      </trkpt>
      <trkpt lat="47.88151" lon="-1.7723">
        <ele>45</ele>
        <time>2015-06-07T10:26:53Z</time>
      </trkpt>
      <trkpt lat="47.88154" lon="-1.77228">
        <ele>45</ele>
        <time>2015-06-07T10:26:54Z</time>
      </trkpt>
      <trkpt lat="47.88157" lon="-1.77227">
        <ele>45</ele>
        <time>2015-06-07T10:26:55Z</time>
      </trkpt>
      <trkpt lat="47.88159" lon="-1.77227">
        <ele>45</ele>
        <time>2015-06-07T10:26:56Z</time>
      </trkpt>
      <trkpt lat="47.88161" lon="-1.77227">
        <ele>45</ele>
        <time>2015-06-07T10:26:57Z</time>
      </trkpt>
      <trkpt lat="47.88162" lon="-1.77227">
        <ele>45</ele>
        <time>2015-06-07T10:26:58Z</time>
      </trkpt>
      <trkpt lat="47.88163" lon="-1.77227">
        <ele>45</ele>
        <time>2015-06-07T10:26:59Z</time>
      </trkpt>
      <trkpt lat="47.88164" lon="-1.77227">
        <ele>45</ele>
        <time>2015-06-07T10:27:00Z</time>
      </trkpt>
      <trkpt lat="47.88164" lon="-1.77227">
        <ele>46</ele>
        <time>2015-06-07T10:27:01Z</time>
      </trkpt>
      <trkpt lat="47.88165" lon="-1.77227">
        <ele>46</ele>
        <time>2015-06-07T10:27:02Z</time>
      </trkpt>
      <trkpt lat="47.88166" lon="-1.77227">
        <ele>46</ele>
        <time>2015-06-07T10:27:03Z</time>
      </trkpt>
      <trkpt lat="47.88168" lon="-1.77228">
        <ele>47</ele>
        <time>2015-06-07T10:27:04Z</time>
      </trkpt>
      <trkpt lat="47.8817" lon="-1.7723">
        <ele>47</ele>
        <time>2015-06-07T10:27:05Z</time>
      </trkpt>
      <trkpt lat="47.88172" lon="-1.77231">
        <ele>47</ele>
        <time>2015-06-07T10:27:06Z</time>
      </trkpt>
      <trkpt lat="47.88174" lon="-1.77232">
        <ele>47</ele>
        <time>2015-06-07T10:27:07Z</time>
      </trkpt>
      <trkpt lat="47.88176" lon="-1.77233">
        <ele>47</ele>
        <time>2015-06-07T10:27:08Z</time>
      </trkpt>
      <trkpt lat="47.88178" lon="-1.77234">
        <ele>48</ele>
        <time>2015-06-07T10:27:09Z</time>
      </trkpt>
      <trkpt lat="47.8818" lon="-1.77235">
        <ele>48</ele>
        <time>2015-06-07T10:27:10Z</time>
      </trkpt>
      <trkpt lat="47.88181" lon="-1.77236">
        <ele>48</ele>
        <time>2015-06-07T10:27:11Z</time>
      </trkpt>
      <trkpt lat="47.88183" lon="-1.77237">
        <ele>49</ele>
        <time>2015-06-07T10:27:12Z</time>
      </trkpt>
      <trkpt lat="47.88185" lon="-1.77238">
        <ele>49</ele>
        <time>2015-06-07T10:27:13Z</time>
      </trkpt>
      <trkpt lat="47.88187" lon="-1.77239">
        <ele>49</ele>
        <time>2015-06-07T10:27:14Z</time>
      </trkpt>
      <trkpt lat="47.88188" lon="-1.7724">
        <ele>50</ele>
        <time>2015-06-07T10:27:15Z</time>
      </trkpt>
      <trkpt lat="47.8819" lon="-1.7724">
        <ele>50</ele>
        <time>2015-06-07T10:27:16Z</time>
      </trkpt>
      <trkpt lat="47.88192" lon="-1.77241">
        <ele>50</ele>
        <time>2015-06-07T10:27:17Z</time>
      </trkpt>
      <trkpt lat="47.88194" lon="-1.77241">
        <ele>50</ele>
        <time>2015-06-07T10:27:18Z</time>
      </trkpt>
      <trkpt lat="47.88196" lon="-1.77242">
        <ele>51</ele>
        <time>2015-06-07T10:27:19Z</time>
      </trkpt>
      <trkpt lat="47.88198" lon="-1.77243">
        <ele>51</ele>
        <time>2015-06-07T10:27:20Z</time>
      </trkpt>
      <trkpt lat="47.882" lon="-1.77243">
        <ele>51</ele>
        <time>2015-06-07T10:27:21Z</time>
      </trkpt>
      <trkpt lat="47.88202" lon="-1.77245">
        <ele>52</ele>
        <time>2015-06-07T10:27:22Z</time>
      </trkpt>
      <trkpt lat="47.88204" lon="-1.77245">
        <ele>52</ele>
        <time>2015-06-07T10:27:23Z</time>
      </trkpt>
      <trkpt lat="47.88206" lon="-1.77245">
        <ele>52</ele>
        <time>2015-06-07T10:27:24Z</time>
      </trkpt>
      <trkpt lat="47.88208" lon="-1.77246">
        <ele>52</ele>
        <time>2015-06-07T10:27:25Z</time>
      </trkpt>
      <trkpt lat="47.88211" lon="-1.77247">
        <ele>52</ele>
        <time>2015-06-07T10:27:26Z</time>
      </trkpt>
      <trkpt lat="47.88213" lon="-1.77248">
        <ele>53</ele>
        <time>2015-06-07T10:27:27Z</time>
      </trkpt>
      <trkpt lat="47.88216" lon="-1.77249">
        <ele>53</ele>
        <time>2015-06-07T10:27:28Z</time>
      </trkpt>
      <trkpt lat="47.88218" lon="-1.7725">
        <ele>53</ele>
        <time>2015-06-07T10:27:29Z</time>
      </trkpt>
      <trkpt lat="47.8822" lon="-1.77251">
        <ele>53</ele>
        <time>2015-06-07T10:27:30Z</time>
      </trkpt>
      <trkpt lat="47.88223" lon="-1.77252">
        <ele>54</ele>
        <time>2015-06-07T10:27:31Z</time>
      </trkpt>
      <trkpt lat="47.88224" lon="-1.77254">
        <ele>54</ele>
        <time>2015-06-07T10:27:32Z</time>
      </trkpt>
      <trkpt lat="47.88226" lon="-1.77256">
        <ele>54</ele>
        <time>2015-06-07T10:27:33Z</time>
      </trkpt>
      <trkpt lat="47.88226" lon="-1.77259">
        <ele>54</ele>
        <time>2015-06-07T10:27:34Z</time>
      </trkpt>
      <trkpt lat="47.88226" lon="-1.77261">
        <ele>54</ele>
        <time>2015-06-07T10:27:35Z</time>
      </trkpt>
      <trkpt lat="47.88226" lon="-1.77264">
        <ele>54</ele>
        <time>2015-06-07T10:27:36Z</time>
      </trkpt>
      <trkpt lat="47.88225" lon="-1.77268">
        <ele>54</ele>
        <time>2015-06-07T10:27:37Z</time>
      </trkpt>
      <trkpt lat="47.88224" lon="-1.77271">
        <ele>54</ele>
        <time>2015-06-07T10:27:38Z</time>
      </trkpt>
      <trkpt lat="47.88223" lon="-1.77275">
        <ele>54</ele>
        <time>2015-06-07T10:27:39Z</time>
      </trkpt>
      <trkpt lat="47.88222" lon="-1.77279">
        <ele>54</ele>
        <time>2015-06-07T10:27:40Z</time>
      </trkpt>
      <trkpt lat="47.88221" lon="-1.77283">
        <ele>53</ele>
        <time>2015-06-07T10:27:41Z</time>
      </trkpt>
      <trkpt lat="47.8822" lon="-1.77287">
        <ele>53</ele>
        <time>2015-06-07T10:27:42Z</time>
      </trkpt>
      <trkpt lat="47.88218" lon="-1.77291">
        <ele>53</ele>
        <time>2015-06-07T10:27:43Z</time>
      </trkpt>
      <trkpt lat="47.88217" lon="-1.77294">
        <ele>53</ele>
        <time>2015-06-07T10:27:44Z</time>
      </trkpt>
      <trkpt lat="47.88215" lon="-1.77298">
        <ele>53</ele>
        <time>2015-06-07T10:27:45Z</time>
      </trkpt>
      <trkpt lat="47.88214" lon="-1.77302">
        <ele>53</ele>
        <time>2015-06-07T10:27:46Z</time>
      </trkpt>
      <trkpt lat="47.88211" lon="-1.77305">
        <ele>53</ele>
        <time>2015-06-07T10:27:47Z</time>
      </trkpt>
      <trkpt lat="47.88209" lon="-1.77308">
        <ele>53</ele>
        <time>2015-06-07T10:27:48Z</time>
      </trkpt>
      <trkpt lat="47.88207" lon="-1.77311">
        <ele>53</ele>
        <time>2015-06-07T10:27:49Z</time>
      </trkpt>
      <trkpt lat="47.88204" lon="-1.77313">
        <ele>53</ele>
        <time>2015-06-07T10:27:50Z</time>
      </trkpt>
      <trkpt lat="47.88201" lon="-1.77315">
        <ele>53</ele>
        <time>2015-06-07T10:27:51Z</time>
      </trkpt>
      <trkpt lat="47.88198" lon="-1.77316">
        <ele>53</ele>
        <time>2015-06-07T10:27:52Z</time>
      </trkpt>
      <trkpt lat="47.88195" lon="-1.77318">
        <ele>53</ele>
        <time>2015-06-07T10:27:53Z</time>
      </trkpt>
      <trkpt lat="47.88192" lon="-1.77319">
        <ele>53</ele>
        <time>2015-06-07T10:27:54Z</time>
      </trkpt>
      <trkpt lat="47.88189" lon="-1.77321">
        <ele>53</ele>
        <time>2015-06-07T10:27:55Z</time>
      </trkpt>
      <trkpt lat="47.88186" lon="-1.77322">
        <ele>54</ele>
        <time>2015-06-07T10:27:56Z</time>
      </trkpt>
      <trkpt lat="47.88183" lon="-1.77324">
        <ele>54</ele>
        <time>2015-06-07T10:27:57Z</time>
      </trkpt>
      <trkpt lat="47.8818" lon="-1.77325">
        <ele>54</ele>
        <time>2015-06-07T10:27:58Z</time>
      </trkpt>
      <trkpt lat="47.88177" lon="-1.77327">
        <ele>54</ele>
        <time>2015-06-07T10:27:59Z</time>
      </trkpt>
      <trkpt lat="47.88175" lon="-1.77328">
        <ele>54</ele>
        <time>2015-06-07T10:28:00Z</time>
      </trkpt>
      <trkpt lat="47.88172" lon="-1.77329">
        <ele>54</ele>
        <time>2015-06-07T10:28:01Z</time>
      </trkpt>
      <trkpt lat="47.8817" lon="-1.77331">
        <ele>55</ele>
        <time>2015-06-07T10:28:02Z</time>
      </trkpt>
      <trkpt lat="47.88168" lon="-1.77334">
        <ele>55</ele>
        <time>2015-06-07T10:28:03Z</time>
      </trkpt>
      <trkpt lat="47.88166" lon="-1.77336">
        <ele>55</ele>
        <time>2015-06-07T10:28:04Z</time>
      </trkpt>
      <trkpt lat="47.88165" lon="-1.77339">
        <ele>55</ele>
        <time>2015-06-07T10:28:05Z</time>
      </trkpt>
      <trkpt lat="47.88163" lon="-1.77342">
        <ele>55</ele>
        <time>2015-06-07T10:28:06Z</time>
      </trkpt>
      <trkpt lat="47.88162" lon="-1.77346">
        <ele>56</ele>
        <time>2015-06-07T10:28:07Z</time>
      </trkpt>
      <trkpt lat="47.88162" lon="-1.77349">
        <ele>56</ele>
        <time>2015-06-07T10:28:08Z</time>
      </trkpt>
      <trkpt lat="47.88162" lon="-1.77352">
        <ele>56</ele>
        <time>2015-06-07T10:28:09Z</time>
      </trkpt>
      <trkpt lat="47.88162" lon="-1.77356">
        <ele>56</ele>
        <time>2015-06-07T10:28:10Z</time>
      </trkpt>
      <trkpt lat="47.88162" lon="-1.77359">
        <ele>57</ele>
        <time>2015-06-07T10:28:11Z</time>
      </trkpt>
      <trkpt lat="47.88163" lon="-1.77363">
        <ele>57</ele>
        <time>2015-06-07T10:28:12Z</time>
      </trkpt>
      <trkpt lat="47.88164" lon="-1.77367">
        <ele>57</ele>
        <time>2015-06-07T10:28:13Z</time>
      </trkpt>
      <trkpt lat="47.88165" lon="-1.77371">
        <ele>58</ele>
        <time>2015-06-07T10:28:14Z</time>
      </trkpt>
      <trkpt lat="47.88165" lon="-1.77375">
        <ele>58</ele>
        <time>2015-06-07T10:28:15Z</time>
      </trkpt>
      <trkpt lat="47.88166" lon="-1.77379">
        <ele>58</ele>
        <time>2015-06-07T10:28:16Z</time>
      </trkpt>
      <trkpt lat="47.88167" lon="-1.77383">
        <ele>58</ele>
        <time>2015-06-07T10:28:17Z</time>
      </trkpt>
      <trkpt lat="47.88168" lon="-1.77388">
        <ele>58</ele>
        <time>2015-06-07T10:28:18Z</time>
      </trkpt>
      <trkpt lat="47.88168" lon="-1.77392">
        <ele>59</ele>
        <time>2015-06-07T10:28:19Z</time>
      </trkpt>
      <trkpt lat="47.88169" lon="-1.77397">
        <ele>59</ele>
        <time>2015-06-07T10:28:20Z</time>
      </trkpt>
      <trkpt lat="47.8817" lon="-1.77401">
        <ele>59</ele>
        <time>2015-06-07T10:28:21Z</time>
      </trkpt>
      <trkpt lat="47.88171" lon="-1.77406">
        <ele>59</ele>
        <time>2015-06-07T10:28:22Z</time>
      </trkpt>
      <trkpt lat="47.88171" lon="-1.7741">
        <ele>60</ele>
        <time>2015-06-07T10:28:23Z</time>
      </trkpt>
      <trkpt lat="47.88172" lon="-1.77415">
        <ele>60</ele>
        <time>2015-06-07T10:28:24Z</time>
      </trkpt>
      <trkpt lat="47.88173" lon="-1.7742">
        <ele>60</ele>
        <time>2015-06-07T10:28:25Z</time>
      </trkpt>
      <trkpt lat="47.88174" lon="-1.77425">
        <ele>60</ele>
        <time>2015-06-07T10:28:26Z</time>
      </trkpt>
      <trkpt lat="47.88175" lon="-1.7743">
        <ele>61</ele>
        <time>2015-06-07T10:28:27Z</time>
      </trkpt>
      <trkpt lat="47.88176" lon="-1.77434">
        <ele>61</ele>
        <time>2015-06-07T10:28:28Z</time>
      </trkpt>
      <trkpt lat="47.88176" lon="-1.77439">
        <ele>61</ele>
        <time>2015-06-07T10:28:29Z</time>
      </trkpt>
      <trkpt lat="47.88177" lon="-1.77444">
        <ele>61</ele>
        <time>2015-06-07T10:28:30Z</time>
      </trkpt>
      <trkpt lat="47.88178" lon="-1.77449">
        <ele>61</ele>
        <time>2015-06-07T10:28:31Z</time>
      </trkpt>
      <trkpt lat="47.88179" lon="-1.77454">
        <ele>62</ele>
        <time>2015-06-07T10:28:32Z</time>
      </trkpt>
      <trkpt lat="47.8818" lon="-1.77459">
        <ele>62</ele>
        <time>2015-06-07T10:28:33Z</time>
      </trkpt>
      <trkpt lat="47.88181" lon="-1.77464">
        <ele>62</ele>
        <time>2015-06-07T10:28:34Z</time>
      </trkpt>
      <trkpt lat="47.88181" lon="-1.77469">
        <ele>62</ele>
        <time>2015-06-07T10:28:35Z</time>
      </trkpt>
      <trkpt lat="47.88182" lon="-1.77474">
        <ele>62</ele>
        <time>2015-06-07T10:28:36Z</time>
      </trkpt>
      <trkpt lat="47.88183" lon="-1.77479">
        <ele>62</ele>
        <time>2015-06-07T10:28:37Z</time>
      </trkpt>
      <trkpt lat="47.88184" lon="-1.77485">
        <ele>62</ele>
        <time>2015-06-07T10:28:38Z</time>
      </trkpt>
      <trkpt lat="47.88185" lon="-1.7749">
        <ele>62</ele>
        <time>2015-06-07T10:28:39Z</time>
      </trkpt>
      <trkpt lat="47.88186" lon="-1.77496">
        <ele>63</ele>
        <time>2015-06-07T10:28:40Z</time>
      </trkpt>
      <trkpt lat="47.88187" lon="-1.77501">
        <ele>63</ele>
        <time>2015-06-07T10:28:41Z</time>
      </trkpt>
      <trkpt lat="47.88188" lon="-1.77506">
        <ele>63</ele>
        <time>2015-06-07T10:28:42Z</time>
      </trkpt>
      <trkpt lat="47.88189" lon="-1.77512">
        <ele>63</ele>
        <time>2015-06-07T10:28:43Z</time>
      </trkpt>
      <trkpt lat="47.8819" lon="-1.77517">
        <ele>63</ele>
        <time>2015-06-07T10:28:44Z</time>
      </trkpt>
      <trkpt lat="47.88191" lon="-1.77522">
        <ele>63</ele>
        <time>2015-06-07T10:28:45Z</time>
      </trkpt>
      <trkpt lat="47.88192" lon="-1.77528">
        <ele>63</ele>
        <time>2015-06-07T10:28:46Z</time>
      </trkpt>
      <trkpt lat="47.88194" lon="-1.77534">
        <ele>63</ele>
        <time>2015-06-07T10:28:47Z</time>
      </trkpt>
      <trkpt lat="47.88195" lon="-1.7754">
        <ele>63</ele>
        <time>2015-06-07T10:28:48Z</time>
      </trkpt>
      <trkpt lat="47.88196" lon="-1.77546">
        <ele>63</ele>
        <time>2015-06-07T10:28:49Z</time>
      </trkpt>
      <trkpt lat="47.88197" lon="-1.77551">
        <ele>63</ele>
        <time>2015-06-07T10:28:50Z</time>
      </trkpt>
      <trkpt lat="47.88198" lon="-1.77557">
        <ele>63</ele>
        <time>2015-06-07T10:28:51Z</time>
      </trkpt>
      <trkpt lat="47.88199" lon="-1.77562">
        <ele>64</ele>
        <time>2015-06-07T10:28:52Z</time>
      </trkpt>
      <trkpt lat="47.882" lon="-1.77568">
        <ele>64</ele>
        <time>2015-06-07T10:28:53Z</time>
      </trkpt>
      <trkpt lat="47.88201" lon="-1.77574">
        <ele>64</ele>
        <time>2015-06-07T10:28:54Z</time>
      </trkpt>
      <trkpt lat="47.88203" lon="-1.7758">
        <ele>64</ele>
        <time>2015-06-07T10:28:55Z</time>
      </trkpt>
      <trkpt lat="47.88204" lon="-1.77587">
        <ele>64</ele>
        <time>2015-06-07T10:28:56Z</time>
      </trkpt>
      <trkpt lat="47.88205" lon="-1.77594">
        <ele>64</ele>
        <time>2015-06-07T10:28:57Z</time>
      </trkpt>
      <trkpt lat="47.88207" lon="-1.77601">
        <ele>64</ele>
        <time>2015-06-07T10:28:58Z</time>
      </trkpt>
      <trkpt lat="47.88209" lon="-1.77608">
        <ele>64</ele>
        <time>2015-06-07T10:28:59Z</time>
      </trkpt>
      <trkpt lat="47.88211" lon="-1.77615">
        <ele>64</ele>
        <time>2015-06-07T10:29:00Z</time>
      </trkpt>
      <trkpt lat="47.88212" lon="-1.77623">
        <ele>64</ele>
        <time>2015-06-07T10:29:01Z</time>
      </trkpt>
      <trkpt lat="47.88214" lon="-1.77632">
        <ele>63</ele>
        <time>2015-06-07T10:29:02Z</time>
      </trkpt>
      <trkpt lat="47.88217" lon="-1.7764">
        <ele>63</ele>
        <time>2015-06-07T10:29:03Z</time>
      </trkpt>
      <trkpt lat="47.88219" lon="-1.77649">
        <ele>63</ele>
        <time>2015-06-07T10:29:04Z</time>
      </trkpt>
      <trkpt lat="47.88222" lon="-1.77656">
        <ele>63</ele>
        <time>2015-06-07T10:29:05Z</time>
      </trkpt>
      <trkpt lat="47.88223" lon="-1.77662">
        <ele>63</ele>
        <time>2015-06-07T10:29:06Z</time>
      </trkpt>
      <trkpt lat="47.88224" lon="-1.77668">
        <ele>62</ele>
        <time>2015-06-07T10:29:07Z</time>
      </trkpt>
      <trkpt lat="47.88226" lon="-1.77673">
        <ele>62</ele>
        <time>2015-06-07T10:29:08Z</time>
      </trkpt>
      <trkpt lat="47.88225" lon="-1.77678">
        <ele>62</ele>
        <time>2015-06-07T10:29:09Z</time>
      </trkpt>
      <trkpt lat="47.88224" lon="-1.77682">
        <ele>62</ele>
        <time>2015-06-07T10:29:10Z</time>
      </trkpt>
      <trkpt lat="47.88222" lon="-1.77686">
        <ele>62</ele>
        <time>2015-06-07T10:29:11Z</time>
      </trkpt>
      <trkpt lat="47.8822" lon="-1.7769">
        <ele>62</ele>
        <time>2015-06-07T10:29:12Z</time>
      </trkpt>
      <trkpt lat="47.88217" lon="-1.77695">
        <ele>62</ele>
        <time>2015-06-07T10:29:13Z</time>
      </trkpt>
      <trkpt lat="47.88213" lon="-1.77699">
        <ele>62</ele>
        <time>2015-06-07T10:29:14Z</time>
      </trkpt>
      <trkpt lat="47.8821" lon="-1.77704">
        <ele>62</ele>
        <time>2015-06-07T10:29:15Z</time>
      </trkpt>
      <trkpt lat="47.88206" lon="-1.77709">
        <ele>62</ele>
        <time>2015-06-07T10:29:16Z</time>
      </trkpt>
      <trkpt lat="47.88203" lon="-1.77712">
        <ele>62</ele>
        <time>2015-06-07T10:29:17Z</time>
      </trkpt>
      <trkpt lat="47.88199" lon="-1.77713">
        <ele>62</ele>
        <time>2015-06-07T10:29:18Z</time>
      </trkpt>
      <trkpt lat="47.88197" lon="-1.77716">
        <ele>61</ele>
        <time>2015-06-07T10:29:19Z</time>
      </trkpt>
      <trkpt lat="47.88194" lon="-1.77718">
        <ele>61</ele>
        <time>2015-06-07T10:29:20Z</time>
      </trkpt>
      <trkpt lat="47.88191" lon="-1.77721">
        <ele>62</ele>
        <time>2015-06-07T10:29:21Z</time>
      </trkpt>
      <trkpt lat="47.88189" lon="-1.77722">
        <ele>62</ele>
        <time>2015-06-07T10:29:22Z</time>
      </trkpt>
      <trkpt lat="47.88186" lon="-1.77722">
        <ele>62</ele>
        <time>2015-06-07T10:29:23Z</time>
      </trkpt>
      <trkpt lat="47.88185" lon="-1.77721">
        <ele>62</ele>
        <time>2015-06-07T10:29:24Z</time>
      </trkpt>
      <trkpt lat="47.88183" lon="-1.77721">
        <ele>62</ele>
        <time>2015-06-07T10:29:25Z</time>
      </trkpt>
      <trkpt lat="47.8818" lon="-1.77721">
        <ele>62</ele>
        <time>2015-06-07T10:29:26Z</time>
      </trkpt>
      <trkpt lat="47.88177" lon="-1.77722">
        <ele>62</ele>
        <time>2015-06-07T10:29:27Z</time>
      </trkpt>
      <trkpt lat="47.88173" lon="-1.77725">
        <ele>62</ele>
        <time>2015-06-07T10:29:28Z</time>
      </trkpt>
      <trkpt lat="47.8817" lon="-1.77727">
        <ele>62</ele>
        <time>2015-06-07T10:29:29Z</time>
      </trkpt>
      <trkpt lat="47.88166" lon="-1.77728">
        <ele>62</ele>
        <time>2015-06-07T10:29:30Z</time>
      </trkpt>
      <trkpt lat="47.88162" lon="-1.77729">
        <ele>62</ele>
        <time>2015-06-07T10:29:31Z</time>
      </trkpt>
      <trkpt lat="47.88158" lon="-1.7773">
        <ele>62</ele>
        <time>2015-06-07T10:29:32Z</time>
      </trkpt>
      <trkpt lat="47.88155" lon="-1.77729">
        <ele>62</ele>
        <time>2015-06-07T10:29:33Z</time>
      </trkpt>
      <trkpt lat="47.88153" lon="-1.77728">
        <ele>62</ele>
        <time>2015-06-07T10:29:34Z</time>
      </trkpt>
      <trkpt lat="47.88152" lon="-1.77726">
        <ele>62</ele>
        <time>2015-06-07T10:29:35Z</time>
      </trkpt>
      <trkpt lat="47.88151" lon="-1.77725">
        <ele>63</ele>
        <time>2015-06-07T10:29:36Z</time>
      </trkpt>
      <trkpt lat="47.8815" lon="-1.77723">
        <ele>63</ele>
        <time>2015-06-07T10:29:37Z</time>
      </trkpt>
      <trkpt lat="47.88149" lon="-1.77722">
        <ele>63</ele>
        <time>2015-06-07T10:29:38Z</time>
      </trkpt>
      <trkpt lat="47.88148" lon="-1.77721">
        <ele>63</ele>
        <time>2015-06-07T10:29:39Z</time>
      </trkpt>
      <trkpt lat="47.88147" lon="-1.77719">
        <ele>63</ele>
        <time>2015-06-07T10:29:40Z</time>
      </trkpt>
      <trkpt lat="47.88146" lon="-1.77718">
        <ele>63</ele>
        <time>2015-06-07T10:29:41Z</time>
      </trkpt>
      <trkpt lat="47.88145" lon="-1.77716">
        <ele>63</ele>
        <time>2015-06-07T10:29:42Z</time>
      </trkpt>
      <trkpt lat="47.88145" lon="-1.77715">
        <ele>63</ele>
        <time>2015-06-07T10:29:43Z</time>
      </trkpt>
      <trkpt lat="47.88143" lon="-1.77714">
        <ele>63</ele>
        <time>2015-06-07T10:29:44Z</time>
      </trkpt>
      <trkpt lat="47.88141" lon="-1.77712">
        <ele>63</ele>
        <time>2015-06-07T10:29:45Z</time>
      </trkpt>
      <trkpt lat="47.88138" lon="-1.77711">
        <ele>63</ele>
        <time>2015-06-07T10:29:46Z</time>
      </trkpt>
      <trkpt lat="47.88136" lon="-1.7771">
        <ele>63</ele>
        <time>2015-06-07T10:29:47Z</time>
      </trkpt>
      <trkpt lat="47.88135" lon="-1.77709">
        <ele>63</ele>
        <time>2015-06-07T10:29:48Z</time>
      </trkpt>
      <trkpt lat="47.88132" lon="-1.77708">
        <ele>63</ele>
        <time>2015-06-07T10:29:49Z</time>
      </trkpt>
      <trkpt lat="47.8813" lon="-1.77708">
        <ele>63</ele>
        <time>2015-06-07T10:29:50Z</time>
      </trkpt>
      <trkpt lat="47.88127" lon="-1.77708">
        <ele>63</ele>
        <time>2015-06-07T10:29:51Z</time>
      </trkpt>
      <trkpt lat="47.88125" lon="-1.77707">
        <ele>64</ele>
        <time>2015-06-07T10:29:52Z</time>
      </trkpt>
      <trkpt lat="47.88122" lon="-1.77706">
        <ele>64</ele>
        <time>2015-06-07T10:29:53Z</time>
      </trkpt>
      <trkpt lat="47.88119" lon="-1.77706">
        <ele>64</ele>
        <time>2015-06-07T10:29:54Z</time>
      </trkpt>
      <trkpt lat="47.88117" lon="-1.77705">
        <ele>64</ele>
        <time>2015-06-07T10:29:55Z</time>
      </trkpt>
      <trkpt lat="47.88115" lon="-1.77705">
        <ele>65</ele>
        <time>2015-06-07T10:29:56Z</time>
      </trkpt>
      <trkpt lat="47.88112" lon="-1.77706">
        <ele>65</ele>
        <time>2015-06-07T10:29:57Z</time>
      </trkpt>
      <trkpt lat="47.88109" lon="-1.77707">
        <ele>65</ele>
        <time>2015-06-07T10:29:58Z</time>
      </trkpt>
      <trkpt lat="47.88106" lon="-1.77709">
        <ele>65</ele>
        <time>2015-06-07T10:29:59Z</time>
      </trkpt>
      <trkpt lat="47.88104" lon="-1.77712">
        <ele>65</ele>
        <time>2015-06-07T10:30:00Z</time>
      </trkpt>
      <trkpt lat="47.88101" lon="-1.77715">
        <ele>65</ele>
        <time>2015-06-07T10:30:01Z</time>
      </trkpt>
      <trkpt lat="47.88098" lon="-1.77719">
        <ele>65</ele>
        <time>2015-06-07T10:30:02Z</time>
      </trkpt>
      <trkpt lat="47.88095" lon="-1.77722">
        <ele>65</ele>
        <time>2015-06-07T10:30:03Z</time>
      </trkpt>
      <trkpt lat="47.88091" lon="-1.77722">
        <ele>64</ele>
        <time>2015-06-07T10:30:04Z</time>
      </trkpt>
      <trkpt lat="47.88087" lon="-1.77721">
        <ele>64</ele>
        <time>2015-06-07T10:30:05Z</time>
      </trkpt>
      <trkpt lat="47.88084" lon="-1.77719">
        <ele>64</ele>
        <time>2015-06-07T10:30:06Z</time>
      </trkpt>
      <trkpt lat="47.88082" lon="-1.77719">
        <ele>64</ele>
        <time>2015-06-07T10:30:07Z</time>
      </trkpt>
      <trkpt lat="47.88079" lon="-1.77722">
        <ele>64</ele>
        <time>2015-06-07T10:30:08Z</time>
      </trkpt>
      <trkpt lat="47.88076" lon="-1.77725">
        <ele>64</ele>
        <time>2015-06-07T10:30:09Z</time>
      </trkpt>
      <trkpt lat="47.88071" lon="-1.77728">
        <ele>64</ele>
        <time>2015-06-07T10:30:10Z</time>
      </trkpt>
      <trkpt lat="47.88067" lon="-1.77729">
        <ele>63</ele>
        <time>2015-06-07T10:30:11Z</time>
      </trkpt>
      <trkpt lat="47.88062" lon="-1.77732">
        <ele>63</ele>
        <time>2015-06-07T10:30:12Z</time>
      </trkpt>
      <trkpt lat="47.88057" lon="-1.77733">
        <ele>63</ele>
        <time>2015-06-07T10:30:13Z</time>
      </trkpt>
      <trkpt lat="47.88051" lon="-1.77735">
        <ele>63</ele>
        <time>2015-06-07T10:30:14Z</time>
      </trkpt>
      <trkpt lat="47.88046" lon="-1.77736">
        <ele>62</ele>
        <time>2015-06-07T10:30:15Z</time>
      </trkpt>
      <trkpt lat="47.88041" lon="-1.77735">
        <ele>62</ele>
        <time>2015-06-07T10:30:16Z</time>
      </trkpt>
      <trkpt lat="47.88036" lon="-1.77732">
        <ele>62</ele>
        <time>2015-06-07T10:30:17Z</time>
      </trkpt>
      <trkpt lat="47.88033" lon="-1.77728">
        <ele>62</ele>
        <time>2015-06-07T10:30:18Z</time>
      </trkpt>
      <trkpt lat="47.88031" lon="-1.77724">
        <ele>61</ele>
        <time>2015-06-07T10:30:19Z</time>
      </trkpt>
      <trkpt lat="47.88028" lon="-1.77721">
        <ele>61</ele>
        <time>2015-06-07T10:30:20Z</time>
      </trkpt>
      <trkpt lat="47.88027" lon="-1.77718">
        <ele>61</ele>
        <time>2015-06-07T10:30:21Z</time>
      </trkpt>
      <trkpt lat="47.88025" lon="-1.77716">
        <ele>61</ele>
        <time>2015-06-07T10:30:22Z</time>
      </trkpt>
      <trkpt lat="47.88024" lon="-1.77713">
        <ele>61</ele>
        <time>2015-06-07T10:30:23Z</time>
      </trkpt>
      <trkpt lat="47.88024" lon="-1.7771">
        <ele>61</ele>
        <time>2015-06-07T10:30:24Z</time>
      </trkpt>
      <trkpt lat="47.88024" lon="-1.77708">
        <ele>61</ele>
        <time>2015-06-07T10:30:25Z</time>
      </trkpt>
      <trkpt lat="47.88024" lon="-1.77706">
        <ele>62</ele>
        <time>2015-06-07T10:30:26Z</time>
      </trkpt>
      <trkpt lat="47.88023" lon="-1.77704">
        <ele>62</ele>
        <time>2015-06-07T10:30:27Z</time>
      </trkpt>
      <trkpt lat="47.88021" lon="-1.77701">
        <ele>62</ele>
        <time>2015-06-07T10:30:28Z</time>
      </trkpt>
      <trkpt lat="47.8802" lon="-1.77698">
        <ele>62</ele>
        <time>2015-06-07T10:30:29Z</time>
      </trkpt>
      <trkpt lat="47.88019" lon="-1.77696">
        <ele>62</ele>
        <time>2015-06-07T10:30:30Z</time>
      </trkpt>
      <trkpt lat="47.88019" lon="-1.77692">
        <ele>62</ele>
        <time>2015-06-07T10:30:31Z</time>
      </trkpt>
      <trkpt lat="47.88019" lon="-1.77689">
        <ele>62</ele>
        <time>2015-06-07T10:30:32Z</time>
      </trkpt>
      <trkpt lat="47.8802" lon="-1.77687">
        <ele>62</ele>
        <time>2015-06-07T10:30:33Z</time>
      </trkpt>
      <trkpt lat="47.8802" lon="-1.77685">
        <ele>63</ele>
        <time>2015-06-07T10:30:34Z</time>
      </trkpt>
      <trkpt lat="47.88021" lon="-1.77682">
        <ele>63</ele>
        <time>2015-06-07T10:30:35Z</time>
      </trkpt>
      <trkpt lat="47.88022" lon="-1.7768">
        <ele>63</ele>
        <time>2015-06-07T10:30:36Z</time>
      </trkpt>
      <trkpt lat="47.88023" lon="-1.77678">
        <ele>63</ele>
        <time>2015-06-07T10:30:37Z</time>
      </trkpt>
      <trkpt lat="47.88024" lon="-1.77676">
        <ele>63</ele>
        <time>2015-06-07T10:30:38Z</time>
      </trkpt>
      <trkpt lat="47.88025" lon="-1.77675">
        <ele>63</ele>
        <time>2015-06-07T10:30:39Z</time>
      </trkpt>
      <trkpt lat="47.88027" lon="-1.77674">
        <ele>63</ele>
        <time>2015-06-07T10:30:40Z</time>
      </trkpt>
      <trkpt lat="47.88029" lon="-1.77674">
        <ele>63</ele>
        <time>2015-06-07T10:30:41Z</time>
      </trkpt>
      <trkpt lat="47.8803" lon="-1.77674">
        <ele>63</ele>
        <time>2015-06-07T10:30:42Z</time>
      </trkpt>
      <trkpt lat="47.88032" lon="-1.77673">
        <ele>63</ele>
        <time>2015-06-07T10:30:43Z</time>
      </trkpt>
      <trkpt lat="47.88033" lon="-1.77671">
        <ele>64</ele>
        <time>2015-06-07T10:30:44Z</time>
      </trkpt>
      <trkpt lat="47.88033" lon="-1.77669">
        <ele>64</ele>
        <time>2015-06-07T10:30:45Z</time>
      </trkpt>
      <trkpt lat="47.88032" lon="-1.77669">
        <ele>64</ele>
        <time>2015-06-07T10:30:46Z</time>
      </trkpt>
      <trkpt lat="47.88031" lon="-1.77669">
        <ele>64</ele>
        <time>2015-06-07T10:30:47Z</time>
      </trkpt>
      <trkpt lat="47.88029" lon="-1.7767">
        <ele>64</ele>
        <time>2015-06-07T10:30:48Z</time>
      </trkpt>
      <trkpt lat="47.88028" lon="-1.77669">
        <ele>64</ele>
        <time>2015-06-07T10:30:49Z</time>
      </trkpt>
      <trkpt lat="47.88027" lon="-1.77668">
        <ele>65</ele>
        <time>2015-06-07T10:30:50Z</time>
      </trkpt>
      <trkpt lat="47.88026" lon="-1.77666">
        <ele>65</ele>
        <time>2015-06-07T10:30:51Z</time>
      </trkpt>
      <trkpt lat="47.88025" lon="-1.77664">
        <ele>65</ele>
        <time>2015-06-07T10:30:52Z</time>
      </trkpt>
      <trkpt lat="47.88024" lon="-1.77662">
        <ele>65</ele>
        <time>2015-06-07T10:30:53Z</time>
      </trkpt>
      <trkpt lat="47.88023" lon="-1.7766">
        <ele>65</ele>
        <time>2015-06-07T10:30:54Z</time>
      </trkpt>
      <trkpt lat="47.88021" lon="-1.7766">
        <ele>65</ele>
        <time>2015-06-07T10:30:55Z</time>
      </trkpt>
      <trkpt lat="47.88019" lon="-1.77657">
        <ele>65</ele>
        <time>2015-06-07T10:30:56Z</time>
      </trkpt>
      <trkpt lat="47.88017" lon="-1.77653">
        <ele>66</ele>
        <time>2015-06-07T10:30:57Z</time>
      </trkpt>
      <trkpt lat="47.88016" lon="-1.77648">
        <ele>66</ele>
        <time>2015-06-07T10:30:58Z</time>
      </trkpt>
      <trkpt lat="47.88016" lon="-1.77645">
        <ele>66</ele>
        <time>2015-06-07T10:30:59Z</time>
      </trkpt>
      <trkpt lat="47.88015" lon="-1.77643">
        <ele>66</ele>
        <time>2015-06-07T10:31:00Z</time>
      </trkpt>
      <trkpt lat="47.88013" lon="-1.77643">
        <ele>66</ele>
        <time>2015-06-07T10:31:01Z</time>
      </trkpt>
      <trkpt lat="47.88011" lon="-1.77644">
        <ele>66</ele>
        <time>2015-06-07T10:31:02Z</time>
      </trkpt>
      <trkpt lat="47.88009" lon="-1.77647">
        <ele>66</ele>
        <time>2015-06-07T10:31:03Z</time>
      </trkpt>
      <trkpt lat="47.88006" lon="-1.7765">
        <ele>66</ele>
        <time>2015-06-07T10:31:04Z</time>
      </trkpt>
      <trkpt lat="47.88004" lon="-1.77654">
        <ele>66</ele>
        <time>2015-06-07T10:31:05Z</time>
      </trkpt>
      <trkpt lat="47.88001" lon="-1.77657">
        <ele>66</ele>
        <time>2015-06-07T10:31:06Z</time>
      </trkpt>
      <trkpt lat="47.87998" lon="-1.77662">
        <ele>66</ele>
        <time>2015-06-07T10:31:07Z</time>
      </trkpt>
      <trkpt lat="47.87996" lon="-1.77667">
        <ele>66</ele>
        <time>2015-06-07T10:31:08Z</time>
      </trkpt>
      <trkpt lat="47.87994" lon="-1.77672">
        <ele>66</ele>
        <time>2015-06-07T10:31:09Z</time>
      </trkpt>
      <trkpt lat="47.87992" lon="-1.77676">
        <ele>65</ele>
        <time>2015-06-07T10:31:10Z</time>
      </trkpt>
      <trkpt lat="47.8799" lon="-1.77679">
        <ele>65</ele>
        <time>2015-06-07T10:31:11Z</time>
      </trkpt>
      <trkpt lat="47.87989" lon="-1.7768">
        <ele>65</ele>
        <time>2015-06-07T10:31:12Z</time>
      </trkpt>
      <trkpt lat="47.87988" lon="-1.77679">
        <ele>65</ele>
        <time>2015-06-07T10:31:13Z</time>
      </trkpt>
      <trkpt lat="47.87988" lon="-1.77678">
        <ele>64</ele>
        <time>2015-06-07T10:31:14Z</time>
      </trkpt>
      <trkpt lat="47.87988" lon="-1.77677">
        <ele>64</ele>
        <time>2015-06-07T10:31:15Z</time>
      </trkpt>
      <trkpt lat="47.87987" lon="-1.77676">
        <ele>64</ele>
        <time>2015-06-07T10:31:16Z</time>
      </trkpt>
      <trkpt lat="47.87987" lon="-1.77675">
        <ele>64</ele>
        <time>2015-06-07T10:31:17Z</time>
      </trkpt>
      <trkpt lat="47.87987" lon="-1.77675">
        <ele>63</ele>
        <time>2015-06-07T10:31:18Z</time>
      </trkpt>
      <trkpt lat="47.87987" lon="-1.77676">
        <ele>63</ele>
        <time>2015-06-07T10:31:19Z</time>
      </trkpt>
      <trkpt lat="47.87986" lon="-1.77676">
        <ele>63</ele>
        <time>2015-06-07T10:31:20Z</time>
      </trkpt>
      <trkpt lat="47.87985" lon="-1.77676">
        <ele>63</ele>
        <time>2015-06-07T10:31:21Z</time>
      </trkpt>
      <trkpt lat="47.87984" lon="-1.77677">
        <ele>63</ele>
        <time>2015-06-07T10:31:22Z</time>
      </trkpt>
      <trkpt lat="47.87983" lon="-1.77679">
        <ele>63</ele>
        <time>2015-06-07T10:31:23Z</time>
      </trkpt>
      <trkpt lat="47.87983" lon="-1.77682">
        <ele>62</ele>
        <time>2015-06-07T10:31:24Z</time>
      </trkpt>
      <trkpt lat="47.87982" lon="-1.77685">
        <ele>62</ele>
        <time>2015-06-07T10:31:25Z</time>
      </trkpt>
      <trkpt lat="47.87981" lon="-1.77686">
        <ele>62</ele>
        <time>2015-06-07T10:31:26Z</time>
      </trkpt>
      <trkpt lat="47.87981" lon="-1.77686">
        <ele>62</ele>
        <time>2015-06-07T10:31:27Z</time>
      </trkpt>
      <trkpt lat="47.8798" lon="-1.77686">
        <ele>62</ele>
        <time>2015-06-07T10:31:28Z</time>
      </trkpt>
      <trkpt lat="47.87979" lon="-1.77687">
        <ele>62</ele>
        <time>2015-06-07T10:31:29Z</time>
      </trkpt>
      <trkpt lat="47.87979" lon="-1.77689">
        <ele>62</ele>
        <time>2015-06-07T10:31:30Z</time>
      </trkpt>
      <trkpt lat="47.87979" lon="-1.7769">
        <ele>62</ele>
        <time>2015-06-07T10:31:31Z</time>
      </trkpt>
      <trkpt lat="47.87979" lon="-1.77692">
        <ele>61</ele>
        <time>2015-06-07T10:31:32Z</time>
      </trkpt>
      <trkpt lat="47.87979" lon="-1.77694">
        <ele>61</ele>
        <time>2015-06-07T10:31:33Z</time>
      </trkpt>
      <trkpt lat="47.87979" lon="-1.77695">
        <ele>61</ele>
        <time>2015-06-07T10:31:34Z</time>
      </trkpt>
      <trkpt lat="47.87979" lon="-1.77697">
        <ele>61</ele>
        <time>2015-06-07T10:31:35Z</time>
      </trkpt>
      <trkpt lat="47.87979" lon="-1.77698">
        <ele>61</ele>
        <time>2015-06-07T10:31:36Z</time>
      </trkpt>
      <trkpt lat="47.87979" lon="-1.77699">
        <ele>60</ele>
        <time>2015-06-07T10:31:37Z</time>
      </trkpt>
      <trkpt lat="47.87979" lon="-1.77701">
        <ele>60</ele>
        <time>2015-06-07T10:31:38Z</time>
      </trkpt>
      <trkpt lat="47.8798" lon="-1.77703">
        <ele>60</ele>
        <time>2015-06-07T10:31:39Z</time>
      </trkpt>
      <trkpt lat="47.87979" lon="-1.77706">
        <ele>60</ele>
        <time>2015-06-07T10:31:40Z</time>
      </trkpt>
      <trkpt lat="47.87978" lon="-1.77709">
        <ele>59</ele>
        <time>2015-06-07T10:31:41Z</time>
      </trkpt>
      <trkpt lat="47.87977" lon="-1.77712">
        <ele>59</ele>
        <time>2015-06-07T10:31:42Z</time>
      </trkpt>
      <trkpt lat="47.87976" lon="-1.77715">
        <ele>59</ele>
        <time>2015-06-07T10:31:43Z</time>
      </trkpt>
      <trkpt lat="47.87974" lon="-1.77716">
        <ele>59</ele>
        <time>2015-06-07T10:31:44Z</time>
      </trkpt>
      <trkpt lat="47.87973" lon="-1.77718">
        <ele>58</ele>
        <time>2015-06-07T10:31:45Z</time>
      </trkpt>
      <trkpt lat="47.87972" lon="-1.77719">
        <ele>58</ele>
        <time>2015-06-07T10:31:46Z</time>
      </trkpt>
      <trkpt lat="47.87972" lon="-1.77721">
        <ele>57</ele>
        <time>2015-06-07T10:31:47Z</time>
      </trkpt>
      <trkpt lat="47.87973" lon="-1.77723">
        <ele>57</ele>
        <time>2015-06-07T10:31:48Z</time>
      </trkpt>
      <trkpt lat="47.87974" lon="-1.77725">
        <ele>57</ele>
        <time>2015-06-07T10:31:49Z</time>
      </trkpt>
      <trkpt lat="47.87976" lon="-1.77726">
        <ele>57</ele>
        <time>2015-06-07T10:31:50Z</time>
      </trkpt>
      <trkpt lat="47.87977" lon="-1.77727">
        <ele>57</ele>
        <time>2015-06-07T10:31:51Z</time>
      </trkpt>
      <trkpt lat="47.87979" lon="-1.77728">
        <ele>57</ele>
        <time>2015-06-07T10:31:52Z</time>
      </trkpt>
      <trkpt lat="47.87981" lon="-1.77729">
        <ele>57</ele>
        <time>2015-06-07T10:31:53Z</time>
      </trkpt>
      <trkpt lat="47.87983" lon="-1.77729">
        <ele>57</ele>
        <time>2015-06-07T10:31:54Z</time>
      </trkpt>
      <trkpt lat="47.87985" lon="-1.77728">
        <ele>57</ele>
        <time>2015-06-07T10:31:55Z</time>
      </trkpt>
      <trkpt lat="47.87987" lon="-1.77728">
        <ele>57</ele>
        <time>2015-06-07T10:31:56Z</time>
      </trkpt>
      <trkpt lat="47.87988" lon="-1.77728">
        <ele>57</ele>
        <time>2015-06-07T10:31:57Z</time>
      </trkpt>
      <trkpt lat="47.8799" lon="-1.77727">
        <ele>57</ele>
        <time>2015-06-07T10:31:58Z</time>
      </trkpt>
      <trkpt lat="47.87992" lon="-1.77726">
        <ele>57</ele>
        <time>2015-06-07T10:31:59Z</time>
      </trkpt>
      <trkpt lat="47.87994" lon="-1.77725">
        <ele>57</ele>
        <time>2015-06-07T10:32:00Z</time>
      </trkpt>
      <trkpt lat="47.87995" lon="-1.77724">
        <ele>57</ele>
        <time>2015-06-07T10:32:01Z</time>
      </trkpt>
      <trkpt lat="47.87998" lon="-1.77724">
        <ele>57</ele>
        <time>2015-06-07T10:32:02Z</time>
      </trkpt>
      <trkpt lat="47.88" lon="-1.77724">
        <ele>57</ele>
        <time>2015-06-07T10:32:03Z</time>
      </trkpt>
      <trkpt lat="47.88002" lon="-1.77724">
        <ele>57</ele>
        <time>2015-06-07T10:32:04Z</time>
      </trkpt>
      <trkpt lat="47.88004" lon="-1.77724">
        <ele>57</ele>
        <time>2015-06-07T10:32:05Z</time>
      </trkpt>
      <trkpt lat="47.88006" lon="-1.77723">
        <ele>58</ele>
        <time>2015-06-07T10:32:06Z</time>
      </trkpt>
      <trkpt lat="47.88008" lon="-1.77724">
        <ele>58</ele>
        <time>2015-06-07T10:32:07Z</time>
      </trkpt>
      <trkpt lat="47.8801" lon="-1.77725">
        <ele>58</ele>
        <time>2015-06-07T10:32:08Z</time>
      </trkpt>
      <trkpt lat="47.88011" lon="-1.77728">
        <ele>58</ele>
        <time>2015-06-07T10:32:09Z</time>
      </trkpt>
      <trkpt lat="47.88013" lon="-1.77732">
        <ele>58</ele>
        <time>2015-06-07T10:32:10Z</time>
      </trkpt>
      <trkpt lat="47.88014" lon="-1.77736">
        <ele>57</ele>
        <time>2015-06-07T10:32:11Z</time>
      </trkpt>
      <trkpt lat="47.88013" lon="-1.7774">
        <ele>57</ele>
        <time>2015-06-07T10:32:12Z</time>
      </trkpt>
      <trkpt lat="47.88014" lon="-1.77744">
        <ele>57</ele>
        <time>2015-06-07T10:32:13Z</time>
      </trkpt>
      <trkpt lat="47.88015" lon="-1.77746">
        <ele>57</ele>
        <time>2015-06-07T10:32:14Z</time>
      </trkpt>
      <trkpt lat="47.88017" lon="-1.77748">
        <ele>57</ele>
        <time>2015-06-07T10:32:15Z</time>
      </trkpt>
      <trkpt lat="47.88019" lon="-1.77749">
        <ele>57</ele>
        <time>2015-06-07T10:32:16Z</time>
      </trkpt>
      <trkpt lat="47.88021" lon="-1.77751">
        <ele>56</ele>
        <time>2015-06-07T10:32:17Z</time>
      </trkpt>
      <trkpt lat="47.88023" lon="-1.77752">
        <ele>56</ele>
        <time>2015-06-07T10:32:18Z</time>
      </trkpt>
      <trkpt lat="47.88025" lon="-1.77755">
        <ele>56</ele>
        <time>2015-06-07T10:32:19Z</time>
      </trkpt>
      <trkpt lat="47.88026" lon="-1.77758">
        <ele>56</ele>
        <time>2015-06-07T10:32:20Z</time>
      </trkpt>
      <trkpt lat="47.88028" lon="-1.77761">
        <ele>56</ele>
        <time>2015-06-07T10:32:21Z</time>
      </trkpt>
      <trkpt lat="47.8803" lon="-1.77764">
        <ele>56</ele>
        <time>2015-06-07T10:32:22Z</time>
      </trkpt>
      <trkpt lat="47.88033" lon="-1.77765">
        <ele>56</ele>
        <time>2015-06-07T10:32:23Z</time>
      </trkpt>
      <trkpt lat="47.88036" lon="-1.77767">
        <ele>56</ele>
        <time>2015-06-07T10:32:24Z</time>
      </trkpt>
      <trkpt lat="47.88038" lon="-1.77768">
        <ele>56</ele>
        <time>2015-06-07T10:32:25Z</time>
      </trkpt>
      <trkpt lat="47.88041" lon="-1.77769">
        <ele>55</ele>
        <time>2015-06-07T10:32:26Z</time>
      </trkpt>
      <trkpt lat="47.88044" lon="-1.77771">
        <ele>55</ele>
        <time>2015-06-07T10:32:27Z</time>
      </trkpt>
      <trkpt lat="47.88047" lon="-1.77771">
        <ele>55</ele>
        <time>2015-06-07T10:32:28Z</time>
      </trkpt>
      <trkpt lat="47.88049" lon="-1.77772">
        <ele>55</ele>
        <time>2015-06-07T10:32:29Z</time>
      </trkpt>
      <trkpt lat="47.88052" lon="-1.77773">
        <ele>55</ele>
        <time>2015-06-07T10:32:30Z</time>
      </trkpt>
      <trkpt lat="47.88054" lon="-1.77774">
        <ele>55</ele>
        <time>2015-06-07T10:32:31Z</time>
      </trkpt>
      <trkpt lat="47.88055" lon="-1.77775">
        <ele>55</ele>
        <time>2015-06-07T10:32:32Z</time>
      </trkpt>
      <trkpt lat="47.88054" lon="-1.77777">
        <ele>55</ele>
        <time>2015-06-07T10:32:33Z</time>
      </trkpt>
      <trkpt lat="47.88055" lon="-1.77781">
        <ele>54</ele>
        <time>2015-06-07T10:32:34Z</time>
      </trkpt>
      <trkpt lat="47.88054" lon="-1.77787">
        <ele>54</ele>
        <time>2015-06-07T10:32:35Z</time>
      </trkpt>
      <trkpt lat="47.88054" lon="-1.77791">
        <ele>54</ele>
        <time>2015-06-07T10:32:36Z</time>
      </trkpt>
      <trkpt lat="47.88055" lon="-1.77796">
        <ele>53</ele>
        <time>2015-06-07T10:32:37Z</time>
      </trkpt>
      <trkpt lat="47.88056" lon="-1.77799">
        <ele>53</ele>
        <time>2015-06-07T10:32:38Z</time>
      </trkpt>
      <trkpt lat="47.88055" lon="-1.77804">
        <ele>53</ele>
        <time>2015-06-07T10:32:39Z</time>
      </trkpt>
      <trkpt lat="47.88055" lon="-1.77808">
        <ele>52</ele>
        <time>2015-06-07T10:32:40Z</time>
      </trkpt>
      <trkpt lat="47.88054" lon="-1.77812">
        <ele>52</ele>
        <time>2015-06-07T10:32:41Z</time>
      </trkpt>
      <trkpt lat="47.88055" lon="-1.77816">
        <ele>52</ele>
        <time>2015-06-07T10:32:42Z</time>
      </trkpt>
      <trkpt lat="47.88055" lon="-1.7782">
        <ele>51</ele>
        <time>2015-06-07T10:32:43Z</time>
      </trkpt>
      <trkpt lat="47.88055" lon="-1.77824">
        <ele>51</ele>
        <time>2015-06-07T10:32:44Z</time>
      </trkpt>
      <trkpt lat="47.88056" lon="-1.77829">
        <ele>50</ele>
        <time>2015-06-07T10:32:45Z</time>
      </trkpt>
      <trkpt lat="47.88057" lon="-1.77834">
        <ele>49</ele>
        <time>2015-06-07T10:32:46Z</time>
      </trkpt>
      <trkpt lat="47.8806" lon="-1.77838">
        <ele>49</ele>
        <time>2015-06-07T10:32:47Z</time>
      </trkpt>
      <trkpt lat="47.8806" lon="-1.77843">
        <ele>48</ele>
        <time>2015-06-07T10:32:48Z</time>
      </trkpt>
      <trkpt lat="47.8806" lon="-1.77848">
        <ele>47</ele>
        <time>2015-06-07T10:32:49Z</time>
      </trkpt>
      <trkpt lat="47.88062" lon="-1.77851">
        <ele>47</ele>
        <time>2015-06-07T10:32:50Z</time>
      </trkpt>
      <trkpt lat="47.88066" lon="-1.77853">
        <ele>46</ele>
        <time>2015-06-07T10:32:51Z</time>
      </trkpt>
      <trkpt lat="47.88069" lon="-1.77852">
        <ele>46</ele>
        <time>2015-06-07T10:32:52Z</time>
      </trkpt>
      <trkpt lat="47.88073" lon="-1.77853">
        <ele>45</ele>
        <time>2015-06-07T10:32:53Z</time>
      </trkpt>
      <trkpt lat="47.88076" lon="-1.77856">
        <ele>45</ele>
        <time>2015-06-07T10:32:54Z</time>
      </trkpt>
      <trkpt lat="47.88079" lon="-1.7786">
        <ele>44</ele>
        <time>2015-06-07T10:32:55Z</time>
      </trkpt>
      <trkpt lat="47.8808" lon="-1.77866">
        <ele>44</ele>
        <time>2015-06-07T10:32:56Z</time>
      </trkpt>
      <trkpt lat="47.88081" lon="-1.77872">
        <ele>43</ele>
        <time>2015-06-07T10:32:57Z</time>
      </trkpt>
      <trkpt lat="47.88081" lon="-1.77876">
        <ele>43</ele>
        <time>2015-06-07T10:32:58Z</time>
      </trkpt>
      <trkpt lat="47.88079" lon="-1.77879">
        <ele>42</ele>
        <time>2015-06-07T10:32:59Z</time>
      </trkpt>
      <trkpt lat="47.88078" lon="-1.77881">
        <ele>42</ele>
        <time>2015-06-07T10:33:00Z</time>
      </trkpt>
      <trkpt lat="47.88078" lon="-1.77884">
        <ele>42</ele>
        <time>2015-06-07T10:33:01Z</time>
      </trkpt>
      <trkpt lat="47.88078" lon="-1.7789">
        <ele>41</ele>
        <time>2015-06-07T10:33:02Z</time>
      </trkpt>
      <trkpt lat="47.88079" lon="-1.77895">
        <ele>41</ele>
        <time>2015-06-07T10:33:03Z</time>
      </trkpt>
      <trkpt lat="47.88079" lon="-1.779">
        <ele>41</ele>
        <time>2015-06-07T10:33:04Z</time>
      </trkpt>
      <trkpt lat="47.88079" lon="-1.77905">
        <ele>40</ele>
        <time>2015-06-07T10:33:05Z</time>
      </trkpt>
      <trkpt lat="47.88079" lon="-1.7791">
        <ele>40</ele>
        <time>2015-06-07T10:33:06Z</time>
      </trkpt>
      <trkpt lat="47.8808" lon="-1.77914">
        <ele>40</ele>
        <time>2015-06-07T10:33:07Z</time>
      </trkpt>
      <trkpt lat="47.88081" lon="-1.77919">
        <ele>40</ele>
        <time>2015-06-07T10:33:08Z</time>
      </trkpt>
      <trkpt lat="47.88082" lon="-1.77922">
        <ele>39</ele>
        <time>2015-06-07T10:33:09Z</time>
      </trkpt>
      <trkpt lat="47.88084" lon="-1.77924">
        <ele>39</ele>
        <time>2015-06-07T10:33:10Z</time>
      </trkpt>
      <trkpt lat="47.88085" lon="-1.77926">
        <ele>39</ele>
        <time>2015-06-07T10:33:11Z</time>
      </trkpt>
      <trkpt lat="47.88088" lon="-1.77929">
        <ele>39</ele>
        <time>2015-06-07T10:33:12Z</time>
      </trkpt>
      <trkpt lat="47.8809" lon="-1.77932">
        <ele>39</ele>
        <time>2015-06-07T10:33:13Z</time>
      </trkpt>
      <trkpt lat="47.88092" lon="-1.77934">
        <ele>39</ele>
        <time>2015-06-07T10:33:14Z</time>
      </trkpt>
      <trkpt lat="47.88095" lon="-1.77936">
        <ele>39</ele>
        <time>2015-06-07T10:33:15Z</time>
      </trkpt>
      <trkpt lat="47.88097" lon="-1.77938">
        <ele>39</ele>
        <time>2015-06-07T10:33:16Z</time>
      </trkpt>
      <trkpt lat="47.88099" lon="-1.77939">
        <ele>39</ele>
        <time>2015-06-07T10:33:17Z</time>
      </trkpt>
      <trkpt lat="47.88101" lon="-1.77939">
        <ele>38</ele>
        <time>2015-06-07T10:33:18Z</time>
      </trkpt>
      <trkpt lat="47.88102" lon="-1.77941">
        <ele>38</ele>
        <time>2015-06-07T10:33:19Z</time>
      </trkpt>
      <trkpt lat="47.88103" lon="-1.77943">
        <ele>38</ele>
        <time>2015-06-07T10:33:20Z</time>
      </trkpt>
      <trkpt lat="47.88104" lon="-1.77944">
        <ele>38</ele>
        <time>2015-06-07T10:33:21Z</time>
      </trkpt>
      <trkpt lat="47.88105" lon="-1.77946">
        <ele>38</ele>
        <time>2015-06-07T10:33:22Z</time>
      </trkpt>
      <trkpt lat="47.88106" lon="-1.77948">
        <ele>37</ele>
        <time>2015-06-07T10:33:23Z</time>
      </trkpt>
      <trkpt lat="47.88108" lon="-1.77951">
        <ele>37</ele>
        <time>2015-06-07T10:33:24Z</time>
      </trkpt>
      <trkpt lat="47.88111" lon="-1.77954">
        <ele>37</ele>
        <time>2015-06-07T10:33:25Z</time>
      </trkpt>
      <trkpt lat="47.88114" lon="-1.7796">
        <ele>37</ele>
        <time>2015-06-07T10:33:26Z</time>
      </trkpt>
      <trkpt lat="47.88117" lon="-1.77965">
        <ele>36</ele>
        <time>2015-06-07T10:33:27Z</time>
      </trkpt>
      <trkpt lat="47.88119" lon="-1.77968">
        <ele>36</ele>
        <time>2015-06-07T10:33:28Z</time>
      </trkpt>
      <trkpt lat="47.88121" lon="-1.77971">
        <ele>36</ele>
        <time>2015-06-07T10:33:29Z</time>
      </trkpt>
      <trkpt lat="47.8812" lon="-1.77973">
        <ele>36</ele>
        <time>2015-06-07T10:33:30Z</time>
      </trkpt>
      <trkpt lat="47.8812" lon="-1.77973">
        <ele>35</ele>
        <time>2015-06-07T10:33:31Z</time>
      </trkpt>
      <trkpt lat="47.88119" lon="-1.77974">
        <ele>35</ele>
        <time>2015-06-07T10:33:32Z</time>
      </trkpt>
      <trkpt lat="47.88117" lon="-1.77973">
        <ele>35</ele>
        <time>2015-06-07T10:33:33Z</time>
      </trkpt>
      <trkpt lat="47.88116" lon="-1.77973">
        <ele>34</ele>
        <time>2015-06-07T10:33:34Z</time>
      </trkpt>
      <trkpt lat="47.88114" lon="-1.77975">
        <ele>34</ele>
        <time>2015-06-07T10:33:35Z</time>
      </trkpt>
      <trkpt lat="47.88113" lon="-1.77979">
        <ele>34</ele>
        <time>2015-06-07T10:33:36Z</time>
      </trkpt>
      <trkpt lat="47.88115" lon="-1.77983">
        <ele>33</ele>
        <time>2015-06-07T10:33:37Z</time>
      </trkpt>
      <trkpt lat="47.88118" lon="-1.77986">
        <ele>33</ele>
        <time>2015-06-07T10:33:38Z</time>
      </trkpt>
      <trkpt lat="47.88121" lon="-1.77989">
        <ele>32</ele>
        <time>2015-06-07T10:33:39Z</time>
      </trkpt>
      <trkpt lat="47.88124" lon="-1.77991">
        <ele>32</ele>
        <time>2015-06-07T10:33:40Z</time>
      </trkpt>
      <trkpt lat="47.88127" lon="-1.77994">
        <ele>31</ele>
        <time>2015-06-07T10:33:41Z</time>
      </trkpt>
      <trkpt lat="47.88131" lon="-1.77997">
        <ele>31</ele>
        <time>2015-06-07T10:33:42Z</time>
      </trkpt>
      <trkpt lat="47.88135" lon="-1.78">
        <ele>30</ele>
        <time>2015-06-07T10:33:43Z</time>
      </trkpt>
      <trkpt lat="47.88139" lon="-1.78003">
        <ele>30</ele>
        <time>2015-06-07T10:33:44Z</time>
      </trkpt>
      <trkpt lat="47.88143" lon="-1.78007">
        <ele>29</ele>
        <time>2015-06-07T10:33:45Z</time>
      </trkpt>
      <trkpt lat="47.88147" lon="-1.7801">
        <ele>29</ele>
        <time>2015-06-07T10:33:46Z</time>
      </trkpt>
      <trkpt lat="47.88151" lon="-1.78013">
        <ele>28</ele>
        <time>2015-06-07T10:33:47Z</time>
      </trkpt>
      <trkpt lat="47.88155" lon="-1.78016">
        <ele>28</ele>
        <time>2015-06-07T10:33:48Z</time>
      </trkpt>
      <trkpt lat="47.88159" lon="-1.78019">
        <ele>28</ele>
        <time>2015-06-07T10:33:49Z</time>
      </trkpt>
      <trkpt lat="47.88163" lon="-1.78022">
        <ele>27</ele>
        <time>2015-06-07T10:33:50Z</time>
      </trkpt>
      <trkpt lat="47.88168" lon="-1.78024">
        <ele>27</ele>
        <time>2015-06-07T10:33:51Z</time>
      </trkpt>
      <trkpt lat="47.88172" lon="-1.78026">
        <ele>27</ele>
        <time>2015-06-07T10:33:52Z</time>
      </trkpt>
      <trkpt lat="47.88177" lon="-1.78028">
        <ele>26</ele>
        <time>2015-06-07T10:33:53Z</time>
      </trkpt>
      <trkpt lat="47.88181" lon="-1.7803">
        <ele>26</ele>
        <time>2015-06-07T10:33:54Z</time>
      </trkpt>
      <trkpt lat="47.88185" lon="-1.78032">
        <ele>26</ele>
        <time>2015-06-07T10:33:55Z</time>
      </trkpt>
      <trkpt lat="47.8819" lon="-1.78033">
        <ele>26</ele>
        <time>2015-06-07T10:33:56Z</time>
      </trkpt>
      <trkpt lat="47.88194" lon="-1.78034">
        <ele>26</ele>
        <time>2015-06-07T10:33:57Z</time>
      </trkpt>
      <trkpt lat="47.88198" lon="-1.78035">
        <ele>25</ele>
        <time>2015-06-07T10:33:58Z</time>
      </trkpt>
      <trkpt lat="47.88203" lon="-1.78035">
        <ele>25</ele>
        <time>2015-06-07T10:33:59Z</time>
      </trkpt>
      <trkpt lat="47.88207" lon="-1.78036">
        <ele>25</ele>
        <time>2015-06-07T10:34:00Z</time>
      </trkpt>
      <trkpt lat="47.88211" lon="-1.78037">
        <ele>25</ele>
        <time>2015-06-07T10:34:01Z</time>
      </trkpt>
      <trkpt lat="47.88216" lon="-1.78037">
        <ele>25</ele>
        <time>2015-06-07T10:34:02Z</time>
      </trkpt>
      <trkpt lat="47.8822" lon="-1.78038">
        <ele>25</ele>
        <time>2015-06-07T10:34:03Z</time>
      </trkpt>
      <trkpt lat="47.88225" lon="-1.78038">
        <ele>26</ele>
        <time>2015-06-07T10:34:04Z</time>
      </trkpt>
      <trkpt lat="47.8823" lon="-1.78039">
        <ele>26</ele>
        <time>2015-06-07T10:34:05Z</time>
      </trkpt>
      <trkpt lat="47.88234" lon="-1.7804">
        <ele>26</ele>
        <time>2015-06-07T10:34:06Z</time>
      </trkpt>
      <trkpt lat="47.88239" lon="-1.7804">
        <ele>26</ele>
        <time>2015-06-07T10:34:07Z</time>
      </trkpt>
      <trkpt lat="47.88243" lon="-1.7804">
        <ele>26</ele>
        <time>2015-06-07T10:34:08Z</time>
      </trkpt>
      <trkpt lat="47.88247" lon="-1.78041">
        <ele>26</ele>
        <time>2015-06-07T10:34:09Z</time>
      </trkpt>
      <trkpt lat="47.88251" lon="-1.78041">
        <ele>26</ele>
        <time>2015-06-07T10:34:10Z</time>
      </trkpt>
      <trkpt lat="47.88256" lon="-1.78042">
        <ele>26</ele>
        <time>2015-06-07T10:34:11Z</time>
      </trkpt>
      <trkpt lat="47.8826" lon="-1.78042">
        <ele>26</ele>
        <time>2015-06-07T10:34:12Z</time>
      </trkpt>
      <trkpt lat="47.88264" lon="-1.78042">
        <ele>26</ele>
        <time>2015-06-07T10:34:13Z</time>
      </trkpt>
      <trkpt lat="47.88268" lon="-1.78043">
        <ele>26</ele>
        <time>2015-06-07T10:34:14Z</time>
      </trkpt>
      <trkpt lat="47.88272" lon="-1.78043">
        <ele>26</ele>
        <time>2015-06-07T10:34:15Z</time>
      </trkpt>
      <trkpt lat="47.88276" lon="-1.78043">
        <ele>26</ele>
        <time>2015-06-07T10:34:16Z</time>
      </trkpt>
      <trkpt lat="47.88281" lon="-1.78043">
        <ele>26</ele>
        <time>2015-06-07T10:34:17Z</time>
      </trkpt>
      <trkpt lat="47.88285" lon="-1.78044">
        <ele>26</ele>
        <time>2015-06-07T10:34:18Z</time>
      </trkpt>
      <trkpt lat="47.88289" lon="-1.78044">
        <ele>26</ele>
        <time>2015-06-07T10:34:19Z</time>
      </trkpt>
      <trkpt lat="47.88294" lon="-1.78044">
        <ele>26</ele>
        <time>2015-06-07T10:34:20Z</time>
      </trkpt>
      <trkpt lat="47.88298" lon="-1.78044">
        <ele>26</ele>
        <time>2015-06-07T10:34:21Z</time>
      </trkpt>
      <trkpt lat="47.88303" lon="-1.78044">
        <ele>26</ele>
        <time>2015-06-07T10:34:22Z</time>
      </trkpt>
      <trkpt lat="47.88307" lon="-1.78044">
        <ele>26</ele>
        <time>2015-06-07T10:34:23Z</time>
      </trkpt>
      <trkpt lat="47.88312" lon="-1.78043">
        <ele>26</ele>
        <time>2015-06-07T10:34:24Z</time>
      </trkpt>
      <trkpt lat="47.88316" lon="-1.78043">
        <ele>27</ele>
        <time>2015-06-07T10:34:25Z</time>
      </trkpt>
      <trkpt lat="47.88321" lon="-1.78042">
        <ele>27</ele>
        <time>2015-06-07T10:34:26Z</time>
      </trkpt>
      <trkpt lat="47.88326" lon="-1.78041">
        <ele>27</ele>
        <time>2015-06-07T10:34:27Z</time>
      </trkpt>
      <trkpt lat="47.8833" lon="-1.78041">
        <ele>27</ele>
        <time>2015-06-07T10:34:28Z</time>
      </trkpt>
      <trkpt lat="47.88335" lon="-1.7804">
        <ele>27</ele>
        <time>2015-06-07T10:34:29Z</time>
      </trkpt>
      <trkpt lat="47.88339" lon="-1.78039">
        <ele>27</ele>
        <time>2015-06-07T10:34:30Z</time>
      </trkpt>
      <trkpt lat="47.88344" lon="-1.78037">
        <ele>27</ele>
        <time>2015-06-07T10:34:31Z</time>
      </trkpt>
      <trkpt lat="47.88349" lon="-1.78036">
        <ele>27</ele>
        <time>2015-06-07T10:34:32Z</time>
      </trkpt>
      <trkpt lat="47.88353" lon="-1.78035">
        <ele>26</ele>
        <time>2015-06-07T10:34:33Z</time>
      </trkpt>
      <trkpt lat="47.88358" lon="-1.78034">
        <ele>26</ele>
        <time>2015-06-07T10:34:34Z</time>
      </trkpt>
      <trkpt lat="47.88362" lon="-1.78033">
        <ele>26</ele>
        <time>2015-06-07T10:34:35Z</time>
      </trkpt>
      <trkpt lat="47.88367" lon="-1.78031">
        <ele>26</ele>
        <time>2015-06-07T10:34:36Z</time>
      </trkpt>
      <trkpt lat="47.88372" lon="-1.7803">
        <ele>26</ele>
        <time>2015-06-07T10:34:37Z</time>
      </trkpt>
      <trkpt lat="47.88377" lon="-1.78028">
        <ele>26</ele>
        <time>2015-06-07T10:34:38Z</time>
      </trkpt>
      <trkpt lat="47.88381" lon="-1.78027">
        <ele>26</ele>
        <time>2015-06-07T10:34:39Z</time>
      </trkpt>
      <trkpt lat="47.88386" lon="-1.78025">
        <ele>26</ele>
        <time>2015-06-07T10:34:40Z</time>
      </trkpt>
      <trkpt lat="47.88391" lon="-1.78024">
        <ele>26</ele>
        <time>2015-06-07T10:34:41Z</time>
      </trkpt>
      <trkpt lat="47.88396" lon="-1.78023">
        <ele>26</ele>
        <time>2015-06-07T10:34:42Z</time>
      </trkpt>
      <trkpt lat="47.88401" lon="-1.78021">
        <ele>26</ele>
        <time>2015-06-07T10:34:43Z</time>
      </trkpt>
      <trkpt lat="47.88405" lon="-1.7802">
        <ele>26</ele>
        <time>2015-06-07T10:34:44Z</time>
      </trkpt>
      <trkpt lat="47.8841" lon="-1.78018">
        <ele>26</ele>
        <time>2015-06-07T10:34:45Z</time>
      </trkpt>
      <trkpt lat="47.88415" lon="-1.78017">
        <ele>26</ele>
        <time>2015-06-07T10:34:46Z</time>
      </trkpt>
      <trkpt lat="47.8842" lon="-1.78015">
        <ele>26</ele>
        <time>2015-06-07T10:34:47Z</time>
      </trkpt>
      <trkpt lat="47.88425" lon="-1.78014">
        <ele>26</ele>
        <time>2015-06-07T10:34:48Z</time>
      </trkpt>
      <trkpt lat="47.8843" lon="-1.78012">
        <ele>26</ele>
        <time>2015-06-07T10:34:49Z</time>
      </trkpt>
      <trkpt lat="47.88435" lon="-1.78011">
        <ele>26</ele>
        <time>2015-06-07T10:34:50Z</time>
      </trkpt>
      <trkpt lat="47.8844" lon="-1.7801">
        <ele>26</ele>
        <time>2015-06-07T10:34:51Z</time>
      </trkpt>
      <trkpt lat="47.88445" lon="-1.78009">
        <ele>25</ele>
        <time>2015-06-07T10:34:52Z</time>
      </trkpt>
      <trkpt lat="47.8845" lon="-1.78008">
        <ele>25</ele>
        <time>2015-06-07T10:34:53Z</time>
      </trkpt>
      <trkpt lat="47.88454" lon="-1.78007">
        <ele>25</ele>
        <time>2015-06-07T10:34:54Z</time>
      </trkpt>
      <trkpt lat="47.88458" lon="-1.78008">
        <ele>25</ele>
        <time>2015-06-07T10:34:55Z</time>
      </trkpt>
      <trkpt lat="47.88462" lon="-1.7801">
        <ele>25</ele>
        <time>2015-06-07T10:34:56Z</time>
      </trkpt>
      <trkpt lat="47.88466" lon="-1.78014">
        <ele>25</ele>
        <time>2015-06-07T10:34:57Z</time>
      </trkpt>
      <trkpt lat="47.88468" lon="-1.7802">
        <ele>24</ele>
        <time>2015-06-07T10:34:58Z</time>
      </trkpt>
      <trkpt lat="47.88469" lon="-1.78026">
        <ele>24</ele>
        <time>2015-06-07T10:34:59Z</time>
      </trkpt>
      <trkpt lat="47.88469" lon="-1.78033">
        <ele>24</ele>
        <time>2015-06-07T10:35:00Z</time>
      </trkpt>
      <trkpt lat="47.88469" lon="-1.78041">
        <ele>24</ele>
        <time>2015-06-07T10:35:01Z</time>
      </trkpt>
      <trkpt lat="47.88469" lon="-1.78048">
        <ele>24</ele>
        <time>2015-06-07T10:35:02Z</time>
      </trkpt>
      <trkpt lat="47.88469" lon="-1.78056">
        <ele>23</ele>
        <time>2015-06-07T10:35:03Z</time>
      </trkpt>
      <trkpt lat="47.88469" lon="-1.78065">
        <ele>23</ele>
        <time>2015-06-07T10:35:04Z</time>
      </trkpt>
      <trkpt lat="47.88469" lon="-1.78073">
        <ele>23</ele>
        <time>2015-06-07T10:35:05Z</time>
      </trkpt>
      <trkpt lat="47.88468" lon="-1.78082">
        <ele>23</ele>
        <time>2015-06-07T10:35:06Z</time>
      </trkpt>
      <trkpt lat="47.88467" lon="-1.7809">
        <ele>23</ele>
        <time>2015-06-07T10:35:07Z</time>
      </trkpt>
      <trkpt lat="47.88467" lon="-1.781">
        <ele>22</ele>
        <time>2015-06-07T10:35:08Z</time>
      </trkpt>
      <trkpt lat="47.88466" lon="-1.78109">
        <ele>22</ele>
        <time>2015-06-07T10:35:09Z</time>
      </trkpt>
      <trkpt lat="47.88466" lon="-1.78118">
        <ele>22</ele>
        <time>2015-06-07T10:35:10Z</time>
      </trkpt>
      <trkpt lat="47.88464" lon="-1.78128">
        <ele>22</ele>
        <time>2015-06-07T10:35:11Z</time>
      </trkpt>
      <trkpt lat="47.88463" lon="-1.78137">
        <ele>21</ele>
        <time>2015-06-07T10:35:12Z</time>
      </trkpt>
      <trkpt lat="47.88461" lon="-1.78146">
        <ele>21</ele>
        <time>2015-06-07T10:35:13Z</time>
      </trkpt>
      <trkpt lat="47.8846" lon="-1.78155">
        <ele>21</ele>
        <time>2015-06-07T10:35:14Z</time>
      </trkpt>
      <trkpt lat="47.88459" lon="-1.78165">
        <ele>21</ele>
        <time>2015-06-07T10:35:15Z</time>
      </trkpt>
      <trkpt lat="47.88457" lon="-1.78174">
        <ele>20</ele>
        <time>2015-06-07T10:35:16Z</time>
      </trkpt>
      <trkpt lat="47.88455" lon="-1.78184">
        <ele>20</ele>
        <time>2015-06-07T10:35:17Z</time>
      </trkpt>
      <trkpt lat="47.88454" lon="-1.78193">
        <ele>20</ele>
        <time>2015-06-07T10:35:18Z</time>
      </trkpt>
      <trkpt lat="47.88452" lon="-1.78203">
        <ele>19</ele>
        <time>2015-06-07T10:35:19Z</time>
      </trkpt>
      <trkpt lat="47.88451" lon="-1.78213">
        <ele>19</ele>
        <time>2015-06-07T10:35:20Z</time>
      </trkpt>
      <trkpt lat="47.88449" lon="-1.78223">
        <ele>19</ele>
        <time>2015-06-07T10:35:21Z</time>
      </trkpt>
      <trkpt lat="47.88447" lon="-1.78233">
        <ele>18</ele>
        <time>2015-06-07T10:35:22Z</time>
      </trkpt>
      <trkpt lat="47.88446" lon="-1.78242">
        <ele>18</ele>
        <time>2015-06-07T10:35:23Z</time>
      </trkpt>
      <trkpt lat="47.88445" lon="-1.78251">
        <ele>18</ele>
        <time>2015-06-07T10:35:24Z</time>
      </trkpt>
      <trkpt lat="47.88445" lon="-1.7826">
        <ele>18</ele>
        <time>2015-06-07T10:35:25Z</time>
      </trkpt>
      <trkpt lat="47.88447" lon="-1.78268">
        <ele>17</ele>
        <time>2015-06-07T10:35:26Z</time>
      </trkpt>
      <trkpt lat="47.8845" lon="-1.78275">
        <ele>17</ele>
        <time>2015-06-07T10:35:27Z</time>
      </trkpt>
      <trkpt lat="47.88454" lon="-1.7828">
        <ele>17</ele>
        <time>2015-06-07T10:35:28Z</time>
      </trkpt>
      <trkpt lat="47.88458" lon="-1.78286">
        <ele>17</ele>
        <time>2015-06-07T10:35:29Z</time>
      </trkpt>
      <trkpt lat="47.88463" lon="-1.78291">
        <ele>16</ele>
        <time>2015-06-07T10:35:30Z</time>
      </trkpt>
      <trkpt lat="47.88467" lon="-1.78296">
        <ele>16</ele>
        <time>2015-06-07T10:35:31Z</time>
      </trkpt>
      <trkpt lat="47.88472" lon="-1.78302">
        <ele>16</ele>
        <time>2015-06-07T10:35:32Z</time>
      </trkpt>
      <trkpt lat="47.88477" lon="-1.78308">
        <ele>16</ele>
        <time>2015-06-07T10:35:33Z</time>
      </trkpt>
      <trkpt lat="47.88482" lon="-1.78314">
        <ele>15</ele>
        <time>2015-06-07T10:35:34Z</time>
      </trkpt>
      <trkpt lat="47.88488" lon="-1.7832">
        <ele>15</ele>
        <time>2015-06-07T10:35:35Z</time>
      </trkpt>
      <trkpt lat="47.88493" lon="-1.78327">
        <ele>15</ele>
        <time>2015-06-07T10:35:36Z</time>
      </trkpt>
      <trkpt lat="47.88498" lon="-1.78333">
        <ele>15</ele>
        <time>2015-06-07T10:35:37Z</time>
      </trkpt>
      <trkpt lat="47.88503" lon="-1.7834">
        <ele>15</ele>
        <time>2015-06-07T10:35:38Z</time>
      </trkpt>
      <trkpt lat="47.88508" lon="-1.78346">
        <ele>15</ele>
        <time>2015-06-07T10:35:39Z</time>
      </trkpt>
      <trkpt lat="47.88513" lon="-1.78353">
        <ele>15</ele>
        <time>2015-06-07T10:35:40Z</time>
      </trkpt>
      <trkpt lat="47.88518" lon="-1.78359">
        <ele>15</ele>
        <time>2015-06-07T10:35:41Z</time>
      </trkpt>
      <trkpt lat="47.88523" lon="-1.78366">
        <ele>15</ele>
        <time>2015-06-07T10:35:42Z</time>
      </trkpt>
      <trkpt lat="47.88529" lon="-1.78373">
        <ele>14</ele>
        <time>2015-06-07T10:35:43Z</time>
      </trkpt>
      <trkpt lat="47.88534" lon="-1.7838">
        <ele>14</ele>
        <time>2015-06-07T10:35:44Z</time>
      </trkpt>
      <trkpt lat="47.8854" lon="-1.78387">
        <ele>14</ele>
        <time>2015-06-07T10:35:45Z</time>
      </trkpt>
      <trkpt lat="47.88545" lon="-1.78394">
        <ele>14</ele>
        <time>2015-06-07T10:35:46Z</time>
      </trkpt>
      <trkpt lat="47.88551" lon="-1.78401">
        <ele>14</ele>
        <time>2015-06-07T10:35:47Z</time>
      </trkpt>
      <trkpt lat="47.88557" lon="-1.78408">
        <ele>14</ele>
        <time>2015-06-07T10:35:48Z</time>
      </trkpt>
      <trkpt lat="47.88562" lon="-1.78415">
        <ele>13</ele>
        <time>2015-06-07T10:35:49Z</time>
      </trkpt>
      <trkpt lat="47.88568" lon="-1.78422">
        <ele>13</ele>
        <time>2015-06-07T10:35:50Z</time>
      </trkpt>
      <trkpt lat="47.88573" lon="-1.78429">
        <ele>13</ele>
        <time>2015-06-07T10:35:51Z</time>
      </trkpt>
      <trkpt lat="47.88578" lon="-1.78435">
        <ele>13</ele>
        <time>2015-06-07T10:35:52Z</time>
      </trkpt>
      <trkpt lat="47.88584" lon="-1.78442">
        <ele>12</ele>
        <time>2015-06-07T10:35:53Z</time>
      </trkpt>
      <trkpt lat="47.88589" lon="-1.78449">
        <ele>12</ele>
        <time>2015-06-07T10:35:54Z</time>
      </trkpt>
      <trkpt lat="47.88594" lon="-1.78454">
        <ele>12</ele>
        <time>2015-06-07T10:35:55Z</time>
      </trkpt>
      <trkpt lat="47.88599" lon="-1.7846">
        <ele>12</ele>
        <time>2015-06-07T10:35:56Z</time>
      </trkpt>
      <trkpt lat="47.88605" lon="-1.78464">
        <ele>12</ele>
        <time>2015-06-07T10:35:57Z</time>
      </trkpt>
      <trkpt lat="47.8861" lon="-1.78468">
        <ele>12</ele>
        <time>2015-06-07T10:35:58Z</time>
      </trkpt>
      <trkpt lat="47.88617" lon="-1.7847">
        <ele>12</ele>
        <time>2015-06-07T10:35:59Z</time>
      </trkpt>
      <trkpt lat="47.88623" lon="-1.78472">
        <ele>13</ele>
        <time>2015-06-07T10:36:00Z</time>
      </trkpt>
      <trkpt lat="47.88629" lon="-1.78473">
        <ele>13</ele>
        <time>2015-06-07T10:36:01Z</time>
      </trkpt>
      <trkpt lat="47.88635" lon="-1.78473">
        <ele>13</ele>
        <time>2015-06-07T10:36:02Z</time>
      </trkpt>
      <trkpt lat="47.88642" lon="-1.78473">
        <ele>13</ele>
        <time>2015-06-07T10:36:03Z</time>
      </trkpt>
      <trkpt lat="47.88648" lon="-1.78473">
        <ele>13</ele>
        <time>2015-06-07T10:36:04Z</time>
      </trkpt>
      <trkpt lat="47.88654" lon="-1.78474">
        <ele>13</ele>
        <time>2015-06-07T10:36:05Z</time>
      </trkpt>
      <trkpt lat="47.8866" lon="-1.78474">
        <ele>13</ele>
        <time>2015-06-07T10:36:06Z</time>
      </trkpt>
      <trkpt lat="47.88667" lon="-1.78474">
        <ele>13</ele>
        <time>2015-06-07T10:36:07Z</time>
      </trkpt>
      <trkpt lat="47.88673" lon="-1.78474">
        <ele>14</ele>
        <time>2015-06-07T10:36:08Z</time>
      </trkpt>
      <trkpt lat="47.88679" lon="-1.78474">
        <ele>14</ele>
        <time>2015-06-07T10:36:09Z</time>
      </trkpt>
      <trkpt lat="47.88684" lon="-1.78474">
        <ele>14</ele>
        <time>2015-06-07T10:36:10Z</time>
      </trkpt>
      <trkpt lat="47.8869" lon="-1.78474">
        <ele>14</ele>
        <time>2015-06-07T10:36:11Z</time>
      </trkpt>
      <trkpt lat="47.88696" lon="-1.78474">
        <ele>14</ele>
        <time>2015-06-07T10:36:12Z</time>
      </trkpt>
      <trkpt lat="47.88702" lon="-1.78473">
        <ele>14</ele>
        <time>2015-06-07T10:36:13Z</time>
      </trkpt>
      <trkpt lat="47.88708" lon="-1.78471">
        <ele>14</ele>
        <time>2015-06-07T10:36:14Z</time>
      </trkpt>
      <trkpt lat="47.88714" lon="-1.7847">
        <ele>14</ele>
        <time>2015-06-07T10:36:15Z</time>
      </trkpt>
      <trkpt lat="47.8872" lon="-1.78468">
        <ele>15</ele>
        <time>2015-06-07T10:36:16Z</time>
      </trkpt>
      <trkpt lat="47.88727" lon="-1.78466">
        <ele>15</ele>
        <time>2015-06-07T10:36:17Z</time>
      </trkpt>
      <trkpt lat="47.88733" lon="-1.78464">
        <ele>15</ele>
        <time>2015-06-07T10:36:18Z</time>
      </trkpt>
      <trkpt lat="47.88738" lon="-1.78462">
        <ele>15</ele>
        <time>2015-06-07T10:36:19Z</time>
      </trkpt>
      <trkpt lat="47.88744" lon="-1.7846">
        <ele>15</ele>
        <time>2015-06-07T10:36:20Z</time>
      </trkpt>
      <trkpt lat="47.88751" lon="-1.78458">
        <ele>15</ele>
        <time>2015-06-07T10:36:21Z</time>
      </trkpt>
      <trkpt lat="47.88757" lon="-1.78455">
        <ele>15</ele>
        <time>2015-06-07T10:36:22Z</time>
      </trkpt>
      <trkpt lat="47.88763" lon="-1.78453">
        <ele>15</ele>
        <time>2015-06-07T10:36:23Z</time>
      </trkpt>
      <trkpt lat="47.88769" lon="-1.78451">
        <ele>15</ele>
        <time>2015-06-07T10:36:24Z</time>
      </trkpt>
      <trkpt lat="47.88775" lon="-1.7845">
        <ele>15</ele>
        <time>2015-06-07T10:36:25Z</time>
      </trkpt>
      <trkpt lat="47.88781" lon="-1.78447">
        <ele>14</ele>
        <time>2015-06-07T10:36:26Z</time>
      </trkpt>
      <trkpt lat="47.88787" lon="-1.78444">
        <ele>14</ele>
        <time>2015-06-07T10:36:27Z</time>
      </trkpt>
      <trkpt lat="47.88792" lon="-1.78441">
        <ele>14</ele>
        <time>2015-06-07T10:36:28Z</time>
      </trkpt>
      <trkpt lat="47.88798" lon="-1.78438">
        <ele>14</ele>
        <time>2015-06-07T10:36:29Z</time>
      </trkpt>
      <trkpt lat="47.88804" lon="-1.78435">
        <ele>14</ele>
        <time>2015-06-07T10:36:30Z</time>
      </trkpt>
      <trkpt lat="47.8881" lon="-1.78432">
        <ele>14</ele>
        <time>2015-06-07T10:36:31Z</time>
      </trkpt>
      <trkpt lat="47.88816" lon="-1.7843">
        <ele>14</ele>
        <time>2015-06-07T10:36:32Z</time>
      </trkpt>
      <trkpt lat="47.88823" lon="-1.78427">
        <ele>13</ele>
        <time>2015-06-07T10:36:33Z</time>
      </trkpt>
      <trkpt lat="47.88829" lon="-1.78424">
        <ele>13</ele>
        <time>2015-06-07T10:36:34Z</time>
      </trkpt>
      <trkpt lat="47.88835" lon="-1.78422">
        <ele>13</ele>
        <time>2015-06-07T10:36:35Z</time>
      </trkpt>
      <trkpt lat="47.88841" lon="-1.7842">
        <ele>13</ele>
        <time>2015-06-07T10:36:36Z</time>
      </trkpt>
      <trkpt lat="47.88847" lon="-1.78418">
        <ele>13</ele>
        <time>2015-06-07T10:36:37Z</time>
      </trkpt>
      <trkpt lat="47.88854" lon="-1.78415">
        <ele>13</ele>
        <time>2015-06-07T10:36:38Z</time>
      </trkpt>
      <trkpt lat="47.8886" lon="-1.78413">
        <ele>12</ele>
        <time>2015-06-07T10:36:39Z</time>
      </trkpt>
      <trkpt lat="47.88867" lon="-1.78412">
        <ele>12</ele>
        <time>2015-06-07T10:36:40Z</time>
      </trkpt>
      <trkpt lat="47.88873" lon="-1.7841">
        <ele>12</ele>
        <time>2015-06-07T10:36:41Z</time>
      </trkpt>
      <trkpt lat="47.8888" lon="-1.78408">
        <ele>12</ele>
        <time>2015-06-07T10:36:42Z</time>
      </trkpt>
      <trkpt lat="47.88886" lon="-1.78407">
        <ele>12</ele>
        <time>2015-06-07T10:36:43Z</time>
      </trkpt>
      <trkpt lat="47.88893" lon="-1.78405">
        <ele>12</ele>
        <time>2015-06-07T10:36:44Z</time>
      </trkpt>
      <trkpt lat="47.88899" lon="-1.78403">
        <ele>12</ele>
        <time>2015-06-07T10:36:45Z</time>
      </trkpt>
      <trkpt lat="47.88905" lon="-1.78402">
        <ele>12</ele>
        <time>2015-06-07T10:36:46Z</time>
      </trkpt>
      <trkpt lat="47.88912" lon="-1.784">
        <ele>12</ele>
        <time>2015-06-07T10:36:47Z</time>
      </trkpt>
      <trkpt lat="47.88917" lon="-1.78398">
        <ele>11</ele>
        <time>2015-06-07T10:36:48Z</time>
      </trkpt>
      <trkpt lat="47.88923" lon="-1.78397">
        <ele>11</ele>
        <time>2015-06-07T10:36:49Z</time>
      </trkpt>
      <trkpt lat="47.88929" lon="-1.78395">
        <ele>11</ele>
        <time>2015-06-07T10:36:50Z</time>
      </trkpt>
      <trkpt lat="47.88935" lon="-1.78394">
        <ele>11</ele>
        <time>2015-06-07T10:36:51Z</time>
      </trkpt>
      <trkpt lat="47.88941" lon="-1.78392">
        <ele>11</ele>
        <time>2015-06-07T10:36:52Z</time>
      </trkpt>
      <trkpt lat="47.88947" lon="-1.78391">
        <ele>11</ele>
        <time>2015-06-07T10:36:53Z</time>
      </trkpt>
      <trkpt lat="47.88953" lon="-1.7839">
        <ele>11</ele>
        <time>2015-06-07T10:36:54Z</time>
      </trkpt>
      <trkpt lat="47.88959" lon="-1.78388">
        <ele>11</ele>
        <time>2015-06-07T10:36:55Z</time>
      </trkpt>
      <trkpt lat="47.88964" lon="-1.78387">
        <ele>11</ele>
        <time>2015-06-07T10:36:56Z</time>
      </trkpt>
      <trkpt lat="47.8897" lon="-1.78385">
        <ele>11</ele>
        <time>2015-06-07T10:36:57Z</time>
      </trkpt>
      <trkpt lat="47.88975" lon="-1.78384">
        <ele>11</ele>
        <time>2015-06-07T10:36:58Z</time>
      </trkpt>
      <trkpt lat="47.88981" lon="-1.78381">
        <ele>11</ele>
        <time>2015-06-07T10:36:59Z</time>
      </trkpt>
      <trkpt lat="47.88986" lon="-1.78378">
        <ele>11</ele>
        <time>2015-06-07T10:37:00Z</time>
      </trkpt>
      <trkpt lat="47.88991" lon="-1.78374">
        <ele>11</ele>
        <time>2015-06-07T10:37:01Z</time>
      </trkpt>
      <trkpt lat="47.88996" lon="-1.78369">
        <ele>11</ele>
        <time>2015-06-07T10:37:02Z</time>
      </trkpt>
      <trkpt lat="47.89" lon="-1.78364">
        <ele>11</ele>
        <time>2015-06-07T10:37:03Z</time>
      </trkpt>
      <trkpt lat="47.89004" lon="-1.78358">
        <ele>11</ele>
        <time>2015-06-07T10:37:04Z</time>
      </trkpt>
      <trkpt lat="47.89008" lon="-1.78351">
        <ele>11</ele>
        <time>2015-06-07T10:37:05Z</time>
      </trkpt>
      <trkpt lat="47.89011" lon="-1.78345">
        <ele>11</ele>
        <time>2015-06-07T10:37:06Z</time>
      </trkpt>
      <trkpt lat="47.89015" lon="-1.78338">
        <ele>11</ele>
        <time>2015-06-07T10:37:07Z</time>
      </trkpt>
      <trkpt lat="47.89018" lon="-1.78331">
        <ele>11</ele>
        <time>2015-06-07T10:37:08Z</time>
      </trkpt>
      <trkpt lat="47.89022" lon="-1.78324">
        <ele>11</ele>
        <time>2015-06-07T10:37:09Z</time>
      </trkpt>
      <trkpt lat="47.89025" lon="-1.78318">
        <ele>11</ele>
        <time>2015-06-07T10:37:10Z</time>
      </trkpt>
      <trkpt lat="47.89029" lon="-1.78311">
        <ele>11</ele>
        <time>2015-06-07T10:37:11Z</time>
      </trkpt>
      <trkpt lat="47.89033" lon="-1.78304">
        <ele>11</ele>
        <time>2015-06-07T10:37:12Z</time>
      </trkpt>
      <trkpt lat="47.89037" lon="-1.78297">
        <ele>11</ele>
        <time>2015-06-07T10:37:13Z</time>
      </trkpt>
      <trkpt lat="47.8904" lon="-1.7829">
        <ele>11</ele>
        <time>2015-06-07T10:37:14Z</time>
      </trkpt>
      <trkpt lat="47.89044" lon="-1.78283">
        <ele>11</ele>
        <time>2015-06-07T10:37:15Z</time>
      </trkpt>
      <trkpt lat="47.89047" lon="-1.78276">
        <ele>11</ele>
        <time>2015-06-07T10:37:16Z</time>
      </trkpt>
      <trkpt lat="47.8905" lon="-1.78269">
        <ele>11</ele>
        <time>2015-06-07T10:37:17Z</time>
      </trkpt>
      <trkpt lat="47.89054" lon="-1.78262">
        <ele>11</ele>
        <time>2015-06-07T10:37:18Z</time>
      </trkpt>
      <trkpt lat="47.89057" lon="-1.78255">
        <ele>11</ele>
        <time>2015-06-07T10:37:19Z</time>
      </trkpt>
      <trkpt lat="47.8906" lon="-1.78248">
        <ele>11</ele>
        <time>2015-06-07T10:37:20Z</time>
      </trkpt>
      <trkpt lat="47.89064" lon="-1.78241">
        <ele>11</ele>
        <time>2015-06-07T10:37:21Z</time>
      </trkpt>
      <trkpt lat="47.89067" lon="-1.78234">
        <ele>11</ele>
        <time>2015-06-07T10:37:22Z</time>
      </trkpt>
      <trkpt lat="47.89071" lon="-1.78227">
        <ele>11</ele>
        <time>2015-06-07T10:37:23Z</time>
      </trkpt>
      <trkpt lat="47.89074" lon="-1.7822">
        <ele>11</ele>
        <time>2015-06-07T10:37:24Z</time>
      </trkpt>
      <trkpt lat="47.89078" lon="-1.78213">
        <ele>11</ele>
        <time>2015-06-07T10:37:25Z</time>
      </trkpt>
      <trkpt lat="47.89082" lon="-1.78207">
        <ele>11</ele>
        <time>2015-06-07T10:37:26Z</time>
      </trkpt>
      <trkpt lat="47.89087" lon="-1.78201">
        <ele>11</ele>
        <time>2015-06-07T10:37:27Z</time>
      </trkpt>
      <trkpt lat="47.89092" lon="-1.78196">
        <ele>11</ele>
        <time>2015-06-07T10:37:28Z</time>
      </trkpt>
      <trkpt lat="47.89097" lon="-1.78192">
        <ele>11</ele>
        <time>2015-06-07T10:37:29Z</time>
      </trkpt>
      <trkpt lat="47.89102" lon="-1.78188">
        <ele>11</ele>
        <time>2015-06-07T10:37:30Z</time>
      </trkpt>
      <trkpt lat="47.89107" lon="-1.78185">
        <ele>11</ele>
        <time>2015-06-07T10:37:31Z</time>
      </trkpt>
      <trkpt lat="47.89112" lon="-1.78182">
        <ele>11</ele>
        <time>2015-06-07T10:37:32Z</time>
      </trkpt>
      <trkpt lat="47.89117" lon="-1.78179">
        <ele>11</ele>
        <time>2015-06-07T10:37:33Z</time>
      </trkpt>
      <trkpt lat="47.89122" lon="-1.78176">
        <ele>11</ele>
        <time>2015-06-07T10:37:34Z</time>
      </trkpt>
      <trkpt lat="47.89127" lon="-1.78173">
        <ele>11</ele>
        <time>2015-06-07T10:37:35Z</time>
      </trkpt>
      <trkpt lat="47.89133" lon="-1.7817">
        <ele>11</ele>
        <time>2015-06-07T10:37:36Z</time>
      </trkpt>
      <trkpt lat="47.89138" lon="-1.78167">
        <ele>10</ele>
        <time>2015-06-07T10:37:37Z</time>
      </trkpt>
      <trkpt lat="47.89144" lon="-1.78164">
        <ele>10</ele>
        <time>2015-06-07T10:37:38Z</time>
      </trkpt>
      <trkpt lat="47.8915" lon="-1.7816">
        <ele>10</ele>
        <time>2015-06-07T10:37:39Z</time>
      </trkpt>
      <trkpt lat="47.89156" lon="-1.78155">
        <ele>10</ele>
        <time>2015-06-07T10:37:40Z</time>
      </trkpt>
      <trkpt lat="47.8916" lon="-1.78149">
        <ele>10</ele>
        <time>2015-06-07T10:37:41Z</time>
      </trkpt>
      <trkpt lat="47.89162" lon="-1.78141">
        <ele>10</ele>
        <time>2015-06-07T10:37:42Z</time>
      </trkpt>
      <trkpt lat="47.89163" lon="-1.78133">
        <ele>10</ele>
        <time>2015-06-07T10:37:43Z</time>
      </trkpt>
      <trkpt lat="47.89165" lon="-1.78126">
        <ele>10</ele>
        <time>2015-06-07T10:37:44Z</time>
      </trkpt>
      <trkpt lat="47.89166" lon="-1.78117">
        <ele>10</ele>
        <time>2015-06-07T10:37:45Z</time>
      </trkpt>
      <trkpt lat="47.89167" lon="-1.7811">
        <ele>10</ele>
        <time>2015-06-07T10:37:46Z</time>
      </trkpt>
      <trkpt lat="47.89167" lon="-1.78102">
        <ele>10</ele>
        <time>2015-06-07T10:37:47Z</time>
      </trkpt>
      <trkpt lat="47.89166" lon="-1.78095">
        <ele>10</ele>
        <time>2015-06-07T10:37:48Z</time>
      </trkpt>
      <trkpt lat="47.89164" lon="-1.78089">
        <ele>10</ele>
        <time>2015-06-07T10:37:49Z</time>
      </trkpt>
      <trkpt lat="47.89161" lon="-1.78083">
        <ele>10</ele>
        <time>2015-06-07T10:37:50Z</time>
      </trkpt>
      <trkpt lat="47.89158" lon="-1.78078">
        <ele>10</ele>
        <time>2015-06-07T10:37:51Z</time>
      </trkpt>
      <trkpt lat="47.89155" lon="-1.78074">
        <ele>11</ele>
        <time>2015-06-07T10:37:52Z</time>
      </trkpt>
      <trkpt lat="47.89152" lon="-1.7807">
        <ele>11</ele>
        <time>2015-06-07T10:37:53Z</time>
      </trkpt>
      <trkpt lat="47.8915" lon="-1.78066">
        <ele>11</ele>
        <time>2015-06-07T10:37:54Z</time>
      </trkpt>
      <trkpt lat="47.89147" lon="-1.78061">
        <ele>12</ele>
        <time>2015-06-07T10:37:55Z</time>
      </trkpt>
      <trkpt lat="47.89143" lon="-1.78057">
        <ele>12</ele>
        <time>2015-06-07T10:37:56Z</time>
      </trkpt>
      <trkpt lat="47.89139" lon="-1.78052">
        <ele>12</ele>
        <time>2015-06-07T10:37:57Z</time>
      </trkpt>
      <trkpt lat="47.89136" lon="-1.78047">
        <ele>13</ele>
        <time>2015-06-07T10:37:58Z</time>
      </trkpt>
      <trkpt lat="47.89133" lon="-1.78042">
        <ele>13</ele>
        <time>2015-06-07T10:37:59Z</time>
      </trkpt>
      <trkpt lat="47.89129" lon="-1.78037">
        <ele>13</ele>
        <time>2015-06-07T10:38:00Z</time>
      </trkpt>
      <trkpt lat="47.89126" lon="-1.78033">
        <ele>14</ele>
        <time>2015-06-07T10:38:01Z</time>
      </trkpt>
      <trkpt lat="47.89123" lon="-1.78028">
        <ele>14</ele>
        <time>2015-06-07T10:38:02Z</time>
      </trkpt>
      <trkpt lat="47.89121" lon="-1.78024">
        <ele>14</ele>
        <time>2015-06-07T10:38:03Z</time>
      </trkpt>
      <trkpt lat="47.89119" lon="-1.7802">
        <ele>14</ele>
        <time>2015-06-07T10:38:04Z</time>
      </trkpt>
      <trkpt lat="47.89117" lon="-1.78016">
        <ele>15</ele>
        <time>2015-06-07T10:38:05Z</time>
      </trkpt>
      <trkpt lat="47.89116" lon="-1.78011">
        <ele>15</ele>
        <time>2015-06-07T10:38:06Z</time>
      </trkpt>
      <trkpt lat="47.89117" lon="-1.78008">
        <ele>15</ele>
        <time>2015-06-07T10:38:07Z</time>
      </trkpt>
      <trkpt lat="47.89119" lon="-1.78006">
        <ele>16</ele>
        <time>2015-06-07T10:38:08Z</time>
      </trkpt>
      <trkpt lat="47.89121" lon="-1.78004">
        <ele>16</ele>
        <time>2015-06-07T10:38:09Z</time>
      </trkpt>
      <trkpt lat="47.89123" lon="-1.78001">
        <ele>16</ele>
        <time>2015-06-07T10:38:10Z</time>
      </trkpt>
      <trkpt lat="47.89125" lon="-1.77998">
        <ele>16</ele>
        <time>2015-06-07T10:38:11Z</time>
      </trkpt>
      <trkpt lat="47.89128" lon="-1.77995">
        <ele>16</ele>
        <time>2015-06-07T10:38:12Z</time>
      </trkpt>
      <trkpt lat="47.8913" lon="-1.77991">
        <ele>16</ele>
        <time>2015-06-07T10:38:13Z</time>
      </trkpt>
      <trkpt lat="47.89132" lon="-1.77986">
        <ele>17</ele>
        <time>2015-06-07T10:38:14Z</time>
      </trkpt>
      <trkpt lat="47.89133" lon="-1.77982">
        <ele>17</ele>
        <time>2015-06-07T10:38:15Z</time>
      </trkpt>
      <trkpt lat="47.89133" lon="-1.77978">
        <ele>17</ele>
        <time>2015-06-07T10:38:16Z</time>
      </trkpt>
      <trkpt lat="47.89132" lon="-1.77975">
        <ele>17</ele>
        <time>2015-06-07T10:38:17Z</time>
      </trkpt>
      <trkpt lat="47.89129" lon="-1.77973">
        <ele>17</ele>
        <time>2015-06-07T10:38:18Z</time>
      </trkpt>
      <trkpt lat="47.89127" lon="-1.77971">
        <ele>17</ele>
        <time>2015-06-07T10:38:19Z</time>
      </trkpt>
      <trkpt lat="47.89125" lon="-1.77967">
        <ele>17</ele>
        <time>2015-06-07T10:38:20Z</time>
      </trkpt>
      <trkpt lat="47.89124" lon="-1.77962">
        <ele>17</ele>
        <time>2015-06-07T10:38:21Z</time>
      </trkpt>
      <trkpt lat="47.89122" lon="-1.77957">
        <ele>17</ele>
        <time>2015-06-07T10:38:22Z</time>
      </trkpt>
      <trkpt lat="47.89121" lon="-1.77952">
        <ele>17</ele>
        <time>2015-06-07T10:38:23Z</time>
      </trkpt>
      <trkpt lat="47.89119" lon="-1.77946">
        <ele>17</ele>
        <time>2015-06-07T10:38:24Z</time>
      </trkpt>
      <trkpt lat="47.89117" lon="-1.77941">
        <ele>17</ele>
        <time>2015-06-07T10:38:25Z</time>
      </trkpt>
      <trkpt lat="47.89116" lon="-1.77937">
        <ele>17</ele>
        <time>2015-06-07T10:38:26Z</time>
      </trkpt>
      <trkpt lat="47.89113" lon="-1.77935">
        <ele>18</ele>
        <time>2015-06-07T10:38:27Z</time>
      </trkpt>
      <trkpt lat="47.89111" lon="-1.77934">
        <ele>18</ele>
        <time>2015-06-07T10:38:28Z</time>
      </trkpt>
      <trkpt lat="47.89109" lon="-1.77934">
        <ele>18</ele>
        <time>2015-06-07T10:38:29Z</time>
      </trkpt>
      <trkpt lat="47.89106" lon="-1.77932">
        <ele>18</ele>
        <time>2015-06-07T10:38:30Z</time>
      </trkpt>
      <trkpt lat="47.89102" lon="-1.7793">
        <ele>18</ele>
        <time>2015-06-07T10:38:31Z</time>
      </trkpt>
      <trkpt lat="47.891" lon="-1.77928">
        <ele>18</ele>
        <time>2015-06-07T10:38:32Z</time>
      </trkpt>
      <trkpt lat="47.89099" lon="-1.77925">
        <ele>18</ele>
        <time>2015-06-07T10:38:33Z</time>
      </trkpt>
      <trkpt lat="47.89099" lon="-1.77924">
        <ele>19</ele>
        <time>2015-06-07T10:38:34Z</time>
      </trkpt>
      <trkpt lat="47.89099" lon="-1.77922">
        <ele>19</ele>
        <time>2015-06-07T10:38:35Z</time>
      </trkpt>
      <trkpt lat="47.891" lon="-1.77921">
        <ele>19</ele>
        <time>2015-06-07T10:38:36Z</time>
      </trkpt>
      <trkpt lat="47.89101" lon="-1.77918">
        <ele>19</ele>
        <time>2015-06-07T10:38:37Z</time>
      </trkpt>
      <trkpt lat="47.89101" lon="-1.77916">
        <ele>19</ele>
        <time>2015-06-07T10:38:38Z</time>
      </trkpt>
      <trkpt lat="47.89103" lon="-1.77915">
        <ele>19</ele>
        <time>2015-06-07T10:38:39Z</time>
      </trkpt>
      <trkpt lat="47.89104" lon="-1.77913">
        <ele>19</ele>
        <time>2015-06-07T10:38:40Z</time>
      </trkpt>
      <trkpt lat="47.89106" lon="-1.77912">
        <ele>19</ele>
        <time>2015-06-07T10:38:41Z</time>
      </trkpt>
      <trkpt lat="47.89107" lon="-1.7791">
        <ele>20</ele>
        <time>2015-06-07T10:38:42Z</time>
      </trkpt>
      <trkpt lat="47.89108" lon="-1.77906">
        <ele>20</ele>
        <time>2015-06-07T10:38:43Z</time>
      </trkpt>
      <trkpt lat="47.8911" lon="-1.77903">
        <ele>20</ele>
        <time>2015-06-07T10:38:44Z</time>
      </trkpt>
      <trkpt lat="47.89112" lon="-1.779">
        <ele>20</ele>
        <time>2015-06-07T10:38:45Z</time>
      </trkpt>
      <trkpt lat="47.89116" lon="-1.77897">
        <ele>20</ele>
        <time>2015-06-07T10:38:46Z</time>
      </trkpt>
      <trkpt lat="47.89119" lon="-1.77895">
        <ele>20</ele>
        <time>2015-06-07T10:38:47Z</time>
      </trkpt>
      <trkpt lat="47.89122" lon="-1.77893">
        <ele>20</ele>
        <time>2015-06-07T10:38:48Z</time>
      </trkpt>
      <trkpt lat="47.89125" lon="-1.77889">
        <ele>20</ele>
        <time>2015-06-07T10:38:49Z</time>
      </trkpt>
      <trkpt lat="47.89128" lon="-1.77886">
        <ele>20</ele>
        <time>2015-06-07T10:38:50Z</time>
      </trkpt>
      <trkpt lat="47.89131" lon="-1.77884">
        <ele>20</ele>
        <time>2015-06-07T10:38:51Z</time>
      </trkpt>
      <trkpt lat="47.89134" lon="-1.77884">
        <ele>20</ele>
        <time>2015-06-07T10:38:52Z</time>
      </trkpt>
      <trkpt lat="47.89138" lon="-1.77885">
        <ele>21</ele>
        <time>2015-06-07T10:38:53Z</time>
      </trkpt>
      <trkpt lat="47.89141" lon="-1.77885">
        <ele>21</ele>
        <time>2015-06-07T10:38:54Z</time>
      </trkpt>
      <trkpt lat="47.89144" lon="-1.77883">
        <ele>21</ele>
        <time>2015-06-07T10:38:55Z</time>
      </trkpt>
      <trkpt lat="47.89146" lon="-1.7788">
        <ele>21</ele>
        <time>2015-06-07T10:38:56Z</time>
      </trkpt>
      <trkpt lat="47.89149" lon="-1.77878">
        <ele>21</ele>
        <time>2015-06-07T10:38:57Z</time>
      </trkpt>
      <trkpt lat="47.8915" lon="-1.77875">
        <ele>21</ele>
        <time>2015-06-07T10:38:58Z</time>
      </trkpt>
      <trkpt lat="47.89151" lon="-1.77874">
        <ele>21</ele>
        <time>2015-06-07T10:38:59Z</time>
      </trkpt>
      <trkpt lat="47.89151" lon="-1.77873">
        <ele>21</ele>
        <time>2015-06-07T10:39:00Z</time>
      </trkpt>
      <trkpt lat="47.89152" lon="-1.77872">
        <ele>21</ele>
        <time>2015-06-07T10:39:01Z</time>
      </trkpt>
      <trkpt lat="47.89153" lon="-1.7787">
        <ele>21</ele>
        <time>2015-06-07T10:39:02Z</time>
      </trkpt>
      <trkpt lat="47.89155" lon="-1.7787">
        <ele>21</ele>
        <time>2015-06-07T10:39:03Z</time>
      </trkpt>
      <trkpt lat="47.89156" lon="-1.77871">
        <ele>22</ele>
        <time>2015-06-07T10:39:04Z</time>
      </trkpt>
      <trkpt lat="47.89159" lon="-1.77873">
        <ele>22</ele>
        <time>2015-06-07T10:39:05Z</time>
      </trkpt>
      <trkpt lat="47.8916" lon="-1.77874">
        <ele>22</ele>
        <time>2015-06-07T10:39:06Z</time>
      </trkpt>
      <trkpt lat="47.8916" lon="-1.77877">
        <ele>22</ele>
        <time>2015-06-07T10:39:07Z</time>
      </trkpt>
      <trkpt lat="47.89161" lon="-1.7788">
        <ele>22</ele>
        <time>2015-06-07T10:39:08Z</time>
      </trkpt>
      <trkpt lat="47.89162" lon="-1.77882">
        <ele>22</ele>
        <time>2015-06-07T10:39:09Z</time>
      </trkpt>
      <trkpt lat="47.89163" lon="-1.77884">
        <ele>22</ele>
        <time>2015-06-07T10:39:10Z</time>
      </trkpt>
      <trkpt lat="47.89166" lon="-1.77887">
        <ele>23</ele>
        <time>2015-06-07T10:39:11Z</time>
      </trkpt>
      <trkpt lat="47.89168" lon="-1.77887">
        <ele>23</ele>
        <time>2015-06-07T10:39:12Z</time>
      </trkpt>
      <trkpt lat="47.8917" lon="-1.77887">
        <ele>23</ele>
        <time>2015-06-07T10:39:13Z</time>
      </trkpt>
      <trkpt lat="47.89171" lon="-1.77886">
        <ele>23</ele>
        <time>2015-06-07T10:39:14Z</time>
      </trkpt>
      <trkpt lat="47.89173" lon="-1.77886">
        <ele>24</ele>
        <time>2015-06-07T10:39:15Z</time>
      </trkpt>
      <trkpt lat="47.89175" lon="-1.77887">
        <ele>24</ele>
        <time>2015-06-07T10:39:16Z</time>
      </trkpt>
      <trkpt lat="47.89175" lon="-1.77888">
        <ele>24</ele>
        <time>2015-06-07T10:39:17Z</time>
      </trkpt>
      <trkpt lat="47.89177" lon="-1.7789">
        <ele>24</ele>
        <time>2015-06-07T10:39:18Z</time>
      </trkpt>
      <trkpt lat="47.89179" lon="-1.77892">
        <ele>24</ele>
        <time>2015-06-07T10:39:19Z</time>
      </trkpt>
      <trkpt lat="47.89181" lon="-1.77893">
        <ele>25</ele>
        <time>2015-06-07T10:39:20Z</time>
      </trkpt>
      <trkpt lat="47.89182" lon="-1.77895">
        <ele>25</ele>
        <time>2015-06-07T10:39:21Z</time>
      </trkpt>
      <trkpt lat="47.89182" lon="-1.77897">
        <ele>25</ele>
        <time>2015-06-07T10:39:22Z</time>
      </trkpt>
      <trkpt lat="47.89183" lon="-1.77899">
        <ele>25</ele>
        <time>2015-06-07T10:39:23Z</time>
      </trkpt>
      <trkpt lat="47.89186" lon="-1.77899">
        <ele>25</ele>
        <time>2015-06-07T10:39:24Z</time>
      </trkpt>
      <trkpt lat="47.89189" lon="-1.77898">
        <ele>25</ele>
        <time>2015-06-07T10:39:25Z</time>
      </trkpt>
      <trkpt lat="47.89191" lon="-1.77895">
        <ele>25</ele>
        <time>2015-06-07T10:39:26Z</time>
      </trkpt>
      <trkpt lat="47.89192" lon="-1.77892">
        <ele>24</ele>
        <time>2015-06-07T10:39:27Z</time>
      </trkpt>
      <trkpt lat="47.89193" lon="-1.77889">
        <ele>24</ele>
        <time>2015-06-07T10:39:28Z</time>
      </trkpt>
      <trkpt lat="47.89194" lon="-1.77886">
        <ele>24</ele>
        <time>2015-06-07T10:39:29Z</time>
      </trkpt>
      <trkpt lat="47.89195" lon="-1.77883">
        <ele>24</ele>
        <time>2015-06-07T10:39:30Z</time>
      </trkpt>
      <trkpt lat="47.89197" lon="-1.7788">
        <ele>24</ele>
        <time>2015-06-07T10:39:31Z</time>
      </trkpt>
      <trkpt lat="47.89198" lon="-1.77876">
        <ele>23</ele>
        <time>2015-06-07T10:39:32Z</time>
      </trkpt>
      <trkpt lat="47.892" lon="-1.77872">
        <ele>23</ele>
        <time>2015-06-07T10:39:33Z</time>
      </trkpt>
      <trkpt lat="47.89202" lon="-1.77868">
        <ele>23</ele>
        <time>2015-06-07T10:39:34Z</time>
      </trkpt>
      <trkpt lat="47.89204" lon="-1.77863">
        <ele>23</ele>
        <time>2015-06-07T10:39:35Z</time>
      </trkpt>
      <trkpt lat="47.89205" lon="-1.77858">
        <ele>22</ele>
        <time>2015-06-07T10:39:36Z</time>
      </trkpt>
      <trkpt lat="47.89207" lon="-1.77853">
        <ele>22</ele>
        <time>2015-06-07T10:39:37Z</time>
      </trkpt>
      <trkpt lat="47.89208" lon="-1.77849">
        <ele>22</ele>
        <time>2015-06-07T10:39:38Z</time>
      </trkpt>
      <trkpt lat="47.89208" lon="-1.77845">
        <ele>22</ele>
        <time>2015-06-07T10:39:39Z</time>
      </trkpt>
      <trkpt lat="47.89208" lon="-1.77843">
        <ele>22</ele>
        <time>2015-06-07T10:39:40Z</time>
      </trkpt>
      <trkpt lat="47.89208" lon="-1.77841">
        <ele>21</ele>
        <time>2015-06-07T10:39:41Z</time>
      </trkpt>
      <trkpt lat="47.89208" lon="-1.7784">
        <ele>21</ele>
        <time>2015-06-07T10:39:42Z</time>
      </trkpt>
      <trkpt lat="47.89208" lon="-1.7784">
        <ele>21</ele>
        <time>2015-06-07T10:39:43Z</time>
      </trkpt>
      <trkpt lat="47.89208" lon="-1.7784">
        <ele>21</ele>
        <time>2015-06-07T10:39:44Z</time>
      </trkpt>
      <trkpt lat="47.89208" lon="-1.77839">
        <ele>21</ele>
        <time>2015-06-07T10:39:45Z</time>
      </trkpt>
      <trkpt lat="47.89208" lon="-1.77839">
        <ele>21</ele>
        <time>2015-06-07T10:39:46Z</time>
      </trkpt>
      <trkpt lat="47.89207" lon="-1.77838">
        <ele>21</ele>
        <time>2015-06-07T10:39:47Z</time>
      </trkpt>
      <trkpt lat="47.89207" lon="-1.77838">
        <ele>21</ele>
        <time>2015-06-07T10:39:48Z</time>
      </trkpt>
      <trkpt lat="47.89207" lon="-1.77837">
        <ele>21</ele>
        <time>2015-06-07T10:39:49Z</time>
      </trkpt>
      <trkpt lat="47.89206" lon="-1.77837">
        <ele>21</ele>
        <time>2015-06-07T10:39:50Z</time>
      </trkpt>
      <trkpt lat="47.89206" lon="-1.77836">
        <ele>21</ele>
        <time>2015-06-07T10:39:51Z</time>
      </trkpt>
      <trkpt lat="47.89205" lon="-1.77834">
        <ele>21</ele>
        <time>2015-06-07T10:39:52Z</time>
      </trkpt>
      <trkpt lat="47.89206" lon="-1.77833">
        <ele>21</ele>
        <time>2015-06-07T10:39:53Z</time>
      </trkpt>
      <trkpt lat="47.89206" lon="-1.77832">
        <ele>21</ele>
        <time>2015-06-07T10:39:54Z</time>
      </trkpt>
      <trkpt lat="47.89205" lon="-1.7783">
        <ele>21</ele>
        <time>2015-06-07T10:39:55Z</time>
      </trkpt>
      <trkpt lat="47.89205" lon="-1.77828">
        <ele>21</ele>
        <time>2015-06-07T10:39:56Z</time>
      </trkpt>
      <trkpt lat="47.89205" lon="-1.77827">
        <ele>21</ele>
        <time>2015-06-07T10:39:57Z</time>
      </trkpt>
      <trkpt lat="47.89205" lon="-1.77826">
        <ele>21</ele>
        <time>2015-06-07T10:39:58Z</time>
      </trkpt>
      <trkpt lat="47.89206" lon="-1.77824">
        <ele>21</ele>
        <time>2015-06-07T10:39:59Z</time>
      </trkpt>
      <trkpt lat="47.89206" lon="-1.77823">
        <ele>21</ele>
        <time>2015-06-07T10:40:00Z</time>
      </trkpt>
      <trkpt lat="47.89206" lon="-1.77821">
        <ele>21</ele>
        <time>2015-06-07T10:40:01Z</time>
      </trkpt>
      <trkpt lat="47.89207" lon="-1.7782">
        <ele>21</ele>
        <time>2015-06-07T10:40:02Z</time>
      </trkpt>
      <trkpt lat="47.89207" lon="-1.77818">
        <ele>21</ele>
        <time>2015-06-07T10:40:03Z</time>
      </trkpt>
      <trkpt lat="47.89207" lon="-1.77816">
        <ele>21</ele>
        <time>2015-06-07T10:40:04Z</time>
      </trkpt>
      <trkpt lat="47.89207" lon="-1.77814">
        <ele>21</ele>
        <time>2015-06-07T10:40:05Z</time>
      </trkpt>
      <trkpt lat="47.89207" lon="-1.77811">
        <ele>21</ele>
        <time>2015-06-07T10:40:06Z</time>
      </trkpt>
      <trkpt lat="47.89208" lon="-1.7781">
        <ele>21</ele>
        <time>2015-06-07T10:40:07Z</time>
      </trkpt>
      <trkpt lat="47.89209" lon="-1.7781">
        <ele>21</ele>
        <time>2015-06-07T10:40:08Z</time>
      </trkpt>
      <trkpt lat="47.89209" lon="-1.77809">
        <ele>21</ele>
        <time>2015-06-07T10:40:09Z</time>
      </trkpt>
      <trkpt lat="47.89209" lon="-1.77807">
        <ele>21</ele>
        <time>2015-06-07T10:40:10Z</time>
      </trkpt>
      <trkpt lat="47.89209" lon="-1.77806">
        <ele>21</ele>
        <time>2015-06-07T10:40:11Z</time>
      </trkpt>
      <trkpt lat="47.89209" lon="-1.77805">
        <ele>21</ele>
        <time>2015-06-07T10:40:12Z</time>
      </trkpt>
      <trkpt lat="47.8921" lon="-1.77803">
        <ele>21</ele>
        <time>2015-06-07T10:40:13Z</time>
      </trkpt>
      <trkpt lat="47.8921" lon="-1.778">
        <ele>21</ele>
        <time>2015-06-07T10:40:14Z</time>
      </trkpt>
      <trkpt lat="47.8921" lon="-1.77798">
        <ele>21</ele>
        <time>2015-06-07T10:40:15Z</time>
      </trkpt>
      <trkpt lat="47.8921" lon="-1.77795">
        <ele>21</ele>
        <time>2015-06-07T10:40:16Z</time>
      </trkpt>
      <trkpt lat="47.8921" lon="-1.77793">
        <ele>22</ele>
        <time>2015-06-07T10:40:17Z</time>
      </trkpt>
      <trkpt lat="47.89211" lon="-1.77791">
        <ele>22</ele>
        <time>2015-06-07T10:40:18Z</time>
      </trkpt>
      <trkpt lat="47.89211" lon="-1.77788">
        <ele>22</ele>
        <time>2015-06-07T10:40:19Z</time>
      </trkpt>
      <trkpt lat="47.89211" lon="-1.77786">
        <ele>22</ele>
        <time>2015-06-07T10:40:20Z</time>
      </trkpt>
      <trkpt lat="47.89211" lon="-1.77784">
        <ele>22</ele>
        <time>2015-06-07T10:40:21Z</time>
      </trkpt>
      <trkpt lat="47.89211" lon="-1.77781">
        <ele>22</ele>
        <time>2015-06-07T10:40:22Z</time>
      </trkpt>
      <trkpt lat="47.89211" lon="-1.77779">
        <ele>22</ele>
        <time>2015-06-07T10:40:23Z</time>
      </trkpt>
      <trkpt lat="47.89212" lon="-1.77777">
        <ele>22</ele>
        <time>2015-06-07T10:40:24Z</time>
      </trkpt>
      <trkpt lat="47.89212" lon="-1.77773">
        <ele>22</ele>
        <time>2015-06-07T10:40:25Z</time>
      </trkpt>
      <trkpt lat="47.89212" lon="-1.77769">
        <ele>22</ele>
        <time>2015-06-07T10:40:26Z</time>
      </trkpt>
      <trkpt lat="47.89211" lon="-1.77767">
        <ele>22</ele>
        <time>2015-06-07T10:40:27Z</time>
      </trkpt>
      <trkpt lat="47.89211" lon="-1.77763">
        <ele>22</ele>
        <time>2015-06-07T10:40:28Z</time>
      </trkpt>
      <trkpt lat="47.8921" lon="-1.7776">
        <ele>22</ele>
        <time>2015-06-07T10:40:29Z</time>
      </trkpt>
      <trkpt lat="47.89209" lon="-1.77756">
        <ele>22</ele>
        <time>2015-06-07T10:40:30Z</time>
      </trkpt>
      <trkpt lat="47.89208" lon="-1.77753">
        <ele>22</ele>
        <time>2015-06-07T10:40:31Z</time>
      </trkpt>
      <trkpt lat="47.89207" lon="-1.77752">
        <ele>22</ele>
        <time>2015-06-07T10:40:32Z</time>
      </trkpt>
      <trkpt lat="47.89205" lon="-1.77752">
        <ele>22</ele>
        <time>2015-06-07T10:40:33Z</time>
      </trkpt>
      <trkpt lat="47.89203" lon="-1.77752">
        <ele>22</ele>
        <time>2015-06-07T10:40:34Z</time>
      </trkpt>
      <trkpt lat="47.89201" lon="-1.77752">
        <ele>22</ele>
        <time>2015-06-07T10:40:35Z</time>
      </trkpt>
      <trkpt lat="47.89199" lon="-1.77752">
        <ele>22</ele>
        <time>2015-06-07T10:40:36Z</time>
      </trkpt>
      <trkpt lat="47.89197" lon="-1.77753">
        <ele>22</ele>
        <time>2015-06-07T10:40:37Z</time>
      </trkpt>
      <trkpt lat="47.89195" lon="-1.77753">
        <ele>22</ele>
        <time>2015-06-07T10:40:38Z</time>
      </trkpt>
      <trkpt lat="47.89194" lon="-1.77752">
        <ele>22</ele>
        <time>2015-06-07T10:40:39Z</time>
      </trkpt>
      <trkpt lat="47.89192" lon="-1.77751">
        <ele>22</ele>
        <time>2015-06-07T10:40:40Z</time>
      </trkpt>
      <trkpt lat="47.89191" lon="-1.77749">
        <ele>22</ele>
        <time>2015-06-07T10:40:41Z</time>
      </trkpt>
      <trkpt lat="47.8919" lon="-1.77748">
        <ele>22</ele>
        <time>2015-06-07T10:40:42Z</time>
      </trkpt>
      <trkpt lat="47.8919" lon="-1.77746">
        <ele>22</ele>
        <time>2015-06-07T10:40:43Z</time>
      </trkpt>
      <trkpt lat="47.89189" lon="-1.77744">
        <ele>23</ele>
        <time>2015-06-07T10:40:44Z</time>
      </trkpt>
      <trkpt lat="47.89189" lon="-1.77741">
        <ele>23</ele>
        <time>2015-06-07T10:40:45Z</time>
      </trkpt>
      <trkpt lat="47.89189" lon="-1.77738">
        <ele>23</ele>
        <time>2015-06-07T10:40:46Z</time>
      </trkpt>
      <trkpt lat="47.89187" lon="-1.77737">
        <ele>23</ele>
        <time>2015-06-07T10:40:47Z</time>
      </trkpt>
      <trkpt lat="47.89185" lon="-1.77737">
        <ele>23</ele>
        <time>2015-06-07T10:40:48Z</time>
      </trkpt>
      <trkpt lat="47.89183" lon="-1.77737">
        <ele>23</ele>
        <time>2015-06-07T10:40:49Z</time>
      </trkpt>
      <trkpt lat="47.8918" lon="-1.77736">
        <ele>23</ele>
        <time>2015-06-07T10:40:50Z</time>
      </trkpt>
      <trkpt lat="47.89178" lon="-1.77736">
        <ele>23</ele>
        <time>2015-06-07T10:40:51Z</time>
      </trkpt>
      <trkpt lat="47.89176" lon="-1.77734">
        <ele>23</ele>
        <time>2015-06-07T10:40:52Z</time>
      </trkpt>
      <trkpt lat="47.89173" lon="-1.77733">
        <ele>23</ele>
        <time>2015-06-07T10:40:53Z</time>
      </trkpt>
      <trkpt lat="47.89171" lon="-1.77731">
        <ele>23</ele>
        <time>2015-06-07T10:40:54Z</time>
      </trkpt>
      <trkpt lat="47.8917" lon="-1.77729">
        <ele>24</ele>
        <time>2015-06-07T10:40:55Z</time>
      </trkpt>
      <trkpt lat="47.89168" lon="-1.77727">
        <ele>24</ele>
        <time>2015-06-07T10:40:56Z</time>
      </trkpt>
      <trkpt lat="47.89166" lon="-1.77725">
        <ele>24</ele>
        <time>2015-06-07T10:40:57Z</time>
      </trkpt>
      <trkpt lat="47.89165" lon="-1.77722">
        <ele>24</ele>
        <time>2015-06-07T10:40:58Z</time>
      </trkpt>
      <trkpt lat="47.89164" lon="-1.7772">
        <ele>25</ele>
        <time>2015-06-07T10:40:59Z</time>
      </trkpt>
      <trkpt lat="47.89163" lon="-1.77719">
        <ele>25</ele>
        <time>2015-06-07T10:41:00Z</time>
      </trkpt>
      <trkpt lat="47.89162" lon="-1.77718">
        <ele>25</ele>
        <time>2015-06-07T10:41:01Z</time>
      </trkpt>
      <trkpt lat="47.89159" lon="-1.77717">
        <ele>25</ele>
        <time>2015-06-07T10:41:02Z</time>
      </trkpt>
      <trkpt lat="47.89156" lon="-1.77716">
        <ele>25</ele>
        <time>2015-06-07T10:41:03Z</time>
      </trkpt>
      <trkpt lat="47.89152" lon="-1.77716">
        <ele>24</ele>
        <time>2015-06-07T10:41:04Z</time>
      </trkpt>
      <trkpt lat="47.89149" lon="-1.77716">
        <ele>24</ele>
        <time>2015-06-07T10:41:05Z</time>
      </trkpt>
      <trkpt lat="47.89146" lon="-1.77716">
        <ele>24</ele>
        <time>2015-06-07T10:41:06Z</time>
      </trkpt>
      <trkpt lat="47.89143" lon="-1.77715">
        <ele>24</ele>
        <time>2015-06-07T10:41:07Z</time>
      </trkpt>
      <trkpt lat="47.8914" lon="-1.77713">
        <ele>23</ele>
        <time>2015-06-07T10:41:08Z</time>
      </trkpt>
      <trkpt lat="47.89137" lon="-1.77711">
        <ele>23</ele>
        <time>2015-06-07T10:41:09Z</time>
      </trkpt>
      <trkpt lat="47.89135" lon="-1.77708">
        <ele>23</ele>
        <time>2015-06-07T10:41:10Z</time>
      </trkpt>
      <trkpt lat="47.89132" lon="-1.77705">
        <ele>23</ele>
        <time>2015-06-07T10:41:11Z</time>
      </trkpt>
      <trkpt lat="47.89129" lon="-1.77702">
        <ele>23</ele>
        <time>2015-06-07T10:41:12Z</time>
      </trkpt>
      <trkpt lat="47.89126" lon="-1.77699">
        <ele>23</ele>
        <time>2015-06-07T10:41:13Z</time>
      </trkpt>
      <trkpt lat="47.89123" lon="-1.77697">
        <ele>23</ele>
        <time>2015-06-07T10:41:14Z</time>
      </trkpt>
      <trkpt lat="47.8912" lon="-1.77695">
        <ele>24</ele>
        <time>2015-06-07T10:41:15Z</time>
      </trkpt>
      <trkpt lat="47.89118" lon="-1.77693">
        <ele>24</ele>
        <time>2015-06-07T10:41:16Z</time>
      </trkpt>
      <trkpt lat="47.89115" lon="-1.77691">
        <ele>24</ele>
        <time>2015-06-07T10:41:17Z</time>
      </trkpt>
      <trkpt lat="47.89112" lon="-1.77688">
        <ele>24</ele>
        <time>2015-06-07T10:41:18Z</time>
      </trkpt>
      <trkpt lat="47.8911" lon="-1.77685">
        <ele>24</ele>
        <time>2015-06-07T10:41:19Z</time>
      </trkpt>
      <trkpt lat="47.89107" lon="-1.77683">
        <ele>24</ele>
        <time>2015-06-07T10:41:20Z</time>
      </trkpt>
      <trkpt lat="47.89105" lon="-1.77681">
        <ele>24</ele>
        <time>2015-06-07T10:41:21Z</time>
      </trkpt>
      <trkpt lat="47.89103" lon="-1.77679">
        <ele>24</ele>
        <time>2015-06-07T10:41:22Z</time>
      </trkpt>
      <trkpt lat="47.89103" lon="-1.77676">
        <ele>24</ele>
        <time>2015-06-07T10:41:23Z</time>
      </trkpt>
      <trkpt lat="47.89103" lon="-1.77674">
        <ele>24</ele>
        <time>2015-06-07T10:41:24Z</time>
      </trkpt>
      <trkpt lat="47.89104" lon="-1.77671">
        <ele>25</ele>
        <time>2015-06-07T10:41:25Z</time>
      </trkpt>
      <trkpt lat="47.89106" lon="-1.77669">
        <ele>25</ele>
        <time>2015-06-07T10:41:26Z</time>
      </trkpt>
      <trkpt lat="47.89109" lon="-1.77667">
        <ele>25</ele>
        <time>2015-06-07T10:41:27Z</time>
      </trkpt>
      <trkpt lat="47.89111" lon="-1.77664">
        <ele>25</ele>
        <time>2015-06-07T10:41:28Z</time>
      </trkpt>
      <trkpt lat="47.89113" lon="-1.77662">
        <ele>24</ele>
        <time>2015-06-07T10:41:29Z</time>
      </trkpt>
      <trkpt lat="47.89115" lon="-1.7766">
        <ele>24</ele>
        <time>2015-06-07T10:41:30Z</time>
      </trkpt>
      <trkpt lat="47.89117" lon="-1.77659">
        <ele>24</ele>
        <time>2015-06-07T10:41:31Z</time>
      </trkpt>
      <trkpt lat="47.8912" lon="-1.77659">
        <ele>24</ele>
        <time>2015-06-07T10:41:32Z</time>
      </trkpt>
      <trkpt lat="47.89123" lon="-1.7766">
        <ele>24</ele>
        <time>2015-06-07T10:41:33Z</time>
      </trkpt>
      <trkpt lat="47.89125" lon="-1.77659">
        <ele>24</ele>
        <time>2015-06-07T10:41:34Z</time>
      </trkpt>
      <trkpt lat="47.89127" lon="-1.77658">
        <ele>25</ele>
        <time>2015-06-07T10:41:35Z</time>
      </trkpt>
      <trkpt lat="47.8913" lon="-1.77657">
        <ele>25</ele>
        <time>2015-06-07T10:41:36Z</time>
      </trkpt>
      <trkpt lat="47.89131" lon="-1.77658">
        <ele>25</ele>
        <time>2015-06-07T10:41:37Z</time>
      </trkpt>
      <trkpt lat="47.89133" lon="-1.7766">
        <ele>25</ele>
        <time>2015-06-07T10:41:38Z</time>
      </trkpt>
      <trkpt lat="47.89135" lon="-1.77662">
        <ele>25</ele>
        <time>2015-06-07T10:41:39Z</time>
      </trkpt>
      <trkpt lat="47.89137" lon="-1.77665">
        <ele>25</ele>
        <time>2015-06-07T10:41:40Z</time>
      </trkpt>
      <trkpt lat="47.89138" lon="-1.77669">
        <ele>25</ele>
        <time>2015-06-07T10:41:41Z</time>
      </trkpt>
      <trkpt lat="47.89141" lon="-1.77671">
        <ele>25</ele>
        <time>2015-06-07T10:41:42Z</time>
      </trkpt>
      <trkpt lat="47.89144" lon="-1.77673">
        <ele>25</ele>
        <time>2015-06-07T10:41:43Z</time>
      </trkpt>
      <trkpt lat="47.89147" lon="-1.77673">
        <ele>25</ele>
        <time>2015-06-07T10:41:44Z</time>
      </trkpt>
      <trkpt lat="47.89149" lon="-1.77673">
        <ele>26</ele>
        <time>2015-06-07T10:41:45Z</time>
      </trkpt>
      <trkpt lat="47.89152" lon="-1.77672">
        <ele>26</ele>
        <time>2015-06-07T10:41:46Z</time>
      </trkpt>
      <trkpt lat="47.89155" lon="-1.77673">
        <ele>26</ele>
        <time>2015-06-07T10:41:47Z</time>
      </trkpt>
      <trkpt lat="47.89158" lon="-1.77674">
        <ele>26</ele>
        <time>2015-06-07T10:41:48Z</time>
      </trkpt>
      <trkpt lat="47.89162" lon="-1.77677">
        <ele>27</ele>
        <time>2015-06-07T10:41:49Z</time>
      </trkpt>
      <trkpt lat="47.89165" lon="-1.77679">
        <ele>27</ele>
        <time>2015-06-07T10:41:50Z</time>
      </trkpt>
      <trkpt lat="47.89169" lon="-1.77681">
        <ele>27</ele>
        <time>2015-06-07T10:41:51Z</time>
      </trkpt>
      <trkpt lat="47.89172" lon="-1.77684">
        <ele>27</ele>
        <time>2015-06-07T10:41:52Z</time>
      </trkpt>
      <trkpt lat="47.89174" lon="-1.77689">
        <ele>27</ele>
        <time>2015-06-07T10:41:53Z</time>
      </trkpt>
      <trkpt lat="47.89176" lon="-1.77693">
        <ele>27</ele>
        <time>2015-06-07T10:41:54Z</time>
      </trkpt>
      <trkpt lat="47.89176" lon="-1.77698">
        <ele>27</ele>
        <time>2015-06-07T10:41:55Z</time>
      </trkpt>
      <trkpt lat="47.89178" lon="-1.77701">
        <ele>27</ele>
        <time>2015-06-07T10:41:56Z</time>
      </trkpt>
      <trkpt lat="47.89181" lon="-1.77705">
        <ele>26</ele>
        <time>2015-06-07T10:41:57Z</time>
      </trkpt>
      <trkpt lat="47.89185" lon="-1.77709">
        <ele>26</ele>
        <time>2015-06-07T10:41:58Z</time>
      </trkpt>
      <trkpt lat="47.89188" lon="-1.77711">
        <ele>26</ele>
        <time>2015-06-07T10:41:59Z</time>
      </trkpt>
      <trkpt lat="47.8919" lon="-1.77711">
        <ele>26</ele>
        <time>2015-06-07T10:42:00Z</time>
      </trkpt>
      <trkpt lat="47.89191" lon="-1.77709">
        <ele>25</ele>
        <time>2015-06-07T10:42:01Z</time>
      </trkpt>
      <trkpt lat="47.89192" lon="-1.77708">
        <ele>25</ele>
        <time>2015-06-07T10:42:02Z</time>
      </trkpt>
      <trkpt lat="47.89194" lon="-1.77707">
        <ele>25</ele>
        <time>2015-06-07T10:42:03Z</time>
      </trkpt>
      <trkpt lat="47.89196" lon="-1.77706">
        <ele>25</ele>
        <time>2015-06-07T10:42:04Z</time>
      </trkpt>
      <trkpt lat="47.89197" lon="-1.77706">
        <ele>24</ele>
        <time>2015-06-07T10:42:05Z</time>
      </trkpt>
      <trkpt lat="47.89199" lon="-1.77706">
        <ele>24</ele>
        <time>2015-06-07T10:42:06Z</time>
      </trkpt>
      <trkpt lat="47.89201" lon="-1.77704">
        <ele>24</ele>
        <time>2015-06-07T10:42:07Z</time>
      </trkpt>
      <trkpt lat="47.89203" lon="-1.777">
        <ele>24</ele>
        <time>2015-06-07T10:42:08Z</time>
      </trkpt>
      <trkpt lat="47.89205" lon="-1.77696">
        <ele>24</ele>
        <time>2015-06-07T10:42:09Z</time>
      </trkpt>
      <trkpt lat="47.89206" lon="-1.77693">
        <ele>23</ele>
        <time>2015-06-07T10:42:10Z</time>
      </trkpt>
      <trkpt lat="47.89207" lon="-1.77691">
        <ele>23</ele>
        <time>2015-06-07T10:42:11Z</time>
      </trkpt>
      <trkpt lat="47.89208" lon="-1.77687">
        <ele>23</ele>
        <time>2015-06-07T10:42:12Z</time>
      </trkpt>
      <trkpt lat="47.89208" lon="-1.77683">
        <ele>23</ele>
        <time>2015-06-07T10:42:13Z</time>
      </trkpt>
      <trkpt lat="47.89208" lon="-1.7768">
        <ele>23</ele>
        <time>2015-06-07T10:42:14Z</time>
      </trkpt>
      <trkpt lat="47.89208" lon="-1.77678">
        <ele>23</ele>
        <time>2015-06-07T10:42:15Z</time>
      </trkpt>
      <trkpt lat="47.89208" lon="-1.77677">
        <ele>23</ele>
        <time>2015-06-07T10:42:16Z</time>
      </trkpt>
      <trkpt lat="47.89208" lon="-1.77676">
        <ele>23</ele>
        <time>2015-06-07T10:42:17Z</time>
      </trkpt>
      <trkpt lat="47.89208" lon="-1.77674">
        <ele>22</ele>
        <time>2015-06-07T10:42:18Z</time>
      </trkpt>
      <trkpt lat="47.89208" lon="-1.77673">
        <ele>22</ele>
        <time>2015-06-07T10:42:19Z</time>
      </trkpt>
      <trkpt lat="47.89207" lon="-1.77671">
        <ele>22</ele>
        <time>2015-06-07T10:42:20Z</time>
      </trkpt>
      <trkpt lat="47.89207" lon="-1.77669">
        <ele>22</ele>
        <time>2015-06-07T10:42:21Z</time>
      </trkpt>
      <trkpt lat="47.89208" lon="-1.77667">
        <ele>22</ele>
        <time>2015-06-07T10:42:22Z</time>
      </trkpt>
      <trkpt lat="47.89208" lon="-1.77665">
        <ele>22</ele>
        <time>2015-06-07T10:42:23Z</time>
      </trkpt>
      <trkpt lat="47.89209" lon="-1.77662">
        <ele>22</ele>
        <time>2015-06-07T10:42:24Z</time>
      </trkpt>
      <trkpt lat="47.8921" lon="-1.77659">
        <ele>22</ele>
        <time>2015-06-07T10:42:25Z</time>
      </trkpt>
      <trkpt lat="47.89212" lon="-1.77656">
        <ele>22</ele>
        <time>2015-06-07T10:42:26Z</time>
      </trkpt>
      <trkpt lat="47.89213" lon="-1.77652">
        <ele>22</ele>
        <time>2015-06-07T10:42:27Z</time>
      </trkpt>
      <trkpt lat="47.89214" lon="-1.77649">
        <ele>21</ele>
        <time>2015-06-07T10:42:28Z</time>
      </trkpt>
      <trkpt lat="47.89214" lon="-1.77647">
        <ele>21</ele>
        <time>2015-06-07T10:42:29Z</time>
      </trkpt>
      <trkpt lat="47.89214" lon="-1.77644">
        <ele>21</ele>
        <time>2015-06-07T10:42:30Z</time>
      </trkpt>
      <trkpt lat="47.89213" lon="-1.77643">
        <ele>21</ele>
        <time>2015-06-07T10:42:31Z</time>
      </trkpt>
      <trkpt lat="47.89213" lon="-1.77643">
        <ele>21</ele>
        <time>2015-06-07T10:42:32Z</time>
      </trkpt>
      <trkpt lat="47.89212" lon="-1.77642">
        <ele>21</ele>
        <time>2015-06-07T10:42:33Z</time>
      </trkpt>
      <trkpt lat="47.89212" lon="-1.77641">
        <ele>21</ele>
        <time>2015-06-07T10:42:34Z</time>
      </trkpt>
      <trkpt lat="47.89212" lon="-1.7764">
        <ele>21</ele>
        <time>2015-06-07T10:42:35Z</time>
      </trkpt>
      <trkpt lat="47.89212" lon="-1.7764">
        <ele>21</ele>
        <time>2015-06-07T10:42:36Z</time>
      </trkpt>
      <trkpt lat="47.89211" lon="-1.77639">
        <ele>21</ele>
        <time>2015-06-07T10:42:37Z</time>
      </trkpt>
      <trkpt lat="47.8921" lon="-1.77639">
        <ele>21</ele>
        <time>2015-06-07T10:42:38Z</time>
      </trkpt>
      <trkpt lat="47.8921" lon="-1.77638">
        <ele>21</ele>
        <time>2015-06-07T10:42:39Z</time>
      </trkpt>
      <trkpt lat="47.89209" lon="-1.77637">
        <ele>21</ele>
        <time>2015-06-07T10:42:40Z</time>
      </trkpt>
      <trkpt lat="47.89208" lon="-1.77637">
        <ele>21</ele>
        <time>2015-06-07T10:42:41Z</time>
      </trkpt>
      <trkpt lat="47.89208" lon="-1.77636">
        <ele>21</ele>
        <time>2015-06-07T10:42:42Z</time>
      </trkpt>
      <trkpt lat="47.89207" lon="-1.77636">
        <ele>22</ele>
        <time>2015-06-07T10:42:43Z</time>
      </trkpt>
      <trkpt lat="47.89206" lon="-1.77635">
        <ele>22</ele>
        <time>2015-06-07T10:42:44Z</time>
      </trkpt>
      <trkpt lat="47.89206" lon="-1.77634">
        <ele>22</ele>
        <time>2015-06-07T10:42:45Z</time>
      </trkpt>
      <trkpt lat="47.89205" lon="-1.77633">
        <ele>22</ele>
        <time>2015-06-07T10:42:46Z</time>
      </trkpt>
      <trkpt lat="47.89204" lon="-1.77633">
        <ele>22</ele>
        <time>2015-06-07T10:42:47Z</time>
      </trkpt>
      <trkpt lat="47.89204" lon="-1.77633">
        <ele>22</ele>
        <time>2015-06-07T10:42:48Z</time>
      </trkpt>
      <trkpt lat="47.89203" lon="-1.77633">
        <ele>23</ele>
        <time>2015-06-07T10:42:49Z</time>
      </trkpt>
      <trkpt lat="47.89202" lon="-1.77633">
        <ele>23</ele>
        <time>2015-06-07T10:42:50Z</time>
      </trkpt>
      <trkpt lat="47.89202" lon="-1.77633">
        <ele>23</ele>
        <time>2015-06-07T10:42:51Z</time>
      </trkpt>
      <trkpt lat="47.89202" lon="-1.77634">
        <ele>23</ele>
        <time>2015-06-07T10:42:52Z</time>
      </trkpt>
      <trkpt lat="47.89201" lon="-1.77635">
        <ele>23</ele>
        <time>2015-06-07T10:42:53Z</time>
      </trkpt>
      <trkpt lat="47.892" lon="-1.77636">
        <ele>23</ele>
        <time>2015-06-07T10:42:54Z</time>
      </trkpt>
      <trkpt lat="47.89199" lon="-1.77636">
        <ele>23</ele>
        <time>2015-06-07T10:42:55Z</time>
      </trkpt>
      <trkpt lat="47.89198" lon="-1.77637">
        <ele>23</ele>
        <time>2015-06-07T10:42:56Z</time>
      </trkpt>
      <trkpt lat="47.89197" lon="-1.77638">
        <ele>23</ele>
        <time>2015-06-07T10:42:57Z</time>
      </trkpt>
      <trkpt lat="47.89195" lon="-1.77638">
        <ele>23</ele>
        <time>2015-06-07T10:42:58Z</time>
      </trkpt>
      <trkpt lat="47.89193" lon="-1.77638">
        <ele>23</ele>
        <time>2015-06-07T10:42:59Z</time>
      </trkpt>
      <trkpt lat="47.89191" lon="-1.77638">
        <ele>23</ele>
        <time>2015-06-07T10:43:00Z</time>
      </trkpt>
      <trkpt lat="47.89189" lon="-1.77637">
        <ele>23</ele>
        <time>2015-06-07T10:43:01Z</time>
      </trkpt>
      <trkpt lat="47.89187" lon="-1.77637">
        <ele>23</ele>
        <time>2015-06-07T10:43:02Z</time>
      </trkpt>
      <trkpt lat="47.89185" lon="-1.77637">
        <ele>24</ele>
        <time>2015-06-07T10:43:03Z</time>
      </trkpt>
      <trkpt lat="47.89183" lon="-1.77636">
        <ele>24</ele>
        <time>2015-06-07T10:43:04Z</time>
      </trkpt>
      <trkpt lat="47.89181" lon="-1.77635">
        <ele>24</ele>
        <time>2015-06-07T10:43:05Z</time>
      </trkpt>
      <trkpt lat="47.89179" lon="-1.77634">
        <ele>24</ele>
        <time>2015-06-07T10:43:06Z</time>
      </trkpt>
      <trkpt lat="47.89178" lon="-1.77633">
        <ele>24</ele>
        <time>2015-06-07T10:43:07Z</time>
      </trkpt>
      <trkpt lat="47.89177" lon="-1.77631">
        <ele>24</ele>
        <time>2015-06-07T10:43:08Z</time>
      </trkpt>
      <trkpt lat="47.89177" lon="-1.77629">
        <ele>24</ele>
        <time>2015-06-07T10:43:09Z</time>
      </trkpt>
      <trkpt lat="47.89176" lon="-1.77627">
        <ele>24</ele>
        <time>2015-06-07T10:43:10Z</time>
      </trkpt>
      <trkpt lat="47.89175" lon="-1.77627">
        <ele>24</ele>
        <time>2015-06-07T10:43:11Z</time>
      </trkpt>
      <trkpt lat="47.89174" lon="-1.77627">
        <ele>25</ele>
        <time>2015-06-07T10:43:12Z</time>
      </trkpt>
      <trkpt lat="47.89172" lon="-1.77627">
        <ele>25</ele>
        <time>2015-06-07T10:43:13Z</time>
      </trkpt>
      <trkpt lat="47.8917" lon="-1.77627">
        <ele>25</ele>
        <time>2015-06-07T10:43:14Z</time>
      </trkpt>
      <trkpt lat="47.89167" lon="-1.77627">
        <ele>25</ele>
        <time>2015-06-07T10:43:15Z</time>
      </trkpt>
      <trkpt lat="47.89165" lon="-1.77625">
        <ele>25</ele>
        <time>2015-06-07T10:43:16Z</time>
      </trkpt>
      <trkpt lat="47.89162" lon="-1.77624">
        <ele>25</ele>
        <time>2015-06-07T10:43:17Z</time>
      </trkpt>
      <trkpt lat="47.89161" lon="-1.77623">
        <ele>25</ele>
        <time>2015-06-07T10:43:18Z</time>
      </trkpt>
      <trkpt lat="47.89159" lon="-1.77622">
        <ele>25</ele>
        <time>2015-06-07T10:43:19Z</time>
      </trkpt>
      <trkpt lat="47.89158" lon="-1.77621">
        <ele>25</ele>
        <time>2015-06-07T10:43:20Z</time>
      </trkpt>
      <trkpt lat="47.89157" lon="-1.77619">
        <ele>25</ele>
        <time>2015-06-07T10:43:21Z</time>
      </trkpt>
      <trkpt lat="47.89157" lon="-1.77618">
        <ele>25</ele>
        <time>2015-06-07T10:43:22Z</time>
      </trkpt>
      <trkpt lat="47.89157" lon="-1.77617">
        <ele>25</ele>
        <time>2015-06-07T10:43:23Z</time>
      </trkpt>
      <trkpt lat="47.89157" lon="-1.77617">
        <ele>25</ele>
        <time>2015-06-07T10:43:24Z</time>
      </trkpt>
      <trkpt lat="47.89158" lon="-1.77615">
        <ele>25</ele>
        <time>2015-06-07T10:43:25Z</time>
      </trkpt>
      <trkpt lat="47.89159" lon="-1.77614">
        <ele>25</ele>
        <time>2015-06-07T10:43:26Z</time>
      </trkpt>
      <trkpt lat="47.89159" lon="-1.77611">
        <ele>25</ele>
        <time>2015-06-07T10:43:27Z</time>
      </trkpt>
      <trkpt lat="47.89159" lon="-1.77609">
        <ele>25</ele>
        <time>2015-06-07T10:43:28Z</time>
      </trkpt>
      <trkpt lat="47.8916" lon="-1.77608">
        <ele>26</ele>
        <time>2015-06-07T10:43:29Z</time>
      </trkpt>
      <trkpt lat="47.89161" lon="-1.77608">
        <ele>25</ele>
        <time>2015-06-07T10:43:30Z</time>
      </trkpt>
      <trkpt lat="47.89162" lon="-1.77609">
        <ele>25</ele>
        <time>2015-06-07T10:43:31Z</time>
      </trkpt>
      <trkpt lat="47.89164" lon="-1.7761">
        <ele>25</ele>
        <time>2015-06-07T10:43:32Z</time>
      </trkpt>
      <trkpt lat="47.89165" lon="-1.77613">
        <ele>25</ele>
        <time>2015-06-07T10:43:33Z</time>
      </trkpt>
      <trkpt lat="47.89166" lon="-1.77615">
        <ele>25</ele>
        <time>2015-06-07T10:43:34Z</time>
      </trkpt>
      <trkpt lat="47.89168" lon="-1.77617">
        <ele>25</ele>
        <time>2015-06-07T10:43:35Z</time>
      </trkpt>
      <trkpt lat="47.89171" lon="-1.77619">
        <ele>25</ele>
        <time>2015-06-07T10:43:36Z</time>
      </trkpt>
      <trkpt lat="47.89174" lon="-1.7762">
        <ele>25</ele>
        <time>2015-06-07T10:43:37Z</time>
      </trkpt>
      <trkpt lat="47.89176" lon="-1.77621">
        <ele>25</ele>
        <time>2015-06-07T10:43:38Z</time>
      </trkpt>
      <trkpt lat="47.89179" lon="-1.77621">
        <ele>25</ele>
        <time>2015-06-07T10:43:39Z</time>
      </trkpt>
      <trkpt lat="47.89182" lon="-1.77621">
        <ele>25</ele>
        <time>2015-06-07T10:43:40Z</time>
      </trkpt>
      <trkpt lat="47.89185" lon="-1.77622">
        <ele>25</ele>
        <time>2015-06-07T10:43:41Z</time>
      </trkpt>
      <trkpt lat="47.89188" lon="-1.77623">
        <ele>25</ele>
        <time>2015-06-07T10:43:42Z</time>
      </trkpt>
      <trkpt lat="47.89191" lon="-1.77623">
        <ele>24</ele>
        <time>2015-06-07T10:43:43Z</time>
      </trkpt>
      <trkpt lat="47.89193" lon="-1.7762">
        <ele>24</ele>
        <time>2015-06-07T10:43:44Z</time>
      </trkpt>
      <trkpt lat="47.89195" lon="-1.77617">
        <ele>24</ele>
        <time>2015-06-07T10:43:45Z</time>
      </trkpt>
      <trkpt lat="47.89196" lon="-1.77613">
        <ele>24</ele>
        <time>2015-06-07T10:43:46Z</time>
      </trkpt>
      <trkpt lat="47.89198" lon="-1.77609">
        <ele>24</ele>
        <time>2015-06-07T10:43:47Z</time>
      </trkpt>
      <trkpt lat="47.89199" lon="-1.77604">
        <ele>24</ele>
        <time>2015-06-07T10:43:48Z</time>
      </trkpt>
      <trkpt lat="47.89201" lon="-1.776">
        <ele>24</ele>
        <time>2015-06-07T10:43:49Z</time>
      </trkpt>
      <trkpt lat="47.89202" lon="-1.77595">
        <ele>23</ele>
        <time>2015-06-07T10:43:50Z</time>
      </trkpt>
      <trkpt lat="47.89203" lon="-1.7759">
        <ele>23</ele>
        <time>2015-06-07T10:43:51Z</time>
      </trkpt>
      <trkpt lat="47.89205" lon="-1.77585">
        <ele>23</ele>
        <time>2015-06-07T10:43:52Z</time>
      </trkpt>
      <trkpt lat="47.89208" lon="-1.77581">
        <ele>22</ele>
        <time>2015-06-07T10:43:53Z</time>
      </trkpt>
      <trkpt lat="47.8921" lon="-1.77576">
        <ele>22</ele>
        <time>2015-06-07T10:43:54Z</time>
      </trkpt>
      <trkpt lat="47.89212" lon="-1.77571">
        <ele>22</ele>
        <time>2015-06-07T10:43:55Z</time>
      </trkpt>
      <trkpt lat="47.89215" lon="-1.77566">
        <ele>22</ele>
        <time>2015-06-07T10:43:56Z</time>
      </trkpt>
      <trkpt lat="47.89216" lon="-1.77561">
        <ele>21</ele>
        <time>2015-06-07T10:43:57Z</time>
      </trkpt>
      <trkpt lat="47.89215" lon="-1.77556">
        <ele>21</ele>
        <time>2015-06-07T10:43:58Z</time>
      </trkpt>
      <trkpt lat="47.89215" lon="-1.77552">
        <ele>21</ele>
        <time>2015-06-07T10:43:59Z</time>
      </trkpt>
      <trkpt lat="47.89216" lon="-1.77548">
        <ele>21</ele>
        <time>2015-06-07T10:44:00Z</time>
      </trkpt>
      <trkpt lat="47.89217" lon="-1.77544">
        <ele>21</ele>
        <time>2015-06-07T10:44:01Z</time>
      </trkpt>
      <trkpt lat="47.89218" lon="-1.7754">
        <ele>21</ele>
        <time>2015-06-07T10:44:02Z</time>
      </trkpt>
      <trkpt lat="47.89219" lon="-1.77536">
        <ele>21</ele>
        <time>2015-06-07T10:44:03Z</time>
      </trkpt>
      <trkpt lat="47.89219" lon="-1.77534">
        <ele>21</ele>
        <time>2015-06-07T10:44:04Z</time>
      </trkpt>
      <trkpt lat="47.8922" lon="-1.7753">
        <ele>21</ele>
        <time>2015-06-07T10:44:05Z</time>
      </trkpt>
      <trkpt lat="47.8922" lon="-1.77526">
        <ele>21</ele>
        <time>2015-06-07T10:44:06Z</time>
      </trkpt>
      <trkpt lat="47.8922" lon="-1.77522">
        <ele>21</ele>
        <time>2015-06-07T10:44:07Z</time>
      </trkpt>
      <trkpt lat="47.89221" lon="-1.77518">
        <ele>21</ele>
        <time>2015-06-07T10:44:08Z</time>
      </trkpt>
      <trkpt lat="47.89221" lon="-1.77513">
        <ele>21</ele>
        <time>2015-06-07T10:44:09Z</time>
      </trkpt>
      <trkpt lat="47.89222" lon="-1.77509">
        <ele>21</ele>
        <time>2015-06-07T10:44:10Z</time>
      </trkpt>
      <trkpt lat="47.89222" lon="-1.77505">
        <ele>21</ele>
        <time>2015-06-07T10:44:11Z</time>
      </trkpt>
      <trkpt lat="47.89222" lon="-1.77502">
        <ele>21</ele>
        <time>2015-06-07T10:44:12Z</time>
      </trkpt>
      <trkpt lat="47.89222" lon="-1.77499">
        <ele>21</ele>
        <time>2015-06-07T10:44:13Z</time>
      </trkpt>
      <trkpt lat="47.89223" lon="-1.77496">
        <ele>21</ele>
        <time>2015-06-07T10:44:14Z</time>
      </trkpt>
      <trkpt lat="47.89224" lon="-1.77491">
        <ele>21</ele>
        <time>2015-06-07T10:44:15Z</time>
      </trkpt>
      <trkpt lat="47.89225" lon="-1.77487">
        <ele>21</ele>
        <time>2015-06-07T10:44:16Z</time>
      </trkpt>
      <trkpt lat="47.89225" lon="-1.77484">
        <ele>21</ele>
        <time>2015-06-07T10:44:17Z</time>
      </trkpt>
      <trkpt lat="47.89225" lon="-1.77482">
        <ele>21</ele>
        <time>2015-06-07T10:44:18Z</time>
      </trkpt>
      <trkpt lat="47.89225" lon="-1.77479">
        <ele>21</ele>
        <time>2015-06-07T10:44:19Z</time>
      </trkpt>
      <trkpt lat="47.89226" lon="-1.77476">
        <ele>21</ele>
        <time>2015-06-07T10:44:20Z</time>
      </trkpt>
      <trkpt lat="47.89227" lon="-1.77474">
        <ele>21</ele>
        <time>2015-06-07T10:44:21Z</time>
      </trkpt>
      <trkpt lat="47.89227" lon="-1.7747">
        <ele>21</ele>
        <time>2015-06-07T10:44:22Z</time>
      </trkpt>
      <trkpt lat="47.89228" lon="-1.77465">
        <ele>21</ele>
        <time>2015-06-07T10:44:23Z</time>
      </trkpt>
      <trkpt lat="47.89229" lon="-1.77461">
        <ele>20</ele>
        <time>2015-06-07T10:44:24Z</time>
      </trkpt>
      <trkpt lat="47.89229" lon="-1.77457">
        <ele>20</ele>
        <time>2015-06-07T10:44:25Z</time>
      </trkpt>
      <trkpt lat="47.8923" lon="-1.77454">
        <ele>20</ele>
        <time>2015-06-07T10:44:26Z</time>
      </trkpt>
      <trkpt lat="47.8923" lon="-1.7745">
        <ele>20</ele>
        <time>2015-06-07T10:44:27Z</time>
      </trkpt>
      <trkpt lat="47.89231" lon="-1.77446">
        <ele>20</ele>
        <time>2015-06-07T10:44:28Z</time>
      </trkpt>
      <trkpt lat="47.89231" lon="-1.77442">
        <ele>20</ele>
        <time>2015-06-07T10:44:29Z</time>
      </trkpt>
      <trkpt lat="47.89232" lon="-1.77439">
        <ele>20</ele>
        <time>2015-06-07T10:44:30Z</time>
      </trkpt>
      <trkpt lat="47.89232" lon="-1.77435">
        <ele>20</ele>
        <time>2015-06-07T10:44:31Z</time>
      </trkpt>
      <trkpt lat="47.89232" lon="-1.77431">
        <ele>20</ele>
        <time>2015-06-07T10:44:32Z</time>
      </trkpt>
      <trkpt lat="47.89233" lon="-1.77428">
        <ele>20</ele>
        <time>2015-06-07T10:44:33Z</time>
      </trkpt>
      <trkpt lat="47.89233" lon="-1.77424">
        <ele>20</ele>
        <time>2015-06-07T10:44:34Z</time>
      </trkpt>
      <trkpt lat="47.89234" lon="-1.77421">
        <ele>20</ele>
        <time>2015-06-07T10:44:35Z</time>
      </trkpt>
      <trkpt lat="47.89234" lon="-1.77419">
        <ele>20</ele>
        <time>2015-06-07T10:44:36Z</time>
      </trkpt>
      <trkpt lat="47.89234" lon="-1.77414">
        <ele>20</ele>
        <time>2015-06-07T10:44:37Z</time>
      </trkpt>
      <trkpt lat="47.89235" lon="-1.7741">
        <ele>20</ele>
        <time>2015-06-07T10:44:38Z</time>
      </trkpt>
      <trkpt lat="47.89235" lon="-1.77406">
        <ele>20</ele>
        <time>2015-06-07T10:44:39Z</time>
      </trkpt>
      <trkpt lat="47.89235" lon="-1.77403">
        <ele>20</ele>
        <time>2015-06-07T10:44:40Z</time>
      </trkpt>
      <trkpt lat="47.89235" lon="-1.77399">
        <ele>20</ele>
        <time>2015-06-07T10:44:41Z</time>
      </trkpt>
      <trkpt lat="47.89235" lon="-1.77395">
        <ele>20</ele>
        <time>2015-06-07T10:44:42Z</time>
      </trkpt>
      <trkpt lat="47.89235" lon="-1.77391">
        <ele>20</ele>
        <time>2015-06-07T10:44:43Z</time>
      </trkpt>
      <trkpt lat="47.89236" lon="-1.77388">
        <ele>20</ele>
        <time>2015-06-07T10:44:44Z</time>
      </trkpt>
      <trkpt lat="47.89237" lon="-1.77384">
        <ele>20</ele>
        <time>2015-06-07T10:44:45Z</time>
      </trkpt>
      <trkpt lat="47.89237" lon="-1.7738">
        <ele>20</ele>
        <time>2015-06-07T10:44:46Z</time>
      </trkpt>
      <trkpt lat="47.89237" lon="-1.77377">
        <ele>20</ele>
        <time>2015-06-07T10:44:47Z</time>
      </trkpt>
      <trkpt lat="47.89237" lon="-1.77374">
        <ele>20</ele>
        <time>2015-06-07T10:44:48Z</time>
      </trkpt>
      <trkpt lat="47.89237" lon="-1.77371">
        <ele>20</ele>
        <time>2015-06-07T10:44:49Z</time>
      </trkpt>
      <trkpt lat="47.89238" lon="-1.77366">
        <ele>20</ele>
        <time>2015-06-07T10:44:50Z</time>
      </trkpt>
      <trkpt lat="47.89239" lon="-1.77362">
        <ele>20</ele>
        <time>2015-06-07T10:44:51Z</time>
      </trkpt>
      <trkpt lat="47.89241" lon="-1.77358">
        <ele>19</ele>
        <time>2015-06-07T10:44:52Z</time>
      </trkpt>
      <trkpt lat="47.89242" lon="-1.77353">
        <ele>19</ele>
        <time>2015-06-07T10:44:53Z</time>
      </trkpt>
      <trkpt lat="47.89243" lon="-1.77349">
        <ele>19</ele>
        <time>2015-06-07T10:44:54Z</time>
      </trkpt>
      <trkpt lat="47.89245" lon="-1.77344">
        <ele>19</ele>
        <time>2015-06-07T10:44:55Z</time>
      </trkpt>
      <trkpt lat="47.89247" lon="-1.7734">
        <ele>19</ele>
        <time>2015-06-07T10:44:56Z</time>
      </trkpt>
      <trkpt lat="47.89248" lon="-1.77335">
        <ele>19</ele>
        <time>2015-06-07T10:44:57Z</time>
      </trkpt>
      <trkpt lat="47.89249" lon="-1.7733">
        <ele>19</ele>
        <time>2015-06-07T10:44:58Z</time>
      </trkpt>
      <trkpt lat="47.8925" lon="-1.77325">
        <ele>19</ele>
        <time>2015-06-07T10:44:59Z</time>
      </trkpt>
      <trkpt lat="47.8925" lon="-1.77322">
        <ele>19</ele>
        <time>2015-06-07T10:45:00Z</time>
      </trkpt>
      <trkpt lat="47.89249" lon="-1.77318">
        <ele>19</ele>
        <time>2015-06-07T10:45:01Z</time>
      </trkpt>
      <trkpt lat="47.8925" lon="-1.77315">
        <ele>19</ele>
        <time>2015-06-07T10:45:02Z</time>
      </trkpt>
      <trkpt lat="47.8925" lon="-1.77312">
        <ele>19</ele>
        <time>2015-06-07T10:45:03Z</time>
      </trkpt>
      <trkpt lat="47.89251" lon="-1.77308">
        <ele>19</ele>
        <time>2015-06-07T10:45:04Z</time>
      </trkpt>
      <trkpt lat="47.89251" lon="-1.77303">
        <ele>19</ele>
        <time>2015-06-07T10:45:05Z</time>
      </trkpt>
      <trkpt lat="47.89252" lon="-1.773">
        <ele>19</ele>
        <time>2015-06-07T10:45:06Z</time>
      </trkpt>
      <trkpt lat="47.89253" lon="-1.77296">
        <ele>19</ele>
        <time>2015-06-07T10:45:07Z</time>
      </trkpt>
      <trkpt lat="47.89254" lon="-1.77291">
        <ele>19</ele>
        <time>2015-06-07T10:45:08Z</time>
      </trkpt>
      <trkpt lat="47.89254" lon="-1.77288">
        <ele>19</ele>
        <time>2015-06-07T10:45:09Z</time>
      </trkpt>
      <trkpt lat="47.89255" lon="-1.77284">
        <ele>19</ele>
        <time>2015-06-07T10:45:10Z</time>
      </trkpt>
      <trkpt lat="47.89255" lon="-1.77281">
        <ele>19</ele>
        <time>2015-06-07T10:45:11Z</time>
      </trkpt>
      <trkpt lat="47.89255" lon="-1.77276">
        <ele>20</ele>
        <time>2015-06-07T10:45:12Z</time>
      </trkpt>
      <trkpt lat="47.89256" lon="-1.77272">
        <ele>20</ele>
        <time>2015-06-07T10:45:13Z</time>
      </trkpt>
      <trkpt lat="47.89255" lon="-1.77269">
        <ele>20</ele>
        <time>2015-06-07T10:45:14Z</time>
      </trkpt>
      <trkpt lat="47.89255" lon="-1.77266">
        <ele>20</ele>
        <time>2015-06-07T10:45:15Z</time>
      </trkpt>
      <trkpt lat="47.89254" lon="-1.77266">
        <ele>20</ele>
        <time>2015-06-07T10:45:16Z</time>
      </trkpt>
      <trkpt lat="47.89252" lon="-1.77265">
        <ele>20</ele>
        <time>2015-06-07T10:45:17Z</time>
      </trkpt>
      <trkpt lat="47.89251" lon="-1.77262">
        <ele>20</ele>
        <time>2015-06-07T10:45:18Z</time>
      </trkpt>
      <trkpt lat="47.89251" lon="-1.77261">
        <ele>21</ele>
        <time>2015-06-07T10:45:19Z</time>
      </trkpt>
      <trkpt lat="47.89249" lon="-1.7726">
        <ele>21</ele>
        <time>2015-06-07T10:45:20Z</time>
      </trkpt>
      <trkpt lat="47.89248" lon="-1.77261">
        <ele>21</ele>
        <time>2015-06-07T10:45:21Z</time>
      </trkpt>
      <trkpt lat="47.89248" lon="-1.77261">
        <ele>21</ele>
        <time>2015-06-07T10:45:22Z</time>
      </trkpt>
      <trkpt lat="47.89247" lon="-1.77261">
        <ele>21</ele>
        <time>2015-06-07T10:45:23Z</time>
      </trkpt>
      <trkpt lat="47.89246" lon="-1.7726">
        <ele>22</ele>
        <time>2015-06-07T10:45:24Z</time>
      </trkpt>
      <trkpt lat="47.89244" lon="-1.77259">
        <ele>22</ele>
        <time>2015-06-07T10:45:25Z</time>
      </trkpt>
      <trkpt lat="47.89243" lon="-1.77258">
        <ele>22</ele>
        <time>2015-06-07T10:45:26Z</time>
      </trkpt>
      <trkpt lat="47.89241" lon="-1.77259">
        <ele>22</ele>
        <time>2015-06-07T10:45:27Z</time>
      </trkpt>
      <trkpt lat="47.89239" lon="-1.77259">
        <ele>22</ele>
        <time>2015-06-07T10:45:28Z</time>
      </trkpt>
      <trkpt lat="47.89237" lon="-1.77261">
        <ele>22</ele>
        <time>2015-06-07T10:45:29Z</time>
      </trkpt>
      <trkpt lat="47.89235" lon="-1.77261">
        <ele>22</ele>
        <time>2015-06-07T10:45:30Z</time>
      </trkpt>
      <trkpt lat="47.89233" lon="-1.77262">
        <ele>22</ele>
        <time>2015-06-07T10:45:31Z</time>
      </trkpt>
      <trkpt lat="47.89232" lon="-1.77262">
        <ele>22</ele>
        <time>2015-06-07T10:45:32Z</time>
      </trkpt>
      <trkpt lat="47.8923" lon="-1.77263">
        <ele>22</ele>
        <time>2015-06-07T10:45:33Z</time>
      </trkpt>
      <trkpt lat="47.89229" lon="-1.77266">
        <ele>22</ele>
        <time>2015-06-07T10:45:34Z</time>
      </trkpt>
      <trkpt lat="47.89227" lon="-1.77267">
        <ele>22</ele>
        <time>2015-06-07T10:45:35Z</time>
      </trkpt>
      <trkpt lat="47.89226" lon="-1.77269">
        <ele>22</ele>
        <time>2015-06-07T10:45:36Z</time>
      </trkpt>
      <trkpt lat="47.89224" lon="-1.77269">
        <ele>22</ele>
        <time>2015-06-07T10:45:37Z</time>
      </trkpt>
      <trkpt lat="47.89222" lon="-1.7727">
        <ele>22</ele>
        <time>2015-06-07T10:45:38Z</time>
      </trkpt>
      <trkpt lat="47.89221" lon="-1.77269">
        <ele>22</ele>
        <time>2015-06-07T10:45:39Z</time>
      </trkpt>
      <trkpt lat="47.89219" lon="-1.77268">
        <ele>23</ele>
        <time>2015-06-07T10:45:40Z</time>
      </trkpt>
      <trkpt lat="47.89217" lon="-1.77266">
        <ele>23</ele>
        <time>2015-06-07T10:45:41Z</time>
      </trkpt>
      <trkpt lat="47.89215" lon="-1.77265">
        <ele>23</ele>
        <time>2015-06-07T10:45:42Z</time>
      </trkpt>
      <trkpt lat="47.89214" lon="-1.77266">
        <ele>23</ele>
        <time>2015-06-07T10:45:43Z</time>
      </trkpt>
      <trkpt lat="47.89212" lon="-1.77268">
        <ele>23</ele>
        <time>2015-06-07T10:45:44Z</time>
      </trkpt>
      <trkpt lat="47.89211" lon="-1.77269">
        <ele>23</ele>
        <time>2015-06-07T10:45:45Z</time>
      </trkpt>
      <trkpt lat="47.89209" lon="-1.77269">
        <ele>23</ele>
        <time>2015-06-07T10:45:46Z</time>
      </trkpt>
      <trkpt lat="47.89208" lon="-1.77269">
        <ele>23</ele>
        <time>2015-06-07T10:45:47Z</time>
      </trkpt>
      <trkpt lat="47.89206" lon="-1.77268">
        <ele>23</ele>
        <time>2015-06-07T10:45:48Z</time>
      </trkpt>
      <trkpt lat="47.89204" lon="-1.77266">
        <ele>23</ele>
        <time>2015-06-07T10:45:49Z</time>
      </trkpt>
      <trkpt lat="47.89203" lon="-1.77265">
        <ele>23</ele>
        <time>2015-06-07T10:45:50Z</time>
      </trkpt>
      <trkpt lat="47.89202" lon="-1.77262">
        <ele>23</ele>
        <time>2015-06-07T10:45:51Z</time>
      </trkpt>
      <trkpt lat="47.89202" lon="-1.7726">
        <ele>23</ele>
        <time>2015-06-07T10:45:52Z</time>
      </trkpt>
      <trkpt lat="47.89203" lon="-1.77259">
        <ele>23</ele>
        <time>2015-06-07T10:45:53Z</time>
      </trkpt>
      <trkpt lat="47.89205" lon="-1.77259">
        <ele>23</ele>
        <time>2015-06-07T10:45:54Z</time>
      </trkpt>
      <trkpt lat="47.89205" lon="-1.77258">
        <ele>23</ele>
        <time>2015-06-07T10:45:55Z</time>
      </trkpt>
      <trkpt lat="47.89206" lon="-1.77257">
        <ele>23</ele>
        <time>2015-06-07T10:45:56Z</time>
      </trkpt>
      <trkpt lat="47.89207" lon="-1.77256">
        <ele>23</ele>
        <time>2015-06-07T10:45:57Z</time>
      </trkpt>
      <trkpt lat="47.89208" lon="-1.77253">
        <ele>24</ele>
        <time>2015-06-07T10:45:58Z</time>
      </trkpt>
      <trkpt lat="47.89209" lon="-1.7725">
        <ele>24</ele>
        <time>2015-06-07T10:45:59Z</time>
      </trkpt>
      <trkpt lat="47.8921" lon="-1.77247">
        <ele>24</ele>
        <time>2015-06-07T10:46:00Z</time>
      </trkpt>
      <trkpt lat="47.89212" lon="-1.77243">
        <ele>23</ele>
        <time>2015-06-07T10:46:01Z</time>
      </trkpt>
      <trkpt lat="47.89213" lon="-1.77239">
        <ele>23</ele>
        <time>2015-06-07T10:46:02Z</time>
      </trkpt>
      <trkpt lat="47.89214" lon="-1.77235">
        <ele>23</ele>
        <time>2015-06-07T10:46:03Z</time>
      </trkpt>
      <trkpt lat="47.89215" lon="-1.7723">
        <ele>23</ele>
        <time>2015-06-07T10:46:04Z</time>
      </trkpt>
      <trkpt lat="47.89215" lon="-1.77226">
        <ele>23</ele>
        <time>2015-06-07T10:46:05Z</time>
      </trkpt>
      <trkpt lat="47.89215" lon="-1.77223">
        <ele>22</ele>
        <time>2015-06-07T10:46:06Z</time>
      </trkpt>
      <trkpt lat="47.89216" lon="-1.77222">
        <ele>22</ele>
        <time>2015-06-07T10:46:07Z</time>
      </trkpt>
      <trkpt lat="47.89218" lon="-1.77221">
        <ele>22</ele>
        <time>2015-06-07T10:46:08Z</time>
      </trkpt>
      <trkpt lat="47.8922" lon="-1.77222">
        <ele>23</ele>
        <time>2015-06-07T10:46:09Z</time>
      </trkpt>
      <trkpt lat="47.89221" lon="-1.77223">
        <ele>23</ele>
        <time>2015-06-07T10:46:10Z</time>
      </trkpt>
      <trkpt lat="47.89222" lon="-1.77226">
        <ele>23</ele>
        <time>2015-06-07T10:46:11Z</time>
      </trkpt>
      <trkpt lat="47.89224" lon="-1.77228">
        <ele>23</ele>
        <time>2015-06-07T10:46:12Z</time>
      </trkpt>
      <trkpt lat="47.89226" lon="-1.7723">
        <ele>23</ele>
        <time>2015-06-07T10:46:13Z</time>
      </trkpt>
      <trkpt lat="47.89229" lon="-1.77232">
        <ele>23</ele>
        <time>2015-06-07T10:46:14Z</time>
      </trkpt>
      <trkpt lat="47.89232" lon="-1.77233">
        <ele>23</ele>
        <time>2015-06-07T10:46:15Z</time>
      </trkpt>
      <trkpt lat="47.89235" lon="-1.77233">
        <ele>23</ele>
        <time>2015-06-07T10:46:16Z</time>
      </trkpt>
      <trkpt lat="47.89238" lon="-1.77233">
        <ele>23</ele>
        <time>2015-06-07T10:46:17Z</time>
      </trkpt>
      <trkpt lat="47.89241" lon="-1.77233">
        <ele>23</ele>
        <time>2015-06-07T10:46:18Z</time>
      </trkpt>
      <trkpt lat="47.89245" lon="-1.77233">
        <ele>23</ele>
        <time>2015-06-07T10:46:19Z</time>
      </trkpt>
      <trkpt lat="47.89248" lon="-1.77232">
        <ele>23</ele>
        <time>2015-06-07T10:46:20Z</time>
      </trkpt>
      <trkpt lat="47.8925" lon="-1.77232">
        <ele>23</ele>
        <time>2015-06-07T10:46:21Z</time>
      </trkpt>
      <trkpt lat="47.89252" lon="-1.77234">
        <ele>23</ele>
        <time>2015-06-07T10:46:22Z</time>
      </trkpt>
      <trkpt lat="47.89255" lon="-1.77236">
        <ele>23</ele>
        <time>2015-06-07T10:46:23Z</time>
      </trkpt>
      <trkpt lat="47.89257" lon="-1.77238">
        <ele>23</ele>
        <time>2015-06-07T10:46:24Z</time>
      </trkpt>
      <trkpt lat="47.89259" lon="-1.77239">
        <ele>23</ele>
        <time>2015-06-07T10:46:25Z</time>
      </trkpt>
      <trkpt lat="47.89263" lon="-1.7724">
        <ele>23</ele>
        <time>2015-06-07T10:46:26Z</time>
      </trkpt>
      <trkpt lat="47.89267" lon="-1.77242">
        <ele>22</ele>
        <time>2015-06-07T10:46:27Z</time>
      </trkpt>
      <trkpt lat="47.89271" lon="-1.7724">
        <ele>22</ele>
        <time>2015-06-07T10:46:28Z</time>
      </trkpt>
      <trkpt lat="47.89274" lon="-1.77237">
        <ele>22</ele>
        <time>2015-06-07T10:46:29Z</time>
      </trkpt>
      <trkpt lat="47.89276" lon="-1.77233">
        <ele>22</ele>
        <time>2015-06-07T10:46:30Z</time>
      </trkpt>
      <trkpt lat="47.89277" lon="-1.7723">
        <ele>21</ele>
        <time>2015-06-07T10:46:31Z</time>
      </trkpt>
      <trkpt lat="47.89277" lon="-1.77227">
        <ele>21</ele>
        <time>2015-06-07T10:46:32Z</time>
      </trkpt>
      <trkpt lat="47.89277" lon="-1.77225">
        <ele>21</ele>
        <time>2015-06-07T10:46:33Z</time>
      </trkpt>
      <trkpt lat="47.89277" lon="-1.77223">
        <ele>21</ele>
        <time>2015-06-07T10:46:34Z</time>
      </trkpt>
      <trkpt lat="47.89277" lon="-1.77221">
        <ele>20</ele>
        <time>2015-06-07T10:46:35Z</time>
      </trkpt>
      <trkpt lat="47.89276" lon="-1.7722">
        <ele>20</ele>
        <time>2015-06-07T10:46:36Z</time>
      </trkpt>
      <trkpt lat="47.89274" lon="-1.77219">
        <ele>20</ele>
        <time>2015-06-07T10:46:37Z</time>
      </trkpt>
      <trkpt lat="47.89273" lon="-1.77218">
        <ele>20</ele>
        <time>2015-06-07T10:46:38Z</time>
      </trkpt>
      <trkpt lat="47.89271" lon="-1.77217">
        <ele>20</ele>
        <time>2015-06-07T10:46:39Z</time>
      </trkpt>
      <trkpt lat="47.8927" lon="-1.77216">
        <ele>20</ele>
        <time>2015-06-07T10:46:40Z</time>
      </trkpt>
      <trkpt lat="47.89268" lon="-1.77215">
        <ele>20</ele>
        <time>2015-06-07T10:46:41Z</time>
      </trkpt>
      <trkpt lat="47.89267" lon="-1.77213">
        <ele>20</ele>
        <time>2015-06-07T10:46:42Z</time>
      </trkpt>
      <trkpt lat="47.89267" lon="-1.77211">
        <ele>20</ele>
        <time>2015-06-07T10:46:43Z</time>
      </trkpt>
      <trkpt lat="47.89268" lon="-1.77208">
        <ele>20</ele>
        <time>2015-06-07T10:46:44Z</time>
      </trkpt>
      <trkpt lat="47.89268" lon="-1.77203">
        <ele>20</ele>
        <time>2015-06-07T10:46:45Z</time>
      </trkpt>
      <trkpt lat="47.89269" lon="-1.77198">
        <ele>20</ele>
        <time>2015-06-07T10:46:46Z</time>
      </trkpt>
      <trkpt lat="47.89268" lon="-1.77194">
        <ele>20</ele>
        <time>2015-06-07T10:46:47Z</time>
      </trkpt>
      <trkpt lat="47.89267" lon="-1.77191">
        <ele>20</ele>
        <time>2015-06-07T10:46:48Z</time>
      </trkpt>
      <trkpt lat="47.89265" lon="-1.7719">
        <ele>20</ele>
        <time>2015-06-07T10:46:49Z</time>
      </trkpt>
      <trkpt lat="47.89263" lon="-1.77189">
        <ele>20</ele>
        <time>2015-06-07T10:46:50Z</time>
      </trkpt>
      <trkpt lat="47.8926" lon="-1.77189">
        <ele>20</ele>
        <time>2015-06-07T10:46:51Z</time>
      </trkpt>
      <trkpt lat="47.89258" lon="-1.77191">
        <ele>19</ele>
        <time>2015-06-07T10:46:52Z</time>
      </trkpt>
      <trkpt lat="47.89255" lon="-1.77192">
        <ele>19</ele>
        <time>2015-06-07T10:46:53Z</time>
      </trkpt>
      <trkpt lat="47.89254" lon="-1.77192">
        <ele>19</ele>
        <time>2015-06-07T10:46:54Z</time>
      </trkpt>
      <trkpt lat="47.89252" lon="-1.77193">
        <ele>19</ele>
        <time>2015-06-07T10:46:55Z</time>
      </trkpt>
      <trkpt lat="47.89252" lon="-1.77194">
        <ele>19</ele>
        <time>2015-06-07T10:46:56Z</time>
      </trkpt>
      <trkpt lat="47.89251" lon="-1.77197">
        <ele>19</ele>
        <time>2015-06-07T10:46:57Z</time>
      </trkpt>
      <trkpt lat="47.89251" lon="-1.77199">
        <ele>19</ele>
        <time>2015-06-07T10:46:58Z</time>
      </trkpt>
      <trkpt lat="47.89251" lon="-1.77202">
        <ele>19</ele>
        <time>2015-06-07T10:46:59Z</time>
      </trkpt>
      <trkpt lat="47.89251" lon="-1.77204">
        <ele>19</ele>
        <time>2015-06-07T10:47:00Z</time>
      </trkpt>
      <trkpt lat="47.8925" lon="-1.77204">
        <ele>19</ele>
        <time>2015-06-07T10:47:01Z</time>
      </trkpt>
      <trkpt lat="47.89248" lon="-1.77204">
        <ele>19</ele>
        <time>2015-06-07T10:47:02Z</time>
      </trkpt>
      <trkpt lat="47.89246" lon="-1.77203">
        <ele>19</ele>
        <time>2015-06-07T10:47:03Z</time>
      </trkpt>
      <trkpt lat="47.89244" lon="-1.77202">
        <ele>19</ele>
        <time>2015-06-07T10:47:04Z</time>
      </trkpt>
      <trkpt lat="47.89243" lon="-1.772">
        <ele>19</ele>
        <time>2015-06-07T10:47:05Z</time>
      </trkpt>
      <trkpt lat="47.89241" lon="-1.77199">
        <ele>19</ele>
        <time>2015-06-07T10:47:06Z</time>
      </trkpt>
      <trkpt lat="47.8924" lon="-1.77197">
        <ele>19</ele>
        <time>2015-06-07T10:47:07Z</time>
      </trkpt>
      <trkpt lat="47.89239" lon="-1.77194">
        <ele>19</ele>
        <time>2015-06-07T10:47:08Z</time>
      </trkpt>
      <trkpt lat="47.89238" lon="-1.77192">
        <ele>19</ele>
        <time>2015-06-07T10:47:09Z</time>
      </trkpt>
      <trkpt lat="47.89237" lon="-1.7719">
        <ele>19</ele>
        <time>2015-06-07T10:47:10Z</time>
      </trkpt>
      <trkpt lat="47.89236" lon="-1.77187">
        <ele>19</ele>
        <time>2015-06-07T10:47:11Z</time>
      </trkpt>
      <trkpt lat="47.89236" lon="-1.77184">
        <ele>19</ele>
        <time>2015-06-07T10:47:12Z</time>
      </trkpt>
      <trkpt lat="47.89236" lon="-1.77181">
        <ele>19</ele>
        <time>2015-06-07T10:47:13Z</time>
      </trkpt>
      <trkpt lat="47.89237" lon="-1.77178">
        <ele>19</ele>
        <time>2015-06-07T10:47:14Z</time>
      </trkpt>
      <trkpt lat="47.89238" lon="-1.77175">
        <ele>19</ele>
        <time>2015-06-07T10:47:15Z</time>
      </trkpt>
      <trkpt lat="47.89239" lon="-1.77172">
        <ele>19</ele>
        <time>2015-06-07T10:47:16Z</time>
      </trkpt>
      <trkpt lat="47.89239" lon="-1.77167">
        <ele>19</ele>
        <time>2015-06-07T10:47:17Z</time>
      </trkpt>
      <trkpt lat="47.89238" lon="-1.77161">
        <ele>18</ele>
        <time>2015-06-07T10:47:18Z</time>
      </trkpt>
      <trkpt lat="47.89238" lon="-1.77157">
        <ele>18</ele>
        <time>2015-06-07T10:47:19Z</time>
      </trkpt>
      <trkpt lat="47.89237" lon="-1.77154">
        <ele>18</ele>
        <time>2015-06-07T10:47:20Z</time>
      </trkpt>
      <trkpt lat="47.89236" lon="-1.7715">
        <ele>18</ele>
        <time>2015-06-07T10:47:21Z</time>
      </trkpt>
      <trkpt lat="47.89235" lon="-1.77147">
        <ele>18</ele>
        <time>2015-06-07T10:47:22Z</time>
      </trkpt>
      <trkpt lat="47.89233" lon="-1.77145">
        <ele>18</ele>
        <time>2015-06-07T10:47:23Z</time>
      </trkpt>
      <trkpt lat="47.8923" lon="-1.77143">
        <ele>18</ele>
        <time>2015-06-07T10:47:24Z</time>
      </trkpt>
      <trkpt lat="47.89227" lon="-1.77141">
        <ele>18</ele>
        <time>2015-06-07T10:47:25Z</time>
      </trkpt>
      <trkpt lat="47.89225" lon="-1.77138">
        <ele>18</ele>
        <time>2015-06-07T10:47:26Z</time>
      </trkpt>
      <trkpt lat="47.89222" lon="-1.77135">
        <ele>18</ele>
        <time>2015-06-07T10:47:27Z</time>
      </trkpt>
      <trkpt lat="47.89218" lon="-1.77131">
        <ele>18</ele>
        <time>2015-06-07T10:47:28Z</time>
      </trkpt>
      <trkpt lat="47.89215" lon="-1.77127">
        <ele>18</ele>
        <time>2015-06-07T10:47:29Z</time>
      </trkpt>
      <trkpt lat="47.89212" lon="-1.77123">
        <ele>18</ele>
        <time>2015-06-07T10:47:30Z</time>
      </trkpt>
      <trkpt lat="47.89209" lon="-1.77119">
        <ele>18</ele>
        <time>2015-06-07T10:47:31Z</time>
      </trkpt>
      <trkpt lat="47.89207" lon="-1.77116">
        <ele>19</ele>
        <time>2015-06-07T10:47:32Z</time>
      </trkpt>
      <trkpt lat="47.89205" lon="-1.77112">
        <ele>19</ele>
        <time>2015-06-07T10:47:33Z</time>
      </trkpt>
      <trkpt lat="47.89204" lon="-1.77108">
        <ele>19</ele>
        <time>2015-06-07T10:47:34Z</time>
      </trkpt>
      <trkpt lat="47.89203" lon="-1.77106">
        <ele>19</ele>
        <time>2015-06-07T10:47:35Z</time>
      </trkpt>
      <trkpt lat="47.89201" lon="-1.77105">
        <ele>19</ele>
        <time>2015-06-07T10:47:36Z</time>
      </trkpt>
      <trkpt lat="47.892" lon="-1.77103">
        <ele>19</ele>
        <time>2015-06-07T10:47:37Z</time>
      </trkpt>
      <trkpt lat="47.89198" lon="-1.77101">
        <ele>19</ele>
        <time>2015-06-07T10:47:38Z</time>
      </trkpt>
      <trkpt lat="47.89195" lon="-1.77099">
        <ele>19</ele>
        <time>2015-06-07T10:47:39Z</time>
      </trkpt>
      <trkpt lat="47.89192" lon="-1.77096">
        <ele>19</ele>
        <time>2015-06-07T10:47:40Z</time>
      </trkpt>
      <trkpt lat="47.89191" lon="-1.77092">
        <ele>19</ele>
        <time>2015-06-07T10:47:41Z</time>
      </trkpt>
      <trkpt lat="47.89189" lon="-1.77089">
        <ele>19</ele>
        <time>2015-06-07T10:47:42Z</time>
      </trkpt>
      <trkpt lat="47.89188" lon="-1.77086">
        <ele>19</ele>
        <time>2015-06-07T10:47:43Z</time>
      </trkpt>
      <trkpt lat="47.89187" lon="-1.77085">
        <ele>19</ele>
        <time>2015-06-07T10:47:44Z</time>
      </trkpt>
      <trkpt lat="47.89187" lon="-1.77085">
        <ele>19</ele>
        <time>2015-06-07T10:47:45Z</time>
      </trkpt>
      <trkpt lat="47.89186" lon="-1.77084">
        <ele>19</ele>
        <time>2015-06-07T10:47:46Z</time>
      </trkpt>
      <trkpt lat="47.89186" lon="-1.77084">
        <ele>19</ele>
        <time>2015-06-07T10:47:47Z</time>
      </trkpt>
      <trkpt lat="47.89185" lon="-1.77083">
        <ele>19</ele>
        <time>2015-06-07T10:47:48Z</time>
      </trkpt>
      <trkpt lat="47.89185" lon="-1.77083">
        <ele>19</ele>
        <time>2015-06-07T10:47:49Z</time>
      </trkpt>
      <trkpt lat="47.89185" lon="-1.77083">
        <ele>20</ele>
        <time>2015-06-07T10:47:50Z</time>
      </trkpt>
      <trkpt lat="47.89185" lon="-1.77083">
        <ele>20</ele>
        <time>2015-06-07T10:47:51Z</time>
      </trkpt>
      <trkpt lat="47.89185" lon="-1.77084">
        <ele>20</ele>
        <time>2015-06-07T10:47:52Z</time>
      </trkpt>
      <trkpt lat="47.89185" lon="-1.77085">
        <ele>20</ele>
        <time>2015-06-07T10:47:53Z</time>
      </trkpt>
      <trkpt lat="47.89184" lon="-1.77086">
        <ele>20</ele>
        <time>2015-06-07T10:47:54Z</time>
      </trkpt>
      <trkpt lat="47.89184" lon="-1.77086">
        <ele>20</ele>
        <time>2015-06-07T10:47:55Z</time>
      </trkpt>
      <trkpt lat="47.89184" lon="-1.77086">
        <ele>20</ele>
        <time>2015-06-07T10:47:56Z</time>
      </trkpt>
      <trkpt lat="47.89183" lon="-1.77085">
        <ele>20</ele>
        <time>2015-06-07T10:47:57Z</time>
      </trkpt>
      <trkpt lat="47.89183" lon="-1.77085">
        <ele>20</ele>
        <time>2015-06-07T10:47:58Z</time>
      </trkpt>
      <trkpt lat="47.89183" lon="-1.77085">
        <ele>20</ele>
        <time>2015-06-07T10:47:59Z</time>
      </trkpt>
      <trkpt lat="47.89181" lon="-1.77077">
        <ele>20</ele>
        <time>2015-06-07T10:48:00Z</time>
      </trkpt>
      <trkpt lat="47.89181" lon="-1.77074">
        <ele>20</ele>
        <time>2015-06-07T10:48:01Z</time>
      </trkpt>
      <trkpt lat="47.8918" lon="-1.77073">
        <ele>20</ele>
        <time>2015-06-07T10:48:02Z</time>
      </trkpt>
      <trkpt lat="47.8918" lon="-1.77072">
        <ele>20</ele>
        <time>2015-06-07T10:48:03Z</time>
      </trkpt>
      <trkpt lat="47.89179" lon="-1.77071">
        <ele>20</ele>
        <time>2015-06-07T10:48:04Z</time>
      </trkpt>
      <trkpt lat="47.89179" lon="-1.7707">
        <ele>20</ele>
        <time>2015-06-07T10:48:05Z</time>
      </trkpt>
      <trkpt lat="47.89178" lon="-1.77071">
        <ele>20</ele>
        <time>2015-06-07T10:48:06Z</time>
      </trkpt>
      <trkpt lat="47.89178" lon="-1.77072">
        <ele>20</ele>
        <time>2015-06-07T10:48:07Z</time>
      </trkpt>
      <trkpt lat="47.89177" lon="-1.77073">
        <ele>20</ele>
        <time>2015-06-07T10:48:08Z</time>
      </trkpt>
      <trkpt lat="47.89175" lon="-1.77073">
        <ele>20</ele>
        <time>2015-06-07T10:48:09Z</time>
      </trkpt>
      <trkpt lat="47.89173" lon="-1.77073">
        <ele>20</ele>
        <time>2015-06-07T10:48:10Z</time>
      </trkpt>
      <trkpt lat="47.89172" lon="-1.77072">
        <ele>20</ele>
        <time>2015-06-07T10:48:11Z</time>
      </trkpt>
      <trkpt lat="47.89171" lon="-1.7707">
        <ele>20</ele>
        <time>2015-06-07T10:48:12Z</time>
      </trkpt>
      <trkpt lat="47.89171" lon="-1.77068">
        <ele>20</ele>
        <time>2015-06-07T10:48:13Z</time>
      </trkpt>
      <trkpt lat="47.89171" lon="-1.77067">
        <ele>20</ele>
        <time>2015-06-07T10:48:14Z</time>
      </trkpt>
      <trkpt lat="47.89171" lon="-1.77066">
        <ele>20</ele>
        <time>2015-06-07T10:48:15Z</time>
      </trkpt>
      <trkpt lat="47.89171" lon="-1.77065">
        <ele>20</ele>
        <time>2015-06-07T10:48:16Z</time>
      </trkpt>
      <trkpt lat="47.89171" lon="-1.77064">
        <ele>20</ele>
        <time>2015-06-07T10:48:17Z</time>
      </trkpt>
      <trkpt lat="47.89171" lon="-1.77062">
        <ele>20</ele>
        <time>2015-06-07T10:48:18Z</time>
      </trkpt>
      <trkpt lat="47.89172" lon="-1.77061">
        <ele>20</ele>
        <time>2015-06-07T10:48:19Z</time>
      </trkpt>
      <trkpt lat="47.89172" lon="-1.7706">
        <ele>21</ele>
        <time>2015-06-07T10:48:20Z</time>
      </trkpt>
      <trkpt lat="47.89171" lon="-1.77059">
        <ele>21</ele>
        <time>2015-06-07T10:48:21Z</time>
      </trkpt>
      <trkpt lat="47.89171" lon="-1.77059">
        <ele>21</ele>
        <time>2015-06-07T10:48:22Z</time>
      </trkpt>
      <trkpt lat="47.89171" lon="-1.77058">
        <ele>21</ele>
        <time>2015-06-07T10:48:23Z</time>
      </trkpt>
      <trkpt lat="47.89171" lon="-1.77058">
        <ele>21</ele>
        <time>2015-06-07T10:48:24Z</time>
      </trkpt>
      <trkpt lat="47.89171" lon="-1.77058">
        <ele>21</ele>
        <time>2015-06-07T10:48:25Z</time>
      </trkpt>
      <trkpt lat="47.89171" lon="-1.77058">
        <ele>21</ele>
        <time>2015-06-07T10:48:26Z</time>
      </trkpt>
      <trkpt lat="47.89171" lon="-1.77057">
        <ele>21</ele>
        <time>2015-06-07T10:48:27Z</time>
      </trkpt>
      <trkpt lat="47.89171" lon="-1.77056">
        <ele>22</ele>
        <time>2015-06-07T10:48:28Z</time>
      </trkpt>
      <trkpt lat="47.89171" lon="-1.77055">
        <ele>22</ele>
        <time>2015-06-07T10:48:29Z</time>
      </trkpt>
      <trkpt lat="47.89171" lon="-1.77054">
        <ele>22</ele>
        <time>2015-06-07T10:48:30Z</time>
      </trkpt>
      <trkpt lat="47.8917" lon="-1.77053">
        <ele>22</ele>
        <time>2015-06-07T10:48:31Z</time>
      </trkpt>
      <trkpt lat="47.8917" lon="-1.77051">
        <ele>22</ele>
        <time>2015-06-07T10:48:32Z</time>
      </trkpt>
      <trkpt lat="47.8917" lon="-1.77049">
        <ele>22</ele>
        <time>2015-06-07T10:48:33Z</time>
      </trkpt>
      <trkpt lat="47.8917" lon="-1.77048">
        <ele>23</ele>
        <time>2015-06-07T10:48:34Z</time>
      </trkpt>
      <trkpt lat="47.8917" lon="-1.77047">
        <ele>23</ele>
        <time>2015-06-07T10:48:35Z</time>
      </trkpt>
      <trkpt lat="47.8917" lon="-1.77047">
        <ele>23</ele>
        <time>2015-06-07T10:48:36Z</time>
      </trkpt>
      <trkpt lat="47.8917" lon="-1.77046">
        <ele>23</ele>
        <time>2015-06-07T10:48:37Z</time>
      </trkpt>
      <trkpt lat="47.8917" lon="-1.77046">
        <ele>23</ele>
        <time>2015-06-07T10:48:38Z</time>
      </trkpt>
      <trkpt lat="47.8917" lon="-1.77045">
        <ele>23</ele>
        <time>2015-06-07T10:48:39Z</time>
      </trkpt>
      <trkpt lat="47.8917" lon="-1.77045">
        <ele>23</ele>
        <time>2015-06-07T10:48:40Z</time>
      </trkpt>
      <trkpt lat="47.8917" lon="-1.77044">
        <ele>24</ele>
        <time>2015-06-07T10:48:41Z</time>
      </trkpt>
      <trkpt lat="47.8917" lon="-1.77043">
        <ele>24</ele>
        <time>2015-06-07T10:48:42Z</time>
      </trkpt>
      <trkpt lat="47.8917" lon="-1.77041">
        <ele>24</ele>
        <time>2015-06-07T10:48:43Z</time>
      </trkpt>
      <trkpt lat="47.8917" lon="-1.7704">
        <ele>24</ele>
        <time>2015-06-07T10:48:44Z</time>
      </trkpt>
      <trkpt lat="47.8917" lon="-1.77039">
        <ele>24</ele>
        <time>2015-06-07T10:48:45Z</time>
      </trkpt>
      <trkpt lat="47.8917" lon="-1.77038">
        <ele>25</ele>
        <time>2015-06-07T10:48:46Z</time>
      </trkpt>
      <trkpt lat="47.8917" lon="-1.77037">
        <ele>25</ele>
        <time>2015-06-07T10:48:47Z</time>
      </trkpt>
      <trkpt lat="47.89169" lon="-1.77036">
        <ele>25</ele>
        <time>2015-06-07T10:48:48Z</time>
      </trkpt>
      <trkpt lat="47.89169" lon="-1.77035">
        <ele>25</ele>
        <time>2015-06-07T10:48:49Z</time>
      </trkpt>
      <trkpt lat="47.89169" lon="-1.77033">
        <ele>25</ele>
        <time>2015-06-07T10:48:50Z</time>
      </trkpt>
      <trkpt lat="47.89169" lon="-1.77032">
        <ele>25</ele>
        <time>2015-06-07T10:48:51Z</time>
      </trkpt>
      <trkpt lat="47.89169" lon="-1.7703">
        <ele>26</ele>
        <time>2015-06-07T10:48:52Z</time>
      </trkpt>
      <trkpt lat="47.89169" lon="-1.7703">
        <ele>26</ele>
        <time>2015-06-07T10:48:53Z</time>
      </trkpt>
      <trkpt lat="47.89169" lon="-1.77029">
        <ele>26</ele>
        <time>2015-06-07T10:48:54Z</time>
      </trkpt>
      <trkpt lat="47.89169" lon="-1.77029">
        <ele>26</ele>
        <time>2015-06-07T10:48:55Z</time>
      </trkpt>
      <trkpt lat="47.89169" lon="-1.77028">
        <ele>26</ele>
        <time>2015-06-07T10:48:56Z</time>
      </trkpt>
      <trkpt lat="47.89168" lon="-1.77026">
        <ele>26</ele>
        <time>2015-06-07T10:48:57Z</time>
      </trkpt>
      <trkpt lat="47.89168" lon="-1.77025">
        <ele>26</ele>
        <time>2015-06-07T10:48:58Z</time>
      </trkpt>
      <trkpt lat="47.89168" lon="-1.77023">
        <ele>27</ele>
        <time>2015-06-07T10:48:59Z</time>
      </trkpt>
      <trkpt lat="47.89168" lon="-1.77021">
        <ele>27</ele>
        <time>2015-06-07T10:49:00Z</time>
      </trkpt>
      <trkpt lat="47.89167" lon="-1.7702">
        <ele>27</ele>
        <time>2015-06-07T10:49:01Z</time>
      </trkpt>
      <trkpt lat="47.89167" lon="-1.77017">
        <ele>28</ele>
        <time>2015-06-07T10:49:02Z</time>
      </trkpt>
      <trkpt lat="47.89166" lon="-1.77016">
        <ele>28</ele>
        <time>2015-06-07T10:49:03Z</time>
      </trkpt>
      <trkpt lat="47.89166" lon="-1.77015">
        <ele>28</ele>
        <time>2015-06-07T10:49:04Z</time>
      </trkpt>
      <trkpt lat="47.89165" lon="-1.77014">
        <ele>28</ele>
        <time>2015-06-07T10:49:05Z</time>
      </trkpt>
      <trkpt lat="47.89165" lon="-1.77013">
        <ele>29</ele>
        <time>2015-06-07T10:49:06Z</time>
      </trkpt>
      <trkpt lat="47.89165" lon="-1.77011">
        <ele>29</ele>
        <time>2015-06-07T10:49:07Z</time>
      </trkpt>
      <trkpt lat="47.89165" lon="-1.77011">
        <ele>29</ele>
        <time>2015-06-07T10:49:08Z</time>
      </trkpt>
      <trkpt lat="47.89165" lon="-1.77011">
        <ele>29</ele>
        <time>2015-06-07T10:49:09Z</time>
      </trkpt>
      <trkpt lat="47.89165" lon="-1.7701">
        <ele>29</ele>
        <time>2015-06-07T10:49:10Z</time>
      </trkpt>
      <trkpt lat="47.89165" lon="-1.7701">
        <ele>29</ele>
        <time>2015-06-07T10:49:11Z</time>
      </trkpt>
      <trkpt lat="47.89164" lon="-1.77009">
        <ele>29</ele>
        <time>2015-06-07T10:49:12Z</time>
      </trkpt>
      <trkpt lat="47.89164" lon="-1.77007">
        <ele>29</ele>
        <time>2015-06-07T10:49:13Z</time>
      </trkpt>
      <trkpt lat="47.89163" lon="-1.77005">
        <ele>29</ele>
        <time>2015-06-07T10:49:14Z</time>
      </trkpt>
      <trkpt lat="47.89162" lon="-1.77003">
        <ele>29</ele>
        <time>2015-06-07T10:49:15Z</time>
      </trkpt>
      <trkpt lat="47.89162" lon="-1.77">
        <ele>29</ele>
        <time>2015-06-07T10:49:16Z</time>
      </trkpt>
      <trkpt lat="47.89161" lon="-1.76997">
        <ele>29</ele>
        <time>2015-06-07T10:49:17Z</time>
      </trkpt>
      <trkpt lat="47.8916" lon="-1.76994">
        <ele>29</ele>
        <time>2015-06-07T10:49:18Z</time>
      </trkpt>
      <trkpt lat="47.89158" lon="-1.76992">
        <ele>29</ele>
        <time>2015-06-07T10:49:19Z</time>
      </trkpt>
      <trkpt lat="47.89157" lon="-1.76989">
        <ele>30</ele>
        <time>2015-06-07T10:49:20Z</time>
      </trkpt>
      <trkpt lat="47.89156" lon="-1.76986">
        <ele>30</ele>
        <time>2015-06-07T10:49:21Z</time>
      </trkpt>
      <trkpt lat="47.89155" lon="-1.76984">
        <ele>30</ele>
        <time>2015-06-07T10:49:22Z</time>
      </trkpt>
      <trkpt lat="47.89154" lon="-1.76982">
        <ele>30</ele>
        <time>2015-06-07T10:49:23Z</time>
      </trkpt>
      <trkpt lat="47.89153" lon="-1.76979">
        <ele>30</ele>
        <time>2015-06-07T10:49:24Z</time>
      </trkpt>
      <trkpt lat="47.89152" lon="-1.76977">
        <ele>30</ele>
        <time>2015-06-07T10:49:25Z</time>
      </trkpt>
      <trkpt lat="47.89151" lon="-1.76974">
        <ele>31</ele>
        <time>2015-06-07T10:49:26Z</time>
      </trkpt>
      <trkpt lat="47.8915" lon="-1.76972">
        <ele>31</ele>
        <time>2015-06-07T10:49:27Z</time>
      </trkpt>
      <trkpt lat="47.89149" lon="-1.76969">
        <ele>31</ele>
        <time>2015-06-07T10:49:28Z</time>
      </trkpt>
      <trkpt lat="47.89147" lon="-1.76965">
        <ele>31</ele>
        <time>2015-06-07T10:49:29Z</time>
      </trkpt>
      <trkpt lat="47.89145" lon="-1.76962">
        <ele>31</ele>
        <time>2015-06-07T10:49:30Z</time>
      </trkpt>
      <trkpt lat="47.89143" lon="-1.76958">
        <ele>31</ele>
        <time>2015-06-07T10:49:31Z</time>
      </trkpt>
      <trkpt lat="47.89142" lon="-1.76955">
        <ele>32</ele>
        <time>2015-06-07T10:49:32Z</time>
      </trkpt>
      <trkpt lat="47.89141" lon="-1.76952">
        <ele>32</ele>
        <time>2015-06-07T10:49:33Z</time>
      </trkpt>
      <trkpt lat="47.8914" lon="-1.76948">
        <ele>32</ele>
        <time>2015-06-07T10:49:34Z</time>
      </trkpt>
      <trkpt lat="47.89139" lon="-1.76945">
        <ele>32</ele>
        <time>2015-06-07T10:49:35Z</time>
      </trkpt>
      <trkpt lat="47.89138" lon="-1.76943">
        <ele>32</ele>
        <time>2015-06-07T10:49:36Z</time>
      </trkpt>
      <trkpt lat="47.89137" lon="-1.7694">
        <ele>32</ele>
        <time>2015-06-07T10:49:37Z</time>
      </trkpt>
      <trkpt lat="47.89137" lon="-1.76938">
        <ele>32</ele>
        <time>2015-06-07T10:49:38Z</time>
      </trkpt>
      <trkpt lat="47.89136" lon="-1.76935">
        <ele>32</ele>
        <time>2015-06-07T10:49:39Z</time>
      </trkpt>
      <trkpt lat="47.89135" lon="-1.76931">
        <ele>33</ele>
        <time>2015-06-07T10:49:40Z</time>
      </trkpt>
      <trkpt lat="47.89135" lon="-1.76928">
        <ele>33</ele>
        <time>2015-06-07T10:49:41Z</time>
      </trkpt>
      <trkpt lat="47.89134" lon="-1.76925">
        <ele>33</ele>
        <time>2015-06-07T10:49:42Z</time>
      </trkpt>
      <trkpt lat="47.89133" lon="-1.76921">
        <ele>33</ele>
        <time>2015-06-07T10:49:43Z</time>
      </trkpt>
      <trkpt lat="47.89133" lon="-1.76917">
        <ele>33</ele>
        <time>2015-06-07T10:49:44Z</time>
      </trkpt>
      <trkpt lat="47.89132" lon="-1.76913">
        <ele>33</ele>
        <time>2015-06-07T10:49:45Z</time>
      </trkpt>
      <trkpt lat="47.89132" lon="-1.76909">
        <ele>33</ele>
        <time>2015-06-07T10:49:46Z</time>
      </trkpt>
      <trkpt lat="47.89132" lon="-1.76906">
        <ele>33</ele>
        <time>2015-06-07T10:49:47Z</time>
      </trkpt>
      <trkpt lat="47.89131" lon="-1.76902">
        <ele>33</ele>
        <time>2015-06-07T10:49:48Z</time>
      </trkpt>
      <trkpt lat="47.8913" lon="-1.76898">
        <ele>33</ele>
        <time>2015-06-07T10:49:49Z</time>
      </trkpt>
      <trkpt lat="47.89128" lon="-1.76894">
        <ele>33</ele>
        <time>2015-06-07T10:49:50Z</time>
      </trkpt>
      <trkpt lat="47.89126" lon="-1.76889">
        <ele>33</ele>
        <time>2015-06-07T10:49:51Z</time>
      </trkpt>
      <trkpt lat="47.89124" lon="-1.76886">
        <ele>33</ele>
        <time>2015-06-07T10:49:52Z</time>
      </trkpt>
      <trkpt lat="47.89122" lon="-1.76882">
        <ele>33</ele>
        <time>2015-06-07T10:49:53Z</time>
      </trkpt>
      <trkpt lat="47.8912" lon="-1.76877">
        <ele>33</ele>
        <time>2015-06-07T10:49:54Z</time>
      </trkpt>
      <trkpt lat="47.89117" lon="-1.76873">
        <ele>33</ele>
        <time>2015-06-07T10:49:55Z</time>
      </trkpt>
      <trkpt lat="47.89115" lon="-1.76869">
        <ele>33</ele>
        <time>2015-06-07T10:49:56Z</time>
      </trkpt>
      <trkpt lat="47.89112" lon="-1.76865">
        <ele>33</ele>
        <time>2015-06-07T10:49:57Z</time>
      </trkpt>
      <trkpt lat="47.8911" lon="-1.76862">
        <ele>33</ele>
        <time>2015-06-07T10:49:58Z</time>
      </trkpt>
      <trkpt lat="47.89109" lon="-1.76858">
        <ele>33</ele>
        <time>2015-06-07T10:49:59Z</time>
      </trkpt>
      <trkpt lat="47.89107" lon="-1.76854">
        <ele>33</ele>
        <time>2015-06-07T10:50:00Z</time>
      </trkpt>
      <trkpt lat="47.89104" lon="-1.7685">
        <ele>33</ele>
        <time>2015-06-07T10:50:01Z</time>
      </trkpt>
      <trkpt lat="47.89103" lon="-1.76846">
        <ele>33</ele>
        <time>2015-06-07T10:50:02Z</time>
      </trkpt>
      <trkpt lat="47.89102" lon="-1.76842">
        <ele>33</ele>
        <time>2015-06-07T10:50:03Z</time>
      </trkpt>
      <trkpt lat="47.891" lon="-1.76838">
        <ele>33</ele>
        <time>2015-06-07T10:50:04Z</time>
      </trkpt>
      <trkpt lat="47.89099" lon="-1.76833">
        <ele>33</ele>
        <time>2015-06-07T10:50:05Z</time>
      </trkpt>
      <trkpt lat="47.89098" lon="-1.76829">
        <ele>33</ele>
        <time>2015-06-07T10:50:06Z</time>
      </trkpt>
      <trkpt lat="47.89096" lon="-1.76826">
        <ele>33</ele>
        <time>2015-06-07T10:50:07Z</time>
      </trkpt>
      <trkpt lat="47.89094" lon="-1.76821">
        <ele>33</ele>
        <time>2015-06-07T10:50:08Z</time>
      </trkpt>
      <trkpt lat="47.89092" lon="-1.76816">
        <ele>33</ele>
        <time>2015-06-07T10:50:09Z</time>
      </trkpt>
      <trkpt lat="47.89089" lon="-1.76811">
        <ele>33</ele>
        <time>2015-06-07T10:50:10Z</time>
      </trkpt>
      <trkpt lat="47.89086" lon="-1.76806">
        <ele>33</ele>
        <time>2015-06-07T10:50:11Z</time>
      </trkpt>
      <trkpt lat="47.89083" lon="-1.768">
        <ele>33</ele>
        <time>2015-06-07T10:50:12Z</time>
      </trkpt>
      <trkpt lat="47.89079" lon="-1.76794">
        <ele>33</ele>
        <time>2015-06-07T10:50:13Z</time>
      </trkpt>
      <trkpt lat="47.89077" lon="-1.76789">
        <ele>33</ele>
        <time>2015-06-07T10:50:14Z</time>
      </trkpt>
      <trkpt lat="47.89075" lon="-1.76785">
        <ele>33</ele>
        <time>2015-06-07T10:50:15Z</time>
      </trkpt>
      <trkpt lat="47.89074" lon="-1.7678">
        <ele>33</ele>
        <time>2015-06-07T10:50:16Z</time>
      </trkpt>
      <trkpt lat="47.89074" lon="-1.7678">
        <ele>33</ele>
        <time>2015-06-07T10:50:17Z</time>
      </trkpt>
      <trkpt lat="47.89074" lon="-1.76778">
        <ele>33</ele>
        <time>2015-06-07T10:50:18Z</time>
      </trkpt>
      <trkpt lat="47.89074" lon="-1.76776">
        <ele>32</ele>
        <time>2015-06-07T10:50:19Z</time>
      </trkpt>
      <trkpt lat="47.89074" lon="-1.76774">
        <ele>32</ele>
        <time>2015-06-07T10:50:20Z</time>
      </trkpt>
      <trkpt lat="47.89075" lon="-1.76771">
        <ele>32</ele>
        <time>2015-06-07T10:50:21Z</time>
      </trkpt>
      <trkpt lat="47.89074" lon="-1.76769">
        <ele>32</ele>
        <time>2015-06-07T10:50:22Z</time>
      </trkpt>
      <trkpt lat="47.89074" lon="-1.76767">
        <ele>32</ele>
        <time>2015-06-07T10:50:23Z</time>
      </trkpt>
      <trkpt lat="47.89073" lon="-1.76765">
        <ele>32</ele>
        <time>2015-06-07T10:50:24Z</time>
      </trkpt>
      <trkpt lat="47.89074" lon="-1.76764">
        <ele>32</ele>
        <time>2015-06-07T10:50:25Z</time>
      </trkpt>
      <trkpt lat="47.89075" lon="-1.76763">
        <ele>32</ele>
        <time>2015-06-07T10:50:26Z</time>
      </trkpt>
      <trkpt lat="47.89077" lon="-1.76764">
        <ele>32</ele>
        <time>2015-06-07T10:50:27Z</time>
      </trkpt>
      <trkpt lat="47.89077" lon="-1.76765">
        <ele>32</ele>
        <time>2015-06-07T10:50:28Z</time>
      </trkpt>
      <trkpt lat="47.89078" lon="-1.76767">
        <ele>32</ele>
        <time>2015-06-07T10:50:29Z</time>
      </trkpt>
      <trkpt lat="47.89079" lon="-1.7677">
        <ele>32</ele>
        <time>2015-06-07T10:50:30Z</time>
      </trkpt>
      <trkpt lat="47.8908" lon="-1.76771">
        <ele>32</ele>
        <time>2015-06-07T10:50:31Z</time>
      </trkpt>
      <trkpt lat="47.89081" lon="-1.76773">
        <ele>32</ele>
        <time>2015-06-07T10:50:32Z</time>
      </trkpt>
      <trkpt lat="47.89082" lon="-1.76777">
        <ele>32</ele>
        <time>2015-06-07T10:50:33Z</time>
      </trkpt>
      <trkpt lat="47.89083" lon="-1.7678">
        <ele>32</ele>
        <time>2015-06-07T10:50:34Z</time>
      </trkpt>
      <trkpt lat="47.89082" lon="-1.76784">
        <ele>32</ele>
        <time>2015-06-07T10:50:35Z</time>
      </trkpt>
      <trkpt lat="47.89083" lon="-1.76789">
        <ele>32</ele>
        <time>2015-06-07T10:50:36Z</time>
      </trkpt>
      <trkpt lat="47.89083" lon="-1.76795">
        <ele>32</ele>
        <time>2015-06-07T10:50:37Z</time>
      </trkpt>
      <trkpt lat="47.89085" lon="-1.76801">
        <ele>32</ele>
        <time>2015-06-07T10:50:38Z</time>
      </trkpt>
      <trkpt lat="47.89087" lon="-1.76806">
        <ele>32</ele>
        <time>2015-06-07T10:50:39Z</time>
      </trkpt>
      <trkpt lat="47.8909" lon="-1.76809">
        <ele>32</ele>
        <time>2015-06-07T10:50:40Z</time>
      </trkpt>
      <trkpt lat="47.89092" lon="-1.76812">
        <ele>32</ele>
        <time>2015-06-07T10:50:41Z</time>
      </trkpt>
      <trkpt lat="47.89095" lon="-1.76815">
        <ele>33</ele>
        <time>2015-06-07T10:50:42Z</time>
      </trkpt>
      <trkpt lat="47.89097" lon="-1.76817">
        <ele>33</ele>
        <time>2015-06-07T10:50:43Z</time>
      </trkpt>
      <trkpt lat="47.89099" lon="-1.7682">
        <ele>33</ele>
        <time>2015-06-07T10:50:44Z</time>
      </trkpt>
      <trkpt lat="47.891" lon="-1.76822">
        <ele>33</ele>
        <time>2015-06-07T10:50:45Z</time>
      </trkpt>
      <trkpt lat="47.89101" lon="-1.76825">
        <ele>33</ele>
        <time>2015-06-07T10:50:46Z</time>
      </trkpt>
      <trkpt lat="47.89104" lon="-1.76827">
        <ele>34</ele>
        <time>2015-06-07T10:50:47Z</time>
      </trkpt>
      <trkpt lat="47.89106" lon="-1.7683">
        <ele>34</ele>
        <time>2015-06-07T10:50:48Z</time>
      </trkpt>
      <trkpt lat="47.89107" lon="-1.76832">
        <ele>35</ele>
        <time>2015-06-07T10:50:49Z</time>
      </trkpt>
      <trkpt lat="47.89108" lon="-1.76833">
        <ele>35</ele>
        <time>2015-06-07T10:50:50Z</time>
      </trkpt>
      <trkpt lat="47.8911" lon="-1.76836">
        <ele>35</ele>
        <time>2015-06-07T10:50:51Z</time>
      </trkpt>
      <trkpt lat="47.89112" lon="-1.76838">
        <ele>36</ele>
        <time>2015-06-07T10:50:52Z</time>
      </trkpt>
      <trkpt lat="47.89116" lon="-1.76839">
        <ele>36</ele>
        <time>2015-06-07T10:50:53Z</time>
      </trkpt>
      <trkpt lat="47.89119" lon="-1.76839">
        <ele>36</ele>
        <time>2015-06-07T10:50:54Z</time>
      </trkpt>
      <trkpt lat="47.89122" lon="-1.76839">
        <ele>36</ele>
        <time>2015-06-07T10:50:55Z</time>
      </trkpt>
      <trkpt lat="47.89125" lon="-1.76839">
        <ele>36</ele>
        <time>2015-06-07T10:50:56Z</time>
      </trkpt>
      <trkpt lat="47.89127" lon="-1.7684">
        <ele>36</ele>
        <time>2015-06-07T10:50:57Z</time>
      </trkpt>
      <trkpt lat="47.8913" lon="-1.76843">
        <ele>37</ele>
        <time>2015-06-07T10:50:58Z</time>
      </trkpt>
      <trkpt lat="47.89132" lon="-1.76846">
        <ele>37</ele>
        <time>2015-06-07T10:50:59Z</time>
      </trkpt>
      <trkpt lat="47.89134" lon="-1.7685">
        <ele>37</ele>
        <time>2015-06-07T10:51:00Z</time>
      </trkpt>
      <trkpt lat="47.89136" lon="-1.76854">
        <ele>37</ele>
        <time>2015-06-07T10:51:01Z</time>
      </trkpt>
      <trkpt lat="47.89138" lon="-1.76858">
        <ele>37</ele>
        <time>2015-06-07T10:51:02Z</time>
      </trkpt>
      <trkpt lat="47.8914" lon="-1.76862">
        <ele>37</ele>
        <time>2015-06-07T10:51:03Z</time>
      </trkpt>
      <trkpt lat="47.89142" lon="-1.76866">
        <ele>37</ele>
        <time>2015-06-07T10:51:04Z</time>
      </trkpt>
      <trkpt lat="47.89144" lon="-1.76871">
        <ele>37</ele>
        <time>2015-06-07T10:51:05Z</time>
      </trkpt>
      <trkpt lat="47.89146" lon="-1.76875">
        <ele>37</ele>
        <time>2015-06-07T10:51:06Z</time>
      </trkpt>
      <trkpt lat="47.89149" lon="-1.76877">
        <ele>37</ele>
        <time>2015-06-07T10:51:07Z</time>
      </trkpt>
      <trkpt lat="47.89153" lon="-1.7688">
        <ele>37</ele>
        <time>2015-06-07T10:51:08Z</time>
      </trkpt>
      <trkpt lat="47.89156" lon="-1.76884">
        <ele>37</ele>
        <time>2015-06-07T10:51:09Z</time>
      </trkpt>
      <trkpt lat="47.8916" lon="-1.76886">
        <ele>37</ele>
        <time>2015-06-07T10:51:10Z</time>
      </trkpt>
      <trkpt lat="47.89164" lon="-1.76887">
        <ele>37</ele>
        <time>2015-06-07T10:51:11Z</time>
      </trkpt>
      <trkpt lat="47.89168" lon="-1.76887">
        <ele>37</ele>
        <time>2015-06-07T10:51:12Z</time>
      </trkpt>
      <trkpt lat="47.89171" lon="-1.76886">
        <ele>37</ele>
        <time>2015-06-07T10:51:13Z</time>
      </trkpt>
      <trkpt lat="47.89173" lon="-1.76885">
        <ele>37</ele>
        <time>2015-06-07T10:51:14Z</time>
      </trkpt>
      <trkpt lat="47.89175" lon="-1.76884">
        <ele>37</ele>
        <time>2015-06-07T10:51:15Z</time>
      </trkpt>
      <trkpt lat="47.89178" lon="-1.76882">
        <ele>37</ele>
        <time>2015-06-07T10:51:16Z</time>
      </trkpt>
      <trkpt lat="47.8918" lon="-1.7688">
        <ele>37</ele>
        <time>2015-06-07T10:51:17Z</time>
      </trkpt>
      <trkpt lat="47.89182" lon="-1.76879">
        <ele>37</ele>
        <time>2015-06-07T10:51:18Z</time>
      </trkpt>
      <trkpt lat="47.89185" lon="-1.76879">
        <ele>37</ele>
        <time>2015-06-07T10:51:19Z</time>
      </trkpt>
      <trkpt lat="47.89188" lon="-1.7688">
        <ele>37</ele>
        <time>2015-06-07T10:51:20Z</time>
      </trkpt>
      <trkpt lat="47.89191" lon="-1.76883">
        <ele>37</ele>
        <time>2015-06-07T10:51:21Z</time>
      </trkpt>
      <trkpt lat="47.89192" lon="-1.76886">
        <ele>37</ele>
        <time>2015-06-07T10:51:22Z</time>
      </trkpt>
      <trkpt lat="47.89192" lon="-1.76889">
        <ele>38</ele>
        <time>2015-06-07T10:51:23Z</time>
      </trkpt>
      <trkpt lat="47.89191" lon="-1.76892">
        <ele>38</ele>
        <time>2015-06-07T10:51:24Z</time>
      </trkpt>
      <trkpt lat="47.8919" lon="-1.76895">
        <ele>38</ele>
        <time>2015-06-07T10:51:25Z</time>
      </trkpt>
      <trkpt lat="47.89188" lon="-1.76899">
        <ele>37</ele>
        <time>2015-06-07T10:51:26Z</time>
      </trkpt>
      <trkpt lat="47.89186" lon="-1.76904">
        <ele>37</ele>
        <time>2015-06-07T10:51:27Z</time>
      </trkpt>
      <trkpt lat="47.89185" lon="-1.76909">
        <ele>37</ele>
        <time>2015-06-07T10:51:28Z</time>
      </trkpt>
      <trkpt lat="47.89183" lon="-1.76914">
        <ele>38</ele>
        <time>2015-06-07T10:51:29Z</time>
      </trkpt>
      <trkpt lat="47.89181" lon="-1.76918">
        <ele>38</ele>
        <time>2015-06-07T10:51:30Z</time>
      </trkpt>
      <trkpt lat="47.89179" lon="-1.76922">
        <ele>38</ele>
        <time>2015-06-07T10:51:31Z</time>
      </trkpt>
      <trkpt lat="47.89177" lon="-1.76926">
        <ele>38</ele>
        <time>2015-06-07T10:51:32Z</time>
      </trkpt>
      <trkpt lat="47.89176" lon="-1.76931">
        <ele>38</ele>
        <time>2015-06-07T10:51:33Z</time>
      </trkpt>
      <trkpt lat="47.89174" lon="-1.76936">
        <ele>38</ele>
        <time>2015-06-07T10:51:34Z</time>
      </trkpt>
      <trkpt lat="47.89172" lon="-1.76941">
        <ele>37</ele>
        <time>2015-06-07T10:51:35Z</time>
      </trkpt>
      <trkpt lat="47.8917" lon="-1.76946">
        <ele>37</ele>
        <time>2015-06-07T10:51:36Z</time>
      </trkpt>
      <trkpt lat="47.89167" lon="-1.7695">
        <ele>37</ele>
        <time>2015-06-07T10:51:37Z</time>
      </trkpt>
      <trkpt lat="47.89165" lon="-1.76956">
        <ele>37</ele>
        <time>2015-06-07T10:51:38Z</time>
      </trkpt>
      <trkpt lat="47.89165" lon="-1.76962">
        <ele>37</ele>
        <time>2015-06-07T10:51:39Z</time>
      </trkpt>
      <trkpt lat="47.89166" lon="-1.76969">
        <ele>37</ele>
        <time>2015-06-07T10:51:40Z</time>
      </trkpt>
      <trkpt lat="47.89166" lon="-1.76974">
        <ele>36</ele>
        <time>2015-06-07T10:51:41Z</time>
      </trkpt>
      <trkpt lat="47.89165" lon="-1.76979">
        <ele>36</ele>
        <time>2015-06-07T10:51:42Z</time>
      </trkpt>
      <trkpt lat="47.89164" lon="-1.76983">
        <ele>36</ele>
        <time>2015-06-07T10:51:43Z</time>
      </trkpt>
      <trkpt lat="47.89164" lon="-1.76986">
        <ele>35</ele>
        <time>2015-06-07T10:51:44Z</time>
      </trkpt>
      <trkpt lat="47.89164" lon="-1.76989">
        <ele>35</ele>
        <time>2015-06-07T10:51:45Z</time>
      </trkpt>
      <trkpt lat="47.89165" lon="-1.76993">
        <ele>35</ele>
        <time>2015-06-07T10:51:46Z</time>
      </trkpt>
      <trkpt lat="47.89166" lon="-1.76997">
        <ele>35</ele>
        <time>2015-06-07T10:51:47Z</time>
      </trkpt>
      <trkpt lat="47.89167" lon="-1.77002">
        <ele>35</ele>
        <time>2015-06-07T10:51:48Z</time>
      </trkpt>
      <trkpt lat="47.89169" lon="-1.77007">
        <ele>35</ele>
        <time>2015-06-07T10:51:49Z</time>
      </trkpt>
      <trkpt lat="47.89171" lon="-1.77012">
        <ele>35</ele>
        <time>2015-06-07T10:51:50Z</time>
      </trkpt>
      <trkpt lat="47.89174" lon="-1.77016">
        <ele>34</ele>
        <time>2015-06-07T10:51:51Z</time>
      </trkpt>
      <trkpt lat="47.89175" lon="-1.7702">
        <ele>34</ele>
        <time>2015-06-07T10:51:52Z</time>
      </trkpt>
      <trkpt lat="47.89176" lon="-1.77025">
        <ele>34</ele>
        <time>2015-06-07T10:51:53Z</time>
      </trkpt>
      <trkpt lat="47.89176" lon="-1.77029">
        <ele>34</ele>
        <time>2015-06-07T10:51:54Z</time>
      </trkpt>
      <trkpt lat="47.89178" lon="-1.77034">
        <ele>34</ele>
        <time>2015-06-07T10:51:55Z</time>
      </trkpt>
      <trkpt lat="47.89179" lon="-1.77038">
        <ele>34</ele>
        <time>2015-06-07T10:51:56Z</time>
      </trkpt>
      <trkpt lat="47.89181" lon="-1.77043">
        <ele>33</ele>
        <time>2015-06-07T10:51:57Z</time>
      </trkpt>
      <trkpt lat="47.89183" lon="-1.77047">
        <ele>33</ele>
        <time>2015-06-07T10:51:58Z</time>
      </trkpt>
      <trkpt lat="47.89185" lon="-1.77051">
        <ele>33</ele>
        <time>2015-06-07T10:51:59Z</time>
      </trkpt>
      <trkpt lat="47.89186" lon="-1.77054">
        <ele>33</ele>
        <time>2015-06-07T10:52:00Z</time>
      </trkpt>
      <trkpt lat="47.89188" lon="-1.77056">
        <ele>33</ele>
        <time>2015-06-07T10:52:01Z</time>
      </trkpt>
      <trkpt lat="47.8919" lon="-1.77057">
        <ele>33</ele>
        <time>2015-06-07T10:52:02Z</time>
      </trkpt>
      <trkpt lat="47.89192" lon="-1.7706">
        <ele>32</ele>
        <time>2015-06-07T10:52:03Z</time>
      </trkpt>
      <trkpt lat="47.89194" lon="-1.77063">
        <ele>32</ele>
        <time>2015-06-07T10:52:04Z</time>
      </trkpt>
      <trkpt lat="47.89195" lon="-1.77067">
        <ele>32</ele>
        <time>2015-06-07T10:52:05Z</time>
      </trkpt>
      <trkpt lat="47.89196" lon="-1.77072">
        <ele>32</ele>
        <time>2015-06-07T10:52:06Z</time>
      </trkpt>
      <trkpt lat="47.89196" lon="-1.77078">
        <ele>31</ele>
        <time>2015-06-07T10:52:07Z</time>
      </trkpt>
      <trkpt lat="47.89198" lon="-1.77083">
        <ele>31</ele>
        <time>2015-06-07T10:52:08Z</time>
      </trkpt>
      <trkpt lat="47.89201" lon="-1.77087">
        <ele>31</ele>
        <time>2015-06-07T10:52:09Z</time>
      </trkpt>
      <trkpt lat="47.89204" lon="-1.77092">
        <ele>31</ele>
        <time>2015-06-07T10:52:10Z</time>
      </trkpt>
      <trkpt lat="47.89207" lon="-1.77098">
        <ele>31</ele>
        <time>2015-06-07T10:52:11Z</time>
      </trkpt>
      <trkpt lat="47.89209" lon="-1.77103">
        <ele>30</ele>
        <time>2015-06-07T10:52:12Z</time>
      </trkpt>
      <trkpt lat="47.89212" lon="-1.77108">
        <ele>30</ele>
        <time>2015-06-07T10:52:13Z</time>
      </trkpt>
      <trkpt lat="47.89215" lon="-1.77112">
        <ele>30</ele>
        <time>2015-06-07T10:52:14Z</time>
      </trkpt>
      <trkpt lat="47.89218" lon="-1.77115">
        <ele>30</ele>
        <time>2015-06-07T10:52:15Z</time>
      </trkpt>
      <trkpt lat="47.89223" lon="-1.77119">
        <ele>30</ele>
        <time>2015-06-07T10:52:16Z</time>
      </trkpt>
      <trkpt lat="47.89227" lon="-1.77122">
        <ele>29</ele>
        <time>2015-06-07T10:52:17Z</time>
      </trkpt>
      <trkpt lat="47.8923" lon="-1.77126">
        <ele>29</ele>
        <time>2015-06-07T10:52:18Z</time>
      </trkpt>
      <trkpt lat="47.89234" lon="-1.7713">
        <ele>29</ele>
        <time>2015-06-07T10:52:19Z</time>
      </trkpt>
      <trkpt lat="47.89238" lon="-1.77133">
        <ele>29</ele>
        <time>2015-06-07T10:52:20Z</time>
      </trkpt>
      <trkpt lat="47.89242" lon="-1.77136">
        <ele>29</ele>
        <time>2015-06-07T10:52:21Z</time>
      </trkpt>
      <trkpt lat="47.89246" lon="-1.7714">
        <ele>29</ele>
        <time>2015-06-07T10:52:22Z</time>
      </trkpt>
      <trkpt lat="47.8925" lon="-1.77144">
        <ele>29</ele>
        <time>2015-06-07T10:52:23Z</time>
      </trkpt>
      <trkpt lat="47.89254" lon="-1.77146">
        <ele>29</ele>
        <time>2015-06-07T10:52:24Z</time>
      </trkpt>
      <trkpt lat="47.89258" lon="-1.77146">
        <ele>29</ele>
        <time>2015-06-07T10:52:25Z</time>
      </trkpt>
      <trkpt lat="47.89262" lon="-1.77145">
        <ele>29</ele>
        <time>2015-06-07T10:52:26Z</time>
      </trkpt>
      <trkpt lat="47.89265" lon="-1.77144">
        <ele>29</ele>
        <time>2015-06-07T10:52:27Z</time>
      </trkpt>
      <trkpt lat="47.89267" lon="-1.77142">
        <ele>29</ele>
        <time>2015-06-07T10:52:28Z</time>
      </trkpt>
      <trkpt lat="47.89269" lon="-1.7714">
        <ele>29</ele>
        <time>2015-06-07T10:52:29Z</time>
      </trkpt>
      <trkpt lat="47.8927" lon="-1.77136">
        <ele>29</ele>
        <time>2015-06-07T10:52:30Z</time>
      </trkpt>
      <trkpt lat="47.89271" lon="-1.77132">
        <ele>29</ele>
        <time>2015-06-07T10:52:31Z</time>
      </trkpt>
      <trkpt lat="47.89274" lon="-1.7713">
        <ele>29</ele>
        <time>2015-06-07T10:52:32Z</time>
      </trkpt>
      <trkpt lat="47.89276" lon="-1.77128">
        <ele>29</ele>
        <time>2015-06-07T10:52:33Z</time>
      </trkpt>
      <trkpt lat="47.89279" lon="-1.77127">
        <ele>29</ele>
        <time>2015-06-07T10:52:34Z</time>
      </trkpt>
      <trkpt lat="47.89281" lon="-1.77125">
        <ele>29</ele>
        <time>2015-06-07T10:52:35Z</time>
      </trkpt>
      <trkpt lat="47.89283" lon="-1.77121">
        <ele>29</ele>
        <time>2015-06-07T10:52:36Z</time>
      </trkpt>
      <trkpt lat="47.89285" lon="-1.77118">
        <ele>28</ele>
        <time>2015-06-07T10:52:37Z</time>
      </trkpt>
      <trkpt lat="47.89286" lon="-1.77114">
        <ele>28</ele>
        <time>2015-06-07T10:52:38Z</time>
      </trkpt>
      <trkpt lat="47.89286" lon="-1.77111">
        <ele>28</ele>
        <time>2015-06-07T10:52:39Z</time>
      </trkpt>
      <trkpt lat="47.89287" lon="-1.77108">
        <ele>28</ele>
        <time>2015-06-07T10:52:40Z</time>
      </trkpt>
      <trkpt lat="47.89287" lon="-1.77104">
        <ele>28</ele>
        <time>2015-06-07T10:52:41Z</time>
      </trkpt>
      <trkpt lat="47.89287" lon="-1.771">
        <ele>27</ele>
        <time>2015-06-07T10:52:42Z</time>
      </trkpt>
      <trkpt lat="47.89288" lon="-1.77095">
        <ele>27</ele>
        <time>2015-06-07T10:52:43Z</time>
      </trkpt>
      <trkpt lat="47.89289" lon="-1.7709">
        <ele>27</ele>
        <time>2015-06-07T10:52:44Z</time>
      </trkpt>
      <trkpt lat="47.8929" lon="-1.77085">
        <ele>27</ele>
        <time>2015-06-07T10:52:45Z</time>
      </trkpt>
      <trkpt lat="47.89291" lon="-1.7708">
        <ele>27</ele>
        <time>2015-06-07T10:52:46Z</time>
      </trkpt>
      <trkpt lat="47.89291" lon="-1.77075">
        <ele>27</ele>
        <time>2015-06-07T10:52:47Z</time>
      </trkpt>
      <trkpt lat="47.89292" lon="-1.7707">
        <ele>27</ele>
        <time>2015-06-07T10:52:48Z</time>
      </trkpt>
      <trkpt lat="47.89293" lon="-1.77064">
        <ele>27</ele>
        <time>2015-06-07T10:52:49Z</time>
      </trkpt>
      <trkpt lat="47.89294" lon="-1.77059">
        <ele>27</ele>
        <time>2015-06-07T10:52:50Z</time>
      </trkpt>
      <trkpt lat="47.89295" lon="-1.77056">
        <ele>27</ele>
        <time>2015-06-07T10:52:51Z</time>
      </trkpt>
      <trkpt lat="47.89297" lon="-1.77052">
        <ele>27</ele>
        <time>2015-06-07T10:52:52Z</time>
      </trkpt>
      <trkpt lat="47.893" lon="-1.77047">
        <ele>27</ele>
        <time>2015-06-07T10:52:53Z</time>
      </trkpt>
      <trkpt lat="47.89304" lon="-1.77042">
        <ele>27</ele>
        <time>2015-06-07T10:52:54Z</time>
      </trkpt>
      <trkpt lat="47.89307" lon="-1.77037">
        <ele>27</ele>
        <time>2015-06-07T10:52:55Z</time>
      </trkpt>
      <trkpt lat="47.8931" lon="-1.77033">
        <ele>27</ele>
        <time>2015-06-07T10:52:56Z</time>
      </trkpt>
      <trkpt lat="47.89311" lon="-1.7703">
        <ele>27</ele>
        <time>2015-06-07T10:52:57Z</time>
      </trkpt>
      <trkpt lat="47.89312" lon="-1.77026">
        <ele>27</ele>
        <time>2015-06-07T10:52:58Z</time>
      </trkpt>
      <trkpt lat="47.89313" lon="-1.77024">
        <ele>27</ele>
        <time>2015-06-07T10:52:59Z</time>
      </trkpt>
      <trkpt lat="47.89314" lon="-1.77021">
        <ele>27</ele>
        <time>2015-06-07T10:53:00Z</time>
      </trkpt>
      <trkpt lat="47.89314" lon="-1.77018">
        <ele>27</ele>
        <time>2015-06-07T10:53:01Z</time>
      </trkpt>
      <trkpt lat="47.89314" lon="-1.77014">
        <ele>27</ele>
        <time>2015-06-07T10:53:02Z</time>
      </trkpt>
      <trkpt lat="47.89315" lon="-1.77012">
        <ele>27</ele>
        <time>2015-06-07T10:53:03Z</time>
      </trkpt>
      <trkpt lat="47.89316" lon="-1.77009">
        <ele>27</ele>
        <time>2015-06-07T10:53:04Z</time>
      </trkpt>
      <trkpt lat="47.89316" lon="-1.77005">
        <ele>27</ele>
        <time>2015-06-07T10:53:05Z</time>
      </trkpt>
      <trkpt lat="47.89317" lon="-1.77002">
        <ele>27</ele>
        <time>2015-06-07T10:53:06Z</time>
      </trkpt>
      <trkpt lat="47.89317" lon="-1.76999">
        <ele>27</ele>
        <time>2015-06-07T10:53:07Z</time>
      </trkpt>
      <trkpt lat="47.89317" lon="-1.76995">
        <ele>27</ele>
        <time>2015-06-07T10:53:08Z</time>
      </trkpt>
      <trkpt lat="47.89318" lon="-1.76991">
        <ele>27</ele>
        <time>2015-06-07T10:53:09Z</time>
      </trkpt>
      <trkpt lat="47.89318" lon="-1.76987">
        <ele>27</ele>
        <time>2015-06-07T10:53:10Z</time>
      </trkpt>
      <trkpt lat="47.89318" lon="-1.76983">
        <ele>26</ele>
        <time>2015-06-07T10:53:11Z</time>
      </trkpt>
      <trkpt lat="47.89318" lon="-1.76978">
        <ele>26</ele>
        <time>2015-06-07T10:53:12Z</time>
      </trkpt>
      <trkpt lat="47.89318" lon="-1.76974">
        <ele>26</ele>
        <time>2015-06-07T10:53:13Z</time>
      </trkpt>
      <trkpt lat="47.89318" lon="-1.7697">
        <ele>27</ele>
        <time>2015-06-07T10:53:14Z</time>
      </trkpt>
      <trkpt lat="47.89318" lon="-1.76967">
        <ele>27</ele>
        <time>2015-06-07T10:53:15Z</time>
      </trkpt>
      <trkpt lat="47.89318" lon="-1.76964">
        <ele>27</ele>
        <time>2015-06-07T10:53:16Z</time>
      </trkpt>
      <trkpt lat="47.89318" lon="-1.7696">
        <ele>27</ele>
        <time>2015-06-07T10:53:17Z</time>
      </trkpt>
      <trkpt lat="47.89317" lon="-1.76957">
        <ele>27</ele>
        <time>2015-06-07T10:53:18Z</time>
      </trkpt>
      <trkpt lat="47.89317" lon="-1.76953">
        <ele>28</ele>
        <time>2015-06-07T10:53:19Z</time>
      </trkpt>
      <trkpt lat="47.89316" lon="-1.76949">
        <ele>28</ele>
        <time>2015-06-07T10:53:20Z</time>
      </trkpt>
      <trkpt lat="47.89314" lon="-1.76945">
        <ele>28</ele>
        <time>2015-06-07T10:53:21Z</time>
      </trkpt>
      <trkpt lat="47.89313" lon="-1.76941">
        <ele>28</ele>
        <time>2015-06-07T10:53:22Z</time>
      </trkpt>
      <trkpt lat="47.89312" lon="-1.76936">
        <ele>28</ele>
        <time>2015-06-07T10:53:23Z</time>
      </trkpt>
      <trkpt lat="47.89311" lon="-1.76932">
        <ele>28</ele>
        <time>2015-06-07T10:53:24Z</time>
      </trkpt>
      <trkpt lat="47.8931" lon="-1.76927">
        <ele>29</ele>
        <time>2015-06-07T10:53:25Z</time>
      </trkpt>
      <trkpt lat="47.8931" lon="-1.76922">
        <ele>29</ele>
        <time>2015-06-07T10:53:26Z</time>
      </trkpt>
      <trkpt lat="47.8931" lon="-1.76917">
        <ele>29</ele>
        <time>2015-06-07T10:53:27Z</time>
      </trkpt>
      <trkpt lat="47.8931" lon="-1.76913">
        <ele>29</ele>
        <time>2015-06-07T10:53:28Z</time>
      </trkpt>
      <trkpt lat="47.8931" lon="-1.76909">
        <ele>29</ele>
        <time>2015-06-07T10:53:29Z</time>
      </trkpt>
      <trkpt lat="47.8931" lon="-1.76905">
        <ele>30</ele>
        <time>2015-06-07T10:53:30Z</time>
      </trkpt>
      <trkpt lat="47.8931" lon="-1.76901">
        <ele>30</ele>
        <time>2015-06-07T10:53:31Z</time>
      </trkpt>
      <trkpt lat="47.89311" lon="-1.76897">
        <ele>30</ele>
        <time>2015-06-07T10:53:32Z</time>
      </trkpt>
      <trkpt lat="47.89312" lon="-1.76894">
        <ele>30</ele>
        <time>2015-06-07T10:53:33Z</time>
      </trkpt>
      <trkpt lat="47.89313" lon="-1.7689">
        <ele>30</ele>
        <time>2015-06-07T10:53:34Z</time>
      </trkpt>
      <trkpt lat="47.89315" lon="-1.76886">
        <ele>30</ele>
        <time>2015-06-07T10:53:35Z</time>
      </trkpt>
      <trkpt lat="47.89317" lon="-1.76882">
        <ele>30</ele>
        <time>2015-06-07T10:53:36Z</time>
      </trkpt>
      <trkpt lat="47.89317" lon="-1.76878">
        <ele>30</ele>
        <time>2015-06-07T10:53:37Z</time>
      </trkpt>
      <trkpt lat="47.89318" lon="-1.76873">
        <ele>30</ele>
        <time>2015-06-07T10:53:38Z</time>
      </trkpt>
      <trkpt lat="47.89319" lon="-1.76868">
        <ele>30</ele>
        <time>2015-06-07T10:53:39Z</time>
      </trkpt>
      <trkpt lat="47.89319" lon="-1.76864">
        <ele>30</ele>
        <time>2015-06-07T10:53:40Z</time>
      </trkpt>
      <trkpt lat="47.8932" lon="-1.7686">
        <ele>30</ele>
        <time>2015-06-07T10:53:41Z</time>
      </trkpt>
      <trkpt lat="47.8932" lon="-1.76856">
        <ele>30</ele>
        <time>2015-06-07T10:53:42Z</time>
      </trkpt>
      <trkpt lat="47.8932" lon="-1.76852">
        <ele>30</ele>
        <time>2015-06-07T10:53:43Z</time>
      </trkpt>
      <trkpt lat="47.8932" lon="-1.76848">
        <ele>31</ele>
        <time>2015-06-07T10:53:44Z</time>
      </trkpt>
      <trkpt lat="47.89319" lon="-1.76845">
        <ele>31</ele>
        <time>2015-06-07T10:53:45Z</time>
      </trkpt>
      <trkpt lat="47.8932" lon="-1.76842">
        <ele>31</ele>
        <time>2015-06-07T10:53:46Z</time>
      </trkpt>
      <trkpt lat="47.89321" lon="-1.76839">
        <ele>31</ele>
        <time>2015-06-07T10:53:47Z</time>
      </trkpt>
      <trkpt lat="47.8932" lon="-1.76836">
        <ele>32</ele>
        <time>2015-06-07T10:53:48Z</time>
      </trkpt>
      <trkpt lat="47.8932" lon="-1.76833">
        <ele>32</ele>
        <time>2015-06-07T10:53:49Z</time>
      </trkpt>
      <trkpt lat="47.89319" lon="-1.76832">
        <ele>32</ele>
        <time>2015-06-07T10:53:50Z</time>
      </trkpt>
      <trkpt lat="47.89318" lon="-1.7683">
        <ele>33</ele>
        <time>2015-06-07T10:53:51Z</time>
      </trkpt>
      <trkpt lat="47.89316" lon="-1.76829">
        <ele>33</ele>
        <time>2015-06-07T10:53:52Z</time>
      </trkpt>
      <trkpt lat="47.89315" lon="-1.76827">
        <ele>33</ele>
        <time>2015-06-07T10:53:53Z</time>
      </trkpt>
      <trkpt lat="47.89314" lon="-1.76825">
        <ele>34</ele>
        <time>2015-06-07T10:53:54Z</time>
      </trkpt>
      <trkpt lat="47.89314" lon="-1.76823">
        <ele>34</ele>
        <time>2015-06-07T10:53:55Z</time>
      </trkpt>
      <trkpt lat="47.89313" lon="-1.76819">
        <ele>35</ele>
        <time>2015-06-07T10:53:56Z</time>
      </trkpt>
      <trkpt lat="47.89312" lon="-1.76817">
        <ele>35</ele>
        <time>2015-06-07T10:53:57Z</time>
      </trkpt>
      <trkpt lat="47.8931" lon="-1.76815">
        <ele>35</ele>
        <time>2015-06-07T10:53:58Z</time>
      </trkpt>
      <trkpt lat="47.8931" lon="-1.76813">
        <ele>36</ele>
        <time>2015-06-07T10:53:59Z</time>
      </trkpt>
      <trkpt lat="47.89308" lon="-1.76811">
        <ele>36</ele>
        <time>2015-06-07T10:54:00Z</time>
      </trkpt>
      <trkpt lat="47.89306" lon="-1.76809">
        <ele>36</ele>
        <time>2015-06-07T10:54:01Z</time>
      </trkpt>
      <trkpt lat="47.89304" lon="-1.76807">
        <ele>36</ele>
        <time>2015-06-07T10:54:02Z</time>
      </trkpt>
      <trkpt lat="47.89302" lon="-1.76804">
        <ele>36</ele>
        <time>2015-06-07T10:54:03Z</time>
      </trkpt>
      <trkpt lat="47.893" lon="-1.76802">
        <ele>37</ele>
        <time>2015-06-07T10:54:04Z</time>
      </trkpt>
      <trkpt lat="47.89298" lon="-1.76799">
        <ele>37</ele>
        <time>2015-06-07T10:54:05Z</time>
      </trkpt>
      <trkpt lat="47.89297" lon="-1.76797">
        <ele>37</ele>
        <time>2015-06-07T10:54:06Z</time>
      </trkpt>
      <trkpt lat="47.89295" lon="-1.76794">
        <ele>37</ele>
        <time>2015-06-07T10:54:07Z</time>
      </trkpt>
      <trkpt lat="47.89293" lon="-1.76792">
        <ele>38</ele>
        <time>2015-06-07T10:54:08Z</time>
      </trkpt>
      <trkpt lat="47.8929" lon="-1.76791">
        <ele>38</ele>
        <time>2015-06-07T10:54:09Z</time>
      </trkpt>
      <trkpt lat="47.89288" lon="-1.76789">
        <ele>38</ele>
        <time>2015-06-07T10:54:10Z</time>
      </trkpt>
      <trkpt lat="47.89286" lon="-1.76787">
        <ele>38</ele>
        <time>2015-06-07T10:54:11Z</time>
      </trkpt>
      <trkpt lat="47.89284" lon="-1.76786">
        <ele>38</ele>
        <time>2015-06-07T10:54:12Z</time>
      </trkpt>
      <trkpt lat="47.89282" lon="-1.76784">
        <ele>38</ele>
        <time>2015-06-07T10:54:13Z</time>
      </trkpt>
      <trkpt lat="47.8928" lon="-1.76783">
        <ele>39</ele>
        <time>2015-06-07T10:54:14Z</time>
      </trkpt>
      <trkpt lat="47.89278" lon="-1.76783">
        <ele>39</ele>
        <time>2015-06-07T10:54:15Z</time>
      </trkpt>
      <trkpt lat="47.89277" lon="-1.76782">
        <ele>39</ele>
        <time>2015-06-07T10:54:16Z</time>
      </trkpt>
      <trkpt lat="47.89276" lon="-1.76782">
        <ele>39</ele>
        <time>2015-06-07T10:54:17Z</time>
      </trkpt>
      <trkpt lat="47.89274" lon="-1.76781">
        <ele>39</ele>
        <time>2015-06-07T10:54:18Z</time>
      </trkpt>
      <trkpt lat="47.89272" lon="-1.7678">
        <ele>39</ele>
        <time>2015-06-07T10:54:19Z</time>
      </trkpt>
      <trkpt lat="47.8927" lon="-1.76779">
        <ele>39</ele>
        <time>2015-06-07T10:54:20Z</time>
      </trkpt>
      <trkpt lat="47.89268" lon="-1.76778">
        <ele>39</ele>
        <time>2015-06-07T10:54:21Z</time>
      </trkpt>
      <trkpt lat="47.89266" lon="-1.76776">
        <ele>39</ele>
        <time>2015-06-07T10:54:22Z</time>
      </trkpt>
      <trkpt lat="47.89264" lon="-1.76775">
        <ele>40</ele>
        <time>2015-06-07T10:54:23Z</time>
      </trkpt>
      <trkpt lat="47.89262" lon="-1.76774">
        <ele>40</ele>
        <time>2015-06-07T10:54:24Z</time>
      </trkpt>
      <trkpt lat="47.8926" lon="-1.76773">
        <ele>40</ele>
        <time>2015-06-07T10:54:25Z</time>
      </trkpt>
      <trkpt lat="47.89258" lon="-1.76773">
        <ele>40</ele>
        <time>2015-06-07T10:54:26Z</time>
      </trkpt>
      <trkpt lat="47.89256" lon="-1.76773">
        <ele>40</ele>
        <time>2015-06-07T10:54:27Z</time>
      </trkpt>
      <trkpt lat="47.89254" lon="-1.76771">
        <ele>40</ele>
        <time>2015-06-07T10:54:28Z</time>
      </trkpt>
      <trkpt lat="47.89253" lon="-1.76769">
        <ele>40</ele>
        <time>2015-06-07T10:54:29Z</time>
      </trkpt>
      <trkpt lat="47.89251" lon="-1.76767">
        <ele>41</ele>
        <time>2015-06-07T10:54:30Z</time>
      </trkpt>
      <trkpt lat="47.89248" lon="-1.76766">
        <ele>41</ele>
        <time>2015-06-07T10:54:31Z</time>
      </trkpt>
      <trkpt lat="47.89247" lon="-1.76764">
        <ele>41</ele>
        <time>2015-06-07T10:54:32Z</time>
      </trkpt>
      <trkpt lat="47.89245" lon="-1.76763">
        <ele>41</ele>
        <time>2015-06-07T10:54:33Z</time>
      </trkpt>
      <trkpt lat="47.89242" lon="-1.76761">
        <ele>42</ele>
        <time>2015-06-07T10:54:34Z</time>
      </trkpt>
      <trkpt lat="47.8924" lon="-1.7676">
        <ele>42</ele>
        <time>2015-06-07T10:54:35Z</time>
      </trkpt>
      <trkpt lat="47.89237" lon="-1.76758">
        <ele>42</ele>
        <time>2015-06-07T10:54:36Z</time>
      </trkpt>
      <trkpt lat="47.89235" lon="-1.76756">
        <ele>42</ele>
        <time>2015-06-07T10:54:37Z</time>
      </trkpt>
      <trkpt lat="47.89233" lon="-1.76754">
        <ele>43</ele>
        <time>2015-06-07T10:54:38Z</time>
      </trkpt>
      <trkpt lat="47.8923" lon="-1.76752">
        <ele>43</ele>
        <time>2015-06-07T10:54:39Z</time>
      </trkpt>
      <trkpt lat="47.89228" lon="-1.7675">
        <ele>43</ele>
        <time>2015-06-07T10:54:40Z</time>
      </trkpt>
      <trkpt lat="47.89225" lon="-1.76748">
        <ele>43</ele>
        <time>2015-06-07T10:54:41Z</time>
      </trkpt>
      <trkpt lat="47.89223" lon="-1.76746">
        <ele>43</ele>
        <time>2015-06-07T10:54:42Z</time>
      </trkpt>
      <trkpt lat="47.89221" lon="-1.76744">
        <ele>44</ele>
        <time>2015-06-07T10:54:43Z</time>
      </trkpt>
      <trkpt lat="47.89218" lon="-1.76745">
        <ele>44</ele>
        <time>2015-06-07T10:54:44Z</time>
      </trkpt>
      <trkpt lat="47.89216" lon="-1.76747">
        <ele>44</ele>
        <time>2015-06-07T10:54:45Z</time>
      </trkpt>
      <trkpt lat="47.89214" lon="-1.76748">
        <ele>44</ele>
        <time>2015-06-07T10:54:46Z</time>
      </trkpt>
      <trkpt lat="47.89212" lon="-1.76748">
        <ele>44</ele>
        <time>2015-06-07T10:54:47Z</time>
      </trkpt>
      <trkpt lat="47.8921" lon="-1.76747">
        <ele>44</ele>
        <time>2015-06-07T10:54:48Z</time>
      </trkpt>
      <trkpt lat="47.89209" lon="-1.76745">
        <ele>45</ele>
        <time>2015-06-07T10:54:49Z</time>
      </trkpt>
      <trkpt lat="47.89207" lon="-1.76745">
        <ele>45</ele>
        <time>2015-06-07T10:54:50Z</time>
      </trkpt>
      <trkpt lat="47.89205" lon="-1.76746">
        <ele>45</ele>
        <time>2015-06-07T10:54:51Z</time>
      </trkpt>
      <trkpt lat="47.89204" lon="-1.76748">
        <ele>46</ele>
        <time>2015-06-07T10:54:52Z</time>
      </trkpt>
      <trkpt lat="47.89202" lon="-1.76748">
        <ele>46</ele>
        <time>2015-06-07T10:54:53Z</time>
      </trkpt>
      <trkpt lat="47.89199" lon="-1.76748">
        <ele>46</ele>
        <time>2015-06-07T10:54:54Z</time>
      </trkpt>
      <trkpt lat="47.89198" lon="-1.76747">
        <ele>46</ele>
        <time>2015-06-07T10:54:55Z</time>
      </trkpt>
      <trkpt lat="47.89196" lon="-1.76746">
        <ele>46</ele>
        <time>2015-06-07T10:54:56Z</time>
      </trkpt>
      <trkpt lat="47.89194" lon="-1.76744">
        <ele>47</ele>
        <time>2015-06-07T10:54:57Z</time>
      </trkpt>
      <trkpt lat="47.89192" lon="-1.76743">
        <ele>47</ele>
        <time>2015-06-07T10:54:58Z</time>
      </trkpt>
      <trkpt lat="47.8919" lon="-1.76744">
        <ele>47</ele>
        <time>2015-06-07T10:54:59Z</time>
      </trkpt>
      <trkpt lat="47.89188" lon="-1.76746">
        <ele>47</ele>
        <time>2015-06-07T10:55:00Z</time>
      </trkpt>
      <trkpt lat="47.89185" lon="-1.76749">
        <ele>47</ele>
        <time>2015-06-07T10:55:01Z</time>
      </trkpt>
      <trkpt lat="47.89183" lon="-1.7675">
        <ele>47</ele>
        <time>2015-06-07T10:55:02Z</time>
      </trkpt>
      <trkpt lat="47.8918" lon="-1.7675">
        <ele>47</ele>
        <time>2015-06-07T10:55:03Z</time>
      </trkpt>
      <trkpt lat="47.89178" lon="-1.76748">
        <ele>47</ele>
        <time>2015-06-07T10:55:04Z</time>
      </trkpt>
      <trkpt lat="47.89176" lon="-1.76747">
        <ele>47</ele>
        <time>2015-06-07T10:55:05Z</time>
      </trkpt>
      <trkpt lat="47.89176" lon="-1.76746">
        <ele>47</ele>
        <time>2015-06-07T10:55:06Z</time>
      </trkpt>
      <trkpt lat="47.89175" lon="-1.76745">
        <ele>47</ele>
        <time>2015-06-07T10:55:07Z</time>
      </trkpt>
      <trkpt lat="47.89173" lon="-1.76744">
        <ele>47</ele>
        <time>2015-06-07T10:55:08Z</time>
      </trkpt>
      <trkpt lat="47.89172" lon="-1.76743">
        <ele>46</ele>
        <time>2015-06-07T10:55:09Z</time>
      </trkpt>
      <trkpt lat="47.8917" lon="-1.76741">
        <ele>46</ele>
        <time>2015-06-07T10:55:10Z</time>
      </trkpt>
      <trkpt lat="47.8917" lon="-1.76739">
        <ele>46</ele>
        <time>2015-06-07T10:55:11Z</time>
      </trkpt>
      <trkpt lat="47.89169" lon="-1.76738">
        <ele>46</ele>
        <time>2015-06-07T10:55:12Z</time>
      </trkpt>
      <trkpt lat="47.89166" lon="-1.76737">
        <ele>46</ele>
        <time>2015-06-07T10:55:13Z</time>
      </trkpt>
      <trkpt lat="47.89163" lon="-1.76736">
        <ele>46</ele>
        <time>2015-06-07T10:55:14Z</time>
      </trkpt>
      <trkpt lat="47.8916" lon="-1.76736">
        <ele>46</ele>
        <time>2015-06-07T10:55:15Z</time>
      </trkpt>
      <trkpt lat="47.89157" lon="-1.76736">
        <ele>45</ele>
        <time>2015-06-07T10:55:16Z</time>
      </trkpt>
      <trkpt lat="47.89155" lon="-1.76735">
        <ele>45</ele>
        <time>2015-06-07T10:55:17Z</time>
      </trkpt>
      <trkpt lat="47.89152" lon="-1.76733">
        <ele>45</ele>
        <time>2015-06-07T10:55:18Z</time>
      </trkpt>
      <trkpt lat="47.89151" lon="-1.76731">
        <ele>45</ele>
        <time>2015-06-07T10:55:19Z</time>
      </trkpt>
      <trkpt lat="47.89149" lon="-1.7673">
        <ele>45</ele>
        <time>2015-06-07T10:55:20Z</time>
      </trkpt>
      <trkpt lat="47.89147" lon="-1.76727">
        <ele>45</ele>
        <time>2015-06-07T10:55:21Z</time>
      </trkpt>
      <trkpt lat="47.89147" lon="-1.76724">
        <ele>45</ele>
        <time>2015-06-07T10:55:22Z</time>
      </trkpt>
      <trkpt lat="47.89146" lon="-1.76722">
        <ele>45</ele>
        <time>2015-06-07T10:55:23Z</time>
      </trkpt>
      <trkpt lat="47.89145" lon="-1.7672">
        <ele>45</ele>
        <time>2015-06-07T10:55:24Z</time>
      </trkpt>
      <trkpt lat="47.89144" lon="-1.7672">
        <ele>45</ele>
        <time>2015-06-07T10:55:25Z</time>
      </trkpt>
      <trkpt lat="47.89142" lon="-1.76719">
        <ele>45</ele>
        <time>2015-06-07T10:55:26Z</time>
      </trkpt>
      <trkpt lat="47.89142" lon="-1.76719">
        <ele>45</ele>
        <time>2015-06-07T10:55:27Z</time>
      </trkpt>
      <trkpt lat="47.89142" lon="-1.76718">
        <ele>45</ele>
        <time>2015-06-07T10:55:28Z</time>
      </trkpt>
      <trkpt lat="47.89141" lon="-1.76718">
        <ele>45</ele>
        <time>2015-06-07T10:55:29Z</time>
      </trkpt>
      <trkpt lat="47.89141" lon="-1.76718">
        <ele>46</ele>
        <time>2015-06-07T10:55:30Z</time>
      </trkpt>
      <trkpt lat="47.89141" lon="-1.76718">
        <ele>46</ele>
        <time>2015-06-07T10:55:31Z</time>
      </trkpt>
      <trkpt lat="47.89141" lon="-1.76718">
        <ele>46</ele>
        <time>2015-06-07T10:55:32Z</time>
      </trkpt>
      <trkpt lat="47.8914" lon="-1.76718">
        <ele>46</ele>
        <time>2015-06-07T10:55:33Z</time>
      </trkpt>
      <trkpt lat="47.8914" lon="-1.76718">
        <ele>46</ele>
        <time>2015-06-07T10:55:34Z</time>
      </trkpt>
      <trkpt lat="47.89132" lon="-1.76713">
        <ele>47</ele>
        <time>2015-06-07T10:55:35Z</time>
      </trkpt>
      <trkpt lat="47.8913" lon="-1.76711">
        <ele>47</ele>
        <time>2015-06-07T10:55:36Z</time>
      </trkpt>
      <trkpt lat="47.89128" lon="-1.76709">
        <ele>47</ele>
        <time>2015-06-07T10:55:37Z</time>
      </trkpt>
      <trkpt lat="47.89127" lon="-1.76707">
        <ele>47</ele>
        <time>2015-06-07T10:55:38Z</time>
      </trkpt>
      <trkpt lat="47.89125" lon="-1.76705">
        <ele>47</ele>
        <time>2015-06-07T10:55:39Z</time>
      </trkpt>
      <trkpt lat="47.89124" lon="-1.76703">
        <ele>47</ele>
        <time>2015-06-07T10:55:40Z</time>
      </trkpt>
      <trkpt lat="47.89123" lon="-1.76702">
        <ele>47</ele>
        <time>2015-06-07T10:55:41Z</time>
      </trkpt>
      <trkpt lat="47.89121" lon="-1.76701">
        <ele>47</ele>
        <time>2015-06-07T10:55:42Z</time>
      </trkpt>
      <trkpt lat="47.89119" lon="-1.76698">
        <ele>46</ele>
        <time>2015-06-07T10:55:43Z</time>
      </trkpt>
      <trkpt lat="47.89117" lon="-1.76695">
        <ele>46</ele>
        <time>2015-06-07T10:55:44Z</time>
      </trkpt>
      <trkpt lat="47.89116" lon="-1.76691">
        <ele>46</ele>
        <time>2015-06-07T10:55:45Z</time>
      </trkpt>
      <trkpt lat="47.89115" lon="-1.76688">
        <ele>46</ele>
        <time>2015-06-07T10:55:46Z</time>
      </trkpt>
      <trkpt lat="47.89115" lon="-1.76686">
        <ele>46</ele>
        <time>2015-06-07T10:55:47Z</time>
      </trkpt>
      <trkpt lat="47.89114" lon="-1.76683">
        <ele>46</ele>
        <time>2015-06-07T10:55:48Z</time>
      </trkpt>
      <trkpt lat="47.89113" lon="-1.76681">
        <ele>46</ele>
        <time>2015-06-07T10:55:49Z</time>
      </trkpt>
      <trkpt lat="47.89111" lon="-1.76679">
        <ele>46</ele>
        <time>2015-06-07T10:55:50Z</time>
      </trkpt>
      <trkpt lat="47.8911" lon="-1.76677">
        <ele>46</ele>
        <time>2015-06-07T10:55:51Z</time>
      </trkpt>
      <trkpt lat="47.8911" lon="-1.76674">
        <ele>47</ele>
        <time>2015-06-07T10:55:52Z</time>
      </trkpt>
      <trkpt lat="47.8911" lon="-1.76672">
        <ele>47</ele>
        <time>2015-06-07T10:55:53Z</time>
      </trkpt>
      <trkpt lat="47.8911" lon="-1.7667">
        <ele>47</ele>
        <time>2015-06-07T10:55:54Z</time>
      </trkpt>
      <trkpt lat="47.8911" lon="-1.76669">
        <ele>47</ele>
        <time>2015-06-07T10:55:55Z</time>
      </trkpt>
      <trkpt lat="47.8911" lon="-1.76667">
        <ele>47</ele>
        <time>2015-06-07T10:55:56Z</time>
      </trkpt>
      <trkpt lat="47.89109" lon="-1.76665">
        <ele>47</ele>
        <time>2015-06-07T10:55:57Z</time>
      </trkpt>
      <trkpt lat="47.89108" lon="-1.76662">
        <ele>48</ele>
        <time>2015-06-07T10:55:58Z</time>
      </trkpt>
      <trkpt lat="47.89106" lon="-1.76659">
        <ele>48</ele>
        <time>2015-06-07T10:55:59Z</time>
      </trkpt>
      <trkpt lat="47.89104" lon="-1.76656">
        <ele>48</ele>
        <time>2015-06-07T10:56:00Z</time>
      </trkpt>
      <trkpt lat="47.89102" lon="-1.76652">
        <ele>48</ele>
        <time>2015-06-07T10:56:01Z</time>
      </trkpt>
      <trkpt lat="47.89099" lon="-1.76649">
        <ele>48</ele>
        <time>2015-06-07T10:56:02Z</time>
      </trkpt>
      <trkpt lat="47.89096" lon="-1.76645">
        <ele>47</ele>
        <time>2015-06-07T10:56:03Z</time>
      </trkpt>
      <trkpt lat="47.89093" lon="-1.76641">
        <ele>47</ele>
        <time>2015-06-07T10:56:04Z</time>
      </trkpt>
      <trkpt lat="47.89089" lon="-1.76636">
        <ele>47</ele>
        <time>2015-06-07T10:56:05Z</time>
      </trkpt>
      <trkpt lat="47.89086" lon="-1.76632">
        <ele>47</ele>
        <time>2015-06-07T10:56:06Z</time>
      </trkpt>
      <trkpt lat="47.89083" lon="-1.76628">
        <ele>47</ele>
        <time>2015-06-07T10:56:07Z</time>
      </trkpt>
      <trkpt lat="47.8908" lon="-1.76625">
        <ele>47</ele>
        <time>2015-06-07T10:56:08Z</time>
      </trkpt>
      <trkpt lat="47.89078" lon="-1.76623">
        <ele>47</ele>
        <time>2015-06-07T10:56:09Z</time>
      </trkpt>
      <trkpt lat="47.89077" lon="-1.76622">
        <ele>47</ele>
        <time>2015-06-07T10:56:10Z</time>
      </trkpt>
      <trkpt lat="47.89076" lon="-1.76621">
        <ele>47</ele>
        <time>2015-06-07T10:56:11Z</time>
      </trkpt>
      <trkpt lat="47.89075" lon="-1.7662">
        <ele>46</ele>
        <time>2015-06-07T10:56:12Z</time>
      </trkpt>
      <trkpt lat="47.89075" lon="-1.76619">
        <ele>46</ele>
        <time>2015-06-07T10:56:13Z</time>
      </trkpt>
      <trkpt lat="47.89074" lon="-1.76619">
        <ele>46</ele>
        <time>2015-06-07T10:56:14Z</time>
      </trkpt>
      <trkpt lat="47.89074" lon="-1.76618">
        <ele>47</ele>
        <time>2015-06-07T10:56:15Z</time>
      </trkpt>
      <trkpt lat="47.89073" lon="-1.76617">
        <ele>47</ele>
        <time>2015-06-07T10:56:16Z</time>
      </trkpt>
      <trkpt lat="47.89073" lon="-1.76616">
        <ele>47</ele>
        <time>2015-06-07T10:56:17Z</time>
      </trkpt>
      <trkpt lat="47.89073" lon="-1.76615">
        <ele>47</ele>
        <time>2015-06-07T10:56:18Z</time>
      </trkpt>
      <trkpt lat="47.89073" lon="-1.76614">
        <ele>47</ele>
        <time>2015-06-07T10:56:19Z</time>
      </trkpt>
      <trkpt lat="47.89072" lon="-1.76612">
        <ele>47</ele>
        <time>2015-06-07T10:56:20Z</time>
      </trkpt>
      <trkpt lat="47.89072" lon="-1.76611">
        <ele>47</ele>
        <time>2015-06-07T10:56:21Z</time>
      </trkpt>
      <trkpt lat="47.89071" lon="-1.76609">
        <ele>47</ele>
        <time>2015-06-07T10:56:22Z</time>
      </trkpt>
      <trkpt lat="47.8907" lon="-1.76609">
        <ele>47</ele>
        <time>2015-06-07T10:56:23Z</time>
      </trkpt>
      <trkpt lat="47.89069" lon="-1.76609">
        <ele>47</ele>
        <time>2015-06-07T10:56:24Z</time>
      </trkpt>
      <trkpt lat="47.89067" lon="-1.76609">
        <ele>48</ele>
        <time>2015-06-07T10:56:25Z</time>
      </trkpt>
      <trkpt lat="47.89066" lon="-1.76609">
        <ele>48</ele>
        <time>2015-06-07T10:56:26Z</time>
      </trkpt>
      <trkpt lat="47.89065" lon="-1.76609">
        <ele>48</ele>
        <time>2015-06-07T10:56:27Z</time>
      </trkpt>
      <trkpt lat="47.89064" lon="-1.76606">
        <ele>48</ele>
        <time>2015-06-07T10:56:28Z</time>
      </trkpt>
      <trkpt lat="47.89063" lon="-1.76605">
        <ele>48</ele>
        <time>2015-06-07T10:56:29Z</time>
      </trkpt>
      <trkpt lat="47.89062" lon="-1.76603">
        <ele>48</ele>
        <time>2015-06-07T10:56:30Z</time>
      </trkpt>
      <trkpt lat="47.89061" lon="-1.76601">
        <ele>48</ele>
        <time>2015-06-07T10:56:31Z</time>
      </trkpt>
      <trkpt lat="47.89059" lon="-1.76599">
        <ele>48</ele>
        <time>2015-06-07T10:56:32Z</time>
      </trkpt>
      <trkpt lat="47.89057" lon="-1.76596">
        <ele>48</ele>
        <time>2015-06-07T10:56:33Z</time>
      </trkpt>
      <trkpt lat="47.89055" lon="-1.76594">
        <ele>48</ele>
        <time>2015-06-07T10:56:34Z</time>
      </trkpt>
      <trkpt lat="47.89053" lon="-1.76592">
        <ele>48</ele>
        <time>2015-06-07T10:56:35Z</time>
      </trkpt>
      <trkpt lat="47.89051" lon="-1.76591">
        <ele>48</ele>
        <time>2015-06-07T10:56:36Z</time>
      </trkpt>
      <trkpt lat="47.89049" lon="-1.76588">
        <ele>48</ele>
        <time>2015-06-07T10:56:37Z</time>
      </trkpt>
      <trkpt lat="47.89048" lon="-1.76586">
        <ele>48</ele>
        <time>2015-06-07T10:56:38Z</time>
      </trkpt>
      <trkpt lat="47.89046" lon="-1.76583">
        <ele>48</ele>
        <time>2015-06-07T10:56:39Z</time>
      </trkpt>
      <trkpt lat="47.89045" lon="-1.76581">
        <ele>48</ele>
        <time>2015-06-07T10:56:40Z</time>
      </trkpt>
      <trkpt lat="47.89043" lon="-1.76579">
        <ele>48</ele>
        <time>2015-06-07T10:56:41Z</time>
      </trkpt>
      <trkpt lat="47.89041" lon="-1.76576">
        <ele>48</ele>
        <time>2015-06-07T10:56:42Z</time>
      </trkpt>
      <trkpt lat="47.8904" lon="-1.76573">
        <ele>48</ele>
        <time>2015-06-07T10:56:43Z</time>
      </trkpt>
      <trkpt lat="47.89038" lon="-1.76571">
        <ele>48</ele>
        <time>2015-06-07T10:56:44Z</time>
      </trkpt>
      <trkpt lat="47.89038" lon="-1.76569">
        <ele>48</ele>
        <time>2015-06-07T10:56:45Z</time>
      </trkpt>
      <trkpt lat="47.89037" lon="-1.76567">
        <ele>48</ele>
        <time>2015-06-07T10:56:46Z</time>
      </trkpt>
      <trkpt lat="47.89036" lon="-1.76564">
        <ele>48</ele>
        <time>2015-06-07T10:56:47Z</time>
      </trkpt>
      <trkpt lat="47.89035" lon="-1.76562">
        <ele>48</ele>
        <time>2015-06-07T10:56:48Z</time>
      </trkpt>
      <trkpt lat="47.89034" lon="-1.76558">
        <ele>48</ele>
        <time>2015-06-07T10:56:49Z</time>
      </trkpt>
      <trkpt lat="47.89033" lon="-1.76555">
        <ele>48</ele>
        <time>2015-06-07T10:56:50Z</time>
      </trkpt>
      <trkpt lat="47.89032" lon="-1.76552">
        <ele>48</ele>
        <time>2015-06-07T10:56:51Z</time>
      </trkpt>
      <trkpt lat="47.89031" lon="-1.7655">
        <ele>48</ele>
        <time>2015-06-07T10:56:52Z</time>
      </trkpt>
      <trkpt lat="47.8903" lon="-1.76547">
        <ele>49</ele>
        <time>2015-06-07T10:56:53Z</time>
      </trkpt>
      <trkpt lat="47.89029" lon="-1.76544">
        <ele>49</ele>
        <time>2015-06-07T10:56:54Z</time>
      </trkpt>
      <trkpt lat="47.89028" lon="-1.76541">
        <ele>49</ele>
        <time>2015-06-07T10:56:55Z</time>
      </trkpt>
      <trkpt lat="47.89027" lon="-1.76537">
        <ele>49</ele>
        <time>2015-06-07T10:56:56Z</time>
      </trkpt>
      <trkpt lat="47.89025" lon="-1.76534">
        <ele>49</ele>
        <time>2015-06-07T10:56:57Z</time>
      </trkpt>
      <trkpt lat="47.89024" lon="-1.7653">
        <ele>49</ele>
        <time>2015-06-07T10:56:58Z</time>
      </trkpt>
      <trkpt lat="47.89022" lon="-1.76527">
        <ele>49</ele>
        <time>2015-06-07T10:56:59Z</time>
      </trkpt>
      <trkpt lat="47.89019" lon="-1.76523">
        <ele>49</ele>
        <time>2015-06-07T10:57:00Z</time>
      </trkpt>
      <trkpt lat="47.89018" lon="-1.7652">
        <ele>49</ele>
        <time>2015-06-07T10:57:01Z</time>
      </trkpt>
      <trkpt lat="47.89014" lon="-1.76515">
        <ele>49</ele>
        <time>2015-06-07T10:57:02Z</time>
      </trkpt>
      <trkpt lat="47.8901" lon="-1.76511">
        <ele>48</ele>
        <time>2015-06-07T10:57:03Z</time>
      </trkpt>
      <trkpt lat="47.89007" lon="-1.76508">
        <ele>48</ele>
        <time>2015-06-07T10:57:04Z</time>
      </trkpt>
      <trkpt lat="47.89004" lon="-1.76504">
        <ele>47</ele>
        <time>2015-06-07T10:57:05Z</time>
      </trkpt>
      <trkpt lat="47.89002" lon="-1.76499">
        <ele>47</ele>
        <time>2015-06-07T10:57:06Z</time>
      </trkpt>
      <trkpt lat="47.89" lon="-1.76494">
        <ele>47</ele>
        <time>2015-06-07T10:57:07Z</time>
      </trkpt>
      <trkpt lat="47.88999" lon="-1.76488">
        <ele>47</ele>
        <time>2015-06-07T10:57:08Z</time>
      </trkpt>
      <trkpt lat="47.88998" lon="-1.76484">
        <ele>46</ele>
        <time>2015-06-07T10:57:09Z</time>
      </trkpt>
      <trkpt lat="47.88996" lon="-1.76479">
        <ele>46</ele>
        <time>2015-06-07T10:57:10Z</time>
      </trkpt>
      <trkpt lat="47.88994" lon="-1.76474">
        <ele>46</ele>
        <time>2015-06-07T10:57:11Z</time>
      </trkpt>
      <trkpt lat="47.88993" lon="-1.76469">
        <ele>46</ele>
        <time>2015-06-07T10:57:12Z</time>
      </trkpt>
      <trkpt lat="47.88992" lon="-1.76464">
        <ele>45</ele>
        <time>2015-06-07T10:57:13Z</time>
      </trkpt>
      <trkpt lat="47.8899" lon="-1.7646">
        <ele>45</ele>
        <time>2015-06-07T10:57:14Z</time>
      </trkpt>
      <trkpt lat="47.88989" lon="-1.76455">
        <ele>45</ele>
        <time>2015-06-07T10:57:15Z</time>
      </trkpt>
      <trkpt lat="47.88988" lon="-1.7645">
        <ele>45</ele>
        <time>2015-06-07T10:57:16Z</time>
      </trkpt>
      <trkpt lat="47.88987" lon="-1.76445">
        <ele>44</ele>
        <time>2015-06-07T10:57:17Z</time>
      </trkpt>
      <trkpt lat="47.88985" lon="-1.7644">
        <ele>44</ele>
        <time>2015-06-07T10:57:18Z</time>
      </trkpt>
      <trkpt lat="47.88985" lon="-1.76435">
        <ele>44</ele>
        <time>2015-06-07T10:57:19Z</time>
      </trkpt>
      <trkpt lat="47.88983" lon="-1.76432">
        <ele>44</ele>
        <time>2015-06-07T10:57:20Z</time>
      </trkpt>
      <trkpt lat="47.88982" lon="-1.76428">
        <ele>44</ele>
        <time>2015-06-07T10:57:21Z</time>
      </trkpt>
      <trkpt lat="47.88982" lon="-1.76425">
        <ele>43</ele>
        <time>2015-06-07T10:57:22Z</time>
      </trkpt>
      <trkpt lat="47.88983" lon="-1.76423">
        <ele>43</ele>
        <time>2015-06-07T10:57:23Z</time>
      </trkpt>
      <trkpt lat="47.88982" lon="-1.76422">
        <ele>43</ele>
        <time>2015-06-07T10:57:24Z</time>
      </trkpt>
      <trkpt lat="47.88982" lon="-1.76421">
        <ele>43</ele>
        <time>2015-06-07T10:57:25Z</time>
      </trkpt>
      <trkpt lat="47.88981" lon="-1.7642">
        <ele>43</ele>
        <time>2015-06-07T10:57:26Z</time>
      </trkpt>
      <trkpt lat="47.8898" lon="-1.76419">
        <ele>43</ele>
        <time>2015-06-07T10:57:27Z</time>
      </trkpt>
      <trkpt lat="47.88979" lon="-1.76418">
        <ele>43</ele>
        <time>2015-06-07T10:57:28Z</time>
      </trkpt>
      <trkpt lat="47.88978" lon="-1.76418">
        <ele>42</ele>
        <time>2015-06-07T10:57:29Z</time>
      </trkpt>
      <trkpt lat="47.88977" lon="-1.76418">
        <ele>42</ele>
        <time>2015-06-07T10:57:30Z</time>
      </trkpt>
      <trkpt lat="47.88977" lon="-1.76417">
        <ele>42</ele>
        <time>2015-06-07T10:57:31Z</time>
      </trkpt>
      <trkpt lat="47.88976" lon="-1.76417">
        <ele>42</ele>
        <time>2015-06-07T10:57:32Z</time>
      </trkpt>
      <trkpt lat="47.88976" lon="-1.76417">
        <ele>42</ele>
        <time>2015-06-07T10:57:33Z</time>
      </trkpt>
      <trkpt lat="47.88976" lon="-1.76417">
        <ele>42</ele>
        <time>2015-06-07T10:57:34Z</time>
      </trkpt>
      <trkpt lat="47.88977" lon="-1.76417">
        <ele>42</ele>
        <time>2015-06-07T10:57:35Z</time>
      </trkpt>
      <trkpt lat="47.88977" lon="-1.76418">
        <ele>42</ele>
        <time>2015-06-07T10:57:36Z</time>
      </trkpt>
      <trkpt lat="47.88977" lon="-1.76418">
        <ele>42</ele>
        <time>2015-06-07T10:57:37Z</time>
      </trkpt>
      <trkpt lat="47.88978" lon="-1.76418">
        <ele>42</ele>
        <time>2015-06-07T10:57:38Z</time>
      </trkpt>
      <trkpt lat="47.88978" lon="-1.76418">
        <ele>41</ele>
        <time>2015-06-07T10:57:39Z</time>
      </trkpt>
      <trkpt lat="47.88978" lon="-1.76417">
        <ele>41</ele>
        <time>2015-06-07T10:57:40Z</time>
      </trkpt>
      <trkpt lat="47.88978" lon="-1.76417">
        <ele>41</ele>
        <time>2015-06-07T10:57:41Z</time>
      </trkpt>
      <trkpt lat="47.88978" lon="-1.76417">
        <ele>41</ele>
        <time>2015-06-07T10:57:42Z</time>
      </trkpt>
      <trkpt lat="47.88978" lon="-1.76416">
        <ele>41</ele>
        <time>2015-06-07T10:57:43Z</time>
      </trkpt>
      <trkpt lat="47.88978" lon="-1.76416">
        <ele>41</ele>
        <time>2015-06-07T10:57:44Z</time>
      </trkpt>
      <trkpt lat="47.88978" lon="-1.76416">
        <ele>41</ele>
        <time>2015-06-07T10:57:45Z</time>
      </trkpt>
      <trkpt lat="47.88979" lon="-1.76416">
        <ele>41</ele>
        <time>2015-06-07T10:57:46Z</time>
      </trkpt>
      <trkpt lat="47.88979" lon="-1.76416">
        <ele>41</ele>
        <time>2015-06-07T10:57:47Z</time>
      </trkpt>
      <trkpt lat="47.8898" lon="-1.76416">
        <ele>41</ele>
        <time>2015-06-07T10:57:48Z</time>
      </trkpt>
      <trkpt lat="47.8898" lon="-1.76416">
        <ele>41</ele>
        <time>2015-06-07T10:57:49Z</time>
      </trkpt>
      <trkpt lat="47.8898" lon="-1.76416">
        <ele>41</ele>
        <time>2015-06-07T10:57:50Z</time>
      </trkpt>
      <trkpt lat="47.8898" lon="-1.76415">
        <ele>41</ele>
        <time>2015-06-07T10:57:51Z</time>
      </trkpt>
      <trkpt lat="47.88981" lon="-1.76415">
        <ele>41</ele>
        <time>2015-06-07T10:57:52Z</time>
      </trkpt>
      <trkpt lat="47.88981" lon="-1.76414">
        <ele>41</ele>
        <time>2015-06-07T10:57:53Z</time>
      </trkpt>
      <trkpt lat="47.88981" lon="-1.76413">
        <ele>41</ele>
        <time>2015-06-07T10:57:54Z</time>
      </trkpt>
      <trkpt lat="47.88981" lon="-1.76413">
        <ele>41</ele>
        <time>2015-06-07T10:57:55Z</time>
      </trkpt>
      <trkpt lat="47.88981" lon="-1.76412">
        <ele>41</ele>
        <time>2015-06-07T10:57:56Z</time>
      </trkpt>
      <trkpt lat="47.88981" lon="-1.76411">
        <ele>41</ele>
        <time>2015-06-07T10:57:57Z</time>
      </trkpt>
      <trkpt lat="47.88981" lon="-1.7641">
        <ele>42</ele>
        <time>2015-06-07T10:57:58Z</time>
      </trkpt>
      <trkpt lat="47.88981" lon="-1.7641">
        <ele>42</ele>
        <time>2015-06-07T10:57:59Z</time>
      </trkpt>
      <trkpt lat="47.88981" lon="-1.76409">
        <ele>42</ele>
        <time>2015-06-07T10:58:00Z</time>
      </trkpt>
      <trkpt lat="47.8898" lon="-1.76409">
        <ele>42</ele>
        <time>2015-06-07T10:58:01Z</time>
      </trkpt>
      <trkpt lat="47.8898" lon="-1.76408">
        <ele>42</ele>
        <time>2015-06-07T10:58:02Z</time>
      </trkpt>
      <trkpt lat="47.88979" lon="-1.76406">
        <ele>42</ele>
        <time>2015-06-07T10:58:03Z</time>
      </trkpt>
      <trkpt lat="47.88978" lon="-1.76405">
        <ele>42</ele>
        <time>2015-06-07T10:58:04Z</time>
      </trkpt>
      <trkpt lat="47.88977" lon="-1.76403">
        <ele>42</ele>
        <time>2015-06-07T10:58:05Z</time>
      </trkpt>
      <trkpt lat="47.88978" lon="-1.76402">
        <ele>42</ele>
        <time>2015-06-07T10:58:06Z</time>
      </trkpt>
      <trkpt lat="47.88978" lon="-1.764">
        <ele>42</ele>
        <time>2015-06-07T10:58:07Z</time>
      </trkpt>
      <trkpt lat="47.88978" lon="-1.76398">
        <ele>42</ele>
        <time>2015-06-07T10:58:08Z</time>
      </trkpt>
      <trkpt lat="47.88978" lon="-1.76396">
        <ele>43</ele>
        <time>2015-06-07T10:58:09Z</time>
      </trkpt>
      <trkpt lat="47.88978" lon="-1.76395">
        <ele>43</ele>
        <time>2015-06-07T10:58:10Z</time>
      </trkpt>
      <trkpt lat="47.88978" lon="-1.76392">
        <ele>43</ele>
        <time>2015-06-07T10:58:11Z</time>
      </trkpt>
      <trkpt lat="47.88977" lon="-1.76389">
        <ele>43</ele>
        <time>2015-06-07T10:58:12Z</time>
      </trkpt>
      <trkpt lat="47.88976" lon="-1.76386">
        <ele>43</ele>
        <time>2015-06-07T10:58:13Z</time>
      </trkpt>
      <trkpt lat="47.88975" lon="-1.76383">
        <ele>43</ele>
        <time>2015-06-07T10:58:14Z</time>
      </trkpt>
      <trkpt lat="47.88975" lon="-1.76381">
        <ele>44</ele>
        <time>2015-06-07T10:58:15Z</time>
      </trkpt>
      <trkpt lat="47.88974" lon="-1.7638">
        <ele>44</ele>
        <time>2015-06-07T10:58:16Z</time>
      </trkpt>
      <trkpt lat="47.88974" lon="-1.76378">
        <ele>44</ele>
        <time>2015-06-07T10:58:17Z</time>
      </trkpt>
      <trkpt lat="47.88973" lon="-1.76376">
        <ele>44</ele>
        <time>2015-06-07T10:58:18Z</time>
      </trkpt>
      <trkpt lat="47.88974" lon="-1.76373">
        <ele>44</ele>
        <time>2015-06-07T10:58:19Z</time>
      </trkpt>
      <trkpt lat="47.88973" lon="-1.7637">
        <ele>45</ele>
        <time>2015-06-07T10:58:20Z</time>
      </trkpt>
      <trkpt lat="47.88972" lon="-1.76367">
        <ele>45</ele>
        <time>2015-06-07T10:58:21Z</time>
      </trkpt>
      <trkpt lat="47.88971" lon="-1.76364">
        <ele>45</ele>
        <time>2015-06-07T10:58:22Z</time>
      </trkpt>
      <trkpt lat="47.88971" lon="-1.76361">
        <ele>45</ele>
        <time>2015-06-07T10:58:23Z</time>
      </trkpt>
      <trkpt lat="47.88971" lon="-1.76359">
        <ele>45</ele>
        <time>2015-06-07T10:58:24Z</time>
      </trkpt>
      <trkpt lat="47.88971" lon="-1.76358">
        <ele>45</ele>
        <time>2015-06-07T10:58:25Z</time>
      </trkpt>
      <trkpt lat="47.88971" lon="-1.76357">
        <ele>45</ele>
        <time>2015-06-07T10:58:26Z</time>
      </trkpt>
      <trkpt lat="47.88971" lon="-1.76354">
        <ele>46</ele>
        <time>2015-06-07T10:58:27Z</time>
      </trkpt>
      <trkpt lat="47.88972" lon="-1.76352">
        <ele>46</ele>
        <time>2015-06-07T10:58:28Z</time>
      </trkpt>
      <trkpt lat="47.88972" lon="-1.76349">
        <ele>46</ele>
        <time>2015-06-07T10:58:29Z</time>
      </trkpt>
      <trkpt lat="47.88975" lon="-1.76348">
        <ele>46</ele>
        <time>2015-06-07T10:58:30Z</time>
      </trkpt>
      <trkpt lat="47.88977" lon="-1.76346">
        <ele>46</ele>
        <time>2015-06-07T10:58:31Z</time>
      </trkpt>
      <trkpt lat="47.88979" lon="-1.76345">
        <ele>46</ele>
        <time>2015-06-07T10:58:32Z</time>
      </trkpt>
      <trkpt lat="47.88981" lon="-1.76343">
        <ele>46</ele>
        <time>2015-06-07T10:58:33Z</time>
      </trkpt>
      <trkpt lat="47.88984" lon="-1.76341">
        <ele>46</ele>
        <time>2015-06-07T10:58:34Z</time>
      </trkpt>
      <trkpt lat="47.88986" lon="-1.76339">
        <ele>46</ele>
        <time>2015-06-07T10:58:35Z</time>
      </trkpt>
      <trkpt lat="47.88988" lon="-1.76337">
        <ele>46</ele>
        <time>2015-06-07T10:58:36Z</time>
      </trkpt>
      <trkpt lat="47.8899" lon="-1.76335">
        <ele>46</ele>
        <time>2015-06-07T10:58:37Z</time>
      </trkpt>
      <trkpt lat="47.88991" lon="-1.76334">
        <ele>46</ele>
        <time>2015-06-07T10:58:38Z</time>
      </trkpt>
      <trkpt lat="47.88993" lon="-1.76333">
        <ele>46</ele>
        <time>2015-06-07T10:58:39Z</time>
      </trkpt>
      <trkpt lat="47.88995" lon="-1.76331">
        <ele>47</ele>
        <time>2015-06-07T10:58:40Z</time>
      </trkpt>
      <trkpt lat="47.88997" lon="-1.7633">
        <ele>47</ele>
        <time>2015-06-07T10:58:41Z</time>
      </trkpt>
      <trkpt lat="47.89" lon="-1.76328">
        <ele>47</ele>
        <time>2015-06-07T10:58:42Z</time>
      </trkpt>
      <trkpt lat="47.89002" lon="-1.76326">
        <ele>47</ele>
        <time>2015-06-07T10:58:43Z</time>
      </trkpt>
      <trkpt lat="47.89004" lon="-1.76324">
        <ele>47</ele>
        <time>2015-06-07T10:58:44Z</time>
      </trkpt>
      <trkpt lat="47.89006" lon="-1.76322">
        <ele>47</ele>
        <time>2015-06-07T10:58:45Z</time>
      </trkpt>
      <trkpt lat="47.89008" lon="-1.7632">
        <ele>47</ele>
        <time>2015-06-07T10:58:46Z</time>
      </trkpt>
      <trkpt lat="47.8901" lon="-1.76319">
        <ele>47</ele>
        <time>2015-06-07T10:58:47Z</time>
      </trkpt>
      <trkpt lat="47.89013" lon="-1.76317">
        <ele>46</ele>
        <time>2015-06-07T10:58:48Z</time>
      </trkpt>
      <trkpt lat="47.89015" lon="-1.76314">
        <ele>46</ele>
        <time>2015-06-07T10:58:49Z</time>
      </trkpt>
      <trkpt lat="47.89017" lon="-1.76312">
        <ele>46</ele>
        <time>2015-06-07T10:58:50Z</time>
      </trkpt>
      <trkpt lat="47.89019" lon="-1.76308">
        <ele>46</ele>
        <time>2015-06-07T10:58:51Z</time>
      </trkpt>
      <trkpt lat="47.89021" lon="-1.76305">
        <ele>46</ele>
        <time>2015-06-07T10:58:52Z</time>
      </trkpt>
      <trkpt lat="47.89021" lon="-1.76301">
        <ele>46</ele>
        <time>2015-06-07T10:58:53Z</time>
      </trkpt>
      <trkpt lat="47.89023" lon="-1.76296">
        <ele>46</ele>
        <time>2015-06-07T10:58:54Z</time>
      </trkpt>
      <trkpt lat="47.89025" lon="-1.76291">
        <ele>46</ele>
        <time>2015-06-07T10:58:55Z</time>
      </trkpt>
      <trkpt lat="47.89026" lon="-1.76287">
        <ele>46</ele>
        <time>2015-06-07T10:58:56Z</time>
      </trkpt>
      <trkpt lat="47.89027" lon="-1.76283">
        <ele>46</ele>
        <time>2015-06-07T10:58:57Z</time>
      </trkpt>
      <trkpt lat="47.89028" lon="-1.76281">
        <ele>46</ele>
        <time>2015-06-07T10:58:58Z</time>
      </trkpt>
      <trkpt lat="47.89028" lon="-1.76279">
        <ele>46</ele>
        <time>2015-06-07T10:58:59Z</time>
      </trkpt>
      <trkpt lat="47.89028" lon="-1.76277">
        <ele>46</ele>
        <time>2015-06-07T10:59:00Z</time>
      </trkpt>
      <trkpt lat="47.89029" lon="-1.76276">
        <ele>46</ele>
        <time>2015-06-07T10:59:01Z</time>
      </trkpt>
      <trkpt lat="47.89029" lon="-1.76275">
        <ele>46</ele>
        <time>2015-06-07T10:59:02Z</time>
      </trkpt>
      <trkpt lat="47.89029" lon="-1.76276">
        <ele>46</ele>
        <time>2015-06-07T10:59:03Z</time>
      </trkpt>
      <trkpt lat="47.89028" lon="-1.76276">
        <ele>46</ele>
        <time>2015-06-07T10:59:04Z</time>
      </trkpt>
      <trkpt lat="47.89027" lon="-1.76275">
        <ele>46</ele>
        <time>2015-06-07T10:59:05Z</time>
      </trkpt>
      <trkpt lat="47.89026" lon="-1.76274">
        <ele>47</ele>
        <time>2015-06-07T10:59:06Z</time>
      </trkpt>
      <trkpt lat="47.89025" lon="-1.76273">
        <ele>47</ele>
        <time>2015-06-07T10:59:07Z</time>
      </trkpt>
      <trkpt lat="47.89025" lon="-1.76272">
        <ele>47</ele>
        <time>2015-06-07T10:59:08Z</time>
      </trkpt>
      <trkpt lat="47.89024" lon="-1.76271">
        <ele>47</ele>
        <time>2015-06-07T10:59:09Z</time>
      </trkpt>
      <trkpt lat="47.89023" lon="-1.76271">
        <ele>47</ele>
        <time>2015-06-07T10:59:10Z</time>
      </trkpt>
      <trkpt lat="47.89023" lon="-1.76271">
        <ele>47</ele>
        <time>2015-06-07T10:59:11Z</time>
      </trkpt>
      <trkpt lat="47.89022" lon="-1.7627">
        <ele>47</ele>
        <time>2015-06-07T10:59:12Z</time>
      </trkpt>
      <trkpt lat="47.89021" lon="-1.76269">
        <ele>48</ele>
        <time>2015-06-07T10:59:13Z</time>
      </trkpt>
      <trkpt lat="47.8902" lon="-1.76268">
        <ele>48</ele>
        <time>2015-06-07T10:59:14Z</time>
      </trkpt>
      <trkpt lat="47.89019" lon="-1.76268">
        <ele>48</ele>
        <time>2015-06-07T10:59:15Z</time>
      </trkpt>
      <trkpt lat="47.89018" lon="-1.76268">
        <ele>48</ele>
        <time>2015-06-07T10:59:16Z</time>
      </trkpt>
      <trkpt lat="47.89017" lon="-1.76267">
        <ele>48</ele>
        <time>2015-06-07T10:59:17Z</time>
      </trkpt>
      <trkpt lat="47.89016" lon="-1.76267">
        <ele>49</ele>
        <time>2015-06-07T10:59:18Z</time>
      </trkpt>
      <trkpt lat="47.89015" lon="-1.76267">
        <ele>49</ele>
        <time>2015-06-07T10:59:19Z</time>
      </trkpt>
      <trkpt lat="47.89014" lon="-1.76268">
        <ele>49</ele>
        <time>2015-06-07T10:59:20Z</time>
      </trkpt>
      <trkpt lat="47.89012" lon="-1.76269">
        <ele>50</ele>
        <time>2015-06-07T10:59:21Z</time>
      </trkpt>
      <trkpt lat="47.89011" lon="-1.7627">
        <ele>50</ele>
        <time>2015-06-07T10:59:22Z</time>
      </trkpt>
      <trkpt lat="47.89011" lon="-1.76272">
        <ele>50</ele>
        <time>2015-06-07T10:59:23Z</time>
      </trkpt>
      <trkpt lat="47.8901" lon="-1.76273">
        <ele>50</ele>
        <time>2015-06-07T10:59:24Z</time>
      </trkpt>
      <trkpt lat="47.89009" lon="-1.76274">
        <ele>50</ele>
        <time>2015-06-07T10:59:25Z</time>
      </trkpt>
      <trkpt lat="47.89008" lon="-1.76275">
        <ele>50</ele>
        <time>2015-06-07T10:59:26Z</time>
      </trkpt>
      <trkpt lat="47.89007" lon="-1.76275">
        <ele>50</ele>
        <time>2015-06-07T10:59:27Z</time>
      </trkpt>
      <trkpt lat="47.89005" lon="-1.76275">
        <ele>50</ele>
        <time>2015-06-07T10:59:28Z</time>
      </trkpt>
      <trkpt lat="47.89004" lon="-1.76275">
        <ele>50</ele>
        <time>2015-06-07T10:59:29Z</time>
      </trkpt>
      <trkpt lat="47.89002" lon="-1.76277">
        <ele>50</ele>
        <time>2015-06-07T10:59:30Z</time>
      </trkpt>
      <trkpt lat="47.89" lon="-1.76278">
        <ele>50</ele>
        <time>2015-06-07T10:59:31Z</time>
      </trkpt>
      <trkpt lat="47.88997" lon="-1.7628">
        <ele>50</ele>
        <time>2015-06-07T10:59:32Z</time>
      </trkpt>
      <trkpt lat="47.88995" lon="-1.76281">
        <ele>50</ele>
        <time>2015-06-07T10:59:33Z</time>
      </trkpt>
      <trkpt lat="47.88992" lon="-1.76283">
        <ele>50</ele>
        <time>2015-06-07T10:59:34Z</time>
      </trkpt>
      <trkpt lat="47.88989" lon="-1.76285">
        <ele>50</ele>
        <time>2015-06-07T10:59:35Z</time>
      </trkpt>
      <trkpt lat="47.88987" lon="-1.76287">
        <ele>50</ele>
        <time>2015-06-07T10:59:36Z</time>
      </trkpt>
      <trkpt lat="47.88985" lon="-1.7629">
        <ele>50</ele>
        <time>2015-06-07T10:59:37Z</time>
      </trkpt>
      <trkpt lat="47.88982" lon="-1.76294">
        <ele>50</ele>
        <time>2015-06-07T10:59:38Z</time>
      </trkpt>
      <trkpt lat="47.8898" lon="-1.76298">
        <ele>50</ele>
        <time>2015-06-07T10:59:39Z</time>
      </trkpt>
      <trkpt lat="47.88977" lon="-1.763">
        <ele>49</ele>
        <time>2015-06-07T10:59:40Z</time>
      </trkpt>
      <trkpt lat="47.88975" lon="-1.76301">
        <ele>49</ele>
        <time>2015-06-07T10:59:41Z</time>
      </trkpt>
      <trkpt lat="47.88972" lon="-1.76301">
        <ele>49</ele>
        <time>2015-06-07T10:59:42Z</time>
      </trkpt>
      <trkpt lat="47.88971" lon="-1.76302">
        <ele>49</ele>
        <time>2015-06-07T10:59:43Z</time>
      </trkpt>
      <trkpt lat="47.88969" lon="-1.76302">
        <ele>49</ele>
        <time>2015-06-07T10:59:44Z</time>
      </trkpt>
      <trkpt lat="47.88966" lon="-1.76303">
        <ele>49</ele>
        <time>2015-06-07T10:59:45Z</time>
      </trkpt>
      <trkpt lat="47.88963" lon="-1.76303">
        <ele>48</ele>
        <time>2015-06-07T10:59:46Z</time>
      </trkpt>
      <trkpt lat="47.88961" lon="-1.76303">
        <ele>48</ele>
        <time>2015-06-07T10:59:47Z</time>
      </trkpt>
      <trkpt lat="47.88958" lon="-1.76301">
        <ele>48</ele>
        <time>2015-06-07T10:59:48Z</time>
      </trkpt>
      <trkpt lat="47.88955" lon="-1.76301">
        <ele>47</ele>
        <time>2015-06-07T10:59:49Z</time>
      </trkpt>
      <trkpt lat="47.88952" lon="-1.763">
        <ele>47</ele>
        <time>2015-06-07T10:59:50Z</time>
      </trkpt>
      <trkpt lat="47.88949" lon="-1.76298">
        <ele>47</ele>
        <time>2015-06-07T10:59:51Z</time>
      </trkpt>
      <trkpt lat="47.88946" lon="-1.76296">
        <ele>46</ele>
        <time>2015-06-07T10:59:52Z</time>
      </trkpt>
      <trkpt lat="47.88943" lon="-1.76295">
        <ele>46</ele>
        <time>2015-06-07T10:59:53Z</time>
      </trkpt>
      <trkpt lat="47.88941" lon="-1.76293">
        <ele>45</ele>
        <time>2015-06-07T10:59:54Z</time>
      </trkpt>
      <trkpt lat="47.88938" lon="-1.76291">
        <ele>45</ele>
        <time>2015-06-07T10:59:55Z</time>
      </trkpt>
      <trkpt lat="47.88936" lon="-1.76289">
        <ele>45</ele>
        <time>2015-06-07T10:59:56Z</time>
      </trkpt>
      <trkpt lat="47.88934" lon="-1.76287">
        <ele>44</ele>
        <time>2015-06-07T10:59:57Z</time>
      </trkpt>
      <trkpt lat="47.88932" lon="-1.76284">
        <ele>44</ele>
        <time>2015-06-07T10:59:58Z</time>
      </trkpt>
      <trkpt lat="47.88929" lon="-1.76281">
        <ele>44</ele>
        <time>2015-06-07T10:59:59Z</time>
      </trkpt>
      <trkpt lat="47.88927" lon="-1.76278">
        <ele>44</ele>
        <time>2015-06-07T11:00:00Z</time>
      </trkpt>
      <trkpt lat="47.88925" lon="-1.76274">
        <ele>43</ele>
        <time>2015-06-07T11:00:01Z</time>
      </trkpt>
      <trkpt lat="47.88923" lon="-1.76271">
        <ele>43</ele>
        <time>2015-06-07T11:00:02Z</time>
      </trkpt>
      <trkpt lat="47.88921" lon="-1.76267">
        <ele>43</ele>
        <time>2015-06-07T11:00:03Z</time>
      </trkpt>
      <trkpt lat="47.8892" lon="-1.76263">
        <ele>43</ele>
        <time>2015-06-07T11:00:04Z</time>
      </trkpt>
      <trkpt lat="47.8892" lon="-1.76259">
        <ele>43</ele>
        <time>2015-06-07T11:00:05Z</time>
      </trkpt>
      <trkpt lat="47.88919" lon="-1.76256">
        <ele>42</ele>
        <time>2015-06-07T11:00:06Z</time>
      </trkpt>
      <trkpt lat="47.88916" lon="-1.76255">
        <ele>42</ele>
        <time>2015-06-07T11:00:07Z</time>
      </trkpt>
      <trkpt lat="47.88913" lon="-1.76253">
        <ele>42</ele>
        <time>2015-06-07T11:00:08Z</time>
      </trkpt>
      <trkpt lat="47.8891" lon="-1.76252">
        <ele>42</ele>
        <time>2015-06-07T11:00:09Z</time>
      </trkpt>
      <trkpt lat="47.88909" lon="-1.7625">
        <ele>42</ele>
        <time>2015-06-07T11:00:10Z</time>
      </trkpt>
      <trkpt lat="47.88908" lon="-1.76247">
        <ele>42</ele>
        <time>2015-06-07T11:00:11Z</time>
      </trkpt>
      <trkpt lat="47.88907" lon="-1.76245">
        <ele>42</ele>
        <time>2015-06-07T11:00:12Z</time>
      </trkpt>
      <trkpt lat="47.88906" lon="-1.76244">
        <ele>42</ele>
        <time>2015-06-07T11:00:13Z</time>
      </trkpt>
      <trkpt lat="47.88904" lon="-1.76242">
        <ele>41</ele>
        <time>2015-06-07T11:00:14Z</time>
      </trkpt>
      <trkpt lat="47.88903" lon="-1.76239">
        <ele>41</ele>
        <time>2015-06-07T11:00:15Z</time>
      </trkpt>
      <trkpt lat="47.88902" lon="-1.76238">
        <ele>41</ele>
        <time>2015-06-07T11:00:16Z</time>
      </trkpt>
      <trkpt lat="47.88902" lon="-1.76235">
        <ele>41</ele>
        <time>2015-06-07T11:00:17Z</time>
      </trkpt>
      <trkpt lat="47.88902" lon="-1.76233">
        <ele>41</ele>
        <time>2015-06-07T11:00:18Z</time>
      </trkpt>
      <trkpt lat="47.88901" lon="-1.76231">
        <ele>41</ele>
        <time>2015-06-07T11:00:19Z</time>
      </trkpt>
      <trkpt lat="47.889" lon="-1.76228">
        <ele>41</ele>
        <time>2015-06-07T11:00:20Z</time>
      </trkpt>
      <trkpt lat="47.88899" lon="-1.76225">
        <ele>41</ele>
        <time>2015-06-07T11:00:21Z</time>
      </trkpt>
      <trkpt lat="47.88898" lon="-1.76221">
        <ele>41</ele>
        <time>2015-06-07T11:00:22Z</time>
      </trkpt>
      <trkpt lat="47.88897" lon="-1.76218">
        <ele>41</ele>
        <time>2015-06-07T11:00:23Z</time>
      </trkpt>
      <trkpt lat="47.88897" lon="-1.76215">
        <ele>41</ele>
        <time>2015-06-07T11:00:24Z</time>
      </trkpt>
      <trkpt lat="47.88895" lon="-1.76211">
        <ele>41</ele>
        <time>2015-06-07T11:00:25Z</time>
      </trkpt>
      <trkpt lat="47.88894" lon="-1.76208">
        <ele>41</ele>
        <time>2015-06-07T11:00:26Z</time>
      </trkpt>
      <trkpt lat="47.88893" lon="-1.76205">
        <ele>41</ele>
        <time>2015-06-07T11:00:27Z</time>
      </trkpt>
      <trkpt lat="47.88891" lon="-1.76202">
        <ele>41</ele>
        <time>2015-06-07T11:00:28Z</time>
      </trkpt>
      <trkpt lat="47.8889" lon="-1.76198">
        <ele>41</ele>
        <time>2015-06-07T11:00:29Z</time>
      </trkpt>
      <trkpt lat="47.88889" lon="-1.76193">
        <ele>41</ele>
        <time>2015-06-07T11:00:30Z</time>
      </trkpt>
      <trkpt lat="47.88888" lon="-1.76189">
        <ele>41</ele>
        <time>2015-06-07T11:00:31Z</time>
      </trkpt>
      <trkpt lat="47.88887" lon="-1.76184">
        <ele>41</ele>
        <time>2015-06-07T11:00:32Z</time>
      </trkpt>
      <trkpt lat="47.88886" lon="-1.7618">
        <ele>41</ele>
        <time>2015-06-07T11:00:33Z</time>
      </trkpt>
      <trkpt lat="47.88884" lon="-1.76175">
        <ele>41</ele>
        <time>2015-06-07T11:00:34Z</time>
      </trkpt>
      <trkpt lat="47.88884" lon="-1.7617">
        <ele>41</ele>
        <time>2015-06-07T11:00:35Z</time>
      </trkpt>
      <trkpt lat="47.88883" lon="-1.76166">
        <ele>41</ele>
        <time>2015-06-07T11:00:36Z</time>
      </trkpt>
      <trkpt lat="47.88881" lon="-1.76161">
        <ele>41</ele>
        <time>2015-06-07T11:00:37Z</time>
      </trkpt>
      <trkpt lat="47.88879" lon="-1.76155">
        <ele>42</ele>
        <time>2015-06-07T11:00:38Z</time>
      </trkpt>
      <trkpt lat="47.88878" lon="-1.7615">
        <ele>42</ele>
        <time>2015-06-07T11:00:39Z</time>
      </trkpt>
      <trkpt lat="47.88876" lon="-1.76146">
        <ele>42</ele>
        <time>2015-06-07T11:00:40Z</time>
      </trkpt>
      <trkpt lat="47.88875" lon="-1.76143">
        <ele>42</ele>
        <time>2015-06-07T11:00:41Z</time>
      </trkpt>
      <trkpt lat="47.88874" lon="-1.76138">
        <ele>42</ele>
        <time>2015-06-07T11:00:42Z</time>
      </trkpt>
      <trkpt lat="47.88874" lon="-1.76134">
        <ele>43</ele>
        <time>2015-06-07T11:00:43Z</time>
      </trkpt>
      <trkpt lat="47.88873" lon="-1.76131">
        <ele>43</ele>
        <time>2015-06-07T11:00:44Z</time>
      </trkpt>
      <trkpt lat="47.88873" lon="-1.76128">
        <ele>43</ele>
        <time>2015-06-07T11:00:45Z</time>
      </trkpt>
      <trkpt lat="47.88872" lon="-1.76124">
        <ele>43</ele>
        <time>2015-06-07T11:00:46Z</time>
      </trkpt>
      <trkpt lat="47.88871" lon="-1.7612">
        <ele>43</ele>
        <time>2015-06-07T11:00:47Z</time>
      </trkpt>
      <trkpt lat="47.8887" lon="-1.76116">
        <ele>43</ele>
        <time>2015-06-07T11:00:48Z</time>
      </trkpt>
      <trkpt lat="47.8887" lon="-1.76112">
        <ele>43</ele>
        <time>2015-06-07T11:00:49Z</time>
      </trkpt>
      <trkpt lat="47.88868" lon="-1.76107">
        <ele>43</ele>
        <time>2015-06-07T11:00:50Z</time>
      </trkpt>
      <trkpt lat="47.88867" lon="-1.76104">
        <ele>44</ele>
        <time>2015-06-07T11:00:51Z</time>
      </trkpt>
      <trkpt lat="47.88866" lon="-1.76099">
        <ele>44</ele>
        <time>2015-06-07T11:00:52Z</time>
      </trkpt>
      <trkpt lat="47.88865" lon="-1.76094">
        <ele>44</ele>
        <time>2015-06-07T11:00:53Z</time>
      </trkpt>
      <trkpt lat="47.88864" lon="-1.76089">
        <ele>44</ele>
        <time>2015-06-07T11:00:54Z</time>
      </trkpt>
      <trkpt lat="47.88864" lon="-1.76085">
        <ele>44</ele>
        <time>2015-06-07T11:00:55Z</time>
      </trkpt>
      <trkpt lat="47.88864" lon="-1.76082">
        <ele>44</ele>
        <time>2015-06-07T11:00:56Z</time>
      </trkpt>
      <trkpt lat="47.88863" lon="-1.76078">
        <ele>44</ele>
        <time>2015-06-07T11:00:57Z</time>
      </trkpt>
      <trkpt lat="47.88862" lon="-1.76075">
        <ele>44</ele>
        <time>2015-06-07T11:00:58Z</time>
      </trkpt>
      <trkpt lat="47.88861" lon="-1.76071">
        <ele>44</ele>
        <time>2015-06-07T11:00:59Z</time>
      </trkpt>
      <trkpt lat="47.8886" lon="-1.76066">
        <ele>44</ele>
        <time>2015-06-07T11:01:00Z</time>
      </trkpt>
      <trkpt lat="47.88859" lon="-1.76061">
        <ele>45</ele>
        <time>2015-06-07T11:01:01Z</time>
      </trkpt>
      <trkpt lat="47.88859" lon="-1.76056">
        <ele>45</ele>
        <time>2015-06-07T11:01:02Z</time>
      </trkpt>
      <trkpt lat="47.88858" lon="-1.76051">
        <ele>45</ele>
        <time>2015-06-07T11:01:03Z</time>
      </trkpt>
      <trkpt lat="47.88858" lon="-1.76046">
        <ele>45</ele>
        <time>2015-06-07T11:01:04Z</time>
      </trkpt>
      <trkpt lat="47.88857" lon="-1.76041">
        <ele>45</ele>
        <time>2015-06-07T11:01:05Z</time>
      </trkpt>
      <trkpt lat="47.88857" lon="-1.76037">
        <ele>45</ele>
        <time>2015-06-07T11:01:06Z</time>
      </trkpt>
      <trkpt lat="47.88857" lon="-1.76032">
        <ele>45</ele>
        <time>2015-06-07T11:01:07Z</time>
      </trkpt>
      <trkpt lat="47.88857" lon="-1.76028">
        <ele>45</ele>
        <time>2015-06-07T11:01:08Z</time>
      </trkpt>
      <trkpt lat="47.88857" lon="-1.76024">
        <ele>45</ele>
        <time>2015-06-07T11:01:09Z</time>
      </trkpt>
      <trkpt lat="47.88857" lon="-1.76021">
        <ele>45</ele>
        <time>2015-06-07T11:01:10Z</time>
      </trkpt>
      <trkpt lat="47.88857" lon="-1.76016">
        <ele>45</ele>
        <time>2015-06-07T11:01:11Z</time>
      </trkpt>
      <trkpt lat="47.88859" lon="-1.76012">
        <ele>45</ele>
        <time>2015-06-07T11:01:12Z</time>
      </trkpt>
      <trkpt lat="47.88861" lon="-1.76007">
        <ele>44</ele>
        <time>2015-06-07T11:01:13Z</time>
      </trkpt>
      <trkpt lat="47.88863" lon="-1.76001">
        <ele>44</ele>
        <time>2015-06-07T11:01:14Z</time>
      </trkpt>
      <trkpt lat="47.88865" lon="-1.75996">
        <ele>43</ele>
        <time>2015-06-07T11:01:15Z</time>
      </trkpt>
      <trkpt lat="47.88867" lon="-1.75992">
        <ele>43</ele>
        <time>2015-06-07T11:01:16Z</time>
      </trkpt>
      <trkpt lat="47.88869" lon="-1.75988">
        <ele>43</ele>
        <time>2015-06-07T11:01:17Z</time>
      </trkpt>
      <trkpt lat="47.8887" lon="-1.75985">
        <ele>42</ele>
        <time>2015-06-07T11:01:18Z</time>
      </trkpt>
      <trkpt lat="47.88871" lon="-1.75982">
        <ele>42</ele>
        <time>2015-06-07T11:01:19Z</time>
      </trkpt>
      <trkpt lat="47.88871" lon="-1.75978">
        <ele>42</ele>
        <time>2015-06-07T11:01:20Z</time>
      </trkpt>
      <trkpt lat="47.88872" lon="-1.75975">
        <ele>42</ele>
        <time>2015-06-07T11:01:21Z</time>
      </trkpt>
      <trkpt lat="47.88873" lon="-1.75973">
        <ele>42</ele>
        <time>2015-06-07T11:01:22Z</time>
      </trkpt>
      <trkpt lat="47.88874" lon="-1.7597">
        <ele>43</ele>
        <time>2015-06-07T11:01:23Z</time>
      </trkpt>
      <trkpt lat="47.88874" lon="-1.75967">
        <ele>43</ele>
        <time>2015-06-07T11:01:24Z</time>
      </trkpt>
      <trkpt lat="47.88875" lon="-1.75964">
        <ele>43</ele>
        <time>2015-06-07T11:01:25Z</time>
      </trkpt>
      <trkpt lat="47.88876" lon="-1.75961">
        <ele>43</ele>
        <time>2015-06-07T11:01:26Z</time>
      </trkpt>
      <trkpt lat="47.88876" lon="-1.75959">
        <ele>43</ele>
        <time>2015-06-07T11:01:27Z</time>
      </trkpt>
      <trkpt lat="47.88877" lon="-1.75958">
        <ele>43</ele>
        <time>2015-06-07T11:01:28Z</time>
      </trkpt>
      <trkpt lat="47.88877" lon="-1.75957">
        <ele>43</ele>
        <time>2015-06-07T11:01:29Z</time>
      </trkpt>
      <trkpt lat="47.88877" lon="-1.75956">
        <ele>43</ele>
        <time>2015-06-07T11:01:30Z</time>
      </trkpt>
      <trkpt lat="47.88877" lon="-1.75955">
        <ele>43</ele>
        <time>2015-06-07T11:01:31Z</time>
      </trkpt>
      <trkpt lat="47.88879" lon="-1.75952">
        <ele>44</ele>
        <time>2015-06-07T11:01:32Z</time>
      </trkpt>
      <trkpt lat="47.88879" lon="-1.75952">
        <ele>44</ele>
        <time>2015-06-07T11:01:33Z</time>
      </trkpt>
      <trkpt lat="47.88879" lon="-1.75951">
        <ele>44</ele>
        <time>2015-06-07T11:01:34Z</time>
      </trkpt>
      <trkpt lat="47.88878" lon="-1.75951">
        <ele>44</ele>
        <time>2015-06-07T11:01:35Z</time>
      </trkpt>
      <trkpt lat="47.88877" lon="-1.7595">
        <ele>44</ele>
        <time>2015-06-07T11:01:36Z</time>
      </trkpt>
      <trkpt lat="47.88877" lon="-1.7595">
        <ele>44</ele>
        <time>2015-06-07T11:01:37Z</time>
      </trkpt>
      <trkpt lat="47.88876" lon="-1.7595">
        <ele>44</ele>
        <time>2015-06-07T11:01:38Z</time>
      </trkpt>
      <trkpt lat="47.88874" lon="-1.7595">
        <ele>44</ele>
        <time>2015-06-07T11:01:39Z</time>
      </trkpt>
      <trkpt lat="47.88873" lon="-1.7595">
        <ele>44</ele>
        <time>2015-06-07T11:01:40Z</time>
      </trkpt>
      <trkpt lat="47.88872" lon="-1.75949">
        <ele>44</ele>
        <time>2015-06-07T11:01:41Z</time>
      </trkpt>
      <trkpt lat="47.88871" lon="-1.75948">
        <ele>44</ele>
        <time>2015-06-07T11:01:42Z</time>
      </trkpt>
      <trkpt lat="47.88871" lon="-1.75947">
        <ele>44</ele>
        <time>2015-06-07T11:01:43Z</time>
      </trkpt>
      <trkpt lat="47.88871" lon="-1.75947">
        <ele>44</ele>
        <time>2015-06-07T11:01:44Z</time>
      </trkpt>
      <trkpt lat="47.88869" lon="-1.75946">
        <ele>44</ele>
        <time>2015-06-07T11:01:45Z</time>
      </trkpt>
      <trkpt lat="47.88869" lon="-1.75946">
        <ele>44</ele>
        <time>2015-06-07T11:01:46Z</time>
      </trkpt>
      <trkpt lat="47.88868" lon="-1.75945">
        <ele>44</ele>
        <time>2015-06-07T11:01:47Z</time>
      </trkpt>
      <trkpt lat="47.88868" lon="-1.75945">
        <ele>44</ele>
        <time>2015-06-07T11:01:48Z</time>
      </trkpt>
      <trkpt lat="47.88868" lon="-1.75945">
        <ele>44</ele>
        <time>2015-06-07T11:01:49Z</time>
      </trkpt>
      <trkpt lat="47.88868" lon="-1.75945">
        <ele>44</ele>
        <time>2015-06-07T11:01:50Z</time>
      </trkpt>
      <trkpt lat="47.88868" lon="-1.75945">
        <ele>44</ele>
        <time>2015-06-07T11:01:51Z</time>
      </trkpt>
      <trkpt lat="47.88869" lon="-1.75945">
        <ele>44</ele>
        <time>2015-06-07T11:01:52Z</time>
      </trkpt>
      <trkpt lat="47.8887" lon="-1.75946">
        <ele>44</ele>
        <time>2015-06-07T11:01:53Z</time>
      </trkpt>
      <trkpt lat="47.8887" lon="-1.75947">
        <ele>44</ele>
        <time>2015-06-07T11:01:54Z</time>
      </trkpt>
      <trkpt lat="47.8887" lon="-1.75948">
        <ele>45</ele>
        <time>2015-06-07T11:01:55Z</time>
      </trkpt>
      <trkpt lat="47.8887" lon="-1.75949">
        <ele>45</ele>
        <time>2015-06-07T11:01:56Z</time>
      </trkpt>
      <trkpt lat="47.88871" lon="-1.7595">
        <ele>45</ele>
        <time>2015-06-07T11:01:57Z</time>
      </trkpt>
      <trkpt lat="47.88871" lon="-1.75952">
        <ele>45</ele>
        <time>2015-06-07T11:01:58Z</time>
      </trkpt>
      <trkpt lat="47.88872" lon="-1.75953">
        <ele>45</ele>
        <time>2015-06-07T11:01:59Z</time>
      </trkpt>
      <trkpt lat="47.88873" lon="-1.75953">
        <ele>45</ele>
        <time>2015-06-07T11:02:00Z</time>
      </trkpt>
      <trkpt lat="47.88873" lon="-1.75953">
        <ele>45</ele>
        <time>2015-06-07T11:02:01Z</time>
      </trkpt>
      <trkpt lat="47.88873" lon="-1.75953">
        <ele>45</ele>
        <time>2015-06-07T11:02:02Z</time>
      </trkpt>
      <trkpt lat="47.88873" lon="-1.75955">
        <ele>45</ele>
        <time>2015-06-07T11:02:03Z</time>
      </trkpt>
      <trkpt lat="47.88872" lon="-1.75955">
        <ele>45</ele>
        <time>2015-06-07T11:02:04Z</time>
      </trkpt>
      <trkpt lat="47.88871" lon="-1.75956">
        <ele>45</ele>
        <time>2015-06-07T11:02:05Z</time>
      </trkpt>
      <trkpt lat="47.8887" lon="-1.75958">
        <ele>45</ele>
        <time>2015-06-07T11:02:06Z</time>
      </trkpt>
      <trkpt lat="47.8887" lon="-1.75959">
        <ele>45</ele>
        <time>2015-06-07T11:02:07Z</time>
      </trkpt>
      <trkpt lat="47.88869" lon="-1.7596">
        <ele>45</ele>
        <time>2015-06-07T11:02:08Z</time>
      </trkpt>
      <trkpt lat="47.88869" lon="-1.75961">
        <ele>44</ele>
        <time>2015-06-07T11:02:09Z</time>
      </trkpt>
      <trkpt lat="47.88869" lon="-1.75962">
        <ele>44</ele>
        <time>2015-06-07T11:02:10Z</time>
      </trkpt>
      <trkpt lat="47.88869" lon="-1.75962">
        <ele>44</ele>
        <time>2015-06-07T11:02:11Z</time>
      </trkpt>
      <trkpt lat="47.88869" lon="-1.75962">
        <ele>44</ele>
        <time>2015-06-07T11:02:12Z</time>
      </trkpt>
      <trkpt lat="47.88869" lon="-1.75962">
        <ele>44</ele>
        <time>2015-06-07T11:02:13Z</time>
      </trkpt>
      <trkpt lat="47.88869" lon="-1.75962">
        <ele>44</ele>
        <time>2015-06-07T11:02:14Z</time>
      </trkpt>
      <trkpt lat="47.8887" lon="-1.75961">
        <ele>44</ele>
        <time>2015-06-07T11:02:15Z</time>
      </trkpt>
      <trkpt lat="47.8887" lon="-1.7596">
        <ele>44</ele>
        <time>2015-06-07T11:02:16Z</time>
      </trkpt>
      <trkpt lat="47.88871" lon="-1.75958">
        <ele>44</ele>
        <time>2015-06-07T11:02:17Z</time>
      </trkpt>
      <trkpt lat="47.88873" lon="-1.75957">
        <ele>45</ele>
        <time>2015-06-07T11:02:18Z</time>
      </trkpt>
      <trkpt lat="47.88874" lon="-1.75956">
        <ele>45</ele>
        <time>2015-06-07T11:02:19Z</time>
      </trkpt>
      <trkpt lat="47.88877" lon="-1.75954">
        <ele>45</ele>
        <time>2015-06-07T11:02:20Z</time>
      </trkpt>
      <trkpt lat="47.88879" lon="-1.75952">
        <ele>45</ele>
        <time>2015-06-07T11:02:21Z</time>
      </trkpt>
      <trkpt lat="47.88882" lon="-1.7595">
        <ele>45</ele>
        <time>2015-06-07T11:02:22Z</time>
      </trkpt>
      <trkpt lat="47.88882" lon="-1.7595">
        <ele>45</ele>
        <time>2015-06-07T11:02:23Z</time>
      </trkpt>
      <trkpt lat="47.88886" lon="-1.75946">
        <ele>45</ele>
        <time>2015-06-07T11:02:24Z</time>
      </trkpt>
      <trkpt lat="47.88889" lon="-1.75944">
        <ele>45</ele>
        <time>2015-06-07T11:02:25Z</time>
      </trkpt>
      <trkpt lat="47.88892" lon="-1.75942">
        <ele>45</ele>
        <time>2015-06-07T11:02:26Z</time>
      </trkpt>
      <trkpt lat="47.88892" lon="-1.75942">
        <ele>45</ele>
        <time>2015-06-07T11:02:27Z</time>
      </trkpt>
      <trkpt lat="47.88895" lon="-1.7594">
        <ele>45</ele>
        <time>2015-06-07T11:02:28Z</time>
      </trkpt>
      <trkpt lat="47.88901" lon="-1.75936">
        <ele>45</ele>
        <time>2015-06-07T11:02:29Z</time>
      </trkpt>
      <trkpt lat="47.88903" lon="-1.75933">
        <ele>45</ele>
        <time>2015-06-07T11:02:30Z</time>
      </trkpt>
      <trkpt lat="47.88906" lon="-1.75931">
        <ele>46</ele>
        <time>2015-06-07T11:02:31Z</time>
      </trkpt>
      <trkpt lat="47.88908" lon="-1.75928">
        <ele>46</ele>
        <time>2015-06-07T11:02:32Z</time>
      </trkpt>
      <trkpt lat="47.8891" lon="-1.75924">
        <ele>46</ele>
        <time>2015-06-07T11:02:33Z</time>
      </trkpt>
      <trkpt lat="47.88912" lon="-1.75922">
        <ele>46</ele>
        <time>2015-06-07T11:02:34Z</time>
      </trkpt>
      <trkpt lat="47.88912" lon="-1.75922">
        <ele>46</ele>
        <time>2015-06-07T11:02:35Z</time>
      </trkpt>
      <trkpt lat="47.88914" lon="-1.75919">
        <ele>46</ele>
        <time>2015-06-07T11:02:36Z</time>
      </trkpt>
      <trkpt lat="47.88921" lon="-1.75913">
        <ele>47</ele>
        <time>2015-06-07T11:02:37Z</time>
      </trkpt>
      <trkpt lat="47.88924" lon="-1.75911">
        <ele>47</ele>
        <time>2015-06-07T11:02:38Z</time>
      </trkpt>
      <trkpt lat="47.88927" lon="-1.75909">
        <ele>47</ele>
        <time>2015-06-07T11:02:39Z</time>
      </trkpt>
      <trkpt lat="47.8893" lon="-1.75906">
        <ele>47</ele>
        <time>2015-06-07T11:02:40Z</time>
      </trkpt>
      <trkpt lat="47.8893" lon="-1.75906">
        <ele>47</ele>
        <time>2015-06-07T11:02:41Z</time>
      </trkpt>
      <trkpt lat="47.88937" lon="-1.75901">
        <ele>47</ele>
        <time>2015-06-07T11:02:42Z</time>
      </trkpt>
      <trkpt lat="47.8894" lon="-1.75899">
        <ele>47</ele>
        <time>2015-06-07T11:02:43Z</time>
      </trkpt>
      <trkpt lat="47.88944" lon="-1.75897">
        <ele>47</ele>
        <time>2015-06-07T11:02:44Z</time>
      </trkpt>
      <trkpt lat="47.88948" lon="-1.75894">
        <ele>47</ele>
        <time>2015-06-07T11:02:45Z</time>
      </trkpt>
      <trkpt lat="47.88951" lon="-1.75892">
        <ele>47</ele>
        <time>2015-06-07T11:02:46Z</time>
      </trkpt>
      <trkpt lat="47.88955" lon="-1.7589">
        <ele>48</ele>
        <time>2015-06-07T11:02:47Z</time>
      </trkpt>
      <trkpt lat="47.88958" lon="-1.75888">
        <ele>48</ele>
        <time>2015-06-07T11:02:48Z</time>
      </trkpt>
      <trkpt lat="47.88961" lon="-1.75885">
        <ele>48</ele>
        <time>2015-06-07T11:02:49Z</time>
      </trkpt>
      <trkpt lat="47.88964" lon="-1.75882">
        <ele>48</ele>
        <time>2015-06-07T11:02:50Z</time>
      </trkpt>
      <trkpt lat="47.88968" lon="-1.75879">
        <ele>48</ele>
        <time>2015-06-07T11:02:51Z</time>
      </trkpt>
      <trkpt lat="47.88971" lon="-1.75876">
        <ele>49</ele>
        <time>2015-06-07T11:02:52Z</time>
      </trkpt>
      <trkpt lat="47.88974" lon="-1.75874">
        <ele>49</ele>
        <time>2015-06-07T11:02:53Z</time>
      </trkpt>
      <trkpt lat="47.88978" lon="-1.75871">
        <ele>49</ele>
        <time>2015-06-07T11:02:54Z</time>
      </trkpt>
      <trkpt lat="47.88981" lon="-1.75868">
        <ele>49</ele>
        <time>2015-06-07T11:02:55Z</time>
      </trkpt>
      <trkpt lat="47.88984" lon="-1.75865">
        <ele>49</ele>
        <time>2015-06-07T11:02:56Z</time>
      </trkpt>
      <trkpt lat="47.88988" lon="-1.75862">
        <ele>49</ele>
        <time>2015-06-07T11:02:57Z</time>
      </trkpt>
      <trkpt lat="47.88991" lon="-1.7586">
        <ele>49</ele>
        <time>2015-06-07T11:02:58Z</time>
      </trkpt>
      <trkpt lat="47.88994" lon="-1.75857">
        <ele>49</ele>
        <time>2015-06-07T11:02:59Z</time>
      </trkpt>
      <trkpt lat="47.88998" lon="-1.75854">
        <ele>48</ele>
        <time>2015-06-07T11:03:00Z</time>
      </trkpt>
      <trkpt lat="47.89001" lon="-1.75852">
        <ele>48</ele>
        <time>2015-06-07T11:03:01Z</time>
      </trkpt>
      <trkpt lat="47.89004" lon="-1.75851">
        <ele>48</ele>
        <time>2015-06-07T11:03:02Z</time>
      </trkpt>
      <trkpt lat="47.89007" lon="-1.75849">
        <ele>48</ele>
        <time>2015-06-07T11:03:03Z</time>
      </trkpt>
      <trkpt lat="47.8901" lon="-1.75847">
        <ele>48</ele>
        <time>2015-06-07T11:03:04Z</time>
      </trkpt>
      <trkpt lat="47.89014" lon="-1.75844">
        <ele>48</ele>
        <time>2015-06-07T11:03:05Z</time>
      </trkpt>
      <trkpt lat="47.89017" lon="-1.75842">
        <ele>48</ele>
        <time>2015-06-07T11:03:06Z</time>
      </trkpt>
      <trkpt lat="47.8902" lon="-1.7584">
        <ele>48</ele>
        <time>2015-06-07T11:03:07Z</time>
      </trkpt>
      <trkpt lat="47.89023" lon="-1.75838">
        <ele>48</ele>
        <time>2015-06-07T11:03:08Z</time>
      </trkpt>
      <trkpt lat="47.89026" lon="-1.75835">
        <ele>48</ele>
        <time>2015-06-07T11:03:09Z</time>
      </trkpt>
      <trkpt lat="47.89029" lon="-1.75833">
        <ele>48</ele>
        <time>2015-06-07T11:03:10Z</time>
      </trkpt>
      <trkpt lat="47.89032" lon="-1.75831">
        <ele>48</ele>
        <time>2015-06-07T11:03:11Z</time>
      </trkpt>
      <trkpt lat="47.89035" lon="-1.75829">
        <ele>49</ele>
        <time>2015-06-07T11:03:12Z</time>
      </trkpt>
      <trkpt lat="47.89035" lon="-1.75829">
        <ele>49</ele>
        <time>2015-06-07T11:03:13Z</time>
      </trkpt>
      <trkpt lat="47.89041" lon="-1.75825">
        <ele>49</ele>
        <time>2015-06-07T11:03:14Z</time>
      </trkpt>
      <trkpt lat="47.89044" lon="-1.75824">
        <ele>49</ele>
        <time>2015-06-07T11:03:15Z</time>
      </trkpt>
      <trkpt lat="47.89047" lon="-1.75821">
        <ele>49</ele>
        <time>2015-06-07T11:03:16Z</time>
      </trkpt>
      <trkpt lat="47.89047" lon="-1.75821">
        <ele>49</ele>
        <time>2015-06-07T11:03:17Z</time>
      </trkpt>
      <trkpt lat="47.89053" lon="-1.75817">
        <ele>49</ele>
        <time>2015-06-07T11:03:18Z</time>
      </trkpt>
      <trkpt lat="47.89053" lon="-1.75817">
        <ele>49</ele>
        <time>2015-06-07T11:03:19Z</time>
      </trkpt>
      <trkpt lat="47.89059" lon="-1.75813">
        <ele>49</ele>
        <time>2015-06-07T11:03:20Z</time>
      </trkpt>
      <trkpt lat="47.89062" lon="-1.75811">
        <ele>49</ele>
        <time>2015-06-07T11:03:21Z</time>
      </trkpt>
      <trkpt lat="47.89065" lon="-1.75809">
        <ele>50</ele>
        <time>2015-06-07T11:03:22Z</time>
      </trkpt>
      <trkpt lat="47.89068" lon="-1.75808">
        <ele>50</ele>
        <time>2015-06-07T11:03:23Z</time>
      </trkpt>
      <trkpt lat="47.89072" lon="-1.75806">
        <ele>50</ele>
        <time>2015-06-07T11:03:24Z</time>
      </trkpt>
      <trkpt lat="47.89072" lon="-1.75806">
        <ele>50</ele>
        <time>2015-06-07T11:03:25Z</time>
      </trkpt>
      <trkpt lat="47.89075" lon="-1.75804">
        <ele>50</ele>
        <time>2015-06-07T11:03:26Z</time>
      </trkpt>
      <trkpt lat="47.89081" lon="-1.758">
        <ele>50</ele>
        <time>2015-06-07T11:03:27Z</time>
      </trkpt>
      <trkpt lat="47.89084" lon="-1.75798">
        <ele>50</ele>
        <time>2015-06-07T11:03:28Z</time>
      </trkpt>
      <trkpt lat="47.89087" lon="-1.75797">
        <ele>50</ele>
        <time>2015-06-07T11:03:29Z</time>
      </trkpt>
      <trkpt lat="47.8909" lon="-1.75795">
        <ele>50</ele>
        <time>2015-06-07T11:03:30Z</time>
      </trkpt>
      <trkpt lat="47.89094" lon="-1.75793">
        <ele>51</ele>
        <time>2015-06-07T11:03:31Z</time>
      </trkpt>
      <trkpt lat="47.89094" lon="-1.75793">
        <ele>51</ele>
        <time>2015-06-07T11:03:32Z</time>
      </trkpt>
      <trkpt lat="47.89098" lon="-1.75796">
        <ele>51</ele>
        <time>2015-06-07T11:03:33Z</time>
      </trkpt>
      <trkpt lat="47.89099" lon="-1.75798">
        <ele>51</ele>
        <time>2015-06-07T11:03:34Z</time>
      </trkpt>
      <trkpt lat="47.891" lon="-1.75802">
        <ele>51</ele>
        <time>2015-06-07T11:03:35Z</time>
      </trkpt>
      <trkpt lat="47.89102" lon="-1.75806">
        <ele>51</ele>
        <time>2015-06-07T11:03:36Z</time>
      </trkpt>
      <trkpt lat="47.89103" lon="-1.7581">
        <ele>51</ele>
        <time>2015-06-07T11:03:37Z</time>
      </trkpt>
      <trkpt lat="47.89105" lon="-1.75814">
        <ele>51</ele>
        <time>2015-06-07T11:03:38Z</time>
      </trkpt>
      <trkpt lat="47.89108" lon="-1.75817">
        <ele>51</ele>
        <time>2015-06-07T11:03:39Z</time>
      </trkpt>
      <trkpt lat="47.89111" lon="-1.75818">
        <ele>51</ele>
        <time>2015-06-07T11:03:40Z</time>
      </trkpt>
      <trkpt lat="47.89115" lon="-1.75819">
        <ele>51</ele>
        <time>2015-06-07T11:03:41Z</time>
      </trkpt>
      <trkpt lat="47.89118" lon="-1.75821">
        <ele>51</ele>
        <time>2015-06-07T11:03:42Z</time>
      </trkpt>
      <trkpt lat="47.89121" lon="-1.75822">
        <ele>51</ele>
        <time>2015-06-07T11:03:43Z</time>
      </trkpt>
      <trkpt lat="47.89124" lon="-1.75824">
        <ele>51</ele>
        <time>2015-06-07T11:03:44Z</time>
      </trkpt>
      <trkpt lat="47.89128" lon="-1.75826">
        <ele>51</ele>
        <time>2015-06-07T11:03:45Z</time>
      </trkpt>
      <trkpt lat="47.89131" lon="-1.75828">
        <ele>51</ele>
        <time>2015-06-07T11:03:46Z</time>
      </trkpt>
      <trkpt lat="47.89134" lon="-1.75831">
        <ele>51</ele>
        <time>2015-06-07T11:03:47Z</time>
      </trkpt>
      <trkpt lat="47.89134" lon="-1.75831">
        <ele>51</ele>
        <time>2015-06-07T11:03:48Z</time>
      </trkpt>
      <trkpt lat="47.89138" lon="-1.75834">
        <ele>51</ele>
        <time>2015-06-07T11:03:49Z</time>
      </trkpt>
      <trkpt lat="47.89144" lon="-1.75838">
        <ele>51</ele>
        <time>2015-06-07T11:03:50Z</time>
      </trkpt>
      <trkpt lat="47.89147" lon="-1.75841">
        <ele>52</ele>
        <time>2015-06-07T11:03:51Z</time>
      </trkpt>
      <trkpt lat="47.89151" lon="-1.75844">
        <ele>52</ele>
        <time>2015-06-07T11:03:52Z</time>
      </trkpt>
      <trkpt lat="47.89151" lon="-1.75844">
        <ele>52</ele>
        <time>2015-06-07T11:03:53Z</time>
      </trkpt>
      <trkpt lat="47.89154" lon="-1.75846">
        <ele>52</ele>
        <time>2015-06-07T11:03:54Z</time>
      </trkpt>
      <trkpt lat="47.89157" lon="-1.75848">
        <ele>52</ele>
        <time>2015-06-07T11:03:55Z</time>
      </trkpt>
      <trkpt lat="47.8916" lon="-1.75852">
        <ele>52</ele>
        <time>2015-06-07T11:03:56Z</time>
      </trkpt>
      <trkpt lat="47.89164" lon="-1.75855">
        <ele>52</ele>
        <time>2015-06-07T11:03:57Z</time>
      </trkpt>
      <trkpt lat="47.89171" lon="-1.75861">
        <ele>53</ele>
        <time>2015-06-07T11:03:58Z</time>
      </trkpt>
      <trkpt lat="47.89175" lon="-1.75864">
        <ele>53</ele>
        <time>2015-06-07T11:03:59Z</time>
      </trkpt>
      <trkpt lat="47.89178" lon="-1.75866">
        <ele>53</ele>
        <time>2015-06-07T11:04:00Z</time>
      </trkpt>
      <trkpt lat="47.89178" lon="-1.75866">
        <ele>53</ele>
        <time>2015-06-07T11:04:01Z</time>
      </trkpt>
      <trkpt lat="47.89186" lon="-1.75873">
        <ele>53</ele>
        <time>2015-06-07T11:04:02Z</time>
      </trkpt>
      <trkpt lat="47.89186" lon="-1.75873">
        <ele>53</ele>
        <time>2015-06-07T11:04:03Z</time>
      </trkpt>
      <trkpt lat="47.8919" lon="-1.75876">
        <ele>53</ele>
        <time>2015-06-07T11:04:04Z</time>
      </trkpt>
      <trkpt lat="47.89197" lon="-1.75883">
        <ele>53</ele>
        <time>2015-06-07T11:04:05Z</time>
      </trkpt>
      <trkpt lat="47.89201" lon="-1.75887">
        <ele>53</ele>
        <time>2015-06-07T11:04:06Z</time>
      </trkpt>
      <trkpt lat="47.89201" lon="-1.75887">
        <ele>53</ele>
        <time>2015-06-07T11:04:07Z</time>
      </trkpt>
      <trkpt lat="47.89208" lon="-1.75894">
        <ele>53</ele>
        <time>2015-06-07T11:04:08Z</time>
      </trkpt>
      <trkpt lat="47.89208" lon="-1.75894">
        <ele>53</ele>
        <time>2015-06-07T11:04:09Z</time>
      </trkpt>
      <trkpt lat="47.89215" lon="-1.75902">
        <ele>53</ele>
        <time>2015-06-07T11:04:10Z</time>
      </trkpt>
      <trkpt lat="47.89215" lon="-1.75902">
        <ele>53</ele>
        <time>2015-06-07T11:04:11Z</time>
      </trkpt>
      <trkpt lat="47.89219" lon="-1.75906">
        <ele>53</ele>
        <time>2015-06-07T11:04:12Z</time>
      </trkpt>
      <trkpt lat="47.89223" lon="-1.7591">
        <ele>53</ele>
        <time>2015-06-07T11:04:13Z</time>
      </trkpt>
      <trkpt lat="47.89231" lon="-1.75919">
        <ele>54</ele>
        <time>2015-06-07T11:04:14Z</time>
      </trkpt>
      <trkpt lat="47.89235" lon="-1.75923">
        <ele>54</ele>
        <time>2015-06-07T11:04:15Z</time>
      </trkpt>
      <trkpt lat="47.89235" lon="-1.75923">
        <ele>54</ele>
        <time>2015-06-07T11:04:16Z</time>
      </trkpt>
      <trkpt lat="47.89238" lon="-1.75927">
        <ele>54</ele>
        <time>2015-06-07T11:04:17Z</time>
      </trkpt>
      <trkpt lat="47.89241" lon="-1.7593">
        <ele>54</ele>
        <time>2015-06-07T11:04:18Z</time>
      </trkpt>
      <trkpt lat="47.89245" lon="-1.75934">
        <ele>54</ele>
        <time>2015-06-07T11:04:19Z</time>
      </trkpt>
      <trkpt lat="47.89252" lon="-1.75943">
        <ele>54</ele>
        <time>2015-06-07T11:04:20Z</time>
      </trkpt>
      <trkpt lat="47.89252" lon="-1.75943">
        <ele>54</ele>
        <time>2015-06-07T11:04:21Z</time>
      </trkpt>
      <trkpt lat="47.89255" lon="-1.75947">
        <ele>53</ele>
        <time>2015-06-07T11:04:22Z</time>
      </trkpt>
      <trkpt lat="47.89264" lon="-1.75956">
        <ele>53</ele>
        <time>2015-06-07T11:04:23Z</time>
      </trkpt>
      <trkpt lat="47.89268" lon="-1.7596">
        <ele>53</ele>
        <time>2015-06-07T11:04:24Z</time>
      </trkpt>
      <trkpt lat="47.89272" lon="-1.75966">
        <ele>53</ele>
        <time>2015-06-07T11:04:25Z</time>
      </trkpt>
      <trkpt lat="47.89277" lon="-1.75971">
        <ele>53</ele>
        <time>2015-06-07T11:04:26Z</time>
      </trkpt>
      <trkpt lat="47.89277" lon="-1.75971">
        <ele>53</ele>
        <time>2015-06-07T11:04:27Z</time>
      </trkpt>
      <trkpt lat="47.89286" lon="-1.75981">
        <ele>53</ele>
        <time>2015-06-07T11:04:28Z</time>
      </trkpt>
      <trkpt lat="47.8929" lon="-1.75983">
        <ele>52</ele>
        <time>2015-06-07T11:04:29Z</time>
      </trkpt>
      <trkpt lat="47.8929" lon="-1.75983">
        <ele>52</ele>
        <time>2015-06-07T11:04:30Z</time>
      </trkpt>
      <trkpt lat="47.89298" lon="-1.75979">
        <ele>52</ele>
        <time>2015-06-07T11:04:31Z</time>
      </trkpt>
      <trkpt lat="47.89303" lon="-1.75976">
        <ele>52</ele>
        <time>2015-06-07T11:04:32Z</time>
      </trkpt>
      <trkpt lat="47.89307" lon="-1.75974">
        <ele>52</ele>
        <time>2015-06-07T11:04:33Z</time>
      </trkpt>
      <trkpt lat="47.89312" lon="-1.75973">
        <ele>52</ele>
        <time>2015-06-07T11:04:34Z</time>
      </trkpt>
      <trkpt lat="47.89317" lon="-1.75974">
        <ele>52</ele>
        <time>2015-06-07T11:04:35Z</time>
      </trkpt>
      <trkpt lat="47.89321" lon="-1.75976">
        <ele>52</ele>
        <time>2015-06-07T11:04:36Z</time>
      </trkpt>
      <trkpt lat="47.89323" lon="-1.7598">
        <ele>51</ele>
        <time>2015-06-07T11:04:37Z</time>
      </trkpt>
      <trkpt lat="47.89324" lon="-1.75986">
        <ele>51</ele>
        <time>2015-06-07T11:04:38Z</time>
      </trkpt>
      <trkpt lat="47.89323" lon="-1.75992">
        <ele>51</ele>
        <time>2015-06-07T11:04:39Z</time>
      </trkpt>
      <trkpt lat="47.89322" lon="-1.75999">
        <ele>51</ele>
        <time>2015-06-07T11:04:40Z</time>
      </trkpt>
      <trkpt lat="47.89321" lon="-1.76007">
        <ele>51</ele>
        <time>2015-06-07T11:04:41Z</time>
      </trkpt>
      <trkpt lat="47.89321" lon="-1.76007">
        <ele>51</ele>
        <time>2015-06-07T11:04:42Z</time>
      </trkpt>
      <trkpt lat="47.89318" lon="-1.76022">
        <ele>51</ele>
        <time>2015-06-07T11:04:43Z</time>
      </trkpt>
      <trkpt lat="47.89317" lon="-1.76031">
        <ele>51</ele>
        <time>2015-06-07T11:04:44Z</time>
      </trkpt>
      <trkpt lat="47.89315" lon="-1.76039">
        <ele>51</ele>
        <time>2015-06-07T11:04:45Z</time>
      </trkpt>
      <trkpt lat="47.89314" lon="-1.76048">
        <ele>50</ele>
        <time>2015-06-07T11:04:46Z</time>
      </trkpt>
      <trkpt lat="47.89313" lon="-1.76057">
        <ele>50</ele>
        <time>2015-06-07T11:04:47Z</time>
      </trkpt>
      <trkpt lat="47.89311" lon="-1.76067">
        <ele>50</ele>
        <time>2015-06-07T11:04:48Z</time>
      </trkpt>
      <trkpt lat="47.89309" lon="-1.76077">
        <ele>50</ele>
        <time>2015-06-07T11:04:49Z</time>
      </trkpt>
      <trkpt lat="47.89307" lon="-1.76087">
        <ele>50</ele>
        <time>2015-06-07T11:04:50Z</time>
      </trkpt>
      <trkpt lat="47.89305" lon="-1.76097">
        <ele>50</ele>
        <time>2015-06-07T11:04:51Z</time>
      </trkpt>
      <trkpt lat="47.89304" lon="-1.76108">
        <ele>49</ele>
        <time>2015-06-07T11:04:52Z</time>
      </trkpt>
      <trkpt lat="47.89302" lon="-1.76119">
        <ele>49</ele>
        <time>2015-06-07T11:04:53Z</time>
      </trkpt>
      <trkpt lat="47.89302" lon="-1.76119">
        <ele>49</ele>
        <time>2015-06-07T11:04:54Z</time>
      </trkpt>
      <trkpt lat="47.89299" lon="-1.76142">
        <ele>48</ele>
        <time>2015-06-07T11:04:55Z</time>
      </trkpt>
      <trkpt lat="47.89297" lon="-1.76153">
        <ele>48</ele>
        <time>2015-06-07T11:04:56Z</time>
      </trkpt>
      <trkpt lat="47.89296" lon="-1.76165">
        <ele>48</ele>
        <time>2015-06-07T11:04:57Z</time>
      </trkpt>
      <trkpt lat="47.89296" lon="-1.76165">
        <ele>48</ele>
        <time>2015-06-07T11:04:58Z</time>
      </trkpt>
      <trkpt lat="47.89293" lon="-1.76189">
        <ele>47</ele>
        <time>2015-06-07T11:04:59Z</time>
      </trkpt>
      <trkpt lat="47.89293" lon="-1.76189">
        <ele>47</ele>
        <time>2015-06-07T11:05:00Z</time>
      </trkpt>
      <trkpt lat="47.8929" lon="-1.76213">
        <ele>46</ele>
        <time>2015-06-07T11:05:01Z</time>
      </trkpt>
      <trkpt lat="47.89289" lon="-1.76226">
        <ele>46</ele>
        <time>2015-06-07T11:05:02Z</time>
      </trkpt>
      <trkpt lat="47.89287" lon="-1.76239">
        <ele>46</ele>
        <time>2015-06-07T11:05:03Z</time>
      </trkpt>
      <trkpt lat="47.89285" lon="-1.76251">
        <ele>45</ele>
        <time>2015-06-07T11:05:04Z</time>
      </trkpt>
      <trkpt lat="47.89285" lon="-1.76264">
        <ele>45</ele>
        <time>2015-06-07T11:05:05Z</time>
      </trkpt>
      <trkpt lat="47.89284" lon="-1.76277">
        <ele>45</ele>
        <time>2015-06-07T11:05:06Z</time>
      </trkpt>
      <trkpt lat="47.89284" lon="-1.76277">
        <ele>45</ele>
        <time>2015-06-07T11:05:07Z</time>
      </trkpt>
      <trkpt lat="47.89284" lon="-1.76289">
        <ele>44</ele>
        <time>2015-06-07T11:05:08Z</time>
      </trkpt>
      <trkpt lat="47.89284" lon="-1.76301">
        <ele>44</ele>
        <time>2015-06-07T11:05:09Z</time>
      </trkpt>
      <trkpt lat="47.89284" lon="-1.76313">
        <ele>44</ele>
        <time>2015-06-07T11:05:10Z</time>
      </trkpt>
      <trkpt lat="47.89284" lon="-1.76324">
        <ele>44</ele>
        <time>2015-06-07T11:05:11Z</time>
      </trkpt>
      <trkpt lat="47.89284" lon="-1.76334">
        <ele>44</ele>
        <time>2015-06-07T11:05:12Z</time>
      </trkpt>
      <trkpt lat="47.89284" lon="-1.76344">
        <ele>44</ele>
        <time>2015-06-07T11:05:13Z</time>
      </trkpt>
      <trkpt lat="47.89284" lon="-1.76353">
        <ele>44</ele>
        <time>2015-06-07T11:05:14Z</time>
      </trkpt>
      <trkpt lat="47.89283" lon="-1.76362">
        <ele>44</ele>
        <time>2015-06-07T11:05:15Z</time>
      </trkpt>
      <trkpt lat="47.89283" lon="-1.7637">
        <ele>44</ele>
        <time>2015-06-07T11:05:16Z</time>
      </trkpt>
      <trkpt lat="47.89284" lon="-1.76379">
        <ele>44</ele>
        <time>2015-06-07T11:05:17Z</time>
      </trkpt>
      <trkpt lat="47.89283" lon="-1.76397">
        <ele>43</ele>
        <time>2015-06-07T11:05:18Z</time>
      </trkpt>
      <trkpt lat="47.89282" lon="-1.76406">
        <ele>43</ele>
        <time>2015-06-07T11:05:19Z</time>
      </trkpt>
      <trkpt lat="47.89281" lon="-1.76416">
        <ele>43</ele>
        <time>2015-06-07T11:05:20Z</time>
      </trkpt>
      <trkpt lat="47.8928" lon="-1.76424">
        <ele>43</ele>
        <time>2015-06-07T11:05:21Z</time>
      </trkpt>
      <trkpt lat="47.89278" lon="-1.76433">
        <ele>43</ele>
        <time>2015-06-07T11:05:22Z</time>
      </trkpt>
      <trkpt lat="47.89277" lon="-1.76441">
        <ele>43</ele>
        <time>2015-06-07T11:05:23Z</time>
      </trkpt>
      <trkpt lat="47.89277" lon="-1.76441">
        <ele>43</ele>
        <time>2015-06-07T11:05:24Z</time>
      </trkpt>
      <trkpt lat="47.89272" lon="-1.76455">
        <ele>43</ele>
        <time>2015-06-07T11:05:25Z</time>
      </trkpt>
      <trkpt lat="47.89271" lon="-1.76462">
        <ele>43</ele>
        <time>2015-06-07T11:05:26Z</time>
      </trkpt>
      <trkpt lat="47.8927" lon="-1.7647">
        <ele>43</ele>
        <time>2015-06-07T11:05:27Z</time>
      </trkpt>
      <trkpt lat="47.89269" lon="-1.76478">
        <ele>43</ele>
        <time>2015-06-07T11:05:28Z</time>
      </trkpt>
      <trkpt lat="47.89268" lon="-1.76485">
        <ele>44</ele>
        <time>2015-06-07T11:05:29Z</time>
      </trkpt>
      <trkpt lat="47.89268" lon="-1.76493">
        <ele>44</ele>
        <time>2015-06-07T11:05:30Z</time>
      </trkpt>
      <trkpt lat="47.89268" lon="-1.76501">
        <ele>44</ele>
        <time>2015-06-07T11:05:31Z</time>
      </trkpt>
      <trkpt lat="47.89268" lon="-1.76509">
        <ele>44</ele>
        <time>2015-06-07T11:05:32Z</time>
      </trkpt>
      <trkpt lat="47.89268" lon="-1.76517">
        <ele>44</ele>
        <time>2015-06-07T11:05:33Z</time>
      </trkpt>
      <trkpt lat="47.89267" lon="-1.76525">
        <ele>44</ele>
        <time>2015-06-07T11:05:34Z</time>
      </trkpt>
      <trkpt lat="47.89266" lon="-1.76532">
        <ele>45</ele>
        <time>2015-06-07T11:05:35Z</time>
      </trkpt>
      <trkpt lat="47.89266" lon="-1.76532">
        <ele>45</ele>
        <time>2015-06-07T11:05:36Z</time>
      </trkpt>
      <trkpt lat="47.89264" lon="-1.76539">
        <ele>45</ele>
        <time>2015-06-07T11:05:37Z</time>
      </trkpt>
      <trkpt lat="47.89262" lon="-1.76546">
        <ele>45</ele>
        <time>2015-06-07T11:05:38Z</time>
      </trkpt>
      <trkpt lat="47.89257" lon="-1.76559">
        <ele>46</ele>
        <time>2015-06-07T11:05:39Z</time>
      </trkpt>
      <trkpt lat="47.89257" lon="-1.76559">
        <ele>46</ele>
        <time>2015-06-07T11:05:40Z</time>
      </trkpt>
      <trkpt lat="47.89255" lon="-1.76564">
        <ele>46</ele>
        <time>2015-06-07T11:05:41Z</time>
      </trkpt>
      <trkpt lat="47.89252" lon="-1.7657">
        <ele>46</ele>
        <time>2015-06-07T11:05:42Z</time>
      </trkpt>
      <trkpt lat="47.8925" lon="-1.76577">
        <ele>47</ele>
        <time>2015-06-07T11:05:43Z</time>
      </trkpt>
      <trkpt lat="47.89248" lon="-1.76583">
        <ele>47</ele>
        <time>2015-06-07T11:05:44Z</time>
      </trkpt>
      <trkpt lat="47.89248" lon="-1.7659">
        <ele>47</ele>
        <time>2015-06-07T11:05:45Z</time>
      </trkpt>
      <trkpt lat="47.89245" lon="-1.76605">
        <ele>47</ele>
        <time>2015-06-07T11:05:46Z</time>
      </trkpt>
      <trkpt lat="47.89244" lon="-1.76613">
        <ele>47</ele>
        <time>2015-06-07T11:05:47Z</time>
      </trkpt>
      <trkpt lat="47.89244" lon="-1.76613">
        <ele>47</ele>
        <time>2015-06-07T11:05:48Z</time>
      </trkpt>
      <trkpt lat="47.89242" lon="-1.76618">
        <ele>47</ele>
        <time>2015-06-07T11:05:49Z</time>
      </trkpt>
      <trkpt lat="47.89242" lon="-1.76621">
        <ele>47</ele>
        <time>2015-06-07T11:05:50Z</time>
      </trkpt>
      <trkpt lat="47.89242" lon="-1.76622">
        <ele>47</ele>
        <time>2015-06-07T11:05:51Z</time>
      </trkpt>
      <trkpt lat="47.89242" lon="-1.76621">
        <ele>47</ele>
        <time>2015-06-07T11:05:52Z</time>
      </trkpt>
      <trkpt lat="47.89242" lon="-1.76621">
        <ele>47</ele>
        <time>2015-06-07T11:05:53Z</time>
      </trkpt>
      <trkpt lat="47.89243" lon="-1.7662">
        <ele>47</ele>
        <time>2015-06-07T11:05:54Z</time>
      </trkpt>
      <trkpt lat="47.89244" lon="-1.76619">
        <ele>47</ele>
        <time>2015-06-07T11:05:55Z</time>
      </trkpt>
      <trkpt lat="47.89244" lon="-1.76619">
        <ele>47</ele>
        <time>2015-06-07T11:05:56Z</time>
      </trkpt>
      <trkpt lat="47.89246" lon="-1.7662">
        <ele>47</ele>
        <time>2015-06-07T11:05:57Z</time>
      </trkpt>
      <trkpt lat="47.89247" lon="-1.7662">
        <ele>47</ele>
        <time>2015-06-07T11:05:58Z</time>
      </trkpt>
      <trkpt lat="47.89247" lon="-1.7662">
        <ele>47</ele>
        <time>2015-06-07T11:05:59Z</time>
      </trkpt>
      <trkpt lat="47.89248" lon="-1.76621">
        <ele>47</ele>
        <time>2015-06-07T11:06:00Z</time>
      </trkpt>
      <trkpt lat="47.89249" lon="-1.76622">
        <ele>47</ele>
        <time>2015-06-07T11:06:01Z</time>
      </trkpt>
      <trkpt lat="47.89251" lon="-1.76625">
        <ele>47</ele>
        <time>2015-06-07T11:06:02Z</time>
      </trkpt>
      <trkpt lat="47.89254" lon="-1.7663">
        <ele>47</ele>
        <time>2015-06-07T11:06:03Z</time>
      </trkpt>
      <trkpt lat="47.89255" lon="-1.76633">
        <ele>47</ele>
        <time>2015-06-07T11:06:04Z</time>
      </trkpt>
      <trkpt lat="47.89257" lon="-1.76636">
        <ele>47</ele>
        <time>2015-06-07T11:06:05Z</time>
      </trkpt>
      <trkpt lat="47.89259" lon="-1.76638">
        <ele>47</ele>
        <time>2015-06-07T11:06:06Z</time>
      </trkpt>
      <trkpt lat="47.89259" lon="-1.76638">
        <ele>47</ele>
        <time>2015-06-07T11:06:07Z</time>
      </trkpt>
      <trkpt lat="47.89262" lon="-1.7664">
        <ele>47</ele>
        <time>2015-06-07T11:06:08Z</time>
      </trkpt>
      <trkpt lat="47.89265" lon="-1.76643">
        <ele>47</ele>
        <time>2015-06-07T11:06:09Z</time>
      </trkpt>
      <trkpt lat="47.89266" lon="-1.76647">
        <ele>47</ele>
        <time>2015-06-07T11:06:10Z</time>
      </trkpt>
      <trkpt lat="47.89269" lon="-1.76651">
        <ele>47</ele>
        <time>2015-06-07T11:06:11Z</time>
      </trkpt>
      <trkpt lat="47.89271" lon="-1.76656">
        <ele>47</ele>
        <time>2015-06-07T11:06:12Z</time>
      </trkpt>
      <trkpt lat="47.89273" lon="-1.76659">
        <ele>47</ele>
        <time>2015-06-07T11:06:13Z</time>
      </trkpt>
      <trkpt lat="47.89276" lon="-1.76661">
        <ele>47</ele>
        <time>2015-06-07T11:06:14Z</time>
      </trkpt>
      <trkpt lat="47.89283" lon="-1.76666">
        <ele>47</ele>
        <time>2015-06-07T11:06:15Z</time>
      </trkpt>
      <trkpt lat="47.89283" lon="-1.76666">
        <ele>47</ele>
        <time>2015-06-07T11:06:16Z</time>
      </trkpt>
      <trkpt lat="47.89288" lon="-1.76677">
        <ele>47</ele>
        <time>2015-06-07T11:06:17Z</time>
      </trkpt>
      <trkpt lat="47.89291" lon="-1.76681">
        <ele>47</ele>
        <time>2015-06-07T11:06:18Z</time>
      </trkpt>
      <trkpt lat="47.89295" lon="-1.76683">
        <ele>47</ele>
        <time>2015-06-07T11:06:19Z</time>
      </trkpt>
      <trkpt lat="47.89299" lon="-1.76685">
        <ele>47</ele>
        <time>2015-06-07T11:06:20Z</time>
      </trkpt>
      <trkpt lat="47.89304" lon="-1.76688">
        <ele>47</ele>
        <time>2015-06-07T11:06:21Z</time>
      </trkpt>
      <trkpt lat="47.89308" lon="-1.7669">
        <ele>47</ele>
        <time>2015-06-07T11:06:22Z</time>
      </trkpt>
      <trkpt lat="47.89312" lon="-1.76692">
        <ele>47</ele>
        <time>2015-06-07T11:06:23Z</time>
      </trkpt>
      <trkpt lat="47.89316" lon="-1.76694">
        <ele>46</ele>
        <time>2015-06-07T11:06:24Z</time>
      </trkpt>
      <trkpt lat="47.89318" lon="-1.76693">
        <ele>46</ele>
        <time>2015-06-07T11:06:25Z</time>
      </trkpt>
      <trkpt lat="47.8932" lon="-1.76691">
        <ele>46</ele>
        <time>2015-06-07T11:06:26Z</time>
      </trkpt>
      <trkpt lat="47.89322" lon="-1.76688">
        <ele>46</ele>
        <time>2015-06-07T11:06:27Z</time>
      </trkpt>
      <trkpt lat="47.89323" lon="-1.76686">
        <ele>46</ele>
        <time>2015-06-07T11:06:28Z</time>
      </trkpt>
      <trkpt lat="47.89325" lon="-1.76682">
        <ele>46</ele>
        <time>2015-06-07T11:06:29Z</time>
      </trkpt>
      <trkpt lat="47.89326" lon="-1.76679">
        <ele>46</ele>
        <time>2015-06-07T11:06:30Z</time>
      </trkpt>
      <trkpt lat="47.89326" lon="-1.76679">
        <ele>46</ele>
        <time>2015-06-07T11:06:31Z</time>
      </trkpt>
      <trkpt lat="47.89327" lon="-1.76673">
        <ele>45</ele>
        <time>2015-06-07T11:06:32Z</time>
      </trkpt>
      <trkpt lat="47.89327" lon="-1.76671">
        <ele>45</ele>
        <time>2015-06-07T11:06:33Z</time>
      </trkpt>
      <trkpt lat="47.89329" lon="-1.76668">
        <ele>45</ele>
        <time>2015-06-07T11:06:34Z</time>
      </trkpt>
      <trkpt lat="47.89332" lon="-1.76666">
        <ele>45</ele>
        <time>2015-06-07T11:06:35Z</time>
      </trkpt>
      <trkpt lat="47.89332" lon="-1.76666">
        <ele>45</ele>
        <time>2015-06-07T11:06:36Z</time>
      </trkpt>
      <trkpt lat="47.89337" lon="-1.7666">
        <ele>45</ele>
        <time>2015-06-07T11:06:37Z</time>
      </trkpt>
      <trkpt lat="47.89339" lon="-1.76655">
        <ele>45</ele>
        <time>2015-06-07T11:06:38Z</time>
      </trkpt>
      <trkpt lat="47.89339" lon="-1.76655">
        <ele>45</ele>
        <time>2015-06-07T11:06:39Z</time>
      </trkpt>
      <trkpt lat="47.8934" lon="-1.76651">
        <ele>44</ele>
        <time>2015-06-07T11:06:40Z</time>
      </trkpt>
      <trkpt lat="47.89341" lon="-1.76646">
        <ele>44</ele>
        <time>2015-06-07T11:06:41Z</time>
      </trkpt>
      <trkpt lat="47.89342" lon="-1.76637">
        <ele>44</ele>
        <time>2015-06-07T11:06:42Z</time>
      </trkpt>
      <trkpt lat="47.89342" lon="-1.76632">
        <ele>44</ele>
        <time>2015-06-07T11:06:43Z</time>
      </trkpt>
      <trkpt lat="47.89344" lon="-1.76628">
        <ele>44</ele>
        <time>2015-06-07T11:06:44Z</time>
      </trkpt>
      <trkpt lat="47.89347" lon="-1.76623">
        <ele>44</ele>
        <time>2015-06-07T11:06:45Z</time>
      </trkpt>
      <trkpt lat="47.89348" lon="-1.76616">
        <ele>44</ele>
        <time>2015-06-07T11:06:46Z</time>
      </trkpt>
      <trkpt lat="47.89348" lon="-1.7661">
        <ele>44</ele>
        <time>2015-06-07T11:06:47Z</time>
      </trkpt>
      <trkpt lat="47.89348" lon="-1.76605">
        <ele>44</ele>
        <time>2015-06-07T11:06:48Z</time>
      </trkpt>
      <trkpt lat="47.89348" lon="-1.76605">
        <ele>44</ele>
        <time>2015-06-07T11:06:49Z</time>
      </trkpt>
      <trkpt lat="47.8935" lon="-1.76599">
        <ele>44</ele>
        <time>2015-06-07T11:06:50Z</time>
      </trkpt>
      <trkpt lat="47.89351" lon="-1.76596">
        <ele>44</ele>
        <time>2015-06-07T11:06:51Z</time>
      </trkpt>
      <trkpt lat="47.89354" lon="-1.76594">
        <ele>44</ele>
        <time>2015-06-07T11:06:52Z</time>
      </trkpt>
      <trkpt lat="47.89356" lon="-1.76592">
        <ele>44</ele>
        <time>2015-06-07T11:06:53Z</time>
      </trkpt>
      <trkpt lat="47.8936" lon="-1.76587">
        <ele>44</ele>
        <time>2015-06-07T11:06:54Z</time>
      </trkpt>
      <trkpt lat="47.89362" lon="-1.76586">
        <ele>44</ele>
        <time>2015-06-07T11:06:55Z</time>
      </trkpt>
      <trkpt lat="47.89364" lon="-1.76585">
        <ele>45</ele>
        <time>2015-06-07T11:06:56Z</time>
      </trkpt>
      <trkpt lat="47.89365" lon="-1.76582">
        <ele>45</ele>
        <time>2015-06-07T11:06:57Z</time>
      </trkpt>
      <trkpt lat="47.89367" lon="-1.76579">
        <ele>45</ele>
        <time>2015-06-07T11:06:58Z</time>
      </trkpt>
      <trkpt lat="47.89368" lon="-1.76575">
        <ele>45</ele>
        <time>2015-06-07T11:06:59Z</time>
      </trkpt>
      <trkpt lat="47.89369" lon="-1.76571">
        <ele>45</ele>
        <time>2015-06-07T11:07:00Z</time>
      </trkpt>
      <trkpt lat="47.89371" lon="-1.76568">
        <ele>45</ele>
        <time>2015-06-07T11:07:01Z</time>
      </trkpt>
      <trkpt lat="47.89373" lon="-1.76566">
        <ele>44</ele>
        <time>2015-06-07T11:07:02Z</time>
      </trkpt>
      <trkpt lat="47.89374" lon="-1.76563">
        <ele>44</ele>
        <time>2015-06-07T11:07:03Z</time>
      </trkpt>
      <trkpt lat="47.89375" lon="-1.76559">
        <ele>44</ele>
        <time>2015-06-07T11:07:04Z</time>
      </trkpt>
      <trkpt lat="47.89376" lon="-1.76554">
        <ele>44</ele>
        <time>2015-06-07T11:07:05Z</time>
      </trkpt>
      <trkpt lat="47.89376" lon="-1.76554">
        <ele>44</ele>
        <time>2015-06-07T11:07:06Z</time>
      </trkpt>
      <trkpt lat="47.89378" lon="-1.76544">
        <ele>43</ele>
        <time>2015-06-07T11:07:07Z</time>
      </trkpt>
      <trkpt lat="47.89379" lon="-1.76538">
        <ele>43</ele>
        <time>2015-06-07T11:07:08Z</time>
      </trkpt>
      <trkpt lat="47.8938" lon="-1.76535">
        <ele>43</ele>
        <time>2015-06-07T11:07:09Z</time>
      </trkpt>
      <trkpt lat="47.8938" lon="-1.76535">
        <ele>43</ele>
        <time>2015-06-07T11:07:10Z</time>
      </trkpt>
      <trkpt lat="47.89381" lon="-1.76532">
        <ele>42</ele>
        <time>2015-06-07T11:07:11Z</time>
      </trkpt>
      <trkpt lat="47.89382" lon="-1.76527">
        <ele>42</ele>
        <time>2015-06-07T11:07:12Z</time>
      </trkpt>
      <trkpt lat="47.89382" lon="-1.76521">
        <ele>42</ele>
        <time>2015-06-07T11:07:13Z</time>
      </trkpt>
      <trkpt lat="47.89383" lon="-1.76512">
        <ele>41</ele>
        <time>2015-06-07T11:07:14Z</time>
      </trkpt>
      <trkpt lat="47.89384" lon="-1.76507">
        <ele>41</ele>
        <time>2015-06-07T11:07:15Z</time>
      </trkpt>
      <trkpt lat="47.89386" lon="-1.76501">
        <ele>41</ele>
        <time>2015-06-07T11:07:16Z</time>
      </trkpt>
      <trkpt lat="47.89386" lon="-1.76501">
        <ele>41</ele>
        <time>2015-06-07T11:07:17Z</time>
      </trkpt>
      <trkpt lat="47.89389" lon="-1.76485">
        <ele>41</ele>
        <time>2015-06-07T11:07:18Z</time>
      </trkpt>
      <trkpt lat="47.89389" lon="-1.76485">
        <ele>41</ele>
        <time>2015-06-07T11:07:19Z</time>
      </trkpt>
      <trkpt lat="47.89389" lon="-1.76479">
        <ele>41</ele>
        <time>2015-06-07T11:07:20Z</time>
      </trkpt>
      <trkpt lat="47.89388" lon="-1.76474">
        <ele>40</ele>
        <time>2015-06-07T11:07:21Z</time>
      </trkpt>
      <trkpt lat="47.89387" lon="-1.76469">
        <ele>40</ele>
        <time>2015-06-07T11:07:22Z</time>
      </trkpt>
      <trkpt lat="47.89387" lon="-1.76464">
        <ele>40</ele>
        <time>2015-06-07T11:07:23Z</time>
      </trkpt>
      <trkpt lat="47.89388" lon="-1.76459">
        <ele>40</ele>
        <time>2015-06-07T11:07:24Z</time>
      </trkpt>
      <trkpt lat="47.8939" lon="-1.76451">
        <ele>40</ele>
        <time>2015-06-07T11:07:25Z</time>
      </trkpt>
      <trkpt lat="47.8939" lon="-1.76446">
        <ele>40</ele>
        <time>2015-06-07T11:07:26Z</time>
      </trkpt>
      <trkpt lat="47.8939" lon="-1.76446">
        <ele>40</ele>
        <time>2015-06-07T11:07:27Z</time>
      </trkpt>
      <trkpt lat="47.8939" lon="-1.76442">
        <ele>40</ele>
        <time>2015-06-07T11:07:28Z</time>
      </trkpt>
      <trkpt lat="47.8939" lon="-1.76437">
        <ele>40</ele>
        <time>2015-06-07T11:07:29Z</time>
      </trkpt>
      <trkpt lat="47.89389" lon="-1.76432">
        <ele>40</ele>
        <time>2015-06-07T11:07:30Z</time>
      </trkpt>
      <trkpt lat="47.89389" lon="-1.76427">
        <ele>40</ele>
        <time>2015-06-07T11:07:31Z</time>
      </trkpt>
      <trkpt lat="47.89389" lon="-1.76423">
        <ele>40</ele>
        <time>2015-06-07T11:07:32Z</time>
      </trkpt>
      <trkpt lat="47.8939" lon="-1.76419">
        <ele>40</ele>
        <time>2015-06-07T11:07:33Z</time>
      </trkpt>
      <trkpt lat="47.89389" lon="-1.76416">
        <ele>40</ele>
        <time>2015-06-07T11:07:34Z</time>
      </trkpt>
      <trkpt lat="47.89389" lon="-1.76413">
        <ele>40</ele>
        <time>2015-06-07T11:07:35Z</time>
      </trkpt>
      <trkpt lat="47.89388" lon="-1.76409">
        <ele>40</ele>
        <time>2015-06-07T11:07:36Z</time>
      </trkpt>
      <trkpt lat="47.89387" lon="-1.76404">
        <ele>40</ele>
        <time>2015-06-07T11:07:37Z</time>
      </trkpt>
      <trkpt lat="47.89386" lon="-1.764">
        <ele>40</ele>
        <time>2015-06-07T11:07:38Z</time>
      </trkpt>
      <trkpt lat="47.89385" lon="-1.76396">
        <ele>40</ele>
        <time>2015-06-07T11:07:39Z</time>
      </trkpt>
      <trkpt lat="47.89385" lon="-1.76393">
        <ele>40</ele>
        <time>2015-06-07T11:07:40Z</time>
      </trkpt>
      <trkpt lat="47.89384" lon="-1.76391">
        <ele>40</ele>
        <time>2015-06-07T11:07:41Z</time>
      </trkpt>
      <trkpt lat="47.89383" lon="-1.76388">
        <ele>40</ele>
        <time>2015-06-07T11:07:42Z</time>
      </trkpt>
      <trkpt lat="47.89382" lon="-1.76385">
        <ele>40</ele>
        <time>2015-06-07T11:07:43Z</time>
      </trkpt>
      <trkpt lat="47.8938" lon="-1.7638">
        <ele>40</ele>
        <time>2015-06-07T11:07:44Z</time>
      </trkpt>
      <trkpt lat="47.8938" lon="-1.7638">
        <ele>40</ele>
        <time>2015-06-07T11:07:45Z</time>
      </trkpt>
      <trkpt lat="47.89379" lon="-1.76377">
        <ele>40</ele>
        <time>2015-06-07T11:07:46Z</time>
      </trkpt>
      <trkpt lat="47.89379" lon="-1.76372">
        <ele>39</ele>
        <time>2015-06-07T11:07:47Z</time>
      </trkpt>
      <trkpt lat="47.89377" lon="-1.76367">
        <ele>39</ele>
        <time>2015-06-07T11:07:48Z</time>
      </trkpt>
      <trkpt lat="47.89377" lon="-1.76363">
        <ele>39</ele>
        <time>2015-06-07T11:07:49Z</time>
      </trkpt>
      <trkpt lat="47.89377" lon="-1.7636">
        <ele>39</ele>
        <time>2015-06-07T11:07:50Z</time>
      </trkpt>
      <trkpt lat="47.89376" lon="-1.76356">
        <ele>39</ele>
        <time>2015-06-07T11:07:51Z</time>
      </trkpt>
      <trkpt lat="47.89377" lon="-1.76352">
        <ele>39</ele>
        <time>2015-06-07T11:07:52Z</time>
      </trkpt>
      <trkpt lat="47.89377" lon="-1.76349">
        <ele>39</ele>
        <time>2015-06-07T11:07:53Z</time>
      </trkpt>
      <trkpt lat="47.89379" lon="-1.76346">
        <ele>39</ele>
        <time>2015-06-07T11:07:54Z</time>
      </trkpt>
      <trkpt lat="47.89384" lon="-1.76343">
        <ele>39</ele>
        <time>2015-06-07T11:07:55Z</time>
      </trkpt>
      <trkpt lat="47.89384" lon="-1.76343">
        <ele>39</ele>
        <time>2015-06-07T11:07:56Z</time>
      </trkpt>
      <trkpt lat="47.89386" lon="-1.76342">
        <ele>39</ele>
        <time>2015-06-07T11:07:57Z</time>
      </trkpt>
      <trkpt lat="47.89387" lon="-1.76338">
        <ele>39</ele>
        <time>2015-06-07T11:07:58Z</time>
      </trkpt>
      <trkpt lat="47.89389" lon="-1.76334">
        <ele>39</ele>
        <time>2015-06-07T11:07:59Z</time>
      </trkpt>
      <trkpt lat="47.89391" lon="-1.76331">
        <ele>39</ele>
        <time>2015-06-07T11:08:00Z</time>
      </trkpt>
      <trkpt lat="47.89392" lon="-1.76327">
        <ele>40</ele>
        <time>2015-06-07T11:08:01Z</time>
      </trkpt>
      <trkpt lat="47.89393" lon="-1.76317">
        <ele>40</ele>
        <time>2015-06-07T11:08:02Z</time>
      </trkpt>
      <trkpt lat="47.89394" lon="-1.76312">
        <ele>40</ele>
        <time>2015-06-07T11:08:03Z</time>
      </trkpt>
      <trkpt lat="47.89394" lon="-1.76312">
        <ele>40</ele>
        <time>2015-06-07T11:08:04Z</time>
      </trkpt>
      <trkpt lat="47.89394" lon="-1.76307">
        <ele>40</ele>
        <time>2015-06-07T11:08:05Z</time>
      </trkpt>
      <trkpt lat="47.89395" lon="-1.76303">
        <ele>40</ele>
        <time>2015-06-07T11:08:06Z</time>
      </trkpt>
      <trkpt lat="47.89396" lon="-1.76294">
        <ele>40</ele>
        <time>2015-06-07T11:08:07Z</time>
      </trkpt>
      <trkpt lat="47.89397" lon="-1.7629">
        <ele>40</ele>
        <time>2015-06-07T11:08:08Z</time>
      </trkpt>
      <trkpt lat="47.89398" lon="-1.76286">
        <ele>40</ele>
        <time>2015-06-07T11:08:09Z</time>
      </trkpt>
      <trkpt lat="47.89399" lon="-1.76281">
        <ele>40</ele>
        <time>2015-06-07T11:08:10Z</time>
      </trkpt>
      <trkpt lat="47.894" lon="-1.76277">
        <ele>40</ele>
        <time>2015-06-07T11:08:11Z</time>
      </trkpt>
      <trkpt lat="47.89401" lon="-1.76272">
        <ele>40</ele>
        <time>2015-06-07T11:08:12Z</time>
      </trkpt>
      <trkpt lat="47.89401" lon="-1.76267">
        <ele>41</ele>
        <time>2015-06-07T11:08:13Z</time>
      </trkpt>
      <trkpt lat="47.89402" lon="-1.76262">
        <ele>41</ele>
        <time>2015-06-07T11:08:14Z</time>
      </trkpt>
      <trkpt lat="47.89403" lon="-1.76258">
        <ele>41</ele>
        <time>2015-06-07T11:08:15Z</time>
      </trkpt>
      <trkpt lat="47.89405" lon="-1.76254">
        <ele>41</ele>
        <time>2015-06-07T11:08:16Z</time>
      </trkpt>
      <trkpt lat="47.89407" lon="-1.7625">
        <ele>41</ele>
        <time>2015-06-07T11:08:17Z</time>
      </trkpt>
      <trkpt lat="47.89409" lon="-1.76246">
        <ele>41</ele>
        <time>2015-06-07T11:08:18Z</time>
      </trkpt>
      <trkpt lat="47.89409" lon="-1.76246">
        <ele>41</ele>
        <time>2015-06-07T11:08:19Z</time>
      </trkpt>
      <trkpt lat="47.89414" lon="-1.76238">
        <ele>41</ele>
        <time>2015-06-07T11:08:20Z</time>
      </trkpt>
      <trkpt lat="47.89414" lon="-1.76238">
        <ele>41</ele>
        <time>2015-06-07T11:08:21Z</time>
      </trkpt>
      <trkpt lat="47.89419" lon="-1.76231">
        <ele>42</ele>
        <time>2015-06-07T11:08:22Z</time>
      </trkpt>
      <trkpt lat="47.89419" lon="-1.76231">
        <ele>42</ele>
        <time>2015-06-07T11:08:23Z</time>
      </trkpt>
      <trkpt lat="47.89423" lon="-1.76223">
        <ele>42</ele>
        <time>2015-06-07T11:08:24Z</time>
      </trkpt>
      <trkpt lat="47.89425" lon="-1.76219">
        <ele>42</ele>
        <time>2015-06-07T11:08:25Z</time>
      </trkpt>
      <trkpt lat="47.89426" lon="-1.76214">
        <ele>42</ele>
        <time>2015-06-07T11:08:26Z</time>
      </trkpt>
      <trkpt lat="47.89428" lon="-1.7621">
        <ele>42</ele>
        <time>2015-06-07T11:08:27Z</time>
      </trkpt>
      <trkpt lat="47.8943" lon="-1.76205">
        <ele>42</ele>
        <time>2015-06-07T11:08:28Z</time>
      </trkpt>
      <trkpt lat="47.89432" lon="-1.762">
        <ele>42</ele>
        <time>2015-06-07T11:08:29Z</time>
      </trkpt>
      <trkpt lat="47.89434" lon="-1.76196">
        <ele>42</ele>
        <time>2015-06-07T11:08:30Z</time>
      </trkpt>
      <trkpt lat="47.89434" lon="-1.76196">
        <ele>42</ele>
        <time>2015-06-07T11:08:31Z</time>
      </trkpt>
      <trkpt lat="47.89435" lon="-1.76192">
        <ele>42</ele>
        <time>2015-06-07T11:08:32Z</time>
      </trkpt>
      <trkpt lat="47.89439" lon="-1.76183">
        <ele>43</ele>
        <time>2015-06-07T11:08:33Z</time>
      </trkpt>
      <trkpt lat="47.89441" lon="-1.76179">
        <ele>43</ele>
        <time>2015-06-07T11:08:34Z</time>
      </trkpt>
      <trkpt lat="47.89443" lon="-1.76176">
        <ele>43</ele>
        <time>2015-06-07T11:08:35Z</time>
      </trkpt>
      <trkpt lat="47.89446" lon="-1.76172">
        <ele>43</ele>
        <time>2015-06-07T11:08:36Z</time>
      </trkpt>
      <trkpt lat="47.89446" lon="-1.76172">
        <ele>43</ele>
        <time>2015-06-07T11:08:37Z</time>
      </trkpt>
      <trkpt lat="47.89448" lon="-1.76169">
        <ele>43</ele>
        <time>2015-06-07T11:08:38Z</time>
      </trkpt>
      <trkpt lat="47.89451" lon="-1.76166">
        <ele>43</ele>
        <time>2015-06-07T11:08:39Z</time>
      </trkpt>
      <trkpt lat="47.89453" lon="-1.76162">
        <ele>44</ele>
        <time>2015-06-07T11:08:40Z</time>
      </trkpt>
      <trkpt lat="47.89455" lon="-1.76158">
        <ele>44</ele>
        <time>2015-06-07T11:08:41Z</time>
      </trkpt>
      <trkpt lat="47.89458" lon="-1.76153">
        <ele>44</ele>
        <time>2015-06-07T11:08:42Z</time>
      </trkpt>
      <trkpt lat="47.8946" lon="-1.76149">
        <ele>44</ele>
        <time>2015-06-07T11:08:43Z</time>
      </trkpt>
      <trkpt lat="47.89461" lon="-1.76145">
        <ele>44</ele>
        <time>2015-06-07T11:08:44Z</time>
      </trkpt>
      <trkpt lat="47.89463" lon="-1.7614">
        <ele>44</ele>
        <time>2015-06-07T11:08:45Z</time>
      </trkpt>
      <trkpt lat="47.89465" lon="-1.76136">
        <ele>45</ele>
        <time>2015-06-07T11:08:46Z</time>
      </trkpt>
      <trkpt lat="47.89467" lon="-1.76131">
        <ele>45</ele>
        <time>2015-06-07T11:08:47Z</time>
      </trkpt>
      <trkpt lat="47.89468" lon="-1.76127">
        <ele>45</ele>
        <time>2015-06-07T11:08:48Z</time>
      </trkpt>
      <trkpt lat="47.8947" lon="-1.76123">
        <ele>45</ele>
        <time>2015-06-07T11:08:49Z</time>
      </trkpt>
      <trkpt lat="47.89472" lon="-1.76118">
        <ele>46</ele>
        <time>2015-06-07T11:08:50Z</time>
      </trkpt>
      <trkpt lat="47.89475" lon="-1.7611">
        <ele>46</ele>
        <time>2015-06-07T11:08:51Z</time>
      </trkpt>
      <trkpt lat="47.89475" lon="-1.7611">
        <ele>46</ele>
        <time>2015-06-07T11:08:52Z</time>
      </trkpt>
      <trkpt lat="47.89476" lon="-1.76106">
        <ele>47</ele>
        <time>2015-06-07T11:08:53Z</time>
      </trkpt>
      <trkpt lat="47.89477" lon="-1.76101">
        <ele>47</ele>
        <time>2015-06-07T11:08:54Z</time>
      </trkpt>
      <trkpt lat="47.89479" lon="-1.76097">
        <ele>47</ele>
        <time>2015-06-07T11:08:55Z</time>
      </trkpt>
      <trkpt lat="47.89481" lon="-1.76093">
        <ele>47</ele>
        <time>2015-06-07T11:08:56Z</time>
      </trkpt>
      <trkpt lat="47.89482" lon="-1.76088">
        <ele>47</ele>
        <time>2015-06-07T11:08:57Z</time>
      </trkpt>
      <trkpt lat="47.89484" lon="-1.76084">
        <ele>47</ele>
        <time>2015-06-07T11:08:58Z</time>
      </trkpt>
      <trkpt lat="47.89486" lon="-1.76078">
        <ele>47</ele>
        <time>2015-06-07T11:08:59Z</time>
      </trkpt>
      <trkpt lat="47.89488" lon="-1.76073">
        <ele>47</ele>
        <time>2015-06-07T11:09:00Z</time>
      </trkpt>
      <trkpt lat="47.8949" lon="-1.76068">
        <ele>47</ele>
        <time>2015-06-07T11:09:01Z</time>
      </trkpt>
      <trkpt lat="47.89493" lon="-1.76062">
        <ele>47</ele>
        <time>2015-06-07T11:09:02Z</time>
      </trkpt>
      <trkpt lat="47.89495" lon="-1.76056">
        <ele>46</ele>
        <time>2015-06-07T11:09:03Z</time>
      </trkpt>
      <trkpt lat="47.89498" lon="-1.7605">
        <ele>46</ele>
        <time>2015-06-07T11:09:04Z</time>
      </trkpt>
      <trkpt lat="47.89501" lon="-1.76044">
        <ele>46</ele>
        <time>2015-06-07T11:09:05Z</time>
      </trkpt>
      <trkpt lat="47.89504" lon="-1.76038">
        <ele>46</ele>
        <time>2015-06-07T11:09:06Z</time>
      </trkpt>
      <trkpt lat="47.89506" lon="-1.76032">
        <ele>45</ele>
        <time>2015-06-07T11:09:07Z</time>
      </trkpt>
      <trkpt lat="47.89508" lon="-1.76027">
        <ele>45</ele>
        <time>2015-06-07T11:09:08Z</time>
      </trkpt>
      <trkpt lat="47.8951" lon="-1.76024">
        <ele>45</ele>
        <time>2015-06-07T11:09:09Z</time>
      </trkpt>
      <trkpt lat="47.89511" lon="-1.76021">
        <ele>45</ele>
        <time>2015-06-07T11:09:10Z</time>
      </trkpt>
      <trkpt lat="47.89512" lon="-1.76018">
        <ele>44</ele>
        <time>2015-06-07T11:09:11Z</time>
      </trkpt>
      <trkpt lat="47.89513" lon="-1.76017">
        <ele>44</ele>
        <time>2015-06-07T11:09:12Z</time>
      </trkpt>
      <trkpt lat="47.89513" lon="-1.76015">
        <ele>44</ele>
        <time>2015-06-07T11:09:13Z</time>
      </trkpt>
      <trkpt lat="47.89513" lon="-1.76015">
        <ele>44</ele>
        <time>2015-06-07T11:09:14Z</time>
      </trkpt>
      <trkpt lat="47.89513" lon="-1.76015">
        <ele>44</ele>
        <time>2015-06-07T11:09:15Z</time>
      </trkpt>
      <trkpt lat="47.89513" lon="-1.76015">
        <ele>44</ele>
        <time>2015-06-07T11:09:16Z</time>
      </trkpt>
      <trkpt lat="47.89513" lon="-1.76014">
        <ele>44</ele>
        <time>2015-06-07T11:09:17Z</time>
      </trkpt>
      <trkpt lat="47.89512" lon="-1.76011">
        <ele>44</ele>
        <time>2015-06-07T11:09:18Z</time>
      </trkpt>
      <trkpt lat="47.89511" lon="-1.76008">
        <ele>44</ele>
        <time>2015-06-07T11:09:19Z</time>
      </trkpt>
      <trkpt lat="47.89508" lon="-1.76005">
        <ele>44</ele>
        <time>2015-06-07T11:09:20Z</time>
      </trkpt>
      <trkpt lat="47.89505" lon="-1.76002">
        <ele>44</ele>
        <time>2015-06-07T11:09:21Z</time>
      </trkpt>
      <trkpt lat="47.89502" lon="-1.76001">
        <ele>44</ele>
        <time>2015-06-07T11:09:22Z</time>
      </trkpt>
      <trkpt lat="47.89498" lon="-1.75999">
        <ele>44</ele>
        <time>2015-06-07T11:09:23Z</time>
      </trkpt>
      <trkpt lat="47.89494" lon="-1.75996">
        <ele>44</ele>
        <time>2015-06-07T11:09:24Z</time>
      </trkpt>
      <trkpt lat="47.89491" lon="-1.75993">
        <ele>44</ele>
        <time>2015-06-07T11:09:25Z</time>
      </trkpt>
      <trkpt lat="47.89487" lon="-1.7599">
        <ele>44</ele>
        <time>2015-06-07T11:09:26Z</time>
      </trkpt>
      <trkpt lat="47.89483" lon="-1.75987">
        <ele>44</ele>
        <time>2015-06-07T11:09:27Z</time>
      </trkpt>
      <trkpt lat="47.89479" lon="-1.75984">
        <ele>44</ele>
        <time>2015-06-07T11:09:28Z</time>
      </trkpt>
      <trkpt lat="47.89475" lon="-1.75981">
        <ele>44</ele>
        <time>2015-06-07T11:09:29Z</time>
      </trkpt>
      <trkpt lat="47.89472" lon="-1.75978">
        <ele>44</ele>
        <time>2015-06-07T11:09:30Z</time>
      </trkpt>
      <trkpt lat="47.89468" lon="-1.75975">
        <ele>44</ele>
        <time>2015-06-07T11:09:31Z</time>
      </trkpt>
      <trkpt lat="47.89465" lon="-1.75971">
        <ele>45</ele>
        <time>2015-06-07T11:09:32Z</time>
      </trkpt>
      <trkpt lat="47.89463" lon="-1.75966">
        <ele>45</ele>
        <time>2015-06-07T11:09:33Z</time>
      </trkpt>
      <trkpt lat="47.8946" lon="-1.75963">
        <ele>44</ele>
        <time>2015-06-07T11:09:34Z</time>
      </trkpt>
      <trkpt lat="47.89457" lon="-1.75959">
        <ele>45</ele>
        <time>2015-06-07T11:09:35Z</time>
      </trkpt>
      <trkpt lat="47.89455" lon="-1.75956">
        <ele>45</ele>
        <time>2015-06-07T11:09:36Z</time>
      </trkpt>
      <trkpt lat="47.89454" lon="-1.75952">
        <ele>44</ele>
        <time>2015-06-07T11:09:37Z</time>
      </trkpt>
      <trkpt lat="47.89454" lon="-1.75948">
        <ele>44</ele>
        <time>2015-06-07T11:09:38Z</time>
      </trkpt>
      <trkpt lat="47.89454" lon="-1.75946">
        <ele>44</ele>
        <time>2015-06-07T11:09:39Z</time>
      </trkpt>
      <trkpt lat="47.89455" lon="-1.75945">
        <ele>44</ele>
        <time>2015-06-07T11:09:40Z</time>
      </trkpt>
      <trkpt lat="47.89455" lon="-1.75943">
        <ele>44</ele>
        <time>2015-06-07T11:09:41Z</time>
      </trkpt>
      <trkpt lat="47.89456" lon="-1.75942">
        <ele>43</ele>
        <time>2015-06-07T11:09:42Z</time>
      </trkpt>
      <trkpt lat="47.89457" lon="-1.75942">
        <ele>43</ele>
        <time>2015-06-07T11:09:43Z</time>
      </trkpt>
      <trkpt lat="47.89459" lon="-1.75941">
        <ele>42</ele>
        <time>2015-06-07T11:09:44Z</time>
      </trkpt>
      <trkpt lat="47.8946" lon="-1.75939">
        <ele>42</ele>
        <time>2015-06-07T11:09:45Z</time>
      </trkpt>
      <trkpt lat="47.8946" lon="-1.75939">
        <ele>42</ele>
        <time>2015-06-07T11:09:46Z</time>
      </trkpt>
      <trkpt lat="47.89459" lon="-1.75938">
        <ele>42</ele>
        <time>2015-06-07T11:09:47Z</time>
      </trkpt>
      <trkpt lat="47.89458" lon="-1.75937">
        <ele>41</ele>
        <time>2015-06-07T11:09:48Z</time>
      </trkpt>
      <trkpt lat="47.89458" lon="-1.75936">
        <ele>41</ele>
        <time>2015-06-07T11:09:49Z</time>
      </trkpt>
      <trkpt lat="47.89458" lon="-1.75934">
        <ele>41</ele>
        <time>2015-06-07T11:09:50Z</time>
      </trkpt>
      <trkpt lat="47.89457" lon="-1.75932">
        <ele>41</ele>
        <time>2015-06-07T11:09:51Z</time>
      </trkpt>
      <trkpt lat="47.89457" lon="-1.7593">
        <ele>40</ele>
        <time>2015-06-07T11:09:52Z</time>
      </trkpt>
      <trkpt lat="47.89456" lon="-1.75927">
        <ele>40</ele>
        <time>2015-06-07T11:09:53Z</time>
      </trkpt>
      <trkpt lat="47.89456" lon="-1.75925">
        <ele>40</ele>
        <time>2015-06-07T11:09:54Z</time>
      </trkpt>
      <trkpt lat="47.89455" lon="-1.75923">
        <ele>40</ele>
        <time>2015-06-07T11:09:55Z</time>
      </trkpt>
      <trkpt lat="47.89456" lon="-1.75921">
        <ele>40</ele>
        <time>2015-06-07T11:09:56Z</time>
      </trkpt>
      <trkpt lat="47.89457" lon="-1.75921">
        <ele>40</ele>
        <time>2015-06-07T11:09:57Z</time>
      </trkpt>
      <trkpt lat="47.89458" lon="-1.75923">
        <ele>40</ele>
        <time>2015-06-07T11:09:58Z</time>
      </trkpt>
      <trkpt lat="47.8946" lon="-1.75925">
        <ele>40</ele>
        <time>2015-06-07T11:09:59Z</time>
      </trkpt>
      <trkpt lat="47.89462" lon="-1.75928">
        <ele>40</ele>
        <time>2015-06-07T11:10:00Z</time>
      </trkpt>
      <trkpt lat="47.89463" lon="-1.7593">
        <ele>40</ele>
        <time>2015-06-07T11:10:01Z</time>
      </trkpt>
      <trkpt lat="47.89465" lon="-1.75933">
        <ele>40</ele>
        <time>2015-06-07T11:10:02Z</time>
      </trkpt>
      <trkpt lat="47.89468" lon="-1.75935">
        <ele>40</ele>
        <time>2015-06-07T11:10:03Z</time>
      </trkpt>
      <trkpt lat="47.89472" lon="-1.75937">
        <ele>40</ele>
        <time>2015-06-07T11:10:04Z</time>
      </trkpt>
      <trkpt lat="47.8948" lon="-1.7594">
        <ele>40</ele>
        <time>2015-06-07T11:10:05Z</time>
      </trkpt>
      <trkpt lat="47.89484" lon="-1.75943">
        <ele>40</ele>
        <time>2015-06-07T11:10:06Z</time>
      </trkpt>
      <trkpt lat="47.89487" lon="-1.75945">
        <ele>39</ele>
        <time>2015-06-07T11:10:07Z</time>
      </trkpt>
      <trkpt lat="47.89491" lon="-1.75947">
        <ele>39</ele>
        <time>2015-06-07T11:10:08Z</time>
      </trkpt>
      <trkpt lat="47.89495" lon="-1.75948">
        <ele>39</ele>
        <time>2015-06-07T11:10:09Z</time>
      </trkpt>
      <trkpt lat="47.895" lon="-1.75949">
        <ele>39</ele>
        <time>2015-06-07T11:10:10Z</time>
      </trkpt>
      <trkpt lat="47.89503" lon="-1.75951">
        <ele>39</ele>
        <time>2015-06-07T11:10:11Z</time>
      </trkpt>
      <trkpt lat="47.89503" lon="-1.75951">
        <ele>39</ele>
        <time>2015-06-07T11:10:12Z</time>
      </trkpt>
      <trkpt lat="47.89511" lon="-1.75954">
        <ele>39</ele>
        <time>2015-06-07T11:10:13Z</time>
      </trkpt>
      <trkpt lat="47.89511" lon="-1.75954">
        <ele>39</ele>
        <time>2015-06-07T11:10:14Z</time>
      </trkpt>
      <trkpt lat="47.89518" lon="-1.75956">
        <ele>38</ele>
        <time>2015-06-07T11:10:15Z</time>
      </trkpt>
      <trkpt lat="47.89521" lon="-1.75956">
        <ele>38</ele>
        <time>2015-06-07T11:10:16Z</time>
      </trkpt>
      <trkpt lat="47.89524" lon="-1.75956">
        <ele>38</ele>
        <time>2015-06-07T11:10:17Z</time>
      </trkpt>
      <trkpt lat="47.89527" lon="-1.75957">
        <ele>38</ele>
        <time>2015-06-07T11:10:18Z</time>
      </trkpt>
      <trkpt lat="47.89531" lon="-1.75959">
        <ele>38</ele>
        <time>2015-06-07T11:10:19Z</time>
      </trkpt>
      <trkpt lat="47.89533" lon="-1.75961">
        <ele>37</ele>
        <time>2015-06-07T11:10:20Z</time>
      </trkpt>
      <trkpt lat="47.89536" lon="-1.75963">
        <ele>37</ele>
        <time>2015-06-07T11:10:21Z</time>
      </trkpt>
      <trkpt lat="47.89538" lon="-1.75966">
        <ele>37</ele>
        <time>2015-06-07T11:10:22Z</time>
      </trkpt>
      <trkpt lat="47.89541" lon="-1.75967">
        <ele>37</ele>
        <time>2015-06-07T11:10:23Z</time>
      </trkpt>
      <trkpt lat="47.89544" lon="-1.75967">
        <ele>36</ele>
        <time>2015-06-07T11:10:24Z</time>
      </trkpt>
      <trkpt lat="47.89546" lon="-1.75968">
        <ele>36</ele>
        <time>2015-06-07T11:10:25Z</time>
      </trkpt>
      <trkpt lat="47.89549" lon="-1.75967">
        <ele>36</ele>
        <time>2015-06-07T11:10:26Z</time>
      </trkpt>
      <trkpt lat="47.89551" lon="-1.75966">
        <ele>36</ele>
        <time>2015-06-07T11:10:27Z</time>
      </trkpt>
      <trkpt lat="47.89554" lon="-1.75964">
        <ele>35</ele>
        <time>2015-06-07T11:10:28Z</time>
      </trkpt>
      <trkpt lat="47.89557" lon="-1.75962">
        <ele>35</ele>
        <time>2015-06-07T11:10:29Z</time>
      </trkpt>
      <trkpt lat="47.89559" lon="-1.7596">
        <ele>35</ele>
        <time>2015-06-07T11:10:30Z</time>
      </trkpt>
      <trkpt lat="47.89561" lon="-1.75958">
        <ele>34</ele>
        <time>2015-06-07T11:10:31Z</time>
      </trkpt>
      <trkpt lat="47.89563" lon="-1.75958">
        <ele>34</ele>
        <time>2015-06-07T11:10:32Z</time>
      </trkpt>
      <trkpt lat="47.89566" lon="-1.75958">
        <ele>33</ele>
        <time>2015-06-07T11:10:33Z</time>
      </trkpt>
      <trkpt lat="47.89568" lon="-1.75957">
        <ele>33</ele>
        <time>2015-06-07T11:10:34Z</time>
      </trkpt>
      <trkpt lat="47.8957" lon="-1.75955">
        <ele>33</ele>
        <time>2015-06-07T11:10:35Z</time>
      </trkpt>
      <trkpt lat="47.89572" lon="-1.75951">
        <ele>32</ele>
        <time>2015-06-07T11:10:36Z</time>
      </trkpt>
      <trkpt lat="47.89574" lon="-1.75947">
        <ele>32</ele>
        <time>2015-06-07T11:10:37Z</time>
      </trkpt>
      <trkpt lat="47.89576" lon="-1.75943">
        <ele>31</ele>
        <time>2015-06-07T11:10:38Z</time>
      </trkpt>
      <trkpt lat="47.89579" lon="-1.7594">
        <ele>31</ele>
        <time>2015-06-07T11:10:39Z</time>
      </trkpt>
      <trkpt lat="47.89581" lon="-1.75936">
        <ele>31</ele>
        <time>2015-06-07T11:10:40Z</time>
      </trkpt>
      <trkpt lat="47.89585" lon="-1.75933">
        <ele>30</ele>
        <time>2015-06-07T11:10:41Z</time>
      </trkpt>
      <trkpt lat="47.89588" lon="-1.75929">
        <ele>30</ele>
        <time>2015-06-07T11:10:42Z</time>
      </trkpt>
      <trkpt lat="47.89591" lon="-1.75925">
        <ele>29</ele>
        <time>2015-06-07T11:10:43Z</time>
      </trkpt>
      <trkpt lat="47.89594" lon="-1.75921">
        <ele>29</ele>
        <time>2015-06-07T11:10:44Z</time>
      </trkpt>
      <trkpt lat="47.89596" lon="-1.75917">
        <ele>28</ele>
        <time>2015-06-07T11:10:45Z</time>
      </trkpt>
      <trkpt lat="47.89598" lon="-1.75914">
        <ele>27</ele>
        <time>2015-06-07T11:10:46Z</time>
      </trkpt>
      <trkpt lat="47.896" lon="-1.75913">
        <ele>27</ele>
        <time>2015-06-07T11:10:47Z</time>
      </trkpt>
      <trkpt lat="47.89603" lon="-1.7591">
        <ele>26</ele>
        <time>2015-06-07T11:10:48Z</time>
      </trkpt>
      <trkpt lat="47.89606" lon="-1.75907">
        <ele>25</ele>
        <time>2015-06-07T11:10:49Z</time>
      </trkpt>
      <trkpt lat="47.89606" lon="-1.75907">
        <ele>25</ele>
        <time>2015-06-07T11:10:50Z</time>
      </trkpt>
      <trkpt lat="47.89611" lon="-1.75899">
        <ele>24</ele>
        <time>2015-06-07T11:10:51Z</time>
      </trkpt>
      <trkpt lat="47.89613" lon="-1.75895">
        <ele>23</ele>
        <time>2015-06-07T11:10:52Z</time>
      </trkpt>
      <trkpt lat="47.89613" lon="-1.75895">
        <ele>23</ele>
        <time>2015-06-07T11:10:53Z</time>
      </trkpt>
      <trkpt lat="47.89616" lon="-1.7589">
        <ele>22</ele>
        <time>2015-06-07T11:10:54Z</time>
      </trkpt>
      <trkpt lat="47.89621" lon="-1.75881">
        <ele>21</ele>
        <time>2015-06-07T11:10:55Z</time>
      </trkpt>
      <trkpt lat="47.89623" lon="-1.75877">
        <ele>20</ele>
        <time>2015-06-07T11:10:56Z</time>
      </trkpt>
      <trkpt lat="47.89625" lon="-1.75872">
        <ele>20</ele>
        <time>2015-06-07T11:10:57Z</time>
      </trkpt>
      <trkpt lat="47.89627" lon="-1.75867">
        <ele>19</ele>
        <time>2015-06-07T11:10:58Z</time>
      </trkpt>
      <trkpt lat="47.89629" lon="-1.75863">
        <ele>19</ele>
        <time>2015-06-07T11:10:59Z</time>
      </trkpt>
      <trkpt lat="47.89631" lon="-1.75859">
        <ele>19</ele>
        <time>2015-06-07T11:11:00Z</time>
      </trkpt>
      <trkpt lat="47.89633" lon="-1.75855">
        <ele>18</ele>
        <time>2015-06-07T11:11:01Z</time>
      </trkpt>
      <trkpt lat="47.89633" lon="-1.75855">
        <ele>18</ele>
        <time>2015-06-07T11:11:02Z</time>
      </trkpt>
      <trkpt lat="47.89637" lon="-1.75848">
        <ele>18</ele>
        <time>2015-06-07T11:11:03Z</time>
      </trkpt>
      <trkpt lat="47.89637" lon="-1.75848">
        <ele>18</ele>
        <time>2015-06-07T11:11:04Z</time>
      </trkpt>
      <trkpt lat="47.89641" lon="-1.75839">
        <ele>18</ele>
        <time>2015-06-07T11:11:05Z</time>
      </trkpt>
      <trkpt lat="47.89643" lon="-1.75835">
        <ele>17</ele>
        <time>2015-06-07T11:11:06Z</time>
      </trkpt>
      <trkpt lat="47.89645" lon="-1.75833">
        <ele>17</ele>
        <time>2015-06-07T11:11:07Z</time>
      </trkpt>
      <trkpt lat="47.89647" lon="-1.75831">
        <ele>17</ele>
        <time>2015-06-07T11:11:08Z</time>
      </trkpt>
      <trkpt lat="47.89649" lon="-1.75829">
        <ele>17</ele>
        <time>2015-06-07T11:11:09Z</time>
      </trkpt>
      <trkpt lat="47.89651" lon="-1.75826">
        <ele>17</ele>
        <time>2015-06-07T11:11:10Z</time>
      </trkpt>
      <trkpt lat="47.89653" lon="-1.75823">
        <ele>17</ele>
        <time>2015-06-07T11:11:11Z</time>
      </trkpt>
      <trkpt lat="47.89655" lon="-1.7582">
        <ele>18</ele>
        <time>2015-06-07T11:11:12Z</time>
      </trkpt>
      <trkpt lat="47.89656" lon="-1.75818">
        <ele>18</ele>
        <time>2015-06-07T11:11:13Z</time>
      </trkpt>
      <trkpt lat="47.89658" lon="-1.75815">
        <ele>18</ele>
        <time>2015-06-07T11:11:14Z</time>
      </trkpt>
      <trkpt lat="47.8966" lon="-1.75811">
        <ele>18</ele>
        <time>2015-06-07T11:11:15Z</time>
      </trkpt>
      <trkpt lat="47.89662" lon="-1.75808">
        <ele>18</ele>
        <time>2015-06-07T11:11:16Z</time>
      </trkpt>
      <trkpt lat="47.89665" lon="-1.75804">
        <ele>18</ele>
        <time>2015-06-07T11:11:17Z</time>
      </trkpt>
      <trkpt lat="47.89667" lon="-1.75799">
        <ele>18</ele>
        <time>2015-06-07T11:11:18Z</time>
      </trkpt>
      <trkpt lat="47.8967" lon="-1.75795">
        <ele>18</ele>
        <time>2015-06-07T11:11:19Z</time>
      </trkpt>
      <trkpt lat="47.89673" lon="-1.75791">
        <ele>18</ele>
        <time>2015-06-07T11:11:20Z</time>
      </trkpt>
      <trkpt lat="47.89676" lon="-1.75788">
        <ele>18</ele>
        <time>2015-06-07T11:11:21Z</time>
      </trkpt>
      <trkpt lat="47.8968" lon="-1.75784">
        <ele>19</ele>
        <time>2015-06-07T11:11:22Z</time>
      </trkpt>
      <trkpt lat="47.89683" lon="-1.75781">
        <ele>19</ele>
        <time>2015-06-07T11:11:23Z</time>
      </trkpt>
      <trkpt lat="47.89687" lon="-1.75777">
        <ele>19</ele>
        <time>2015-06-07T11:11:24Z</time>
      </trkpt>
      <trkpt lat="47.8969" lon="-1.75773">
        <ele>19</ele>
        <time>2015-06-07T11:11:25Z</time>
      </trkpt>
      <trkpt lat="47.89694" lon="-1.75769">
        <ele>19</ele>
        <time>2015-06-07T11:11:26Z</time>
      </trkpt>
      <trkpt lat="47.89698" lon="-1.75765">
        <ele>19</ele>
        <time>2015-06-07T11:11:27Z</time>
      </trkpt>
      <trkpt lat="47.89702" lon="-1.75762">
        <ele>19</ele>
        <time>2015-06-07T11:11:28Z</time>
      </trkpt>
      <trkpt lat="47.89706" lon="-1.75758">
        <ele>19</ele>
        <time>2015-06-07T11:11:29Z</time>
      </trkpt>
      <trkpt lat="47.8971" lon="-1.75754">
        <ele>19</ele>
        <time>2015-06-07T11:11:30Z</time>
      </trkpt>
      <trkpt lat="47.89713" lon="-1.7575">
        <ele>19</ele>
        <time>2015-06-07T11:11:31Z</time>
      </trkpt>
      <trkpt lat="47.89716" lon="-1.75745">
        <ele>19</ele>
        <time>2015-06-07T11:11:32Z</time>
      </trkpt>
      <trkpt lat="47.8972" lon="-1.7574">
        <ele>18</ele>
        <time>2015-06-07T11:11:33Z</time>
      </trkpt>
      <trkpt lat="47.89724" lon="-1.75736">
        <ele>18</ele>
        <time>2015-06-07T11:11:34Z</time>
      </trkpt>
      <trkpt lat="47.89727" lon="-1.75732">
        <ele>18</ele>
        <time>2015-06-07T11:11:35Z</time>
      </trkpt>
      <trkpt lat="47.8973" lon="-1.75728">
        <ele>18</ele>
        <time>2015-06-07T11:11:36Z</time>
      </trkpt>
      <trkpt lat="47.89733" lon="-1.75724">
        <ele>18</ele>
        <time>2015-06-07T11:11:37Z</time>
      </trkpt>
      <trkpt lat="47.89734" lon="-1.7572">
        <ele>18</ele>
        <time>2015-06-07T11:11:38Z</time>
      </trkpt>
      <trkpt lat="47.89735" lon="-1.75716">
        <ele>18</ele>
        <time>2015-06-07T11:11:39Z</time>
      </trkpt>
      <trkpt lat="47.89736" lon="-1.75713">
        <ele>18</ele>
        <time>2015-06-07T11:11:40Z</time>
      </trkpt>
      <trkpt lat="47.89736" lon="-1.75713">
        <ele>18</ele>
        <time>2015-06-07T11:11:41Z</time>
      </trkpt>
      <trkpt lat="47.89736" lon="-1.75707">
        <ele>18</ele>
        <time>2015-06-07T11:11:42Z</time>
      </trkpt>
      <trkpt lat="47.89736" lon="-1.75707">
        <ele>18</ele>
        <time>2015-06-07T11:11:43Z</time>
      </trkpt>
      <trkpt lat="47.89735" lon="-1.75701">
        <ele>19</ele>
        <time>2015-06-07T11:11:44Z</time>
      </trkpt>
      <trkpt lat="47.89735" lon="-1.75701">
        <ele>19</ele>
        <time>2015-06-07T11:11:45Z</time>
      </trkpt>
      <trkpt lat="47.89732" lon="-1.75695">
        <ele>19</ele>
        <time>2015-06-07T11:11:46Z</time>
      </trkpt>
      <trkpt lat="47.89732" lon="-1.75691">
        <ele>19</ele>
        <time>2015-06-07T11:11:47Z</time>
      </trkpt>
      <trkpt lat="47.89733" lon="-1.75687">
        <ele>19</ele>
        <time>2015-06-07T11:11:48Z</time>
      </trkpt>
      <trkpt lat="47.89732" lon="-1.75683">
        <ele>19</ele>
        <time>2015-06-07T11:11:49Z</time>
      </trkpt>
      <trkpt lat="47.89731" lon="-1.7568">
        <ele>19</ele>
        <time>2015-06-07T11:11:50Z</time>
      </trkpt>
      <trkpt lat="47.89732" lon="-1.75678">
        <ele>19</ele>
        <time>2015-06-07T11:11:51Z</time>
      </trkpt>
      <trkpt lat="47.89734" lon="-1.75677">
        <ele>20</ele>
        <time>2015-06-07T11:11:52Z</time>
      </trkpt>
      <trkpt lat="47.89734" lon="-1.75677">
        <ele>20</ele>
        <time>2015-06-07T11:11:53Z</time>
      </trkpt>
      <trkpt lat="47.89741" lon="-1.75676">
        <ele>20</ele>
        <time>2015-06-07T11:11:54Z</time>
      </trkpt>
      <trkpt lat="47.89741" lon="-1.75676">
        <ele>20</ele>
        <time>2015-06-07T11:11:55Z</time>
      </trkpt>
      <trkpt lat="47.8975" lon="-1.75676">
        <ele>20</ele>
        <time>2015-06-07T11:11:56Z</time>
      </trkpt>
      <trkpt lat="47.89754" lon="-1.75674">
        <ele>20</ele>
        <time>2015-06-07T11:11:57Z</time>
      </trkpt>
      <trkpt lat="47.89757" lon="-1.75671">
        <ele>20</ele>
        <time>2015-06-07T11:11:58Z</time>
      </trkpt>
      <trkpt lat="47.89759" lon="-1.75668">
        <ele>20</ele>
        <time>2015-06-07T11:11:59Z</time>
      </trkpt>
      <trkpt lat="47.89759" lon="-1.75665">
        <ele>21</ele>
        <time>2015-06-07T11:12:00Z</time>
      </trkpt>
      <trkpt lat="47.89759" lon="-1.75662">
        <ele>21</ele>
        <time>2015-06-07T11:12:01Z</time>
      </trkpt>
      <trkpt lat="47.89759" lon="-1.7566">
        <ele>21</ele>
        <time>2015-06-07T11:12:02Z</time>
      </trkpt>
      <trkpt lat="47.89759" lon="-1.75657">
        <ele>21</ele>
        <time>2015-06-07T11:12:03Z</time>
      </trkpt>
      <trkpt lat="47.89759" lon="-1.75654">
        <ele>21</ele>
        <time>2015-06-07T11:12:04Z</time>
      </trkpt>
      <trkpt lat="47.89758" lon="-1.75651">
        <ele>22</ele>
        <time>2015-06-07T11:12:05Z</time>
      </trkpt>
      <trkpt lat="47.89758" lon="-1.75649">
        <ele>22</ele>
        <time>2015-06-07T11:12:06Z</time>
      </trkpt>
      <trkpt lat="47.89758" lon="-1.75649">
        <ele>22</ele>
        <time>2015-06-07T11:12:07Z</time>
      </trkpt>
      <trkpt lat="47.89758" lon="-1.75646">
        <ele>22</ele>
        <time>2015-06-07T11:12:08Z</time>
      </trkpt>
      <trkpt lat="47.89757" lon="-1.75644">
        <ele>23</ele>
        <time>2015-06-07T11:12:09Z</time>
      </trkpt>
      <trkpt lat="47.89757" lon="-1.75641">
        <ele>23</ele>
        <time>2015-06-07T11:12:10Z</time>
      </trkpt>
      <trkpt lat="47.89757" lon="-1.75639">
        <ele>23</ele>
        <time>2015-06-07T11:12:11Z</time>
      </trkpt>
      <trkpt lat="47.89757" lon="-1.75636">
        <ele>24</ele>
        <time>2015-06-07T11:12:12Z</time>
      </trkpt>
      <trkpt lat="47.89756" lon="-1.75634">
        <ele>24</ele>
        <time>2015-06-07T11:12:13Z</time>
      </trkpt>
      <trkpt lat="47.89754" lon="-1.75632">
        <ele>24</ele>
        <time>2015-06-07T11:12:14Z</time>
      </trkpt>
      <trkpt lat="47.89753" lon="-1.75629">
        <ele>24</ele>
        <time>2015-06-07T11:12:15Z</time>
      </trkpt>
      <trkpt lat="47.89753" lon="-1.75625">
        <ele>25</ele>
        <time>2015-06-07T11:12:16Z</time>
      </trkpt>
      <trkpt lat="47.89751" lon="-1.75618">
        <ele>25</ele>
        <time>2015-06-07T11:12:17Z</time>
      </trkpt>
      <trkpt lat="47.8975" lon="-1.75614">
        <ele>25</ele>
        <time>2015-06-07T11:12:18Z</time>
      </trkpt>
      <trkpt lat="47.8975" lon="-1.75614">
        <ele>25</ele>
        <time>2015-06-07T11:12:19Z</time>
      </trkpt>
      <trkpt lat="47.89749" lon="-1.75611">
        <ele>26</ele>
        <time>2015-06-07T11:12:20Z</time>
      </trkpt>
      <trkpt lat="47.89747" lon="-1.75608">
        <ele>26</ele>
        <time>2015-06-07T11:12:21Z</time>
      </trkpt>
      <trkpt lat="47.89746" lon="-1.75605">
        <ele>26</ele>
        <time>2015-06-07T11:12:22Z</time>
      </trkpt>
      <trkpt lat="47.89744" lon="-1.75602">
        <ele>26</ele>
        <time>2015-06-07T11:12:23Z</time>
      </trkpt>
      <trkpt lat="47.8974" lon="-1.75598">
        <ele>27</ele>
        <time>2015-06-07T11:12:24Z</time>
      </trkpt>
      <trkpt lat="47.8974" lon="-1.75598">
        <ele>27</ele>
        <time>2015-06-07T11:12:25Z</time>
      </trkpt>
      <trkpt lat="47.89738" lon="-1.75595">
        <ele>27</ele>
        <time>2015-06-07T11:12:26Z</time>
      </trkpt>
      <trkpt lat="47.89735" lon="-1.7559">
        <ele>27</ele>
        <time>2015-06-07T11:12:27Z</time>
      </trkpt>
      <trkpt lat="47.89732" lon="-1.75588">
        <ele>28</ele>
        <time>2015-06-07T11:12:28Z</time>
      </trkpt>
      <trkpt lat="47.8973" lon="-1.75585">
        <ele>28</ele>
        <time>2015-06-07T11:12:29Z</time>
      </trkpt>
      <trkpt lat="47.89728" lon="-1.75582">
        <ele>28</ele>
        <time>2015-06-07T11:12:30Z</time>
      </trkpt>
      <trkpt lat="47.89728" lon="-1.75582">
        <ele>28</ele>
        <time>2015-06-07T11:12:31Z</time>
      </trkpt>
      <trkpt lat="47.89723" lon="-1.75577">
        <ele>29</ele>
        <time>2015-06-07T11:12:32Z</time>
      </trkpt>
      <trkpt lat="47.89723" lon="-1.75577">
        <ele>29</ele>
        <time>2015-06-07T11:12:33Z</time>
      </trkpt>
      <trkpt lat="47.89718" lon="-1.75572">
        <ele>29</ele>
        <time>2015-06-07T11:12:34Z</time>
      </trkpt>
      <trkpt lat="47.89718" lon="-1.75572">
        <ele>29</ele>
        <time>2015-06-07T11:12:35Z</time>
      </trkpt>
      <trkpt lat="47.89712" lon="-1.75567">
        <ele>30</ele>
        <time>2015-06-07T11:12:36Z</time>
      </trkpt>
      <trkpt lat="47.89709" lon="-1.75564">
        <ele>30</ele>
        <time>2015-06-07T11:12:37Z</time>
      </trkpt>
      <trkpt lat="47.89706" lon="-1.75562">
        <ele>30</ele>
        <time>2015-06-07T11:12:38Z</time>
      </trkpt>
      <trkpt lat="47.89703" lon="-1.75559">
        <ele>30</ele>
        <time>2015-06-07T11:12:39Z</time>
      </trkpt>
      <trkpt lat="47.89701" lon="-1.75557">
        <ele>30</ele>
        <time>2015-06-07T11:12:40Z</time>
      </trkpt>
      <trkpt lat="47.89697" lon="-1.75556">
        <ele>30</ele>
        <time>2015-06-07T11:12:41Z</time>
      </trkpt>
      <trkpt lat="47.89694" lon="-1.75554">
        <ele>30</ele>
        <time>2015-06-07T11:12:42Z</time>
      </trkpt>
      <trkpt lat="47.89694" lon="-1.75554">
        <ele>30</ele>
        <time>2015-06-07T11:12:43Z</time>
      </trkpt>
      <trkpt lat="47.89687" lon="-1.75551">
        <ele>31</ele>
        <time>2015-06-07T11:12:44Z</time>
      </trkpt>
      <trkpt lat="47.89683" lon="-1.75549">
        <ele>31</ele>
        <time>2015-06-07T11:12:45Z</time>
      </trkpt>
      <trkpt lat="47.89683" lon="-1.75549">
        <ele>31</ele>
        <time>2015-06-07T11:12:46Z</time>
      </trkpt>
      <trkpt lat="47.89676" lon="-1.75547">
        <ele>31</ele>
        <time>2015-06-07T11:12:47Z</time>
      </trkpt>
      <trkpt lat="47.89673" lon="-1.75546">
        <ele>31</ele>
        <time>2015-06-07T11:12:48Z</time>
      </trkpt>
      <trkpt lat="47.8967" lon="-1.75544">
        <ele>31</ele>
        <time>2015-06-07T11:12:49Z</time>
      </trkpt>
      <trkpt lat="47.89667" lon="-1.75542">
        <ele>31</ele>
        <time>2015-06-07T11:12:50Z</time>
      </trkpt>
      <trkpt lat="47.89665" lon="-1.75541">
        <ele>31</ele>
        <time>2015-06-07T11:12:51Z</time>
      </trkpt>
      <trkpt lat="47.89661" lon="-1.7554">
        <ele>31</ele>
        <time>2015-06-07T11:12:52Z</time>
      </trkpt>
      <trkpt lat="47.89658" lon="-1.75539">
        <ele>31</ele>
        <time>2015-06-07T11:12:53Z</time>
      </trkpt>
      <trkpt lat="47.89654" lon="-1.75538">
        <ele>31</ele>
        <time>2015-06-07T11:12:54Z</time>
      </trkpt>
      <trkpt lat="47.89651" lon="-1.75536">
        <ele>31</ele>
        <time>2015-06-07T11:12:55Z</time>
      </trkpt>
      <trkpt lat="47.89647" lon="-1.75535">
        <ele>31</ele>
        <time>2015-06-07T11:12:56Z</time>
      </trkpt>
      <trkpt lat="47.89647" lon="-1.75535">
        <ele>31</ele>
        <time>2015-06-07T11:12:57Z</time>
      </trkpt>
      <trkpt lat="47.89644" lon="-1.75534">
        <ele>31</ele>
        <time>2015-06-07T11:12:58Z</time>
      </trkpt>
      <trkpt lat="47.89641" lon="-1.75533">
        <ele>31</ele>
        <time>2015-06-07T11:12:59Z</time>
      </trkpt>
      <trkpt lat="47.89638" lon="-1.75532">
        <ele>31</ele>
        <time>2015-06-07T11:13:00Z</time>
      </trkpt>
      <trkpt lat="47.89635" lon="-1.7553">
        <ele>32</ele>
        <time>2015-06-07T11:13:01Z</time>
      </trkpt>
      <trkpt lat="47.89631" lon="-1.7553">
        <ele>32</ele>
        <time>2015-06-07T11:13:02Z</time>
      </trkpt>
      <trkpt lat="47.89628" lon="-1.75529">
        <ele>32</ele>
        <time>2015-06-07T11:13:03Z</time>
      </trkpt>
      <trkpt lat="47.89624" lon="-1.75527">
        <ele>32</ele>
        <time>2015-06-07T11:13:04Z</time>
      </trkpt>
      <trkpt lat="47.89622" lon="-1.75526">
        <ele>32</ele>
        <time>2015-06-07T11:13:05Z</time>
      </trkpt>
      <trkpt lat="47.89616" lon="-1.75522">
        <ele>32</ele>
        <time>2015-06-07T11:13:06Z</time>
      </trkpt>
      <trkpt lat="47.89613" lon="-1.7552">
        <ele>32</ele>
        <time>2015-06-07T11:13:07Z</time>
      </trkpt>
      <trkpt lat="47.8961" lon="-1.75518">
        <ele>32</ele>
        <time>2015-06-07T11:13:08Z</time>
      </trkpt>
      <trkpt lat="47.89606" lon="-1.75517">
        <ele>33</ele>
        <time>2015-06-07T11:13:09Z</time>
      </trkpt>
      <trkpt lat="47.89603" lon="-1.75516">
        <ele>33</ele>
        <time>2015-06-07T11:13:10Z</time>
      </trkpt>
      <trkpt lat="47.89599" lon="-1.75515">
        <ele>33</ele>
        <time>2015-06-07T11:13:11Z</time>
      </trkpt>
      <trkpt lat="47.89595" lon="-1.75514">
        <ele>33</ele>
        <time>2015-06-07T11:13:12Z</time>
      </trkpt>
      <trkpt lat="47.89591" lon="-1.75512">
        <ele>33</ele>
        <time>2015-06-07T11:13:13Z</time>
      </trkpt>
      <trkpt lat="47.89588" lon="-1.7551">
        <ele>33</ele>
        <time>2015-06-07T11:13:14Z</time>
      </trkpt>
      <trkpt lat="47.89588" lon="-1.7551">
        <ele>33</ele>
        <time>2015-06-07T11:13:15Z</time>
      </trkpt>
      <trkpt lat="47.89583" lon="-1.75503">
        <ele>33</ele>
        <time>2015-06-07T11:13:16Z</time>
      </trkpt>
      <trkpt lat="47.89583" lon="-1.75503">
        <ele>33</ele>
        <time>2015-06-07T11:13:17Z</time>
      </trkpt>
      <trkpt lat="47.89581" lon="-1.755">
        <ele>33</ele>
        <time>2015-06-07T11:13:18Z</time>
      </trkpt>
      <trkpt lat="47.8958" lon="-1.75497">
        <ele>33</ele>
        <time>2015-06-07T11:13:19Z</time>
      </trkpt>
      <trkpt lat="47.89579" lon="-1.75495">
        <ele>33</ele>
        <time>2015-06-07T11:13:20Z</time>
      </trkpt>
      <trkpt lat="47.89577" lon="-1.75493">
        <ele>34</ele>
        <time>2015-06-07T11:13:21Z</time>
      </trkpt>
      <trkpt lat="47.89577" lon="-1.7549">
        <ele>34</ele>
        <time>2015-06-07T11:13:22Z</time>
      </trkpt>
      <trkpt lat="47.89575" lon="-1.75487">
        <ele>34</ele>
        <time>2015-06-07T11:13:23Z</time>
      </trkpt>
      <trkpt lat="47.89574" lon="-1.75485">
        <ele>34</ele>
        <time>2015-06-07T11:13:24Z</time>
      </trkpt>
      <trkpt lat="47.89573" lon="-1.75483">
        <ele>34</ele>
        <time>2015-06-07T11:13:25Z</time>
      </trkpt>
      <trkpt lat="47.89572" lon="-1.7548">
        <ele>34</ele>
        <time>2015-06-07T11:13:26Z</time>
      </trkpt>
      <trkpt lat="47.89572" lon="-1.75479">
        <ele>35</ele>
        <time>2015-06-07T11:13:27Z</time>
      </trkpt>
      <trkpt lat="47.89571" lon="-1.75477">
        <ele>35</ele>
        <time>2015-06-07T11:13:28Z</time>
      </trkpt>
      <trkpt lat="47.89571" lon="-1.75476">
        <ele>35</ele>
        <time>2015-06-07T11:13:29Z</time>
      </trkpt>
      <trkpt lat="47.8957" lon="-1.75475">
        <ele>35</ele>
        <time>2015-06-07T11:13:30Z</time>
      </trkpt>
      <trkpt lat="47.8957" lon="-1.75474">
        <ele>36</ele>
        <time>2015-06-07T11:13:31Z</time>
      </trkpt>
      <trkpt lat="47.89569" lon="-1.75473">
        <ele>36</ele>
        <time>2015-06-07T11:13:32Z</time>
      </trkpt>
      <trkpt lat="47.89569" lon="-1.75472">
        <ele>36</ele>
        <time>2015-06-07T11:13:33Z</time>
      </trkpt>
      <trkpt lat="47.89569" lon="-1.7547">
        <ele>37</ele>
        <time>2015-06-07T11:13:34Z</time>
      </trkpt>
      <trkpt lat="47.89569" lon="-1.75469">
        <ele>37</ele>
        <time>2015-06-07T11:13:35Z</time>
      </trkpt>
      <trkpt lat="47.89569" lon="-1.75468">
        <ele>37</ele>
        <time>2015-06-07T11:13:36Z</time>
      </trkpt>
      <trkpt lat="47.89569" lon="-1.75466">
        <ele>37</ele>
        <time>2015-06-07T11:13:37Z</time>
      </trkpt>
      <trkpt lat="47.89568" lon="-1.75464">
        <ele>38</ele>
        <time>2015-06-07T11:13:38Z</time>
      </trkpt>
      <trkpt lat="47.89567" lon="-1.75463">
        <ele>38</ele>
        <time>2015-06-07T11:13:39Z</time>
      </trkpt>
      <trkpt lat="47.89567" lon="-1.75461">
        <ele>38</ele>
        <time>2015-06-07T11:13:40Z</time>
      </trkpt>
      <trkpt lat="47.89567" lon="-1.75457">
        <ele>39</ele>
        <time>2015-06-07T11:13:41Z</time>
      </trkpt>
      <trkpt lat="47.89567" lon="-1.75456">
        <ele>39</ele>
        <time>2015-06-07T11:13:42Z</time>
      </trkpt>
      <trkpt lat="47.89567" lon="-1.75454">
        <ele>39</ele>
        <time>2015-06-07T11:13:43Z</time>
      </trkpt>
      <trkpt lat="47.89567" lon="-1.75454">
        <ele>39</ele>
        <time>2015-06-07T11:13:44Z</time>
      </trkpt>
      <trkpt lat="47.89567" lon="-1.75453">
        <ele>39</ele>
        <time>2015-06-07T11:13:45Z</time>
      </trkpt>
      <trkpt lat="47.89568" lon="-1.75452">
        <ele>39</ele>
        <time>2015-06-07T11:13:46Z</time>
      </trkpt>
      <trkpt lat="47.89567" lon="-1.75451">
        <ele>39</ele>
        <time>2015-06-07T11:13:47Z</time>
      </trkpt>
      <trkpt lat="47.89567" lon="-1.75451">
        <ele>39</ele>
        <time>2015-06-07T11:13:48Z</time>
      </trkpt>
      <trkpt lat="47.89567" lon="-1.7545">
        <ele>39</ele>
        <time>2015-06-07T11:13:49Z</time>
      </trkpt>
      <trkpt lat="47.89567" lon="-1.7545">
        <ele>40</ele>
        <time>2015-06-07T11:13:50Z</time>
      </trkpt>
      <trkpt lat="47.89567" lon="-1.7545">
        <ele>40</ele>
        <time>2015-06-07T11:13:51Z</time>
      </trkpt>
      <trkpt lat="47.89568" lon="-1.7545">
        <ele>40</ele>
        <time>2015-06-07T11:13:52Z</time>
      </trkpt>
      <trkpt lat="47.89568" lon="-1.7545">
        <ele>40</ele>
        <time>2015-06-07T11:13:53Z</time>
      </trkpt>
      <trkpt lat="47.89568" lon="-1.75451">
        <ele>40</ele>
        <time>2015-06-07T11:13:54Z</time>
      </trkpt>
      <trkpt lat="47.89568" lon="-1.75451">
        <ele>40</ele>
        <time>2015-06-07T11:13:55Z</time>
      </trkpt>
      <trkpt lat="47.89568" lon="-1.75452">
        <ele>40</ele>
        <time>2015-06-07T11:13:56Z</time>
      </trkpt>
      <trkpt lat="47.89569" lon="-1.75455">
        <ele>41</ele>
        <time>2015-06-07T11:13:57Z</time>
      </trkpt>
      <trkpt lat="47.89569" lon="-1.75455">
        <ele>41</ele>
        <time>2015-06-07T11:13:58Z</time>
      </trkpt>
      <trkpt lat="47.89569" lon="-1.75455">
        <ele>41</ele>
        <time>2015-06-07T11:13:59Z</time>
      </trkpt>
      <trkpt lat="47.89569" lon="-1.75455">
        <ele>41</ele>
        <time>2015-06-07T11:14:00Z</time>
      </trkpt>
      <trkpt lat="47.89569" lon="-1.75455">
        <ele>41</ele>
        <time>2015-06-07T11:14:01Z</time>
      </trkpt>
      <trkpt lat="47.89569" lon="-1.75455">
        <ele>41</ele>
        <time>2015-06-07T11:14:02Z</time>
      </trkpt>
      <trkpt lat="47.89569" lon="-1.75455">
        <ele>41</ele>
        <time>2015-06-07T11:14:03Z</time>
      </trkpt>
      <trkpt lat="47.89569" lon="-1.75454">
        <ele>42</ele>
        <time>2015-06-07T11:14:04Z</time>
      </trkpt>
      <trkpt lat="47.8957" lon="-1.75461">
        <ele>42</ele>
        <time>2015-06-07T11:14:05Z</time>
      </trkpt>
      <trkpt lat="47.89571" lon="-1.75463">
        <ele>43</ele>
        <time>2015-06-07T11:14:06Z</time>
      </trkpt>
      <trkpt lat="47.89572" lon="-1.75465">
        <ele>43</ele>
        <time>2015-06-07T11:14:07Z</time>
      </trkpt>
      <trkpt lat="47.89573" lon="-1.75466">
        <ele>43</ele>
        <time>2015-06-07T11:14:08Z</time>
      </trkpt>
      <trkpt lat="47.89574" lon="-1.75468">
        <ele>43</ele>
        <time>2015-06-07T11:14:09Z</time>
      </trkpt>
      <trkpt lat="47.89575" lon="-1.7547">
        <ele>43</ele>
        <time>2015-06-07T11:14:10Z</time>
      </trkpt>
      <trkpt lat="47.89575" lon="-1.75471">
        <ele>44</ele>
        <time>2015-06-07T11:14:11Z</time>
      </trkpt>
      <trkpt lat="47.89576" lon="-1.75473">
        <ele>44</ele>
        <time>2015-06-07T11:14:12Z</time>
      </trkpt>
      <trkpt lat="47.89576" lon="-1.75475">
        <ele>44</ele>
        <time>2015-06-07T11:14:13Z</time>
      </trkpt>
      <trkpt lat="47.89577" lon="-1.75477">
        <ele>44</ele>
        <time>2015-06-07T11:14:14Z</time>
      </trkpt>
      <trkpt lat="47.89578" lon="-1.75478">
        <ele>44</ele>
        <time>2015-06-07T11:14:15Z</time>
      </trkpt>
      <trkpt lat="47.89579" lon="-1.7548">
        <ele>44</ele>
        <time>2015-06-07T11:14:16Z</time>
      </trkpt>
      <trkpt lat="47.8958" lon="-1.75481">
        <ele>45</ele>
        <time>2015-06-07T11:14:17Z</time>
      </trkpt>
      <trkpt lat="47.89581" lon="-1.75482">
        <ele>45</ele>
        <time>2015-06-07T11:14:18Z</time>
      </trkpt>
      <trkpt lat="47.89583" lon="-1.75483">
        <ele>45</ele>
        <time>2015-06-07T11:14:19Z</time>
      </trkpt>
      <trkpt lat="47.89585" lon="-1.75484">
        <ele>45</ele>
        <time>2015-06-07T11:14:20Z</time>
      </trkpt>
      <trkpt lat="47.89586" lon="-1.75486">
        <ele>45</ele>
        <time>2015-06-07T11:14:21Z</time>
      </trkpt>
      <trkpt lat="47.89588" lon="-1.75488">
        <ele>45</ele>
        <time>2015-06-07T11:14:22Z</time>
      </trkpt>
      <trkpt lat="47.89589" lon="-1.75489">
        <ele>46</ele>
        <time>2015-06-07T11:14:23Z</time>
      </trkpt>
      <trkpt lat="47.89591" lon="-1.75491">
        <ele>46</ele>
        <time>2015-06-07T11:14:24Z</time>
      </trkpt>
      <trkpt lat="47.89592" lon="-1.75493">
        <ele>46</ele>
        <time>2015-06-07T11:14:25Z</time>
      </trkpt>
      <trkpt lat="47.89594" lon="-1.75494">
        <ele>46</ele>
        <time>2015-06-07T11:14:26Z</time>
      </trkpt>
      <trkpt lat="47.89596" lon="-1.75496">
        <ele>46</ele>
        <time>2015-06-07T11:14:27Z</time>
      </trkpt>
      <trkpt lat="47.89599" lon="-1.75496">
        <ele>47</ele>
        <time>2015-06-07T11:14:28Z</time>
      </trkpt>
      <trkpt lat="47.89602" lon="-1.75497">
        <ele>47</ele>
        <time>2015-06-07T11:14:29Z</time>
      </trkpt>
      <trkpt lat="47.89604" lon="-1.755">
        <ele>47</ele>
        <time>2015-06-07T11:14:30Z</time>
      </trkpt>
      <trkpt lat="47.89607" lon="-1.75501">
        <ele>47</ele>
        <time>2015-06-07T11:14:31Z</time>
      </trkpt>
      <trkpt lat="47.89613" lon="-1.75502">
        <ele>46</ele>
        <time>2015-06-07T11:14:32Z</time>
      </trkpt>
      <trkpt lat="47.89617" lon="-1.75503">
        <ele>46</ele>
        <time>2015-06-07T11:14:33Z</time>
      </trkpt>
      <trkpt lat="47.89621" lon="-1.75505">
        <ele>46</ele>
        <time>2015-06-07T11:14:34Z</time>
      </trkpt>
      <trkpt lat="47.89625" lon="-1.75507">
        <ele>46</ele>
        <time>2015-06-07T11:14:35Z</time>
      </trkpt>
      <trkpt lat="47.89625" lon="-1.75507">
        <ele>46</ele>
        <time>2015-06-07T11:14:36Z</time>
      </trkpt>
      <trkpt lat="47.89633" lon="-1.7551">
        <ele>46</ele>
        <time>2015-06-07T11:14:37Z</time>
      </trkpt>
      <trkpt lat="47.89633" lon="-1.7551">
        <ele>46</ele>
        <time>2015-06-07T11:14:38Z</time>
      </trkpt>
      <trkpt lat="47.89638" lon="-1.75511">
        <ele>46</ele>
        <time>2015-06-07T11:14:39Z</time>
      </trkpt>
      <trkpt lat="47.89642" lon="-1.75512">
        <ele>46</ele>
        <time>2015-06-07T11:14:40Z</time>
      </trkpt>
      <trkpt lat="47.89649" lon="-1.75515">
        <ele>45</ele>
        <time>2015-06-07T11:14:41Z</time>
      </trkpt>
      <trkpt lat="47.89649" lon="-1.75515">
        <ele>45</ele>
        <time>2015-06-07T11:14:42Z</time>
      </trkpt>
      <trkpt lat="47.89658" lon="-1.75519">
        <ele>45</ele>
        <time>2015-06-07T11:14:43Z</time>
      </trkpt>
      <trkpt lat="47.89663" lon="-1.7552">
        <ele>45</ele>
        <time>2015-06-07T11:14:44Z</time>
      </trkpt>
      <trkpt lat="47.89668" lon="-1.75522">
        <ele>45</ele>
        <time>2015-06-07T11:14:45Z</time>
      </trkpt>
      <trkpt lat="47.89672" lon="-1.75523">
        <ele>45</ele>
        <time>2015-06-07T11:14:46Z</time>
      </trkpt>
      <trkpt lat="47.89677" lon="-1.75525">
        <ele>45</ele>
        <time>2015-06-07T11:14:47Z</time>
      </trkpt>
      <trkpt lat="47.89682" lon="-1.75526">
        <ele>45</ele>
        <time>2015-06-07T11:14:48Z</time>
      </trkpt>
      <trkpt lat="47.89687" lon="-1.75527">
        <ele>44</ele>
        <time>2015-06-07T11:14:49Z</time>
      </trkpt>
      <trkpt lat="47.89692" lon="-1.75528">
        <ele>44</ele>
        <time>2015-06-07T11:14:50Z</time>
      </trkpt>
      <trkpt lat="47.89697" lon="-1.75529">
        <ele>44</ele>
        <time>2015-06-07T11:14:51Z</time>
      </trkpt>
      <trkpt lat="47.89701" lon="-1.75529">
        <ele>44</ele>
        <time>2015-06-07T11:14:52Z</time>
      </trkpt>
      <trkpt lat="47.89705" lon="-1.7553">
        <ele>44</ele>
        <time>2015-06-07T11:14:53Z</time>
      </trkpt>
      <trkpt lat="47.89709" lon="-1.75531">
        <ele>44</ele>
        <time>2015-06-07T11:14:54Z</time>
      </trkpt>
      <trkpt lat="47.89713" lon="-1.75533">
        <ele>43</ele>
        <time>2015-06-07T11:14:55Z</time>
      </trkpt>
      <trkpt lat="47.89717" lon="-1.75534">
        <ele>43</ele>
        <time>2015-06-07T11:14:56Z</time>
      </trkpt>
      <trkpt lat="47.89717" lon="-1.75534">
        <ele>43</ele>
        <time>2015-06-07T11:14:57Z</time>
      </trkpt>
      <trkpt lat="47.89726" lon="-1.75537">
        <ele>43</ele>
        <time>2015-06-07T11:14:58Z</time>
      </trkpt>
      <trkpt lat="47.89726" lon="-1.75537">
        <ele>43</ele>
        <time>2015-06-07T11:14:59Z</time>
      </trkpt>
      <trkpt lat="47.8973" lon="-1.75539">
        <ele>43</ele>
        <time>2015-06-07T11:15:00Z</time>
      </trkpt>
      <trkpt lat="47.89737" lon="-1.75542">
        <ele>43</ele>
        <time>2015-06-07T11:15:01Z</time>
      </trkpt>
      <trkpt lat="47.8974" lon="-1.75545">
        <ele>43</ele>
        <time>2015-06-07T11:15:02Z</time>
      </trkpt>
      <trkpt lat="47.89743" lon="-1.75546">
        <ele>43</ele>
        <time>2015-06-07T11:15:03Z</time>
      </trkpt>
      <trkpt lat="47.89746" lon="-1.75547">
        <ele>44</ele>
        <time>2015-06-07T11:15:04Z</time>
      </trkpt>
      <trkpt lat="47.89748" lon="-1.75549">
        <ele>44</ele>
        <time>2015-06-07T11:15:05Z</time>
      </trkpt>
      <trkpt lat="47.89751" lon="-1.7555">
        <ele>44</ele>
        <time>2015-06-07T11:15:06Z</time>
      </trkpt>
      <trkpt lat="47.89754" lon="-1.75551">
        <ele>44</ele>
        <time>2015-06-07T11:15:07Z</time>
      </trkpt>
      <trkpt lat="47.89757" lon="-1.75552">
        <ele>44</ele>
        <time>2015-06-07T11:15:08Z</time>
      </trkpt>
      <trkpt lat="47.89759" lon="-1.75554">
        <ele>45</ele>
        <time>2015-06-07T11:15:09Z</time>
      </trkpt>
      <trkpt lat="47.89762" lon="-1.75555">
        <ele>45</ele>
        <time>2015-06-07T11:15:10Z</time>
      </trkpt>
      <trkpt lat="47.89762" lon="-1.75555">
        <ele>45</ele>
        <time>2015-06-07T11:15:11Z</time>
      </trkpt>
      <trkpt lat="47.89766" lon="-1.75556">
        <ele>45</ele>
        <time>2015-06-07T11:15:12Z</time>
      </trkpt>
      <trkpt lat="47.89772" lon="-1.75558">
        <ele>45</ele>
        <time>2015-06-07T11:15:13Z</time>
      </trkpt>
      <trkpt lat="47.89775" lon="-1.75558">
        <ele>45</ele>
        <time>2015-06-07T11:15:14Z</time>
      </trkpt>
      <trkpt lat="47.89779" lon="-1.75559">
        <ele>45</ele>
        <time>2015-06-07T11:15:15Z</time>
      </trkpt>
      <trkpt lat="47.89782" lon="-1.75561">
        <ele>45</ele>
        <time>2015-06-07T11:15:16Z</time>
      </trkpt>
      <trkpt lat="47.89782" lon="-1.75561">
        <ele>45</ele>
        <time>2015-06-07T11:15:17Z</time>
      </trkpt>
      <trkpt lat="47.89785" lon="-1.75561">
        <ele>45</ele>
        <time>2015-06-07T11:15:18Z</time>
      </trkpt>
      <trkpt lat="47.89788" lon="-1.7556">
        <ele>45</ele>
        <time>2015-06-07T11:15:19Z</time>
      </trkpt>
      <trkpt lat="47.8979" lon="-1.75557">
        <ele>45</ele>
        <time>2015-06-07T11:15:20Z</time>
      </trkpt>
      <trkpt lat="47.89792" lon="-1.75553">
        <ele>46</ele>
        <time>2015-06-07T11:15:21Z</time>
      </trkpt>
      <trkpt lat="47.89793" lon="-1.75549">
        <ele>46</ele>
        <time>2015-06-07T11:15:22Z</time>
      </trkpt>
      <trkpt lat="47.89795" lon="-1.75544">
        <ele>46</ele>
        <time>2015-06-07T11:15:23Z</time>
      </trkpt>
      <trkpt lat="47.89796" lon="-1.7554">
        <ele>46</ele>
        <time>2015-06-07T11:15:24Z</time>
      </trkpt>
      <trkpt lat="47.89798" lon="-1.75536">
        <ele>46</ele>
        <time>2015-06-07T11:15:25Z</time>
      </trkpt>
      <trkpt lat="47.89799" lon="-1.75531">
        <ele>46</ele>
        <time>2015-06-07T11:15:26Z</time>
      </trkpt>
      <trkpt lat="47.89802" lon="-1.75527">
        <ele>46</ele>
        <time>2015-06-07T11:15:27Z</time>
      </trkpt>
      <trkpt lat="47.89803" lon="-1.75522">
        <ele>46</ele>
        <time>2015-06-07T11:15:28Z</time>
      </trkpt>
      <trkpt lat="47.89806" lon="-1.75517">
        <ele>46</ele>
        <time>2015-06-07T11:15:29Z</time>
      </trkpt>
      <trkpt lat="47.89808" lon="-1.75512">
        <ele>46</ele>
        <time>2015-06-07T11:15:30Z</time>
      </trkpt>
      <trkpt lat="47.89809" lon="-1.75507">
        <ele>46</ele>
        <time>2015-06-07T11:15:31Z</time>
      </trkpt>
      <trkpt lat="47.89811" lon="-1.75502">
        <ele>46</ele>
        <time>2015-06-07T11:15:32Z</time>
      </trkpt>
      <trkpt lat="47.89813" lon="-1.75496">
        <ele>46</ele>
        <time>2015-06-07T11:15:33Z</time>
      </trkpt>
      <trkpt lat="47.89815" lon="-1.75491">
        <ele>46</ele>
        <time>2015-06-07T11:15:34Z</time>
      </trkpt>
      <trkpt lat="47.89816" lon="-1.75486">
        <ele>46</ele>
        <time>2015-06-07T11:15:35Z</time>
      </trkpt>
      <trkpt lat="47.89818" lon="-1.7548">
        <ele>46</ele>
        <time>2015-06-07T11:15:36Z</time>
      </trkpt>
      <trkpt lat="47.89819" lon="-1.75474">
        <ele>46</ele>
        <time>2015-06-07T11:15:37Z</time>
      </trkpt>
      <trkpt lat="47.8982" lon="-1.75468">
        <ele>46</ele>
        <time>2015-06-07T11:15:38Z</time>
      </trkpt>
      <trkpt lat="47.89821" lon="-1.75463">
        <ele>46</ele>
        <time>2015-06-07T11:15:39Z</time>
      </trkpt>
      <trkpt lat="47.89822" lon="-1.75458">
        <ele>46</ele>
        <time>2015-06-07T11:15:40Z</time>
      </trkpt>
      <trkpt lat="47.89823" lon="-1.75453">
        <ele>46</ele>
        <time>2015-06-07T11:15:41Z</time>
      </trkpt>
      <trkpt lat="47.89824" lon="-1.75448">
        <ele>46</ele>
        <time>2015-06-07T11:15:42Z</time>
      </trkpt>
      <trkpt lat="47.89824" lon="-1.75442">
        <ele>46</ele>
        <time>2015-06-07T11:15:43Z</time>
      </trkpt>
      <trkpt lat="47.89824" lon="-1.75437">
        <ele>46</ele>
        <time>2015-06-07T11:15:44Z</time>
      </trkpt>
      <trkpt lat="47.89823" lon="-1.75433">
        <ele>46</ele>
        <time>2015-06-07T11:15:45Z</time>
      </trkpt>
      <trkpt lat="47.89822" lon="-1.75431">
        <ele>46</ele>
        <time>2015-06-07T11:15:46Z</time>
      </trkpt>
      <trkpt lat="47.8982" lon="-1.75428">
        <ele>46</ele>
        <time>2015-06-07T11:15:47Z</time>
      </trkpt>
      <trkpt lat="47.89819" lon="-1.75425">
        <ele>46</ele>
        <time>2015-06-07T11:15:48Z</time>
      </trkpt>
      <trkpt lat="47.89819" lon="-1.75424">
        <ele>46</ele>
        <time>2015-06-07T11:15:49Z</time>
      </trkpt>
      <trkpt lat="47.89817" lon="-1.75422">
        <ele>46</ele>
        <time>2015-06-07T11:15:50Z</time>
      </trkpt>
      <trkpt lat="47.89816" lon="-1.7542">
        <ele>46</ele>
        <time>2015-06-07T11:15:51Z</time>
      </trkpt>
      <trkpt lat="47.89814" lon="-1.75419">
        <ele>46</ele>
        <time>2015-06-07T11:15:52Z</time>
      </trkpt>
      <trkpt lat="47.89812" lon="-1.75418">
        <ele>46</ele>
        <time>2015-06-07T11:15:53Z</time>
      </trkpt>
      <trkpt lat="47.8981" lon="-1.75416">
        <ele>46</ele>
        <time>2015-06-07T11:15:54Z</time>
      </trkpt>
      <trkpt lat="47.89809" lon="-1.75413">
        <ele>47</ele>
        <time>2015-06-07T11:15:55Z</time>
      </trkpt>
      <trkpt lat="47.89808" lon="-1.75411">
        <ele>47</ele>
        <time>2015-06-07T11:15:56Z</time>
      </trkpt>
      <trkpt lat="47.89806" lon="-1.7541">
        <ele>48</ele>
        <time>2015-06-07T11:15:57Z</time>
      </trkpt>
      <trkpt lat="47.89804" lon="-1.75408">
        <ele>48</ele>
        <time>2015-06-07T11:15:58Z</time>
      </trkpt>
      <trkpt lat="47.89802" lon="-1.75405">
        <ele>49</ele>
        <time>2015-06-07T11:15:59Z</time>
      </trkpt>
      <trkpt lat="47.898" lon="-1.75403">
        <ele>49</ele>
        <time>2015-06-07T11:16:00Z</time>
      </trkpt>
      <trkpt lat="47.89797" lon="-1.75401">
        <ele>49</ele>
        <time>2015-06-07T11:16:01Z</time>
      </trkpt>
      <trkpt lat="47.89794" lon="-1.75399">
        <ele>50</ele>
        <time>2015-06-07T11:16:02Z</time>
      </trkpt>
      <trkpt lat="47.89792" lon="-1.75397">
        <ele>50</ele>
        <time>2015-06-07T11:16:03Z</time>
      </trkpt>
      <trkpt lat="47.89789" lon="-1.75393">
        <ele>50</ele>
        <time>2015-06-07T11:16:04Z</time>
      </trkpt>
      <trkpt lat="47.89789" lon="-1.75389">
        <ele>51</ele>
        <time>2015-06-07T11:16:05Z</time>
      </trkpt>
      <trkpt lat="47.89788" lon="-1.75385">
        <ele>51</ele>
        <time>2015-06-07T11:16:06Z</time>
      </trkpt>
      <trkpt lat="47.89788" lon="-1.7538">
        <ele>51</ele>
        <time>2015-06-07T11:16:07Z</time>
      </trkpt>
      <trkpt lat="47.89789" lon="-1.75375">
        <ele>51</ele>
        <time>2015-06-07T11:16:08Z</time>
      </trkpt>
      <trkpt lat="47.89789" lon="-1.7537">
        <ele>52</ele>
        <time>2015-06-07T11:16:09Z</time>
      </trkpt>
      <trkpt lat="47.8979" lon="-1.75365">
        <ele>52</ele>
        <time>2015-06-07T11:16:10Z</time>
      </trkpt>
      <trkpt lat="47.89791" lon="-1.75359">
        <ele>52</ele>
        <time>2015-06-07T11:16:11Z</time>
      </trkpt>
      <trkpt lat="47.89792" lon="-1.75355">
        <ele>52</ele>
        <time>2015-06-07T11:16:12Z</time>
      </trkpt>
      <trkpt lat="47.89793" lon="-1.75349">
        <ele>52</ele>
        <time>2015-06-07T11:16:13Z</time>
      </trkpt>
      <trkpt lat="47.89794" lon="-1.75345">
        <ele>52</ele>
        <time>2015-06-07T11:16:14Z</time>
      </trkpt>
      <trkpt lat="47.89793" lon="-1.7534">
        <ele>52</ele>
        <time>2015-06-07T11:16:15Z</time>
      </trkpt>
      <trkpt lat="47.8979" lon="-1.75335">
        <ele>52</ele>
        <time>2015-06-07T11:16:16Z</time>
      </trkpt>
      <trkpt lat="47.8979" lon="-1.75335">
        <ele>52</ele>
        <time>2015-06-07T11:16:17Z</time>
      </trkpt>
      <trkpt lat="47.89788" lon="-1.75333">
        <ele>53</ele>
        <time>2015-06-07T11:16:18Z</time>
      </trkpt>
      <trkpt lat="47.89785" lon="-1.75332">
        <ele>53</ele>
        <time>2015-06-07T11:16:19Z</time>
      </trkpt>
      <trkpt lat="47.89782" lon="-1.75331">
        <ele>53</ele>
        <time>2015-06-07T11:16:20Z</time>
      </trkpt>
      <trkpt lat="47.89779" lon="-1.75329">
        <ele>53</ele>
        <time>2015-06-07T11:16:21Z</time>
      </trkpt>
      <trkpt lat="47.89776" lon="-1.75327">
        <ele>53</ele>
        <time>2015-06-07T11:16:22Z</time>
      </trkpt>
      <trkpt lat="47.89774" lon="-1.75325">
        <ele>53</ele>
        <time>2015-06-07T11:16:23Z</time>
      </trkpt>
      <trkpt lat="47.89771" lon="-1.75322">
        <ele>53</ele>
        <time>2015-06-07T11:16:24Z</time>
      </trkpt>
      <trkpt lat="47.89767" lon="-1.7532">
        <ele>53</ele>
        <time>2015-06-07T11:16:25Z</time>
      </trkpt>
      <trkpt lat="47.89764" lon="-1.75318">
        <ele>54</ele>
        <time>2015-06-07T11:16:26Z</time>
      </trkpt>
      <trkpt lat="47.89761" lon="-1.75316">
        <ele>54</ele>
        <time>2015-06-07T11:16:27Z</time>
      </trkpt>
      <trkpt lat="47.89758" lon="-1.75314">
        <ele>54</ele>
        <time>2015-06-07T11:16:28Z</time>
      </trkpt>
      <trkpt lat="47.89755" lon="-1.75312">
        <ele>54</ele>
        <time>2015-06-07T11:16:29Z</time>
      </trkpt>
      <trkpt lat="47.89752" lon="-1.7531">
        <ele>54</ele>
        <time>2015-06-07T11:16:30Z</time>
      </trkpt>
      <trkpt lat="47.89749" lon="-1.75307">
        <ele>55</ele>
        <time>2015-06-07T11:16:31Z</time>
      </trkpt>
      <trkpt lat="47.89747" lon="-1.75304">
        <ele>55</ele>
        <time>2015-06-07T11:16:32Z</time>
      </trkpt>
      <trkpt lat="47.89744" lon="-1.75301">
        <ele>55</ele>
        <time>2015-06-07T11:16:33Z</time>
      </trkpt>
      <trkpt lat="47.89741" lon="-1.75297">
        <ele>55</ele>
        <time>2015-06-07T11:16:34Z</time>
      </trkpt>
      <trkpt lat="47.89739" lon="-1.75293">
        <ele>55</ele>
        <time>2015-06-07T11:16:35Z</time>
      </trkpt>
      <trkpt lat="47.89737" lon="-1.75289">
        <ele>56</ele>
        <time>2015-06-07T11:16:36Z</time>
      </trkpt>
      <trkpt lat="47.89736" lon="-1.75284">
        <ele>56</ele>
        <time>2015-06-07T11:16:37Z</time>
      </trkpt>
      <trkpt lat="47.89734" lon="-1.7528">
        <ele>56</ele>
        <time>2015-06-07T11:16:38Z</time>
      </trkpt>
      <trkpt lat="47.89731" lon="-1.75276">
        <ele>56</ele>
        <time>2015-06-07T11:16:39Z</time>
      </trkpt>
      <trkpt lat="47.89729" lon="-1.75271">
        <ele>56</ele>
        <time>2015-06-07T11:16:40Z</time>
      </trkpt>
      <trkpt lat="47.89727" lon="-1.75267">
        <ele>56</ele>
        <time>2015-06-07T11:16:41Z</time>
      </trkpt>
      <trkpt lat="47.89725" lon="-1.75263">
        <ele>57</ele>
        <time>2015-06-07T11:16:42Z</time>
      </trkpt>
      <trkpt lat="47.89723" lon="-1.75259">
        <ele>57</ele>
        <time>2015-06-07T11:16:43Z</time>
      </trkpt>
      <trkpt lat="47.89721" lon="-1.75255">
        <ele>57</ele>
        <time>2015-06-07T11:16:44Z</time>
      </trkpt>
      <trkpt lat="47.89719" lon="-1.7525">
        <ele>57</ele>
        <time>2015-06-07T11:16:45Z</time>
      </trkpt>
      <trkpt lat="47.89717" lon="-1.75246">
        <ele>57</ele>
        <time>2015-06-07T11:16:46Z</time>
      </trkpt>
      <trkpt lat="47.89716" lon="-1.75242">
        <ele>58</ele>
        <time>2015-06-07T11:16:47Z</time>
      </trkpt>
      <trkpt lat="47.89714" lon="-1.75238">
        <ele>58</ele>
        <time>2015-06-07T11:16:48Z</time>
      </trkpt>
      <trkpt lat="47.89712" lon="-1.75234">
        <ele>58</ele>
        <time>2015-06-07T11:16:49Z</time>
      </trkpt>
      <trkpt lat="47.8971" lon="-1.75231">
        <ele>58</ele>
        <time>2015-06-07T11:16:50Z</time>
      </trkpt>
      <trkpt lat="47.89708" lon="-1.75226">
        <ele>59</ele>
        <time>2015-06-07T11:16:51Z</time>
      </trkpt>
      <trkpt lat="47.89706" lon="-1.75222">
        <ele>59</ele>
        <time>2015-06-07T11:16:52Z</time>
      </trkpt>
      <trkpt lat="47.89704" lon="-1.75217">
        <ele>59</ele>
        <time>2015-06-07T11:16:53Z</time>
      </trkpt>
      <trkpt lat="47.89703" lon="-1.75212">
        <ele>59</ele>
        <time>2015-06-07T11:16:54Z</time>
      </trkpt>
      <trkpt lat="47.89702" lon="-1.75207">
        <ele>60</ele>
        <time>2015-06-07T11:16:55Z</time>
      </trkpt>
      <trkpt lat="47.89702" lon="-1.75202">
        <ele>60</ele>
        <time>2015-06-07T11:16:56Z</time>
      </trkpt>
      <trkpt lat="47.89702" lon="-1.75197">
        <ele>60</ele>
        <time>2015-06-07T11:16:57Z</time>
      </trkpt>
      <trkpt lat="47.89703" lon="-1.75192">
        <ele>60</ele>
        <time>2015-06-07T11:16:58Z</time>
      </trkpt>
      <trkpt lat="47.89704" lon="-1.75187">
        <ele>61</ele>
        <time>2015-06-07T11:16:59Z</time>
      </trkpt>
      <trkpt lat="47.89705" lon="-1.75182">
        <ele>61</ele>
        <time>2015-06-07T11:17:00Z</time>
      </trkpt>
      <trkpt lat="47.89707" lon="-1.75177">
        <ele>61</ele>
        <time>2015-06-07T11:17:01Z</time>
      </trkpt>
      <trkpt lat="47.89708" lon="-1.75173">
        <ele>61</ele>
        <time>2015-06-07T11:17:02Z</time>
      </trkpt>
      <trkpt lat="47.8971" lon="-1.75169">
        <ele>61</ele>
        <time>2015-06-07T11:17:03Z</time>
      </trkpt>
      <trkpt lat="47.89712" lon="-1.75165">
        <ele>61</ele>
        <time>2015-06-07T11:17:04Z</time>
      </trkpt>
      <trkpt lat="47.89714" lon="-1.75161">
        <ele>61</ele>
        <time>2015-06-07T11:17:05Z</time>
      </trkpt>
      <trkpt lat="47.89716" lon="-1.75156">
        <ele>61</ele>
        <time>2015-06-07T11:17:06Z</time>
      </trkpt>
      <trkpt lat="47.89717" lon="-1.75152">
        <ele>62</ele>
        <time>2015-06-07T11:17:07Z</time>
      </trkpt>
      <trkpt lat="47.89718" lon="-1.75148">
        <ele>62</ele>
        <time>2015-06-07T11:17:08Z</time>
      </trkpt>
      <trkpt lat="47.89718" lon="-1.75144">
        <ele>62</ele>
        <time>2015-06-07T11:17:09Z</time>
      </trkpt>
      <trkpt lat="47.89718" lon="-1.7514">
        <ele>62</ele>
        <time>2015-06-07T11:17:10Z</time>
      </trkpt>
      <trkpt lat="47.89717" lon="-1.75135">
        <ele>62</ele>
        <time>2015-06-07T11:17:11Z</time>
      </trkpt>
      <trkpt lat="47.89717" lon="-1.75129">
        <ele>62</ele>
        <time>2015-06-07T11:17:12Z</time>
      </trkpt>
      <trkpt lat="47.89716" lon="-1.75124">
        <ele>63</ele>
        <time>2015-06-07T11:17:13Z</time>
      </trkpt>
      <trkpt lat="47.89715" lon="-1.75118">
        <ele>63</ele>
        <time>2015-06-07T11:17:14Z</time>
      </trkpt>
      <trkpt lat="47.89714" lon="-1.75112">
        <ele>63</ele>
        <time>2015-06-07T11:17:15Z</time>
      </trkpt>
      <trkpt lat="47.89714" lon="-1.75106">
        <ele>63</ele>
        <time>2015-06-07T11:17:16Z</time>
      </trkpt>
      <trkpt lat="47.89712" lon="-1.75101">
        <ele>63</ele>
        <time>2015-06-07T11:17:17Z</time>
      </trkpt>
      <trkpt lat="47.8971" lon="-1.75096">
        <ele>63</ele>
        <time>2015-06-07T11:17:18Z</time>
      </trkpt>
      <trkpt lat="47.89708" lon="-1.75091">
        <ele>64</ele>
        <time>2015-06-07T11:17:19Z</time>
      </trkpt>
      <trkpt lat="47.89707" lon="-1.75086">
        <ele>64</ele>
        <time>2015-06-07T11:17:20Z</time>
      </trkpt>
      <trkpt lat="47.89706" lon="-1.7508">
        <ele>64</ele>
        <time>2015-06-07T11:17:21Z</time>
      </trkpt>
      <trkpt lat="47.89704" lon="-1.75073">
        <ele>64</ele>
        <time>2015-06-07T11:17:22Z</time>
      </trkpt>
      <trkpt lat="47.89702" lon="-1.75068">
        <ele>64</ele>
        <time>2015-06-07T11:17:23Z</time>
      </trkpt>
      <trkpt lat="47.897" lon="-1.75063">
        <ele>64</ele>
        <time>2015-06-07T11:17:24Z</time>
      </trkpt>
      <trkpt lat="47.89696" lon="-1.75059">
        <ele>64</ele>
        <time>2015-06-07T11:17:25Z</time>
      </trkpt>
      <trkpt lat="47.89693" lon="-1.75057">
        <ele>64</ele>
        <time>2015-06-07T11:17:26Z</time>
      </trkpt>
      <trkpt lat="47.89689" lon="-1.75056">
        <ele>64</ele>
        <time>2015-06-07T11:17:27Z</time>
      </trkpt>
      <trkpt lat="47.89685" lon="-1.75055">
        <ele>64</ele>
        <time>2015-06-07T11:17:28Z</time>
      </trkpt>
      <trkpt lat="47.89681" lon="-1.75053">
        <ele>64</ele>
        <time>2015-06-07T11:17:29Z</time>
      </trkpt>
      <trkpt lat="47.89677" lon="-1.75052">
        <ele>64</ele>
        <time>2015-06-07T11:17:30Z</time>
      </trkpt>
      <trkpt lat="47.89672" lon="-1.75051">
        <ele>65</ele>
        <time>2015-06-07T11:17:31Z</time>
      </trkpt>
      <trkpt lat="47.89668" lon="-1.7505">
        <ele>65</ele>
        <time>2015-06-07T11:17:32Z</time>
      </trkpt>
      <trkpt lat="47.89664" lon="-1.75049">
        <ele>65</ele>
        <time>2015-06-07T11:17:33Z</time>
      </trkpt>
      <trkpt lat="47.8966" lon="-1.75047">
        <ele>65</ele>
        <time>2015-06-07T11:17:34Z</time>
      </trkpt>
      <trkpt lat="47.89656" lon="-1.75046">
        <ele>65</ele>
        <time>2015-06-07T11:17:35Z</time>
      </trkpt>
      <trkpt lat="47.89652" lon="-1.75044">
        <ele>65</ele>
        <time>2015-06-07T11:17:36Z</time>
      </trkpt>
      <trkpt lat="47.89648" lon="-1.75041">
        <ele>66</ele>
        <time>2015-06-07T11:17:37Z</time>
      </trkpt>
      <trkpt lat="47.89644" lon="-1.75038">
        <ele>66</ele>
        <time>2015-06-07T11:17:38Z</time>
      </trkpt>
      <trkpt lat="47.8964" lon="-1.75035">
        <ele>66</ele>
        <time>2015-06-07T11:17:39Z</time>
      </trkpt>
      <trkpt lat="47.89636" lon="-1.75032">
        <ele>66</ele>
        <time>2015-06-07T11:17:40Z</time>
      </trkpt>
      <trkpt lat="47.89633" lon="-1.7503">
        <ele>66</ele>
        <time>2015-06-07T11:17:41Z</time>
      </trkpt>
      <trkpt lat="47.89629" lon="-1.75027">
        <ele>66</ele>
        <time>2015-06-07T11:17:42Z</time>
      </trkpt>
      <trkpt lat="47.89625" lon="-1.75025">
        <ele>66</ele>
        <time>2015-06-07T11:17:43Z</time>
      </trkpt>
      <trkpt lat="47.89621" lon="-1.75023">
        <ele>67</ele>
        <time>2015-06-07T11:17:44Z</time>
      </trkpt>
      <trkpt lat="47.89617" lon="-1.75022">
        <ele>67</ele>
        <time>2015-06-07T11:17:45Z</time>
      </trkpt>
      <trkpt lat="47.89613" lon="-1.75021">
        <ele>67</ele>
        <time>2015-06-07T11:17:46Z</time>
      </trkpt>
      <trkpt lat="47.89609" lon="-1.75021">
        <ele>67</ele>
        <time>2015-06-07T11:17:47Z</time>
      </trkpt>
      <trkpt lat="47.89605" lon="-1.75021">
        <ele>67</ele>
        <time>2015-06-07T11:17:48Z</time>
      </trkpt>
      <trkpt lat="47.896" lon="-1.7502">
        <ele>67</ele>
        <time>2015-06-07T11:17:49Z</time>
      </trkpt>
      <trkpt lat="47.89596" lon="-1.7502">
        <ele>67</ele>
        <time>2015-06-07T11:17:50Z</time>
      </trkpt>
      <trkpt lat="47.89592" lon="-1.7502">
        <ele>67</ele>
        <time>2015-06-07T11:17:51Z</time>
      </trkpt>
      <trkpt lat="47.89589" lon="-1.7502">
        <ele>67</ele>
        <time>2015-06-07T11:17:52Z</time>
      </trkpt>
      <trkpt lat="47.89585" lon="-1.7502">
        <ele>68</ele>
        <time>2015-06-07T11:17:53Z</time>
      </trkpt>
      <trkpt lat="47.89582" lon="-1.75019">
        <ele>68</ele>
        <time>2015-06-07T11:17:54Z</time>
      </trkpt>
      <trkpt lat="47.89578" lon="-1.75019">
        <ele>68</ele>
        <time>2015-06-07T11:17:55Z</time>
      </trkpt>
      <trkpt lat="47.89574" lon="-1.75018">
        <ele>68</ele>
        <time>2015-06-07T11:17:56Z</time>
      </trkpt>
      <trkpt lat="47.8957" lon="-1.75018">
        <ele>69</ele>
        <time>2015-06-07T11:17:57Z</time>
      </trkpt>
      <trkpt lat="47.89561" lon="-1.75016">
        <ele>69</ele>
        <time>2015-06-07T11:17:58Z</time>
      </trkpt>
      <trkpt lat="47.89556" lon="-1.75016">
        <ele>69</ele>
        <time>2015-06-07T11:17:59Z</time>
      </trkpt>
      <trkpt lat="47.89552" lon="-1.75015">
        <ele>70</ele>
        <time>2015-06-07T11:18:00Z</time>
      </trkpt>
      <trkpt lat="47.89552" lon="-1.75015">
        <ele>70</ele>
        <time>2015-06-07T11:18:01Z</time>
      </trkpt>
      <trkpt lat="47.89548" lon="-1.75014">
        <ele>70</ele>
        <time>2015-06-07T11:18:02Z</time>
      </trkpt>
      <trkpt lat="47.89543" lon="-1.75013">
        <ele>70</ele>
        <time>2015-06-07T11:18:03Z</time>
      </trkpt>
      <trkpt lat="47.89539" lon="-1.75012">
        <ele>70</ele>
        <time>2015-06-07T11:18:04Z</time>
      </trkpt>
      <trkpt lat="47.89534" lon="-1.75011">
        <ele>70</ele>
        <time>2015-06-07T11:18:05Z</time>
      </trkpt>
      <trkpt lat="47.8953" lon="-1.7501">
        <ele>71</ele>
        <time>2015-06-07T11:18:06Z</time>
      </trkpt>
      <trkpt lat="47.89526" lon="-1.75008">
        <ele>71</ele>
        <time>2015-06-07T11:18:07Z</time>
      </trkpt>
      <trkpt lat="47.89521" lon="-1.75007">
        <ele>71</ele>
        <time>2015-06-07T11:18:08Z</time>
      </trkpt>
      <trkpt lat="47.89517" lon="-1.75007">
        <ele>71</ele>
        <time>2015-06-07T11:18:09Z</time>
      </trkpt>
      <trkpt lat="47.89513" lon="-1.75006">
        <ele>71</ele>
        <time>2015-06-07T11:18:10Z</time>
      </trkpt>
      <trkpt lat="47.89509" lon="-1.75005">
        <ele>72</ele>
        <time>2015-06-07T11:18:11Z</time>
      </trkpt>
      <trkpt lat="47.89505" lon="-1.75004">
        <ele>72</ele>
        <time>2015-06-07T11:18:12Z</time>
      </trkpt>
      <trkpt lat="47.89501" lon="-1.75003">
        <ele>72</ele>
        <time>2015-06-07T11:18:13Z</time>
      </trkpt>
      <trkpt lat="47.89496" lon="-1.75003">
        <ele>72</ele>
        <time>2015-06-07T11:18:14Z</time>
      </trkpt>
      <trkpt lat="47.89492" lon="-1.75002">
        <ele>72</ele>
        <time>2015-06-07T11:18:15Z</time>
      </trkpt>
      <trkpt lat="47.89487" lon="-1.75001">
        <ele>72</ele>
        <time>2015-06-07T11:18:16Z</time>
      </trkpt>
      <trkpt lat="47.89483" lon="-1.74999">
        <ele>72</ele>
        <time>2015-06-07T11:18:17Z</time>
      </trkpt>
      <trkpt lat="47.89479" lon="-1.74997">
        <ele>73</ele>
        <time>2015-06-07T11:18:18Z</time>
      </trkpt>
      <trkpt lat="47.89475" lon="-1.74994">
        <ele>73</ele>
        <time>2015-06-07T11:18:19Z</time>
      </trkpt>
      <trkpt lat="47.89471" lon="-1.74991">
        <ele>73</ele>
        <time>2015-06-07T11:18:20Z</time>
      </trkpt>
      <trkpt lat="47.89467" lon="-1.74988">
        <ele>73</ele>
        <time>2015-06-07T11:18:21Z</time>
      </trkpt>
      <trkpt lat="47.89464" lon="-1.74984">
        <ele>73</ele>
        <time>2015-06-07T11:18:22Z</time>
      </trkpt>
      <trkpt lat="47.89462" lon="-1.74978">
        <ele>73</ele>
        <time>2015-06-07T11:18:23Z</time>
      </trkpt>
      <trkpt lat="47.89461" lon="-1.74973">
        <ele>74</ele>
        <time>2015-06-07T11:18:24Z</time>
      </trkpt>
      <trkpt lat="47.8946" lon="-1.74967">
        <ele>74</ele>
        <time>2015-06-07T11:18:25Z</time>
      </trkpt>
      <trkpt lat="47.89459" lon="-1.7496">
        <ele>74</ele>
        <time>2015-06-07T11:18:26Z</time>
      </trkpt>
      <trkpt lat="47.89458" lon="-1.74954">
        <ele>74</ele>
        <time>2015-06-07T11:18:27Z</time>
      </trkpt>
      <trkpt lat="47.89458" lon="-1.74947">
        <ele>74</ele>
        <time>2015-06-07T11:18:28Z</time>
      </trkpt>
      <trkpt lat="47.89458" lon="-1.7494">
        <ele>75</ele>
        <time>2015-06-07T11:18:29Z</time>
      </trkpt>
      <trkpt lat="47.89458" lon="-1.74933">
        <ele>75</ele>
        <time>2015-06-07T11:18:30Z</time>
      </trkpt>
      <trkpt lat="47.89459" lon="-1.74925">
        <ele>75</ele>
        <time>2015-06-07T11:18:31Z</time>
      </trkpt>
      <trkpt lat="47.8946" lon="-1.74917">
        <ele>75</ele>
        <time>2015-06-07T11:18:32Z</time>
      </trkpt>
      <trkpt lat="47.8946" lon="-1.7491">
        <ele>75</ele>
        <time>2015-06-07T11:18:33Z</time>
      </trkpt>
      <trkpt lat="47.8946" lon="-1.74902">
        <ele>75</ele>
        <time>2015-06-07T11:18:34Z</time>
      </trkpt>
      <trkpt lat="47.89461" lon="-1.74894">
        <ele>74</ele>
        <time>2015-06-07T11:18:35Z</time>
      </trkpt>
      <trkpt lat="47.89461" lon="-1.74887">
        <ele>74</ele>
        <time>2015-06-07T11:18:36Z</time>
      </trkpt>
      <trkpt lat="47.89462" lon="-1.74879">
        <ele>74</ele>
        <time>2015-06-07T11:18:37Z</time>
      </trkpt>
      <trkpt lat="47.89463" lon="-1.74872">
        <ele>74</ele>
        <time>2015-06-07T11:18:38Z</time>
      </trkpt>
      <trkpt lat="47.89465" lon="-1.74864">
        <ele>74</ele>
        <time>2015-06-07T11:18:39Z</time>
      </trkpt>
      <trkpt lat="47.89467" lon="-1.74857">
        <ele>74</ele>
        <time>2015-06-07T11:18:40Z</time>
      </trkpt>
      <trkpt lat="47.89469" lon="-1.74852">
        <ele>74</ele>
        <time>2015-06-07T11:18:41Z</time>
      </trkpt>
      <trkpt lat="47.89473" lon="-1.74849">
        <ele>74</ele>
        <time>2015-06-07T11:18:42Z</time>
      </trkpt>
      <trkpt lat="47.89478" lon="-1.74848">
        <ele>74</ele>
        <time>2015-06-07T11:18:43Z</time>
      </trkpt>
      <trkpt lat="47.89484" lon="-1.74847">
        <ele>73</ele>
        <time>2015-06-07T11:18:44Z</time>
      </trkpt>
      <trkpt lat="47.89489" lon="-1.74846">
        <ele>73</ele>
        <time>2015-06-07T11:18:45Z</time>
      </trkpt>
      <trkpt lat="47.89494" lon="-1.74845">
        <ele>73</ele>
        <time>2015-06-07T11:18:46Z</time>
      </trkpt>
      <trkpt lat="47.895" lon="-1.74843">
        <ele>73</ele>
        <time>2015-06-07T11:18:47Z</time>
      </trkpt>
      <trkpt lat="47.89506" lon="-1.74842">
        <ele>72</ele>
        <time>2015-06-07T11:18:48Z</time>
      </trkpt>
      <trkpt lat="47.89512" lon="-1.74841">
        <ele>72</ele>
        <time>2015-06-07T11:18:49Z</time>
      </trkpt>
      <trkpt lat="47.89518" lon="-1.74839">
        <ele>71</ele>
        <time>2015-06-07T11:18:50Z</time>
      </trkpt>
      <trkpt lat="47.89524" lon="-1.74838">
        <ele>71</ele>
        <time>2015-06-07T11:18:51Z</time>
      </trkpt>
      <trkpt lat="47.89531" lon="-1.74837">
        <ele>71</ele>
        <time>2015-06-07T11:18:52Z</time>
      </trkpt>
      <trkpt lat="47.89537" lon="-1.74836">
        <ele>71</ele>
        <time>2015-06-07T11:18:53Z</time>
      </trkpt>
      <trkpt lat="47.89543" lon="-1.74835">
        <ele>70</ele>
        <time>2015-06-07T11:18:54Z</time>
      </trkpt>
      <trkpt lat="47.89549" lon="-1.74834">
        <ele>70</ele>
        <time>2015-06-07T11:18:55Z</time>
      </trkpt>
      <trkpt lat="47.89555" lon="-1.74833">
        <ele>70</ele>
        <time>2015-06-07T11:18:56Z</time>
      </trkpt>
      <trkpt lat="47.89561" lon="-1.74832">
        <ele>69</ele>
        <time>2015-06-07T11:18:57Z</time>
      </trkpt>
      <trkpt lat="47.89567" lon="-1.74831">
        <ele>69</ele>
        <time>2015-06-07T11:18:58Z</time>
      </trkpt>
      <trkpt lat="47.89573" lon="-1.74831">
        <ele>69</ele>
        <time>2015-06-07T11:18:59Z</time>
      </trkpt>
      <trkpt lat="47.89579" lon="-1.74831">
        <ele>69</ele>
        <time>2015-06-07T11:19:00Z</time>
      </trkpt>
      <trkpt lat="47.8959" lon="-1.74832">
        <ele>68</ele>
        <time>2015-06-07T11:19:01Z</time>
      </trkpt>
      <trkpt lat="47.8959" lon="-1.74832">
        <ele>68</ele>
        <time>2015-06-07T11:19:02Z</time>
      </trkpt>
      <trkpt lat="47.89596" lon="-1.74831">
        <ele>68</ele>
        <time>2015-06-07T11:19:03Z</time>
      </trkpt>
      <trkpt lat="47.89602" lon="-1.74828">
        <ele>68</ele>
        <time>2015-06-07T11:19:04Z</time>
      </trkpt>
      <trkpt lat="47.89607" lon="-1.74822">
        <ele>67</ele>
        <time>2015-06-07T11:19:05Z</time>
      </trkpt>
      <trkpt lat="47.89611" lon="-1.74815">
        <ele>66</ele>
        <time>2015-06-07T11:19:06Z</time>
      </trkpt>
      <trkpt lat="47.89613" lon="-1.74797">
        <ele>65</ele>
        <time>2015-06-07T11:19:07Z</time>
      </trkpt>
      <trkpt lat="47.89614" lon="-1.74788">
        <ele>64</ele>
        <time>2015-06-07T11:19:08Z</time>
      </trkpt>
      <trkpt lat="47.89614" lon="-1.74788">
        <ele>64</ele>
        <time>2015-06-07T11:19:09Z</time>
      </trkpt>
      <trkpt lat="47.89614" lon="-1.74779">
        <ele>64</ele>
        <time>2015-06-07T11:19:10Z</time>
      </trkpt>
      <trkpt lat="47.89614" lon="-1.7477">
        <ele>63</ele>
        <time>2015-06-07T11:19:11Z</time>
      </trkpt>
      <trkpt lat="47.89614" lon="-1.74759">
        <ele>63</ele>
        <time>2015-06-07T11:19:12Z</time>
      </trkpt>
      <trkpt lat="47.89613" lon="-1.74749">
        <ele>62</ele>
        <time>2015-06-07T11:19:13Z</time>
      </trkpt>
      <trkpt lat="47.89613" lon="-1.74739">
        <ele>62</ele>
        <time>2015-06-07T11:19:14Z</time>
      </trkpt>
      <trkpt lat="47.89612" lon="-1.74729">
        <ele>62</ele>
        <time>2015-06-07T11:19:15Z</time>
      </trkpt>
      <trkpt lat="47.89611" lon="-1.7472">
        <ele>62</ele>
        <time>2015-06-07T11:19:16Z</time>
      </trkpt>
      <trkpt lat="47.89609" lon="-1.74699">
        <ele>61</ele>
        <time>2015-06-07T11:19:17Z</time>
      </trkpt>
      <trkpt lat="47.89609" lon="-1.74699">
        <ele>61</ele>
        <time>2015-06-07T11:19:18Z</time>
      </trkpt>
      <trkpt lat="47.89608" lon="-1.74689">
        <ele>61</ele>
        <time>2015-06-07T11:19:19Z</time>
      </trkpt>
      <trkpt lat="47.89607" lon="-1.74679">
        <ele>61</ele>
        <time>2015-06-07T11:19:20Z</time>
      </trkpt>
      <trkpt lat="47.89606" lon="-1.74669">
        <ele>60</ele>
        <time>2015-06-07T11:19:21Z</time>
      </trkpt>
      <trkpt lat="47.89605" lon="-1.74658">
        <ele>60</ele>
        <time>2015-06-07T11:19:22Z</time>
      </trkpt>
      <trkpt lat="47.89605" lon="-1.74648">
        <ele>60</ele>
        <time>2015-06-07T11:19:23Z</time>
      </trkpt>
      <trkpt lat="47.89606" lon="-1.74638">
        <ele>59</ele>
        <time>2015-06-07T11:19:24Z</time>
      </trkpt>
      <trkpt lat="47.89611" lon="-1.74621">
        <ele>59</ele>
        <time>2015-06-07T11:19:25Z</time>
      </trkpt>
      <trkpt lat="47.89613" lon="-1.74613">
        <ele>59</ele>
        <time>2015-06-07T11:19:26Z</time>
      </trkpt>
      <trkpt lat="47.89615" lon="-1.74607">
        <ele>58</ele>
        <time>2015-06-07T11:19:27Z</time>
      </trkpt>
      <trkpt lat="47.89615" lon="-1.74607">
        <ele>58</ele>
        <time>2015-06-07T11:19:28Z</time>
      </trkpt>
      <trkpt lat="47.89616" lon="-1.74603">
        <ele>58</ele>
        <time>2015-06-07T11:19:29Z</time>
      </trkpt>
      <trkpt lat="47.89618" lon="-1.74602">
        <ele>58</ele>
        <time>2015-06-07T11:19:30Z</time>
      </trkpt>
      <trkpt lat="47.89619" lon="-1.74604">
        <ele>58</ele>
        <time>2015-06-07T11:19:31Z</time>
      </trkpt>
      <trkpt lat="47.89617" lon="-1.7461">
        <ele>57</ele>
        <time>2015-06-07T11:19:32Z</time>
      </trkpt>
      <trkpt lat="47.89614" lon="-1.74611">
        <ele>57</ele>
        <time>2015-06-07T11:19:33Z</time>
      </trkpt>
      <trkpt lat="47.89614" lon="-1.74611">
        <ele>57</ele>
        <time>2015-06-07T11:19:34Z</time>
      </trkpt>
      <trkpt lat="47.89608" lon="-1.7461">
        <ele>57</ele>
        <time>2015-06-07T11:19:35Z</time>
      </trkpt>
      <trkpt lat="47.89608" lon="-1.7461">
        <ele>57</ele>
        <time>2015-06-07T11:19:36Z</time>
      </trkpt>
      <trkpt lat="47.89605" lon="-1.74606">
        <ele>57</ele>
        <time>2015-06-07T11:19:37Z</time>
      </trkpt>
      <trkpt lat="47.89602" lon="-1.74601">
        <ele>57</ele>
        <time>2015-06-07T11:19:38Z</time>
      </trkpt>
      <trkpt lat="47.89599" lon="-1.74595">
        <ele>56</ele>
        <time>2015-06-07T11:19:39Z</time>
      </trkpt>
      <trkpt lat="47.89595" lon="-1.74581">
        <ele>56</ele>
        <time>2015-06-07T11:19:40Z</time>
      </trkpt>
      <trkpt lat="47.89594" lon="-1.74574">
        <ele>56</ele>
        <time>2015-06-07T11:19:41Z</time>
      </trkpt>
      <trkpt lat="47.89594" lon="-1.74574">
        <ele>56</ele>
        <time>2015-06-07T11:19:42Z</time>
      </trkpt>
      <trkpt lat="47.89593" lon="-1.74566">
        <ele>56</ele>
        <time>2015-06-07T11:19:43Z</time>
      </trkpt>
      <trkpt lat="47.89592" lon="-1.74559">
        <ele>56</ele>
        <time>2015-06-07T11:19:44Z</time>
      </trkpt>
      <trkpt lat="47.89592" lon="-1.74552">
        <ele>56</ele>
        <time>2015-06-07T11:19:45Z</time>
      </trkpt>
      <trkpt lat="47.89589" lon="-1.74546">
        <ele>56</ele>
        <time>2015-06-07T11:19:46Z</time>
      </trkpt>
      <trkpt lat="47.89586" lon="-1.74541">
        <ele>56</ele>
        <time>2015-06-07T11:19:47Z</time>
      </trkpt>
      <trkpt lat="47.89582" lon="-1.74538">
        <ele>56</ele>
        <time>2015-06-07T11:19:48Z</time>
      </trkpt>
      <trkpt lat="47.89577" lon="-1.74537">
        <ele>56</ele>
        <time>2015-06-07T11:19:49Z</time>
      </trkpt>
      <trkpt lat="47.89572" lon="-1.74538">
        <ele>56</ele>
        <time>2015-06-07T11:19:50Z</time>
      </trkpt>
      <trkpt lat="47.89563" lon="-1.7454">
        <ele>56</ele>
        <time>2015-06-07T11:19:51Z</time>
      </trkpt>
      <trkpt lat="47.89559" lon="-1.74542">
        <ele>56</ele>
        <time>2015-06-07T11:19:52Z</time>
      </trkpt>
      <trkpt lat="47.89554" lon="-1.74544">
        <ele>56</ele>
        <time>2015-06-07T11:19:53Z</time>
      </trkpt>
      <trkpt lat="47.89554" lon="-1.74544">
        <ele>56</ele>
        <time>2015-06-07T11:19:54Z</time>
      </trkpt>
      <trkpt lat="47.8955" lon="-1.74545">
        <ele>56</ele>
        <time>2015-06-07T11:19:55Z</time>
      </trkpt>
      <trkpt lat="47.89541" lon="-1.74548">
        <ele>57</ele>
        <time>2015-06-07T11:19:56Z</time>
      </trkpt>
      <trkpt lat="47.89537" lon="-1.7455">
        <ele>57</ele>
        <time>2015-06-07T11:19:57Z</time>
      </trkpt>
      <trkpt lat="47.89537" lon="-1.7455">
        <ele>57</ele>
        <time>2015-06-07T11:19:58Z</time>
      </trkpt>
      <trkpt lat="47.89534" lon="-1.74554">
        <ele>57</ele>
        <time>2015-06-07T11:19:59Z</time>
      </trkpt>
      <trkpt lat="47.89532" lon="-1.74558">
        <ele>57</ele>
        <time>2015-06-07T11:20:00Z</time>
      </trkpt>
      <trkpt lat="47.89531" lon="-1.74564">
        <ele>57</ele>
        <time>2015-06-07T11:20:01Z</time>
      </trkpt>
      <trkpt lat="47.8953" lon="-1.7457">
        <ele>57</ele>
        <time>2015-06-07T11:20:02Z</time>
      </trkpt>
      <trkpt lat="47.8953" lon="-1.74575">
        <ele>58</ele>
        <time>2015-06-07T11:20:03Z</time>
      </trkpt>
      <trkpt lat="47.8953" lon="-1.74581">
        <ele>58</ele>
        <time>2015-06-07T11:20:04Z</time>
      </trkpt>
      <trkpt lat="47.89529" lon="-1.74587">
        <ele>58</ele>
        <time>2015-06-07T11:20:05Z</time>
      </trkpt>
      <trkpt lat="47.89529" lon="-1.74592">
        <ele>58</ele>
        <time>2015-06-07T11:20:06Z</time>
      </trkpt>
      <trkpt lat="47.89529" lon="-1.74598">
        <ele>58</ele>
        <time>2015-06-07T11:20:07Z</time>
      </trkpt>
      <trkpt lat="47.89526" lon="-1.74608">
        <ele>59</ele>
        <time>2015-06-07T11:20:08Z</time>
      </trkpt>
      <trkpt lat="47.89526" lon="-1.74608">
        <ele>59</ele>
        <time>2015-06-07T11:20:09Z</time>
      </trkpt>
      <trkpt lat="47.89524" lon="-1.74611">
        <ele>59</ele>
        <time>2015-06-07T11:20:10Z</time>
      </trkpt>
      <trkpt lat="47.89521" lon="-1.74615">
        <ele>59</ele>
        <time>2015-06-07T11:20:11Z</time>
      </trkpt>
      <trkpt lat="47.89518" lon="-1.74617">
        <ele>59</ele>
        <time>2015-06-07T11:20:12Z</time>
      </trkpt>
      <trkpt lat="47.89515" lon="-1.7462">
        <ele>60</ele>
        <time>2015-06-07T11:20:13Z</time>
      </trkpt>
      <trkpt lat="47.89512" lon="-1.74624">
        <ele>60</ele>
        <time>2015-06-07T11:20:14Z</time>
      </trkpt>
      <trkpt lat="47.8951" lon="-1.74629">
        <ele>60</ele>
        <time>2015-06-07T11:20:15Z</time>
      </trkpt>
      <trkpt lat="47.89505" lon="-1.74637">
        <ele>60</ele>
        <time>2015-06-07T11:20:16Z</time>
      </trkpt>
      <trkpt lat="47.89505" lon="-1.74637">
        <ele>60</ele>
        <time>2015-06-07T11:20:17Z</time>
      </trkpt>
      <trkpt lat="47.89504" lon="-1.74641">
        <ele>60</ele>
        <time>2015-06-07T11:20:18Z</time>
      </trkpt>
      <trkpt lat="47.89502" lon="-1.74646">
        <ele>61</ele>
        <time>2015-06-07T11:20:19Z</time>
      </trkpt>
      <trkpt lat="47.89501" lon="-1.7465">
        <ele>61</ele>
        <time>2015-06-07T11:20:20Z</time>
      </trkpt>
      <trkpt lat="47.895" lon="-1.74655">
        <ele>61</ele>
        <time>2015-06-07T11:20:21Z</time>
      </trkpt>
      <trkpt lat="47.89499" lon="-1.7466">
        <ele>61</ele>
        <time>2015-06-07T11:20:22Z</time>
      </trkpt>
      <trkpt lat="47.89499" lon="-1.74665">
        <ele>61</ele>
        <time>2015-06-07T11:20:23Z</time>
      </trkpt>
      <trkpt lat="47.89499" lon="-1.7467">
        <ele>61</ele>
        <time>2015-06-07T11:20:24Z</time>
      </trkpt>
      <trkpt lat="47.895" lon="-1.74675">
        <ele>62</ele>
        <time>2015-06-07T11:20:25Z</time>
      </trkpt>
      <trkpt lat="47.895" lon="-1.74679">
        <ele>62</ele>
        <time>2015-06-07T11:20:26Z</time>
      </trkpt>
      <trkpt lat="47.895" lon="-1.74684">
        <ele>62</ele>
        <time>2015-06-07T11:20:27Z</time>
      </trkpt>
      <trkpt lat="47.89499" lon="-1.74689">
        <ele>62</ele>
        <time>2015-06-07T11:20:28Z</time>
      </trkpt>
      <trkpt lat="47.89498" lon="-1.74694">
        <ele>62</ele>
        <time>2015-06-07T11:20:29Z</time>
      </trkpt>
      <trkpt lat="47.89497" lon="-1.74699">
        <ele>62</ele>
        <time>2015-06-07T11:20:30Z</time>
      </trkpt>
      <trkpt lat="47.89496" lon="-1.74703">
        <ele>62</ele>
        <time>2015-06-07T11:20:31Z</time>
      </trkpt>
      <trkpt lat="47.89494" lon="-1.74708">
        <ele>63</ele>
        <time>2015-06-07T11:20:32Z</time>
      </trkpt>
      <trkpt lat="47.89493" lon="-1.74712">
        <ele>63</ele>
        <time>2015-06-07T11:20:33Z</time>
      </trkpt>
      <trkpt lat="47.89491" lon="-1.74717">
        <ele>63</ele>
        <time>2015-06-07T11:20:34Z</time>
      </trkpt>
      <trkpt lat="47.89489" lon="-1.74721">
        <ele>63</ele>
        <time>2015-06-07T11:20:35Z</time>
      </trkpt>
      <trkpt lat="47.89487" lon="-1.74725">
        <ele>64</ele>
        <time>2015-06-07T11:20:36Z</time>
      </trkpt>
      <trkpt lat="47.89486" lon="-1.74729">
        <ele>64</ele>
        <time>2015-06-07T11:20:37Z</time>
      </trkpt>
      <trkpt lat="47.89484" lon="-1.74733">
        <ele>64</ele>
        <time>2015-06-07T11:20:38Z</time>
      </trkpt>
      <trkpt lat="47.89484" lon="-1.74736">
        <ele>64</ele>
        <time>2015-06-07T11:20:39Z</time>
      </trkpt>
      <trkpt lat="47.89484" lon="-1.74738">
        <ele>64</ele>
        <time>2015-06-07T11:20:40Z</time>
      </trkpt>
      <trkpt lat="47.89484" lon="-1.74739">
        <ele>64</ele>
        <time>2015-06-07T11:20:41Z</time>
      </trkpt>
      <trkpt lat="47.89484" lon="-1.7474">
        <ele>65</ele>
        <time>2015-06-07T11:20:42Z</time>
      </trkpt>
      <trkpt lat="47.89484" lon="-1.74741">
        <ele>65</ele>
        <time>2015-06-07T11:20:43Z</time>
      </trkpt>
      <trkpt lat="47.89485" lon="-1.74742">
        <ele>65</ele>
        <time>2015-06-07T11:20:44Z</time>
      </trkpt>
      <trkpt lat="47.89486" lon="-1.74743">
        <ele>65</ele>
        <time>2015-06-07T11:20:45Z</time>
      </trkpt>
      <trkpt lat="47.89487" lon="-1.74744">
        <ele>65</ele>
        <time>2015-06-07T11:20:46Z</time>
      </trkpt>
      <trkpt lat="47.89487" lon="-1.74746">
        <ele>65</ele>
        <time>2015-06-07T11:20:47Z</time>
      </trkpt>
      <trkpt lat="47.89488" lon="-1.74747">
        <ele>66</ele>
        <time>2015-06-07T11:20:48Z</time>
      </trkpt>
      <trkpt lat="47.89488" lon="-1.74749">
        <ele>66</ele>
        <time>2015-06-07T11:20:49Z</time>
      </trkpt>
      <trkpt lat="47.89488" lon="-1.7475">
        <ele>66</ele>
        <time>2015-06-07T11:20:50Z</time>
      </trkpt>
      <trkpt lat="47.89488" lon="-1.7475">
        <ele>66</ele>
        <time>2015-06-07T11:20:51Z</time>
      </trkpt>
      <trkpt lat="47.89488" lon="-1.7475">
        <ele>66</ele>
        <time>2015-06-07T11:20:52Z</time>
      </trkpt>
      <trkpt lat="47.89488" lon="-1.7475">
        <ele>66</ele>
        <time>2015-06-07T11:20:53Z</time>
      </trkpt>
      <trkpt lat="47.89488" lon="-1.7475">
        <ele>66</ele>
        <time>2015-06-07T11:20:54Z</time>
      </trkpt>
    </trkseg>
  </trk>
</gpx>